<?xml version='1.0' encoding='UTF-8'?><gpx version="1.1" creator="JPX - https://github.com/jenetics/jpx" xmlns="http://www.topografix.com/GPX/1/1"><trk><trkseg><trkpt lat="42.56751346432373" lon="12.621988814162865"><ele>117.16666666666667</ele><time>2026-05-02T08:31:35Z</time></trkpt><trkpt lat="42.56742209900555" lon="12.621979146734581"><ele>117.33333333333334</ele><time>2026-05-02T08:31:36Z</time></trkpt><trkpt lat="42.56734385425112" lon="12.621976999249215"><ele>117.5</ele><time>2026-05-02T08:31:37Z</time></trkpt><trkpt lat="42.56726322245481" lon="12.6219665553412"><ele>117.66666666666667</ele><time>2026-05-02T08:31:38Z</time></trkpt><trkpt lat="42.56720032058829" lon="12.621938826096397"><ele>117.83333333333334</ele><time>2026-05-02T08:31:39Z</time></trkpt><trkpt lat="42.567132611454724" lon="12.621808917088984"><ele>118.0</ele><time>2026-05-02T08:31:41Z</time></trkpt><trkpt lat="42.56713445717244" lon="12.621681421085045"><ele>118.0</ele><time>2026-05-02T08:31:42Z</time></trkpt><trkpt lat="42.56711146369863" lon="12.62151150007065"><ele>118.0</ele><time>2026-05-02T08:31:43Z</time></trkpt><trkpt lat="42.567107423389814" lon="12.62136659392539"><ele>118.0</ele><time>2026-05-02T08:31:44Z</time></trkpt><trkpt lat="42.5671175011938" lon="12.621221327818244"><ele>118.0</ele><time>2026-05-02T08:31:45Z</time></trkpt><trkpt lat="42.56711333703798" lon="12.621059552317012"><ele>117.25</ele><time>2026-05-02T08:31:46Z</time></trkpt><trkpt lat="42.56706835431044" lon="12.620884467993337"><ele>116.5</ele><time>2026-05-02T08:31:47Z</time></trkpt><trkpt lat="42.567057414427225" lon="12.620715852054518"><ele>115.75</ele><time>2026-05-02T08:31:48Z</time></trkpt><trkpt lat="42.567093867201415" lon="12.620520680773332"><ele>115.0</ele><time>2026-05-02T08:31:49Z</time></trkpt><trkpt lat="42.56708485249366" lon="12.620338720739554"><ele>114.5</ele><time>2026-05-02T08:31:50Z</time></trkpt><trkpt lat="42.56708050567254" lon="12.620161770536777"><ele>114.0</ele><time>2026-05-02T08:31:51Z</time></trkpt><trkpt lat="42.56706508573785" lon="12.619979809342224"><ele>113.5</ele><time>2026-05-02T08:31:52Z</time></trkpt><trkpt lat="42.567061303953025" lon="12.619793593693677"><ele>113.0</ele><time>2026-05-02T08:31:53Z</time></trkpt><trkpt lat="42.56705442946961" lon="12.61960388465675"><ele>113.5</ele><time>2026-05-02T08:31:54Z</time></trkpt><trkpt lat="42.56704900485614" lon="12.61941305368716"><ele>114.0</ele><time>2026-05-02T08:31:55Z</time></trkpt><trkpt lat="42.56704115455573" lon="12.619213990221828"><ele>114.5</ele><time>2026-05-02T08:31:56Z</time></trkpt><trkpt lat="42.56703412037301" lon="12.619018150365957"><ele>115.0</ele><time>2026-05-02T08:31:57Z</time></trkpt><trkpt lat="42.5670304270548" lon="12.618822547644749"><ele>114.75</ele><time>2026-05-02T08:31:57.999Z</time></trkpt><trkpt lat="42.56702540156383" lon="12.618637750850318"><ele>114.5</ele><time>2026-05-02T08:31:58.999Z</time></trkpt><trkpt lat="42.567019270093496" lon="12.618469517069029"><ele>114.25</ele><time>2026-05-02T08:31:59.999Z</time></trkpt><trkpt lat="42.56701217333134" lon="12.618289909716996"><ele>114.0</ele><time>2026-05-02T08:32:00.999Z</time></trkpt><trkpt lat="42.56700773063231" lon="12.618109376234628"><ele>114.0</ele><time>2026-05-02T08:32:01.999Z</time></trkpt><trkpt lat="42.56700502066268" lon="12.617918929839853"><ele>114.0</ele><time>2026-05-02T08:32:02.999Z</time></trkpt><trkpt lat="42.56700110062414" lon="12.617732762720658"><ele>114.0</ele><time>2026-05-02T08:32:03.999Z</time></trkpt><trkpt lat="42.566997309647704" lon="12.617555760557579"><ele>114.0</ele><time>2026-05-02T08:32:04.999Z</time></trkpt><trkpt lat="42.56699208998745" lon="12.617382605513546"><ele>113.5</ele><time>2026-05-02T08:32:05.999Z</time></trkpt><trkpt lat="42.56699249945459" lon="12.617204596073266"><ele>113.0</ele><time>2026-05-02T08:32:06.999Z</time></trkpt><trkpt lat="42.56699853095958" lon="12.61702936240534"><ele>112.5</ele><time>2026-05-02T08:32:07.999Z</time></trkpt><trkpt lat="42.56701230325597" lon="12.616853483750555"><ele>112.0</ele><time>2026-05-02T08:32:08.999Z</time></trkpt><trkpt lat="42.567019555761156" lon="12.616677112851916"><ele>111.75</ele><time>2026-05-02T08:32:09.999Z</time></trkpt><trkpt lat="42.56702423425661" lon="12.616507537493833"><ele>111.5</ele><time>2026-05-02T08:32:10.999Z</time></trkpt><trkpt lat="42.56703274631039" lon="12.616333150554725"><ele>111.25</ele><time>2026-05-02T08:32:11.999Z</time></trkpt><trkpt lat="42.56704536240914" lon="12.616146921957336"><ele>111.0</ele><time>2026-05-02T08:32:12.999Z</time></trkpt><trkpt lat="42.567059816383505" lon="12.615958574335068"><ele>111.5</ele><time>2026-05-02T08:32:13.999Z</time></trkpt><trkpt lat="42.56706466676275" lon="12.615774121351738"><ele>112.0</ele><time>2026-05-02T08:32:14.999Z</time></trkpt><trkpt lat="42.56707832266359" lon="12.615609019597148"><ele>112.5</ele><time>2026-05-02T08:32:15.999Z</time></trkpt><trkpt lat="42.567095143766565" lon="12.615455083633579"><ele>113.0</ele><time>2026-05-02T08:32:16.999Z</time></trkpt><trkpt lat="42.56711437733292" lon="12.615290326181848"><ele>113.2</ele><time>2026-05-02T08:32:17.999Z</time></trkpt><trkpt lat="42.567131057362815" lon="12.615117192490832"><ele>113.4</ele><time>2026-05-02T08:32:18.999Z</time></trkpt><trkpt lat="42.56715177848649" lon="12.61496629877442"><ele>113.60000000000001</ele><time>2026-05-02T08:32:19.999Z</time></trkpt><trkpt lat="42.56716077547489" lon="12.614829778763083"><ele>113.80000000000001</ele><time>2026-05-02T08:32:20.999Z</time></trkpt><trkpt lat="42.56717953340959" lon="12.61470137786585"><ele>114.0</ele><time>2026-05-02T08:32:21.999Z</time></trkpt><trkpt lat="42.56719010372953" lon="12.614580132733069"><ele>114.0</ele><time>2026-05-02T08:32:22.999Z</time></trkpt><trkpt lat="42.56721893076055" lon="12.614453236107783"><ele>114.0</ele><time>2026-05-02T08:32:23.999Z</time></trkpt><trkpt lat="42.56729061386093" lon="12.614343267197865"><ele>114.0</ele><time>2026-05-02T08:32:24.999Z</time></trkpt><trkpt lat="42.56730872785547" lon="12.61419260724982"><ele>114.0</ele><time>2026-05-02T08:32:25.999Z</time></trkpt><trkpt lat="42.56724680828105" lon="12.614030182858526"><ele>114.0</ele><time>2026-05-02T08:32:26.999Z</time></trkpt><trkpt lat="42.56725708510216" lon="12.61383432207342"><ele>114.0</ele><time>2026-05-02T08:32:27.999Z</time></trkpt><trkpt lat="42.56725843924207" lon="12.613613415901659"><ele>114.0</ele><time>2026-05-02T08:32:28.999Z</time></trkpt><trkpt lat="42.56728653742798" lon="12.613376000605884"><ele>113.33333333333334</ele><time>2026-05-02T08:32:29.999Z</time></trkpt><trkpt lat="42.56730965822521" lon="12.613149740942248"><ele>112.66666666666667</ele><time>2026-05-02T08:32:31Z</time></trkpt><trkpt lat="42.56731920451556" lon="12.612948734047643"><ele>112.0</ele><time>2026-05-02T08:32:32Z</time></trkpt><trkpt lat="42.56732517832666" lon="12.612748252231055"><ele>112.0</ele><time>2026-05-02T08:32:33Z</time></trkpt><trkpt lat="42.5673419903713" lon="12.612535393578256"><ele>112.0</ele><time>2026-05-02T08:32:34Z</time></trkpt><trkpt lat="42.56735462649717" lon="12.612314675906427"><ele>112.0</ele><time>2026-05-02T08:32:35Z</time></trkpt><trkpt lat="42.56735868413283" lon="12.612104063599151"><ele>111.75</ele><time>2026-05-02T08:32:36Z</time></trkpt><trkpt lat="42.56735612422098" lon="12.611898774992625"><ele>111.5</ele><time>2026-05-02T08:32:37Z</time></trkpt><trkpt lat="42.5673493313828" lon="12.611699661961573"><ele>111.25</ele><time>2026-05-02T08:32:38Z</time></trkpt><trkpt lat="42.56734156270764" lon="12.611500135181387"><ele>111.0</ele><time>2026-05-02T08:32:39Z</time></trkpt><trkpt lat="42.56733140237496" lon="12.611304777068128"><ele>111.0</ele><time>2026-05-02T08:32:40Z</time></trkpt><trkpt lat="42.567312770622024" lon="12.611105091813746"><ele>111.0</ele><time>2026-05-02T08:32:41Z</time></trkpt><trkpt lat="42.56727002256312" lon="12.610914851571023"><ele>111.0</ele><time>2026-05-02T08:32:42Z</time></trkpt><trkpt lat="42.56725317901891" lon="12.610730934663156"><ele>111.0</ele><time>2026-05-02T08:32:43Z</time></trkpt><trkpt lat="42.56722745283692" lon="12.610565311965056"><ele>111.0</ele><time>2026-05-02T08:32:44Z</time></trkpt><trkpt lat="42.567199985513845" lon="12.610415026411976"><ele>111.0</ele><time>2026-05-02T08:32:45Z</time></trkpt><trkpt lat="42.567176852715114" lon="12.610286292983997"><ele>111.0</ele><time>2026-05-02T08:32:46Z</time></trkpt><trkpt lat="42.567153544482025" lon="12.610171333944457"><ele>111.0</ele><time>2026-05-02T08:32:47Z</time></trkpt><trkpt lat="42.56713002874929" lon="12.610056541566575"><ele>111.0</ele><time>2026-05-02T08:32:48Z</time></trkpt><trkpt lat="42.56710858666448" lon="12.609932494091868"><ele>111.0</ele><time>2026-05-02T08:32:49Z</time></trkpt><trkpt lat="42.56708865156321" lon="12.609818334611564"><ele>111.0</ele><time>2026-05-02T08:32:50Z</time></trkpt><trkpt lat="42.56706682694121" lon="12.609710072329786"><ele>111.0</ele><time>2026-05-02T08:32:51Z</time></trkpt><trkpt lat="42.56704512209821" lon="12.6095938232017"><ele>111.0</ele><time>2026-05-02T08:32:52Z</time></trkpt><trkpt lat="42.567025135119515" lon="12.609467891906435"><ele>111.0</ele><time>2026-05-02T08:32:53Z</time></trkpt><trkpt lat="42.5670057003004" lon="12.609339316841789"><ele>111.0</ele><time>2026-05-02T08:32:54Z</time></trkpt><trkpt lat="42.56698087802822" lon="12.60920067204725"><ele>110.8</ele><time>2026-05-02T08:32:55Z</time></trkpt><trkpt lat="42.56695822093592" lon="12.60906727661482"><ele>110.6</ele><time>2026-05-02T08:32:56Z</time></trkpt><trkpt lat="42.56693657028314" lon="12.608925560846835"><ele>110.4</ele><time>2026-05-02T08:32:57Z</time></trkpt><trkpt lat="42.5669085033527" lon="12.608777568886902"><ele>110.2</ele><time>2026-05-02T08:32:58Z</time></trkpt><trkpt lat="42.56690388650968" lon="12.608603001240727"><ele>110.0</ele><time>2026-05-02T08:32:59Z</time></trkpt><trkpt lat="42.5669051130919" lon="12.608401248133127"><ele>110.0</ele><time>2026-05-02T08:33:00Z</time></trkpt><trkpt lat="42.56687250784619" lon="12.608211166108218"><ele>110.0</ele><time>2026-05-02T08:33:01Z</time></trkpt><trkpt lat="42.566870805665445" lon="12.608020723123431"><ele>110.0</ele><time>2026-05-02T08:33:02Z</time></trkpt><trkpt lat="42.5668446322634" lon="12.607845762723318"><ele>110.0</ele><time>2026-05-02T08:33:03Z</time></trkpt><trkpt lat="42.56683436686146" lon="12.607688854233885"><ele>110.0</ele><time>2026-05-02T08:33:04Z</time></trkpt><trkpt lat="42.566831056661094" lon="12.607550258228448"><ele>110.0</ele><time>2026-05-02T08:33:05Z</time></trkpt><trkpt lat="42.56682241254491" lon="12.607423353155054"><ele>110.0</ele><time>2026-05-02T08:33:06Z</time></trkpt><trkpt lat="42.56681349151451" lon="12.607303349188461"><ele>110.0</ele><time>2026-05-02T08:33:07Z</time></trkpt><trkpt lat="42.56680581519817" lon="12.607184125942629"><ele>110.0</ele><time>2026-05-02T08:33:08Z</time></trkpt><trkpt lat="42.56680134051434" lon="12.607058785626615"><ele>110.0</ele><time>2026-05-02T08:33:09Z</time></trkpt><trkpt lat="42.56680005282249" lon="12.606923048084465"><ele>110.0</ele><time>2026-05-02T08:33:10Z</time></trkpt><trkpt lat="42.56679930944823" lon="12.606781234554104"><ele>110.0</ele><time>2026-05-02T08:33:11Z</time></trkpt><trkpt lat="42.56680256448136" lon="12.606637950944116"><ele>110.0</ele><time>2026-05-02T08:33:12Z</time></trkpt><trkpt lat="42.56680913626336" lon="12.606498091233892"><ele>110.0</ele><time>2026-05-02T08:33:13Z</time></trkpt><trkpt lat="42.56681725569819" lon="12.606366905686004"><ele>109.99999999999999</ele><time>2026-05-02T08:33:14Z</time></trkpt><trkpt lat="42.56682750054638" lon="12.606256257805013"><ele>110.0</ele><time>2026-05-02T08:33:15Z</time></trkpt><trkpt lat="42.56684090392266" lon="12.606151991805794"><ele>110.0</ele><time>2026-05-02T08:33:16Z</time></trkpt><trkpt lat="42.56685070466441" lon="12.606042252649088"><ele>110.0</ele><time>2026-05-02T08:33:17Z</time></trkpt><trkpt lat="42.5668572467797" lon="12.605914914034956"><ele>109.99999999999999</ele><time>2026-05-02T08:33:18Z</time></trkpt><trkpt lat="42.56687881758996" lon="12.605770852971126"><ele>110.0</ele><time>2026-05-02T08:33:19Z</time></trkpt><trkpt lat="42.5669062911585" lon="12.605612502483401"><ele>110.0</ele><time>2026-05-02T08:33:20Z</time></trkpt><trkpt lat="42.56692864116489" lon="12.605418256039039"><ele>110.0</ele><time>2026-05-02T08:33:21Z</time></trkpt><trkpt lat="42.56695513527989" lon="12.605201037473636"><ele>110.0</ele><time>2026-05-02T08:33:22Z</time></trkpt><trkpt lat="42.566993158526444" lon="12.604988997292145"><ele>110.0</ele><time>2026-05-02T08:33:23Z</time></trkpt><trkpt lat="42.56704755134589" lon="12.604777439534924"><ele>110.0</ele><time>2026-05-02T08:33:24Z</time></trkpt><trkpt lat="42.56710449649277" lon="12.604565106285634"><ele>110.0</ele><time>2026-05-02T08:33:25Z</time></trkpt><trkpt lat="42.567157560647836" lon="12.60436684091526"><ele>109.0</ele><time>2026-05-02T08:33:26Z</time></trkpt><trkpt lat="42.5672103430995" lon="12.604158212941433"><ele>108.0</ele><time>2026-05-02T08:33:27Z</time></trkpt><trkpt lat="42.56726546686611" lon="12.60394933963076"><ele>107.0</ele><time>2026-05-02T08:33:28Z</time></trkpt><trkpt lat="42.56732403654595" lon="12.603741172287405"><ele>106.66666666666666</ele><time>2026-05-02T08:33:29Z</time></trkpt><trkpt lat="42.567380933563975" lon="12.603535795413626"><ele>106.33333333333334</ele><time>2026-05-02T08:33:30Z</time></trkpt><trkpt lat="42.56743655454963" lon="12.603331316221626"><ele>106.0</ele><time>2026-05-02T08:33:31Z</time></trkpt><trkpt lat="42.567488597250566" lon="12.60312579590905"><ele>106.0</ele><time>2026-05-02T08:33:32Z</time></trkpt><trkpt lat="42.56753776310228" lon="12.602915614403551"><ele>106.0</ele><time>2026-05-02T08:33:33Z</time></trkpt><trkpt lat="42.56757885899539" lon="12.602700203639861"><ele>106.0</ele><time>2026-05-02T08:33:34Z</time></trkpt><trkpt lat="42.567613037685426" lon="12.602472823878433"><ele>106.0</ele><time>2026-05-02T08:33:35Z</time></trkpt><trkpt lat="42.56764048106509" lon="12.602230109286007"><ele>106.0</ele><time>2026-05-02T08:33:36Z</time></trkpt><trkpt lat="42.56766591465688" lon="12.601978475174679"><ele>106.0</ele><time>2026-05-02T08:33:37Z</time></trkpt><trkpt lat="42.56768465618723" lon="12.60171811124824"><ele>106.0</ele><time>2026-05-02T08:33:38Z</time></trkpt><trkpt lat="42.56769362350965" lon="12.60144965771135"><ele>106.0</ele><time>2026-05-02T08:33:39Z</time></trkpt><trkpt lat="42.56769117612543" lon="12.601170898426249"><ele>106.0</ele><time>2026-05-02T08:33:40Z</time></trkpt><trkpt lat="42.56768265212016" lon="12.600894188748972"><ele>106.0</ele><time>2026-05-02T08:33:41Z</time></trkpt><trkpt lat="42.56766587496054" lon="12.600631747906215"><ele>106.0</ele><time>2026-05-02T08:33:42Z</time></trkpt><trkpt lat="42.567642383795985" lon="12.600394667247853"><ele>106.0</ele><time>2026-05-02T08:33:42.999Z</time></trkpt><trkpt lat="42.56761445028289" lon="12.600170394990045"><ele>106.0</ele><time>2026-05-02T08:33:43.999Z</time></trkpt><trkpt lat="42.56758345450456" lon="12.5999619404301"><ele>106.0</ele><time>2026-05-02T08:33:44.999Z</time></trkpt><trkpt lat="42.56753069820664" lon="12.599771099222618"><ele>106.0</ele><time>2026-05-02T08:33:45.999Z</time></trkpt><trkpt lat="42.56749420230406" lon="12.599586770840995"><ele>106.0</ele><time>2026-05-02T08:33:46.999Z</time></trkpt><trkpt lat="42.56747064433391" lon="12.599403830212902"><ele>106.0</ele><time>2026-05-02T08:33:47.999Z</time></trkpt><trkpt lat="42.56742519856597" lon="12.59922526524794"><ele>106.0</ele><time>2026-05-02T08:33:48.999Z</time></trkpt><trkpt lat="42.567379011779195" lon="12.59903341224985"><ele>106.0</ele><time>2026-05-02T08:33:49.999Z</time></trkpt><trkpt lat="42.56731635845588" lon="12.598861362019473"><ele>106.0</ele><time>2026-05-02T08:33:50.999Z</time></trkpt><trkpt lat="42.56726582038532" lon="12.598712346069384"><ele>106.0</ele><time>2026-05-02T08:33:51.999Z</time></trkpt><trkpt lat="42.56723604574692" lon="12.598584272019835"><ele>106.0</ele><time>2026-05-02T08:33:52.999Z</time></trkpt><trkpt lat="42.567189266275804" lon="12.598480764228267"><ele>106.0</ele><time>2026-05-02T08:33:53.999Z</time></trkpt><trkpt lat="42.56714873016078" lon="12.598387628592395"><ele>106.0</ele><time>2026-05-02T08:33:54.999Z</time></trkpt><trkpt lat="42.5671005757845" lon="12.598273423490431"><ele>106.0</ele><time>2026-05-02T08:33:55.999Z</time></trkpt><trkpt lat="42.56707596879417" lon="12.598151919642865"><ele>106.0</ele><time>2026-05-02T08:33:56.999Z</time></trkpt><trkpt lat="42.56706555582782" lon="12.598009257035635"><ele>106.0</ele><time>2026-05-02T08:33:57.999Z</time></trkpt><trkpt lat="42.567032621226645" lon="12.59788122099535"><ele>106.0</ele><time>2026-05-02T08:33:58.999Z</time></trkpt><trkpt lat="42.56699099868611" lon="12.597737826321632"><ele>106.0</ele><time>2026-05-02T08:33:59.999Z</time></trkpt><trkpt lat="42.56684463906225" lon="12.597641675436645"><ele>106.33333333333334</ele><time>2026-05-02T08:34:00.999Z</time></trkpt><trkpt lat="42.56673424696383" lon="12.597494114296213"><ele>106.66666666666666</ele><time>2026-05-02T08:34:01.999Z</time></trkpt><trkpt lat="42.566635162505825" lon="12.597308067923441"><ele>107.0</ele><time>2026-05-02T08:34:02.999Z</time></trkpt><trkpt lat="42.566545388249686" lon="12.597092192895712"><ele>107.0</ele><time>2026-05-02T08:34:03.999Z</time></trkpt><trkpt lat="42.566470481898655" lon="12.596897389459878"><ele>107.0</ele><time>2026-05-02T08:34:04.999Z</time></trkpt><trkpt lat="42.5663966083479" lon="12.596716963396451"><ele>107.0</ele><time>2026-05-02T08:34:05.999Z</time></trkpt><trkpt lat="42.56631426101963" lon="12.596532296165668"><ele>107.0</ele><time>2026-05-02T08:34:06.999Z</time></trkpt><trkpt lat="42.56623417798175" lon="12.596355100955403"><ele>107.0</ele><time>2026-05-02T08:34:07.999Z</time></trkpt><trkpt lat="42.56616012991153" lon="12.596208798047154"><ele>107.0</ele><time>2026-05-02T08:34:08.999Z</time></trkpt><trkpt lat="42.56608851874272" lon="12.596060386894735"><ele>107.0</ele><time>2026-05-02T08:34:09.999Z</time></trkpt><trkpt lat="42.56602146728946" lon="12.59589469053469"><ele>106.33333333333333</ele><time>2026-05-02T08:34:10.999Z</time></trkpt><trkpt lat="42.565956153195174" lon="12.595720908198288"><ele>105.66666666666666</ele><time>2026-05-02T08:34:11.999Z</time></trkpt><trkpt lat="42.56587335367258" lon="12.5955340892452"><ele>105.0</ele><time>2026-05-02T08:34:12.999Z</time></trkpt><trkpt lat="42.56578963752234" lon="12.595351163811115"><ele>105.5</ele><time>2026-05-02T08:34:13.999Z</time></trkpt><trkpt lat="42.565713335491864" lon="12.595176618286105"><ele>106.0</ele><time>2026-05-02T08:34:14.999Z</time></trkpt><trkpt lat="42.565641102150565" lon="12.59501432544836"><ele>106.5</ele><time>2026-05-02T08:34:15.999Z</time></trkpt><trkpt lat="42.56556509541414" lon="12.594849524609607"><ele>107.0</ele><time>2026-05-02T08:34:16.999Z</time></trkpt><trkpt lat="42.565485353388354" lon="12.594670681354321"><ele>107.0</ele><time>2026-05-02T08:34:17.999Z</time></trkpt><trkpt lat="42.56540540256921" lon="12.594485354481861"><ele>107.0</ele><time>2026-05-02T08:34:18.999Z</time></trkpt><trkpt lat="42.56532363192857" lon="12.594297227347532"><ele>107.0</ele><time>2026-05-02T08:34:19.999Z</time></trkpt><trkpt lat="42.56524714884035" lon="12.594100031390562"><ele>107.0</ele><time>2026-05-02T08:34:20.999Z</time></trkpt><trkpt lat="42.56518270294797" lon="12.593896608122037"><ele>107.0</ele><time>2026-05-02T08:34:21.999Z</time></trkpt><trkpt lat="42.565121405556624" lon="12.593674524284625"><ele>107.0</ele><time>2026-05-02T08:34:22.999Z</time></trkpt><trkpt lat="42.565066106120234" lon="12.593456584475442"><ele>106.66666666666666</ele><time>2026-05-02T08:34:23.999Z</time></trkpt><trkpt lat="42.56501894771887" lon="12.593253797123122"><ele>106.33333333333334</ele><time>2026-05-02T08:34:24.999Z</time></trkpt><trkpt lat="42.56498114051767" lon="12.593053275745062"><ele>106.0</ele><time>2026-05-02T08:34:25.999Z</time></trkpt><trkpt lat="42.564951060744605" lon="12.592851630345475"><ele>106.0</ele><time>2026-05-02T08:34:26.999Z</time></trkpt><trkpt lat="42.56492646255551" lon="12.59263329441629"><ele>106.0</ele><time>2026-05-02T08:34:27.999Z</time></trkpt><trkpt lat="42.56490893982572" lon="12.592413361720125"><ele>106.0</ele><time>2026-05-02T08:34:28.999Z</time></trkpt><trkpt lat="42.564894278001766" lon="12.592209897004256"><ele>105.66666666666667</ele><time>2026-05-02T08:34:30Z</time></trkpt><trkpt lat="42.56487428618552" lon="12.591997313321492"><ele>105.33333333333334</ele><time>2026-05-02T08:34:31Z</time></trkpt><trkpt lat="42.56485199194871" lon="12.591789603105742"><ele>105.0</ele><time>2026-05-02T08:34:32Z</time></trkpt><trkpt lat="42.56483009710011" lon="12.591585469879965"><ele>105.0</ele><time>2026-05-02T08:34:33Z</time></trkpt><trkpt lat="42.56480230768185" lon="12.591372583976636"><ele>105.0</ele><time>2026-05-02T08:34:34Z</time></trkpt><trkpt lat="42.56478067160606" lon="12.591144097953839"><ele>105.0</ele><time>2026-05-02T08:34:35Z</time></trkpt><trkpt lat="42.56476730611953" lon="12.59093263431603"><ele>105.0</ele><time>2026-05-02T08:34:36Z</time></trkpt><trkpt lat="42.56474806605323" lon="12.590703214932285"><ele>105.0</ele><time>2026-05-02T08:34:37Z</time></trkpt><trkpt lat="42.56471733221846" lon="12.590483187663008"><ele>105.0</ele><time>2026-05-02T08:34:38Z</time></trkpt><trkpt lat="42.56469049298574" lon="12.590280835210912"><ele>104.66666666666666</ele><time>2026-05-02T08:34:39Z</time></trkpt><trkpt lat="42.56467065265802" lon="12.590070907473892"><ele>104.33333333333333</ele><time>2026-05-02T08:34:40Z</time></trkpt><trkpt lat="42.56465209235389" lon="12.58985519400631"><ele>104.0</ele><time>2026-05-02T08:34:41Z</time></trkpt><trkpt lat="42.56463092029595" lon="12.589633638035728"><ele>104.33333333333333</ele><time>2026-05-02T08:34:42Z</time></trkpt><trkpt lat="42.56460852409783" lon="12.589410506082679"><ele>104.66666666666666</ele><time>2026-05-02T08:34:43Z</time></trkpt><trkpt lat="42.564588077358046" lon="12.589186287428348"><ele>105.0</ele><time>2026-05-02T08:34:44Z</time></trkpt><trkpt lat="42.56456765278173" lon="12.588962368014052"><ele>105.0</ele><time>2026-05-02T08:34:45Z</time></trkpt><trkpt lat="42.56454657222727" lon="12.588728254982867"><ele>105.0</ele><time>2026-05-02T08:34:46Z</time></trkpt><trkpt lat="42.56452437576183" lon="12.588506528562027"><ele>105.0</ele><time>2026-05-02T08:34:47Z</time></trkpt><trkpt lat="42.564498875017904" lon="12.58829163987164"><ele>105.0</ele><time>2026-05-02T08:34:48Z</time></trkpt><trkpt lat="42.56447284036526" lon="12.588068016970164"><ele>105.0</ele><time>2026-05-02T08:34:49Z</time></trkpt><trkpt lat="42.56445410049575" lon="12.587852258088784"><ele>105.0</ele><time>2026-05-02T08:34:50Z</time></trkpt><trkpt lat="42.56443810415627" lon="12.587634486352194"><ele>105.33333333333334</ele><time>2026-05-02T08:34:51Z</time></trkpt><trkpt lat="42.564420945038556" lon="12.5874213027828"><ele>105.66666666666667</ele><time>2026-05-02T08:34:52Z</time></trkpt><trkpt lat="42.56440011519599" lon="12.58719868557863"><ele>106.0</ele><time>2026-05-02T08:34:53Z</time></trkpt><trkpt lat="42.56437416767961" lon="12.586964584443024"><ele>106.0</ele><time>2026-05-02T08:34:54Z</time></trkpt><trkpt lat="42.56434787160388" lon="12.586717884027758"><ele>106.0</ele><time>2026-05-02T08:34:55Z</time></trkpt><trkpt lat="42.56431989703981" lon="12.586462403601383"><ele>106.0</ele><time>2026-05-02T08:34:56Z</time></trkpt><trkpt lat="42.564294313765025" lon="12.58620186600487"><ele>105.66666666666667</ele><time>2026-05-02T08:34:57Z</time></trkpt><trkpt lat="42.56426659210922" lon="12.585941716290236"><ele>105.33333333333334</ele><time>2026-05-02T08:34:58Z</time></trkpt><trkpt lat="42.56424043765339" lon="12.585671687843478"><ele>105.0</ele><time>2026-05-02T08:34:59Z</time></trkpt><trkpt lat="42.56421305871939" lon="12.585398973038682"><ele>104.66666666666666</ele><time>2026-05-02T08:35:00Z</time></trkpt><trkpt lat="42.56418897132206" lon="12.585128039860354"><ele>104.33333333333333</ele><time>2026-05-02T08:35:01Z</time></trkpt><trkpt lat="42.56416253444419" lon="12.584860794642491"><ele>104.0</ele><time>2026-05-02T08:35:02Z</time></trkpt><trkpt lat="42.56413412696387" lon="12.584586788702689"><ele>104.33333333333333</ele><time>2026-05-02T08:35:03Z</time></trkpt><trkpt lat="42.56410626801758" lon="12.584311167698248"><ele>104.66666666666666</ele><time>2026-05-02T08:35:04Z</time></trkpt><trkpt lat="42.56407807636607" lon="12.584021865568472"><ele>105.0</ele><time>2026-05-02T08:35:05Z</time></trkpt><trkpt lat="42.56404907544042" lon="12.583731865290147"><ele>105.0</ele><time>2026-05-02T08:35:06Z</time></trkpt><trkpt lat="42.56401639627024" lon="12.583443770627705"><ele>105.0</ele><time>2026-05-02T08:35:07Z</time></trkpt><trkpt lat="42.563978621970804" lon="12.583158140440212"><ele>105.0</ele><time>2026-05-02T08:35:08Z</time></trkpt><trkpt lat="42.56394283012326" lon="12.58286370654766"><ele>104.33333333333334</ele><time>2026-05-02T08:35:09Z</time></trkpt><trkpt lat="42.5639113216188" lon="12.582560289774436"><ele>103.66666666666667</ele><time>2026-05-02T08:35:10Z</time></trkpt><trkpt lat="42.56388572117561" lon="12.582261569451244"><ele>103.0</ele><time>2026-05-02T08:35:11Z</time></trkpt><trkpt lat="42.56386164479831" lon="12.581973152313774"><ele>103.0</ele><time>2026-05-02T08:35:12Z</time></trkpt><trkpt lat="42.56383109946444" lon="12.581677316048742"><ele>103.0</ele><time>2026-05-02T08:35:13Z</time></trkpt><trkpt lat="42.563802610649766" lon="12.581383361916874"><ele>103.0</ele><time>2026-05-02T08:35:14Z</time></trkpt><trkpt lat="42.56378241845886" lon="12.581081379139885"><ele>103.33333333333334</ele><time>2026-05-02T08:35:15Z</time></trkpt><trkpt lat="42.56376973187552" lon="12.580776669821192"><ele>103.66666666666666</ele><time>2026-05-02T08:35:16Z</time></trkpt><trkpt lat="42.56375693804503" lon="12.58047395410061"><ele>104.0</ele><time>2026-05-02T08:35:17Z</time></trkpt><trkpt lat="42.56374655156469" lon="12.580194271546958"><ele>104.0</ele><time>2026-05-02T08:35:18Z</time></trkpt><trkpt lat="42.56373750419845" lon="12.579909244980891"><ele>104.0</ele><time>2026-05-02T08:35:19Z</time></trkpt><trkpt lat="42.56372533570579" lon="12.579638371365167"><ele>104.0</ele><time>2026-05-02T08:35:20Z</time></trkpt><trkpt lat="42.56371012521894" lon="12.579379741123594"><ele>104.0</ele><time>2026-05-02T08:35:21Z</time></trkpt><trkpt lat="42.56369925224868" lon="12.579153540029614"><ele>104.0</ele><time>2026-05-02T08:35:22Z</time></trkpt><trkpt lat="42.563688400316806" lon="12.578955289688622"><ele>104.0</ele><time>2026-05-02T08:35:23Z</time></trkpt><trkpt lat="42.563678702991325" lon="12.578777494987698"><ele>104.0</ele><time>2026-05-02T08:35:24Z</time></trkpt><trkpt lat="42.56366870542199" lon="12.57862739755675"><ele>104.0</ele><time>2026-05-02T08:35:25Z</time></trkpt><trkpt lat="42.56365468995908" lon="12.578471411092542"><ele>104.0</ele><time>2026-05-02T08:35:26Z</time></trkpt><trkpt lat="42.5636410762347" lon="12.578292055719942"><ele>104.0</ele><time>2026-05-02T08:35:27Z</time></trkpt><trkpt lat="42.56362355649529" lon="12.578103158429139"><ele>104.0</ele><time>2026-05-02T08:35:28Z</time></trkpt><trkpt lat="42.56361414623042" lon="12.57790548248195"><ele>103.33333333333333</ele><time>2026-05-02T08:35:29Z</time></trkpt><trkpt lat="42.56360496609721" lon="12.57769426573065"><ele>102.66666666666666</ele><time>2026-05-02T08:35:30Z</time></trkpt><trkpt lat="42.563588126659845" lon="12.577483704246431"><ele>102.0</ele><time>2026-05-02T08:35:31Z</time></trkpt><trkpt lat="42.56356998002845" lon="12.577261075043952"><ele>102.0</ele><time>2026-05-02T08:35:32Z</time></trkpt><trkpt lat="42.56355388972382" lon="12.577040480080797"><ele>102.0</ele><time>2026-05-02T08:35:33Z</time></trkpt><trkpt lat="42.56353756251542" lon="12.576815135531852"><ele>102.0</ele><time>2026-05-02T08:35:34Z</time></trkpt><trkpt lat="42.56352133591258" lon="12.576588262410974"><ele>102.33333333333334</ele><time>2026-05-02T08:35:35Z</time></trkpt><trkpt lat="42.56350454695921" lon="12.576351629316406"><ele>102.66666666666667</ele><time>2026-05-02T08:35:36Z</time></trkpt><trkpt lat="42.56348789901528" lon="12.576114431727671"><ele>103.0</ele><time>2026-05-02T08:35:37Z</time></trkpt><trkpt lat="42.56346793307568" lon="12.57587657313026"><ele>103.0</ele><time>2026-05-02T08:35:38Z</time></trkpt><trkpt lat="42.56345249673349" lon="12.575634150215173"><ele>103.0</ele><time>2026-05-02T08:35:39Z</time></trkpt><trkpt lat="42.56344094156996" lon="12.57540418223716"><ele>103.0</ele><time>2026-05-02T08:35:40Z</time></trkpt><trkpt lat="42.56343104738926" lon="12.575173349669218"><ele>103.0</ele><time>2026-05-02T08:35:41Z</time></trkpt><trkpt lat="42.56341411065016" lon="12.574955688730636"><ele>103.0</ele><time>2026-05-02T08:35:42Z</time></trkpt><trkpt lat="42.56339766911918" lon="12.57473738534865"><ele>103.0</ele><time>2026-05-02T08:35:43Z</time></trkpt><trkpt lat="42.5633815343212" lon="12.574536037441042"><ele>103.0</ele><time>2026-05-02T08:35:44Z</time></trkpt><trkpt lat="42.563369757771326" lon="12.57435664661214"><ele>103.0</ele><time>2026-05-02T08:35:45Z</time></trkpt><trkpt lat="42.563359795360284" lon="12.574189859268172"><ele>103.0</ele><time>2026-05-02T08:35:46Z</time></trkpt><trkpt lat="42.5633407267913" lon="12.573997409527863"><ele>103.0</ele><time>2026-05-02T08:35:47Z</time></trkpt><trkpt lat="42.563323623227234" lon="12.573789187327003"><ele>103.33333333333334</ele><time>2026-05-02T08:35:48Z</time></trkpt><trkpt lat="42.56330676543081" lon="12.573568929119057"><ele>103.66666666666666</ele><time>2026-05-02T08:35:49Z</time></trkpt><trkpt lat="42.56329136069932" lon="12.57333169874388"><ele>104.0</ele><time>2026-05-02T08:35:50Z</time></trkpt><trkpt lat="42.563278794020974" lon="12.573086561685205"><ele>104.0</ele><time>2026-05-02T08:35:51Z</time></trkpt><trkpt lat="42.56326861183035" lon="12.572856920154916"><ele>104.0</ele><time>2026-05-02T08:35:52Z</time></trkpt><trkpt lat="42.56325775071861" lon="12.572657120446678"><ele>104.0</ele><time>2026-05-02T08:35:53Z</time></trkpt><trkpt lat="42.56324084298798" lon="12.572441768419575"><ele>104.0</ele><time>2026-05-02T08:35:54Z</time></trkpt><trkpt lat="42.56322339693361" lon="12.572212398865819"><ele>104.0</ele><time>2026-05-02T08:35:55Z</time></trkpt><trkpt lat="42.56320695067889" lon="12.572009926829365"><ele>104.0</ele><time>2026-05-02T08:35:56Z</time></trkpt><trkpt lat="42.56318944212922" lon="12.571795484823516"><ele>104.0</ele><time>2026-05-02T08:35:57Z</time></trkpt><trkpt lat="42.56317447738444" lon="12.571570174073623"><ele>104.0</ele><time>2026-05-02T08:35:58Z</time></trkpt><trkpt lat="42.563159305562834" lon="12.571348510892095"><ele>104.0</ele><time>2026-05-02T08:35:59Z</time></trkpt><trkpt lat="42.56314336223326" lon="12.571115579553691"><ele>104.0</ele><time>2026-05-02T08:36:00Z</time></trkpt><trkpt lat="42.5631350418813" lon="12.570874870281768"><ele>104.0</ele><time>2026-05-02T08:36:01Z</time></trkpt><trkpt lat="42.56312481580116" lon="12.570618392330916"><ele>104.0</ele><time>2026-05-02T08:36:02Z</time></trkpt><trkpt lat="42.563105271183574" lon="12.570383394778172"><ele>104.0</ele><time>2026-05-02T08:36:03Z</time></trkpt><trkpt lat="42.56308572580768" lon="12.57015065559071"><ele>104.0</ele><time>2026-05-02T08:36:04Z</time></trkpt><trkpt lat="42.5630673614015" lon="12.569905160884918"><ele>104.0</ele><time>2026-05-02T08:36:05Z</time></trkpt><trkpt lat="42.56304878726397" lon="12.569692445668531"><ele>104.25</ele><time>2026-05-02T08:36:06Z</time></trkpt><trkpt lat="42.56303288132841" lon="12.569492560273517"><ele>104.5</ele><time>2026-05-02T08:36:07Z</time></trkpt><trkpt lat="42.56301974946503" lon="12.56930146504281"><ele>104.75</ele><time>2026-05-02T08:36:08Z</time></trkpt><trkpt lat="42.56300670561381" lon="12.56910769586364"><ele>105.0</ele><time>2026-05-02T08:36:09Z</time></trkpt><trkpt lat="42.56299377943646" lon="12.568906620026134"><ele>105.0</ele><time>2026-05-02T08:36:10Z</time></trkpt><trkpt lat="42.56298112130946" lon="12.568704321889301"><ele>105.0</ele><time>2026-05-02T08:36:11Z</time></trkpt><trkpt lat="42.56296645277076" lon="12.568492165709822"><ele>105.0</ele><time>2026-05-02T08:36:12Z</time></trkpt><trkpt lat="42.56295208356693" lon="12.568296940380751"><ele>105.0</ele><time>2026-05-02T08:36:13Z</time></trkpt><trkpt lat="42.56294002225169" lon="12.568122661426134"><ele>105.0</ele><time>2026-05-02T08:36:14Z</time></trkpt><trkpt lat="42.56292777412312" lon="12.567969338101348"><ele>105.0</ele><time>2026-05-02T08:36:15Z</time></trkpt><trkpt lat="42.56291858573463" lon="12.567830886320603"><ele>105.0</ele><time>2026-05-02T08:36:16Z</time></trkpt><trkpt lat="42.56290997310204" lon="12.567685192614615"><ele>104.83333333333333</ele><time>2026-05-02T08:36:17Z</time></trkpt><trkpt lat="42.562908483274924" lon="12.567551556864336"><ele>104.66666666666666</ele><time>2026-05-02T08:36:18Z</time></trkpt><trkpt lat="42.56290670186483" lon="12.567405821600389"><ele>104.5</ele><time>2026-05-02T08:36:19Z</time></trkpt><trkpt lat="42.56289969945445" lon="12.567279774945531"><ele>104.33333333333333</ele><time>2026-05-02T08:36:20Z</time></trkpt><trkpt lat="42.56289005075332" lon="12.567175769733442"><ele>104.16666666666666</ele><time>2026-05-02T08:36:21Z</time></trkpt><trkpt lat="42.562896947254714" lon="12.567085616603153"><ele>104.0</ele><time>2026-05-02T08:36:22Z</time></trkpt><trkpt lat="42.56289618921869" lon="12.566994084301765"><ele>104.0</ele><time>2026-05-02T08:36:24Z</time></trkpt><trkpt lat="42.56307606340797" lon="12.56698759025825"><ele>104.0</ele><time>2026-05-02T08:36:25Z</time></trkpt><trkpt lat="42.56314580103073" lon="12.567055666815556"><ele>104.0</ele><time>2026-05-02T08:36:26Z</time></trkpt><trkpt lat="42.56318877303722" lon="12.567175083458405"><ele>104.0</ele><time>2026-05-02T08:36:27Z</time></trkpt><trkpt lat="42.56318037094712" lon="12.567347869394668"><ele>103.75</ele><time>2026-05-02T08:36:28Z</time></trkpt><trkpt lat="42.563172502941576" lon="12.56750044978242"><ele>103.5</ele><time>2026-05-02T08:36:29Z</time></trkpt><trkpt lat="42.56317096783485" lon="12.567674735450035"><ele>103.25</ele><time>2026-05-02T08:36:30Z</time></trkpt><trkpt lat="42.56318480438285" lon="12.567852382405688"><ele>103.0</ele><time>2026-05-02T08:36:31Z</time></trkpt><trkpt lat="42.563213640899576" lon="12.568029069117694"><ele>103.5</ele><time>2026-05-02T08:36:32Z</time></trkpt><trkpt lat="42.5632627224731" lon="12.568200517044446"><ele>104.0</ele><time>2026-05-02T08:36:33Z</time></trkpt><trkpt lat="42.563332896823106" lon="12.568371971960312"><ele>104.5</ele><time>2026-05-02T08:36:34Z</time></trkpt><trkpt lat="42.56341959977518" lon="12.568527170763833"><ele>105.0</ele><time>2026-05-02T08:36:35Z</time></trkpt><trkpt lat="42.5635168666059" lon="12.568675143950975"><ele>105.0</ele><time>2026-05-02T08:36:36Z</time></trkpt><trkpt lat="42.563602254361044" lon="12.568804885605251"><ele>105.0</ele><time>2026-05-02T08:36:37Z</time></trkpt><trkpt lat="42.563696020269994" lon="12.5689121301669"><ele>105.0</ele><time>2026-05-02T08:36:38Z</time></trkpt><trkpt lat="42.563822151566846" lon="12.568987724251532"><ele>105.0</ele><time>2026-05-02T08:36:39Z</time></trkpt><trkpt lat="42.56397046147035" lon="12.569024268870633"><ele>105.33333333333334</ele><time>2026-05-02T08:36:40Z</time></trkpt><trkpt lat="42.56412570060379" lon="12.56904453896367"><ele>105.66666666666667</ele><time>2026-05-02T08:36:41Z</time></trkpt><trkpt lat="42.56429483714678" lon="12.569073732453232"><ele>106.0</ele><time>2026-05-02T08:36:42Z</time></trkpt><trkpt lat="42.56445703316057" lon="12.569116851651257"><ele>105.5</ele><time>2026-05-02T08:36:43Z</time></trkpt><trkpt lat="42.56460690967379" lon="12.569151452054323"><ele>105.0</ele><time>2026-05-02T08:36:44Z</time></trkpt><trkpt lat="42.56475075345884" lon="12.569185203365429"><ele>104.5</ele><time>2026-05-02T08:36:45Z</time></trkpt><trkpt lat="42.56488335867845" lon="12.569216332315978"><ele>104.0</ele><time>2026-05-02T08:36:46Z</time></trkpt><trkpt lat="42.565009090386" lon="12.569249521073218"><ele>104.0</ele><time>2026-05-02T08:36:47Z</time></trkpt><trkpt lat="42.56512874086996" lon="12.569273892158547"><ele>104.0</ele><time>2026-05-02T08:36:48Z</time></trkpt><trkpt lat="42.565242928399755" lon="12.569291721257613"><ele>104.0</ele><time>2026-05-02T08:36:49Z</time></trkpt><trkpt lat="42.565348478473425" lon="12.56930735788244"><ele>104.0</ele><time>2026-05-02T08:36:50Z</time></trkpt><trkpt lat="42.56545151404427" lon="12.569328377227137"><ele>104.0</ele><time>2026-05-02T08:36:51Z</time></trkpt><trkpt lat="42.56556223927603" lon="12.569350576690097"><ele>104.0</ele><time>2026-05-02T08:36:52Z</time></trkpt><trkpt lat="42.56568063643779" lon="12.569376794359012"><ele>104.0</ele><time>2026-05-02T08:36:53Z</time></trkpt><trkpt lat="42.565804454627376" lon="12.569400765106439"><ele>104.0</ele><time>2026-05-02T08:36:54Z</time></trkpt><trkpt lat="42.56594315806033" lon="12.569423658970774"><ele>104.0</ele><time>2026-05-02T08:36:55Z</time></trkpt><trkpt lat="42.56608182727608" lon="12.569452158667444"><ele>104.0</ele><time>2026-05-02T08:36:56Z</time></trkpt><trkpt lat="42.566216120438796" lon="12.569480902246251"><ele>104.0</ele><time>2026-05-02T08:36:57Z</time></trkpt><trkpt lat="42.56636219403602" lon="12.56950921290737"><ele>104.0</ele><time>2026-05-02T08:36:58Z</time></trkpt><trkpt lat="42.56649679468654" lon="12.569532787204373"><ele>104.0</ele><time>2026-05-02T08:36:59Z</time></trkpt><trkpt lat="42.56663381944016" lon="12.56956180006839"><ele>104.0</ele><time>2026-05-02T08:37:00Z</time></trkpt><trkpt lat="42.56675678417712" lon="12.569590968392122"><ele>104.0</ele><time>2026-05-02T08:37:01Z</time></trkpt><trkpt lat="42.56688275275629" lon="12.569616002438625"><ele>104.0</ele><time>2026-05-02T08:37:02Z</time></trkpt><trkpt lat="42.56700702504114" lon="12.56963538667689"><ele>104.0</ele><time>2026-05-02T08:37:03Z</time></trkpt><trkpt lat="42.56711462850276" lon="12.569656764533965"><ele>105.0</ele><time>2026-05-02T08:37:04Z</time></trkpt><trkpt lat="42.5672282509283" lon="12.56968119168381"><ele>106.0</ele><time>2026-05-02T08:37:05Z</time></trkpt><trkpt lat="42.56734496086869" lon="12.569706934101585"><ele>107.0</ele><time>2026-05-02T08:37:06Z</time></trkpt><trkpt lat="42.56745886904955" lon="12.569727220050318"><ele>108.0</ele><time>2026-05-02T08:37:07Z</time></trkpt><trkpt lat="42.56757206859794" lon="12.569746403593363"><ele>108.0</ele><time>2026-05-02T08:37:08Z</time></trkpt><trkpt lat="42.567683836588785" lon="12.569767297335549"><ele>108.00000000000001</ele><time>2026-05-02T08:37:09Z</time></trkpt><trkpt lat="42.56778307532341" lon="12.569786274120379"><ele>108.00000000000001</ele><time>2026-05-02T08:37:10Z</time></trkpt><trkpt lat="42.567865938654165" lon="12.569800362834656"><ele>108.0</ele><time>2026-05-02T08:37:11Z</time></trkpt><trkpt lat="42.567942289318" lon="12.5698133185769"><ele>108.0</ele><time>2026-05-02T08:37:12Z</time></trkpt><trkpt lat="42.56802069290447" lon="12.569828398941484"><ele>108.16666666666667</ele><time>2026-05-02T08:37:13Z</time></trkpt><trkpt lat="42.56809966674695" lon="12.5698423629361"><ele>108.33333333333334</ele><time>2026-05-02T08:37:14Z</time></trkpt><trkpt lat="42.56818194892232" lon="12.569855073693763"><ele>108.5</ele><time>2026-05-02T08:37:15Z</time></trkpt><trkpt lat="42.56824951671872" lon="12.56986731298588"><ele>108.66666666666667</ele><time>2026-05-02T08:37:16Z</time></trkpt><trkpt lat="42.568324949176684" lon="12.569882665208263"><ele>108.83333333333334</ele><time>2026-05-02T08:37:18Z</time></trkpt><trkpt lat="42.56836586153009" lon="12.569698514294023"><ele>109.0</ele><time>2026-05-02T08:37:20Z</time></trkpt><trkpt lat="42.56835547348034" lon="12.569571855649427"><ele>109.25</ele><time>2026-05-02T08:37:21Z</time></trkpt><trkpt lat="42.56833618537905" lon="12.569413968396407"><ele>109.5</ele><time>2026-05-02T08:37:22Z</time></trkpt><trkpt lat="42.56834899659041" lon="12.569246576323202"><ele>109.75</ele><time>2026-05-02T08:37:23Z</time></trkpt><trkpt lat="42.568362045681724" lon="12.569080099252059"><ele>110.0</ele><time>2026-05-02T08:37:24Z</time></trkpt><trkpt lat="42.568381843517116" lon="12.568908031637473"><ele>110.0</ele><time>2026-05-02T08:37:25Z</time></trkpt><trkpt lat="42.56837978838068" lon="12.568729622028703"><ele>110.0</ele><time>2026-05-02T08:37:26Z</time></trkpt><trkpt lat="42.56839535249239" lon="12.568534947302679"><ele>110.0</ele><time>2026-05-02T08:37:27Z</time></trkpt><trkpt lat="42.56839682399713" lon="12.568333806256916"><ele>110.0</ele><time>2026-05-02T08:37:28Z</time></trkpt><trkpt lat="42.56837912102135" lon="12.568126261127592"><ele>109.66666666666666</ele><time>2026-05-02T08:37:29Z</time></trkpt><trkpt lat="42.56834810877579" lon="12.567912497428518"><ele>109.33333333333334</ele><time>2026-05-02T08:37:30Z</time></trkpt><trkpt lat="42.568314683611725" lon="12.567690800739062"><ele>109.0</ele><time>2026-05-02T08:37:31Z</time></trkpt><trkpt lat="42.56828759439129" lon="12.567477485293832"><ele>109.0</ele><time>2026-05-02T08:37:32Z</time></trkpt><trkpt lat="42.568260283650915" lon="12.567254760082415"><ele>109.0</ele><time>2026-05-02T08:37:33Z</time></trkpt><trkpt lat="42.56822883024309" lon="12.567036835696147"><ele>109.0</ele><time>2026-05-02T08:37:34Z</time></trkpt><trkpt lat="42.568210807184876" lon="12.566812361416506"><ele>109.0</ele><time>2026-05-02T08:37:35Z</time></trkpt><trkpt lat="42.568177331933356" lon="12.566586738201229"><ele>109.0</ele><time>2026-05-02T08:37:36Z</time></trkpt><trkpt lat="42.56812649358633" lon="12.566356672414305"><ele>109.0</ele><time>2026-05-02T08:37:37Z</time></trkpt><trkpt lat="42.568105194921735" lon="12.566120417922372"><ele>109.0</ele><time>2026-05-02T08:37:38Z</time></trkpt><trkpt lat="42.56805301743613" lon="12.565914159233136"><ele>109.0</ele><time>2026-05-02T08:37:39Z</time></trkpt><trkpt lat="42.56801757832329" lon="12.565717678749987"><ele>109.0</ele><time>2026-05-02T08:37:40Z</time></trkpt><trkpt lat="42.56798416058104" lon="12.565540127115218"><ele>109.0</ele><time>2026-05-02T08:37:41Z</time></trkpt><trkpt lat="42.56795087327337" lon="12.565354831873906"><ele>109.0</ele><time>2026-05-02T08:37:42Z</time></trkpt><trkpt lat="42.56791876729734" lon="12.565160163625269"><ele>109.0</ele><time>2026-05-02T08:37:43Z</time></trkpt><trkpt lat="42.56787938519256" lon="12.564966555021067"><ele>109.0</ele><time>2026-05-02T08:37:44Z</time></trkpt><trkpt lat="42.56784437432447" lon="12.564791565311324"><ele>109.0</ele><time>2026-05-02T08:37:45Z</time></trkpt><trkpt lat="42.56781968779296" lon="12.564637401151286"><ele>108.6</ele><time>2026-05-02T08:37:46Z</time></trkpt><trkpt lat="42.56779391461023" lon="12.564493604266678"><ele>108.2</ele><time>2026-05-02T08:37:47Z</time></trkpt><trkpt lat="42.5677593487217" lon="12.564351692958265"><ele>107.79999999999998</ele><time>2026-05-02T08:37:48Z</time></trkpt><trkpt lat="42.567745409996" lon="12.564213224274683"><ele>107.39999999999999</ele><time>2026-05-02T08:37:49Z</time></trkpt><trkpt lat="42.56771537495327" lon="12.564109625682907"><ele>107.0</ele><time>2026-05-02T08:37:50Z</time></trkpt><trkpt lat="42.567676371830935" lon="12.564010310799063"><ele>106.99999999999999</ele><time>2026-05-02T08:37:51Z</time></trkpt><trkpt lat="42.56761602062282" lon="12.563929759737814"><ele>107.0</ele><time>2026-05-02T08:37:52Z</time></trkpt><trkpt lat="42.56758342797066" lon="12.563827734546459"><ele>107.0</ele><time>2026-05-02T08:37:53Z</time></trkpt><trkpt lat="42.56754377013764" lon="12.56374560714994"><ele>107.0</ele><time>2026-05-02T08:37:54Z</time></trkpt><trkpt lat="42.56749730986859" lon="12.563646363157039"><ele>106.99999999999999</ele><time>2026-05-02T08:37:56Z</time></trkpt><trkpt lat="42.56745142630744" lon="12.563548351077705"><ele>107.0</ele><time>2026-05-02T08:38:45Z</time></trkpt><trkpt lat="42.56738321540205" lon="12.563402645446793"><ele>107.6</ele><time>2026-05-02T08:38:47Z</time></trkpt><trkpt lat="42.56734061357559" lon="12.563311643485813"><ele>108.19999999999999</ele><time>2026-05-02T08:38:48Z</time></trkpt><trkpt lat="42.56729135054433" lon="12.563206412495703"><ele>108.8</ele><time>2026-05-02T08:38:49Z</time></trkpt><trkpt lat="42.5672315854137" lon="12.56310341212891"><ele>109.4</ele><time>2026-05-02T08:38:50Z</time></trkpt><trkpt lat="42.56718929255709" lon="12.56298832404407"><ele>110.0</ele><time>2026-05-02T08:38:51Z</time></trkpt><trkpt lat="42.56713679447651" lon="12.562878881008483"><ele>110.5</ele><time>2026-05-02T08:38:52Z</time></trkpt><trkpt lat="42.56708349292825" lon="12.562761273969441"><ele>111.0</ele><time>2026-05-02T08:38:53Z</time></trkpt><trkpt lat="42.567014241465415" lon="12.562596691035415"><ele>111.5</ele><time>2026-05-02T08:38:54Z</time></trkpt><trkpt lat="42.566957882592" lon="12.562467668811932"><ele>112.0</ele><time>2026-05-02T08:38:55Z</time></trkpt><trkpt lat="42.56690866052713" lon="12.562337758987619"><ele>111.19999999999999</ele><time>2026-05-02T08:38:56Z</time></trkpt><trkpt lat="42.566856421363276" lon="12.56222622918781"><ele>110.39999999999999</ele><time>2026-05-02T08:38:57Z</time></trkpt><trkpt lat="42.56682328676698" lon="12.56211012586331"><ele>109.60000000000001</ele><time>2026-05-02T08:38:58Z</time></trkpt><trkpt lat="42.56677256175851" lon="12.561995319475074"><ele>108.80000000000001</ele><time>2026-05-02T08:38:59Z</time></trkpt><trkpt lat="42.56674420739249" lon="12.56185821295311"><ele>108.0</ele><time>2026-05-02T08:39:00Z</time></trkpt><trkpt lat="42.566733394752426" lon="12.561698982724542"><ele>108.0</ele><time>2026-05-02T08:39:01Z</time></trkpt><trkpt lat="42.56669524837569" lon="12.561571281722326"><ele>108.00000000000001</ele><time>2026-05-02T08:39:02Z</time></trkpt><trkpt lat="42.56667215300367" lon="12.561420287732428"><ele>108.00000000000001</ele><time>2026-05-02T08:39:03Z</time></trkpt><trkpt lat="42.56664604845647" lon="12.561268953490462"><ele>108.0</ele><time>2026-05-02T08:39:04Z</time></trkpt><trkpt lat="42.56662065122364" lon="12.561140086267848"><ele>108.0</ele><time>2026-05-02T08:39:05Z</time></trkpt><trkpt lat="42.56660026146359" lon="12.561036852025131"><ele>108.5</ele><time>2026-05-02T08:39:06Z</time></trkpt><trkpt lat="42.56659984864579" lon="12.560938830856225"><ele>109.0</ele><time>2026-05-02T08:39:07Z</time></trkpt><trkpt lat="42.56662801566945" lon="12.560860129282062"><ele>109.5</ele><time>2026-05-02T08:39:08Z</time></trkpt><trkpt lat="42.56667904929615" lon="12.560787726747565"><ele>110.0</ele><time>2026-05-02T08:39:09Z</time></trkpt><trkpt lat="42.5667415804756" lon="12.560739431572111"><ele>110.5</ele><time>2026-05-02T08:39:10Z</time></trkpt><trkpt lat="42.56682469732781" lon="12.560698183769881"><ele>111.0</ele><time>2026-05-02T08:39:11Z</time></trkpt><trkpt lat="42.56691919434616" lon="12.560650284558358"><ele>111.0</ele><time>2026-05-02T08:39:12Z</time></trkpt><trkpt lat="42.5670065393599" lon="12.560602191482273"><ele>111.0</ele><time>2026-05-02T08:39:13Z</time></trkpt><trkpt lat="42.567073859502045" lon="12.560569427979965"><ele>111.0</ele><time>2026-05-02T08:39:14Z</time></trkpt><trkpt lat="42.567156386396626" lon="12.560526431596246"><ele>111.0</ele><time>2026-05-02T08:39:15Z</time></trkpt><trkpt lat="42.56725284620075" lon="12.560505997755085"><ele>111.0</ele><time>2026-05-02T08:39:16Z</time></trkpt><trkpt lat="42.567350135094294" lon="12.560468531734214"><ele>113.0</ele><time>2026-05-02T08:39:17Z</time></trkpt><trkpt lat="42.56744421180628" lon="12.560418570786698"><ele>115.0</ele><time>2026-05-02T08:39:18Z</time></trkpt><trkpt lat="42.567561480437064" lon="12.560387098366984"><ele>117.0</ele><time>2026-05-02T08:39:19Z</time></trkpt><trkpt lat="42.56770244902207" lon="12.560337100536804"><ele>119.0</ele><time>2026-05-02T08:39:20Z</time></trkpt><trkpt lat="42.567820804763755" lon="12.56028440650229"><ele>122.25</ele><time>2026-05-02T08:39:21Z</time></trkpt><trkpt lat="42.567948816618134" lon="12.56023222464023"><ele>125.5</ele><time>2026-05-02T08:39:22Z</time></trkpt><trkpt lat="42.56806818224934" lon="12.560180934291818"><ele>128.75</ele><time>2026-05-02T08:39:23Z</time></trkpt><trkpt lat="42.5681904422731" lon="12.560133237643726"><ele>132.0</ele><time>2026-05-02T08:39:24Z</time></trkpt><trkpt lat="42.56832149647354" lon="12.560073341147534"><ele>132.0</ele><time>2026-05-02T08:39:25Z</time></trkpt><trkpt lat="42.56842450168436" lon="12.560048093776949"><ele>132.0</ele><time>2026-05-02T08:39:26Z</time></trkpt><trkpt lat="42.568505633808996" lon="12.560003080471938"><ele>132.0</ele><time>2026-05-02T08:39:27Z</time></trkpt><trkpt lat="42.568575111380326" lon="12.559965572894836"><ele>132.0</ele><time>2026-05-02T08:39:28Z</time></trkpt><trkpt lat="42.568656472883674" lon="12.559959730068611"><ele>132.0</ele><time>2026-05-02T08:39:29Z</time></trkpt><trkpt lat="42.56874916920131" lon="12.559977689124922"><ele>132.0</ele><time>2026-05-02T08:39:30Z</time></trkpt><trkpt lat="42.5688573480221" lon="12.559975836338307"><ele>134.6</ele><time>2026-05-02T08:39:31Z</time></trkpt><trkpt lat="42.56895432553093" lon="12.559976304945485"><ele>137.2</ele><time>2026-05-02T08:39:32Z</time></trkpt><trkpt lat="42.56906833967616" lon="12.55998816010987"><ele>139.8</ele><time>2026-05-02T08:39:33Z</time></trkpt><trkpt lat="42.56916608226762" lon="12.55999732376822"><ele>142.4</ele><time>2026-05-02T08:39:34Z</time></trkpt><trkpt lat="42.569245497829066" lon="12.559986090073453"><ele>145.0</ele><time>2026-05-02T08:39:35Z</time></trkpt><trkpt lat="42.5693389023208" lon="12.559956366704684"><ele>145.0</ele><time>2026-05-02T08:39:37Z</time></trkpt><trkpt lat="42.569375085321944" lon="12.559835810593396"><ele>145.0</ele><time>2026-05-02T08:39:39Z</time></trkpt><trkpt lat="42.569379898738184" lon="12.559739126087972"><ele>145.0</ele><time>2026-05-02T08:39:40Z</time></trkpt><trkpt lat="42.56940765848126" lon="12.559608140001362"><ele>145.0</ele><time>2026-05-02T08:39:41Z</time></trkpt><trkpt lat="42.56940711492399" lon="12.55949133835956"><ele>145.0</ele><time>2026-05-02T08:39:42Z</time></trkpt><trkpt lat="42.56942957113727" lon="12.559356542222492"><ele>146.2</ele><time>2026-05-02T08:39:43Z</time></trkpt><trkpt lat="42.569469004216174" lon="12.559240543749933"><ele>147.4</ele><time>2026-05-02T08:39:44Z</time></trkpt><trkpt lat="42.56948114096177" lon="12.559106952544724"><ele>148.6</ele><time>2026-05-02T08:39:45Z</time></trkpt><trkpt lat="42.56950781179785" lon="12.5589614582993"><ele>149.8</ele><time>2026-05-02T08:39:46Z</time></trkpt><trkpt lat="42.569548517953976" lon="12.55879649100666"><ele>151.0</ele><time>2026-05-02T08:39:47Z</time></trkpt><trkpt lat="42.569562451462176" lon="12.558634993106132"><ele>152.4</ele><time>2026-05-02T08:39:48Z</time></trkpt><trkpt lat="42.56959624325548" lon="12.558473244906097"><ele>153.8</ele><time>2026-05-02T08:39:49Z</time></trkpt><trkpt lat="42.56962610536689" lon="12.558331273090289"><ele>155.20000000000002</ele><time>2026-05-02T08:39:50Z</time></trkpt><trkpt lat="42.569678529040075" lon="12.55822567601785"><ele>156.6</ele><time>2026-05-02T08:39:51Z</time></trkpt><trkpt lat="42.56969891326671" lon="12.558106396851201"><ele>158.0</ele><time>2026-05-02T08:39:52Z</time></trkpt><trkpt lat="42.56967983687101" lon="12.55798652586993"><ele>158.20000000000002</ele><time>2026-05-02T08:39:53Z</time></trkpt><trkpt lat="42.56965303140366" lon="12.557865329737249"><ele>158.4</ele><time>2026-05-02T08:39:54Z</time></trkpt><trkpt lat="42.56961154670501" lon="12.557729655947949"><ele>158.60000000000002</ele><time>2026-05-02T08:39:55Z</time></trkpt><trkpt lat="42.569562291921855" lon="12.557591001051295"><ele>158.8</ele><time>2026-05-02T08:39:56Z</time></trkpt><trkpt lat="42.569541380612804" lon="12.557473219925269"><ele>159.0</ele><time>2026-05-02T08:39:57Z</time></trkpt><trkpt lat="42.56950911303659" lon="12.557361739840712"><ele>159.2</ele><time>2026-05-02T08:39:58Z</time></trkpt><trkpt lat="42.56947310527669" lon="12.557232892928722"><ele>159.4</ele><time>2026-05-02T08:39:59Z</time></trkpt><trkpt lat="42.5694374005021" lon="12.557105283313845"><ele>159.6</ele><time>2026-05-02T08:40:00Z</time></trkpt><trkpt lat="42.56940441144026" lon="12.556987379717603"><ele>159.8</ele><time>2026-05-02T08:40:01Z</time></trkpt><trkpt lat="42.56937557398211" lon="12.55687797667167"><ele>160.0</ele><time>2026-05-02T08:40:02Z</time></trkpt><trkpt lat="42.56933956932812" lon="12.556781724999361"><ele>160.4</ele><time>2026-05-02T08:40:03Z</time></trkpt><trkpt lat="42.56931595838217" lon="12.55669334922073"><ele>160.8</ele><time>2026-05-02T08:40:04Z</time></trkpt><trkpt lat="42.56927029436376" lon="12.556537740328917"><ele>161.2</ele><time>2026-05-02T08:40:06Z</time></trkpt><trkpt lat="42.569226118561865" lon="12.556369794408292"><ele>161.6</ele><time>2026-05-02T08:40:08Z</time></trkpt><trkpt lat="42.569209703144516" lon="12.556285484082158"><ele>162.0</ele><time>2026-05-02T08:40:09Z</time></trkpt><trkpt lat="42.56918867561719" lon="12.556204777865782"><ele>162.0</ele><time>2026-05-02T08:40:10Z</time></trkpt><trkpt lat="42.569150321541784" lon="12.556051365365956"><ele>162.0</ele><time>2026-05-02T08:40:12Z</time></trkpt><trkpt lat="42.569111598917154" lon="12.555908073146574"><ele>162.0</ele><time>2026-05-02T08:40:14Z</time></trkpt><trkpt lat="42.56908976726196" lon="12.555753456843927"><ele>162.0</ele><time>2026-05-02T08:40:16Z</time></trkpt><trkpt lat="42.56903767462514" lon="12.555603502234913"><ele>162.0</ele><time>2026-05-02T08:40:18Z</time></trkpt><trkpt lat="42.569016163314544" lon="12.55552130053356"><ele>162.0</ele><time>2026-05-02T08:40:19Z</time></trkpt><trkpt lat="42.5690109003197" lon="12.555433713089357"><ele>162.0</ele><time>2026-05-02T08:40:20Z</time></trkpt><trkpt lat="42.56895604810333" lon="12.55528128117906"><ele>162.0</ele><time>2026-05-02T08:40:22Z</time></trkpt><trkpt lat="42.56894063273397" lon="12.555192663485109"><ele>162.0</ele><time>2026-05-02T08:40:23Z</time></trkpt><trkpt lat="42.56891450580522" lon="12.555099598907177"><ele>162.0</ele><time>2026-05-02T08:40:24Z</time></trkpt><trkpt lat="42.56889097255876" lon="12.555011061844917"><ele>162.0</ele><time>2026-05-02T08:40:25Z</time></trkpt><trkpt lat="42.568847967657014" lon="12.554844690475583"><ele>162.0</ele><time>2026-05-02T08:40:27Z</time></trkpt><trkpt lat="42.5688224083886" lon="12.55474752215803"><ele>162.0</ele><time>2026-05-02T08:40:28Z</time></trkpt><trkpt lat="42.5687983884637" lon="12.554655362773667"><ele>162.0</ele><time>2026-05-02T08:40:29Z</time></trkpt><trkpt lat="42.568774058629934" lon="12.55455948257118"><ele>162.0</ele><time>2026-05-02T08:40:30Z</time></trkpt><trkpt lat="42.56874653730993" lon="12.55446569518308"><ele>162.0</ele><time>2026-05-02T08:40:31Z</time></trkpt><trkpt lat="42.56872774022196" lon="12.554368896986432"><ele>162.0</ele><time>2026-05-02T08:40:32Z</time></trkpt><trkpt lat="42.56870462145469" lon="12.554270324641102"><ele>162.0</ele><time>2026-05-02T08:40:33Z</time></trkpt><trkpt lat="42.56870321640825" lon="12.554172188369678"><ele>162.0</ele><time>2026-05-02T08:40:34Z</time></trkpt><trkpt lat="42.56867679678854" lon="12.554069251736456"><ele>162.0</ele><time>2026-05-02T08:40:35Z</time></trkpt><trkpt lat="42.56867031479814" lon="12.553971577180448"><ele>162.0</ele><time>2026-05-02T08:40:36Z</time></trkpt><trkpt lat="42.56866920551749" lon="12.553878313937208"><ele>162.0</ele><time>2026-05-02T08:40:37Z</time></trkpt><trkpt lat="42.56867210861604" lon="12.553729521745492"><ele>162.2</ele><time>2026-05-02T08:40:39Z</time></trkpt><trkpt lat="42.568680180285725" lon="12.55358412723408"><ele>162.39999999999998</ele><time>2026-05-02T08:40:41Z</time></trkpt><trkpt lat="42.56869032653345" lon="12.553427438960997"><ele>162.60000000000002</ele><time>2026-05-02T08:40:43Z</time></trkpt><trkpt lat="42.5686955866275" lon="12.55325532697868"><ele>162.8</ele><time>2026-05-02T08:40:45Z</time></trkpt><trkpt lat="42.56870149475398" lon="12.553155530551951"><ele>163.0</ele><time>2026-05-02T08:40:46Z</time></trkpt><trkpt lat="42.56871969453524" lon="12.553054147125946"><ele>163.8</ele><time>2026-05-02T08:40:47Z</time></trkpt><trkpt lat="42.5687262662048" lon="12.55292674509173"><ele>164.60000000000002</ele><time>2026-05-02T08:40:48Z</time></trkpt><trkpt lat="42.56873410236341" lon="12.55278812067264"><ele>165.39999999999998</ele><time>2026-05-02T08:40:49Z</time></trkpt><trkpt lat="42.568745252319914" lon="12.55266024059185"><ele>166.2</ele><time>2026-05-02T08:40:50Z</time></trkpt><trkpt lat="42.56876599948372" lon="12.552504971537008"><ele>167.0</ele><time>2026-05-02T08:40:51Z</time></trkpt><trkpt lat="42.56879132288308" lon="12.552369025341275"><ele>167.5</ele><time>2026-05-02T08:40:52Z</time></trkpt><trkpt lat="42.56881942484107" lon="12.552221746042187"><ele>168.0</ele><time>2026-05-02T08:40:53Z</time></trkpt><trkpt lat="42.568843670603975" lon="12.552105192679452"><ele>168.5</ele><time>2026-05-02T08:40:54Z</time></trkpt><trkpt lat="42.568853957007946" lon="12.551990808966938"><ele>169.0</ele><time>2026-05-02T08:40:55Z</time></trkpt><trkpt lat="42.56888936802961" lon="12.551917509114281"><ele>169.5</ele><time>2026-05-02T08:40:56Z</time></trkpt><trkpt lat="42.568943857472526" lon="12.551869172330282"><ele>170.0</ele><time>2026-05-02T08:40:57Z</time></trkpt><trkpt lat="42.56898167972216" lon="12.551762824093107"><ele>170.16666666666666</ele><time>2026-05-02T08:40:59Z</time></trkpt><trkpt lat="42.56903967334497" lon="12.55168204627028"><ele>170.33333333333331</ele><time>2026-05-02T08:41:33Z</time></trkpt><trkpt lat="42.569099776031095" lon="12.551578210775697"><ele>170.5</ele><time>2026-05-02T08:41:35Z</time></trkpt><trkpt lat="42.56915377442215" lon="12.551522397036887"><ele>170.66666666666666</ele><time>2026-05-02T08:41:36Z</time></trkpt><trkpt lat="42.56920745108489" lon="12.551442579364132"><ele>170.83333333333334</ele><time>2026-05-02T08:41:37Z</time></trkpt><trkpt lat="42.56926181465034" lon="12.551334330277946"><ele>171.0</ele><time>2026-05-02T08:41:38Z</time></trkpt><trkpt lat="42.569328612309405" lon="12.551226987464412"><ele>170.60000000000002</ele><time>2026-05-02T08:41:39Z</time></trkpt><trkpt lat="42.56939348453805" lon="12.551118153279727"><ele>170.2</ele><time>2026-05-02T08:41:40Z</time></trkpt><trkpt lat="42.56944950638539" lon="12.551016216003454"><ele>169.8</ele><time>2026-05-02T08:41:41Z</time></trkpt><trkpt lat="42.569503427226984" lon="12.55088550827259"><ele>169.39999999999998</ele><time>2026-05-02T08:41:42Z</time></trkpt><trkpt lat="42.56954925438184" lon="12.550771600571291"><ele>169.0</ele><time>2026-05-02T08:41:43Z</time></trkpt><trkpt lat="42.56958441122714" lon="12.55063045519471"><ele>169.0</ele><time>2026-05-02T08:41:44Z</time></trkpt><trkpt lat="42.56961980685165" lon="12.550503215444678"><ele>169.0</ele><time>2026-05-02T08:41:45Z</time></trkpt><trkpt lat="42.56966023506378" lon="12.550377635535016"><ele>169.0</ele><time>2026-05-02T08:41:46Z</time></trkpt><trkpt lat="42.569702965684364" lon="12.550266903225976"><ele>169.0</ele><time>2026-05-02T08:41:47Z</time></trkpt><trkpt lat="42.569755889707686" lon="12.550167661950352"><ele>169.0</ele><time>2026-05-02T08:41:48Z</time></trkpt><trkpt lat="42.56982130724462" lon="12.550079323823917"><ele>169.0</ele><time>2026-05-02T08:41:49Z</time></trkpt><trkpt lat="42.569914255878906" lon="12.550055087215148"><ele>169.0</ele><time>2026-05-02T08:41:50Z</time></trkpt><trkpt lat="42.57001346871726" lon="12.549974432072244"><ele>169.0</ele><time>2026-05-02T08:41:51Z</time></trkpt><trkpt lat="42.57012487006401" lon="12.549923564068903"><ele>169.0</ele><time>2026-05-02T08:41:52Z</time></trkpt><trkpt lat="42.57022956743028" lon="12.549862795983845"><ele>169.0</ele><time>2026-05-02T08:41:53Z</time></trkpt><trkpt lat="42.57032941946315" lon="12.5498046893906"><ele>169.0</ele><time>2026-05-02T08:41:54Z</time></trkpt><trkpt lat="42.57044764619944" lon="12.54975158635348"><ele>169.0</ele><time>2026-05-02T08:41:55Z</time></trkpt><trkpt lat="42.570555113002335" lon="12.549696594071948"><ele>169.0</ele><time>2026-05-02T08:41:56Z</time></trkpt><trkpt lat="42.57067247324986" lon="12.549644052609814"><ele>169.0</ele><time>2026-05-02T08:41:57Z</time></trkpt><trkpt lat="42.57078510622297" lon="12.54958489751786"><ele>169.5</ele><time>2026-05-02T08:41:58Z</time></trkpt><trkpt lat="42.570908367660586" lon="12.549524427068047"><ele>170.0</ele><time>2026-05-02T08:41:59Z</time></trkpt><trkpt lat="42.571019687286466" lon="12.549457458258555"><ele>170.5</ele><time>2026-05-02T08:42:00Z</time></trkpt><trkpt lat="42.57113319200258" lon="12.549389526992497"><ele>171.0</ele><time>2026-05-02T08:42:01Z</time></trkpt><trkpt lat="42.57124396046262" lon="12.549322158731433"><ele>171.0</ele><time>2026-05-02T08:42:02Z</time></trkpt><trkpt lat="42.57134116747939" lon="12.549233356224482"><ele>171.0</ele><time>2026-05-02T08:42:03Z</time></trkpt><trkpt lat="42.57143992201286" lon="12.549131478250581"><ele>171.0</ele><time>2026-05-02T08:42:04Z</time></trkpt><trkpt lat="42.57154888375968" lon="12.549040519845443"><ele>171.0</ele><time>2026-05-02T08:42:05Z</time></trkpt><trkpt lat="42.571636836256815" lon="12.54893862343824"><ele>171.0</ele><time>2026-05-02T08:42:06Z</time></trkpt><trkpt lat="42.571741909761755" lon="12.548876038589752"><ele>171.0</ele><time>2026-05-02T08:42:07Z</time></trkpt><trkpt lat="42.57183412504662" lon="12.54877993317513"><ele>171.0</ele><time>2026-05-02T08:42:08Z</time></trkpt><trkpt lat="42.57193723640612" lon="12.548712450075849"><ele>171.0</ele><time>2026-05-02T08:42:09Z</time></trkpt><trkpt lat="42.57205013742521" lon="12.54867239383639"><ele>171.5</ele><time>2026-05-02T08:42:10Z</time></trkpt><trkpt lat="42.5721611558652" lon="12.548615538085341"><ele>172.0</ele><time>2026-05-02T08:42:11Z</time></trkpt><trkpt lat="42.57227215321268" lon="12.54856054475612"><ele>172.5</ele><time>2026-05-02T08:42:12Z</time></trkpt><trkpt lat="42.57237486285007" lon="12.548493987731511"><ele>173.0</ele><time>2026-05-02T08:42:13Z</time></trkpt><trkpt lat="42.57249218684843" lon="12.548446293760644"><ele>173.0</ele><time>2026-05-02T08:42:14Z</time></trkpt><trkpt lat="42.572607917542875" lon="12.548419288548578"><ele>173.0</ele><time>2026-05-02T08:42:15Z</time></trkpt><trkpt lat="42.57270898687906" lon="12.54836625443358"><ele>173.0</ele><time>2026-05-02T08:42:16Z</time></trkpt><trkpt lat="42.57281315797209" lon="12.54832796353328"><ele>173.0</ele><time>2026-05-02T08:42:17Z</time></trkpt><trkpt lat="42.57292161091752" lon="12.548291176291023"><ele>173.0</ele><time>2026-05-02T08:42:18Z</time></trkpt><trkpt lat="42.57303246638777" lon="12.548255062615173"><ele>173.0</ele><time>2026-05-02T08:42:19Z</time></trkpt><trkpt lat="42.573151112842034" lon="12.54821556163392"><ele>173.0</ele><time>2026-05-02T08:42:20Z</time></trkpt><trkpt lat="42.573274495732065" lon="12.548181802543139"><ele>173.0</ele><time>2026-05-02T08:42:21Z</time></trkpt><trkpt lat="42.57339125207418" lon="12.54814702508087"><ele>173.0</ele><time>2026-05-02T08:42:21.999Z</time></trkpt><trkpt lat="42.57350556864418" lon="12.548114352511016"><ele>173.0</ele><time>2026-05-02T08:42:22.999Z</time></trkpt><trkpt lat="42.57362362128699" lon="12.548104243597026"><ele>173.0</ele><time>2026-05-02T08:42:23.999Z</time></trkpt><trkpt lat="42.57374392734297" lon="12.548064337576342"><ele>173.0</ele><time>2026-05-02T08:42:24.999Z</time></trkpt><trkpt lat="42.57387963062093" lon="12.54805314929171"><ele>173.0</ele><time>2026-05-02T08:42:25.999Z</time></trkpt><trkpt lat="42.574006232661645" lon="12.548034847523523"><ele>173.0</ele><time>2026-05-02T08:42:26.999Z</time></trkpt><trkpt lat="42.57414500644814" lon="12.548013264669734"><ele>173.0</ele><time>2026-05-02T08:42:27.999Z</time></trkpt><trkpt lat="42.574284886477514" lon="12.547981239483939"><ele>173.0</ele><time>2026-05-02T08:42:28.999Z</time></trkpt><trkpt lat="42.574408604182814" lon="12.547961973872658"><ele>173.0</ele><time>2026-05-02T08:42:29.999Z</time></trkpt><trkpt lat="42.5745211836522" lon="12.547949727764507"><ele>173.0</ele><time>2026-05-02T08:42:30.999Z</time></trkpt><trkpt lat="42.57462929439912" lon="12.547934750850223"><ele>173.0</ele><time>2026-05-02T08:42:31.999Z</time></trkpt><trkpt lat="42.57473299932489" lon="12.547919965722643"><ele>173.0</ele><time>2026-05-02T08:42:32.999Z</time></trkpt><trkpt lat="42.57484044173634" lon="12.547908979827588"><ele>173.0</ele><time>2026-05-02T08:42:33.999Z</time></trkpt><trkpt lat="42.57495032080587" lon="12.547888379523364"><ele>173.0</ele><time>2026-05-02T08:42:34.999Z</time></trkpt><trkpt lat="42.575056843870804" lon="12.547872929440468"><ele>172.8</ele><time>2026-05-02T08:42:35.999Z</time></trkpt><trkpt lat="42.575160864795556" lon="12.547850148300656"><ele>172.60000000000002</ele><time>2026-05-02T08:42:36.999Z</time></trkpt><trkpt lat="42.57526466036776" lon="12.547863675920011"><ele>172.39999999999998</ele><time>2026-05-02T08:42:37.999Z</time></trkpt><trkpt lat="42.57535963782362" lon="12.547870285682736"><ele>172.2</ele><time>2026-05-02T08:42:38.999Z</time></trkpt><trkpt lat="42.57546504266083" lon="12.547909963724758"><ele>172.0</ele><time>2026-05-02T08:42:39.999Z</time></trkpt><trkpt lat="42.5755566150557" lon="12.547982539249071"><ele>172.0</ele><time>2026-05-02T08:42:40.999Z</time></trkpt><trkpt lat="42.57566016476372" lon="12.548036064271587"><ele>172.0</ele><time>2026-05-02T08:42:41.999Z</time></trkpt><trkpt lat="42.57584511887881" lon="12.547787438441967"><ele>172.0</ele><time>2026-05-02T08:42:42.999Z</time></trkpt><trkpt lat="42.57596840350907" lon="12.547778863039744"><ele>172.0</ele><time>2026-05-02T08:42:43.999Z</time></trkpt><trkpt lat="42.57607847740835" lon="12.547766593390827"><ele>172.0</ele><time>2026-05-02T08:42:44.999Z</time></trkpt><trkpt lat="42.57617962986695" lon="12.547751238418371"><ele>172.0</ele><time>2026-05-02T08:42:45.999Z</time></trkpt><trkpt lat="42.576275976777325" lon="12.54774307269982"><ele>172.0</ele><time>2026-05-02T08:42:46.999Z</time></trkpt><trkpt lat="42.57637114184299" lon="12.547747286191852"><ele>172.0</ele><time>2026-05-02T08:42:47.999Z</time></trkpt><trkpt lat="42.57646815445528" lon="12.547757757537616"><ele>171.39999999999998</ele><time>2026-05-02T08:42:48.999Z</time></trkpt><trkpt lat="42.576572832233246" lon="12.547770455242992"><ele>170.79999999999998</ele><time>2026-05-02T08:42:49.999Z</time></trkpt><trkpt lat="42.57669443924513" lon="12.547767865708533"><ele>170.2</ele><time>2026-05-02T08:42:50.999Z</time></trkpt><trkpt lat="42.5768058193985" lon="12.547754641129115"><ele>169.6</ele><time>2026-05-02T08:42:51.999Z</time></trkpt><trkpt lat="42.57690017920598" lon="12.547740146807078"><ele>169.0</ele><time>2026-05-02T08:42:52.999Z</time></trkpt><trkpt lat="42.5769817824543" lon="12.547727586559706"><ele>169.16666666666669</ele><time>2026-05-02T08:42:54Z</time></trkpt><trkpt lat="42.57705228006994" lon="12.547724733986078"><ele>169.33333333333334</ele><time>2026-05-02T08:42:55Z</time></trkpt><trkpt lat="42.57712967983416" lon="12.547724658244249"><ele>169.5</ele><time>2026-05-02T08:42:56Z</time></trkpt><trkpt lat="42.57720717264933" lon="12.547718905719954"><ele>169.66666666666666</ele><time>2026-05-02T08:42:57Z</time></trkpt><trkpt lat="42.57728323892279" lon="12.547701814682332"><ele>169.83333333333331</ele><time>2026-05-02T08:42:58Z</time></trkpt><trkpt lat="42.5773629881237" lon="12.547673785741868"><ele>170.0</ele><time>2026-05-02T08:42:59Z</time></trkpt><trkpt lat="42.57744673679989" lon="12.547644943286269"><ele>170.0</ele><time>2026-05-02T08:43:00Z</time></trkpt><trkpt lat="42.577540992011606" lon="12.547627377360918"><ele>170.0</ele><time>2026-05-02T08:43:01Z</time></trkpt><trkpt lat="42.57765424354084" lon="12.547608525507533"><ele>170.0</ele><time>2026-05-02T08:43:02Z</time></trkpt><trkpt lat="42.57776700423131" lon="12.547590171089626"><ele>170.0</ele><time>2026-05-02T08:43:03Z</time></trkpt><trkpt lat="42.577879329053445" lon="12.547571221656062"><ele>170.0</ele><time>2026-05-02T08:43:04Z</time></trkpt><trkpt lat="42.57800190540598" lon="12.547547800175398"><ele>170.6</ele><time>2026-05-02T08:43:05Z</time></trkpt><trkpt lat="42.57810377876649" lon="12.547527788111328"><ele>171.2</ele><time>2026-05-02T08:43:06Z</time></trkpt><trkpt lat="42.57820711423173" lon="12.547502774696893"><ele>171.8</ele><time>2026-05-02T08:43:07Z</time></trkpt><trkpt lat="42.57831107761582" lon="12.54747499991992"><ele>172.4</ele><time>2026-05-02T08:43:08Z</time></trkpt><trkpt lat="42.578408732543785" lon="12.547443410432354"><ele>173.0</ele><time>2026-05-02T08:43:09Z</time></trkpt><trkpt lat="42.578509153504314" lon="12.547409962437335"><ele>173.0</ele><time>2026-05-02T08:43:10Z</time></trkpt><trkpt lat="42.57860794445044" lon="12.547380876365441"><ele>173.0</ele><time>2026-05-02T08:43:11Z</time></trkpt><trkpt lat="42.57869905582309" lon="12.547367528378114"><ele>173.0</ele><time>2026-05-02T08:43:12Z</time></trkpt><trkpt lat="42.57879242395478" lon="12.547354229904442"><ele>173.0</ele><time>2026-05-02T08:43:13Z</time></trkpt><trkpt lat="42.57888353420196" lon="12.547336190109231"><ele>173.0</ele><time>2026-05-02T08:43:14Z</time></trkpt><trkpt lat="42.57898891043959" lon="12.547311822359132"><ele>173.0</ele><time>2026-05-02T08:43:15Z</time></trkpt><trkpt lat="42.57908450734372" lon="12.547298757001434"><ele>173.0</ele><time>2026-05-02T08:43:16Z</time></trkpt><trkpt lat="42.57917920212327" lon="12.547290774496775"><ele>173.0</ele><time>2026-05-02T08:43:17Z</time></trkpt><trkpt lat="42.579267637075354" lon="12.547281214933943"><ele>173.0</ele><time>2026-05-02T08:43:18Z</time></trkpt><trkpt lat="42.579351398623736" lon="12.547279630000796"><ele>173.0</ele><time>2026-05-02T08:43:19Z</time></trkpt><trkpt lat="42.57943197318975" lon="12.547291740590003"><ele>173.0</ele><time>2026-05-02T08:43:20Z</time></trkpt><trkpt lat="42.57952549938618" lon="12.547308157625029"><ele>173.0</ele><time>2026-05-02T08:43:21Z</time></trkpt><trkpt lat="42.57960708355436" lon="12.54732292229063"><ele>173.0</ele><time>2026-05-02T08:43:22Z</time></trkpt><trkpt lat="42.579745796436804" lon="12.547311409448907"><ele>173.0</ele><time>2026-05-02T08:43:24Z</time></trkpt><trkpt lat="42.579831103705196" lon="12.547290519416494"><ele>173.0</ele><time>2026-05-02T08:43:25Z</time></trkpt><trkpt lat="42.57992733325681" lon="12.547266145434193"><ele>173.0</ele><time>2026-05-02T08:43:26Z</time></trkpt><trkpt lat="42.58003333796802" lon="12.547243728109876"><ele>173.0</ele><time>2026-05-02T08:43:27Z</time></trkpt><trkpt lat="42.580150827676896" lon="12.547219171914929"><ele>173.0</ele><time>2026-05-02T08:43:28Z</time></trkpt><trkpt lat="42.58025622834543" lon="12.547206745834227"><ele>173.0</ele><time>2026-05-02T08:43:29Z</time></trkpt><trkpt lat="42.58034839101794" lon="12.54720015646432"><ele>173.0</ele><time>2026-05-02T08:43:30Z</time></trkpt><trkpt lat="42.580457330493246" lon="12.547183741941168"><ele>173.0</ele><time>2026-05-02T08:43:31Z</time></trkpt><trkpt lat="42.5805775829982" lon="12.547172367560048"><ele>173.5</ele><time>2026-05-02T08:43:32Z</time></trkpt><trkpt lat="42.580693937487624" lon="12.54715972671758"><ele>174.0</ele><time>2026-05-02T08:43:33Z</time></trkpt><trkpt lat="42.58081299785403" lon="12.547141707627194"><ele>174.5</ele><time>2026-05-02T08:43:34Z</time></trkpt><trkpt lat="42.58091975258185" lon="12.547125592793144"><ele>175.0</ele><time>2026-05-02T08:43:35Z</time></trkpt><trkpt lat="42.581030689803704" lon="12.547120233422856"><ele>175.0</ele><time>2026-05-02T08:43:36Z</time></trkpt><trkpt lat="42.58114973827873" lon="12.547104665747037"><ele>175.0</ele><time>2026-05-02T08:43:37Z</time></trkpt><trkpt lat="42.58126728063871" lon="12.547086460666899"><ele>175.0</ele><time>2026-05-02T08:43:38Z</time></trkpt><trkpt lat="42.581376061102674" lon="12.547065256541092"><ele>175.0</ele><time>2026-05-02T08:43:39Z</time></trkpt><trkpt lat="42.581482132578074" lon="12.547047306265318"><ele>176.0</ele><time>2026-05-02T08:43:40Z</time></trkpt><trkpt lat="42.58160249428466" lon="12.547021619131208"><ele>177.0</ele><time>2026-05-02T08:43:41Z</time></trkpt><trkpt lat="42.58171211337027" lon="12.546997763353888"><ele>178.0</ele><time>2026-05-02T08:43:42Z</time></trkpt><trkpt lat="42.58180788026993" lon="12.546965500375649"><ele>179.0</ele><time>2026-05-02T08:43:43Z</time></trkpt><trkpt lat="42.581906636056395" lon="12.546924734526614"><ele>180.0</ele><time>2026-05-02T08:43:44Z</time></trkpt><trkpt lat="42.58200437919518" lon="12.546858956557022"><ele>180.5</ele><time>2026-05-02T08:43:45Z</time></trkpt><trkpt lat="42.58210939430055" lon="12.546777917532594"><ele>181.0</ele><time>2026-05-02T08:43:46Z</time></trkpt><trkpt lat="42.58221549263479" lon="12.546695630106186"><ele>181.5</ele><time>2026-05-02T08:43:47Z</time></trkpt><trkpt lat="42.58231730645424" lon="12.546609900243316"><ele>182.0</ele><time>2026-05-02T08:43:48Z</time></trkpt><trkpt lat="42.5824112765257" lon="12.546546978123343"><ele>182.0</ele><time>2026-05-02T08:43:49Z</time></trkpt><trkpt lat="42.58251713541432" lon="12.546483479549265"><ele>182.0</ele><time>2026-05-02T08:43:50Z</time></trkpt><trkpt lat="42.58263360626248" lon="12.546409105733082"><ele>182.0</ele><time>2026-05-02T08:43:51Z</time></trkpt><trkpt lat="42.582749956802836" lon="12.546332563616632"><ele>182.0</ele><time>2026-05-02T08:43:52Z</time></trkpt><trkpt lat="42.58286321771361" lon="12.546258241225486"><ele>183.5</ele><time>2026-05-02T08:43:53Z</time></trkpt><trkpt lat="42.58297025461499" lon="12.546189143449245"><ele>185.0</ele><time>2026-05-02T08:43:54Z</time></trkpt><trkpt lat="42.58307491253708" lon="12.546126679579656"><ele>186.5</ele><time>2026-05-02T08:43:55Z</time></trkpt><trkpt lat="42.583182233628214" lon="12.54606534984213"><ele>188.0</ele><time>2026-05-02T08:43:56Z</time></trkpt><trkpt lat="42.58329490095979" lon="12.545996699440192"><ele>188.0</ele><time>2026-05-02T08:43:57Z</time></trkpt><trkpt lat="42.58341120236962" lon="12.545916928859597"><ele>188.0</ele><time>2026-05-02T08:43:58Z</time></trkpt><trkpt lat="42.58351997155257" lon="12.545842064005628"><ele>188.0</ele><time>2026-05-02T08:43:59Z</time></trkpt><trkpt lat="42.58362657073584" lon="12.54577111514725"><ele>188.0</ele><time>2026-05-02T08:44:00Z</time></trkpt><trkpt lat="42.58374067377722" lon="12.545703617093302"><ele>189.75</ele><time>2026-05-02T08:44:01Z</time></trkpt><trkpt lat="42.5838607327308" lon="12.545629829953743"><ele>191.5</ele><time>2026-05-02T08:44:02Z</time></trkpt><trkpt lat="42.58397934196369" lon="12.545563431494168"><ele>193.25</ele><time>2026-05-02T08:44:03Z</time></trkpt><trkpt lat="42.584119629018986" lon="12.545484656174612"><ele>195.0</ele><time>2026-05-02T08:44:04Z</time></trkpt><trkpt lat="42.58423612376659" lon="12.545422526897614"><ele>195.75</ele><time>2026-05-02T08:44:05Z</time></trkpt><trkpt lat="42.58436518125705" lon="12.54534779433043"><ele>196.5</ele><time>2026-05-02T08:44:06Z</time></trkpt><trkpt lat="42.58446749740746" lon="12.545279634104046"><ele>197.25</ele><time>2026-05-02T08:44:07Z</time></trkpt><trkpt lat="42.584573370460404" lon="12.545205850161352"><ele>198.0</ele><time>2026-05-02T08:44:08Z</time></trkpt><trkpt lat="42.58465576114162" lon="12.545148524574914"><ele>198.2</ele><time>2026-05-02T08:44:09Z</time></trkpt><trkpt lat="42.584729974918794" lon="12.545099375925894"><ele>198.4</ele><time>2026-05-02T08:44:10Z</time></trkpt><trkpt lat="42.584829784924025" lon="12.545067648312509"><ele>198.6</ele><time>2026-05-02T08:44:12Z</time></trkpt><trkpt lat="42.58487872308015" lon="12.545149821724825"><ele>198.79999999999998</ele><time>2026-05-02T08:44:14Z</time></trkpt><trkpt lat="42.584914303489015" lon="12.54526154478767"><ele>199.0</ele><time>2026-05-02T08:44:15Z</time></trkpt><trkpt lat="42.584936921007376" lon="12.54541488603669"><ele>199.0</ele><time>2026-05-02T08:44:16Z</time></trkpt><trkpt lat="42.58495963337144" lon="12.54558572968526"><ele>199.0</ele><time>2026-05-02T08:44:17Z</time></trkpt><trkpt lat="42.58499641437186" lon="12.545762580188885"><ele>199.0</ele><time>2026-05-02T08:44:18Z</time></trkpt><trkpt lat="42.585051544203566" lon="12.545932482571345"><ele>199.0</ele><time>2026-05-02T08:44:19Z</time></trkpt><trkpt lat="42.58510088061017" lon="12.546125212845999"><ele>198.66666666666666</ele><time>2026-05-02T08:44:20Z</time></trkpt><trkpt lat="42.585160818527775" lon="12.546327251955532"><ele>198.33333333333331</ele><time>2026-05-02T08:44:21Z</time></trkpt><trkpt lat="42.585214823432416" lon="12.546515475302991"><ele>198.0</ele><time>2026-05-02T08:44:22Z</time></trkpt><trkpt lat="42.585270509734286" lon="12.546717924322564"><ele>198.0</ele><time>2026-05-02T08:44:23Z</time></trkpt><trkpt lat="42.585333760861054" lon="12.546900446513488"><ele>198.0</ele><time>2026-05-02T08:44:24Z</time></trkpt><trkpt lat="42.58536367045523" lon="12.547084969659693"><ele>198.0</ele><time>2026-05-02T08:44:25Z</time></trkpt><trkpt lat="42.585406572637865" lon="12.547264682553122"><ele>198.0</ele><time>2026-05-02T08:44:26Z</time></trkpt><trkpt lat="42.58545033917986" lon="12.547457188287286"><ele>198.75</ele><time>2026-05-02T08:44:27Z</time></trkpt><trkpt lat="42.58549005358829" lon="12.547640250605735"><ele>199.5</ele><time>2026-05-02T08:44:28Z</time></trkpt><trkpt lat="42.58553912283415" lon="12.547811539842579"><ele>200.25</ele><time>2026-05-02T08:44:29Z</time></trkpt><trkpt lat="42.585564240908" lon="12.547972810394521"><ele>201.0</ele><time>2026-05-02T08:44:30Z</time></trkpt><trkpt lat="42.58558081541691" lon="12.548118713500925"><ele>201.0</ele><time>2026-05-02T08:44:31Z</time></trkpt><trkpt lat="42.58559744087608" lon="12.54824261010447"><ele>201.0</ele><time>2026-05-02T08:44:32Z</time></trkpt><trkpt lat="42.58560727697824" lon="12.54835413025788"><ele>201.0</ele><time>2026-05-02T08:44:33Z</time></trkpt><trkpt lat="42.585610540730976" lon="12.548447855271386"><ele>201.0</ele><time>2026-05-02T08:44:34Z</time></trkpt><trkpt lat="42.58560102241748" lon="12.54854937130656"><ele>201.0</ele><time>2026-05-02T08:44:36Z</time></trkpt><trkpt lat="42.58547766903875" lon="12.548588933973553"><ele>201.0</ele><time>2026-05-02T08:44:38Z</time></trkpt><trkpt lat="42.58540207031219" lon="12.548607075273141"><ele>200.33333333333334</ele><time>2026-05-02T08:44:39Z</time></trkpt><trkpt lat="42.58534000625415" lon="12.548638773803825"><ele>199.66666666666669</ele><time>2026-05-02T08:44:40Z</time></trkpt><trkpt lat="42.5852628270783" lon="12.548782697714374"><ele>199.0</ele><time>2026-05-02T08:44:42Z</time></trkpt><trkpt lat="42.58523238987778" lon="12.548885058880586"><ele>198.33333333333334</ele><time>2026-05-02T08:44:43Z</time></trkpt><trkpt lat="42.58521221193969" lon="12.548988050122322"><ele>197.66666666666669</ele><time>2026-05-02T08:44:44Z</time></trkpt><trkpt lat="42.58518934394211" lon="12.549087721511722"><ele>197.0</ele><time>2026-05-02T08:44:45Z</time></trkpt><trkpt lat="42.58512254411165" lon="12.549215772446551"><ele>197.0</ele><time>2026-05-02T08:44:47Z</time></trkpt><trkpt lat="42.58501588311763" lon="12.549294417911868"><ele>197.0</ele><time>2026-05-02T08:44:49Z</time></trkpt><trkpt lat="42.58490634887238" lon="12.549373822612493"><ele>197.0</ele><time>2026-05-02T08:44:51Z</time></trkpt><trkpt lat="42.584840284190584" lon="12.549395929741106"><ele>197.0</ele><time>2026-05-02T08:44:52Z</time></trkpt><trkpt lat="42.584732697603485" lon="12.54939735594434"><ele>197.0</ele><time>2026-05-02T08:44:54Z</time></trkpt><trkpt lat="42.58464180495153" lon="12.549363136028193"><ele>197.00000000000003</ele><time>2026-05-02T08:44:56Z</time></trkpt><trkpt lat="42.58456081897029" lon="12.549266701331678"><ele>197.0</ele><time>2026-05-02T08:44:58Z</time></trkpt><trkpt lat="42.584533546650626" lon="12.549186086748454"><ele>197.0</ele><time>2026-05-02T08:44:59Z</time></trkpt><trkpt lat="42.584498520541906" lon="12.549093851013536"><ele>197.0</ele><time>2026-05-02T08:45:00Z</time></trkpt><trkpt lat="42.58446693481077" lon="12.549006347521932"><ele>197.00000000000003</ele><time>2026-05-02T08:45:01Z</time></trkpt><trkpt lat="42.58443620289498" lon="12.548913576947063"><ele>197.0</ele><time>2026-05-02T08:45:02Z</time></trkpt><trkpt lat="42.584389778457435" lon="12.548796770231691"><ele>194.39999999999998</ele><time>2026-05-02T08:45:03Z</time></trkpt><trkpt lat="42.584341847809874" lon="12.548692261056821"><ele>191.79999999999998</ele><time>2026-05-02T08:45:04Z</time></trkpt><trkpt lat="42.5842829560918" lon="12.548603306328118"><ele>189.2</ele><time>2026-05-02T08:45:05Z</time></trkpt><trkpt lat="42.58422493190124" lon="12.548510880910554"><ele>186.6</ele><time>2026-05-02T08:45:06Z</time></trkpt><trkpt lat="42.584158993946055" lon="12.548425193576351"><ele>184.0</ele><time>2026-05-02T08:45:07Z</time></trkpt><trkpt lat="42.58408005559701" lon="12.548365019062055"><ele>184.0</ele><time>2026-05-02T08:45:08Z</time></trkpt><trkpt lat="42.58399758196728" lon="12.548322151251167"><ele>184.0</ele><time>2026-05-02T08:45:09Z</time></trkpt><trkpt lat="42.58389819132648" lon="12.548285849432883"><ele>184.0</ele><time>2026-05-02T08:45:10Z</time></trkpt><trkpt lat="42.58378793888473" lon="12.548248740754758"><ele>184.0</ele><time>2026-05-02T08:45:11Z</time></trkpt><trkpt lat="42.58368909274797" lon="12.548215848825464"><ele>184.0</ele><time>2026-05-02T08:45:12Z</time></trkpt><trkpt lat="42.58359257646772" lon="12.548181443459404"><ele>182.39999999999998</ele><time>2026-05-02T08:45:13Z</time></trkpt><trkpt lat="42.583503537852486" lon="12.548150021632454"><ele>180.8</ele><time>2026-05-02T08:45:14Z</time></trkpt><trkpt lat="42.58341646193568" lon="12.548115471733011"><ele>179.2</ele><time>2026-05-02T08:45:15Z</time></trkpt><trkpt lat="42.58332925353502" lon="12.548057221098656"><ele>177.60000000000002</ele><time>2026-05-02T08:45:16Z</time></trkpt><trkpt lat="42.583236386306595" lon="12.548017311360196"><ele>176.0</ele><time>2026-05-02T08:45:17Z</time></trkpt><trkpt lat="42.58313112931592" lon="12.54797968610692"><ele>176.0</ele><time>2026-05-02T08:45:18Z</time></trkpt><trkpt lat="42.583043254590535" lon="12.54791712346637"><ele>176.0</ele><time>2026-05-02T08:45:19Z</time></trkpt><trkpt lat="42.58297456895285" lon="12.547859062532433"><ele>176.0</ele><time>2026-05-02T08:45:20Z</time></trkpt><trkpt lat="42.5828979990192" lon="12.547812594498584"><ele>176.0</ele><time>2026-05-02T08:45:21Z</time></trkpt><trkpt lat="42.58282020184148" lon="12.547780099062992"><ele>176.0</ele><time>2026-05-02T08:45:22Z</time></trkpt><trkpt lat="42.582730635208556" lon="12.54779354173506"><ele>176.0</ele><time>2026-05-02T08:45:23Z</time></trkpt><trkpt lat="42.58264598983956" lon="12.547814276365116"><ele>175.5</ele><time>2026-05-02T08:45:24Z</time></trkpt><trkpt lat="42.58256124843819" lon="12.547876957147034"><ele>175.0</ele><time>2026-05-02T08:45:25Z</time></trkpt><trkpt lat="42.58248495485266" lon="12.547958555161166"><ele>174.5</ele><time>2026-05-02T08:45:26Z</time></trkpt><trkpt lat="42.5824213322692" lon="12.54802080234103"><ele>174.0</ele><time>2026-05-02T08:45:27Z</time></trkpt><trkpt lat="42.582354098010235" lon="12.548065479162599"><ele>173.5</ele><time>2026-05-02T08:45:28Z</time></trkpt><trkpt lat="42.58226177992348" lon="12.548113712096695"><ele>173.0</ele><time>2026-05-02T08:45:29Z</time></trkpt><trkpt lat="42.582156423164605" lon="12.548162632482471"><ele>173.0</ele><time>2026-05-02T08:45:30Z</time></trkpt><trkpt lat="42.582021849365404" lon="12.548220278622871"><ele>173.0</ele><time>2026-05-02T08:45:31Z</time></trkpt><trkpt lat="42.58190785423787" lon="12.548269109659545"><ele>173.0</ele><time>2026-05-02T08:45:32Z</time></trkpt><trkpt lat="42.58179853603276" lon="12.548339464138138"><ele>173.0</ele><time>2026-05-02T08:45:33Z</time></trkpt><trkpt lat="42.58167397431444" lon="12.54839226024393"><ele>172.75</ele><time>2026-05-02T08:45:34Z</time></trkpt><trkpt lat="42.58155053930971" lon="12.548431368638836"><ele>172.5</ele><time>2026-05-02T08:45:35Z</time></trkpt><trkpt lat="42.58143877920198" lon="12.548494151302224"><ele>172.25</ele><time>2026-05-02T08:45:36Z</time></trkpt><trkpt lat="42.58133194672442" lon="12.54853742709247"><ele>172.0</ele><time>2026-05-02T08:45:37Z</time></trkpt><trkpt lat="42.58122380011653" lon="12.54858234968107"><ele>171.0</ele><time>2026-05-02T08:45:38Z</time></trkpt><trkpt lat="42.58111162806717" lon="12.54863339501768"><ele>170.0</ele><time>2026-05-02T08:45:39Z</time></trkpt><trkpt lat="42.58099872949248" lon="12.54867525325512"><ele>169.0</ele><time>2026-05-02T08:45:40Z</time></trkpt><trkpt lat="42.580886208932775" lon="12.548735810546628"><ele>168.0</ele><time>2026-05-02T08:45:41Z</time></trkpt><trkpt lat="42.580759501283296" lon="12.548767813906279"><ele>166.5</ele><time>2026-05-02T08:45:42Z</time></trkpt><trkpt lat="42.58063414062331" lon="12.548822413843714"><ele>165.0</ele><time>2026-05-02T08:45:43Z</time></trkpt><trkpt lat="42.58052328905966" lon="12.548869499732026"><ele>163.5</ele><time>2026-05-02T08:45:44Z</time></trkpt><trkpt lat="42.58041839205063" lon="12.548934185631644"><ele>162.0</ele><time>2026-05-02T08:45:45Z</time></trkpt><trkpt lat="42.58028795692371" lon="12.548982717630256"><ele>162.0</ele><time>2026-05-02T08:45:46Z</time></trkpt><trkpt lat="42.58016584287702" lon="12.549018414467703"><ele>162.0</ele><time>2026-05-02T08:45:47Z</time></trkpt><trkpt lat="42.58006640169238" lon="12.549088466539144"><ele>162.0</ele><time>2026-05-02T08:45:48Z</time></trkpt><trkpt lat="42.57996462290423" lon="12.54912062154222"><ele>162.0</ele><time>2026-05-02T08:45:49Z</time></trkpt><trkpt lat="42.579860597196195" lon="12.549172608250295"><ele>162.0</ele><time>2026-05-02T08:45:50Z</time></trkpt><trkpt lat="42.5797494575523" lon="12.549178616898745"><ele>162.0</ele><time>2026-05-02T08:45:51Z</time></trkpt><trkpt lat="42.57963660205171" lon="12.549194768732889"><ele>162.0</ele><time>2026-05-02T08:45:52Z</time></trkpt><trkpt lat="42.57951035116079" lon="12.549230166381367"><ele>162.0</ele><time>2026-05-02T08:45:53Z</time></trkpt><trkpt lat="42.57937071044054" lon="12.549234996942774"><ele>161.75</ele><time>2026-05-02T08:45:54Z</time></trkpt><trkpt lat="42.57923236684689" lon="12.549230825857272"><ele>161.5</ele><time>2026-05-02T08:45:55Z</time></trkpt><trkpt lat="42.579095598875085" lon="12.549264660549834"><ele>161.25</ele><time>2026-05-02T08:45:56Z</time></trkpt><trkpt lat="42.578968097034675" lon="12.549269696196555"><ele>161.0</ele><time>2026-05-02T08:45:57Z</time></trkpt><trkpt lat="42.5788407686124" lon="12.549268000154958"><ele>161.0</ele><time>2026-05-02T08:45:58Z</time></trkpt><trkpt lat="42.57871623396608" lon="12.549272837334994"><ele>161.0</ele><time>2026-05-02T08:45:59Z</time></trkpt><trkpt lat="42.57857914907265" lon="12.549276054771502"><ele>161.0</ele><time>2026-05-02T08:46:00Z</time></trkpt><trkpt lat="42.57845846368386" lon="12.549287115658931"><ele>161.0</ele><time>2026-05-02T08:46:01Z</time></trkpt><trkpt lat="42.578329934292356" lon="12.54929994587149"><ele>161.0</ele><time>2026-05-02T08:46:02Z</time></trkpt><trkpt lat="42.5781966933971" lon="12.549305904703399"><ele>161.0</ele><time>2026-05-02T08:46:03Z</time></trkpt><trkpt lat="42.57805933180807" lon="12.549315946582423"><ele>161.0</ele><time>2026-05-02T08:46:04Z</time></trkpt><trkpt lat="42.57792103555607" lon="12.54931967779064"><ele>161.0</ele><time>2026-05-02T08:46:05Z</time></trkpt><trkpt lat="42.577774131028775" lon="12.549325071057979"><ele>161.0</ele><time>2026-05-02T08:46:06Z</time></trkpt><trkpt lat="42.577615329561844" lon="12.549333713403499"><ele>161.0</ele><time>2026-05-02T08:46:07Z</time></trkpt><trkpt lat="42.5774745933021" lon="12.549341503522713"><ele>161.0</ele><time>2026-05-02T08:46:08Z</time></trkpt><trkpt lat="42.57735006126098" lon="12.549350267902023"><ele>161.0</ele><time>2026-05-02T08:46:09Z</time></trkpt><trkpt lat="42.57722546259794" lon="12.549358451535898"><ele>161.0</ele><time>2026-05-02T08:46:10Z</time></trkpt><trkpt lat="42.577103607371704" lon="12.549354628609672"><ele>161.0</ele><time>2026-05-02T08:46:11Z</time></trkpt><trkpt lat="42.57697656895554" lon="12.549370373023985"><ele>161.0</ele><time>2026-05-02T08:46:12Z</time></trkpt><trkpt lat="42.576846376677636" lon="12.549359539964437"><ele>161.0</ele><time>2026-05-02T08:46:13Z</time></trkpt><trkpt lat="42.57671374755743" lon="12.549366397640462"><ele>161.0</ele><time>2026-05-02T08:46:14Z</time></trkpt><trkpt lat="42.576585275523065" lon="12.54939214813222"><ele>161.0</ele><time>2026-05-02T08:46:15Z</time></trkpt><trkpt lat="42.57645096675768" lon="12.549393522975635"><ele>161.0</ele><time>2026-05-02T08:46:16Z</time></trkpt><trkpt lat="42.57632732371539" lon="12.549396599928908"><ele>161.0</ele><time>2026-05-02T08:46:17Z</time></trkpt><trkpt lat="42.5761973925436" lon="12.549387106639157"><ele>162.0</ele><time>2026-05-02T08:46:18Z</time></trkpt><trkpt lat="42.5760701389613" lon="12.549391625142114"><ele>163.0</ele><time>2026-05-02T08:46:19Z</time></trkpt><trkpt lat="42.57594123179569" lon="12.549396875274056"><ele>164.0</ele><time>2026-05-02T08:46:20Z</time></trkpt><trkpt lat="42.57583170048618" lon="12.549428169083917"><ele>165.0</ele><time>2026-05-02T08:46:21Z</time></trkpt><trkpt lat="42.575730391526214" lon="12.549437103710515"><ele>165.0</ele><time>2026-05-02T08:46:22Z</time></trkpt><trkpt lat="42.57564640596413" lon="12.549442319351323"><ele>165.0</ele><time>2026-05-02T08:46:23Z</time></trkpt><trkpt lat="42.57557475866098" lon="12.549421113465364"><ele>165.0</ele><time>2026-05-02T08:46:24Z</time></trkpt><trkpt lat="42.575474387665714" lon="12.54936871593434"><ele>165.0</ele><time>2026-05-02T08:46:26Z</time></trkpt><trkpt lat="42.57548009136947" lon="12.54926310927674"><ele>165.0</ele><time>2026-05-02T08:46:27Z</time></trkpt><trkpt lat="42.57549935462475" lon="12.549155651598408"><ele>165.0</ele><time>2026-05-02T08:46:28Z</time></trkpt><trkpt lat="42.575499354802055" lon="12.549016690975806"><ele>165.0</ele><time>2026-05-02T08:46:29Z</time></trkpt><trkpt lat="42.57549933972386" lon="12.548865240242979"><ele>165.0</ele><time>2026-05-02T08:46:30Z</time></trkpt><trkpt lat="42.57549627564539" lon="12.54871406180656"><ele>165.0</ele><time>2026-05-02T08:46:31Z</time></trkpt><trkpt lat="42.5754921088724" lon="12.54854310209873"><ele>165.0</ele><time>2026-05-02T08:46:32Z</time></trkpt><trkpt lat="42.5754869258291" lon="12.548385200164152"><ele>166.4</ele><time>2026-05-02T08:46:33Z</time></trkpt><trkpt lat="42.57546716406051" lon="12.548245273266977"><ele>167.8</ele><time>2026-05-02T08:46:34Z</time></trkpt><trkpt lat="42.575463517029235" lon="12.548116735591313"><ele>169.2</ele><time>2026-05-02T08:46:35Z</time></trkpt><trkpt lat="42.57545239000038" lon="12.548003300109691"><ele>170.6</ele><time>2026-05-02T08:46:36Z</time></trkpt><trkpt lat="42.57542777519577" lon="12.547917633638589"><ele>172.0</ele><time>2026-05-02T08:46:37Z</time></trkpt><trkpt lat="42.57535653007545" lon="12.547800743102524"><ele>172.2</ele><time>2026-05-02T08:46:39Z</time></trkpt><trkpt lat="42.575276538229645" lon="12.547808216181334"><ele>172.39999999999998</ele><time>2026-05-02T08:46:40Z</time></trkpt><trkpt lat="42.575203981116175" lon="12.547827109520217"><ele>172.60000000000002</ele><time>2026-05-02T08:46:41Z</time></trkpt><trkpt lat="42.57511255986269" lon="12.547846699822829"><ele>172.8</ele><time>2026-05-02T08:46:42Z</time></trkpt><trkpt lat="42.57500272474427" lon="12.547847894710637"><ele>173.0</ele><time>2026-05-02T08:46:43Z</time></trkpt><trkpt lat="42.57487931948737" lon="12.547879580361537"><ele>173.0</ele><time>2026-05-02T08:46:44Z</time></trkpt><trkpt lat="42.574755597824144" lon="12.547906914136691"><ele>173.0</ele><time>2026-05-02T08:46:45Z</time></trkpt><trkpt lat="42.57464553321681" lon="12.547918114146658"><ele>173.0</ele><time>2026-05-02T08:46:46Z</time></trkpt><trkpt lat="42.57452353951138" lon="12.547939019698513"><ele>173.0</ele><time>2026-05-02T08:46:47Z</time></trkpt><trkpt lat="42.57439622406144" lon="12.54794980588633"><ele>173.0</ele><time>2026-05-02T08:46:48Z</time></trkpt><trkpt lat="42.57426040794088" lon="12.547969109346186"><ele>173.0</ele><time>2026-05-02T08:46:49Z</time></trkpt><trkpt lat="42.574128953139216" lon="12.547990592789715"><ele>173.0</ele><time>2026-05-02T08:46:50Z</time></trkpt><trkpt lat="42.5740082237554" lon="12.54801725940669"><ele>173.0</ele><time>2026-05-02T08:46:51Z</time></trkpt><trkpt lat="42.57387576534872" lon="12.548020998749372"><ele>173.0</ele><time>2026-05-02T08:46:52Z</time></trkpt><trkpt lat="42.57374070466995" lon="12.548038713958334"><ele>173.0</ele><time>2026-05-02T08:46:53Z</time></trkpt><trkpt lat="42.57361342080915" lon="12.548080051887752"><ele>173.0</ele><time>2026-05-02T08:46:54Z</time></trkpt><trkpt lat="42.5734885919943" lon="12.548098955632"><ele>173.0</ele><time>2026-05-02T08:46:55Z</time></trkpt><trkpt lat="42.57335266683451" lon="12.548139344996466"><ele>173.0</ele><time>2026-05-02T08:46:56Z</time></trkpt><trkpt lat="42.57322296902159" lon="12.548180968487873"><ele>173.0</ele><time>2026-05-02T08:46:57Z</time></trkpt><trkpt lat="42.573100277339634" lon="12.548227446535192"><ele>173.0</ele><time>2026-05-02T08:46:58Z</time></trkpt><trkpt lat="42.57297328449991" lon="12.548246773132144"><ele>173.0</ele><time>2026-05-02T08:46:59Z</time></trkpt><trkpt lat="42.5728496249741" lon="12.54831156352796"><ele>173.0</ele><time>2026-05-02T08:47:00Z</time></trkpt><trkpt lat="42.57271977438782" lon="12.548333038069396"><ele>173.0</ele><time>2026-05-02T08:47:01Z</time></trkpt><trkpt lat="42.57258943974769" lon="12.54837948922969"><ele>173.0</ele><time>2026-05-02T08:47:02Z</time></trkpt><trkpt lat="42.57247704177817" lon="12.548422034967007"><ele>173.0</ele><time>2026-05-02T08:47:03Z</time></trkpt><trkpt lat="42.57236858050341" lon="12.548468444310535"><ele>173.0</ele><time>2026-05-02T08:47:04Z</time></trkpt><trkpt lat="42.57224017904842" lon="12.548548618980998"><ele>173.0</ele><time>2026-05-02T08:47:05Z</time></trkpt><trkpt lat="42.572108805510865" lon="12.548593485261893"><ele>173.0</ele><time>2026-05-02T08:47:06Z</time></trkpt><trkpt lat="42.57199568407323" lon="12.54865309076179"><ele>173.0</ele><time>2026-05-02T08:47:07Z</time></trkpt><trkpt lat="42.571874677375824" lon="12.548725728216713"><ele>172.5</ele><time>2026-05-02T08:47:08Z</time></trkpt><trkpt lat="42.57174696137003" lon="12.548819086865912"><ele>172.0</ele><time>2026-05-02T08:47:09Z</time></trkpt><trkpt lat="42.57163781056863" lon="12.548910200685993"><ele>171.5</ele><time>2026-05-02T08:47:10Z</time></trkpt><trkpt lat="42.571526580137444" lon="12.549006322864765"><ele>171.0</ele><time>2026-05-02T08:47:11Z</time></trkpt><trkpt lat="42.57141395132994" lon="12.549110874135495"><ele>171.0</ele><time>2026-05-02T08:47:12Z</time></trkpt><trkpt lat="42.57131319726807" lon="12.549206538413468"><ele>171.0</ele><time>2026-05-02T08:47:13Z</time></trkpt><trkpt lat="42.57122005427573" lon="12.549297024964904"><ele>171.0</ele><time>2026-05-02T08:47:14Z</time></trkpt><trkpt lat="42.57112243931181" lon="12.549367887386873"><ele>171.0</ele><time>2026-05-02T08:47:15Z</time></trkpt><trkpt lat="42.571010006198776" lon="12.549427475952118"><ele>170.5</ele><time>2026-05-02T08:47:16Z</time></trkpt><trkpt lat="42.57089019748295" lon="12.549490592103597"><ele>170.0</ele><time>2026-05-02T08:47:17Z</time></trkpt><trkpt lat="42.57076329458726" lon="12.549558087867918"><ele>169.5</ele><time>2026-05-02T08:47:18Z</time></trkpt><trkpt lat="42.570629044751094" lon="12.549629491258155"><ele>169.0</ele><time>2026-05-02T08:47:19Z</time></trkpt><trkpt lat="42.570508098983915" lon="12.54969078704107"><ele>169.0</ele><time>2026-05-02T08:47:20Z</time></trkpt><trkpt lat="42.57039685269936" lon="12.549746638021855"><ele>169.0</ele><time>2026-05-02T08:47:21Z</time></trkpt><trkpt lat="42.57028191133801" lon="12.549804345721759"><ele>169.0</ele><time>2026-05-02T08:47:22Z</time></trkpt><trkpt lat="42.57017247895673" lon="12.549861959100477"><ele>169.0</ele><time>2026-05-02T08:47:23Z</time></trkpt><trkpt lat="42.57005339232341" lon="12.549927731294442"><ele>169.0</ele><time>2026-05-02T08:47:24Z</time></trkpt><trkpt lat="42.56994952358525" lon="12.550005307656177"><ele>169.0</ele><time>2026-05-02T08:47:25Z</time></trkpt><trkpt lat="42.5698586719016" lon="12.550054185810707"><ele>169.0</ele><time>2026-05-02T08:47:26Z</time></trkpt><trkpt lat="42.56977314108971" lon="12.550092649291752"><ele>169.0</ele><time>2026-05-02T08:47:27Z</time></trkpt><trkpt lat="42.56969641887426" lon="12.550162492075886"><ele>169.0</ele><time>2026-05-02T08:47:28Z</time></trkpt><trkpt lat="42.569662453319125" lon="12.550325993089817"><ele>169.0</ele><time>2026-05-02T08:47:29Z</time></trkpt><trkpt lat="42.5696163797845" lon="12.550468819230263"><ele>169.0</ele><time>2026-05-02T08:47:30Z</time></trkpt><trkpt lat="42.56955804610904" lon="12.550616679977997"><ele>169.0</ele><time>2026-05-02T08:47:31Z</time></trkpt><trkpt lat="42.56950966906596" lon="12.550766884832498"><ele>169.0</ele><time>2026-05-02T08:47:32Z</time></trkpt><trkpt lat="42.56946082600017" lon="12.550902431329135"><ele>169.0</ele><time>2026-05-02T08:47:33Z</time></trkpt><trkpt lat="42.56940695483084" lon="12.551030583423163"><ele>169.0</ele><time>2026-05-02T08:47:34Z</time></trkpt><trkpt lat="42.56934022872024" lon="12.551152299644654"><ele>169.0</ele><time>2026-05-02T08:47:35Z</time></trkpt><trkpt lat="42.56926650058312" lon="12.551277915181819"><ele>169.0</ele><time>2026-05-02T08:47:36Z</time></trkpt><trkpt lat="42.56919431350089" lon="12.551425958808025"><ele>169.39999999999998</ele><time>2026-05-02T08:47:37Z</time></trkpt><trkpt lat="42.56910825319421" lon="12.551537184945122"><ele>169.8</ele><time>2026-05-02T08:47:38Z</time></trkpt><trkpt lat="42.5690426606036" lon="12.551632355299922"><ele>170.2</ele><time>2026-05-02T08:47:39Z</time></trkpt><trkpt lat="42.56899631832716" lon="12.551715368184846"><ele>170.60000000000002</ele><time>2026-05-02T08:47:40Z</time></trkpt><trkpt lat="42.568957500639655" lon="12.551798478359823"><ele>171.0</ele><time>2026-05-02T08:47:41Z</time></trkpt><trkpt lat="42.568895509032664" lon="12.55191464498095"><ele>171.0</ele><time>2026-05-02T08:47:43Z</time></trkpt><trkpt lat="42.568831965224845" lon="12.551976606286793"><ele>171.0</ele><time>2026-05-02T08:47:56Z</time></trkpt><trkpt lat="42.56875657914422" lon="12.551937260144365"><ele>171.0</ele><time>2026-05-02T08:47:58Z</time></trkpt><trkpt lat="42.56870869539571" lon="12.55182471925244"><ele>171.0</ele><time>2026-05-02T08:48:00Z</time></trkpt><trkpt lat="42.568613910418016" lon="12.551723116236529"><ele>171.0</ele><time>2026-05-02T08:48:02Z</time></trkpt><trkpt lat="42.56852710271946" lon="12.551626572189129"><ele>170.0</ele><time>2026-05-02T08:48:04Z</time></trkpt><trkpt lat="42.56841860485003" lon="12.551503847993361"><ele>169.0</ele><time>2026-05-02T08:48:06Z</time></trkpt><trkpt lat="42.56834932304057" lon="12.551423036640129"><ele>168.0</ele><time>2026-05-02T08:48:07Z</time></trkpt><trkpt lat="42.56827233417843" lon="12.551331834012396"><ele>167.0</ele><time>2026-05-02T08:48:08Z</time></trkpt><trkpt lat="42.56819727464064" lon="12.551242916935768"><ele>166.0</ele><time>2026-05-02T08:48:09Z</time></trkpt><trkpt lat="42.56812394999456" lon="12.551155761835815"><ele>165.60000000000002</ele><time>2026-05-02T08:48:10Z</time></trkpt><trkpt lat="42.56804096559024" lon="12.551054631094024"><ele>165.2</ele><time>2026-05-02T08:48:11Z</time></trkpt><trkpt lat="42.56795800509537" lon="12.55095352939341"><ele>164.8</ele><time>2026-05-02T08:48:12Z</time></trkpt><trkpt lat="42.56788338479003" lon="12.550862412586223"><ele>164.39999999999998</ele><time>2026-05-02T08:48:13Z</time></trkpt><trkpt lat="42.567802023105806" lon="12.550761506431867"><ele>164.0</ele><time>2026-05-02T08:48:14Z</time></trkpt><trkpt lat="42.56772215563297" lon="12.550662825792507"><ele>162.6</ele><time>2026-05-02T08:48:15Z</time></trkpt><trkpt lat="42.567646438422486" lon="12.550579520840838"><ele>161.2</ele><time>2026-05-02T08:48:16Z</time></trkpt><trkpt lat="42.56755996079286" lon="12.55052077600828"><ele>159.79999999999998</ele><time>2026-05-02T08:48:17Z</time></trkpt><trkpt lat="42.56747187098182" lon="12.550443486692213"><ele>158.39999999999998</ele><time>2026-05-02T08:48:18Z</time></trkpt><trkpt lat="42.56736894052041" lon="12.550368764341016"><ele>157.0</ele><time>2026-05-02T08:48:19Z</time></trkpt><trkpt lat="42.567268791593364" lon="12.55031017587534"><ele>156.2</ele><time>2026-05-02T08:48:20Z</time></trkpt><trkpt lat="42.567180539728675" lon="12.550259589081433"><ele>155.39999999999998</ele><time>2026-05-02T08:48:21Z</time></trkpt><trkpt lat="42.56708927625784" lon="12.550220068106814"><ele>154.60000000000002</ele><time>2026-05-02T08:48:22Z</time></trkpt><trkpt lat="42.56697702532024" lon="12.55018634797586"><ele>153.8</ele><time>2026-05-02T08:48:23Z</time></trkpt><trkpt lat="42.56687161707274" lon="12.55016170259393"><ele>153.0</ele><time>2026-05-02T08:48:24Z</time></trkpt><trkpt lat="42.566769592660144" lon="12.550152011668526"><ele>152.0</ele><time>2026-05-02T08:48:25Z</time></trkpt><trkpt lat="42.566662335777686" lon="12.550139511210055"><ele>151.0</ele><time>2026-05-02T08:48:26Z</time></trkpt><trkpt lat="42.566553257197455" lon="12.550131834471427"><ele>150.0</ele><time>2026-05-02T08:48:27Z</time></trkpt><trkpt lat="42.56645023310587" lon="12.550126278574119"><ele>149.0</ele><time>2026-05-02T08:48:28Z</time></trkpt><trkpt lat="42.566350053748025" lon="12.550133967963513"><ele>148.0</ele><time>2026-05-02T08:48:29Z</time></trkpt><trkpt lat="42.56625729530852" lon="12.550118922353178"><ele>147.4</ele><time>2026-05-02T08:48:30Z</time></trkpt><trkpt lat="42.5661655853489" lon="12.550121941722221"><ele>146.8</ele><time>2026-05-02T08:48:31Z</time></trkpt><trkpt lat="42.566074836927825" lon="12.550124929437711"><ele>146.2</ele><time>2026-05-02T08:48:32Z</time></trkpt><trkpt lat="42.56599332922968" lon="12.5501418093585"><ele>145.6</ele><time>2026-05-02T08:48:33Z</time></trkpt><trkpt lat="42.565921574577864" lon="12.550125230182058"><ele>145.0</ele><time>2026-05-02T08:48:34Z</time></trkpt><trkpt lat="42.565813283497775" lon="12.550001035672931"><ele>145.0</ele><time>2026-05-02T08:48:36Z</time></trkpt><trkpt lat="42.56573210988323" lon="12.549908590214176"><ele>145.0</ele><time>2026-05-02T08:48:37Z</time></trkpt><trkpt lat="42.56562827116253" lon="12.549793048847636"><ele>145.0</ele><time>2026-05-02T08:48:38Z</time></trkpt><trkpt lat="42.565522965747626" lon="12.549689381667065"><ele>145.0</ele><time>2026-05-02T08:48:39Z</time></trkpt><trkpt lat="42.56543467440303" lon="12.549593701640868"><ele>144.0</ele><time>2026-05-02T08:48:40Z</time></trkpt><trkpt lat="42.56533959268908" lon="12.549474620445084"><ele>143.0</ele><time>2026-05-02T08:48:41Z</time></trkpt><trkpt lat="42.56525759416489" lon="12.54935791462289"><ele>142.0</ele><time>2026-05-02T08:48:42Z</time></trkpt><trkpt lat="42.56517249757976" lon="12.549224997361588"><ele>141.0</ele><time>2026-05-02T08:48:43Z</time></trkpt><trkpt lat="42.565088715975975" lon="12.549091128549023"><ele>141.0</ele><time>2026-05-02T08:48:44Z</time></trkpt><trkpt lat="42.565000649914985" lon="12.548945122373487"><ele>141.0</ele><time>2026-05-02T08:48:45Z</time></trkpt><trkpt lat="42.56493492696813" lon="12.548798851353883"><ele>141.0</ele><time>2026-05-02T08:48:46Z</time></trkpt><trkpt lat="42.56485304320253" lon="12.548693908034736"><ele>141.0</ele><time>2026-05-02T08:48:47Z</time></trkpt><trkpt lat="42.56478361900541" lon="12.54857465026795"><ele>140.75</ele><time>2026-05-02T08:48:48Z</time></trkpt><trkpt lat="42.56470322396172" lon="12.548450866546508"><ele>140.5</ele><time>2026-05-02T08:48:49Z</time></trkpt><trkpt lat="42.56461341563721" lon="12.54829119458448"><ele>140.25</ele><time>2026-05-02T08:48:50Z</time></trkpt><trkpt lat="42.56452454413736" lon="12.548172970049603"><ele>140.0</ele><time>2026-05-02T08:48:51Z</time></trkpt><trkpt lat="42.56444741587672" lon="12.548050317897518"><ele>139.75</ele><time>2026-05-02T08:48:52Z</time></trkpt><trkpt lat="42.56438174355317" lon="12.547945102513548"><ele>139.5</ele><time>2026-05-02T08:48:53Z</time></trkpt><trkpt lat="42.56430495123994" lon="12.547820244368232"><ele>139.25</ele><time>2026-05-02T08:48:54Z</time></trkpt><trkpt lat="42.564205751877665" lon="12.547673156429369"><ele>139.0</ele><time>2026-05-02T08:48:55Z</time></trkpt><trkpt lat="42.56411130476898" lon="12.547526922096198"><ele>139.0</ele><time>2026-05-02T08:48:56Z</time></trkpt><trkpt lat="42.564036649741325" lon="12.547426536721805"><ele>139.0</ele><time>2026-05-02T08:48:57Z</time></trkpt><trkpt lat="42.563967187982215" lon="12.547350231662433"><ele>139.0</ele><time>2026-05-02T08:48:58Z</time></trkpt><trkpt lat="42.56390579009801" lon="12.54728709510872"><ele>139.0</ele><time>2026-05-02T08:48:59Z</time></trkpt><trkpt lat="42.563834808668744" lon="12.547225959394316"><ele>139.0</ele><time>2026-05-02T08:49:00Z</time></trkpt><trkpt lat="42.56376401512825" lon="12.547167458344408"><ele>139.0</ele><time>2026-05-02T08:49:01Z</time></trkpt><trkpt lat="42.563698168739975" lon="12.547109881063284"><ele>139.0</ele><time>2026-05-02T08:49:02Z</time></trkpt><trkpt lat="42.56366255504142" lon="12.54703505411556"><ele>139.0</ele><time>2026-05-02T08:49:03Z</time></trkpt><trkpt lat="42.56360203598834" lon="12.546927301719998"><ele>139.0</ele><time>2026-05-02T08:49:05Z</time></trkpt><trkpt lat="42.56346765300321" lon="12.546943632410418"><ele>139.0</ele><time>2026-05-02T08:49:06Z</time></trkpt><trkpt lat="42.56340626770361" lon="12.54692259554484"><ele>139.0</ele><time>2026-05-02T08:49:07Z</time></trkpt><trkpt lat="42.56328456701059" lon="12.546898763029127"><ele>139.0</ele><time>2026-05-02T08:49:09Z</time></trkpt><trkpt lat="42.563171884792936" lon="12.546842519092356"><ele>139.0</ele><time>2026-05-02T08:49:11Z</time></trkpt><trkpt lat="42.56304976901922" lon="12.546803098688834"><ele>139.0</ele><time>2026-05-02T08:49:13Z</time></trkpt><trkpt lat="42.56298420692654" lon="12.546782175237594"><ele>139.0</ele><time>2026-05-02T08:49:14Z</time></trkpt><trkpt lat="42.56291456119639" lon="12.546761190689839"><ele>139.0</ele><time>2026-05-02T08:49:15Z</time></trkpt><trkpt lat="42.562836359119316" lon="12.54674508655533"><ele>138.0</ele><time>2026-05-02T08:49:16Z</time></trkpt><trkpt lat="42.56276611900478" lon="12.546745424825376"><ele>137.0</ele><time>2026-05-02T08:49:17Z</time></trkpt><trkpt lat="42.56269954107745" lon="12.54675206303259"><ele>136.0</ele><time>2026-05-02T08:49:18Z</time></trkpt><trkpt lat="42.56257701707702" lon="12.546750171480767"><ele>135.0</ele><time>2026-05-02T08:49:20Z</time></trkpt><trkpt lat="42.56248349904487" lon="12.546748414255736"><ele>134.0</ele><time>2026-05-02T08:49:22Z</time></trkpt><trkpt lat="42.56240590942923" lon="12.546740035037676"><ele>133.0</ele><time>2026-05-02T08:49:25Z</time></trkpt><trkpt lat="42.56228681171124" lon="12.5467457070648"><ele>133.0</ele><time>2026-05-02T08:49:27Z</time></trkpt><trkpt lat="42.56220014795791" lon="12.546757308510141"><ele>133.0</ele><time>2026-05-02T08:49:29Z</time></trkpt><trkpt lat="42.56209228078108" lon="12.546813449485802"><ele>133.0</ele><time>2026-05-02T08:49:31Z</time></trkpt><trkpt lat="42.562023412537755" lon="12.546867821671272"><ele>133.0</ele><time>2026-05-02T08:49:32Z</time></trkpt><trkpt lat="42.561963441855106" lon="12.546935121341168"><ele>133.0</ele><time>2026-05-02T08:49:33Z</time></trkpt><trkpt lat="42.5618954646287" lon="12.546970839340876"><ele>133.0</ele><time>2026-05-02T08:49:34Z</time></trkpt><trkpt lat="42.56183804385176" lon="12.547015586353329"><ele>130.0</ele><time>2026-05-02T08:49:35Z</time></trkpt><trkpt lat="42.56177661659324" lon="12.547061100519871"><ele>127.00000000000001</ele><time>2026-05-02T08:49:36Z</time></trkpt><trkpt lat="42.56166961044903" lon="12.547149703985701"><ele>124.00000000000001</ele><time>2026-05-02T08:49:38Z</time></trkpt><trkpt lat="42.56156854309107" lon="12.54724295435496"><ele>121.0</ele><time>2026-05-02T08:49:40Z</time></trkpt><trkpt lat="42.56151793612114" lon="12.547300438950895"><ele>118.0</ele><time>2026-05-02T08:49:41Z</time></trkpt><trkpt lat="42.56145376133004" lon="12.547337154493135"><ele>118.0</ele><time>2026-05-02T08:49:42Z</time></trkpt><trkpt lat="42.56139784738008" lon="12.547392039192264"><ele>118.00000000000001</ele><time>2026-05-02T08:49:43Z</time></trkpt><trkpt lat="42.56133548591668" lon="12.547451436950823"><ele>118.00000000000001</ele><time>2026-05-02T08:49:44Z</time></trkpt><trkpt lat="42.5612421409704" lon="12.547536140622096"><ele>118.0</ele><time>2026-05-02T08:49:46Z</time></trkpt><trkpt lat="42.56114302206377" lon="12.54762562032376"><ele>118.0</ele><time>2026-05-02T08:49:48Z</time></trkpt><trkpt lat="42.56107537494512" lon="12.547714171924131"><ele>117.4</ele><time>2026-05-02T08:49:50Z</time></trkpt><trkpt lat="42.56097133898897" lon="12.547703107893494"><ele>116.80000000000001</ele><time>2026-05-02T08:49:53Z</time></trkpt><trkpt lat="42.56090495381242" lon="12.547623283797003"><ele>116.2</ele><time>2026-05-02T08:49:54Z</time></trkpt><trkpt lat="42.560852351891235" lon="12.547480858206939"><ele>115.6</ele><time>2026-05-02T08:49:55Z</time></trkpt><trkpt lat="42.56077016441364" lon="12.547355280368722"><ele>115.0</ele><time>2026-05-02T08:49:56Z</time></trkpt><trkpt lat="42.56071575889832" lon="12.547239406412974"><ele>115.00000000000001</ele><time>2026-05-02T08:49:57Z</time></trkpt><trkpt lat="42.560650608101795" lon="12.547122620280703"><ele>115.0</ele><time>2026-05-02T08:49:58Z</time></trkpt><trkpt lat="42.56059862458533" lon="12.5470282032417"><ele>115.0</ele><time>2026-05-02T08:49:59Z</time></trkpt><trkpt lat="42.56054756845852" lon="12.546933541397566"><ele>115.0</ele><time>2026-05-02T08:50:00Z</time></trkpt><trkpt lat="42.560507523552424" lon="12.546831848080396"><ele>115.00000000000001</ele><time>2026-05-02T08:50:01Z</time></trkpt><trkpt lat="42.56046121641015" lon="12.546757559657348"><ele>115.0</ele><time>2026-05-02T08:50:02Z</time></trkpt><trkpt lat="42.560408766551625" lon="12.54669627804598"><ele>114.8</ele><time>2026-05-02T08:50:03Z</time></trkpt><trkpt lat="42.560365926928824" lon="12.546550307463058"><ele>114.6</ele><time>2026-05-02T08:50:05Z</time></trkpt><trkpt lat="42.56033658574932" lon="12.546438141271128"><ele>114.4</ele><time>2026-05-02T08:50:06Z</time></trkpt><trkpt lat="42.56030184745652" lon="12.54630780984608"><ele>114.2</ele><time>2026-05-02T08:50:07Z</time></trkpt><trkpt lat="42.560247445495456" lon="12.546171168293544"><ele>114.0</ele><time>2026-05-02T08:50:08Z</time></trkpt><trkpt lat="42.56017605313135" lon="12.54602173846044"><ele>113.80000000000001</ele><time>2026-05-02T08:50:09Z</time></trkpt><trkpt lat="42.56010237279114" lon="12.545897663566665"><ele>113.60000000000001</ele><time>2026-05-02T08:50:10Z</time></trkpt><trkpt lat="42.56003117230459" lon="12.545799639841174"><ele>113.4</ele><time>2026-05-02T08:50:11Z</time></trkpt><trkpt lat="42.55997128074364" lon="12.545694243840762"><ele>113.2</ele><time>2026-05-02T08:50:12Z</time></trkpt><trkpt lat="42.55990981598871" lon="12.545605547947554"><ele>113.0</ele><time>2026-05-02T08:50:13Z</time></trkpt><trkpt lat="42.55985007241979" lon="12.545521080281876"><ele>112.99999999999999</ele><time>2026-05-02T08:50:14Z</time></trkpt><trkpt lat="42.55978848594003" lon="12.545434514308008"><ele>113.0</ele><time>2026-05-02T08:50:15Z</time></trkpt><trkpt lat="42.5597236209137" lon="12.545338289490077"><ele>113.0</ele><time>2026-05-02T08:50:16Z</time></trkpt><trkpt lat="42.55965653482057" lon="12.545263501981493"><ele>113.0</ele><time>2026-05-02T08:50:17Z</time></trkpt><trkpt lat="42.559616152020055" lon="12.545150812886241"><ele>112.99999999999999</ele><time>2026-05-02T08:50:18Z</time></trkpt><trkpt lat="42.5595704451864" lon="12.545055927155463"><ele>113.0</ele><time>2026-05-02T08:50:19Z</time></trkpt><trkpt lat="42.55952487260155" lon="12.54495663469615"><ele>112.60000000000001</ele><time>2026-05-02T08:50:20Z</time></trkpt><trkpt lat="42.55947678716124" lon="12.544848096942902"><ele>112.20000000000002</ele><time>2026-05-02T08:50:21Z</time></trkpt><trkpt lat="42.55942226342934" lon="12.544719640969625"><ele>111.8</ele><time>2026-05-02T08:50:22Z</time></trkpt><trkpt lat="42.559373256568314" lon="12.544599755389973"><ele>111.4</ele><time>2026-05-02T08:50:23Z</time></trkpt><trkpt lat="42.55932609051599" lon="12.544476410828585"><ele>111.0</ele><time>2026-05-02T08:50:24Z</time></trkpt><trkpt lat="42.559277974023864" lon="12.544339827483615"><ele>110.66666666666667</ele><time>2026-05-02T08:50:25Z</time></trkpt><trkpt lat="42.55921798407843" lon="12.54421515023674"><ele>110.33333333333334</ele><time>2026-05-02T08:50:26Z</time></trkpt><trkpt lat="42.559194529282415" lon="12.544099383089364"><ele>110.0</ele><time>2026-05-02T08:50:27Z</time></trkpt><trkpt lat="42.559149018134235" lon="12.544007051216335"><ele>109.66666666666667</ele><time>2026-05-02T08:50:28Z</time></trkpt><trkpt lat="42.559125029867495" lon="12.543915339144515"><ele>109.33333333333334</ele><time>2026-05-02T08:50:29Z</time></trkpt><trkpt lat="42.55907969811176" lon="12.543832696416201"><ele>109.0</ele><time>2026-05-02T08:50:30Z</time></trkpt><trkpt lat="42.55904924011205" lon="12.543693103276073"><ele>109.0</ele><time>2026-05-02T08:50:32Z</time></trkpt><trkpt lat="42.55912365150198" lon="12.543602934177867"><ele>109.0</ele><time>2026-05-02T08:50:34Z</time></trkpt><trkpt lat="42.559186601828564" lon="12.543532787974728"><ele>109.0</ele><time>2026-05-02T08:50:35Z</time></trkpt><trkpt lat="42.55925705788623" lon="12.543454278988314"><ele>109.0</ele><time>2026-05-02T08:50:36Z</time></trkpt><trkpt lat="42.559309259768234" lon="12.543332764470103"><ele>109.0</ele><time>2026-05-02T08:50:37Z</time></trkpt><trkpt lat="42.55938682713734" lon="12.543209597234286"><ele>109.0</ele><time>2026-05-02T08:50:38Z</time></trkpt><trkpt lat="42.55947010544391" lon="12.543094628481688"><ele>109.0</ele><time>2026-05-02T08:50:39Z</time></trkpt><trkpt lat="42.5595444537125" lon="12.542981841673482"><ele>109.0</ele><time>2026-05-02T08:50:40Z</time></trkpt><trkpt lat="42.5596091912453" lon="12.542886174654937"><ele>109.0</ele><time>2026-05-02T08:50:41Z</time></trkpt><trkpt lat="42.55967340555983" lon="12.542801856324362"><ele>109.0</ele><time>2026-05-02T08:50:42Z</time></trkpt><trkpt lat="42.55975655022501" lon="12.542731231539868"><ele>108.80000000000001</ele><time>2026-05-02T08:50:43Z</time></trkpt><trkpt lat="42.559849977722884" lon="12.542678383707738"><ele>108.60000000000001</ele><time>2026-05-02T08:50:44Z</time></trkpt><trkpt lat="42.55994369788578" lon="12.542613012305038"><ele>108.4</ele><time>2026-05-02T08:50:45Z</time></trkpt><trkpt lat="42.56001493768477" lon="12.542511574649199"><ele>108.2</ele><time>2026-05-02T08:50:46Z</time></trkpt><trkpt lat="42.56009863382487" lon="12.542421493722175"><ele>108.0</ele><time>2026-05-02T08:50:47Z</time></trkpt><trkpt lat="42.56018028253268" lon="12.542366582826755"><ele>108.0</ele><time>2026-05-02T08:50:48Z</time></trkpt><trkpt lat="42.56024183116341" lon="12.542327892842007"><ele>108.00000000000001</ele><time>2026-05-02T08:50:49Z</time></trkpt><trkpt lat="42.56035827637014" lon="12.542248290908429"><ele>108.00000000000001</ele><time>2026-05-02T08:50:51Z</time></trkpt><trkpt lat="42.56044411138599" lon="12.5422352980202"><ele>108.0</ele><time>2026-05-02T08:50:53Z</time></trkpt><trkpt lat="42.560486034459736" lon="12.54240480353092"><ele>108.0</ele><time>2026-05-02T08:50:55Z</time></trkpt><trkpt lat="42.56052945678531" lon="12.54254193805055"><ele>108.80000000000001</ele><time>2026-05-02T08:50:56Z</time></trkpt><trkpt lat="42.56059137657033" lon="12.542680507933277"><ele>109.60000000000001</ele><time>2026-05-02T08:50:57Z</time></trkpt><trkpt lat="42.56063537948801" lon="12.542816734671256"><ele>110.39999999999999</ele><time>2026-05-02T08:50:58Z</time></trkpt><trkpt lat="42.56068622195154" lon="12.542942240449007"><ele>111.19999999999999</ele><time>2026-05-02T08:50:59Z</time></trkpt><trkpt lat="42.56072262170826" lon="12.543076009085985"><ele>112.0</ele><time>2026-05-02T08:51:00Z</time></trkpt><trkpt lat="42.560752383155105" lon="12.543194705776319"><ele>112.8</ele><time>2026-05-02T08:51:01Z</time></trkpt><trkpt lat="42.56078827834629" lon="12.543314776271558"><ele>113.6</ele><time>2026-05-02T08:51:02Z</time></trkpt><trkpt lat="42.56081967255656" lon="12.543444868640792"><ele>114.39999999999999</ele><time>2026-05-02T08:51:03Z</time></trkpt><trkpt lat="42.56087281391571" lon="12.543562425137422"><ele>115.19999999999999</ele><time>2026-05-02T08:51:04Z</time></trkpt><trkpt lat="42.56091492429376" lon="12.543670983677648"><ele>116.0</ele><time>2026-05-02T08:51:05Z</time></trkpt><trkpt lat="42.56096296632431" lon="12.54377338501873"><ele>116.19999999999999</ele><time>2026-05-02T08:51:06Z</time></trkpt><trkpt lat="42.56100423970429" lon="12.54387136855529"><ele>116.39999999999999</ele><time>2026-05-02T08:51:07Z</time></trkpt><trkpt lat="42.56104769962926" lon="12.543939966437025"><ele>116.6</ele><time>2026-05-02T08:51:08Z</time></trkpt><trkpt lat="42.56111780282635" lon="12.544054374310297"><ele>116.8</ele><time>2026-05-02T08:51:10Z</time></trkpt><trkpt lat="42.561188691718826" lon="12.544069656904782"><ele>117.0</ele><time>2026-05-02T08:51:11Z</time></trkpt><trkpt lat="42.561281058336235" lon="12.543961007806844"><ele>118.0</ele><time>2026-05-02T08:51:12Z</time></trkpt><trkpt lat="42.56136008129395" lon="12.543899219909003"><ele>118.99999999999999</ele><time>2026-05-02T08:51:13Z</time></trkpt><trkpt lat="42.56145916292654" lon="12.543870255213461"><ele>119.99999999999999</ele><time>2026-05-02T08:51:14Z</time></trkpt><trkpt lat="42.56155976770794" lon="12.543862246802542"><ele>121.0</ele><time>2026-05-02T08:51:15Z</time></trkpt><trkpt lat="42.56167117811572" lon="12.543867988358091"><ele>122.0</ele><time>2026-05-02T08:51:16Z</time></trkpt><trkpt lat="42.561789933579355" lon="12.543888870870905"><ele>122.0</ele><time>2026-05-02T08:51:17Z</time></trkpt><trkpt lat="42.56192135955469" lon="12.543886081041842"><ele>122.0</ele><time>2026-05-02T08:51:18Z</time></trkpt><trkpt lat="42.56204795211888" lon="12.543905940148832"><ele>122.0</ele><time>2026-05-02T08:51:19Z</time></trkpt><trkpt lat="42.56215673412628" lon="12.54392800329781"><ele>122.0</ele><time>2026-05-02T08:51:20Z</time></trkpt><trkpt lat="42.562267408553936" lon="12.543943821612423"><ele>122.6</ele><time>2026-05-02T08:51:21Z</time></trkpt><trkpt lat="42.56236283189421" lon="12.543958733430395"><ele>123.19999999999999</ele><time>2026-05-02T08:51:22Z</time></trkpt><trkpt lat="42.56245655914827" lon="12.543956574387899"><ele>123.8</ele><time>2026-05-02T08:51:23Z</time></trkpt><trkpt lat="42.56254553402106" lon="12.54398667168093"><ele>124.4</ele><time>2026-05-02T08:51:24Z</time></trkpt><trkpt lat="42.56263247569439" lon="12.544014983254117"><ele>125.0</ele><time>2026-05-02T08:51:25Z</time></trkpt><trkpt lat="42.56273482933198" lon="12.544046889649204"><ele>125.0</ele><time>2026-05-02T08:51:26Z</time></trkpt><trkpt lat="42.562841333472036" lon="12.54409398904969"><ele>125.0</ele><time>2026-05-02T08:51:27Z</time></trkpt><trkpt lat="42.56294089592982" lon="12.544153227102171"><ele>125.0</ele><time>2026-05-02T08:51:28Z</time></trkpt><trkpt lat="42.56303883591288" lon="12.544204233248538"><ele>125.0</ele><time>2026-05-02T08:51:29Z</time></trkpt><trkpt lat="42.5631547790516" lon="12.544253270200524"><ele>125.0</ele><time>2026-05-02T08:51:30Z</time></trkpt><trkpt lat="42.56326360490801" lon="12.544300479658826"><ele>123.4</ele><time>2026-05-02T08:51:31Z</time></trkpt><trkpt lat="42.56336640301542" lon="12.544346604131869"><ele>121.8</ele><time>2026-05-02T08:51:32Z</time></trkpt><trkpt lat="42.56346492014337" lon="12.544407176846143"><ele>120.19999999999999</ele><time>2026-05-02T08:51:33Z</time></trkpt><trkpt lat="42.56356465354433" lon="12.544442753014998"><ele>118.6</ele><time>2026-05-02T08:51:34Z</time></trkpt><trkpt lat="42.5636652782667" lon="12.544480305958462"><ele>117.0</ele><time>2026-05-02T08:51:35Z</time></trkpt><trkpt lat="42.56375675142998" lon="12.54452284363925"><ele>117.39999999999999</ele><time>2026-05-02T08:51:36Z</time></trkpt><trkpt lat="42.56383993032948" lon="12.544579878615831"><ele>117.79999999999998</ele><time>2026-05-02T08:51:37Z</time></trkpt><trkpt lat="42.56391350609232" lon="12.54461341927862"><ele>118.2</ele><time>2026-05-02T08:51:38Z</time></trkpt><trkpt lat="42.56404305940408" lon="12.544556557334213"><ele>118.6</ele><time>2026-05-02T08:51:40Z</time></trkpt><trkpt lat="42.56410335331866" lon="12.544486714721632"><ele>119.0</ele><time>2026-05-02T08:51:41Z</time></trkpt><trkpt lat="42.564171349556894" lon="12.544403260025804"><ele>117.6</ele><time>2026-05-02T08:51:42Z</time></trkpt><trkpt lat="42.564198912093985" lon="12.544270589601389"><ele>116.2</ele><time>2026-05-02T08:51:43Z</time></trkpt><trkpt lat="42.56426441441754" lon="12.544156939730868"><ele>114.79999999999998</ele><time>2026-05-02T08:51:44Z</time></trkpt><trkpt lat="42.564322992694976" lon="12.544031775956057"><ele>113.39999999999999</ele><time>2026-05-02T08:51:45Z</time></trkpt><trkpt lat="42.564389324962725" lon="12.543904485942003"><ele>112.0</ele><time>2026-05-02T08:51:46Z</time></trkpt><trkpt lat="42.56445629771492" lon="12.543793980695266"><ele>112.19999999999999</ele><time>2026-05-02T08:51:47Z</time></trkpt><trkpt lat="42.56452520188945" lon="12.543706346140954"><ele>112.39999999999999</ele><time>2026-05-02T08:51:48Z</time></trkpt><trkpt lat="42.564602831548974" lon="12.543622744586374"><ele>112.60000000000001</ele><time>2026-05-02T08:51:49Z</time></trkpt><trkpt lat="42.56468134843888" lon="12.543550781252884"><ele>112.80000000000001</ele><time>2026-05-02T08:51:50Z</time></trkpt><trkpt lat="42.56477867017418" lon="12.543549669078304"><ele>113.0</ele><time>2026-05-02T08:51:51Z</time></trkpt><trkpt lat="42.564876217817314" lon="12.5435714930552"><ele>113.0</ele><time>2026-05-02T08:51:52Z</time></trkpt><trkpt lat="42.564977607377074" lon="12.543583604467852"><ele>113.0</ele><time>2026-05-02T08:51:53Z</time></trkpt><trkpt lat="42.565101715090016" lon="12.543580337966103"><ele>113.0</ele><time>2026-05-02T08:51:54Z</time></trkpt><trkpt lat="42.56522320300713" lon="12.543612442810085"><ele>113.0</ele><time>2026-05-02T08:51:55Z</time></trkpt><trkpt lat="42.565345107442454" lon="12.54362552506386"><ele>113.25</ele><time>2026-05-02T08:51:56Z</time></trkpt><trkpt lat="42.56548575944023" lon="12.543631219307656"><ele>113.5</ele><time>2026-05-02T08:51:57Z</time></trkpt><trkpt lat="42.56561734849112" lon="12.543641594155956"><ele>113.75</ele><time>2026-05-02T08:51:58Z</time></trkpt><trkpt lat="42.56573236515605" lon="12.543648025048656"><ele>114.0</ele><time>2026-05-02T08:51:59Z</time></trkpt><trkpt lat="42.565845229860855" lon="12.543639347314594"><ele>114.0</ele><time>2026-05-02T08:52:00Z</time></trkpt><trkpt lat="42.56596166071221" lon="12.543607384732"><ele>114.0</ele><time>2026-05-02T08:52:01Z</time></trkpt><trkpt lat="42.566089608710264" lon="12.543551804137339"><ele>114.0</ele><time>2026-05-02T08:52:02Z</time></trkpt><trkpt lat="42.566211470277466" lon="12.543474660402701"><ele>114.0</ele><time>2026-05-02T08:52:03Z</time></trkpt><trkpt lat="42.566327036501704" lon="12.543411648371967"><ele>114.5</ele><time>2026-05-02T08:52:04Z</time></trkpt><trkpt lat="42.56643503692301" lon="12.543387961359665"><ele>115.0</ele><time>2026-05-02T08:52:05Z</time></trkpt><trkpt lat="42.566566874559115" lon="12.543329533233099"><ele>115.5</ele><time>2026-05-02T08:52:06Z</time></trkpt><trkpt lat="42.56672072505894" lon="12.543305201804847"><ele>116.0</ele><time>2026-05-02T08:52:07Z</time></trkpt><trkpt lat="42.56687250122309" lon="12.543269424473005"><ele>116.0</ele><time>2026-05-02T08:52:08Z</time></trkpt><trkpt lat="42.56700694774614" lon="12.54322013198557"><ele>116.0</ele><time>2026-05-02T08:52:09Z</time></trkpt><trkpt lat="42.567155650021085" lon="12.54315007025104"><ele>116.0</ele><time>2026-05-02T08:52:10Z</time></trkpt><trkpt lat="42.56730958557896" lon="12.543067989806591"><ele>116.33333333333333</ele><time>2026-05-02T08:52:11Z</time></trkpt><trkpt lat="42.567455404416954" lon="12.542992059062112"><ele>116.66666666666666</ele><time>2026-05-02T08:52:12Z</time></trkpt><trkpt lat="42.567594711253875" lon="12.542903169518826"><ele>117.0</ele><time>2026-05-02T08:52:13Z</time></trkpt><trkpt lat="42.56773045756063" lon="12.542848791098054"><ele>117.0</ele><time>2026-05-02T08:52:14Z</time></trkpt><trkpt lat="42.56785058351773" lon="12.542778865908856"><ele>117.0</ele><time>2026-05-02T08:52:15Z</time></trkpt><trkpt lat="42.568002193499275" lon="12.542768212804676"><ele>117.0</ele><time>2026-05-02T08:52:16Z</time></trkpt><trkpt lat="42.568139607404554" lon="12.542722657092831"><ele>117.0</ele><time>2026-05-02T08:52:17Z</time></trkpt><trkpt lat="42.5682601140018" lon="12.542694243579414"><ele>116.75</ele><time>2026-05-02T08:52:18Z</time></trkpt><trkpt lat="42.56837955265307" lon="12.542648509166655"><ele>116.5</ele><time>2026-05-02T08:52:19Z</time></trkpt><trkpt lat="42.568510075685296" lon="12.542585652446974"><ele>116.25</ele><time>2026-05-02T08:52:20Z</time></trkpt><trkpt lat="42.568633677836026" lon="12.542520475005382"><ele>116.0</ele><time>2026-05-02T08:52:21Z</time></trkpt><trkpt lat="42.56876054745054" lon="12.542461890125454"><ele>115.75</ele><time>2026-05-02T08:52:22Z</time></trkpt><trkpt lat="42.56886339134173" lon="12.542368086955006"><ele>115.5</ele><time>2026-05-02T08:52:23Z</time></trkpt><trkpt lat="42.56896215758662" lon="12.542266727931521"><ele>115.25</ele><time>2026-05-02T08:52:24Z</time></trkpt><trkpt lat="42.56908912618121" lon="12.542159729960883"><ele>115.0</ele><time>2026-05-02T08:52:25Z</time></trkpt><trkpt lat="42.56920090232661" lon="12.542036915429053"><ele>115.0</ele><time>2026-05-02T08:52:26Z</time></trkpt><trkpt lat="42.569305406661805" lon="12.541916160999575"><ele>115.0</ele><time>2026-05-02T08:52:27Z</time></trkpt><trkpt lat="42.569390151256584" lon="12.54180769019584"><ele>115.0</ele><time>2026-05-02T08:52:28Z</time></trkpt><trkpt lat="42.56947730308635" lon="12.541700224910466"><ele>115.0</ele><time>2026-05-02T08:52:29Z</time></trkpt><trkpt lat="42.56957518885352" lon="12.541575919038715"><ele>115.4</ele><time>2026-05-02T08:52:30Z</time></trkpt><trkpt lat="42.56966575625175" lon="12.541454222446097"><ele>115.8</ele><time>2026-05-02T08:52:31Z</time></trkpt><trkpt lat="42.56975745248885" lon="12.54135708232162"><ele>116.19999999999999</ele><time>2026-05-02T08:52:32Z</time></trkpt><trkpt lat="42.569826401913886" lon="12.541244670003014"><ele>116.6</ele><time>2026-05-02T08:52:33Z</time></trkpt><trkpt lat="42.569893614792456" lon="12.541154600193998"><ele>117.0</ele><time>2026-05-02T08:52:34Z</time></trkpt><trkpt lat="42.56995638377634" lon="12.541027763062587"><ele>117.0</ele><time>2026-05-02T08:52:35Z</time></trkpt><trkpt lat="42.570003063337154" lon="12.540873649040964"><ele>117.0</ele><time>2026-05-02T08:52:36Z</time></trkpt><trkpt lat="42.57004735081413" lon="12.540680249991794"><ele>117.0</ele><time>2026-05-02T08:52:37Z</time></trkpt><trkpt lat="42.57008504104196" lon="12.540493904295257"><ele>117.0</ele><time>2026-05-02T08:52:38Z</time></trkpt><trkpt lat="42.570120255186794" lon="12.540292155623908"><ele>117.0</ele><time>2026-05-02T08:52:39Z</time></trkpt><trkpt lat="42.57016616931862" lon="12.540109241446215"><ele>117.0</ele><time>2026-05-02T08:52:40Z</time></trkpt><trkpt lat="42.57019541122158" lon="12.539951118651635"><ele>117.0</ele><time>2026-05-02T08:52:41Z</time></trkpt><trkpt lat="42.57021753555649" lon="12.539811854651843"><ele>117.0</ele><time>2026-05-02T08:52:42Z</time></trkpt><trkpt lat="42.57024419751291" lon="12.539653570617599"><ele>117.25</ele><time>2026-05-02T08:52:43Z</time></trkpt><trkpt lat="42.57025998774002" lon="12.539489812486686"><ele>117.5</ele><time>2026-05-02T08:52:44Z</time></trkpt><trkpt lat="42.57027580442992" lon="12.539329197011465"><ele>117.75</ele><time>2026-05-02T08:52:45Z</time></trkpt><trkpt lat="42.570283563931035" lon="12.539173672718304"><ele>118.0</ele><time>2026-05-02T08:52:46Z</time></trkpt><trkpt lat="42.57029470176531" lon="12.539026730313179"><ele>118.00000000000001</ele><time>2026-05-02T08:52:47Z</time></trkpt><trkpt lat="42.57030891587174" lon="12.538879632212968"><ele>118.0</ele><time>2026-05-02T08:52:48Z</time></trkpt><trkpt lat="42.57032117716043" lon="12.538753036545259"><ele>118.0</ele><time>2026-05-02T08:52:49Z</time></trkpt><trkpt lat="42.5703369151822" lon="12.538627905521473"><ele>118.0</ele><time>2026-05-02T08:52:50Z</time></trkpt><trkpt lat="42.570364108246004" lon="12.538549269357631"><ele>118.00000000000001</ele><time>2026-05-02T08:52:51Z</time></trkpt><trkpt lat="42.57042321145491" lon="12.538509482339288"><ele>118.0</ele><time>2026-05-02T08:52:52Z</time></trkpt><trkpt lat="42.570486563004444" lon="12.5384890291441"><ele>118.60000000000001</ele><time>2026-05-02T08:52:53Z</time></trkpt><trkpt lat="42.570561727783826" lon="12.53850691563036"><ele>119.20000000000002</ele><time>2026-05-02T08:52:54Z</time></trkpt><trkpt lat="42.57065055512141" lon="12.538530817871733"><ele>119.8</ele><time>2026-05-02T08:52:55Z</time></trkpt><trkpt lat="42.57077041777374" lon="12.538541483413542"><ele>120.4</ele><time>2026-05-02T08:52:56Z</time></trkpt><trkpt lat="42.570897629305776" lon="12.538579685312554"><ele>121.0</ele><time>2026-05-02T08:52:57Z</time></trkpt><trkpt lat="42.571028129298156" lon="12.538615337877337"><ele>121.0</ele><time>2026-05-02T08:52:58Z</time></trkpt><trkpt lat="42.57116688797602" lon="12.538636836703994"><ele>121.0</ele><time>2026-05-02T08:52:59Z</time></trkpt><trkpt lat="42.57129657777841" lon="12.538667645157547"><ele>121.0</ele><time>2026-05-02T08:53:00Z</time></trkpt><trkpt lat="42.57140939240437" lon="12.538690552496606"><ele>121.0</ele><time>2026-05-02T08:53:01Z</time></trkpt><trkpt lat="42.57151380066704" lon="12.53869272302404"><ele>121.00000000000001</ele><time>2026-05-02T08:53:02Z</time></trkpt><trkpt lat="42.57160227306675" lon="12.538696514206455"><ele>121.0</ele><time>2026-05-02T08:53:03Z</time></trkpt><trkpt lat="42.57169134107321" lon="12.53871261907358"><ele>121.0</ele><time>2026-05-02T08:53:04Z</time></trkpt><trkpt lat="42.571762524965536" lon="12.538737867130989"><ele>121.0</ele><time>2026-05-02T08:53:05Z</time></trkpt><trkpt lat="42.57183121556917" lon="12.53876015867918"><ele>121.00000000000001</ele><time>2026-05-02T08:53:06Z</time></trkpt><trkpt lat="42.57190054605767" lon="12.538739253764705"><ele>121.0</ele><time>2026-05-02T08:53:09Z</time></trkpt><trkpt lat="42.57182240652024" lon="12.538605229402641"><ele>121.19999999999999</ele><time>2026-05-02T08:53:35Z</time></trkpt><trkpt lat="42.571732328792415" lon="12.538587195944583"><ele>121.39999999999999</ele><time>2026-05-02T08:53:36Z</time></trkpt><trkpt lat="42.57163297867396" lon="12.538555372601094"><ele>121.6</ele><time>2026-05-02T08:53:37Z</time></trkpt><trkpt lat="42.571536320548205" lon="12.53852168985114"><ele>121.8</ele><time>2026-05-02T08:53:38Z</time></trkpt><trkpt lat="42.57142623185415" lon="12.538493650947236"><ele>122.0</ele><time>2026-05-02T08:53:39Z</time></trkpt><trkpt lat="42.571299932064086" lon="12.538470651378839"><ele>121.75</ele><time>2026-05-02T08:53:40Z</time></trkpt><trkpt lat="42.57116064610393" lon="12.538441248661874"><ele>121.5</ele><time>2026-05-02T08:53:41Z</time></trkpt><trkpt lat="42.571012428907665" lon="12.538404763174256"><ele>121.25</ele><time>2026-05-02T08:53:42Z</time></trkpt><trkpt lat="42.57087646042181" lon="12.538371903189661"><ele>121.0</ele><time>2026-05-02T08:53:43Z</time></trkpt><trkpt lat="42.57073673763524" lon="12.538348020155018"><ele>121.0</ele><time>2026-05-02T08:53:44Z</time></trkpt><trkpt lat="42.57060790656946" lon="12.538318288202221"><ele>121.0</ele><time>2026-05-02T08:53:45Z</time></trkpt><trkpt lat="42.570492229408664" lon="12.53828913030547"><ele>121.0</ele><time>2026-05-02T08:53:46Z</time></trkpt><trkpt lat="42.57038835392457" lon="12.538261549161865"><ele>121.0</ele><time>2026-05-02T08:53:47Z</time></trkpt><trkpt lat="42.57027877674409" lon="12.538243267978823"><ele>120.75</ele><time>2026-05-02T08:53:48Z</time></trkpt><trkpt lat="42.57016397920061" lon="12.538225198116667"><ele>120.5</ele><time>2026-05-02T08:53:49Z</time></trkpt><trkpt lat="42.57004743016335" lon="12.538205758384246"><ele>120.25</ele><time>2026-05-02T08:53:50Z</time></trkpt><trkpt lat="42.56992106303498" lon="12.538186736143206"><ele>120.0</ele><time>2026-05-02T08:53:51Z</time></trkpt><trkpt lat="42.56979577273278" lon="12.538163586391262"><ele>120.0</ele><time>2026-05-02T08:53:52Z</time></trkpt><trkpt lat="42.5696774294685" lon="12.538138711171142"><ele>120.0</ele><time>2026-05-02T08:53:53Z</time></trkpt><trkpt lat="42.56955395878709" lon="12.53811199705015"><ele>120.0</ele><time>2026-05-02T08:53:54Z</time></trkpt><trkpt lat="42.56942280118007" lon="12.538083248549263"><ele>120.0</ele><time>2026-05-02T08:53:55Z</time></trkpt><trkpt lat="42.56928906146703" lon="12.538058220279781"><ele>120.75</ele><time>2026-05-02T08:53:56Z</time></trkpt><trkpt lat="42.56915233392927" lon="12.538031839778826"><ele>121.5</ele><time>2026-05-02T08:53:57Z</time></trkpt><trkpt lat="42.56901852928465" lon="12.538003916921317"><ele>122.25</ele><time>2026-05-02T08:53:58Z</time></trkpt><trkpt lat="42.56888393789312" lon="12.537972228328409"><ele>123.0</ele><time>2026-05-02T08:53:59Z</time></trkpt><trkpt lat="42.56874685916097" lon="12.537942410738035"><ele>123.0</ele><time>2026-05-02T08:54:00Z</time></trkpt><trkpt lat="42.56861125022528" lon="12.537913898381412"><ele>123.0</ele><time>2026-05-02T08:54:01Z</time></trkpt><trkpt lat="42.56847607934695" lon="12.537881608024911"><ele>123.0</ele><time>2026-05-02T08:54:02Z</time></trkpt><trkpt lat="42.56834082224485" lon="12.537848342017536"><ele>123.0</ele><time>2026-05-02T08:54:03Z</time></trkpt><trkpt lat="42.568201529578396" lon="12.53781915389378"><ele>124.25</ele><time>2026-05-02T08:54:04Z</time></trkpt><trkpt lat="42.568077631085245" lon="12.537797009686624"><ele>125.5</ele><time>2026-05-02T08:54:05Z</time></trkpt><trkpt lat="42.56794712839589" lon="12.537770063032548"><ele>126.75</ele><time>2026-05-02T08:54:06Z</time></trkpt><trkpt lat="42.56783599940749" lon="12.537740298664009"><ele>128.0</ele><time>2026-05-02T08:54:07Z</time></trkpt><trkpt lat="42.5677376118575" lon="12.537717062111788"><ele>128.20000000000002</ele><time>2026-05-02T08:54:08Z</time></trkpt><trkpt lat="42.56764549572145" lon="12.537702419746173"><ele>128.4</ele><time>2026-05-02T08:54:09Z</time></trkpt><trkpt lat="42.56756705165107" lon="12.537693021815276"><ele>128.60000000000002</ele><time>2026-05-02T08:54:10Z</time></trkpt><trkpt lat="42.56750412387797" lon="12.537684346076396"><ele>128.8</ele><time>2026-05-02T08:54:11Z</time></trkpt><trkpt lat="42.567442819714294" lon="12.537629050768516"><ele>129.0</ele><time>2026-05-02T08:54:14Z</time></trkpt><trkpt lat="42.56747224212975" lon="12.537424352762367"><ele>129.0</ele><time>2026-05-02T08:54:32Z</time></trkpt><trkpt lat="42.56746615251385" lon="12.537316389261468"><ele>129.0</ele><time>2026-05-02T08:54:33Z</time></trkpt><trkpt lat="42.56746462424067" lon="12.537205258554675"><ele>129.0</ele><time>2026-05-02T08:54:34Z</time></trkpt><trkpt lat="42.56746046972502" lon="12.537082098860433"><ele>129.0</ele><time>2026-05-02T08:54:35Z</time></trkpt><trkpt lat="42.5674564385943" lon="12.536964859238356"><ele>129.0</ele><time>2026-05-02T08:54:36Z</time></trkpt><trkpt lat="42.567448668727934" lon="12.536846769579718"><ele>129.0</ele><time>2026-05-02T08:54:37Z</time></trkpt><trkpt lat="42.567443575135734" lon="12.536733185223165"><ele>129.16666666666666</ele><time>2026-05-02T08:54:38Z</time></trkpt><trkpt lat="42.5674382531896" lon="12.536613551635874"><ele>129.33333333333334</ele><time>2026-05-02T08:54:39Z</time></trkpt><trkpt lat="42.567432725174164" lon="12.536491473152221"><ele>129.5</ele><time>2026-05-02T08:54:40Z</time></trkpt><trkpt lat="42.56742903568393" lon="12.536404715500607"><ele>129.66666666666669</ele><time>2026-05-02T08:54:41Z</time></trkpt><trkpt lat="42.5674458685465" lon="12.5363170406531"><ele>129.83333333333334</ele><time>2026-05-02T08:54:42Z</time></trkpt><trkpt lat="42.56745952178888" lon="12.536169759117177"><ele>130.0</ele><time>2026-05-02T08:54:44Z</time></trkpt><trkpt lat="42.56755694007623" lon="12.536113197317356"><ele>130.5</ele><time>2026-05-02T08:54:46Z</time></trkpt><trkpt lat="42.56762685047821" lon="12.536145982594537"><ele>131.0</ele><time>2026-05-02T08:54:47Z</time></trkpt><trkpt lat="42.56771487524403" lon="12.536124708388138"><ele>131.5</ele><time>2026-05-02T08:54:48Z</time></trkpt><trkpt lat="42.567793277561975" lon="12.536137822105182"><ele>132.0</ele><time>2026-05-02T08:54:49Z</time></trkpt><trkpt lat="42.56786924933893" lon="12.536140459692263"><ele>132.5</ele><time>2026-05-02T08:54:50Z</time></trkpt><trkpt lat="42.567991862151445" lon="12.53614818999259"><ele>133.0</ele><time>2026-05-02T08:54:52Z</time></trkpt><trkpt lat="42.56805229729212" lon="12.536182255091461"><ele>133.0</ele><time>2026-05-02T08:54:55Z</time></trkpt><trkpt lat="42.568087957192205" lon="12.536254246289843"><ele>133.0</ele><time>2026-05-02T08:54:58Z</time></trkpt><trkpt lat="42.56801698651889" lon="12.536166078957871"><ele>133.0</ele><time>2026-05-02T08:55:11Z</time></trkpt><trkpt lat="42.56790660452153" lon="12.536317734755183"><ele>133.0</ele><time>2026-05-02T08:55:12Z</time></trkpt><trkpt lat="42.567818949652334" lon="12.536119853637889"><ele>133.0</ele><time>2026-05-02T08:55:13Z</time></trkpt><trkpt lat="42.56774513575839" lon="12.53612412251645"><ele>133.0</ele><time>2026-05-02T08:55:13.999Z</time></trkpt><trkpt lat="42.56767531761756" lon="12.536127308892414"><ele>133.0</ele><time>2026-05-02T08:55:14.999Z</time></trkpt><trkpt lat="42.56760684847926" lon="12.53612897190366"><ele>133.0</ele><time>2026-05-02T08:55:15.999Z</time></trkpt><trkpt lat="42.5675199403013" lon="12.536151357915742"><ele>133.0</ele><time>2026-05-02T08:55:17.999Z</time></trkpt><trkpt lat="42.567447663988325" lon="12.536182270654574"><ele>133.0</ele><time>2026-05-02T08:55:21.999Z</time></trkpt><trkpt lat="42.5674187054555" lon="12.536075491775481"><ele>133.0</ele><time>2026-05-02T08:55:30Z</time></trkpt><trkpt lat="42.567503581927326" lon="12.535949716166078"><ele>133.0</ele><time>2026-05-02T08:55:32Z</time></trkpt><trkpt lat="42.56758024163859" lon="12.535925166565582"><ele>133.0</ele><time>2026-05-02T08:55:34Z</time></trkpt><trkpt lat="42.5675354429505" lon="12.535774839410637"><ele>133.0</ele><time>2026-05-02T08:55:35Z</time></trkpt><trkpt lat="42.56755545630118" lon="12.535664991391478"><ele>133.0</ele><time>2026-05-02T08:55:37Z</time></trkpt><trkpt lat="42.56741599605861" lon="12.535536211928504"><ele>133.0</ele><time>2026-05-02T08:55:38Z</time></trkpt><trkpt lat="42.567408267530716" lon="12.535389860374194"><ele>133.0</ele><time>2026-05-02T08:55:40Z</time></trkpt><trkpt lat="42.56740188282804" lon="12.535268530440604"><ele>133.0</ele><time>2026-05-02T08:55:42Z</time></trkpt><trkpt lat="42.56739874988825" lon="12.535143748862877"><ele>133.0</ele><time>2026-05-02T08:55:44Z</time></trkpt><trkpt lat="42.56739466248911" lon="12.535029755555925"><ele>133.0</ele><time>2026-05-02T08:55:46Z</time></trkpt><trkpt lat="42.56738720893419" lon="12.534896775508665"><ele>133.0</ele><time>2026-05-02T08:55:48Z</time></trkpt><trkpt lat="42.56738028314947" lon="12.534769191507701"><ele>133.0</ele><time>2026-05-02T08:55:50Z</time></trkpt><trkpt lat="42.567376107216575" lon="12.534634299132605"><ele>133.0</ele><time>2026-05-02T08:55:52Z</time></trkpt><trkpt lat="42.5673693922972" lon="12.534485861073067"><ele>133.0</ele><time>2026-05-02T08:55:54Z</time></trkpt><trkpt lat="42.567363018252195" lon="12.534361809773815"><ele>133.0</ele><time>2026-05-02T08:55:56Z</time></trkpt><trkpt lat="42.56735679776251" lon="12.53422644823537"><ele>133.0</ele><time>2026-05-02T08:55:58Z</time></trkpt><trkpt lat="42.56735072969607" lon="12.53408113581341"><ele>133.0</ele><time>2026-05-02T08:56:00Z</time></trkpt><trkpt lat="42.567345817645716" lon="12.533937834253498"><ele>133.0</ele><time>2026-05-02T08:56:02Z</time></trkpt><trkpt lat="42.56733758042781" lon="12.53384515838668"><ele>133.0</ele><time>2026-05-02T08:56:05Z</time></trkpt><trkpt lat="42.56733675260639" lon="12.533746816767538"><ele>133.0</ele><time>2026-05-02T08:56:07Z</time></trkpt><trkpt lat="42.567331933494096" lon="12.533615509025125"><ele>133.4</ele><time>2026-05-02T08:56:09Z</time></trkpt><trkpt lat="42.567322359985475" lon="12.533465546160052"><ele>133.8</ele><time>2026-05-02T08:56:11Z</time></trkpt><trkpt lat="42.56731695190559" lon="12.533343140623941"><ele>134.2</ele><time>2026-05-02T08:56:13Z</time></trkpt><trkpt lat="42.56731350318879" lon="12.53324818923935"><ele>134.6</ele><time>2026-05-02T08:56:15Z</time></trkpt><trkpt lat="42.56729911776035" lon="12.533160376660502"><ele>135.0</ele><time>2026-05-02T08:56:59Z</time></trkpt><trkpt lat="42.56739785644177" lon="12.533057091179671"><ele>135.0</ele><time>2026-05-02T08:57:02Z</time></trkpt><trkpt lat="42.567493360425296" lon="12.533092126315632"><ele>135.0</ele><time>2026-05-02T08:57:03Z</time></trkpt><trkpt lat="42.56757417896364" lon="12.533058323746578"><ele>135.0</ele><time>2026-05-02T08:57:04Z</time></trkpt><trkpt lat="42.56766074934126" lon="12.533023393753721"><ele>135.0</ele><time>2026-05-02T08:57:05Z</time></trkpt><trkpt lat="42.56776043471587" lon="12.532983172123416"><ele>135.0</ele><time>2026-05-02T08:57:06Z</time></trkpt><trkpt lat="42.56786424513928" lon="12.532941286119259"><ele>135.0</ele><time>2026-05-02T08:57:07Z</time></trkpt><trkpt lat="42.56797377602394" lon="12.532897091975881"><ele>135.0</ele><time>2026-05-02T08:57:08Z</time></trkpt><trkpt lat="42.56808247377257" lon="12.532853233977084"><ele>135.0</ele><time>2026-05-02T08:57:09Z</time></trkpt><trkpt lat="42.56818282369908" lon="12.532812744244087"><ele>135.0</ele><time>2026-05-02T08:57:10Z</time></trkpt><trkpt lat="42.56828203754036" lon="12.532772712829498"><ele>135.0</ele><time>2026-05-02T08:57:11Z</time></trkpt><trkpt lat="42.56839157198915" lon="12.532728517254899"><ele>134.75</ele><time>2026-05-02T08:57:12Z</time></trkpt><trkpt lat="42.568507263099" lon="12.53268129772238"><ele>134.5</ele><time>2026-05-02T08:57:13Z</time></trkpt><trkpt lat="42.5686178092162" lon="12.532613494365098"><ele>134.25</ele><time>2026-05-02T08:57:14Z</time></trkpt><trkpt lat="42.56874063208701" lon="12.53256523261915"><ele>134.0</ele><time>2026-05-02T08:57:15Z</time></trkpt><trkpt lat="42.568849867654826" lon="12.5325262940264"><ele>134.33333333333331</ele><time>2026-05-02T08:57:16Z</time></trkpt><trkpt lat="42.56894476866538" lon="12.532481043613968"><ele>134.66666666666666</ele><time>2026-05-02T08:57:17Z</time></trkpt><trkpt lat="42.56902976074332" lon="12.532450441899794"><ele>135.0</ele><time>2026-05-02T08:57:18Z</time></trkpt><trkpt lat="42.56910396294055" lon="12.532415139793759"><ele>135.33333333333334</ele><time>2026-05-02T08:57:19Z</time></trkpt><trkpt lat="42.5691770054382" lon="12.5323838633809"><ele>135.66666666666669</ele><time>2026-05-02T08:57:20Z</time></trkpt><trkpt lat="42.569254757628734" lon="12.532375189269217"><ele>136.0</ele><time>2026-05-02T08:57:20.999Z</time></trkpt><trkpt lat="42.569336693492446" lon="12.532318514154985"><ele>136.0</ele><time>2026-05-02T08:57:21.999Z</time></trkpt><trkpt lat="42.56943569874929" lon="12.532279511051584"><ele>136.0</ele><time>2026-05-02T08:57:22.999Z</time></trkpt><trkpt lat="42.56954783055801" lon="12.532233310138315"><ele>136.0</ele><time>2026-05-02T08:57:23.999Z</time></trkpt><trkpt lat="42.56967116017457" lon="12.532180990587573"><ele>136.0</ele><time>2026-05-02T08:57:24.999Z</time></trkpt><trkpt lat="42.569794061449194" lon="12.532125870155387"><ele>136.0</ele><time>2026-05-02T08:57:25.999Z</time></trkpt><trkpt lat="42.56992804852638" lon="12.532073566579484"><ele>136.0</ele><time>2026-05-02T08:57:26.999Z</time></trkpt><trkpt lat="42.57005966032273" lon="12.532009871312496"><ele>136.0</ele><time>2026-05-02T08:57:27.999Z</time></trkpt><trkpt lat="42.570205909383496" lon="12.531951112730683"><ele>136.0</ele><time>2026-05-02T08:57:28.999Z</time></trkpt><trkpt lat="42.5703464192576" lon="12.531884361599648"><ele>136.5</ele><time>2026-05-02T08:57:29.999Z</time></trkpt><trkpt lat="42.570481861386966" lon="12.5318330388711"><ele>137.0</ele><time>2026-05-02T08:57:30.999Z</time></trkpt><trkpt lat="42.570627944588686" lon="12.531787175705933"><ele>137.5</ele><time>2026-05-02T08:57:31.999Z</time></trkpt><trkpt lat="42.57075847117408" lon="12.531693650960753"><ele>138.0</ele><time>2026-05-02T08:57:32.999Z</time></trkpt><trkpt lat="42.570894708325646" lon="12.531627343965557"><ele>138.0</ele><time>2026-05-02T08:57:33.999Z</time></trkpt><trkpt lat="42.57102714880207" lon="12.531546710428309"><ele>138.0</ele><time>2026-05-02T08:57:34.999Z</time></trkpt><trkpt lat="42.57115957479037" lon="12.53150130951097"><ele>138.0</ele><time>2026-05-02T08:57:36Z</time></trkpt><trkpt lat="42.57127070681593" lon="12.531433810532901"><ele>138.0</ele><time>2026-05-02T08:57:37Z</time></trkpt><trkpt lat="42.5713998131585" lon="12.531396704888369"><ele>138.0</ele><time>2026-05-02T08:57:38Z</time></trkpt><trkpt lat="42.571532940266046" lon="12.531354558209767"><ele>138.0</ele><time>2026-05-02T08:57:39Z</time></trkpt><trkpt lat="42.571667668485155" lon="12.531320901675858"><ele>138.0</ele><time>2026-05-02T08:57:40Z</time></trkpt><trkpt lat="42.57179533717468" lon="12.53129682841635"><ele>138.0</ele><time>2026-05-02T08:57:41Z</time></trkpt><trkpt lat="42.571910921266756" lon="12.531275210259313"><ele>138.0</ele><time>2026-05-02T08:57:42Z</time></trkpt><trkpt lat="42.5720179337356" lon="12.531248663939085"><ele>138.0</ele><time>2026-05-02T08:57:43Z</time></trkpt><trkpt lat="42.572137388512175" lon="12.531213209290945"><ele>138.0</ele><time>2026-05-02T08:57:44Z</time></trkpt><trkpt lat="42.57226480568147" lon="12.53117082871219"><ele>138.0</ele><time>2026-05-02T08:57:45Z</time></trkpt><trkpt lat="42.57238847813095" lon="12.531125221308796"><ele>138.25</ele><time>2026-05-02T08:57:46Z</time></trkpt><trkpt lat="42.57249731301444" lon="12.531071425665504"><ele>138.5</ele><time>2026-05-02T08:57:47Z</time></trkpt><trkpt lat="42.572599982909296" lon="12.531002342122127"><ele>138.75</ele><time>2026-05-02T08:57:48Z</time></trkpt><trkpt lat="42.57270286170247" lon="12.530929578181352"><ele>139.0</ele><time>2026-05-02T08:57:49Z</time></trkpt><trkpt lat="42.572813672108" lon="12.530859035494187"><ele>138.75</ele><time>2026-05-02T08:57:50Z</time></trkpt><trkpt lat="42.57293719236615" lon="12.530775404548935"><ele>138.5</ele><time>2026-05-02T08:57:51Z</time></trkpt><trkpt lat="42.57305024994041" lon="12.53069203659007"><ele>138.25</ele><time>2026-05-02T08:57:52Z</time></trkpt><trkpt lat="42.57315349189478" lon="12.530624882865117"><ele>138.0</ele><time>2026-05-02T08:57:53Z</time></trkpt><trkpt lat="42.573254970446406" lon="12.530566684653033"><ele>138.0</ele><time>2026-05-02T08:57:54Z</time></trkpt><trkpt lat="42.57335946914811" lon="12.530519556258241"><ele>138.0</ele><time>2026-05-02T08:57:55Z</time></trkpt><trkpt lat="42.573471089404606" lon="12.530481648174733"><ele>138.0</ele><time>2026-05-02T08:57:56Z</time></trkpt><trkpt lat="42.57359833080414" lon="12.530473661786921"><ele>138.0</ele><time>2026-05-02T08:57:57Z</time></trkpt><trkpt lat="42.57372722322517" lon="12.530424911447136"><ele>138.0</ele><time>2026-05-02T08:57:58Z</time></trkpt><trkpt lat="42.57387259355487" lon="12.530416555402008"><ele>138.0</ele><time>2026-05-02T08:57:59Z</time></trkpt><trkpt lat="42.57400615136647" lon="12.53038929422165"><ele>138.0</ele><time>2026-05-02T08:58:00Z</time></trkpt><trkpt lat="42.57411775153359" lon="12.530345540441488"><ele>138.0</ele><time>2026-05-02T08:58:01Z</time></trkpt><trkpt lat="42.57422447512047" lon="12.530327612348225"><ele>138.0</ele><time>2026-05-02T08:58:02Z</time></trkpt><trkpt lat="42.574327199540576" lon="12.530312915344807"><ele>138.0</ele><time>2026-05-02T08:58:03Z</time></trkpt><trkpt lat="42.574432199243184" lon="12.530289407416973"><ele>138.0</ele><time>2026-05-02T08:58:04Z</time></trkpt><trkpt lat="42.57454459328163" lon="12.530269198780042"><ele>138.0</ele><time>2026-05-02T08:58:05Z</time></trkpt><trkpt lat="42.574663958136085" lon="12.530270541193609"><ele>138.0</ele><time>2026-05-02T08:58:06Z</time></trkpt><trkpt lat="42.574767924323936" lon="12.530251564439078"><ele>137.6</ele><time>2026-05-02T08:58:07Z</time></trkpt><trkpt lat="42.574872060001006" lon="12.53021148672265"><ele>137.20000000000002</ele><time>2026-05-02T08:58:08Z</time></trkpt><trkpt lat="42.57497613151094" lon="12.530192413329354"><ele>136.8</ele><time>2026-05-02T08:58:09Z</time></trkpt><trkpt lat="42.57508382159981" lon="12.53019280219859"><ele>136.4</ele><time>2026-05-02T08:58:10Z</time></trkpt><trkpt lat="42.57518642056354" lon="12.530152535157034"><ele>136.0</ele><time>2026-05-02T08:58:11Z</time></trkpt><trkpt lat="42.57527776400971" lon="12.530131095052312"><ele>135.2</ele><time>2026-05-02T08:58:12Z</time></trkpt><trkpt lat="42.5753660971374" lon="12.530109511155464"><ele>134.39999999999998</ele><time>2026-05-02T08:58:13Z</time></trkpt><trkpt lat="42.57544447909261" lon="12.530066191409658"><ele>133.6</ele><time>2026-05-02T08:58:14Z</time></trkpt><trkpt lat="42.57552517647398" lon="12.5300145678431"><ele>132.79999999999998</ele><time>2026-05-02T08:58:15Z</time></trkpt><trkpt lat="42.57560169535351" lon="12.529946376801442"><ele>132.0</ele><time>2026-05-02T08:58:16Z</time></trkpt><trkpt lat="42.57567274848504" lon="12.529857062963613"><ele>132.0</ele><time>2026-05-02T08:58:17Z</time></trkpt><trkpt lat="42.57575689677814" lon="12.52979443631206"><ele>132.0</ele><time>2026-05-02T08:58:18Z</time></trkpt><trkpt lat="42.57582084708226" lon="12.529734173794214"><ele>132.0</ele><time>2026-05-02T08:58:19Z</time></trkpt><trkpt lat="42.57589278720288" lon="12.52967586026052"><ele>132.0</ele><time>2026-05-02T08:58:20Z</time></trkpt><trkpt lat="42.57597707240438" lon="12.529657564501061"><ele>132.0</ele><time>2026-05-02T08:58:21Z</time></trkpt><trkpt lat="42.57607153320101" lon="12.529629399198662"><ele>132.0</ele><time>2026-05-02T08:58:22Z</time></trkpt><trkpt lat="42.57614563335174" lon="12.529611625702183"><ele>131.66666666666666</ele><time>2026-05-02T08:58:23Z</time></trkpt><trkpt lat="42.57622237324279" lon="12.529590389046506"><ele>131.33333333333334</ele><time>2026-05-02T08:58:24Z</time></trkpt><trkpt lat="42.57630376015311" lon="12.529552784854811"><ele>131.0</ele><time>2026-05-02T08:58:25Z</time></trkpt><trkpt lat="42.57637617180454" lon="12.529489870317867"><ele>130.66666666666669</ele><time>2026-05-02T08:58:26Z</time></trkpt><trkpt lat="42.576448687033746" lon="12.529408539298016"><ele>130.33333333333334</ele><time>2026-05-02T08:58:27Z</time></trkpt><trkpt lat="42.576507226025214" lon="12.52934616575066"><ele>130.0</ele><time>2026-05-02T08:58:28Z</time></trkpt><trkpt lat="42.57655678381302" lon="12.529255835211098"><ele>130.6</ele><time>2026-05-02T08:58:29Z</time></trkpt><trkpt lat="42.576632928376284" lon="12.529177358404016"><ele>131.2</ele><time>2026-05-02T08:58:30Z</time></trkpt><trkpt lat="42.57670019669625" lon="12.529070609110033"><ele>131.8</ele><time>2026-05-02T08:58:31Z</time></trkpt><trkpt lat="42.57675245042156" lon="12.52893435089799"><ele>132.4</ele><time>2026-05-02T08:58:32Z</time></trkpt><trkpt lat="42.576831594625375" lon="12.528827204610376"><ele>133.0</ele><time>2026-05-02T08:58:33Z</time></trkpt><trkpt lat="42.57690433194754" lon="12.528711558801147"><ele>133.0</ele><time>2026-05-02T08:58:34Z</time></trkpt><trkpt lat="42.57696896338392" lon="12.528610243107279"><ele>133.0</ele><time>2026-05-02T08:58:35Z</time></trkpt><trkpt lat="42.57704104547537" lon="12.528497247819653"><ele>133.0</ele><time>2026-05-02T08:58:36Z</time></trkpt><trkpt lat="42.57710980121482" lon="12.528389466926997"><ele>133.0</ele><time>2026-05-02T08:58:37Z</time></trkpt><trkpt lat="42.57718640749642" lon="12.528269379559983"><ele>133.0</ele><time>2026-05-02T08:58:38Z</time></trkpt><trkpt lat="42.577274290330934" lon="12.52813566501968"><ele>133.75</ele><time>2026-05-02T08:58:39Z</time></trkpt><trkpt lat="42.57737061447398" lon="12.527997462285239"><ele>134.5</ele><time>2026-05-02T08:58:40Z</time></trkpt><trkpt lat="42.577455369803246" lon="12.52788457543373"><ele>135.25</ele><time>2026-05-02T08:58:41Z</time></trkpt><trkpt lat="42.57753296535952" lon="12.527755574523969"><ele>136.0</ele><time>2026-05-02T08:58:42Z</time></trkpt><trkpt lat="42.57762122863163" lon="12.527625906571489"><ele>136.0</ele><time>2026-05-02T08:58:43Z</time></trkpt><trkpt lat="42.57770148784128" lon="12.527492994140447"><ele>136.0</ele><time>2026-05-02T08:58:44Z</time></trkpt><trkpt lat="42.57774719974534" lon="12.527395594820451"><ele>136.0</ele><time>2026-05-02T08:58:45Z</time></trkpt><trkpt lat="42.57779328148858" lon="12.527309542348657"><ele>136.0</ele><time>2026-05-02T08:58:46Z</time></trkpt><trkpt lat="42.577858200624405" lon="12.527236126185523"><ele>136.0</ele><time>2026-05-02T08:58:47Z</time></trkpt><trkpt lat="42.57795029604976" lon="12.527109039127975"><ele>136.6</ele><time>2026-05-02T08:58:49Z</time></trkpt><trkpt lat="42.578037257477696" lon="12.527053836566735"><ele>137.2</ele><time>2026-05-02T08:58:50Z</time></trkpt><trkpt lat="42.57811739353374" lon="12.526956709398616"><ele>137.8</ele><time>2026-05-02T08:58:51Z</time></trkpt><trkpt lat="42.57821097281415" lon="12.526887513621183"><ele>138.4</ele><time>2026-05-02T08:58:52Z</time></trkpt><trkpt lat="42.578305703221254" lon="12.526799329861145"><ele>139.0</ele><time>2026-05-02T08:58:53Z</time></trkpt><trkpt lat="42.57840431381802" lon="12.52673819820017"><ele>139.0</ele><time>2026-05-02T08:58:54Z</time></trkpt><trkpt lat="42.57848781937901" lon="12.526658679137132"><ele>139.0</ele><time>2026-05-02T08:58:55Z</time></trkpt><trkpt lat="42.57856389957296" lon="12.526575675421793"><ele>139.0</ele><time>2026-05-02T08:58:56Z</time></trkpt><trkpt lat="42.578618067395915" lon="12.526511518095866"><ele>139.0</ele><time>2026-05-02T08:58:57Z</time></trkpt><trkpt lat="42.578682002384284" lon="12.52643376893097"><ele>139.0</ele><time>2026-05-02T08:58:58Z</time></trkpt><trkpt lat="42.5787580026519" lon="12.526343796093569"><ele>140.0</ele><time>2026-05-02T08:58:59Z</time></trkpt><trkpt lat="42.578815201291114" lon="12.526254716244113"><ele>141.0</ele><time>2026-05-02T08:59:00Z</time></trkpt><trkpt lat="42.57891718677195" lon="12.526115325081424"><ele>142.0</ele><time>2026-05-02T08:59:02Z</time></trkpt><trkpt lat="42.578988744612865" lon="12.52605169219861"><ele>143.0</ele><time>2026-05-02T08:59:03Z</time></trkpt><trkpt lat="42.579056727224675" lon="12.525967173802156"><ele>144.0</ele><time>2026-05-02T08:59:04Z</time></trkpt><trkpt lat="42.579130555372366" lon="12.525875450171478"><ele>144.0</ele><time>2026-05-02T08:59:05Z</time></trkpt><trkpt lat="42.57919253574115" lon="12.525780029340325"><ele>144.0</ele><time>2026-05-02T08:59:06Z</time></trkpt><trkpt lat="42.579251537077944" lon="12.525699034984699"><ele>144.0</ele><time>2026-05-02T08:59:07Z</time></trkpt><trkpt lat="42.57930439756828" lon="12.525627593991066"><ele>144.0</ele><time>2026-05-02T08:59:08Z</time></trkpt><trkpt lat="42.5793795771589" lon="12.52554210257135"><ele>144.0</ele><time>2026-05-02T08:59:09.999Z</time></trkpt><trkpt lat="42.5794312014865" lon="12.525467540349407"><ele>144.0</ele><time>2026-05-02T08:59:10.999Z</time></trkpt><trkpt lat="42.57949797087468" lon="12.525374029797325"><ele>144.2</ele><time>2026-05-02T08:59:11.999Z</time></trkpt><trkpt lat="42.57957338731785" lon="12.525275061272312"><ele>144.4</ele><time>2026-05-02T08:59:12.999Z</time></trkpt><trkpt lat="42.5796569277238" lon="12.525163562725494"><ele>144.6</ele><time>2026-05-02T08:59:13.999Z</time></trkpt><trkpt lat="42.57973660664702" lon="12.52506650204843"><ele>144.8</ele><time>2026-05-02T08:59:14.999Z</time></trkpt><trkpt lat="42.5798193437721" lon="12.524951106691939"><ele>145.0</ele><time>2026-05-02T08:59:15.999Z</time></trkpt><trkpt lat="42.579908074081075" lon="12.52485087552216"><ele>145.0</ele><time>2026-05-02T08:59:16.999Z</time></trkpt><trkpt lat="42.579966411819626" lon="12.52473869347825"><ele>145.0</ele><time>2026-05-02T08:59:17.999Z</time></trkpt><trkpt lat="42.580043932401495" lon="12.524662570628152"><ele>145.0</ele><time>2026-05-02T08:59:18.999Z</time></trkpt><trkpt lat="42.580113721274394" lon="12.524561784029638"><ele>145.0</ele><time>2026-05-02T08:59:19.999Z</time></trkpt><trkpt lat="42.58018292689936" lon="12.524457709115882"><ele>145.0</ele><time>2026-05-02T08:59:20.999Z</time></trkpt><trkpt lat="42.580249298795636" lon="12.524356606056331"><ele>145.2</ele><time>2026-05-02T08:59:21.999Z</time></trkpt><trkpt lat="42.58031479339107" lon="12.524256587161066"><ele>145.4</ele><time>2026-05-02T08:59:22.999Z</time></trkpt><trkpt lat="42.58038436082358" lon="12.524150348527105"><ele>145.6</ele><time>2026-05-02T08:59:23.999Z</time></trkpt><trkpt lat="42.580454991774126" lon="12.524050372663465"><ele>145.8</ele><time>2026-05-02T08:59:24.999Z</time></trkpt><trkpt lat="42.580526874007" lon="12.52396354875723"><ele>146.0</ele><time>2026-05-02T08:59:25.999Z</time></trkpt><trkpt lat="42.580594168237745" lon="12.523861059654054"><ele>146.5</ele><time>2026-05-02T08:59:26.999Z</time></trkpt><trkpt lat="42.58066109372325" lon="12.523785738219733"><ele>147.0</ele><time>2026-05-02T08:59:27.999Z</time></trkpt><trkpt lat="42.58071494009951" lon="12.52374133391359"><ele>147.5</ele><time>2026-05-02T08:59:28.999Z</time></trkpt><trkpt lat="42.580766830129576" lon="12.523679698534728"><ele>148.0</ele><time>2026-05-02T08:59:29.999Z</time></trkpt><trkpt lat="42.58082498206202" lon="12.523596636648737"><ele>148.5</ele><time>2026-05-02T08:59:30.999Z</time></trkpt><trkpt lat="42.58088853526904" lon="12.523513426813693"><ele>149.0</ele><time>2026-05-02T08:59:31.999Z</time></trkpt><trkpt lat="42.58094113344425" lon="12.523445706021207"><ele>149.0</ele><time>2026-05-02T08:59:32.999Z</time></trkpt><trkpt lat="42.58100491982611" lon="12.52338560032256"><ele>149.0</ele><time>2026-05-02T08:59:33.999Z</time></trkpt><trkpt lat="42.581074981217384" lon="12.523315517765601"><ele>149.0</ele><time>2026-05-02T08:59:34.999Z</time></trkpt><trkpt lat="42.58113829605609" lon="12.52325961836959"><ele>149.0</ele><time>2026-05-02T08:59:35.999Z</time></trkpt><trkpt lat="42.581247719107886" lon="12.52319628728374"><ele>149.0</ele><time>2026-05-02T08:59:37.999Z</time></trkpt><trkpt lat="42.58137392794552" lon="12.523201020523944"><ele>150.5</ele><time>2026-05-02T08:59:39.999Z</time></trkpt><trkpt lat="42.581434783538306" lon="12.523229228849868"><ele>152.0</ele><time>2026-05-02T08:59:40.999Z</time></trkpt><trkpt lat="42.58149443936255" lon="12.52328025277146"><ele>153.5</ele><time>2026-05-02T08:59:42Z</time></trkpt><trkpt lat="42.581561689320885" lon="12.523339603484812"><ele>155.0</ele><time>2026-05-02T08:59:43Z</time></trkpt><trkpt lat="42.58164177101354" lon="12.523398804568728"><ele>156.5</ele><time>2026-05-02T08:59:44Z</time></trkpt><trkpt lat="42.58172369771202" lon="12.523478225350415"><ele>158.0</ele><time>2026-05-02T08:59:45Z</time></trkpt><trkpt lat="42.581789122539476" lon="12.523528061189696"><ele>158.0</ele><time>2026-05-02T08:59:46Z</time></trkpt><trkpt lat="42.58182844093431" lon="12.523595741646393"><ele>158.0</ele><time>2026-05-02T08:59:47Z</time></trkpt><trkpt lat="42.58189303368215" lon="12.523674534677225"><ele>158.0</ele><time>2026-05-02T08:59:49Z</time></trkpt><trkpt lat="42.581974105471346" lon="12.52366545891738"><ele>158.0</ele><time>2026-05-02T08:59:51Z</time></trkpt><trkpt lat="42.58203252421049" lon="12.523630815758713"><ele>158.0</ele><time>2026-05-02T08:59:52Z</time></trkpt><trkpt lat="42.582106501790136" lon="12.523523360548767"><ele>158.0</ele><time>2026-05-02T08:59:54Z</time></trkpt><trkpt lat="42.58217567780838" lon="12.52345848028936"><ele>159.2</ele><time>2026-05-02T08:59:56Z</time></trkpt><trkpt lat="42.58224807118169" lon="12.52343174827761"><ele>160.4</ele><time>2026-05-02T08:59:58Z</time></trkpt><trkpt lat="42.58233736496412" lon="12.523542169861152"><ele>161.6</ele><time>2026-05-02T09:00:00Z</time></trkpt><trkpt lat="42.582414414214085" lon="12.523606229398405"><ele>162.79999999999998</ele><time>2026-05-02T09:00:02Z</time></trkpt><trkpt lat="42.58250749580034" lon="12.523562589358397"><ele>164.0</ele><time>2026-05-02T09:00:04Z</time></trkpt><trkpt lat="42.58255850180401" lon="12.52350034954358"><ele>164.0</ele><time>2026-05-02T09:00:05Z</time></trkpt><trkpt lat="42.58257000946645" lon="12.52339394053336"><ele>164.0</ele><time>2026-05-02T09:00:06Z</time></trkpt><trkpt lat="42.58263752454428" lon="12.523289930383859"><ele>164.0</ele><time>2026-05-02T09:00:08Z</time></trkpt><trkpt lat="42.58269557099897" lon="12.523236738591391"><ele>164.0</ele><time>2026-05-02T09:00:10Z</time></trkpt><trkpt lat="42.58275239983355" lon="12.523163040640487"><ele>164.0</ele><time>2026-05-02T09:00:22Z</time></trkpt><trkpt lat="42.58283889128709" lon="12.523075080273442"><ele>164.0</ele><time>2026-05-02T09:00:24Z</time></trkpt><trkpt lat="42.582821201055744" lon="12.522929558266275"><ele>163.99999999999997</ele><time>2026-05-02T09:00:25Z</time></trkpt><trkpt lat="42.582844240511854" lon="12.522842934414737"><ele>164.0</ele><time>2026-05-02T09:00:26Z</time></trkpt><trkpt lat="42.582870080796624" lon="12.522749717820062"><ele>164.0</ele><time>2026-05-02T09:00:27Z</time></trkpt><trkpt lat="42.58289971024874" lon="12.52266641058951"><ele>164.0</ele><time>2026-05-02T09:00:28Z</time></trkpt><trkpt lat="42.58293736323531" lon="12.522582497010884"><ele>164.0</ele><time>2026-05-02T09:00:29Z</time></trkpt><trkpt lat="42.582977326260746" lon="12.522506836383064"><ele>163.99999999999997</ele><time>2026-05-02T09:00:30Z</time></trkpt><trkpt lat="42.58302088160445" lon="12.522425893022143"><ele>164.0</ele><time>2026-05-02T09:00:31Z</time></trkpt><trkpt lat="42.58307625041619" lon="12.522344301956828"><ele>164.33333333333331</ele><time>2026-05-02T09:00:32Z</time></trkpt><trkpt lat="42.58312585066643" lon="12.52225372432362"><ele>164.66666666666666</ele><time>2026-05-02T09:00:33Z</time></trkpt><trkpt lat="42.58316799926713" lon="12.522161067145985"><ele>165.0</ele><time>2026-05-02T09:00:34Z</time></trkpt><trkpt lat="42.583204377185076" lon="12.522076919772523"><ele>165.33333333333334</ele><time>2026-05-02T09:00:35Z</time></trkpt><trkpt lat="42.58323496192434" lon="12.521983887688696"><ele>165.66666666666669</ele><time>2026-05-02T09:00:36Z</time></trkpt><trkpt lat="42.58327587208396" lon="12.521855440134868"><ele>166.0</ele><time>2026-05-02T09:00:37Z</time></trkpt><trkpt lat="42.58331465564656" lon="12.52174964555183"><ele>166.66666666666669</ele><time>2026-05-02T09:00:38Z</time></trkpt><trkpt lat="42.58335278058561" lon="12.521575258820633"><ele>167.33333333333334</ele><time>2026-05-02T09:00:40Z</time></trkpt><trkpt lat="42.58338712951477" lon="12.521454405894302"><ele>168.0</ele><time>2026-05-02T09:00:41Z</time></trkpt><trkpt lat="42.583407733981524" lon="12.521367078622886"><ele>168.66666666666666</ele><time>2026-05-02T09:00:42Z</time></trkpt><trkpt lat="42.58342736216678" lon="12.52128400146834"><ele>169.33333333333331</ele><time>2026-05-02T09:00:43Z</time></trkpt><trkpt lat="42.5834473120258" lon="12.521196010876688"><ele>170.0</ele><time>2026-05-02T09:00:44Z</time></trkpt><trkpt lat="42.58348295421829" lon="12.521086322305726"><ele>170.6</ele><time>2026-05-02T09:00:45Z</time></trkpt><trkpt lat="42.58351186719863" lon="12.520959210548337"><ele>171.2</ele><time>2026-05-02T09:00:46Z</time></trkpt><trkpt lat="42.583539424488464" lon="12.520848662116203"><ele>171.8</ele><time>2026-05-02T09:00:47Z</time></trkpt><trkpt lat="42.58357284403289" lon="12.520728714369888"><ele>172.4</ele><time>2026-05-02T09:00:48Z</time></trkpt><trkpt lat="42.583596415807605" lon="12.520622898784145"><ele>173.0</ele><time>2026-05-02T09:00:49Z</time></trkpt><trkpt lat="42.58363540628897" lon="12.520490092099305"><ele>173.0</ele><time>2026-05-02T09:00:50Z</time></trkpt><trkpt lat="42.58366437591173" lon="12.520395580781992"><ele>173.0</ele><time>2026-05-02T09:00:51Z</time></trkpt><trkpt lat="42.58369342490283" lon="12.520283567098868"><ele>173.0</ele><time>2026-05-02T09:00:52Z</time></trkpt><trkpt lat="42.58372597185255" lon="12.52018233903883"><ele>173.0</ele><time>2026-05-02T09:00:53Z</time></trkpt><trkpt lat="42.58376008001328" lon="12.520073198171225"><ele>173.0</ele><time>2026-05-02T09:00:54Z</time></trkpt><trkpt lat="42.5837958869735" lon="12.51997724619011"><ele>173.0</ele><time>2026-05-02T09:00:55Z</time></trkpt><trkpt lat="42.58384898825347" lon="12.519869214024018"><ele>173.5</ele><time>2026-05-02T09:00:56Z</time></trkpt><trkpt lat="42.583903689709075" lon="12.519766178286218"><ele>174.0</ele><time>2026-05-02T09:00:57Z</time></trkpt><trkpt lat="42.583952386467715" lon="12.519672224897842"><ele>174.5</ele><time>2026-05-02T09:00:58Z</time></trkpt><trkpt lat="42.58401140599799" lon="12.519579785083046"><ele>175.0</ele><time>2026-05-02T09:00:59Z</time></trkpt><trkpt lat="42.58406509715867" lon="12.519490224780338"><ele>175.5</ele><time>2026-05-02T09:01:00Z</time></trkpt><trkpt lat="42.5841240021861" lon="12.519396695650782"><ele>176.0</ele><time>2026-05-02T09:01:01Z</time></trkpt><trkpt lat="42.58417243653932" lon="12.519323542274126"><ele>176.4</ele><time>2026-05-02T09:01:02Z</time></trkpt><trkpt lat="42.584235158703244" lon="12.519241479982492"><ele>176.8</ele><time>2026-05-02T09:01:03Z</time></trkpt><trkpt lat="42.5842848525475" lon="12.519164481331337"><ele>177.20000000000002</ele><time>2026-05-02T09:01:04Z</time></trkpt><trkpt lat="42.584387001712564" lon="12.519049102219682"><ele>177.60000000000002</ele><time>2026-05-02T09:01:06Z</time></trkpt><trkpt lat="42.58447732951085" lon="12.519000550410173"><ele>178.0</ele><time>2026-05-02T09:01:08Z</time></trkpt><trkpt lat="42.584587414394434" lon="12.519017954922466"><ele>178.8</ele><time>2026-05-02T09:01:10Z</time></trkpt><trkpt lat="42.584680515506115" lon="12.519070749428819"><ele>179.60000000000002</ele><time>2026-05-02T09:01:12Z</time></trkpt><trkpt lat="42.58474018892588" lon="12.51911348271927"><ele>180.39999999999998</ele><time>2026-05-02T09:01:13Z</time></trkpt><trkpt lat="42.584806567803234" lon="12.519170614452758"><ele>181.2</ele><time>2026-05-02T09:01:14Z</time></trkpt><trkpt lat="42.58488132052926" lon="12.519225947627916"><ele>182.0</ele><time>2026-05-02T09:01:15Z</time></trkpt><trkpt lat="42.584985619092016" lon="12.519312639595658"><ele>182.0</ele><time>2026-05-02T09:01:17Z</time></trkpt><trkpt lat="42.58507038749525" lon="12.519393124276503"><ele>182.0</ele><time>2026-05-02T09:01:19Z</time></trkpt><trkpt lat="42.585186924784146" lon="12.51947718742188"><ele>182.0</ele><time>2026-05-02T09:01:21Z</time></trkpt><trkpt lat="42.58525438470176" lon="12.519518139879189"><ele>182.0</ele><time>2026-05-02T09:01:22Z</time></trkpt><trkpt lat="42.58532001758065" lon="12.519550510172316"><ele>182.0</ele><time>2026-05-02T09:01:23Z</time></trkpt><trkpt lat="42.58541227985644" lon="12.519584432586552"><ele>182.8</ele><time>2026-05-02T09:01:25Z</time></trkpt><trkpt lat="42.58551229256599" lon="12.519568084922662"><ele>183.6</ele><time>2026-05-02T09:01:27Z</time></trkpt><trkpt lat="42.585597832771995" lon="12.519457687354837"><ele>184.4</ele><time>2026-05-02T09:01:29Z</time></trkpt><trkpt lat="42.58563184469745" lon="12.519295568330099"><ele>185.20000000000002</ele><time>2026-05-02T09:01:31Z</time></trkpt><trkpt lat="42.58563886986374" lon="12.519199746474072"><ele>186.0</ele><time>2026-05-02T09:01:32Z</time></trkpt><trkpt lat="42.58563869875334" lon="12.519099854703045"><ele>186.0</ele><time>2026-05-02T09:01:33Z</time></trkpt><trkpt lat="42.58564893949932" lon="12.518990351100086"><ele>186.0</ele><time>2026-05-02T09:01:34Z</time></trkpt><trkpt lat="42.5856643302628" lon="12.518878558568133"><ele>186.0</ele><time>2026-05-02T09:01:34.999Z</time></trkpt><trkpt lat="42.58569242856626" lon="12.51876874683477"><ele>186.0</ele><time>2026-05-02T09:01:35.999Z</time></trkpt><trkpt lat="42.585731422740494" lon="12.518630898283071"><ele>186.0</ele><time>2026-05-02T09:01:36.999Z</time></trkpt><trkpt lat="42.58577637322269" lon="12.518506071095231"><ele>187.60000000000002</ele><time>2026-05-02T09:01:37.999Z</time></trkpt><trkpt lat="42.58582459464162" lon="12.518387554606418"><ele>189.2</ele><time>2026-05-02T09:01:38.999Z</time></trkpt><trkpt lat="42.58587123584021" lon="12.518267535483321"><ele>190.8</ele><time>2026-05-02T09:01:39.999Z</time></trkpt><trkpt lat="42.58592700725846" lon="12.518131527809548"><ele>192.39999999999998</ele><time>2026-05-02T09:01:40.999Z</time></trkpt><trkpt lat="42.58598247657675" lon="12.517993621844672"><ele>194.0</ele><time>2026-05-02T09:01:41.999Z</time></trkpt><trkpt lat="42.5860374460148" lon="12.517862082088417"><ele>194.39999999999998</ele><time>2026-05-02T09:01:42.999Z</time></trkpt><trkpt lat="42.58609254453956" lon="12.517726540474882"><ele>194.8</ele><time>2026-05-02T09:01:43.999Z</time></trkpt><trkpt lat="42.58615207921825" lon="12.51759762171442"><ele>195.2</ele><time>2026-05-02T09:01:44.999Z</time></trkpt><trkpt lat="42.586203147813336" lon="12.517481407450976"><ele>195.60000000000002</ele><time>2026-05-02T09:01:45.999Z</time></trkpt><trkpt lat="42.586251263762065" lon="12.517360061610043"><ele>196.0</ele><time>2026-05-02T09:01:46.999Z</time></trkpt><trkpt lat="42.586296262621865" lon="12.517238892617684"><ele>196.83333333333331</ele><time>2026-05-02T09:01:48Z</time></trkpt><trkpt lat="42.58632806097773" lon="12.517137425933173"><ele>197.66666666666666</ele><time>2026-05-02T09:01:49Z</time></trkpt><trkpt lat="42.58635605870202" lon="12.517048812833687"><ele>198.5</ele><time>2026-05-02T09:01:50Z</time></trkpt><trkpt lat="42.586409272345236" lon="12.516906198194095"><ele>199.33333333333331</ele><time>2026-05-02T09:01:52Z</time></trkpt><trkpt lat="42.5864633047207" lon="12.516849232537826"><ele>200.16666666666666</ele><time>2026-05-02T09:01:53Z</time></trkpt><trkpt lat="42.58653820251508" lon="12.516793792347729"><ele>201.0</ele><time>2026-05-02T09:01:54Z</time></trkpt><trkpt lat="42.586633852269635" lon="12.516729156057208"><ele>201.8</ele><time>2026-05-02T09:01:55Z</time></trkpt><trkpt lat="42.58671739805051" lon="12.516673386933888"><ele>202.60000000000002</ele><time>2026-05-02T09:01:56Z</time></trkpt><trkpt lat="42.586807184943936" lon="12.516601628655387"><ele>203.4</ele><time>2026-05-02T09:01:57Z</time></trkpt><trkpt lat="42.58689520084425" lon="12.516516780710251"><ele>204.2</ele><time>2026-05-02T09:01:58Z</time></trkpt><trkpt lat="42.586992767075735" lon="12.516423069057424"><ele>205.0</ele><time>2026-05-02T09:01:59Z</time></trkpt><trkpt lat="42.58708830979062" lon="12.516326511648035"><ele>205.66666666666666</ele><time>2026-05-02T09:02:00Z</time></trkpt><trkpt lat="42.58715910491031" lon="12.516258198705057"><ele>206.33333333333331</ele><time>2026-05-02T09:02:01Z</time></trkpt><trkpt lat="42.5872132029607" lon="12.516203607743751"><ele>207.0</ele><time>2026-05-02T09:02:02Z</time></trkpt><trkpt lat="42.587330190029135" lon="12.51612169151884"><ele>207.66666666666669</ele><time>2026-05-02T09:02:04Z</time></trkpt><trkpt lat="42.58739205142141" lon="12.516083528533807"><ele>208.33333333333334</ele><time>2026-05-02T09:02:05Z</time></trkpt><trkpt lat="42.58744985326313" lon="12.516028218015498"><ele>209.0</ele><time>2026-05-02T09:02:06Z</time></trkpt><trkpt lat="42.587552257500235" lon="12.516043414600322"><ele>210.00000000000003</ele><time>2026-05-02T09:02:08Z</time></trkpt><trkpt lat="42.58765001991075" lon="12.516036384995452"><ele>211.0</ele><time>2026-05-02T09:02:10Z</time></trkpt><trkpt lat="42.58770989523571" lon="12.515988799755977"><ele>212.0</ele><time>2026-05-02T09:02:11Z</time></trkpt><trkpt lat="42.58777106735092" lon="12.515908524549959"><ele>213.0</ele><time>2026-05-02T09:02:12Z</time></trkpt><trkpt lat="42.58784724246304" lon="12.515821095543563"><ele>214.00000000000003</ele><time>2026-05-02T09:02:13Z</time></trkpt><trkpt lat="42.58791041975647" lon="12.51573657249787"><ele>215.0</ele><time>2026-05-02T09:02:14Z</time></trkpt><trkpt lat="42.587963936007704" lon="12.515653183879898"><ele>216.0</ele><time>2026-05-02T09:02:15Z</time></trkpt><trkpt lat="42.58801907241865" lon="12.515555221881847"><ele>217.0</ele><time>2026-05-02T09:02:16Z</time></trkpt><trkpt lat="42.58805362226779" lon="12.515459836735417"><ele>218.0</ele><time>2026-05-02T09:02:17Z</time></trkpt><trkpt lat="42.58809304103494" lon="12.51529726626115"><ele>219.0</ele><time>2026-05-02T09:02:19Z</time></trkpt><trkpt lat="42.588123325476694" lon="12.5151911951376"><ele>220.0</ele><time>2026-05-02T09:02:20Z</time></trkpt><trkpt lat="42.588166748146776" lon="12.515053185761595"><ele>220.2</ele><time>2026-05-02T09:02:22Z</time></trkpt><trkpt lat="42.58819359183853" lon="12.514971414738802"><ele>220.4</ele><time>2026-05-02T09:02:23Z</time></trkpt><trkpt lat="42.588249517311965" lon="12.514867168275865"><ele>220.60000000000002</ele><time>2026-05-02T09:02:25Z</time></trkpt><trkpt lat="42.588299090234486" lon="12.514736092722542"><ele>220.8</ele><time>2026-05-02T09:02:27Z</time></trkpt><trkpt lat="42.58833202568104" lon="12.514604384432802"><ele>221.0</ele><time>2026-05-02T09:02:29Z</time></trkpt><trkpt lat="42.5883167280135" lon="12.514484821048221"><ele>221.0</ele><time>2026-05-02T09:02:31Z</time></trkpt><trkpt lat="42.58827467008794" lon="12.514386709860949"><ele>221.00000000000003</ele><time>2026-05-02T09:02:33Z</time></trkpt><trkpt lat="42.588272526329405" lon="12.514273460745894"><ele>221.00000000000003</ele><time>2026-05-02T09:02:35Z</time></trkpt><trkpt lat="42.588292667480225" lon="12.51417269926883"><ele>221.0</ele><time>2026-05-02T09:02:36Z</time></trkpt><trkpt lat="42.588313944368984" lon="12.51406221925631"><ele>221.0</ele><time>2026-05-02T09:02:37Z</time></trkpt><trkpt lat="42.58834536963368" lon="12.513892342911772"><ele>221.00000000000003</ele><time>2026-05-02T09:02:39Z</time></trkpt><trkpt lat="42.58838016572753" lon="12.513784960954542"><ele>221.0</ele><time>2026-05-02T09:02:40Z</time></trkpt><trkpt lat="42.58842091017575" lon="12.513693143689002"><ele>221.0</ele><time>2026-05-02T09:02:41Z</time></trkpt><trkpt lat="42.58846621743045" lon="12.513597388946733"><ele>221.0</ele><time>2026-05-02T09:02:42Z</time></trkpt><trkpt lat="42.58851126408616" lon="12.513495866188812"><ele>221.00000000000003</ele><time>2026-05-02T09:02:43Z</time></trkpt><trkpt lat="42.58855788542977" lon="12.513394754845534"><ele>221.0</ele><time>2026-05-02T09:02:44Z</time></trkpt><trkpt lat="42.588604290781745" lon="12.513281511000837"><ele>220.66666666666669</ele><time>2026-05-02T09:02:45Z</time></trkpt><trkpt lat="42.58864738170113" lon="12.51317593239107"><ele>220.33333333333334</ele><time>2026-05-02T09:02:46Z</time></trkpt><trkpt lat="42.5887002999556" lon="12.513083369486994"><ele>220.0</ele><time>2026-05-02T09:02:47Z</time></trkpt><trkpt lat="42.58874874572257" lon="12.51301668871119"><ele>219.66666666666669</ele><time>2026-05-02T09:02:48Z</time></trkpt><trkpt lat="42.58880207058403" lon="12.51295662585989"><ele>219.33333333333334</ele><time>2026-05-02T09:02:49Z</time></trkpt><trkpt lat="42.588866675692486" lon="12.512902338193152"><ele>219.0</ele><time>2026-05-02T09:02:50Z</time></trkpt><trkpt lat="42.588922437568904" lon="12.512845531042796"><ele>221.6</ele><time>2026-05-02T09:02:51Z</time></trkpt><trkpt lat="42.58900085061726" lon="12.512716090839485"><ele>224.2</ele><time>2026-05-02T09:02:53Z</time></trkpt><trkpt lat="42.58904362511214" lon="12.512606248575997"><ele>226.79999999999998</ele><time>2026-05-02T09:02:54Z</time></trkpt><trkpt lat="42.58908266555211" lon="12.512510491770168"><ele>229.39999999999998</ele><time>2026-05-02T09:02:55Z</time></trkpt><trkpt lat="42.58913085737373" lon="12.512400060717699"><ele>232.0</ele><time>2026-05-02T09:02:56Z</time></trkpt><trkpt lat="42.589178033095116" lon="12.512298524205427"><ele>231.99999999999997</ele><time>2026-05-02T09:02:57Z</time></trkpt><trkpt lat="42.58921746591496" lon="12.512204761765329"><ele>232.0</ele><time>2026-05-02T09:02:58Z</time></trkpt><trkpt lat="42.58925870419061" lon="12.512109993230506"><ele>232.0</ele><time>2026-05-02T09:02:59Z</time></trkpt><trkpt lat="42.58929736574582" lon="12.512019026062578"><ele>232.0</ele><time>2026-05-02T09:03:00Z</time></trkpt><trkpt lat="42.58933281981034" lon="12.51191861694879"><ele>231.99999999999997</ele><time>2026-05-02T09:03:01Z</time></trkpt><trkpt lat="42.5893720373619" lon="12.511819849439522"><ele>232.0</ele><time>2026-05-02T09:03:02Z</time></trkpt><trkpt lat="42.58940611036635" lon="12.511738451953027"><ele>232.33333333333331</ele><time>2026-05-02T09:03:03Z</time></trkpt><trkpt lat="42.589441033785626" lon="12.511646236922434"><ele>232.66666666666666</ele><time>2026-05-02T09:03:04Z</time></trkpt><trkpt lat="42.58947643031237" lon="12.511559611997036"><ele>233.0</ele><time>2026-05-02T09:03:05Z</time></trkpt><trkpt lat="42.58952634527176" lon="12.511460635257212"><ele>233.33333333333331</ele><time>2026-05-02T09:03:06Z</time></trkpt><trkpt lat="42.58956710600408" lon="12.511379010338299"><ele>233.66666666666666</ele><time>2026-05-02T09:03:07Z</time></trkpt><trkpt lat="42.589612188962164" lon="12.511283491258295"><ele>234.0</ele><time>2026-05-02T09:03:08Z</time></trkpt><trkpt lat="42.58966287184575" lon="12.511191220139601"><ele>236.66666666666666</ele><time>2026-05-02T09:03:09Z</time></trkpt><trkpt lat="42.589710776585406" lon="12.511097220034937"><ele>239.33333333333331</ele><time>2026-05-02T09:03:10Z</time></trkpt><trkpt lat="42.5897540160447" lon="12.511014001338737"><ele>242.0</ele><time>2026-05-02T09:03:11Z</time></trkpt><trkpt lat="42.58979847503418" lon="12.510925911196766"><ele>244.66666666666666</ele><time>2026-05-02T09:03:12Z</time></trkpt><trkpt lat="42.58984205466412" lon="12.510832695195827"><ele>247.33333333333331</ele><time>2026-05-02T09:03:13Z</time></trkpt><trkpt lat="42.58989465598301" lon="12.510749267457605"><ele>250.0</ele><time>2026-05-02T09:03:14Z</time></trkpt><trkpt lat="42.58994239610414" lon="12.510656788811126"><ele>250.0</ele><time>2026-05-02T09:03:15Z</time></trkpt><trkpt lat="42.58997455564781" lon="12.51057165643475"><ele>250.0</ele><time>2026-05-02T09:03:16Z</time></trkpt><trkpt lat="42.59001699939681" lon="12.510500618550218"><ele>250.0</ele><time>2026-05-02T09:03:17Z</time></trkpt><trkpt lat="42.590058304681364" lon="12.510430607969548"><ele>250.0</ele><time>2026-05-02T09:03:18Z</time></trkpt><trkpt lat="42.590106283231755" lon="12.510369270186066"><ele>250.0</ele><time>2026-05-02T09:03:19Z</time></trkpt><trkpt lat="42.590160706637846" lon="12.510303427263619"><ele>250.0</ele><time>2026-05-02T09:03:20Z</time></trkpt><trkpt lat="42.590233096581855" lon="12.510224259697337"><ele>250.0</ele><time>2026-05-02T09:03:22Z</time></trkpt><trkpt lat="42.59026314142269" lon="12.51014687391562"><ele>250.0</ele><time>2026-05-02T09:12:42Z</time></trkpt><trkpt lat="42.59025741114466" lon="12.510002166715779"><ele>250.0</ele><time>2026-05-02T09:12:44Z</time></trkpt><trkpt lat="42.59025574564053" lon="12.509842756698243"><ele>250.0</ele><time>2026-05-02T09:12:46Z</time></trkpt><trkpt lat="42.59022658280085" lon="12.509673558123412"><ele>250.0</ele><time>2026-05-02T09:12:48Z</time></trkpt><trkpt lat="42.59020596938049" lon="12.509583165365925"><ele>250.0</ele><time>2026-05-02T09:12:49Z</time></trkpt><trkpt lat="42.59020042197183" lon="12.509471999608646"><ele>250.8</ele><time>2026-05-02T09:12:50Z</time></trkpt><trkpt lat="42.590191837310876" lon="12.509368453053396"><ele>251.6</ele><time>2026-05-02T09:12:51Z</time></trkpt><trkpt lat="42.59016218802015" lon="12.509194329044716"><ele>252.39999999999998</ele><time>2026-05-02T09:12:53Z</time></trkpt><trkpt lat="42.59015291400154" lon="12.5090937991262"><ele>253.2</ele><time>2026-05-02T09:12:54Z</time></trkpt><trkpt lat="42.59014075043535" lon="12.508966263619001"><ele>254.0</ele><time>2026-05-02T09:12:55Z</time></trkpt><trkpt lat="42.59012893631027" lon="12.508822682715461"><ele>254.66666666666669</ele><time>2026-05-02T09:12:56Z</time></trkpt><trkpt lat="42.59011520625945" lon="12.508701334678799"><ele>255.33333333333334</ele><time>2026-05-02T09:12:57Z</time></trkpt><trkpt lat="42.590105810835766" lon="12.508596192056201"><ele>256.0</ele><time>2026-05-02T09:12:58Z</time></trkpt><trkpt lat="42.590095360093066" lon="12.508503773149169"><ele>256.6666666666667</ele><time>2026-05-02T09:12:59Z</time></trkpt><trkpt lat="42.59007757441912" lon="12.508373621379043"><ele>257.3333333333333</ele><time>2026-05-02T09:13:01Z</time></trkpt><trkpt lat="42.59004891546189" lon="12.508251371648484"><ele>258.0</ele><time>2026-05-02T09:13:03Z</time></trkpt><trkpt lat="42.59000751296009" lon="12.50810132579478"><ele>258.0</ele><time>2026-05-02T09:13:05Z</time></trkpt><trkpt lat="42.589979093589676" lon="12.507924333272447"><ele>258.0</ele><time>2026-05-02T09:13:07Z</time></trkpt><trkpt lat="42.58996727166992" lon="12.507834970004408"><ele>258.0</ele><time>2026-05-02T09:13:08Z</time></trkpt><trkpt lat="42.58994650097329" lon="12.507659576947011"><ele>258.0</ele><time>2026-05-02T09:13:10Z</time></trkpt><trkpt lat="42.58991326640453" lon="12.50748038109363"><ele>258.5</ele><time>2026-05-02T09:13:12Z</time></trkpt><trkpt lat="42.589881066445955" lon="12.507336726606786"><ele>259.0</ele><time>2026-05-02T09:13:14Z</time></trkpt><trkpt lat="42.589863935900055" lon="12.507248155616987"><ele>259.5</ele><time>2026-05-02T09:13:16Z</time></trkpt><trkpt lat="42.58985834359001" lon="12.507134300982553"><ele>260.0</ele><time>2026-05-02T09:13:19Z</time></trkpt><trkpt lat="42.58987356595137" lon="12.50703467837618"><ele>260.5</ele><time>2026-05-02T09:13:21Z</time></trkpt><trkpt lat="42.58986763219191" lon="12.506941004227004"><ele>261.0</ele><time>2026-05-02T09:13:23Z</time></trkpt><trkpt lat="42.58984925594421" lon="12.506847920403176"><ele>260.8</ele><time>2026-05-02T09:13:25Z</time></trkpt><trkpt lat="42.58981826581388" lon="12.506715862136542"><ele>260.6</ele><time>2026-05-02T09:13:28Z</time></trkpt><trkpt lat="42.589785244115355" lon="12.506564887034926"><ele>260.4</ele><time>2026-05-02T09:13:30Z</time></trkpt><trkpt lat="42.589761446434665" lon="12.506440828302395"><ele>260.2</ele><time>2026-05-02T09:13:32Z</time></trkpt><trkpt lat="42.58974152193868" lon="12.506321927026438"><ele>260.0</ele><time>2026-05-02T09:13:34Z</time></trkpt><trkpt lat="42.58976184814573" lon="12.50622689993851"><ele>260.00000000000006</ele><time>2026-05-02T09:13:37Z</time></trkpt><trkpt lat="42.58982567438269" lon="12.506160253501815"><ele>260.0</ele><time>2026-05-02T09:13:42Z</time></trkpt><trkpt lat="42.58987443437366" lon="12.506101560398097"><ele>260.0</ele><time>2026-05-02T09:13:45Z</time></trkpt><trkpt lat="42.589922250984806" lon="12.506045496707793"><ele>260.0</ele><time>2026-05-02T09:13:49Z</time></trkpt><trkpt lat="42.58998515630934" lon="12.505975627749836"><ele>260.0</ele><time>2026-05-02T09:13:56Z</time></trkpt><trkpt lat="42.5900467946955" lon="12.505920311634949"><ele>260.00000000000006</ele><time>2026-05-02T09:13:59Z</time></trkpt><trkpt lat="42.59010697608473" lon="12.50586176893514"><ele>260.0</ele><time>2026-05-02T09:14:03Z</time></trkpt><trkpt lat="42.59016528017537" lon="12.505807567001805"><ele>260.00000000000006</ele><time>2026-05-02T09:14:06Z</time></trkpt><trkpt lat="42.59023083641215" lon="12.505766119941097"><ele>260.0</ele><time>2026-05-02T09:14:12Z</time></trkpt><trkpt lat="42.5902999915509" lon="12.505732977466307"><ele>260.0</ele><time>2026-05-02T09:14:16Z</time></trkpt><trkpt lat="42.590360582583564" lon="12.505688805667837"><ele>260.0</ele><time>2026-05-02T09:14:20Z</time></trkpt><trkpt lat="42.59041822959529" lon="12.505643992320337"><ele>260.0</ele><time>2026-05-02T09:14:24.999Z</time></trkpt><trkpt lat="42.59049746653347" lon="12.505578392554128"><ele>260.00000000000006</ele><time>2026-05-02T09:14:41Z</time></trkpt><trkpt lat="42.590564607121166" lon="12.5055520110383"><ele>260.0</ele><time>2026-05-02T09:14:43Z</time></trkpt><trkpt lat="42.590628561114904" lon="12.505547970743045"><ele>258.0</ele><time>2026-05-02T09:14:45Z</time></trkpt><trkpt lat="42.59069399651607" lon="12.505572480048379"><ele>256.0</ele><time>2026-05-02T09:14:48Z</time></trkpt><trkpt lat="42.59078303051277" lon="12.505607329651832"><ele>254.0</ele><time>2026-05-02T09:14:51Z</time></trkpt><trkpt lat="42.59085141889517" lon="12.505549848337573"><ele>252.0</ele><time>2026-05-02T09:14:54Z</time></trkpt><trkpt lat="42.590938075597904" lon="12.505503188870742"><ele>250.00000000000003</ele><time>2026-05-02T09:14:56Z</time></trkpt><trkpt lat="42.590998680304345" lon="12.505539629781605"><ele>248.0</ele><time>2026-05-02T09:14:58Z</time></trkpt><trkpt lat="42.591074468910314" lon="12.505533915902463"><ele>248.0</ele><time>2026-05-02T09:15:00Z</time></trkpt><trkpt lat="42.59114164771997" lon="12.505485891083122"><ele>248.0</ele><time>2026-05-02T09:15:18Z</time></trkpt><trkpt lat="42.59122173968124" lon="12.505473529682776"><ele>248.0</ele><time>2026-05-02T09:15:20Z</time></trkpt><trkpt lat="42.59133891599555" lon="12.505464214272477"><ele>248.0</ele><time>2026-05-02T09:15:22Z</time></trkpt><trkpt lat="42.59143211009054" lon="12.505450667212028"><ele>248.0</ele><time>2026-05-02T09:15:24Z</time></trkpt><trkpt lat="42.591528216356956" lon="12.505425240269703"><ele>244.8</ele><time>2026-05-02T09:15:26Z</time></trkpt><trkpt lat="42.59164176811726" lon="12.505414888855501"><ele>241.60000000000002</ele><time>2026-05-02T09:15:28Z</time></trkpt><trkpt lat="42.59173591863102" lon="12.505399566449059"><ele>238.39999999999998</ele><time>2026-05-02T09:15:30Z</time></trkpt><trkpt lat="42.591842116785465" lon="12.505364847831562"><ele>235.2</ele><time>2026-05-02T09:15:32Z</time></trkpt><trkpt lat="42.59194367173883" lon="12.505313284392884"><ele>232.0</ele><time>2026-05-02T09:15:34Z</time></trkpt><trkpt lat="42.592036760458754" lon="12.50524785662701"><ele>230.16666666666666</ele><time>2026-05-02T09:15:36Z</time></trkpt><trkpt lat="42.59215853633035" lon="12.505194598812388"><ele>228.33333333333331</ele><time>2026-05-02T09:15:38Z</time></trkpt><trkpt lat="42.59222153993864" lon="12.505172515724228"><ele>226.5</ele><time>2026-05-02T09:15:39Z</time></trkpt><trkpt lat="42.592289312412106" lon="12.505160362106029"><ele>224.66666666666669</ele><time>2026-05-02T09:15:40Z</time></trkpt><trkpt lat="42.59236249549981" lon="12.505168354699217"><ele>222.83333333333334</ele><time>2026-05-02T09:15:41Z</time></trkpt><trkpt lat="42.59243908684121" lon="12.505182806192343"><ele>221.0</ele><time>2026-05-02T09:15:42Z</time></trkpt><trkpt lat="42.592517289693475" lon="12.505203710086796"><ele>221.0</ele><time>2026-05-02T09:15:43Z</time></trkpt><trkpt lat="42.592594575151736" lon="12.505225750043738"><ele>221.00000000000003</ele><time>2026-05-02T09:15:44Z</time></trkpt><trkpt lat="42.59267096260336" lon="12.505249184074701"><ele>221.00000000000003</ele><time>2026-05-02T09:15:45Z</time></trkpt><trkpt lat="42.59273529455399" lon="12.505270798134008"><ele>221.0</ele><time>2026-05-02T09:15:46Z</time></trkpt><trkpt lat="42.59287602094628" lon="12.505316576256426"><ele>221.0</ele><time>2026-05-02T09:15:48Z</time></trkpt><trkpt lat="42.59298343205667" lon="12.505356897704717"><ele>219.8</ele><time>2026-05-02T09:15:50Z</time></trkpt><trkpt lat="42.593053456123435" lon="12.505382905856607"><ele>218.60000000000002</ele><time>2026-05-02T09:15:51Z</time></trkpt><trkpt lat="42.59316092618758" lon="12.505427414326576"><ele>217.4</ele><time>2026-05-02T09:15:53Z</time></trkpt><trkpt lat="42.59329407747076" lon="12.505486165474178"><ele>216.2</ele><time>2026-05-02T09:15:55Z</time></trkpt><trkpt lat="42.593373549454235" lon="12.505516940576147"><ele>215.0</ele><time>2026-05-02T09:15:56Z</time></trkpt><trkpt lat="42.59344544108848" lon="12.505545207097338"><ele>215.00000000000003</ele><time>2026-05-02T09:15:57Z</time></trkpt><trkpt lat="42.59350514991825" lon="12.505578383976902"><ele>215.0</ele><time>2026-05-02T09:15:58Z</time></trkpt><trkpt lat="42.59356826826358" lon="12.505611796002265"><ele>215.0</ele><time>2026-05-02T09:15:59Z</time></trkpt><trkpt lat="42.593685324288735" lon="12.505683102807062"><ele>215.0</ele><time>2026-05-02T09:16:01Z</time></trkpt><trkpt lat="42.59375551499439" lon="12.505726073081306"><ele>215.00000000000003</ele><time>2026-05-02T09:16:02Z</time></trkpt><trkpt lat="42.59381711523211" lon="12.505767207826509"><ele>215.0</ele><time>2026-05-02T09:16:03Z</time></trkpt><trkpt lat="42.59388602834602" lon="12.505823282366977"><ele>213.6</ele><time>2026-05-02T09:16:04Z</time></trkpt><trkpt lat="42.593954400625506" lon="12.505883246024618"><ele>212.2</ele><time>2026-05-02T09:16:05Z</time></trkpt><trkpt lat="42.594037254247176" lon="12.505953598198545"><ele>210.8</ele><time>2026-05-02T09:16:07Z</time></trkpt><trkpt lat="42.59413294870244" lon="12.506034547303184"><ele>209.4</ele><time>2026-05-02T09:16:09Z</time></trkpt><trkpt lat="42.59421175200393" lon="12.506119960143172"><ele>208.0</ele><time>2026-05-02T09:16:11Z</time></trkpt><trkpt lat="42.59426560860161" lon="12.506243065891082"><ele>207.16666666666666</ele><time>2026-05-02T09:16:13Z</time></trkpt><trkpt lat="42.5942764267403" lon="12.506329811222802"><ele>206.33333333333331</ele><time>2026-05-02T09:16:14Z</time></trkpt><trkpt lat="42.5942697422552" lon="12.506426570655746"><ele>205.5</ele><time>2026-05-02T09:16:15Z</time></trkpt><trkpt lat="42.59431683658665" lon="12.506578100700684"><ele>204.66666666666669</ele><time>2026-05-02T09:16:16.999Z</time></trkpt><trkpt lat="42.594352948332556" lon="12.506696976698766"><ele>203.83333333333334</ele><time>2026-05-02T09:16:18.999Z</time></trkpt><trkpt lat="42.594409420731864" lon="12.506762951802449"><ele>203.0</ele><time>2026-05-02T09:16:20.999Z</time></trkpt><trkpt lat="42.594515905645224" lon="12.506765259655316"><ele>200.83333333333334</ele><time>2026-05-02T09:16:22.999Z</time></trkpt><trkpt lat="42.594593492393116" lon="12.506750337532711"><ele>198.66666666666669</ele><time>2026-05-02T09:16:23.999Z</time></trkpt><trkpt lat="42.59466418181845" lon="12.506733864009899"><ele>196.5</ele><time>2026-05-02T09:16:24.999Z</time></trkpt><trkpt lat="42.59477252405153" lon="12.506720364213587"><ele>194.33333333333334</ele><time>2026-05-02T09:16:26.999Z</time></trkpt><trkpt lat="42.594840947052354" lon="12.506705142440579"><ele>192.16666666666669</ele><time>2026-05-02T09:16:28.999Z</time></trkpt><trkpt lat="42.59491429856573" lon="12.506736035618285"><ele>190.0</ele><time>2026-05-02T09:18:14Z</time></trkpt><trkpt lat="42.59500913585011" lon="12.506764720318463"><ele>190.0</ele><time>2026-05-02T09:18:16Z</time></trkpt><trkpt lat="42.595098401473656" lon="12.506800140025284"><ele>190.0</ele><time>2026-05-02T09:18:18Z</time></trkpt><trkpt lat="42.59519424126572" lon="12.506837358919908"><ele>190.0</ele><time>2026-05-02T09:18:20Z</time></trkpt><trkpt lat="42.59528946164189" lon="12.506916013342096"><ele>190.0</ele><time>2026-05-02T09:18:22Z</time></trkpt><trkpt lat="42.595401758752686" lon="12.506957322166633"><ele>190.0</ele><time>2026-05-02T09:18:24Z</time></trkpt><trkpt lat="42.59550474324415" lon="12.507039036177027"><ele>186.8</ele><time>2026-05-02T09:18:26Z</time></trkpt><trkpt lat="42.59560990812443" lon="12.507078282768397"><ele>183.6</ele><time>2026-05-02T09:18:28Z</time></trkpt><trkpt lat="42.595704665030645" lon="12.507149620773813"><ele>180.39999999999998</ele><time>2026-05-02T09:18:30Z</time></trkpt><trkpt lat="42.595809472580235" lon="12.507207309721034"><ele>177.2</ele><time>2026-05-02T09:18:32Z</time></trkpt><trkpt lat="42.59587093416565" lon="12.507241139861547"><ele>174.0</ele><time>2026-05-02T09:18:33Z</time></trkpt><trkpt lat="42.595939682791794" lon="12.507262268389269"><ele>174.0</ele><time>2026-05-02T09:18:34Z</time></trkpt><trkpt lat="42.596046057143646" lon="12.50732095397404"><ele>174.0</ele><time>2026-05-02T09:18:36Z</time></trkpt><trkpt lat="42.596125999084485" lon="12.507363752277914"><ele>174.0</ele><time>2026-05-02T09:18:38Z</time></trkpt><trkpt lat="42.596218661141606" lon="12.507419678777488"><ele>174.0</ele><time>2026-05-02T09:18:40Z</time></trkpt><trkpt lat="42.59631694511902" lon="12.507516966489632"><ele>174.0</ele><time>2026-05-02T09:18:42Z</time></trkpt><trkpt lat="42.596338578288275" lon="12.507609053828466"><ele>172.16666666666666</ele><time>2026-05-02T09:18:43Z</time></trkpt><trkpt lat="42.59636803921299" lon="12.507694198814983"><ele>170.33333333333334</ele><time>2026-05-02T09:18:44Z</time></trkpt><trkpt lat="42.5964089317869" lon="12.507769838440126"><ele>168.5</ele><time>2026-05-02T09:18:45Z</time></trkpt><trkpt lat="42.596450082593314" lon="12.507884816000217"><ele>166.66666666666669</ele><time>2026-05-02T09:18:46Z</time></trkpt><trkpt lat="42.59648512064573" lon="12.50800073413983"><ele>164.83333333333334</ele><time>2026-05-02T09:18:47Z</time></trkpt><trkpt lat="42.59650811470933" lon="12.508100411150906"><ele>163.0</ele><time>2026-05-02T09:18:48Z</time></trkpt><trkpt lat="42.596514280823506" lon="12.508212463272962"><ele>162.71428571428572</ele><time>2026-05-02T09:18:49Z</time></trkpt><trkpt lat="42.59652618852332" lon="12.508306704097448"><ele>162.42857142857142</ele><time>2026-05-02T09:18:50Z</time></trkpt><trkpt lat="42.5965315046341" lon="12.50841418477516"><ele>162.14285714285714</ele><time>2026-05-02T09:18:51Z</time></trkpt><trkpt lat="42.59652636716167" lon="12.50852170298209"><ele>161.85714285714286</ele><time>2026-05-02T09:18:52Z</time></trkpt><trkpt lat="42.596518242546566" lon="12.508620285899728"><ele>161.57142857142856</ele><time>2026-05-02T09:18:53Z</time></trkpt><trkpt lat="42.59650592955197" lon="12.508718078013064"><ele>161.28571428571428</ele><time>2026-05-02T09:18:54Z</time></trkpt><trkpt lat="42.59649280997785" lon="12.508809734812345"><ele>161.0</ele><time>2026-05-02T09:18:55Z</time></trkpt><trkpt lat="42.596484362675234" lon="12.50890082763875"><ele>160.5</ele><time>2026-05-02T09:18:56Z</time></trkpt><trkpt lat="42.59648168400667" lon="12.50899322898988"><ele>160.0</ele><time>2026-05-02T09:18:57Z</time></trkpt><trkpt lat="42.59650989295769" lon="12.509150171882872"><ele>159.5</ele><time>2026-05-02T09:18:59Z</time></trkpt><trkpt lat="42.59654261821257" lon="12.509225180423927"><ele>159.0</ele><time>2026-05-02T09:19:00Z</time></trkpt><trkpt lat="42.59659828601283" lon="12.50929508863205"><ele>158.5</ele><time>2026-05-02T09:19:01Z</time></trkpt><trkpt lat="42.59665961070788" lon="12.509342704791715"><ele>158.0</ele><time>2026-05-02T09:19:02Z</time></trkpt><trkpt lat="42.596734327087276" lon="12.50938703279928"><ele>158.0</ele><time>2026-05-02T09:19:03Z</time></trkpt><trkpt lat="42.59681734758853" lon="12.509439604288522"><ele>158.0</ele><time>2026-05-02T09:19:04Z</time></trkpt><trkpt lat="42.59689033462971" lon="12.509486672937356"><ele>158.0</ele><time>2026-05-02T09:19:05Z</time></trkpt><trkpt lat="42.596976676805546" lon="12.509545714731605"><ele>158.0</ele><time>2026-05-02T09:19:06Z</time></trkpt><trkpt lat="42.597051507106684" lon="12.5095968845697"><ele>158.0</ele><time>2026-05-02T09:19:07Z</time></trkpt><trkpt lat="42.59713376086411" lon="12.50965313065348"><ele>158.0</ele><time>2026-05-02T09:19:08Z</time></trkpt><trkpt lat="42.59721854026503" lon="12.509711103803411"><ele>157.16666666666666</ele><time>2026-05-02T09:19:09Z</time></trkpt><trkpt lat="42.597309184302965" lon="12.509773078512737"><ele>156.33333333333331</ele><time>2026-05-02T09:19:10Z</time></trkpt><trkpt lat="42.59738476403882" lon="12.509821265751762"><ele>155.5</ele><time>2026-05-02T09:19:11Z</time></trkpt><trkpt lat="42.59747941507287" lon="12.50988020011048"><ele>154.66666666666666</ele><time>2026-05-02T09:19:12Z</time></trkpt><trkpt lat="42.59755793635953" lon="12.509924784937771"><ele>153.83333333333334</ele><time>2026-05-02T09:19:13Z</time></trkpt><trkpt lat="42.59762819784907" lon="12.509957423297095"><ele>153.0</ele><time>2026-05-02T09:19:14Z</time></trkpt><trkpt lat="42.59769904217566" lon="12.509984017129554"><ele>153.0</ele><time>2026-05-02T09:19:15Z</time></trkpt><trkpt lat="42.59778185333793" lon="12.51000371599081"><ele>153.0</ele><time>2026-05-02T09:19:16Z</time></trkpt><trkpt lat="42.597846739908796" lon="12.510019631569838"><ele>153.0</ele><time>2026-05-02T09:19:17Z</time></trkpt><trkpt lat="42.59794419558152" lon="12.51003418691434"><ele>153.0</ele><time>2026-05-02T09:19:19Z</time></trkpt><trkpt lat="42.59801539219912" lon="12.509784746661763"><ele>153.0</ele><time>2026-05-02T09:19:59Z</time></trkpt><trkpt lat="42.59800551655142" lon="12.509576644723113"><ele>153.0</ele><time>2026-05-02T09:20:01Z</time></trkpt><trkpt lat="42.597998057201686" lon="12.509462960969568"><ele>153.0</ele><time>2026-05-02T09:20:02Z</time></trkpt><trkpt lat="42.59798505841208" lon="12.50935075981447"><ele>153.0</ele><time>2026-05-02T09:20:03Z</time></trkpt><trkpt lat="42.597962920382585" lon="12.50924358182706"><ele>153.0</ele><time>2026-05-02T09:20:04Z</time></trkpt><trkpt lat="42.59795420001504" lon="12.509139113302867"><ele>153.0</ele><time>2026-05-02T09:20:05Z</time></trkpt><trkpt lat="42.5979772864857" lon="12.508979762932803"><ele>153.0</ele><time>2026-05-02T09:20:07Z</time></trkpt><trkpt lat="42.59805152490178" lon="12.508832727628581"><ele>153.0</ele><time>2026-05-02T09:20:09Z</time></trkpt><trkpt lat="42.59809013456482" lon="12.508752610975815"><ele>153.0</ele><time>2026-05-02T09:20:10Z</time></trkpt><trkpt lat="42.598133918723285" lon="12.508672423806894"><ele>153.0</ele><time>2026-05-02T09:20:11Z</time></trkpt><trkpt lat="42.598195842383674" lon="12.508536087742163"><ele>153.0</ele><time>2026-05-02T09:20:13Z</time></trkpt><trkpt lat="42.59826599213269" lon="12.50843427629586"><ele>153.0</ele><time>2026-05-02T09:20:15Z</time></trkpt><trkpt lat="42.598319421015425" lon="12.508334203434135"><ele>153.33333333333334</ele><time>2026-05-02T09:20:17Z</time></trkpt><trkpt lat="42.5983770803621" lon="12.508272078882014"><ele>153.66666666666666</ele><time>2026-05-02T09:20:18Z</time></trkpt><trkpt lat="42.59842173774774" lon="12.508192192122038"><ele>154.0</ele><time>2026-05-02T09:20:19Z</time></trkpt><trkpt lat="42.598457821676384" lon="12.50808895573411"><ele>154.33333333333331</ele><time>2026-05-02T09:20:20Z</time></trkpt><trkpt lat="42.598476797647905" lon="12.50799775471245"><ele>154.66666666666666</ele><time>2026-05-02T09:20:21Z</time></trkpt><trkpt lat="42.59847514263943" lon="12.50787644166765"><ele>155.0</ele><time>2026-05-02T09:20:23Z</time></trkpt><trkpt lat="42.59850742578079" lon="12.507745670280956"><ele>155.0</ele><time>2026-05-02T09:20:25Z</time></trkpt><trkpt lat="42.59880028595616" lon="12.507701064920408"><ele>155.0</ele><time>2026-05-02T09:20:26Z</time></trkpt><trkpt lat="42.59885908699717" lon="12.507577737150946"><ele>155.0</ele><time>2026-05-02T09:20:28Z</time></trkpt><trkpt lat="42.59888421140073" lon="12.507474427767237"><ele>155.0</ele><time>2026-05-02T09:20:30Z</time></trkpt><trkpt lat="42.5988971054606" lon="12.507334545991938"><ele>155.0</ele><time>2026-05-02T09:20:33Z</time></trkpt><trkpt lat="42.598896674620896" lon="12.507223907153763"><ele>155.0</ele><time>2026-05-02T09:20:35Z</time></trkpt><trkpt lat="42.59887765626194" lon="12.507133190294908"><ele>155.0</ele><time>2026-05-02T09:20:37Z</time></trkpt><trkpt lat="42.59888049284191" lon="12.507013052270654"><ele>155.0</ele><time>2026-05-02T09:20:39Z</time></trkpt><trkpt lat="42.59891842618952" lon="12.506914004533883"><ele>155.0</ele><time>2026-05-02T09:20:41Z</time></trkpt><trkpt lat="42.598961344416665" lon="12.50682117049821"><ele>155.4</ele><time>2026-05-02T09:20:44Z</time></trkpt><trkpt lat="42.59903776866763" lon="12.506738585537283"><ele>155.8</ele><time>2026-05-02T09:20:46Z</time></trkpt><trkpt lat="42.59914553637831" lon="12.506665293398834"><ele>156.2</ele><time>2026-05-02T09:20:48Z</time></trkpt><trkpt lat="42.59920666460616" lon="12.50661878135212"><ele>156.6</ele><time>2026-05-02T09:20:49Z</time></trkpt><trkpt lat="42.599320797781516" lon="12.506559009894227"><ele>157.0</ele><time>2026-05-02T09:20:51Z</time></trkpt><trkpt lat="42.59938523417406" lon="12.506533276009078"><ele>157.0</ele><time>2026-05-02T09:20:52Z</time></trkpt><trkpt lat="42.59944317467626" lon="12.506490014910492"><ele>157.0</ele><time>2026-05-02T09:20:53Z</time></trkpt><trkpt lat="42.599511912727316" lon="12.506437961882437"><ele>157.0</ele><time>2026-05-02T09:20:54Z</time></trkpt><trkpt lat="42.599599073999606" lon="12.506387216267171"><ele>157.0</ele><time>2026-05-02T09:20:56Z</time></trkpt><trkpt lat="42.59966763696053" lon="12.506364323547535"><ele>157.0</ele><time>2026-05-02T09:20:58Z</time></trkpt><trkpt lat="42.59975837145799" lon="12.506372102697293"><ele>157.0</ele><time>2026-05-02T09:21:01Z</time></trkpt><trkpt lat="42.59982869697872" lon="12.50640711855388"><ele>157.2</ele><time>2026-05-02T09:21:03Z</time></trkpt><trkpt lat="42.59989662892722" lon="12.506466187036532"><ele>157.39999999999998</ele><time>2026-05-02T09:21:05Z</time></trkpt><trkpt lat="42.599972218754" lon="12.506557911613262"><ele>157.60000000000002</ele><time>2026-05-02T09:21:07Z</time></trkpt><trkpt lat="42.60005427984504" lon="12.506651250185012"><ele>157.8</ele><time>2026-05-02T09:21:09Z</time></trkpt><trkpt lat="42.60012360962068" lon="12.506720204409174"><ele>158.0</ele><time>2026-05-02T09:21:11Z</time></trkpt><trkpt lat="42.60019653437984" lon="12.506693380118566"><ele>158.0</ele><time>2026-05-02T09:22:14Z</time></trkpt><trkpt lat="42.60026156329574" lon="12.506686678686243"><ele>158.0</ele><time>2026-05-02T09:22:55Z</time></trkpt><trkpt lat="42.600333327465805" lon="12.506658008408715"><ele>158.0</ele><time>2026-05-02T09:23:21Z</time></trkpt><trkpt lat="42.600397515807344" lon="12.50662937541139"><ele>158.0</ele><time>2026-05-02T09:23:23Z</time></trkpt><trkpt lat="42.600477221654174" lon="12.506590183820496"><ele>158.0</ele><time>2026-05-02T09:23:25Z</time></trkpt><trkpt lat="42.60057686850234" lon="12.506541998752143"><ele>158.0</ele><time>2026-05-02T09:23:27Z</time></trkpt><trkpt lat="42.600665821312525" lon="12.506475401004867"><ele>158.0</ele><time>2026-05-02T09:23:29Z</time></trkpt><trkpt lat="42.60072915786798" lon="12.50640165362504"><ele>158.0</ele><time>2026-05-02T09:23:31Z</time></trkpt><trkpt lat="42.600805491355196" lon="12.50631396876298"><ele>158.0</ele><time>2026-05-02T09:23:33Z</time></trkpt><trkpt lat="42.600877848709416" lon="12.50624943992332"><ele>158.0</ele><time>2026-05-02T09:23:35Z</time></trkpt><trkpt lat="42.60093725625057" lon="12.506191626700774"><ele>158.0</ele><time>2026-05-02T09:23:37Z</time></trkpt><trkpt lat="42.601021179325976" lon="12.506112215607855"><ele>158.0</ele><time>2026-05-02T09:23:39Z</time></trkpt><trkpt lat="42.60111414372703" lon="12.506038062950209"><ele>158.60000000000002</ele><time>2026-05-02T09:23:41Z</time></trkpt><trkpt lat="42.60118433685538" lon="12.50595772544461"><ele>159.20000000000002</ele><time>2026-05-02T09:23:43Z</time></trkpt><trkpt lat="42.60127538492601" lon="12.505878221957088"><ele>159.8</ele><time>2026-05-02T09:23:45Z</time></trkpt><trkpt lat="42.601369082916335" lon="12.505808296282659"><ele>160.4</ele><time>2026-05-02T09:23:47Z</time></trkpt><trkpt lat="42.60147697691261" lon="12.505770045412223"><ele>161.0</ele><time>2026-05-02T09:23:49Z</time></trkpt><trkpt lat="42.60158352935707" lon="12.505748158242685"><ele>161.0</ele><time>2026-05-02T09:23:51Z</time></trkpt><trkpt lat="42.60168367548833" lon="12.505737137665033"><ele>161.0</ele><time>2026-05-02T09:23:53Z</time></trkpt><trkpt lat="42.60180792353773" lon="12.505780213396543"><ele>161.0</ele><time>2026-05-02T09:23:55Z</time></trkpt><trkpt lat="42.601871413686894" lon="12.505810824770728"><ele>161.0</ele><time>2026-05-02T09:23:56Z</time></trkpt><trkpt lat="42.601979740453686" lon="12.505845963490774"><ele>161.0</ele><time>2026-05-02T09:23:58Z</time></trkpt><trkpt lat="42.60210328428703" lon="12.50587224982534"><ele>160.20000000000002</ele><time>2026-05-02T09:24:00Z</time></trkpt><trkpt lat="42.602219954349216" lon="12.505912522533931"><ele>159.4</ele><time>2026-05-02T09:24:02Z</time></trkpt><trkpt lat="42.602314474401524" lon="12.505986527648163"><ele>158.6</ele><time>2026-05-02T09:24:04Z</time></trkpt><trkpt lat="42.60237087381881" lon="12.50602949678604"><ele>157.8</ele><time>2026-05-02T09:24:05Z</time></trkpt><trkpt lat="42.60242565087855" lon="12.506072398007927"><ele>157.0</ele><time>2026-05-02T09:24:06Z</time></trkpt><trkpt lat="42.602537895411146" lon="12.50614483615327"><ele>157.0</ele><time>2026-05-02T09:24:08Z</time></trkpt><trkpt lat="42.6026465336283" lon="12.506208205690918"><ele>157.0</ele><time>2026-05-02T09:24:10Z</time></trkpt><trkpt lat="42.60274949331782" lon="12.506249852444755"><ele>157.0</ele><time>2026-05-02T09:24:12Z</time></trkpt><trkpt lat="42.60285567399092" lon="12.506288786847021"><ele>157.0</ele><time>2026-05-02T09:24:14Z</time></trkpt><trkpt lat="42.6029710335989" lon="12.506328203013805"><ele>157.4</ele><time>2026-05-02T09:24:16Z</time></trkpt><trkpt lat="42.60306608422481" lon="12.506365836189634"><ele>157.79999999999998</ele><time>2026-05-02T09:24:18Z</time></trkpt><trkpt lat="42.603166103257614" lon="12.506407174239204"><ele>158.2</ele><time>2026-05-02T09:24:20Z</time></trkpt><trkpt lat="42.603270724249896" lon="12.506439970620656"><ele>158.6</ele><time>2026-05-02T09:24:22Z</time></trkpt><trkpt lat="42.6033305751824" lon="12.506468669266408"><ele>159.0</ele><time>2026-05-02T09:24:23Z</time></trkpt><trkpt lat="42.603427539283786" lon="12.506530457849006"><ele>159.0</ele><time>2026-05-02T09:24:25Z</time></trkpt><trkpt lat="42.603544769395754" lon="12.506586199302799"><ele>159.0</ele><time>2026-05-02T09:24:27Z</time></trkpt><trkpt lat="42.603631284541635" lon="12.506607256692233"><ele>159.0</ele><time>2026-05-02T09:24:29Z</time></trkpt><trkpt lat="42.60375134061865" lon="12.506623060727634"><ele>159.0</ele><time>2026-05-02T09:24:31Z</time></trkpt><trkpt lat="42.60386083584644" lon="12.50662274872656"><ele>159.0</ele><time>2026-05-02T09:24:33Z</time></trkpt><trkpt lat="42.60397114902681" lon="12.50660192620387"><ele>159.0</ele><time>2026-05-02T09:24:35Z</time></trkpt><trkpt lat="42.60408791589222" lon="12.506584766973017"><ele>159.0</ele><time>2026-05-02T09:24:37Z</time></trkpt><trkpt lat="42.60421342245553" lon="12.506586267641916"><ele>159.0</ele><time>2026-05-02T09:24:39Z</time></trkpt><trkpt lat="42.60432894078579" lon="12.506588777268236"><ele>159.0</ele><time>2026-05-02T09:24:41Z</time></trkpt><trkpt lat="42.604434748387234" lon="12.506574110170451"><ele>159.25</ele><time>2026-05-02T09:24:43Z</time></trkpt><trkpt lat="42.604549796257345" lon="12.506539488885663"><ele>159.5</ele><time>2026-05-02T09:24:45Z</time></trkpt><trkpt lat="42.60464920684317" lon="12.506476420496437"><ele>159.75</ele><time>2026-05-02T09:24:47Z</time></trkpt><trkpt lat="42.604755644336535" lon="12.506397932222132"><ele>160.0</ele><time>2026-05-02T09:24:49Z</time></trkpt><trkpt lat="42.60485077125679" lon="12.506318813080133"><ele>159.8</ele><time>2026-05-02T09:24:51Z</time></trkpt><trkpt lat="42.604953261474314" lon="12.50623612513269"><ele>159.6</ele><time>2026-05-02T09:24:53Z</time></trkpt><trkpt lat="42.60505005092646" lon="12.506148829056285"><ele>159.4</ele><time>2026-05-02T09:24:55Z</time></trkpt><trkpt lat="42.60514649884622" lon="12.50605850985269"><ele>159.2</ele><time>2026-05-02T09:24:57Z</time></trkpt><trkpt lat="42.605196368111365" lon="12.506005867800477"><ele>159.0</ele><time>2026-05-02T09:24:58Z</time></trkpt><trkpt lat="42.60527292388411" lon="12.505912248773313"><ele>159.2</ele><time>2026-05-02T09:25:00Z</time></trkpt><trkpt lat="42.605353216603135" lon="12.505804548105491"><ele>159.4</ele><time>2026-05-02T09:25:02Z</time></trkpt><trkpt lat="42.60543421465042" lon="12.505663223665383"><ele>159.6</ele><time>2026-05-02T09:25:04Z</time></trkpt><trkpt lat="42.605516776621315" lon="12.505543138917922"><ele>159.8</ele><time>2026-05-02T09:25:06Z</time></trkpt><trkpt lat="42.605566606801744" lon="12.505489070919994"><ele>160.0</ele><time>2026-05-02T09:25:07Z</time></trkpt><trkpt lat="42.60567105351016" lon="12.505411160812823"><ele>160.75</ele><time>2026-05-02T09:25:09Z</time></trkpt><trkpt lat="42.605781521507886" lon="12.505332573038547"><ele>161.5</ele><time>2026-05-02T09:25:11Z</time></trkpt><trkpt lat="42.605888580226384" lon="12.505260970908367"><ele>162.25</ele><time>2026-05-02T09:25:13Z</time></trkpt><trkpt lat="42.6059960604827" lon="12.505210898590807"><ele>163.0</ele><time>2026-05-02T09:25:15Z</time></trkpt><trkpt lat="42.606097643203036" lon="12.505169439858882"><ele>163.2</ele><time>2026-05-02T09:25:17Z</time></trkpt><trkpt lat="42.6062079015309" lon="12.505159416149342"><ele>163.4</ele><time>2026-05-02T09:25:19Z</time></trkpt><trkpt lat="42.60632467262439" lon="12.505165018857333"><ele>163.6</ele><time>2026-05-02T09:25:21Z</time></trkpt><trkpt lat="42.60642586191674" lon="12.505193916792383"><ele>163.79999999999998</ele><time>2026-05-02T09:25:23Z</time></trkpt><trkpt lat="42.606505813631344" lon="12.505220712365364"><ele>164.0</ele><time>2026-05-02T09:25:25Z</time></trkpt><trkpt lat="42.60657976586496" lon="12.505178698915138"><ele>164.0</ele><time>2026-05-02T09:25:27Z</time></trkpt><trkpt lat="42.60662735385746" lon="12.505100593993502"><ele>164.0</ele><time>2026-05-02T09:25:29Z</time></trkpt><trkpt lat="42.60666729179648" lon="12.50499490424747"><ele>164.0</ele><time>2026-05-02T09:25:49Z</time></trkpt><trkpt lat="42.60673196847198" lon="12.504828253101474"><ele>164.0</ele><time>2026-05-02T09:25:51Z</time></trkpt><trkpt lat="42.6067673717195" lon="12.504738803980535"><ele>164.0</ele><time>2026-05-02T09:25:52Z</time></trkpt><trkpt lat="42.60680494056974" lon="12.504609057289288"><ele>164.0</ele><time>2026-05-02T09:25:54Z</time></trkpt><trkpt lat="42.606825345719805" lon="12.504527062880308"><ele>164.0</ele><time>2026-05-02T09:25:56Z</time></trkpt><trkpt lat="42.606932260192714" lon="12.504428619128603"><ele>164.0</ele><time>2026-05-02T09:25:58Z</time></trkpt><trkpt lat="42.607001638369255" lon="12.504382755724377"><ele>164.0</ele><time>2026-05-02T09:25:59Z</time></trkpt><trkpt lat="42.607066313102735" lon="12.504354595438727"><ele>164.0</ele><time>2026-05-02T09:26:00Z</time></trkpt><trkpt lat="42.60713141119188" lon="12.504305415439944"><ele>164.0</ele><time>2026-05-02T09:26:01Z</time></trkpt><trkpt lat="42.607226288672" lon="12.504205380618693"><ele>164.0</ele><time>2026-05-02T09:26:03Z</time></trkpt><trkpt lat="42.607289723871396" lon="12.504056216318014"><ele>164.0</ele><time>2026-05-02T09:26:05Z</time></trkpt><trkpt lat="42.60732093701442" lon="12.503966309640836"><ele>164.0</ele><time>2026-05-02T09:26:06Z</time></trkpt><trkpt lat="42.60735948963892" lon="12.503875619310675"><ele>164.0</ele><time>2026-05-02T09:26:07Z</time></trkpt><trkpt lat="42.60742026242619" lon="12.503752738778417"><ele>164.0</ele><time>2026-05-02T09:26:09Z</time></trkpt><trkpt lat="42.607437916159085" lon="12.503660208589073"><ele>163.85714285714283</ele><time>2026-05-02T09:26:10Z</time></trkpt><trkpt lat="42.607443629948236" lon="12.503553104699709"><ele>163.71428571428572</ele><time>2026-05-02T09:26:11Z</time></trkpt><trkpt lat="42.60742474350575" lon="12.503454647255598"><ele>163.57142857142856</ele><time>2026-05-02T09:26:12Z</time></trkpt><trkpt lat="42.607411423787944" lon="12.503367836660033"><ele>163.42857142857142</ele><time>2026-05-02T09:26:13Z</time></trkpt><trkpt lat="42.60740689318271" lon="12.503273028997413"><ele>163.28571428571428</ele><time>2026-05-02T09:26:14Z</time></trkpt><trkpt lat="42.607405744357315" lon="12.50317508292092"><ele>163.14285714285714</ele><time>2026-05-02T09:26:15Z</time></trkpt><trkpt lat="42.60739543084615" lon="12.503076239162924"><ele>163.0</ele><time>2026-05-02T09:26:16Z</time></trkpt><trkpt lat="42.60736315445004" lon="12.502926362467804"><ele>163.33333333333334</ele><time>2026-05-02T09:26:18Z</time></trkpt><trkpt lat="42.60735082552911" lon="12.502812641030243"><ele>163.66666666666669</ele><time>2026-05-02T09:26:19Z</time></trkpt><trkpt lat="42.60733973881461" lon="12.502710916090239"><ele>164.0</ele><time>2026-05-02T09:26:20Z</time></trkpt><trkpt lat="42.607326198799846" lon="12.5026156541185"><ele>164.33333333333334</ele><time>2026-05-02T09:26:21Z</time></trkpt><trkpt lat="42.60731563799531" lon="12.502522649559896"><ele>164.66666666666666</ele><time>2026-05-02T09:26:22Z</time></trkpt><trkpt lat="42.60734192046189" lon="12.50237667664944"><ele>165.0</ele><time>2026-05-02T09:26:24Z</time></trkpt><trkpt lat="42.6073819109619" lon="12.502296973401638"><ele>165.0</ele><time>2026-05-02T09:26:25Z</time></trkpt><trkpt lat="42.60743261625592" lon="12.502235446731902"><ele>165.0</ele><time>2026-05-02T09:26:26Z</time></trkpt><trkpt lat="42.60748982525032" lon="12.502182196251926"><ele>165.0</ele><time>2026-05-02T09:26:27Z</time></trkpt><trkpt lat="42.60755983775814" lon="12.502117647465118"><ele>165.0</ele><time>2026-05-02T09:26:28Z</time></trkpt><trkpt lat="42.607649067530616" lon="12.50200947061868"><ele>165.0</ele><time>2026-05-02T09:26:30Z</time></trkpt><trkpt lat="42.60767148238836" lon="12.501907664046666"><ele>165.0</ele><time>2026-05-02T09:26:31Z</time></trkpt><trkpt lat="42.60768736065804" lon="12.501802716299897"><ele>165.5</ele><time>2026-05-02T09:26:32Z</time></trkpt><trkpt lat="42.60773941306077" lon="12.501690423325906"><ele>166.0</ele><time>2026-05-02T09:26:34Z</time></trkpt><trkpt lat="42.60778182611757" lon="12.501602715640056"><ele>166.5</ele><time>2026-05-02T09:26:35Z</time></trkpt><trkpt lat="42.607810984009426" lon="12.501505944180147"><ele>167.0</ele><time>2026-05-02T09:26:36Z</time></trkpt><trkpt lat="42.607833174982446" lon="12.501409722622345"><ele>167.5</ele><time>2026-05-02T09:26:37Z</time></trkpt><trkpt lat="42.607846483816104" lon="12.501314133561577"><ele>168.0</ele><time>2026-05-02T09:26:38Z</time></trkpt><trkpt lat="42.60784472491944" lon="12.501203062977325"><ele>168.33333333333334</ele><time>2026-05-02T09:26:39Z</time></trkpt><trkpt lat="42.60783569945984" lon="12.501099703836386"><ele>168.66666666666666</ele><time>2026-05-02T09:26:40Z</time></trkpt><trkpt lat="42.607831855793016" lon="12.501000205768024"><ele>169.0</ele><time>2026-05-02T09:26:41Z</time></trkpt><trkpt lat="42.607860153599056" lon="12.500875966525813"><ele>169.33333333333331</ele><time>2026-05-02T09:26:43Z</time></trkpt><trkpt lat="42.60790539430625" lon="12.500815378237878"><ele>169.66666666666666</ele><time>2026-05-02T09:26:44Z</time></trkpt><trkpt lat="42.607961195789784" lon="12.500750579773854"><ele>170.0</ele><time>2026-05-02T09:26:45Z</time></trkpt><trkpt lat="42.60801323184673" lon="12.500686026034744"><ele>170.0</ele><time>2026-05-02T09:26:46Z</time></trkpt><trkpt lat="42.60805665027671" lon="12.50061948464103"><ele>170.0</ele><time>2026-05-02T09:26:47Z</time></trkpt><trkpt lat="42.60810730969994" lon="12.500529930145204"><ele>170.0</ele><time>2026-05-02T09:26:49Z</time></trkpt><trkpt lat="42.60808562525969" lon="12.500400843046453"><ele>170.0</ele><time>2026-05-02T09:26:52Z</time></trkpt><trkpt lat="42.608000343573295" lon="12.500328397177903"><ele>170.0</ele><time>2026-05-02T09:26:54Z</time></trkpt><trkpt lat="42.607931055103926" lon="12.50030478031649"><ele>170.0</ele><time>2026-05-02T09:26:55Z</time></trkpt><trkpt lat="42.60786321157872" lon="12.500266615454688"><ele>170.16666666666666</ele><time>2026-05-02T09:26:56Z</time></trkpt><trkpt lat="42.60780125539421" lon="12.500169333368007"><ele>170.33333333333331</ele><time>2026-05-02T09:26:58Z</time></trkpt><trkpt lat="42.60779139500978" lon="12.50004522778688"><ele>170.5</ele><time>2026-05-02T09:27:00Z</time></trkpt><trkpt lat="42.60779901519312" lon="12.499951539788098"><ele>170.66666666666666</ele><time>2026-05-02T09:27:01Z</time></trkpt><trkpt lat="42.60781624523229" lon="12.499851222037913"><ele>170.83333333333334</ele><time>2026-05-02T09:27:02Z</time></trkpt><trkpt lat="42.607821731638786" lon="12.499735221792523"><ele>171.0</ele><time>2026-05-02T09:27:03Z</time></trkpt><trkpt lat="42.60782757912747" lon="12.49964042652389"><ele>171.8</ele><time>2026-05-02T09:27:04Z</time></trkpt><trkpt lat="42.607883196768164" lon="12.49948040196075"><ele>172.60000000000002</ele><time>2026-05-02T09:27:06Z</time></trkpt><trkpt lat="42.60791817593078" lon="12.499373764269318"><ele>173.4</ele><time>2026-05-02T09:27:07Z</time></trkpt><trkpt lat="42.607938591486835" lon="12.499230204807324"><ele>174.2</ele><time>2026-05-02T09:27:08Z</time></trkpt><trkpt lat="42.60794021676074" lon="12.499060420788215"><ele>175.0</ele><time>2026-05-02T09:27:09Z</time></trkpt><trkpt lat="42.607958465458545" lon="12.498868883512497"><ele>175.0</ele><time>2026-05-02T09:27:10Z</time></trkpt><trkpt lat="42.608002118123416" lon="12.498678710446343"><ele>175.0</ele><time>2026-05-02T09:27:11Z</time></trkpt><trkpt lat="42.60805499269883" lon="12.49850600166004"><ele>175.0</ele><time>2026-05-02T09:27:12Z</time></trkpt><trkpt lat="42.608139206385246" lon="12.498339942956118"><ele>175.0</ele><time>2026-05-02T09:27:13Z</time></trkpt><trkpt lat="42.608166880086024" lon="12.498176643788339"><ele>175.0</ele><time>2026-05-02T09:27:14Z</time></trkpt><trkpt lat="42.608195145966114" lon="12.498010758677427"><ele>175.0</ele><time>2026-05-02T09:27:15Z</time></trkpt><trkpt lat="42.60822171005993" lon="12.497873050410533"><ele>175.0</ele><time>2026-05-02T09:27:16Z</time></trkpt><trkpt lat="42.608251758894625" lon="12.49776369383624"><ele>175.0</ele><time>2026-05-02T09:27:17Z</time></trkpt><trkpt lat="42.60828998973426" lon="12.497675143679322"><ele>175.0</ele><time>2026-05-02T09:27:18Z</time></trkpt><trkpt lat="42.60833312081315" lon="12.49760960808139"><ele>175.4</ele><time>2026-05-02T09:27:19Z</time></trkpt><trkpt lat="42.60843291020911" lon="12.497549700696036"><ele>175.8</ele><time>2026-05-02T09:27:21Z</time></trkpt><trkpt lat="42.60854877923946" lon="12.497686941531935"><ele>176.2</ele><time>2026-05-02T09:27:22Z</time></trkpt><trkpt lat="42.608612456760056" lon="12.497727761546635"><ele>176.6</ele><time>2026-05-02T09:27:23Z</time></trkpt><trkpt lat="42.60867711202673" lon="12.497712572839832"><ele>177.0</ele><time>2026-05-02T09:27:24Z</time></trkpt><trkpt lat="42.608721532089646" lon="12.4976436801281"><ele>178.39999999999998</ele><time>2026-05-02T09:27:25Z</time></trkpt><trkpt lat="42.608755076614976" lon="12.497528714087618"><ele>179.79999999999998</ele><time>2026-05-02T09:27:26Z</time></trkpt><trkpt lat="42.60879873254325" lon="12.497407036985281"><ele>181.2</ele><time>2026-05-02T09:27:27Z</time></trkpt><trkpt lat="42.60884308335993" lon="12.497284186127976"><ele>182.6</ele><time>2026-05-02T09:27:28Z</time></trkpt><trkpt lat="42.60890712405798" lon="12.497147980339571"><ele>184.0</ele><time>2026-05-02T09:27:29Z</time></trkpt><trkpt lat="42.608988855513694" lon="12.497080495445294"><ele>184.0</ele><time>2026-05-02T09:27:30Z</time></trkpt><trkpt lat="42.60907703007475" lon="12.497046577949268"><ele>184.0</ele><time>2026-05-02T09:27:31Z</time></trkpt><trkpt lat="42.60915154557981" lon="12.497068070433656"><ele>184.0</ele><time>2026-05-02T09:27:32Z</time></trkpt><trkpt lat="42.609216112783685" lon="12.497087853356645"><ele>184.0</ele><time>2026-05-02T09:27:33Z</time></trkpt><trkpt lat="42.609287821257695" lon="12.497114079202897"><ele>184.0</ele><time>2026-05-02T09:27:35Z</time></trkpt><trkpt lat="42.609379141082755" lon="12.497160951256737"><ele>184.0</ele><time>2026-05-02T09:27:37Z</time></trkpt><trkpt lat="42.609481864384364" lon="12.49724405127746"><ele>185.83333333333334</ele><time>2026-05-02T09:27:39Z</time></trkpt><trkpt lat="42.60952487162446" lon="12.497322451227838"><ele>187.66666666666669</ele><time>2026-05-02T09:27:40Z</time></trkpt><trkpt lat="42.60955464776382" lon="12.49741345945954"><ele>189.5</ele><time>2026-05-02T09:27:41Z</time></trkpt><trkpt lat="42.60958038137272" lon="12.49752178768749"><ele>191.33333333333334</ele><time>2026-05-02T09:27:42Z</time></trkpt><trkpt lat="42.60961774324503" lon="12.497644021908659"><ele>193.16666666666666</ele><time>2026-05-02T09:27:43Z</time></trkpt><trkpt lat="42.60966146240997" lon="12.497751088530073"><ele>195.0</ele><time>2026-05-02T09:27:44Z</time></trkpt><trkpt lat="42.6097249796305" lon="12.497819643485736"><ele>195.0</ele><time>2026-05-02T09:27:45Z</time></trkpt><trkpt lat="42.609805006393145" lon="12.497869872377501"><ele>195.0</ele><time>2026-05-02T09:27:46Z</time></trkpt><trkpt lat="42.609904340566224" lon="12.49790080824003"><ele>195.0</ele><time>2026-05-02T09:27:47Z</time></trkpt><trkpt lat="42.61001491384697" lon="12.497913425741318"><ele>195.0</ele><time>2026-05-02T09:27:48Z</time></trkpt><trkpt lat="42.61012137720958" lon="12.49790403136192"><ele>195.0</ele><time>2026-05-02T09:27:49Z</time></trkpt><trkpt lat="42.6102372795037" lon="12.497880938590962"><ele>196.2</ele><time>2026-05-02T09:27:50Z</time></trkpt><trkpt lat="42.61033915494311" lon="12.497865119889125"><ele>197.4</ele><time>2026-05-02T09:27:51Z</time></trkpt><trkpt lat="42.61044182443421" lon="12.497874860846668"><ele>198.60000000000002</ele><time>2026-05-02T09:27:52Z</time></trkpt><trkpt lat="42.61054107315633" lon="12.497846035387582"><ele>199.8</ele><time>2026-05-02T09:27:53Z</time></trkpt><trkpt lat="42.61065764698438" lon="12.49785643119173"><ele>201.0</ele><time>2026-05-02T09:27:54Z</time></trkpt><trkpt lat="42.610764987350045" lon="12.497850539530974"><ele>201.0</ele><time>2026-05-02T09:27:55Z</time></trkpt><trkpt lat="42.61087227081204" lon="12.49784994446499"><ele>201.0</ele><time>2026-05-02T09:27:56Z</time></trkpt><trkpt lat="42.610984418722346" lon="12.497849228565267"><ele>201.0</ele><time>2026-05-02T09:27:57Z</time></trkpt><trkpt lat="42.611110655782035" lon="12.497822887815964"><ele>201.0</ele><time>2026-05-02T09:27:58Z</time></trkpt><trkpt lat="42.61124315213635" lon="12.497816767815465"><ele>203.75</ele><time>2026-05-02T09:27:59Z</time></trkpt><trkpt lat="42.611356914685615" lon="12.497777098846738"><ele>206.5</ele><time>2026-05-02T09:28:00Z</time></trkpt><trkpt lat="42.611468116892084" lon="12.497693548366941"><ele>209.25</ele><time>2026-05-02T09:28:01Z</time></trkpt><trkpt lat="42.61159137226229" lon="12.497617014122206"><ele>212.0</ele><time>2026-05-02T09:28:02Z</time></trkpt><trkpt lat="42.61171710946668" lon="12.49756216506071"><ele>212.0</ele><time>2026-05-02T09:28:03Z</time></trkpt><trkpt lat="42.611820225835615" lon="12.497509554035654"><ele>212.0</ele><time>2026-05-02T09:28:04Z</time></trkpt><trkpt lat="42.61191644385503" lon="12.497459182890662"><ele>212.0</ele><time>2026-05-02T09:28:05Z</time></trkpt><trkpt lat="42.61200570685804" lon="12.497414335329598"><ele>212.0</ele><time>2026-05-02T09:28:06Z</time></trkpt><trkpt lat="42.612097994715306" lon="12.497387065005238"><ele>212.0</ele><time>2026-05-02T09:28:07Z</time></trkpt><trkpt lat="42.61217331420147" lon="12.497362888575434"><ele>214.6</ele><time>2026-05-02T09:28:08Z</time></trkpt><trkpt lat="42.6122659483536" lon="12.497337745652676"><ele>217.2</ele><time>2026-05-02T09:28:09Z</time></trkpt><trkpt lat="42.61235944196205" lon="12.497364017674514"><ele>219.8</ele><time>2026-05-02T09:28:10Z</time></trkpt><trkpt lat="42.61246484458106" lon="12.497425993763937"><ele>222.4</ele><time>2026-05-02T09:28:11Z</time></trkpt><trkpt lat="42.61259091816784" lon="12.497480172740433"><ele>225.0</ele><time>2026-05-02T09:28:12Z</time></trkpt><trkpt lat="42.61273133805739" lon="12.497557118635031"><ele>227.25</ele><time>2026-05-02T09:28:13Z</time></trkpt><trkpt lat="42.612883421145106" lon="12.497617601988795"><ele>229.5</ele><time>2026-05-02T09:28:14Z</time></trkpt><trkpt lat="42.61302676038047" lon="12.497670324004014"><ele>231.75</ele><time>2026-05-02T09:28:15Z</time></trkpt><trkpt lat="42.61315638646321" lon="12.4977308021014"><ele>234.0</ele><time>2026-05-02T09:28:16Z</time></trkpt><trkpt lat="42.613288849590035" lon="12.497791062800525"><ele>234.0</ele><time>2026-05-02T09:28:17Z</time></trkpt><trkpt lat="42.61340133809927" lon="12.497825155203408"><ele>234.0</ele><time>2026-05-02T09:28:18Z</time></trkpt><trkpt lat="42.61352773487346" lon="12.497814821743567"><ele>234.0</ele><time>2026-05-02T09:28:19Z</time></trkpt><trkpt lat="42.61364167581882" lon="12.49778046160598"><ele>234.0</ele><time>2026-05-02T09:28:20Z</time></trkpt><trkpt lat="42.613734199050356" lon="12.497745364737096"><ele>237.39999999999998</ele><time>2026-05-02T09:28:21Z</time></trkpt><trkpt lat="42.61379979970234" lon="12.497742625357956"><ele>240.79999999999998</ele><time>2026-05-02T09:28:22Z</time></trkpt><trkpt lat="42.613872283357935" lon="12.497853323513601"><ele>244.20000000000002</ele><time>2026-05-02T09:28:24Z</time></trkpt><trkpt lat="42.61385339351433" lon="12.497967139837945"><ele>247.60000000000002</ele><time>2026-05-02T09:28:25Z</time></trkpt><trkpt lat="42.61374708250169" lon="12.498019629762641"><ele>251.0</ele><time>2026-05-02T09:28:26Z</time></trkpt><trkpt lat="42.61367380853558" lon="12.498077029722555"><ele>251.0</ele><time>2026-05-02T09:28:27Z</time></trkpt><trkpt lat="42.6135721225917" lon="12.498144770942092"><ele>251.00000000000003</ele><time>2026-05-02T09:28:28Z</time></trkpt><trkpt lat="42.61349195364689" lon="12.49821452484662"><ele>251.00000000000003</ele><time>2026-05-02T09:28:29Z</time></trkpt><trkpt lat="42.61341310574409" lon="12.49825925872504"><ele>251.0</ele><time>2026-05-02T09:28:30Z</time></trkpt><trkpt lat="42.61333933447753" lon="12.498283870232312"><ele>251.0</ele><time>2026-05-02T09:28:31Z</time></trkpt><trkpt lat="42.61322267614094" lon="12.498351568144487"><ele>251.0</ele><time>2026-05-02T09:28:33Z</time></trkpt><trkpt lat="42.613171989575214" lon="12.498416355626706"><ele>251.00000000000003</ele><time>2026-05-02T09:28:34Z</time></trkpt><trkpt lat="42.61309457541281" lon="12.498537606034125"><ele>251.00000000000003</ele><time>2026-05-02T09:28:36Z</time></trkpt><trkpt lat="42.613082250802584" lon="12.4986537260114"><ele>251.0</ele><time>2026-05-02T09:28:37Z</time></trkpt><trkpt lat="42.613080778176766" lon="12.498797064926837"><ele>251.0</ele><time>2026-05-02T09:28:38Z</time></trkpt><trkpt lat="42.61308413500453" lon="12.498943041139894"><ele>255.0</ele><time>2026-05-02T09:28:39Z</time></trkpt><trkpt lat="42.61308555332753" lon="12.499094159925091"><ele>259.0</ele><time>2026-05-02T09:28:40Z</time></trkpt><trkpt lat="42.613080824594576" lon="12.49925526324271"><ele>263.0</ele><time>2026-05-02T09:28:41Z</time></trkpt><trkpt lat="42.61308961259901" lon="12.499430514069331"><ele>267.0</ele><time>2026-05-02T09:28:42Z</time></trkpt><trkpt lat="42.613109813446165" lon="12.499605383592339"><ele>267.6</ele><time>2026-05-02T09:28:43Z</time></trkpt><trkpt lat="42.61314375269508" lon="12.499752037345885"><ele>268.2</ele><time>2026-05-02T09:28:44Z</time></trkpt><trkpt lat="42.61316672129466" lon="12.499896632966344"><ele>268.8</ele><time>2026-05-02T09:28:45Z</time></trkpt><trkpt lat="42.613211048212186" lon="12.500035577336742"><ele>269.4</ele><time>2026-05-02T09:28:46Z</time></trkpt><trkpt lat="42.613244532053656" lon="12.500143802387306"><ele>270.0</ele><time>2026-05-02T09:28:47Z</time></trkpt><trkpt lat="42.613289277701575" lon="12.500226381444971"><ele>270.0</ele><time>2026-05-02T09:28:48Z</time></trkpt><trkpt lat="42.613412396077855" lon="12.500251024381178"><ele>270.0</ele><time>2026-05-02T09:28:50Z</time></trkpt><trkpt lat="42.61348015839185" lon="12.500202247948453"><ele>270.0</ele><time>2026-05-02T09:28:51Z</time></trkpt><trkpt lat="42.6135542784864" lon="12.500130221632082"><ele>270.0</ele><time>2026-05-02T09:28:52Z</time></trkpt><trkpt lat="42.61362897883679" lon="12.500059447267274"><ele>270.0</ele><time>2026-05-02T09:28:53Z</time></trkpt><trkpt lat="42.61369746907133" lon="12.499989481644539"><ele>272.8333333333333</ele><time>2026-05-02T09:28:54Z</time></trkpt><trkpt lat="42.61376898233055" lon="12.499913665233924"><ele>275.6666666666667</ele><time>2026-05-02T09:28:55Z</time></trkpt><trkpt lat="42.61384961586226" lon="12.499847824176564"><ele>278.5</ele><time>2026-05-02T09:28:56Z</time></trkpt><trkpt lat="42.61392997226012" lon="12.4998042428947"><ele>281.33333333333337</ele><time>2026-05-02T09:28:57Z</time></trkpt><trkpt lat="42.614014786875906" lon="12.499794873280637"><ele>284.1666666666667</ele><time>2026-05-02T09:28:58Z</time></trkpt><trkpt lat="42.61409796829602" lon="12.499811306603847"><ele>287.0</ele><time>2026-05-02T09:28:59Z</time></trkpt><trkpt lat="42.61417759727451" lon="12.499887776001797"><ele>287.0</ele><time>2026-05-02T09:29:00Z</time></trkpt><trkpt lat="42.61426616357198" lon="12.499942240724133"><ele>287.0</ele><time>2026-05-02T09:29:01Z</time></trkpt><trkpt lat="42.614344571694346" lon="12.50002914707196"><ele>287.0</ele><time>2026-05-02T09:29:02Z</time></trkpt><trkpt lat="42.614419210926194" lon="12.500121957282628"><ele>287.0</ele><time>2026-05-02T09:29:03Z</time></trkpt><trkpt lat="42.61449045085951" lon="12.500203863239474"><ele>287.0</ele><time>2026-05-02T09:29:04Z</time></trkpt><trkpt lat="42.614540330740226" lon="12.500259388807422"><ele>288.8</ele><time>2026-05-02T09:29:05Z</time></trkpt><trkpt lat="42.61463368547531" lon="12.500336250807047"><ele>290.6</ele><time>2026-05-02T09:29:07Z</time></trkpt><trkpt lat="42.61470676037359" lon="12.500342580397893"><ele>292.40000000000003</ele><time>2026-05-02T09:29:09Z</time></trkpt><trkpt lat="42.61477988519163" lon="12.500201225670429"><ele>294.2</ele><time>2026-05-02T09:29:11Z</time></trkpt><trkpt lat="42.61482322078562" lon="12.500128091395753"><ele>296.0</ele><time>2026-05-02T09:29:12Z</time></trkpt><trkpt lat="42.614950032254875" lon="12.500088910649877"><ele>296.0</ele><time>2026-05-02T09:29:14Z</time></trkpt><trkpt lat="42.61502718337223" lon="12.500070902765142"><ele>296.0</ele><time>2026-05-02T09:29:15Z</time></trkpt><trkpt lat="42.61512695768848" lon="12.500041615237256"><ele>296.0</ele><time>2026-05-02T09:29:16Z</time></trkpt><trkpt lat="42.61523049404738" lon="12.500013292854824"><ele>296.0</ele><time>2026-05-02T09:29:17Z</time></trkpt><trkpt lat="42.61531360631252" lon="12.499974860694167"><ele>296.0</ele><time>2026-05-02T09:29:18Z</time></trkpt><trkpt lat="42.615388426380996" lon="12.49993255640755"><ele>297.0</ele><time>2026-05-02T09:29:19Z</time></trkpt><trkpt lat="42.61547896293813" lon="12.49984020976169"><ele>298.0</ele><time>2026-05-02T09:29:20Z</time></trkpt><trkpt lat="42.61556944417967" lon="12.499740032388802"><ele>299.0</ele><time>2026-05-02T09:29:21Z</time></trkpt><trkpt lat="42.615654729463785" lon="12.49962406494632"><ele>300.0</ele><time>2026-05-02T09:29:22Z</time></trkpt><trkpt lat="42.61572031299363" lon="12.499518573683421"><ele>300.0</ele><time>2026-05-02T09:29:23Z</time></trkpt><trkpt lat="42.61578635520292" lon="12.499407675375574"><ele>300.0</ele><time>2026-05-02T09:29:24Z</time></trkpt><trkpt lat="42.615855248878276" lon="12.49928578553258"><ele>300.0</ele><time>2026-05-02T09:29:25Z</time></trkpt><trkpt lat="42.615919886633485" lon="12.499165314864284"><ele>300.0</ele><time>2026-05-02T09:29:26Z</time></trkpt><trkpt lat="42.61598995182747" lon="12.49902262695987"><ele>300.0</ele><time>2026-05-02T09:29:27Z</time></trkpt><trkpt lat="42.61605015046044" lon="12.498887308387419"><ele>300.0</ele><time>2026-05-02T09:29:28Z</time></trkpt><trkpt lat="42.61609976139077" lon="12.498768116117734"><ele>300.0</ele><time>2026-05-02T09:29:29Z</time></trkpt><trkpt lat="42.61614959906572" lon="12.498637962370964"><ele>300.0</ele><time>2026-05-02T09:29:30Z</time></trkpt><trkpt lat="42.61619973784435" lon="12.498504876054112"><ele>300.0</ele><time>2026-05-02T09:29:31Z</time></trkpt><trkpt lat="42.61625323825718" lon="12.498356497909683"><ele>301.4</ele><time>2026-05-02T09:29:32Z</time></trkpt><trkpt lat="42.61629507015383" lon="12.49822191700991"><ele>302.8</ele><time>2026-05-02T09:29:33Z</time></trkpt><trkpt lat="42.616319672504005" lon="12.498091269459005"><ele>304.2</ele><time>2026-05-02T09:29:34Z</time></trkpt><trkpt lat="42.61632524719898" lon="12.497964647538977"><ele>305.6</ele><time>2026-05-02T09:29:35Z</time></trkpt><trkpt lat="42.616313557736795" lon="12.497828324604457"><ele>307.0</ele><time>2026-05-02T09:29:36Z</time></trkpt><trkpt lat="42.616302854751545" lon="12.49769852004097"><ele>308.0</ele><time>2026-05-02T09:29:37Z</time></trkpt><trkpt lat="42.61628685654599" lon="12.497547871895332"><ele>309.0</ele><time>2026-05-02T09:29:38Z</time></trkpt><trkpt lat="42.616268017959236" lon="12.49739017319409"><ele>310.0</ele><time>2026-05-02T09:29:39Z</time></trkpt><trkpt lat="42.61625453043953" lon="12.497235647172904"><ele>311.0</ele><time>2026-05-02T09:29:40Z</time></trkpt><trkpt lat="42.61627857866822" lon="12.497097386013158"><ele>312.0</ele><time>2026-05-02T09:29:41Z</time></trkpt><trkpt lat="42.61629545651121" lon="12.496978267668307"><ele>312.1666666666667</ele><time>2026-05-02T09:29:42Z</time></trkpt><trkpt lat="42.616317466514566" lon="12.496869732683127"><ele>312.3333333333333</ele><time>2026-05-02T09:29:43Z</time></trkpt><trkpt lat="42.616355023369806" lon="12.496758353623768"><ele>312.5</ele><time>2026-05-02T09:29:44Z</time></trkpt><trkpt lat="42.61642020447964" lon="12.496680896721545"><ele>312.66666666666663</ele><time>2026-05-02T09:29:46Z</time></trkpt><trkpt lat="42.61649289180564" lon="12.496731707277057"><ele>312.8333333333333</ele><time>2026-05-02T09:29:49Z</time></trkpt><trkpt lat="42.616501760741365" lon="12.496872363681375"><ele>313.0</ele><time>2026-05-02T09:29:51Z</time></trkpt><trkpt lat="42.616494074755735" lon="12.497006190876697"><ele>312.8</ele><time>2026-05-02T09:29:52Z</time></trkpt><trkpt lat="42.616490699974555" lon="12.497165004503609"><ele>312.6</ele><time>2026-05-02T09:29:53Z</time></trkpt><trkpt lat="42.61648199545717" lon="12.497294935571054"><ele>312.4</ele><time>2026-05-02T09:29:55Z</time></trkpt><trkpt lat="42.6164841949279" lon="12.49740113561344"><ele>312.2</ele><time>2026-05-02T09:29:56Z</time></trkpt><trkpt lat="42.616521318945736" lon="12.49747640405278"><ele>312.0</ele><time>2026-05-02T09:29:57Z</time></trkpt><trkpt lat="42.61661443699165" lon="12.497523652343457"><ele>312.0</ele><time>2026-05-02T09:29:59Z</time></trkpt><trkpt lat="42.61670949474741" lon="12.497473698689001"><ele>312.0</ele><time>2026-05-02T09:30:01Z</time></trkpt><trkpt lat="42.616759529049425" lon="12.497402701567808"><ele>312.0</ele><time>2026-05-02T09:30:02Z</time></trkpt><trkpt lat="42.61676975024729" lon="12.497265253246702"><ele>312.0</ele><time>2026-05-02T09:30:03Z</time></trkpt><trkpt lat="42.61678850277219" lon="12.497151216205305"><ele>312.0</ele><time>2026-05-02T09:30:04Z</time></trkpt><trkpt lat="42.61683973133838" lon="12.497034593046562"><ele>312.1666666666667</ele><time>2026-05-02T09:30:05Z</time></trkpt><trkpt lat="42.61689026097422" lon="12.496939633501835"><ele>312.3333333333333</ele><time>2026-05-02T09:30:06Z</time></trkpt><trkpt lat="42.61694956061407" lon="12.496838339871925"><ele>312.5</ele><time>2026-05-02T09:30:07Z</time></trkpt><trkpt lat="42.61700235126256" lon="12.496747153254951"><ele>312.66666666666663</ele><time>2026-05-02T09:30:08Z</time></trkpt><trkpt lat="42.61704981488763" lon="12.496657653710837"><ele>312.8333333333333</ele><time>2026-05-02T09:30:09Z</time></trkpt><trkpt lat="42.617098152672106" lon="12.496560522217438"><ele>313.0</ele><time>2026-05-02T09:30:10Z</time></trkpt><trkpt lat="42.61714566179201" lon="12.496468701378015"><ele>315.6</ele><time>2026-05-02T09:30:11Z</time></trkpt><trkpt lat="42.617211915666765" lon="12.496363725944759"><ele>318.20000000000005</ele><time>2026-05-02T09:30:12Z</time></trkpt><trkpt lat="42.61727998682287" lon="12.496265188892995"><ele>320.8</ele><time>2026-05-02T09:30:13Z</time></trkpt><trkpt lat="42.617341493949745" lon="12.496178169855794"><ele>323.40000000000003</ele><time>2026-05-02T09:30:14Z</time></trkpt><trkpt lat="42.617421420893834" lon="12.496064455480418"><ele>326.0</ele><time>2026-05-02T09:30:15Z</time></trkpt><trkpt lat="42.61748401391644" lon="12.49597335188711"><ele>327.6</ele><time>2026-05-02T09:30:16Z</time></trkpt><trkpt lat="42.61754709479626" lon="12.49588153821925"><ele>329.20000000000005</ele><time>2026-05-02T09:30:17Z</time></trkpt><trkpt lat="42.617623236789015" lon="12.495778607421549"><ele>330.79999999999995</ele><time>2026-05-02T09:30:18Z</time></trkpt><trkpt lat="42.61770461741518" lon="12.495678557573001"><ele>332.4</ele><time>2026-05-02T09:30:19Z</time></trkpt><trkpt lat="42.61780386304952" lon="12.495557540730971"><ele>334.0</ele><time>2026-05-02T09:30:20Z</time></trkpt><trkpt lat="42.61791071338721" lon="12.495448528576498"><ele>337.75</ele><time>2026-05-02T09:30:21Z</time></trkpt><trkpt lat="42.617993374678925" lon="12.495350640328985"><ele>341.5</ele><time>2026-05-02T09:30:22Z</time></trkpt><trkpt lat="42.61807243651371" lon="12.495235902224474"><ele>345.25</ele><time>2026-05-02T09:30:23Z</time></trkpt><trkpt lat="42.61817014243699" lon="12.495139343102807"><ele>349.0</ele><time>2026-05-02T09:30:24Z</time></trkpt><trkpt lat="42.61826059095164" lon="12.495025568480447"><ele>349.0</ele><time>2026-05-02T09:30:25Z</time></trkpt><trkpt lat="42.61835232640311" lon="12.494939124371442"><ele>349.0</ele><time>2026-05-02T09:30:26Z</time></trkpt><trkpt lat="42.61844060054116" lon="12.494884136915122"><ele>349.0</ele><time>2026-05-02T09:30:27Z</time></trkpt><trkpt lat="42.6185255878605" lon="12.494823153191577"><ele>349.0</ele><time>2026-05-02T09:30:28Z</time></trkpt><trkpt lat="42.61861803478791" lon="12.494753687157004"><ele>349.0</ele><time>2026-05-02T09:30:29Z</time></trkpt><trkpt lat="42.61872227518466" lon="12.49467087140103"><ele>348.25</ele><time>2026-05-02T09:30:30Z</time></trkpt><trkpt lat="42.61882561134221" lon="12.494561166211167"><ele>347.5</ele><time>2026-05-02T09:30:31Z</time></trkpt><trkpt lat="42.618911474041" lon="12.494413440905799"><ele>346.75</ele><time>2026-05-02T09:30:32Z</time></trkpt><trkpt lat="42.619001213189605" lon="12.494297046020385"><ele>346.0</ele><time>2026-05-02T09:30:33Z</time></trkpt><trkpt lat="42.61908522100973" lon="12.494207997602222"><ele>346.0</ele><time>2026-05-02T09:30:34Z</time></trkpt><trkpt lat="42.61915453729552" lon="12.494151829683826"><ele>346.0</ele><time>2026-05-02T09:30:35Z</time></trkpt><trkpt lat="42.61921214973371" lon="12.494091078321265"><ele>346.0</ele><time>2026-05-02T09:30:36Z</time></trkpt><trkpt lat="42.61926189350184" lon="12.494033860738172"><ele>346.0</ele><time>2026-05-02T09:30:37Z</time></trkpt><trkpt lat="42.619346688831875" lon="12.49402249310028"><ele>346.0</ele><time>2026-05-02T09:30:38Z</time></trkpt><trkpt lat="42.619458534020936" lon="12.494007471808397"><ele>346.0</ele><time>2026-05-02T09:30:39Z</time></trkpt><trkpt lat="42.61956714653486" lon="12.4939692972585"><ele>345.8333333333333</ele><time>2026-05-02T09:30:40Z</time></trkpt><trkpt lat="42.61965452240171" lon="12.493967705943414"><ele>345.66666666666663</ele><time>2026-05-02T09:30:41Z</time></trkpt><trkpt lat="42.619742707134506" lon="12.493947051156434"><ele>345.5</ele><time>2026-05-02T09:30:42Z</time></trkpt><trkpt lat="42.619822580441685" lon="12.493921886635617"><ele>345.3333333333333</ele><time>2026-05-02T09:30:43Z</time></trkpt><trkpt lat="42.619901905978814" lon="12.493894025872102"><ele>345.1666666666667</ele><time>2026-05-02T09:30:44Z</time></trkpt><trkpt lat="42.61997275151373" lon="12.493886115189271"><ele>345.0</ele><time>2026-05-02T09:30:45Z</time></trkpt><trkpt lat="42.62005268056114" lon="12.49386228847748"><ele>345.0</ele><time>2026-05-02T09:30:46Z</time></trkpt><trkpt lat="42.620131459060424" lon="12.493838692634803"><ele>345.0</ele><time>2026-05-02T09:30:47Z</time></trkpt><trkpt lat="42.62020185011882" lon="12.493816879795151"><ele>345.0</ele><time>2026-05-02T09:30:48Z</time></trkpt><trkpt lat="42.62027518985557" lon="12.493798884786814"><ele>345.0</ele><time>2026-05-02T09:30:49Z</time></trkpt><trkpt lat="42.620349345687686" lon="12.493792596546124"><ele>345.0</ele><time>2026-05-02T09:30:50Z</time></trkpt><trkpt lat="42.62043485838636" lon="12.493786179151972"><ele>345.0</ele><time>2026-05-02T09:30:51Z</time></trkpt><trkpt lat="42.62050467232274" lon="12.493784727925137"><ele>346.5</ele><time>2026-05-02T09:30:52Z</time></trkpt><trkpt lat="42.620579196753745" lon="12.493798183077494"><ele>348.0</ele><time>2026-05-02T09:30:53Z</time></trkpt><trkpt lat="42.62067098168982" lon="12.493824669896695"><ele>349.5</ele><time>2026-05-02T09:30:54Z</time></trkpt><trkpt lat="42.62074900543693" lon="12.4938568147488"><ele>351.0</ele><time>2026-05-02T09:30:55Z</time></trkpt><trkpt lat="42.62084083434609" lon="12.493897084118684"><ele>352.5</ele><time>2026-05-02T09:30:56Z</time></trkpt><trkpt lat="42.620927655153245" lon="12.493940134783147"><ele>354.0</ele><time>2026-05-02T09:30:57Z</time></trkpt><trkpt lat="42.62101546678368" lon="12.493980730893481"><ele>354.0</ele><time>2026-05-02T09:30:58Z</time></trkpt><trkpt lat="42.62109876396156" lon="12.494019785169527"><ele>354.0</ele><time>2026-05-02T09:30:59Z</time></trkpt><trkpt lat="42.62119866564236" lon="12.494076924762702"><ele>354.0</ele><time>2026-05-02T09:31:00Z</time></trkpt><trkpt lat="42.62128682035002" lon="12.494120553670225"><ele>354.0</ele><time>2026-05-02T09:31:01Z</time></trkpt><trkpt lat="42.621386349154555" lon="12.494159417280533"><ele>354.0</ele><time>2026-05-02T09:31:02Z</time></trkpt><trkpt lat="42.621494586396636" lon="12.494205237601555"><ele>356.5</ele><time>2026-05-02T09:31:03Z</time></trkpt><trkpt lat="42.62160731898603" lon="12.494242254644575"><ele>359.0</ele><time>2026-05-02T09:31:04Z</time></trkpt><trkpt lat="42.621731985739956" lon="12.494281270553026"><ele>361.5</ele><time>2026-05-02T09:31:05Z</time></trkpt><trkpt lat="42.621865691046885" lon="12.494306146880783"><ele>364.0</ele><time>2026-05-02T09:31:06Z</time></trkpt><trkpt lat="42.621973368162074" lon="12.494335809416116"><ele>365.4</ele><time>2026-05-02T09:31:07Z</time></trkpt><trkpt lat="42.62209240028188" lon="12.4943453191968"><ele>366.79999999999995</ele><time>2026-05-02T09:31:08Z</time></trkpt><trkpt lat="42.62219716339245" lon="12.494347850921395"><ele>368.20000000000005</ele><time>2026-05-02T09:31:09Z</time></trkpt><trkpt lat="42.62230497602502" lon="12.494338189368102"><ele>369.6</ele><time>2026-05-02T09:31:10Z</time></trkpt><trkpt lat="42.62239285843082" lon="12.494334443705451"><ele>371.0</ele><time>2026-05-02T09:31:11Z</time></trkpt><trkpt lat="42.62249159413299" lon="12.494318925325361"><ele>371.0</ele><time>2026-05-02T09:31:12Z</time></trkpt><trkpt lat="42.62259488758221" lon="12.494295945768608"><ele>371.0</ele><time>2026-05-02T09:31:13Z</time></trkpt><trkpt lat="42.62269413942958" lon="12.49426101257472"><ele>371.0</ele><time>2026-05-02T09:31:14Z</time></trkpt><trkpt lat="42.62277399838473" lon="12.494211444388668"><ele>371.0</ele><time>2026-05-02T09:31:15Z</time></trkpt><trkpt lat="42.62283121958765" lon="12.494157636527415"><ele>371.0</ele><time>2026-05-02T09:31:16Z</time></trkpt><trkpt lat="42.62292647449816" lon="12.494057871161862"><ele>372.33333333333337</ele><time>2026-05-02T09:31:18Z</time></trkpt><trkpt lat="42.62298049916994" lon="12.493931815589647"><ele>373.6666666666667</ele><time>2026-05-02T09:31:20Z</time></trkpt><trkpt lat="42.623029130919804" lon="12.493841607278341"><ele>375.0</ele><time>2026-05-02T09:31:22Z</time></trkpt><trkpt lat="42.62337954322938" lon="12.49393014253641"><ele>375.0</ele><time>2026-05-02T09:31:24Z</time></trkpt><trkpt lat="42.62346083552564" lon="12.493898242578503"><ele>375.0</ele><time>2026-05-02T09:31:25Z</time></trkpt><trkpt lat="42.62355407902398" lon="12.493863096796026"><ele>375.0</ele><time>2026-05-02T09:31:26Z</time></trkpt><trkpt lat="42.62364709687214" lon="12.493824672862988"><ele>375.0</ele><time>2026-05-02T09:31:27Z</time></trkpt><trkpt lat="42.62371973679457" lon="12.493791325141483"><ele>375.0</ele><time>2026-05-02T09:31:28Z</time></trkpt><trkpt lat="42.623795184146445" lon="12.493767781032027"><ele>375.0</ele><time>2026-05-02T09:31:29Z</time></trkpt><trkpt lat="42.62386139942823" lon="12.493745300204763"><ele>377.6666666666667</ele><time>2026-05-02T09:31:30Z</time></trkpt><trkpt lat="42.62393724433046" lon="12.493729449966139"><ele>380.33333333333337</ele><time>2026-05-02T09:31:31Z</time></trkpt><trkpt lat="42.62400962821232" lon="12.493729605698555"><ele>383.0</ele><time>2026-05-02T09:31:32Z</time></trkpt><trkpt lat="42.62410017121454" lon="12.493741429751214"><ele>385.6666666666667</ele><time>2026-05-02T09:31:33Z</time></trkpt><trkpt lat="42.624188473620194" lon="12.493744609281345"><ele>388.33333333333337</ele><time>2026-05-02T09:31:34Z</time></trkpt><trkpt lat="42.62426541889634" lon="12.493740415319808"><ele>391.0</ele><time>2026-05-02T09:31:35Z</time></trkpt><trkpt lat="42.62434870753924" lon="12.493735542770395"><ele>391.0</ele><time>2026-05-02T09:31:36Z</time></trkpt><trkpt lat="42.6244566612843" lon="12.493715582023224"><ele>391.0</ele><time>2026-05-02T09:31:38Z</time></trkpt><trkpt lat="42.62454365880441" lon="12.493666111512944"><ele>391.0</ele><time>2026-05-02T09:31:40Z</time></trkpt><trkpt lat="42.624611996649506" lon="12.493617581038167"><ele>391.0</ele><time>2026-05-02T09:31:42Z</time></trkpt><trkpt lat="42.62469423615666" lon="12.493552917112709"><ele>391.0</ele><time>2026-05-02T09:31:44Z</time></trkpt><trkpt lat="42.62476990455933" lon="12.493513402683813"><ele>391.6666666666667</ele><time>2026-05-02T09:31:47Z</time></trkpt><trkpt lat="42.624837517454885" lon="12.493453481737822"><ele>392.33333333333337</ele><time>2026-05-02T09:41:27Z</time></trkpt><trkpt lat="42.624901074104294" lon="12.493376720314274"><ele>393.0</ele><time>2026-05-02T09:41:29Z</time></trkpt><trkpt lat="42.62495456442637" lon="12.493299411278782"><ele>393.66666666666663</ele><time>2026-05-02T09:41:31Z</time></trkpt><trkpt lat="42.62499513437703" lon="12.49323146645807"><ele>394.3333333333333</ele><time>2026-05-02T09:41:33Z</time></trkpt><trkpt lat="42.625039034511985" lon="12.49315612522382"><ele>395.0</ele><time>2026-05-02T09:41:35Z</time></trkpt><trkpt lat="42.62508178649234" lon="12.49306459596532"><ele>394.99999999999994</ele><time>2026-05-02T09:41:37Z</time></trkpt><trkpt lat="42.62512847970831" lon="12.492962340681714"><ele>395.0</ele><time>2026-05-02T09:41:39Z</time></trkpt><trkpt lat="42.62518701195513" lon="12.492857035925002"><ele>395.0</ele><time>2026-05-02T09:41:41Z</time></trkpt><trkpt lat="42.625258074346476" lon="12.492740136867225"><ele>395.0</ele><time>2026-05-02T09:41:43.001Z</time></trkpt><trkpt lat="42.62529865278657" lon="12.492667524186366"><ele>394.99999999999994</ele><time>2026-05-02T09:41:44.001Z</time></trkpt><trkpt lat="42.625346551961506" lon="12.492578119475521"><ele>395.0</ele><time>2026-05-02T09:41:45.001Z</time></trkpt><trkpt lat="42.62541817933874" lon="12.492444106592192"><ele>395.2</ele><time>2026-05-02T09:41:47.001Z</time></trkpt><trkpt lat="42.62546367790777" lon="12.49235797700432"><ele>395.4</ele><time>2026-05-02T09:41:48.001Z</time></trkpt><trkpt lat="42.62552760769418" lon="12.492240322065394"><ele>395.6</ele><time>2026-05-02T09:41:50.001Z</time></trkpt><trkpt lat="42.62560064772993" lon="12.492114275850282"><ele>395.8</ele><time>2026-05-02T09:41:52Z</time></trkpt><trkpt lat="42.62564621251848" lon="12.4920443020156"><ele>396.0</ele><time>2026-05-02T09:41:53Z</time></trkpt><trkpt lat="42.62573118172674" lon="12.49193879259368"><ele>395.6666666666667</ele><time>2026-05-02T09:41:55Z</time></trkpt><trkpt lat="42.62581402304166" lon="12.49185788935309"><ele>395.33333333333337</ele><time>2026-05-02T09:41:57Z</time></trkpt><trkpt lat="42.625879831349486" lon="12.491843174517317"><ele>395.0</ele><time>2026-05-02T09:41:58Z</time></trkpt><trkpt lat="42.625930864600484" lon="12.491791641958724"><ele>394.6666666666667</ele><time>2026-05-02T09:41:59Z</time></trkpt><trkpt lat="42.62597648937777" lon="12.491715450593773"><ele>394.33333333333337</ele><time>2026-05-02T09:42:00Z</time></trkpt><trkpt lat="42.62603774063255" lon="12.491656262030693"><ele>394.0</ele><time>2026-05-02T09:42:01Z</time></trkpt><trkpt lat="42.62610913086824" lon="12.491581443659861"><ele>393.6666666666667</ele><time>2026-05-02T09:42:02Z</time></trkpt><trkpt lat="42.6261980834241" lon="12.491532083660944"><ele>393.33333333333337</ele><time>2026-05-02T09:42:03Z</time></trkpt><trkpt lat="42.626261075118286" lon="12.491469514267655"><ele>393.0</ele><time>2026-05-02T09:42:04Z</time></trkpt><trkpt lat="42.62632192275184" lon="12.491427449908148"><ele>392.66666666666663</ele><time>2026-05-02T09:42:05Z</time></trkpt><trkpt lat="42.62639000990883" lon="12.491379069691204"><ele>392.3333333333333</ele><time>2026-05-02T09:42:06Z</time></trkpt><trkpt lat="42.6264585668254" lon="12.491330334061962"><ele>392.0</ele><time>2026-05-02T09:42:07Z</time></trkpt><trkpt lat="42.62651803392438" lon="12.491294675843541"><ele>391.40000000000003</ele><time>2026-05-02T09:42:08Z</time></trkpt><trkpt lat="42.62657958474066" lon="12.49125579832188"><ele>390.8</ele><time>2026-05-02T09:42:09Z</time></trkpt><trkpt lat="42.6266416590391" lon="12.491211179274668"><ele>390.2</ele><time>2026-05-02T09:42:10Z</time></trkpt><trkpt lat="42.62675571759351" lon="12.491126994372598"><ele>389.6</ele><time>2026-05-02T09:42:12Z</time></trkpt><trkpt lat="42.62687884075985" lon="12.491053956477694"><ele>389.0</ele><time>2026-05-02T09:42:14Z</time></trkpt><trkpt lat="42.626985224206706" lon="12.49099272961834"><ele>388.6</ele><time>2026-05-02T09:42:16Z</time></trkpt><trkpt lat="42.627102019108406" lon="12.490928356135726"><ele>388.2</ele><time>2026-05-02T09:42:18Z</time></trkpt><trkpt lat="42.627166619966715" lon="12.490881222337675"><ele>387.8</ele><time>2026-05-02T09:42:19Z</time></trkpt><trkpt lat="42.627229664762226" lon="12.49083715690501"><ele>387.40000000000003</ele><time>2026-05-02T09:42:20Z</time></trkpt><trkpt lat="42.62729319206661" lon="12.49078053010747"><ele>387.0</ele><time>2026-05-02T09:42:21Z</time></trkpt><trkpt lat="42.627373741989366" lon="12.490684715367877"><ele>387.0</ele><time>2026-05-02T09:42:23Z</time></trkpt><trkpt lat="42.62745642091863" lon="12.490612019224589"><ele>387.0</ele><time>2026-05-02T09:42:25Z</time></trkpt><trkpt lat="42.62753514177677" lon="12.490561728420277"><ele>387.0</ele><time>2026-05-02T09:42:28Z</time></trkpt><trkpt lat="42.62770834249378" lon="12.490779901983904"><ele>387.0</ele><time>2026-05-02T09:42:31Z</time></trkpt><trkpt lat="42.627802753433016" lon="12.490840856965379"><ele>386.0</ele><time>2026-05-02T09:42:33Z</time></trkpt><trkpt lat="42.62786408739218" lon="12.49086895622271"><ele>385.0</ele><time>2026-05-02T09:42:34Z</time></trkpt><trkpt lat="42.62797369118556" lon="12.490926424136786"><ele>384.0</ele><time>2026-05-02T09:42:36Z</time></trkpt><trkpt lat="42.62803354938689" lon="12.49095885048745"><ele>383.0</ele><time>2026-05-02T09:42:37Z</time></trkpt><trkpt lat="42.6281414666259" lon="12.491015191544962"><ele>382.0</ele><time>2026-05-02T09:42:39Z</time></trkpt><trkpt lat="42.62825501834896" lon="12.491063160478088"><ele>382.0</ele><time>2026-05-02T09:42:41Z</time></trkpt><trkpt lat="42.62832374548544" lon="12.491105260304165"><ele>382.0</ele><time>2026-05-02T09:42:42Z</time></trkpt><trkpt lat="42.62838288235509" lon="12.491151058117488"><ele>382.0</ele><time>2026-05-02T09:42:43Z</time></trkpt><trkpt lat="42.62844760157078" lon="12.491204916539926"><ele>382.0</ele><time>2026-05-02T09:42:44Z</time></trkpt><trkpt lat="42.628577815720064" lon="12.491279979632791"><ele>382.0</ele><time>2026-05-02T09:42:46Z</time></trkpt><trkpt lat="42.628687498862014" lon="12.491317767318485"><ele>381.66666666666663</ele><time>2026-05-02T09:42:48Z</time></trkpt><trkpt lat="42.628751779130255" lon="12.491330303369441"><ele>381.3333333333333</ele><time>2026-05-02T09:42:49Z</time></trkpt><trkpt lat="42.62881488415794" lon="12.49133065071625"><ele>381.0</ele><time>2026-05-02T09:42:50Z</time></trkpt><trkpt lat="42.62893431450227" lon="12.491300066170368"><ele>380.6666666666667</ele><time>2026-05-02T09:42:52Z</time></trkpt><trkpt lat="42.62902936669048" lon="12.491270945718023"><ele>380.33333333333337</ele><time>2026-05-02T09:42:53Z</time></trkpt><trkpt lat="42.62909640233525" lon="12.491251351221175"><ele>380.0</ele><time>2026-05-02T09:42:54Z</time></trkpt><trkpt lat="42.62921076026303" lon="12.491238950614019"><ele>380.0</ele><time>2026-05-02T09:42:56Z</time></trkpt><trkpt lat="42.629283185145475" lon="12.4912554297576"><ele>380.0</ele><time>2026-05-02T09:42:57Z</time></trkpt><trkpt lat="42.62935341090981" lon="12.491273954166896"><ele>380.0</ele><time>2026-05-02T09:42:58Z</time></trkpt><trkpt lat="42.62943519861541" lon="12.491285635743552"><ele>380.0</ele><time>2026-05-02T09:42:59Z</time></trkpt><trkpt lat="42.62953030433611" lon="12.491294621178461"><ele>380.0</ele><time>2026-05-02T09:43:00Z</time></trkpt><trkpt lat="42.62960571056389" lon="12.49129824277681"><ele>380.0</ele><time>2026-05-02T09:43:01Z</time></trkpt><trkpt lat="42.62968534609323" lon="12.491289084985148"><ele>379.57142857142856</ele><time>2026-05-02T09:43:02Z</time></trkpt><trkpt lat="42.629753281857234" lon="12.491277602550177"><ele>379.14285714285717</ele><time>2026-05-02T09:43:03Z</time></trkpt><trkpt lat="42.629822535007804" lon="12.491262494075306"><ele>378.71428571428567</ele><time>2026-05-02T09:43:04Z</time></trkpt><trkpt lat="42.62989392308793" lon="12.491247315214807"><ele>378.2857142857143</ele><time>2026-05-02T09:43:05Z</time></trkpt><trkpt lat="42.62997538427807" lon="12.491241045830126"><ele>377.85714285714283</ele><time>2026-05-02T09:43:06Z</time></trkpt><trkpt lat="42.63004792366437" lon="12.491247191725972"><ele>377.4285714285714</ele><time>2026-05-02T09:43:07Z</time></trkpt><trkpt lat="42.63012444536167" lon="12.491267289575784"><ele>377.0</ele><time>2026-05-02T09:43:08Z</time></trkpt><trkpt lat="42.63020532613749" lon="12.491301599499561"><ele>373.6</ele><time>2026-05-02T09:43:10Z</time></trkpt><trkpt lat="42.630311982874595" lon="12.491350796656693"><ele>370.20000000000005</ele><time>2026-05-02T09:43:12Z</time></trkpt><trkpt lat="42.63041445066894" lon="12.491384727161154"><ele>366.8</ele><time>2026-05-02T09:43:14Z</time></trkpt><trkpt lat="42.63052114962888" lon="12.491412556510674"><ele>363.4</ele><time>2026-05-02T09:43:16Z</time></trkpt><trkpt lat="42.63063349938373" lon="12.491426882260843"><ele>360.0</ele><time>2026-05-02T09:43:18Z</time></trkpt><trkpt lat="42.63074501102148" lon="12.491430513292888"><ele>360.0</ele><time>2026-05-02T09:43:20Z</time></trkpt><trkpt lat="42.63086067360584" lon="12.491443991904493"><ele>360.0</ele><time>2026-05-02T09:43:22Z</time></trkpt><trkpt lat="42.630968499230505" lon="12.4914516225697"><ele>360.0</ele><time>2026-05-02T09:43:24Z</time></trkpt><trkpt lat="42.63107806994066" lon="12.491457972061134"><ele>360.0</ele><time>2026-05-02T09:43:26Z</time></trkpt><trkpt lat="42.6311680861557" lon="12.49146093149806"><ele>360.0</ele><time>2026-05-02T09:43:28Z</time></trkpt><trkpt lat="42.63125398478021" lon="12.491463080252807"><ele>358.4</ele><time>2026-05-02T09:43:30Z</time></trkpt><trkpt lat="42.631343488578146" lon="12.491464283848334"><ele>356.8</ele><time>2026-05-02T09:43:32Z</time></trkpt><trkpt lat="42.631439260222386" lon="12.491459316492806"><ele>355.20000000000005</ele><time>2026-05-02T09:43:34Z</time></trkpt><trkpt lat="42.631529010749524" lon="12.491461496299761"><ele>353.6</ele><time>2026-05-02T09:43:36Z</time></trkpt><trkpt lat="42.631613302842396" lon="12.491420676734226"><ele>352.0</ele><time>2026-05-02T09:43:39Z</time></trkpt><trkpt lat="42.631718704871076" lon="12.491385029331054"><ele>352.0</ele><time>2026-05-02T09:43:41Z</time></trkpt><trkpt lat="42.63181915247448" lon="12.491358999201857"><ele>352.0</ele><time>2026-05-02T09:43:43Z</time></trkpt><trkpt lat="42.63193399444948" lon="12.49131868371727"><ele>352.0</ele><time>2026-05-02T09:43:45Z</time></trkpt><trkpt lat="42.63203664451447" lon="12.491305740341014"><ele>352.0</ele><time>2026-05-02T09:43:47.001Z</time></trkpt><trkpt lat="42.63215224857698" lon="12.491385535310133"><ele>351.14285714285717</ele><time>2026-05-02T09:43:49.001Z</time></trkpt><trkpt lat="42.63220042592793" lon="12.491448255553356"><ele>350.2857142857143</ele><time>2026-05-02T09:43:50.001Z</time></trkpt><trkpt lat="42.63225711483684" lon="12.491501811765671"><ele>349.42857142857144</ele><time>2026-05-02T09:43:51.001Z</time></trkpt><trkpt lat="42.63232521235724" lon="12.491564772861853"><ele>348.57142857142856</ele><time>2026-05-02T09:43:52.001Z</time></trkpt><trkpt lat="42.63238536685302" lon="12.491627263543489"><ele>347.7142857142857</ele><time>2026-05-02T09:43:53.001Z</time></trkpt><trkpt lat="42.6324412273094" lon="12.491690681154992"><ele>346.85714285714283</ele><time>2026-05-02T09:43:54.001Z</time></trkpt><trkpt lat="42.632500398666956" lon="12.491767326795978"><ele>346.0</ele><time>2026-05-02T09:43:55.001Z</time></trkpt><trkpt lat="42.632573319913774" lon="12.491854316288022"><ele>346.0</ele><time>2026-05-02T09:43:56Z</time></trkpt><trkpt lat="42.63263138928556" lon="12.49193250541841"><ele>346.0</ele><time>2026-05-02T09:43:57Z</time></trkpt><trkpt lat="42.63269936610737" lon="12.492018715824255"><ele>346.0</ele><time>2026-05-02T09:43:58Z</time></trkpt><trkpt lat="42.63276896113483" lon="12.492105336387638"><ele>346.0</ele><time>2026-05-02T09:43:59Z</time></trkpt><trkpt lat="42.6328324468079" lon="12.492187525796272"><ele>346.0</ele><time>2026-05-02T09:44:00Z</time></trkpt><trkpt lat="42.63289554126406" lon="12.492270814628105"><ele>346.0</ele><time>2026-05-02T09:44:01Z</time></trkpt><trkpt lat="42.63295032164484" lon="12.492352230212356"><ele>345.6</ele><time>2026-05-02T09:44:02Z</time></trkpt><trkpt lat="42.63300212525183" lon="12.492439078528015"><ele>345.20000000000005</ele><time>2026-05-02T09:44:03Z</time></trkpt><trkpt lat="42.63306438158816" lon="12.492553966602527"><ele>344.79999999999995</ele><time>2026-05-02T09:44:04Z</time></trkpt><trkpt lat="42.6331232909312" lon="12.492668512380869"><ele>344.4</ele><time>2026-05-02T09:44:05Z</time></trkpt><trkpt lat="42.63318724454779" lon="12.49278847796578"><ele>344.0</ele><time>2026-05-02T09:44:06Z</time></trkpt><trkpt lat="42.633251874017276" lon="12.492905167417197"><ele>345.0</ele><time>2026-05-02T09:44:07Z</time></trkpt><trkpt lat="42.63330921526117" lon="12.493014920701356"><ele>346.0</ele><time>2026-05-02T09:44:08Z</time></trkpt><trkpt lat="42.633360640346076" lon="12.493116768526521"><ele>347.0</ele><time>2026-05-02T09:44:09Z</time></trkpt><trkpt lat="42.63341894824621" lon="12.493205372907424"><ele>348.0</ele><time>2026-05-02T09:44:10Z</time></trkpt><trkpt lat="42.63347882751569" lon="12.493309444019715"><ele>349.0</ele><time>2026-05-02T09:44:11Z</time></trkpt><trkpt lat="42.63353316656679" lon="12.493403787696657"><ele>349.0</ele><time>2026-05-02T09:44:12Z</time></trkpt><trkpt lat="42.63358444661565" lon="12.493479410538932"><ele>349.0</ele><time>2026-05-02T09:44:13Z</time></trkpt><trkpt lat="42.63364764971869" lon="12.493542321056433"><ele>349.0</ele><time>2026-05-02T09:44:14Z</time></trkpt><trkpt lat="42.63370210099378" lon="12.493591952152993"><ele>349.0</ele><time>2026-05-02T09:44:15Z</time></trkpt><trkpt lat="42.63376138273609" lon="12.493644585943848"><ele>349.0</ele><time>2026-05-02T09:44:16Z</time></trkpt><trkpt lat="42.633773811246805" lon="12.493749647727252"><ele>349.0</ele><time>2026-05-02T09:44:18Z</time></trkpt><trkpt lat="42.63371296603959" lon="12.493836968359851"><ele>350.4</ele><time>2026-05-02T09:44:20Z</time></trkpt><trkpt lat="42.633619909719535" lon="12.493964024090525"><ele>351.79999999999995</ele><time>2026-05-02T09:44:22Z</time></trkpt><trkpt lat="42.633578239521874" lon="12.494124141006271"><ele>353.20000000000005</ele><time>2026-05-02T09:44:24Z</time></trkpt><trkpt lat="42.63355475805311" lon="12.494226301369626"><ele>354.6</ele><time>2026-05-02T09:44:25Z</time></trkpt><trkpt lat="42.63354145219602" lon="12.494326801440685"><ele>356.0</ele><time>2026-05-02T09:44:26Z</time></trkpt><trkpt lat="42.633530543668414" lon="12.494436625834277"><ele>356.0</ele><time>2026-05-02T09:44:27Z</time></trkpt><trkpt lat="42.6335119684072" lon="12.494540769242809"><ele>356.0</ele><time>2026-05-02T09:44:28Z</time></trkpt><trkpt lat="42.63350171946351" lon="12.494641671659329"><ele>356.0</ele><time>2026-05-02T09:44:29Z</time></trkpt><trkpt lat="42.633509536482485" lon="12.494746204518897"><ele>356.0</ele><time>2026-05-02T09:44:30Z</time></trkpt><trkpt lat="42.63353279614021" lon="12.49484417436661"><ele>356.0</ele><time>2026-05-02T09:44:31Z</time></trkpt><trkpt lat="42.63355652108163" lon="12.494946170042892"><ele>356.0</ele><time>2026-05-02T09:44:32Z</time></trkpt><trkpt lat="42.63359206368475" lon="12.495059558959989"><ele>357.0</ele><time>2026-05-02T09:44:33Z</time></trkpt><trkpt lat="42.633620826684215" lon="12.495187474527299"><ele>358.0</ele><time>2026-05-02T09:44:34Z</time></trkpt><trkpt lat="42.63365692881517" lon="12.495318881508403"><ele>359.0</ele><time>2026-05-02T09:44:35Z</time></trkpt><trkpt lat="42.633684792389644" lon="12.495436746753608"><ele>360.0</ele><time>2026-05-02T09:44:36Z</time></trkpt><trkpt lat="42.63370649417962" lon="12.495523260386241"><ele>361.0</ele><time>2026-05-02T09:44:37Z</time></trkpt><trkpt lat="42.6337331641355" lon="12.49561333344633"><ele>362.0</ele><time>2026-05-02T09:44:38Z</time></trkpt><trkpt lat="42.63375701754705" lon="12.495705246071926"><ele>363.1666666666667</ele><time>2026-05-02T09:44:39Z</time></trkpt><trkpt lat="42.63378284963199" lon="12.495799738100215"><ele>364.33333333333337</ele><time>2026-05-02T09:44:40Z</time></trkpt><trkpt lat="42.633808143947235" lon="12.495893495907868"><ele>365.5</ele><time>2026-05-02T09:44:41Z</time></trkpt><trkpt lat="42.63383287506982" lon="12.495977588105458"><ele>366.6666666666667</ele><time>2026-05-02T09:44:42Z</time></trkpt><trkpt lat="42.633856164125476" lon="12.49606710933989"><ele>367.8333333333333</ele><time>2026-05-02T09:44:43Z</time></trkpt><trkpt lat="42.63387921733436" lon="12.496152818074448"><ele>369.0</ele><time>2026-05-02T09:44:44Z</time></trkpt><trkpt lat="42.6339212571772" lon="12.49631572998904"><ele>369.3333333333333</ele><time>2026-05-02T09:44:46Z</time></trkpt><trkpt lat="42.633937441184045" lon="12.496400405667107"><ele>369.6666666666667</ele><time>2026-05-02T09:44:47Z</time></trkpt><trkpt lat="42.63397028769674" lon="12.49655751155062"><ele>370.0</ele><time>2026-05-02T09:44:49Z</time></trkpt><trkpt lat="42.63399588910499" lon="12.496658163564495"><ele>370.33333333333337</ele><time>2026-05-02T09:44:50Z</time></trkpt><trkpt lat="42.634022028390135" lon="12.496759593177739"><ele>370.6666666666667</ele><time>2026-05-02T09:44:51Z</time></trkpt><trkpt lat="42.634049922767225" lon="12.496865705036198"><ele>371.0</ele><time>2026-05-02T09:44:52Z</time></trkpt><trkpt lat="42.63407782512649" lon="12.496956495671066"><ele>371.0</ele><time>2026-05-02T09:44:53Z</time></trkpt><trkpt lat="42.63411664488295" lon="12.497053022823403"><ele>371.0</ele><time>2026-05-02T09:44:54Z</time></trkpt><trkpt lat="42.63416977656066" lon="12.497122229795897"><ele>371.0</ele><time>2026-05-02T09:44:55Z</time></trkpt><trkpt lat="42.634245445842296" lon="12.49720236802017"><ele>371.0</ele><time>2026-05-02T09:44:56Z</time></trkpt><trkpt lat="42.634345764823024" lon="12.497284435165444"><ele>371.0</ele><time>2026-05-02T09:44:57Z</time></trkpt><trkpt lat="42.63444423878642" lon="12.497363573888407"><ele>371.6</ele><time>2026-05-02T09:44:58Z</time></trkpt><trkpt lat="42.63452604232772" lon="12.49743206511005"><ele>372.20000000000005</ele><time>2026-05-02T09:44:59Z</time></trkpt><trkpt lat="42.63460253325976" lon="12.497499959913906"><ele>372.79999999999995</ele><time>2026-05-02T09:45:00Z</time></trkpt><trkpt lat="42.634678289337295" lon="12.497580306291269"><ele>373.4</ele><time>2026-05-02T09:45:01Z</time></trkpt><trkpt lat="42.634742826219856" lon="12.49767444705795"><ele>374.0</ele><time>2026-05-02T09:45:02Z</time></trkpt><trkpt lat="42.63480509980767" lon="12.497779647313715"><ele>374.0</ele><time>2026-05-02T09:45:03Z</time></trkpt><trkpt lat="42.634864725923016" lon="12.497890887438142"><ele>374.0</ele><time>2026-05-02T09:45:04Z</time></trkpt><trkpt lat="42.63492526887114" lon="12.49801148441229"><ele>374.0</ele><time>2026-05-02T09:45:05Z</time></trkpt><trkpt lat="42.63498652120775" lon="12.498139102311292"><ele>374.0</ele><time>2026-05-02T09:45:06Z</time></trkpt><trkpt lat="42.63504874215668" lon="12.49825236589983"><ele>374.0</ele><time>2026-05-02T09:45:07Z</time></trkpt><trkpt lat="42.63512714202359" lon="12.498379595173455"><ele>374.79999999999995</ele><time>2026-05-02T09:45:08Z</time></trkpt><trkpt lat="42.63519678933791" lon="12.4985058600781"><ele>375.59999999999997</ele><time>2026-05-02T09:45:09Z</time></trkpt><trkpt lat="42.63526806618964" lon="12.498622074089425"><ele>376.4</ele><time>2026-05-02T09:45:10Z</time></trkpt><trkpt lat="42.63532940425033" lon="12.498735037037541"><ele>377.2</ele><time>2026-05-02T09:45:11Z</time></trkpt><trkpt lat="42.63539730954252" lon="12.498852796555449"><ele>378.0</ele><time>2026-05-02T09:45:12Z</time></trkpt><trkpt lat="42.63546277981711" lon="12.498967284562308"><ele>380.0</ele><time>2026-05-02T09:45:13Z</time></trkpt><trkpt lat="42.63551321870358" lon="12.49905718477294"><ele>382.0</ele><time>2026-05-02T09:45:14Z</time></trkpt><trkpt lat="42.63555982809052" lon="12.499122313996148"><ele>384.0</ele><time>2026-05-02T09:45:15Z</time></trkpt><trkpt lat="42.63561348190445" lon="12.499184568423999"><ele>386.0</ele><time>2026-05-02T09:45:16Z</time></trkpt><trkpt lat="42.635678998879044" lon="12.499238953021422"><ele>388.0</ele><time>2026-05-02T09:45:17Z</time></trkpt><trkpt lat="42.63577402660825" lon="12.499290699056234"><ele>390.0</ele><time>2026-05-02T09:45:18Z</time></trkpt><trkpt lat="42.6358803250963" lon="12.499338455973513"><ele>390.0</ele><time>2026-05-02T09:45:19Z</time></trkpt><trkpt lat="42.635994784030196" lon="12.499381642595232"><ele>390.0</ele><time>2026-05-02T09:45:20Z</time></trkpt><trkpt lat="42.63611923041543" lon="12.49942974102668"><ele>390.0</ele><time>2026-05-02T09:45:21Z</time></trkpt><trkpt lat="42.63622691792108" lon="12.499483784179757"><ele>390.0</ele><time>2026-05-02T09:45:22Z</time></trkpt><trkpt lat="42.636305605965504" lon="12.499536383258826"><ele>390.1666666666667</ele><time>2026-05-02T09:45:23Z</time></trkpt><trkpt lat="42.63637481552874" lon="12.499589655846874"><ele>390.33333333333337</ele><time>2026-05-02T09:45:24Z</time></trkpt><trkpt lat="42.63643025864313" lon="12.499633874040697"><ele>390.5</ele><time>2026-05-02T09:45:25Z</time></trkpt><trkpt lat="42.6364976272686" lon="12.499689810215841"><ele>390.6666666666667</ele><time>2026-05-02T09:45:26Z</time></trkpt><trkpt lat="42.63656716519786" lon="12.499748716301909"><ele>390.83333333333337</ele><time>2026-05-02T09:45:28Z</time></trkpt><trkpt lat="42.6365255780978" lon="12.499930583198072"><ele>391.0</ele><time>2026-05-02T09:45:31Z</time></trkpt><trkpt lat="42.63651805952681" lon="12.500069968464958"><ele>391.00000000000006</ele><time>2026-05-02T09:45:32Z</time></trkpt><trkpt lat="42.636489081991975" lon="12.500186153532383"><ele>391.0</ele><time>2026-05-02T09:45:33Z</time></trkpt><trkpt lat="42.63647881059672" lon="12.500296616424666"><ele>391.0</ele><time>2026-05-02T09:45:34Z</time></trkpt><trkpt lat="42.63644056727808" lon="12.50039493982932"><ele>391.0</ele><time>2026-05-02T09:45:35Z</time></trkpt><trkpt lat="42.63642498328823" lon="12.500486322051923"><ele>391.00000000000006</ele><time>2026-05-02T09:45:36Z</time></trkpt><trkpt lat="42.63636425195191" lon="12.500570451689857"><ele>391.0</ele><time>2026-05-02T09:45:37Z</time></trkpt><trkpt lat="42.63629759051166" lon="12.500665603846452"><ele>389.8</ele><time>2026-05-02T09:45:38Z</time></trkpt><trkpt lat="42.6362082479691" lon="12.500760132526377"><ele>388.6</ele><time>2026-05-02T09:45:39Z</time></trkpt><trkpt lat="42.63611084924132" lon="12.500843742186719"><ele>387.4</ele><time>2026-05-02T09:45:40Z</time></trkpt><trkpt lat="42.63602475715484" lon="12.500905931450912"><ele>386.2</ele><time>2026-05-02T09:45:41Z</time></trkpt><trkpt lat="42.63592751089701" lon="12.500957396166026"><ele>385.0</ele><time>2026-05-02T09:45:42Z</time></trkpt><trkpt lat="42.63583597880421" lon="12.50097702460904"><ele>385.0</ele><time>2026-05-02T09:45:43Z</time></trkpt><trkpt lat="42.63573842720536" lon="12.500993505417615"><ele>385.0</ele><time>2026-05-02T09:45:44Z</time></trkpt><trkpt lat="42.635649621209865" lon="12.501037451904528"><ele>385.0</ele><time>2026-05-02T09:45:45Z</time></trkpt><trkpt lat="42.63556233762218" lon="12.501080731727162"><ele>385.0</ele><time>2026-05-02T09:45:46Z</time></trkpt><trkpt lat="42.63548254078805" lon="12.501158848132675"><ele>385.0</ele><time>2026-05-02T09:45:47Z</time></trkpt><trkpt lat="42.635400180691704" lon="12.501259628955566"><ele>383.2</ele><time>2026-05-02T09:45:48Z</time></trkpt><trkpt lat="42.635323037673565" lon="12.501353290516557"><ele>381.4</ele><time>2026-05-02T09:45:49Z</time></trkpt><trkpt lat="42.635245919085946" lon="12.50144506719411"><ele>379.6</ele><time>2026-05-02T09:45:50Z</time></trkpt><trkpt lat="42.63518233662779" lon="12.501529596066739"><ele>377.8</ele><time>2026-05-02T09:45:51Z</time></trkpt><trkpt lat="42.635099488673525" lon="12.501585261069568"><ele>376.0</ele><time>2026-05-02T09:45:52Z</time></trkpt><trkpt lat="42.63502135899108" lon="12.5016283166555"><ele>376.0</ele><time>2026-05-02T09:45:53Z</time></trkpt><trkpt lat="42.63494731116788" lon="12.501695438327811"><ele>376.0</ele><time>2026-05-02T09:45:54.001Z</time></trkpt><trkpt lat="42.63487555104814" lon="12.501738051253609"><ele>376.0</ele><time>2026-05-02T09:45:55.001Z</time></trkpt><trkpt lat="42.63479128817979" lon="12.501795130052697"><ele>376.0</ele><time>2026-05-02T09:45:56.001Z</time></trkpt><trkpt lat="42.63470512137274" lon="12.501843212006968"><ele>376.0</ele><time>2026-05-02T09:45:57.001Z</time></trkpt><trkpt lat="42.63461774930279" lon="12.501897796235157"><ele>376.0</ele><time>2026-05-02T09:45:58.001Z</time></trkpt><trkpt lat="42.63453299070496" lon="12.501971690940513"><ele>376.0</ele><time>2026-05-02T09:45:59.001Z</time></trkpt><trkpt lat="42.63445297392553" lon="12.502065982468947"><ele>376.0</ele><time>2026-05-02T09:46:00.001Z</time></trkpt><trkpt lat="42.63436230573597" lon="12.502181043575114"><ele>376.0</ele><time>2026-05-02T09:46:01.001Z</time></trkpt><trkpt lat="42.63428166088068" lon="12.502300629151382"><ele>373.25</ele><time>2026-05-02T09:46:02.001Z</time></trkpt><trkpt lat="42.63419960602322" lon="12.502462424188773"><ele>370.5</ele><time>2026-05-02T09:46:03.001Z</time></trkpt><trkpt lat="42.63413286161759" lon="12.50261828782943"><ele>367.75</ele><time>2026-05-02T09:46:04.001Z</time></trkpt><trkpt lat="42.63407387992962" lon="12.502739642786176"><ele>365.0</ele><time>2026-05-02T09:46:05.001Z</time></trkpt><trkpt lat="42.634036546688485" lon="12.50288260961234"><ele>362.4</ele><time>2026-05-02T09:46:06.001Z</time></trkpt><trkpt lat="42.63399950134013" lon="12.503028548997468"><ele>359.8</ele><time>2026-05-02T09:46:07.001Z</time></trkpt><trkpt lat="42.633985451866145" lon="12.503189607101236"><ele>357.20000000000005</ele><time>2026-05-02T09:46:08.001Z</time></trkpt><trkpt lat="42.633971296145525" lon="12.503340641793324"><ele>354.6</ele><time>2026-05-02T09:46:09.001Z</time></trkpt><trkpt lat="42.6339497037468" lon="12.503478423094988"><ele>352.0</ele><time>2026-05-02T09:46:10.001Z</time></trkpt><trkpt lat="42.63392591702224" lon="12.503611928977065"><ele>352.0</ele><time>2026-05-02T09:46:11.001Z</time></trkpt><trkpt lat="42.63391061590987" lon="12.50374228368129"><ele>352.0</ele><time>2026-05-02T09:46:12Z</time></trkpt><trkpt lat="42.63387943967009" lon="12.503878189245283"><ele>352.0</ele><time>2026-05-02T09:46:13Z</time></trkpt><trkpt lat="42.63386046725578" lon="12.504015711786373"><ele>352.0</ele><time>2026-05-02T09:46:14Z</time></trkpt><trkpt lat="42.63385385875091" lon="12.50414531952971"><ele>352.0</ele><time>2026-05-02T09:46:15Z</time></trkpt><trkpt lat="42.63383399299338" lon="12.504259590317302"><ele>349.8</ele><time>2026-05-02T09:46:16Z</time></trkpt><trkpt lat="42.63381496349565" lon="12.504377814723773"><ele>347.6</ele><time>2026-05-02T09:46:17Z</time></trkpt><trkpt lat="42.633792830971856" lon="12.504512016629247"><ele>345.40000000000003</ele><time>2026-05-02T09:46:18Z</time></trkpt><trkpt lat="42.633786287553036" lon="12.50464881256393"><ele>343.20000000000005</ele><time>2026-05-02T09:46:19Z</time></trkpt><trkpt lat="42.63380765842223" lon="12.504803594627008"><ele>341.0</ele><time>2026-05-02T09:46:20Z</time></trkpt><trkpt lat="42.633842303968535" lon="12.50495044516153"><ele>338.5</ele><time>2026-05-02T09:46:21Z</time></trkpt><trkpt lat="42.63387254005359" lon="12.505114349798582"><ele>336.0</ele><time>2026-05-02T09:46:22Z</time></trkpt><trkpt lat="42.633896846585486" lon="12.505270482090468"><ele>333.5</ele><time>2026-05-02T09:46:23Z</time></trkpt><trkpt lat="42.63389520120631" lon="12.50544047480154"><ele>331.0</ele><time>2026-05-02T09:46:24Z</time></trkpt><trkpt lat="42.633890106938246" lon="12.505609013813782"><ele>329.5</ele><time>2026-05-02T09:46:25Z</time></trkpt><trkpt lat="42.6338822699933" lon="12.505784594212946"><ele>328.0</ele><time>2026-05-02T09:46:26Z</time></trkpt><trkpt lat="42.63388418784756" lon="12.505962198071982"><ele>326.5</ele><time>2026-05-02T09:46:27Z</time></trkpt><trkpt lat="42.63386790124093" lon="12.506120179037818"><ele>325.0</ele><time>2026-05-02T09:46:28Z</time></trkpt><trkpt lat="42.63385261953449" lon="12.50627960246355"><ele>324.4</ele><time>2026-05-02T09:46:29Z</time></trkpt><trkpt lat="42.63383048795361" lon="12.506434174734837"><ele>323.8</ele><time>2026-05-02T09:46:30Z</time></trkpt><trkpt lat="42.63377120874128" lon="12.50656348519034"><ele>323.20000000000005</ele><time>2026-05-02T09:46:31Z</time></trkpt><trkpt lat="42.633724877124294" lon="12.506676961685784"><ele>322.6</ele><time>2026-05-02T09:46:32Z</time></trkpt><trkpt lat="42.63368220888478" lon="12.50681082873229"><ele>322.0</ele><time>2026-05-02T09:46:33Z</time></trkpt><trkpt lat="42.63361550894601" lon="12.506929627144393"><ele>321.0</ele><time>2026-05-02T09:46:34Z</time></trkpt><trkpt lat="42.633535447554266" lon="12.507028925675286"><ele>320.0</ele><time>2026-05-02T09:46:35Z</time></trkpt><trkpt lat="42.63347345563707" lon="12.50714834747543"><ele>319.0</ele><time>2026-05-02T09:46:36Z</time></trkpt><trkpt lat="42.633385594348624" lon="12.507270677536718"><ele>318.0</ele><time>2026-05-02T09:46:37Z</time></trkpt><trkpt lat="42.63329391887547" lon="12.507384591084845"><ele>318.0</ele><time>2026-05-02T09:46:38Z</time></trkpt><trkpt lat="42.633201623187155" lon="12.50750292743549"><ele>318.0</ele><time>2026-05-02T09:46:39Z</time></trkpt><trkpt lat="42.633110449211024" lon="12.507623131992657"><ele>318.0</ele><time>2026-05-02T09:46:40Z</time></trkpt><trkpt lat="42.63300910955597" lon="12.507749516244738"><ele>318.0</ele><time>2026-05-02T09:46:41Z</time></trkpt><trkpt lat="42.6329345619879" lon="12.507854130637185"><ele>315.5</ele><time>2026-05-02T09:46:42Z</time></trkpt><trkpt lat="42.63284952606747" lon="12.507954171326807"><ele>313.0</ele><time>2026-05-02T09:46:43Z</time></trkpt><trkpt lat="42.63278928488029" lon="12.508105209194959"><ele>310.5</ele><time>2026-05-02T09:46:44Z</time></trkpt><trkpt lat="42.63275112301816" lon="12.508251952073804"><ele>308.0</ele><time>2026-05-02T09:46:45Z</time></trkpt><trkpt lat="42.63272814595115" lon="12.508415486347124"><ele>305.75</ele><time>2026-05-02T09:46:46Z</time></trkpt><trkpt lat="42.63270118263605" lon="12.50857386448328"><ele>303.5</ele><time>2026-05-02T09:46:47Z</time></trkpt><trkpt lat="42.6326688790281" lon="12.50875101612649"><ele>301.25</ele><time>2026-05-02T09:46:48Z</time></trkpt><trkpt lat="42.63263738484848" lon="12.50892365789204"><ele>299.0</ele><time>2026-05-02T09:46:49Z</time></trkpt><trkpt lat="42.63260257005615" lon="12.509091619500923"><ele>297.75</ele><time>2026-05-02T09:46:50Z</time></trkpt><trkpt lat="42.63256661540504" lon="12.50925284868431"><ele>296.5</ele><time>2026-05-02T09:46:51Z</time></trkpt><trkpt lat="42.63253443604247" lon="12.509411157434805"><ele>295.25</ele><time>2026-05-02T09:46:52Z</time></trkpt><trkpt lat="42.63250757036828" lon="12.509568872420747"><ele>294.0</ele><time>2026-05-02T09:46:53Z</time></trkpt><trkpt lat="42.63247933619978" lon="12.50972002393976"><ele>292.8</ele><time>2026-05-02T09:46:54Z</time></trkpt><trkpt lat="42.63244652274984" lon="12.509877958663576"><ele>291.59999999999997</ele><time>2026-05-02T09:46:55Z</time></trkpt><trkpt lat="42.63241401278335" lon="12.509998603743293"><ele>290.4</ele><time>2026-05-02T09:46:56Z</time></trkpt><trkpt lat="42.632382965361614" lon="12.51012195215239"><ele>289.2</ele><time>2026-05-02T09:46:57Z</time></trkpt><trkpt lat="42.63235840230565" lon="12.510218964191687"><ele>288.0</ele><time>2026-05-02T09:46:58Z</time></trkpt><trkpt lat="42.63232823966027" lon="12.510376301097594"><ele>286.5</ele><time>2026-05-02T09:47:00Z</time></trkpt><trkpt lat="42.63230163347027" lon="12.510550079861902"><ele>285.0</ele><time>2026-05-02T09:47:02Z</time></trkpt><trkpt lat="42.63228662209172" lon="12.510645611996319"><ele>283.5</ele><time>2026-05-02T09:47:03Z</time></trkpt><trkpt lat="42.632268975332416" lon="12.510746522023828"><ele>282.0</ele><time>2026-05-02T09:47:04Z</time></trkpt><trkpt lat="42.63223087945102" lon="12.510826010584493"><ele>280.5</ele><time>2026-05-02T09:47:05Z</time></trkpt><trkpt lat="42.63221763090734" lon="12.51092533056295"><ele>279.0</ele><time>2026-05-02T09:47:06Z</time></trkpt><trkpt lat="42.632193695559515" lon="12.5110116056969"><ele>279.0</ele><time>2026-05-02T09:47:07Z</time></trkpt><trkpt lat="42.63216647910759" lon="12.511089458994144"><ele>279.0</ele><time>2026-05-02T09:47:08Z</time></trkpt><trkpt lat="42.632129959174705" lon="12.511222532460197"><ele>279.0</ele><time>2026-05-02T09:47:10Z</time></trkpt><trkpt lat="42.6321024273412" lon="12.511363081172489"><ele>279.0</ele><time>2026-05-02T09:47:12Z</time></trkpt><trkpt lat="42.63212871024299" lon="12.511527517491007"><ele>279.0</ele><time>2026-05-02T09:47:14Z</time></trkpt><trkpt lat="42.63216655178163" lon="12.511676708523735"><ele>277.3333333333333</ele><time>2026-05-02T09:47:16Z</time></trkpt><trkpt lat="42.63217042209918" lon="12.511777512340332"><ele>275.6666666666667</ele><time>2026-05-02T09:47:17Z</time></trkpt><trkpt lat="42.63217146091923" lon="12.511890198287281"><ele>274.0</ele><time>2026-05-02T09:47:18Z</time></trkpt><trkpt lat="42.63216716536484" lon="12.51200499011471"><ele>272.33333333333337</ele><time>2026-05-02T09:47:19Z</time></trkpt><trkpt lat="42.63214133873773" lon="12.51211290358466"><ele>270.6666666666667</ele><time>2026-05-02T09:47:20Z</time></trkpt><trkpt lat="42.632142556742714" lon="12.512218569608233"><ele>269.0</ele><time>2026-05-02T09:47:21Z</time></trkpt><trkpt lat="42.632116672832865" lon="12.512331296195951"><ele>267.0</ele><time>2026-05-02T09:47:22Z</time></trkpt><trkpt lat="42.63208980796215" lon="12.51244650473221"><ele>265.0</ele><time>2026-05-02T09:47:23Z</time></trkpt><trkpt lat="42.632054480043564" lon="12.51257418622128"><ele>263.0</ele><time>2026-05-02T09:47:24Z</time></trkpt><trkpt lat="42.632020745796574" lon="12.512711225152485"><ele>261.0</ele><time>2026-05-02T09:47:25Z</time></trkpt><trkpt lat="42.6319948758981" lon="12.512845145154609"><ele>259.0</ele><time>2026-05-02T09:47:26Z</time></trkpt><trkpt lat="42.63196954418816" lon="12.512998133521329"><ele>257.4</ele><time>2026-05-02T09:47:27Z</time></trkpt><trkpt lat="42.63194665465615" lon="12.513146112008219"><ele>255.79999999999998</ele><time>2026-05-02T09:47:28Z</time></trkpt><trkpt lat="42.63192609932219" lon="12.513297999883543"><ele>254.20000000000002</ele><time>2026-05-02T09:47:29Z</time></trkpt><trkpt lat="42.63190430962293" lon="12.513444094231259"><ele>252.60000000000002</ele><time>2026-05-02T09:47:30Z</time></trkpt><trkpt lat="42.63187664424767" lon="12.513587588346207"><ele>251.0</ele><time>2026-05-02T09:47:31Z</time></trkpt><trkpt lat="42.63183590311516" lon="12.51373687399848"><ele>248.75</ele><time>2026-05-02T09:47:32Z</time></trkpt><trkpt lat="42.631807034642314" lon="12.513875342495343"><ele>246.5</ele><time>2026-05-02T09:47:33Z</time></trkpt><trkpt lat="42.63177281345247" lon="12.51402134088023"><ele>244.25</ele><time>2026-05-02T09:47:34Z</time></trkpt><trkpt lat="42.63174195858385" lon="12.514167666433703"><ele>242.0</ele><time>2026-05-02T09:47:35Z</time></trkpt><trkpt lat="42.63170716643871" lon="12.514333105926319"><ele>242.0</ele><time>2026-05-02T09:47:36Z</time></trkpt><trkpt lat="42.631672467198975" lon="12.51446833199532"><ele>242.0</ele><time>2026-05-02T09:47:37Z</time></trkpt><trkpt lat="42.63163809363231" lon="12.514616942107185"><ele>242.0</ele><time>2026-05-02T09:47:38Z</time></trkpt><trkpt lat="42.63160469069221" lon="12.514777846284657"><ele>242.0</ele><time>2026-05-02T09:47:39Z</time></trkpt><trkpt lat="42.631549775967926" lon="12.51491696203788"><ele>239.75</ele><time>2026-05-02T09:47:40Z</time></trkpt><trkpt lat="42.63148158854371" lon="12.515070209853638"><ele>237.5</ele><time>2026-05-02T09:47:41Z</time></trkpt><trkpt lat="42.63141314712956" lon="12.515217037411857"><ele>235.25</ele><time>2026-05-02T09:47:42Z</time></trkpt><trkpt lat="42.63134866275633" lon="12.515350095046255"><ele>233.0</ele><time>2026-05-02T09:47:43Z</time></trkpt><trkpt lat="42.631289906786776" lon="12.515461491067958"><ele>231.2</ele><time>2026-05-02T09:47:44Z</time></trkpt><trkpt lat="42.631218224778436" lon="12.515571403941557"><ele>229.4</ele><time>2026-05-02T09:47:45Z</time></trkpt><trkpt lat="42.6311318302913" lon="12.515668748772534"><ele>227.59999999999997</ele><time>2026-05-02T09:47:46Z</time></trkpt><trkpt lat="42.631041679406735" lon="12.515748078556856"><ele>225.79999999999998</ele><time>2026-05-02T09:47:47Z</time></trkpt><trkpt lat="42.63094936041724" lon="12.515825310221626"><ele>224.0</ele><time>2026-05-02T09:47:48Z</time></trkpt><trkpt lat="42.63084843195568" lon="12.515908083682236"><ele>224.0</ele><time>2026-05-02T09:47:49Z</time></trkpt><trkpt lat="42.630757355924054" lon="12.516006936566232"><ele>223.99999999999997</ele><time>2026-05-02T09:47:50Z</time></trkpt><trkpt lat="42.63065746725692" lon="12.516084581209109"><ele>223.99999999999997</ele><time>2026-05-02T09:47:51Z</time></trkpt><trkpt lat="42.630570380713934" lon="12.51615866824438"><ele>224.0</ele><time>2026-05-02T09:47:52Z</time></trkpt><trkpt lat="42.63048972539807" lon="12.516230717584056"><ele>224.0</ele><time>2026-05-02T09:47:53Z</time></trkpt><trkpt lat="42.63040902788326" lon="12.516317115719442"><ele>221.75</ele><time>2026-05-02T09:47:54Z</time></trkpt><trkpt lat="42.630319529643735" lon="12.5163980466704"><ele>219.5</ele><time>2026-05-02T09:47:55Z</time></trkpt><trkpt lat="42.630216586528185" lon="12.516472077409288"><ele>217.25</ele><time>2026-05-02T09:47:56Z</time></trkpt><trkpt lat="42.63011131988848" lon="12.51652899828362"><ele>215.0</ele><time>2026-05-02T09:47:57Z</time></trkpt><trkpt lat="42.62999862225187" lon="12.516541354899925"><ele>213.5</ele><time>2026-05-02T09:47:58Z</time></trkpt><trkpt lat="42.629851675475365" lon="12.516592853683273"><ele>212.0</ele><time>2026-05-02T09:47:59Z</time></trkpt><trkpt lat="42.629709850663005" lon="12.516609129338427"><ele>210.5</ele><time>2026-05-02T09:48:00.001Z</time></trkpt><trkpt lat="42.62958062132424" lon="12.516623618483779"><ele>209.0</ele><time>2026-05-02T09:48:01.001Z</time></trkpt><trkpt lat="42.6294555123643" lon="12.516646532257834"><ele>205.75</ele><time>2026-05-02T09:48:02.001Z</time></trkpt><trkpt lat="42.62932280398259" lon="12.516666913882458"><ele>202.5</ele><time>2026-05-02T09:48:03.001Z</time></trkpt><trkpt lat="42.62918535870238" lon="12.516687353421252"><ele>199.25</ele><time>2026-05-02T09:48:04.001Z</time></trkpt><trkpt lat="42.629048524255175" lon="12.516713278865392"><ele>196.0</ele><time>2026-05-02T09:48:05.001Z</time></trkpt><trkpt lat="42.62891314131736" lon="12.516735029347865"><ele>196.0</ele><time>2026-05-02T09:48:06.001Z</time></trkpt><trkpt lat="42.62877755165847" lon="12.516753789515176"><ele>196.0</ele><time>2026-05-02T09:48:07.001Z</time></trkpt><trkpt lat="42.62864928873501" lon="12.516768882010217"><ele>196.0</ele><time>2026-05-02T09:48:08.001Z</time></trkpt><trkpt lat="42.62852027891947" lon="12.516784378759029"><ele>196.0</ele><time>2026-05-02T09:48:09.001Z</time></trkpt><trkpt lat="42.62838511417933" lon="12.51679842632454"><ele>195.25</ele><time>2026-05-02T09:48:10.001Z</time></trkpt><trkpt lat="42.62826296612701" lon="12.516816979515061"><ele>194.5</ele><time>2026-05-02T09:48:11.001Z</time></trkpt><trkpt lat="42.62813841213291" lon="12.516839229588681"><ele>193.75</ele><time>2026-05-02T09:48:12.001Z</time></trkpt><trkpt lat="42.62801936313779" lon="12.516863369500435"><ele>193.0</ele><time>2026-05-02T09:48:13.001Z</time></trkpt><trkpt lat="42.627891285060464" lon="12.516887870833397"><ele>194.25</ele><time>2026-05-02T09:48:14.001Z</time></trkpt><trkpt lat="42.62776854608583" lon="12.516925451154735"><ele>195.5</ele><time>2026-05-02T09:48:15.001Z</time></trkpt><trkpt lat="42.6276428200837" lon="12.516967949982964"><ele>196.75</ele><time>2026-05-02T09:48:16.001Z</time></trkpt><trkpt lat="42.627499735763365" lon="12.517007768181264"><ele>198.0</ele><time>2026-05-02T09:48:17.001Z</time></trkpt><trkpt lat="42.62738905303968" lon="12.517045261361723"><ele>196.25</ele><time>2026-05-02T09:48:18.001Z</time></trkpt><trkpt lat="42.62727352005661" lon="12.517083042794459"><ele>194.5</ele><time>2026-05-02T09:48:19.001Z</time></trkpt><trkpt lat="42.627158996190396" lon="12.517107731456756"><ele>192.75</ele><time>2026-05-02T09:48:20Z</time></trkpt><trkpt lat="42.62705066434747" lon="12.517130797359194"><ele>191.0</ele><time>2026-05-02T09:48:21Z</time></trkpt><trkpt lat="42.6269331415803" lon="12.517179885666867"><ele>191.0</ele><time>2026-05-02T09:48:22Z</time></trkpt><trkpt lat="42.62684313892874" lon="12.517237057349858"><ele>191.0</ele><time>2026-05-02T09:48:23Z</time></trkpt><trkpt lat="42.62675666681459" lon="12.517297950506487"><ele>191.0</ele><time>2026-05-02T09:48:24Z</time></trkpt><trkpt lat="42.62666997066514" lon="12.517369980363714"><ele>191.0</ele><time>2026-05-02T09:48:25Z</time></trkpt><trkpt lat="42.62658142539442" lon="12.51745793823447"><ele>191.0</ele><time>2026-05-02T09:48:26Z</time></trkpt><trkpt lat="42.62648383286592" lon="12.517507599401322"><ele>191.0</ele><time>2026-05-02T09:48:27Z</time></trkpt><trkpt lat="42.6263782712409" lon="12.517570323965929"><ele>191.0</ele><time>2026-05-02T09:48:28Z</time></trkpt><trkpt lat="42.62626774676967" lon="12.517632879489895"><ele>191.0</ele><time>2026-05-02T09:48:29Z</time></trkpt><trkpt lat="42.626147215525314" lon="12.517708044085527"><ele>191.0</ele><time>2026-05-02T09:48:30Z</time></trkpt><trkpt lat="42.626023140339406" lon="12.517754226051657"><ele>191.0</ele><time>2026-05-02T09:48:31Z</time></trkpt><trkpt lat="42.62590040513541" lon="12.517801717432983"><ele>191.0</ele><time>2026-05-02T09:48:32Z</time></trkpt><trkpt lat="42.625780177925705" lon="12.517843240313994"><ele>191.0</ele><time>2026-05-02T09:48:33Z</time></trkpt><trkpt lat="42.625669297808436" lon="12.517868894348668"><ele>191.0</ele><time>2026-05-02T09:48:34Z</time></trkpt><trkpt lat="42.62555910085817" lon="12.517904324818014"><ele>191.0</ele><time>2026-05-02T09:48:35Z</time></trkpt><trkpt lat="42.62545278177822" lon="12.517894122941312"><ele>191.0</ele><time>2026-05-02T09:48:36Z</time></trkpt><trkpt lat="42.62535548625465" lon="12.517889941428068"><ele>191.0</ele><time>2026-05-02T09:48:37Z</time></trkpt><trkpt lat="42.62525375635146" lon="12.517874655719355"><ele>191.0</ele><time>2026-05-02T09:48:38Z</time></trkpt><trkpt lat="42.6251591087229" lon="12.51787151490376"><ele>191.0</ele><time>2026-05-02T09:48:39Z</time></trkpt><trkpt lat="42.62507820091652" lon="12.51783835774156"><ele>190.83333333333331</ele><time>2026-05-02T09:48:40Z</time></trkpt><trkpt lat="42.62501056216555" lon="12.517805174970336"><ele>190.66666666666666</ele><time>2026-05-02T09:48:41Z</time></trkpt><trkpt lat="42.624951706853906" lon="12.51775618126796"><ele>190.5</ele><time>2026-05-02T09:48:42Z</time></trkpt><trkpt lat="42.62487512893113" lon="12.517759667450386"><ele>190.33333333333334</ele><time>2026-05-02T09:48:44Z</time></trkpt><trkpt lat="42.624826497541115" lon="12.51789188945036"><ele>190.16666666666669</ele><time>2026-05-02T09:48:47Z</time></trkpt><trkpt lat="42.62482505907082" lon="12.517986310232502"><ele>190.0</ele><time>2026-05-02T09:48:49Z</time></trkpt><trkpt lat="42.624832873867874" lon="12.518102501478712"><ele>190.0</ele><time>2026-05-02T09:49:14Z</time></trkpt><trkpt lat="42.62488604179213" lon="12.518240963784637"><ele>190.0</ele><time>2026-05-02T09:49:16Z</time></trkpt><trkpt lat="42.62491253225224" lon="12.518340389773128"><ele>190.0</ele><time>2026-05-02T09:49:17Z</time></trkpt><trkpt lat="42.62491927372868" lon="12.51846968244213"><ele>190.0</ele><time>2026-05-02T09:49:18Z</time></trkpt><trkpt lat="42.6249607440841" lon="12.51857849712869"><ele>190.0</ele><time>2026-05-02T09:49:19Z</time></trkpt><trkpt lat="42.6249924690351" lon="12.518682006459576"><ele>190.83333333333334</ele><time>2026-05-02T09:49:20Z</time></trkpt><trkpt lat="42.62503121279132" lon="12.518795865494228"><ele>191.66666666666669</ele><time>2026-05-02T09:49:21Z</time></trkpt><trkpt lat="42.625059566067435" lon="12.51888847455272"><ele>192.5</ele><time>2026-05-02T09:49:22Z</time></trkpt><trkpt lat="42.625096914726214" lon="12.518957747397916"><ele>193.33333333333334</ele><time>2026-05-02T09:49:23Z</time></trkpt><trkpt lat="42.62519224499896" lon="12.519061522919827"><ele>194.16666666666666</ele><time>2026-05-02T09:49:25Z</time></trkpt><trkpt lat="42.62527292935999" lon="12.519027870456378"><ele>195.0</ele><time>2026-05-02T09:49:26Z</time></trkpt><trkpt lat="42.625346297244576" lon="12.519016837728312"><ele>196.5</ele><time>2026-05-02T09:49:27Z</time></trkpt><trkpt lat="42.62542216819768" lon="12.519021488509274"><ele>198.0</ele><time>2026-05-02T09:49:28Z</time></trkpt><trkpt lat="42.625498310384344" lon="12.519059371048547"><ele>199.5</ele><time>2026-05-02T09:49:29Z</time></trkpt><trkpt lat="42.625569111930105" lon="12.519082327097177"><ele>201.0</ele><time>2026-05-02T09:49:30Z</time></trkpt><trkpt lat="42.625630427487955" lon="12.51911486391234"><ele>202.5</ele><time>2026-05-02T09:49:31Z</time></trkpt><trkpt lat="42.625743226263104" lon="12.519188294528465"><ele>204.0</ele><time>2026-05-02T09:49:33Z</time></trkpt><trkpt lat="42.62580432443333" lon="12.51925493087634"><ele>204.0</ele><time>2026-05-02T09:49:34Z</time></trkpt><trkpt lat="42.62586557249965" lon="12.51932323107696"><ele>204.0</ele><time>2026-05-02T09:49:35Z</time></trkpt><trkpt lat="42.625943062022266" lon="12.519383327326175"><ele>204.0</ele><time>2026-05-02T09:49:36Z</time></trkpt><trkpt lat="42.626021400124614" lon="12.519452980617563"><ele>204.0</ele><time>2026-05-02T09:49:37Z</time></trkpt><trkpt lat="42.62609640466717" lon="12.519516980384973"><ele>204.0</ele><time>2026-05-02T09:49:38Z</time></trkpt><trkpt lat="42.626169972027604" lon="12.519573830853382"><ele>204.0</ele><time>2026-05-02T09:49:39Z</time></trkpt><trkpt lat="42.62624399086467" lon="12.519607422418972"><ele>206.5</ele><time>2026-05-02T09:49:40Z</time></trkpt><trkpt lat="42.62631289937986" lon="12.519638670105603"><ele>209.0</ele><time>2026-05-02T09:49:41Z</time></trkpt><trkpt lat="42.62639858044649" lon="12.519624306161393"><ele>211.5</ele><time>2026-05-02T09:49:42Z</time></trkpt><trkpt lat="42.62647586404652" lon="12.519567952788858"><ele>214.0</ele><time>2026-05-02T09:49:43Z</time></trkpt><trkpt lat="42.62654712196967" lon="12.519574268822838"><ele>216.5</ele><time>2026-05-02T09:49:45Z</time></trkpt><trkpt lat="42.62655051718733" lon="12.519697948208144"><ele>219.0</ele><time>2026-05-02T09:49:48Z</time></trkpt><trkpt lat="42.6264903029245" lon="12.519744347652255"><ele>219.0</ele><time>2026-05-02T09:49:49Z</time></trkpt><trkpt lat="42.62645616453888" lon="12.519831528407545"><ele>219.0</ele><time>2026-05-02T09:49:50Z</time></trkpt><trkpt lat="42.62642115428517" lon="12.51990583058349"><ele>219.0</ele><time>2026-05-02T09:49:51Z</time></trkpt><trkpt lat="42.62639430415745" lon="12.520027050033386"><ele>219.0</ele><time>2026-05-02T09:49:52Z</time></trkpt><trkpt lat="42.626365084490594" lon="12.520161521707378"><ele>219.0</ele><time>2026-05-02T09:49:53Z</time></trkpt><trkpt lat="42.62634130396911" lon="12.520292333768365"><ele>219.0</ele><time>2026-05-02T09:49:54Z</time></trkpt><trkpt lat="42.62632280570779" lon="12.52040674092113"><ele>220.0</ele><time>2026-05-02T09:49:55Z</time></trkpt><trkpt lat="42.62629303836937" lon="12.520524430419027"><ele>220.99999999999997</ele><time>2026-05-02T09:49:56Z</time></trkpt><trkpt lat="42.62625777655052" lon="12.52066179788203"><ele>221.99999999999997</ele><time>2026-05-02T09:49:57Z</time></trkpt><trkpt lat="42.626226900128984" lon="12.520817254347584"><ele>223.0</ele><time>2026-05-02T09:49:58Z</time></trkpt><trkpt lat="42.62619423944301" lon="12.5209634083118"><ele>224.0</ele><time>2026-05-02T09:49:59Z</time></trkpt><trkpt lat="42.626159850177" lon="12.521105127452392"><ele>224.66666666666669</ele><time>2026-05-02T09:50:00Z</time></trkpt><trkpt lat="42.62612663645677" lon="12.521251012238466"><ele>225.33333333333334</ele><time>2026-05-02T09:50:01Z</time></trkpt><trkpt lat="42.62609469239216" lon="12.521397212503775"><ele>226.0</ele><time>2026-05-02T09:50:02Z</time></trkpt><trkpt lat="42.62606326704106" lon="12.52150768167401"><ele>226.66666666666669</ele><time>2026-05-02T09:50:03Z</time></trkpt><trkpt lat="42.62606261692429" lon="12.521601568416433"><ele>227.33333333333334</ele><time>2026-05-02T09:50:04Z</time></trkpt><trkpt lat="42.62607335842454" lon="12.521687421679657"><ele>228.0</ele><time>2026-05-02T09:50:05Z</time></trkpt><trkpt lat="42.626163251868874" lon="12.521810893761094"><ele>229.0</ele><time>2026-05-02T09:50:07.001Z</time></trkpt><trkpt lat="42.62624631395269" lon="12.521878355835707"><ele>230.0</ele><time>2026-05-02T09:50:08.001Z</time></trkpt><trkpt lat="42.62634586091087" lon="12.521957285474858"><ele>231.0</ele><time>2026-05-02T09:50:09.001Z</time></trkpt><trkpt lat="42.62646737765711" lon="12.522030788263155"><ele>232.0</ele><time>2026-05-02T09:50:10.001Z</time></trkpt><trkpt lat="42.62657248390665" lon="12.52212517487006"><ele>233.49999999999997</ele><time>2026-05-02T09:50:11.001Z</time></trkpt><trkpt lat="42.6266689155748" lon="12.522211998172596"><ele>235.0</ele><time>2026-05-02T09:50:12.001Z</time></trkpt><trkpt lat="42.626746543927396" lon="12.522286215507854"><ele>236.5</ele><time>2026-05-02T09:50:13.001Z</time></trkpt><trkpt lat="42.62681740186953" lon="12.522343367348855"><ele>238.0</ele><time>2026-05-02T09:50:14.001Z</time></trkpt><trkpt lat="42.62688038239294" lon="12.52236156923724"><ele>239.49999999999997</ele><time>2026-05-02T09:50:15.001Z</time></trkpt><trkpt lat="42.626950960687545" lon="12.52234415788073"><ele>241.0</ele><time>2026-05-02T09:50:16.001Z</time></trkpt><trkpt lat="42.62703222719664" lon="12.522287515607765"><ele>241.49999999999997</ele><time>2026-05-02T09:50:17.001Z</time></trkpt><trkpt lat="42.62709762038546" lon="12.522207735028873"><ele>242.0</ele><time>2026-05-02T09:50:18.001Z</time></trkpt><trkpt lat="42.62715687566906" lon="12.5221184985392"><ele>242.5</ele><time>2026-05-02T09:50:19.001Z</time></trkpt><trkpt lat="42.62722056630689" lon="12.522013318608266"><ele>243.0</ele><time>2026-05-02T09:50:20Z</time></trkpt><trkpt lat="42.627277078179795" lon="12.5219561087689"><ele>243.49999999999997</ele><time>2026-05-02T09:50:21Z</time></trkpt><trkpt lat="42.62735292551502" lon="12.521911485270037"><ele>244.0</ele><time>2026-05-02T09:50:22Z</time></trkpt><trkpt lat="42.62742926717918" lon="12.52189042512456"><ele>242.79999999999998</ele><time>2026-05-02T09:50:23Z</time></trkpt><trkpt lat="42.62753373432793" lon="12.521882798537446"><ele>241.59999999999997</ele><time>2026-05-02T09:50:24Z</time></trkpt><trkpt lat="42.6276502004871" lon="12.521883403945866"><ele>240.4</ele><time>2026-05-02T09:50:25Z</time></trkpt><trkpt lat="42.627748538611506" lon="12.521885961008895"><ele>239.2</ele><time>2026-05-02T09:50:26Z</time></trkpt><trkpt lat="42.62787219166997" lon="12.521876212995203"><ele>238.0</ele><time>2026-05-02T09:50:27Z</time></trkpt><trkpt lat="42.62799521583663" lon="12.521897061060647"><ele>238.0</ele><time>2026-05-02T09:50:28Z</time></trkpt><trkpt lat="42.628134695630834" lon="12.52190475245053"><ele>238.0</ele><time>2026-05-02T09:50:29Z</time></trkpt><trkpt lat="42.628249157384936" lon="12.521896893887476"><ele>238.0</ele><time>2026-05-02T09:50:30Z</time></trkpt><trkpt lat="42.628343385535494" lon="12.521902268780297"><ele>238.0</ele><time>2026-05-02T09:50:31Z</time></trkpt><trkpt lat="42.62843289226962" lon="12.521909156302385"><ele>238.0</ele><time>2026-05-02T09:50:32Z</time></trkpt><trkpt lat="42.62851074361738" lon="12.521945229183414"><ele>238.0</ele><time>2026-05-02T09:50:33Z</time></trkpt><trkpt lat="42.62858802727053" lon="12.521995033279907"><ele>238.0</ele><time>2026-05-02T09:50:35Z</time></trkpt><trkpt lat="42.62859898990254" lon="12.522112438644703"><ele>238.0</ele><time>2026-05-02T09:50:39Z</time></trkpt><trkpt lat="42.62861578102206" lon="12.522209521036576"><ele>238.0</ele><time>2026-05-02T09:50:41Z</time></trkpt><trkpt lat="42.62858044489415" lon="12.522374496849457"><ele>238.0</ele><time>2026-05-02T09:50:43Z</time></trkpt><trkpt lat="42.62857244049834" lon="12.522528863272845"><ele>239.66666666666666</ele><time>2026-05-02T09:50:45Z</time></trkpt><trkpt lat="42.62856250416154" lon="12.522621415622314"><ele>241.33333333333331</ele><time>2026-05-02T09:50:46Z</time></trkpt><trkpt lat="42.62855022719089" lon="12.522726466592117"><ele>243.0</ele><time>2026-05-02T09:50:47Z</time></trkpt><trkpt lat="42.62853674019308" lon="12.522831733150104"><ele>244.66666666666669</ele><time>2026-05-02T09:50:48Z</time></trkpt><trkpt lat="42.62852406544931" lon="12.522934832322893"><ele>246.33333333333334</ele><time>2026-05-02T09:50:49Z</time></trkpt><trkpt lat="42.6285109206587" lon="12.523059536115436"><ele>248.0</ele><time>2026-05-02T09:50:50Z</time></trkpt><trkpt lat="42.628496945733964" lon="12.523189161210578"><ele>249.8</ele><time>2026-05-02T09:50:51Z</time></trkpt><trkpt lat="42.628485821755945" lon="12.523319851190251"><ele>251.60000000000002</ele><time>2026-05-02T09:50:52Z</time></trkpt><trkpt lat="42.62846873822496" lon="12.523436783367217"><ele>253.39999999999998</ele><time>2026-05-02T09:50:53Z</time></trkpt><trkpt lat="42.6284530360636" lon="12.523583931197274"><ele>255.2</ele><time>2026-05-02T09:50:54Z</time></trkpt><trkpt lat="42.62843770210189" lon="12.523719942312555"><ele>257.0</ele><time>2026-05-02T09:50:55Z</time></trkpt><trkpt lat="42.62841713122588" lon="12.523867288226285"><ele>259.4</ele><time>2026-05-02T09:50:56Z</time></trkpt><trkpt lat="42.62839941995005" lon="12.524006963157868"><ele>261.79999999999995</ele><time>2026-05-02T09:50:57Z</time></trkpt><trkpt lat="42.628387376296864" lon="12.524137988345164"><ele>264.2</ele><time>2026-05-02T09:50:58Z</time></trkpt><trkpt lat="42.62837807441047" lon="12.524257122839815"><ele>266.59999999999997</ele><time>2026-05-02T09:50:59Z</time></trkpt><trkpt lat="42.628360447610476" lon="12.524377371239455"><ele>269.0</ele><time>2026-05-02T09:51:00Z</time></trkpt><trkpt lat="42.62835422406814" lon="12.524499282291265"><ele>270.5</ele><time>2026-05-02T09:51:01Z</time></trkpt><trkpt lat="42.62836760597551" lon="12.524636241997644"><ele>272.0</ele><time>2026-05-02T09:51:03Z</time></trkpt><trkpt lat="42.628426385310476" lon="12.524702756443283"><ele>273.5</ele><time>2026-05-02T09:51:04Z</time></trkpt><trkpt lat="42.628491413865525" lon="12.524736630749247"><ele>275.0</ele><time>2026-05-02T09:51:05Z</time></trkpt><trkpt lat="42.62856600414651" lon="12.524773195703776"><ele>276.5</ele><time>2026-05-02T09:51:06Z</time></trkpt><trkpt lat="42.62864729465818" lon="12.524837312694729"><ele>278.0</ele><time>2026-05-02T09:51:07Z</time></trkpt><trkpt lat="42.628726917615595" lon="12.524907598062484"><ele>278.0</ele><time>2026-05-02T09:51:08Z</time></trkpt><trkpt lat="42.628798658420386" lon="12.524982897169725"><ele>278.0</ele><time>2026-05-02T09:51:09Z</time></trkpt><trkpt lat="42.62884628448561" lon="12.52506151741574"><ele>278.0</ele><time>2026-05-02T09:51:10Z</time></trkpt><trkpt lat="42.62887541915571" lon="12.525232097995"><ele>278.0</ele><time>2026-05-02T09:51:12Z</time></trkpt><trkpt lat="42.6288319937182" lon="12.525316475121652"><ele>278.0</ele><time>2026-05-02T09:51:13Z</time></trkpt><trkpt lat="42.62881423262294" lon="12.525423798667829"><ele>279.6</ele><time>2026-05-02T09:51:14Z</time></trkpt><trkpt lat="42.628757571693846" lon="12.525526586999893"><ele>281.20000000000005</ele><time>2026-05-02T09:51:15Z</time></trkpt><trkpt lat="42.62870374060989" lon="12.525646549768908"><ele>282.8</ele><time>2026-05-02T09:51:16Z</time></trkpt><trkpt lat="42.628665265245" lon="12.525738834622478"><ele>284.40000000000003</ele><time>2026-05-02T09:51:17Z</time></trkpt><trkpt lat="42.628607683233774" lon="12.525791373230197"><ele>286.0</ele><time>2026-05-02T09:51:18Z</time></trkpt><trkpt lat="42.62847237607673" lon="12.525836942632889"><ele>286.8333333333333</ele><time>2026-05-02T09:51:20Z</time></trkpt><trkpt lat="42.628376881394075" lon="12.525884937324106"><ele>287.66666666666663</ele><time>2026-05-02T09:51:21Z</time></trkpt><trkpt lat="42.628298012746505" lon="12.525926112579612"><ele>288.5</ele><time>2026-05-02T09:51:22Z</time></trkpt><trkpt lat="42.62822884524444" lon="12.525952211989985"><ele>289.3333333333333</ele><time>2026-05-02T09:51:23Z</time></trkpt><trkpt lat="42.62816922361317" lon="12.526004231774628"><ele>290.1666666666667</ele><time>2026-05-02T09:51:24Z</time></trkpt><trkpt lat="42.628137770779325" lon="12.526082498987854"><ele>291.0</ele><time>2026-05-02T09:51:25Z</time></trkpt><trkpt lat="42.62811587637768" lon="12.526186029318009"><ele>291.8333333333333</ele><time>2026-05-02T09:51:26Z</time></trkpt><trkpt lat="42.62810888521653" lon="12.526296558640958"><ele>292.6666666666667</ele><time>2026-05-02T09:51:27Z</time></trkpt><trkpt lat="42.62809974139307" lon="12.526429104269516"><ele>293.5</ele><time>2026-05-02T09:51:28Z</time></trkpt><trkpt lat="42.628084001441195" lon="12.526547707020248"><ele>294.33333333333337</ele><time>2026-05-02T09:51:29Z</time></trkpt><trkpt lat="42.62806226548606" lon="12.526657979947284"><ele>295.1666666666667</ele><time>2026-05-02T09:51:30Z</time></trkpt><trkpt lat="42.62805908722081" lon="12.526747133269685"><ele>296.0</ele><time>2026-05-02T09:51:31Z</time></trkpt><trkpt lat="42.628047174513796" lon="12.526832590660817"><ele>296.0</ele><time>2026-05-02T09:51:32Z</time></trkpt><trkpt lat="42.62800855171862" lon="12.526908714880324"><ele>296.0</ele><time>2026-05-02T09:51:33Z</time></trkpt><trkpt lat="42.62795164127824" lon="12.52699802377043"><ele>296.0</ele><time>2026-05-02T09:51:34Z</time></trkpt><trkpt lat="42.62787432070786" lon="12.52710342996621"><ele>296.0</ele><time>2026-05-02T09:51:35Z</time></trkpt><trkpt lat="42.627823098475474" lon="12.527196537119607"><ele>296.0</ele><time>2026-05-02T09:51:36Z</time></trkpt><trkpt lat="42.627798559046994" lon="12.52730557476454"><ele>296.0</ele><time>2026-05-02T09:51:37Z</time></trkpt><trkpt lat="42.627737592647414" lon="12.52743339372285"><ele>296.40000000000003</ele><time>2026-05-02T09:51:39Z</time></trkpt><trkpt lat="42.62767471848508" lon="12.52745617019419"><ele>296.8</ele><time>2026-05-02T09:51:40Z</time></trkpt><trkpt lat="42.62759150913602" lon="12.527416484519726"><ele>297.20000000000005</ele><time>2026-05-02T09:51:41Z</time></trkpt><trkpt lat="42.627489933234756" lon="12.527416534900778"><ele>297.6</ele><time>2026-05-02T09:51:42Z</time></trkpt><trkpt lat="42.62736605301115" lon="12.527437525051804"><ele>298.0</ele><time>2026-05-02T09:51:43Z</time></trkpt><trkpt lat="42.627213780814756" lon="12.527425310542402"><ele>298.0</ele><time>2026-05-02T09:51:44Z</time></trkpt><trkpt lat="42.62709659633259" lon="12.527417642382671"><ele>298.0</ele><time>2026-05-02T09:51:45Z</time></trkpt><trkpt lat="42.6269947161223" lon="12.527416391598942"><ele>298.0</ele><time>2026-05-02T09:51:46Z</time></trkpt><trkpt lat="42.62689645055319" lon="12.527418742616925"><ele>298.0</ele><time>2026-05-02T09:51:47Z</time></trkpt><trkpt lat="42.62678060382882" lon="12.527391936230204"><ele>298.0</ele><time>2026-05-02T09:51:48Z</time></trkpt><trkpt lat="42.62668638104966" lon="12.527386204222145"><ele>298.0</ele><time>2026-05-02T09:51:49Z</time></trkpt><trkpt lat="42.62658539583543" lon="12.527381231070981"><ele>298.0</ele><time>2026-05-02T09:51:50Z</time></trkpt><trkpt lat="42.6264929482398" lon="12.527390967427404"><ele>298.0</ele><time>2026-05-02T09:51:51Z</time></trkpt><trkpt lat="42.62641520064175" lon="12.52738578078079"><ele>298.0</ele><time>2026-05-02T09:51:52Z</time></trkpt><trkpt lat="42.62630009560824" lon="12.527435974547902"><ele>298.0</ele><time>2026-05-02T09:51:54Z</time></trkpt><trkpt lat="42.62623714660634" lon="12.527597918826086"><ele>298.0</ele><time>2026-05-02T09:51:56Z</time></trkpt><trkpt lat="42.62621811698273" lon="12.527726124197217"><ele>298.0</ele><time>2026-05-02T09:51:57Z</time></trkpt><trkpt lat="42.626207729240825" lon="12.527845304414988"><ele>298.0</ele><time>2026-05-02T09:51:58Z</time></trkpt><trkpt lat="42.62619170026383" lon="12.527983332735216"><ele>298.0</ele><time>2026-05-02T09:51:59Z</time></trkpt><trkpt lat="42.62616934163587" lon="12.52812077219002"><ele>298.0</ele><time>2026-05-02T09:52:00Z</time></trkpt><trkpt lat="42.62614246399057" lon="12.528249774172322"><ele>299.8</ele><time>2026-05-02T09:52:01Z</time></trkpt><trkpt lat="42.62611745254957" lon="12.528375961954705"><ele>301.6</ele><time>2026-05-02T09:52:02Z</time></trkpt><trkpt lat="42.62608891942956" lon="12.528517934573497"><ele>303.4</ele><time>2026-05-02T09:52:03Z</time></trkpt><trkpt lat="42.62606365753498" lon="12.528652126506401"><ele>305.2</ele><time>2026-05-02T09:52:04Z</time></trkpt><trkpt lat="42.62604433450136" lon="12.528783938371035"><ele>307.0</ele><time>2026-05-02T09:52:05Z</time></trkpt><trkpt lat="42.626031386917546" lon="12.528919001137492"><ele>310.6</ele><time>2026-05-02T09:52:06Z</time></trkpt><trkpt lat="42.62600739289701" lon="12.52902856775336"><ele>314.2</ele><time>2026-05-02T09:52:07Z</time></trkpt><trkpt lat="42.625986617280454" lon="12.529152416076222"><ele>317.8</ele><time>2026-05-02T09:52:08Z</time></trkpt><trkpt lat="42.62599425023692" lon="12.529355539453798"><ele>321.4</ele><time>2026-05-02T09:52:10Z</time></trkpt><trkpt lat="42.62602373613653" lon="12.529435560534557"><ele>325.0</ele><time>2026-05-02T09:52:11Z</time></trkpt><trkpt lat="42.62607913537791" lon="12.529529776628696"><ele>326.4</ele><time>2026-05-02T09:52:12Z</time></trkpt><trkpt lat="42.62613720073822" lon="12.529673478709052"><ele>327.8</ele><time>2026-05-02T09:52:13Z</time></trkpt><trkpt lat="42.626166637172815" lon="12.529763582818068"><ele>329.20000000000005</ele><time>2026-05-02T09:52:14Z</time></trkpt><trkpt lat="42.62616221304809" lon="12.529868740928991"><ele>330.6</ele><time>2026-05-02T09:52:16Z</time></trkpt><trkpt lat="42.62628130545138" lon="12.530019857580317"><ele>332.0</ele><time>2026-05-02T09:52:18Z</time></trkpt><trkpt lat="42.6263798799391" lon="12.530088413544945"><ele>332.0</ele><time>2026-05-02T09:52:19Z</time></trkpt><trkpt lat="42.62647882336095" lon="12.53017870292925"><ele>332.0</ele><time>2026-05-02T09:52:20Z</time></trkpt><trkpt lat="42.62659256144843" lon="12.530255296931958"><ele>332.0</ele><time>2026-05-02T09:52:21Z</time></trkpt><trkpt lat="42.626710501297495" lon="12.5303034812259"><ele>332.0</ele><time>2026-05-02T09:52:22Z</time></trkpt><trkpt lat="42.626803740694136" lon="12.530355156189755"><ele>333.6666666666667</ele><time>2026-05-02T09:52:23Z</time></trkpt><trkpt lat="42.62687957067988" lon="12.53040885109933"><ele>335.33333333333337</ele><time>2026-05-02T09:52:24Z</time></trkpt><trkpt lat="42.62694920710719" lon="12.530452552043325"><ele>337.0</ele><time>2026-05-02T09:52:25Z</time></trkpt><trkpt lat="42.62697990289993" lon="12.530566015806754"><ele>338.6666666666667</ele><time>2026-05-02T09:52:27Z</time></trkpt><trkpt lat="42.62692222725355" lon="12.530633249222003"><ele>340.3333333333333</ele><time>2026-05-02T09:52:28Z</time></trkpt><trkpt lat="42.62681995254061" lon="12.530613287947844"><ele>342.0</ele><time>2026-05-02T09:52:29Z</time></trkpt><trkpt lat="42.62671836372509" lon="12.530578023293288"><ele>343.5</ele><time>2026-05-02T09:52:30Z</time></trkpt><trkpt lat="42.626626758623516" lon="12.530577470110423"><ele>345.0</ele><time>2026-05-02T09:52:31Z</time></trkpt><trkpt lat="42.626548952143324" lon="12.530578504229892"><ele>346.5</ele><time>2026-05-02T09:52:32Z</time></trkpt><trkpt lat="42.62646444823773" lon="12.530573780108407"><ele>348.0</ele><time>2026-05-02T09:52:33Z</time></trkpt><trkpt lat="42.62637663227544" lon="12.530546993907572"><ele>349.5</ele><time>2026-05-02T09:52:34Z</time></trkpt><trkpt lat="42.62629284083193" lon="12.530498708824645"><ele>351.0</ele><time>2026-05-02T09:52:35Z</time></trkpt><trkpt lat="42.62620901723921" lon="12.530450071279128"><ele>350.8333333333333</ele><time>2026-05-02T09:52:36Z</time></trkpt><trkpt lat="42.62612847151383" lon="12.530397161750958"><ele>350.6666666666667</ele><time>2026-05-02T09:52:37Z</time></trkpt><trkpt lat="42.626048055955515" lon="12.530346185013608"><ele>350.5</ele><time>2026-05-02T09:52:38Z</time></trkpt><trkpt lat="42.62598045193037" lon="12.530319441045865"><ele>350.33333333333337</ele><time>2026-05-02T09:52:39Z</time></trkpt><trkpt lat="42.62591213600947" lon="12.530329108096836"><ele>350.1666666666667</ele><time>2026-05-02T09:52:40Z</time></trkpt><trkpt lat="42.62585008398785" lon="12.530383645644172"><ele>350.0</ele><time>2026-05-02T09:52:41Z</time></trkpt><trkpt lat="42.625823037327685" lon="12.53048527069198"><ele>350.0</ele><time>2026-05-02T09:52:42Z</time></trkpt><trkpt lat="42.62584441739399" lon="12.530612658395587"><ele>350.0</ele><time>2026-05-02T09:52:43Z</time></trkpt><trkpt lat="42.62589641523303" lon="12.530747264233995"><ele>350.0</ele><time>2026-05-02T09:52:44Z</time></trkpt><trkpt lat="42.62592279093823" lon="12.53087456668772"><ele>350.0</ele><time>2026-05-02T09:52:45Z</time></trkpt><trkpt lat="42.62594939193746" lon="12.53098773089861"><ele>350.0</ele><time>2026-05-02T09:52:46Z</time></trkpt><trkpt lat="42.62598824142837" lon="12.531097195511279"><ele>350.0</ele><time>2026-05-02T09:52:47Z</time></trkpt><trkpt lat="42.62601302745635" lon="12.531211639496386"><ele>350.0</ele><time>2026-05-02T09:52:48Z</time></trkpt><trkpt lat="42.626051184150015" lon="12.531335830092015"><ele>350.0</ele><time>2026-05-02T09:52:49Z</time></trkpt><trkpt lat="42.626099723198294" lon="12.531463434394352"><ele>350.0</ele><time>2026-05-02T09:52:50Z</time></trkpt><trkpt lat="42.626154819334836" lon="12.531593770724877"><ele>350.0</ele><time>2026-05-02T09:52:51Z</time></trkpt><trkpt lat="42.62620975319883" lon="12.53169738649588"><ele>350.8</ele><time>2026-05-02T09:52:52Z</time></trkpt><trkpt lat="42.62627999365451" lon="12.531783584732711"><ele>351.6</ele><time>2026-05-02T09:52:53Z</time></trkpt><trkpt lat="42.62637250830528" lon="12.531852695558708"><ele>352.4</ele><time>2026-05-02T09:52:54Z</time></trkpt><trkpt lat="42.62649391734243" lon="12.531880244373237"><ele>353.2</ele><time>2026-05-02T09:52:55Z</time></trkpt><trkpt lat="42.626613528815085" lon="12.531896249286387"><ele>354.0</ele><time>2026-05-02T09:52:56Z</time></trkpt><trkpt lat="42.626714820354515" lon="12.531934548762088"><ele>354.0</ele><time>2026-05-02T09:52:57Z</time></trkpt><trkpt lat="42.626805555781125" lon="12.53197422904585"><ele>354.0</ele><time>2026-05-02T09:52:58Z</time></trkpt><trkpt lat="42.626881488795945" lon="12.532030321385115"><ele>354.0</ele><time>2026-05-02T09:52:59Z</time></trkpt><trkpt lat="42.62695989792311" lon="12.532117030383557"><ele>354.0</ele><time>2026-05-02T09:53:00Z</time></trkpt><trkpt lat="42.62701593493228" lon="12.53223108267846"><ele>354.0</ele><time>2026-05-02T09:53:01Z</time></trkpt><trkpt lat="42.627062526547704" lon="12.53236836948511"><ele>354.2</ele><time>2026-05-02T09:53:02Z</time></trkpt><trkpt lat="42.62708564791982" lon="12.53251479438162"><ele>354.4</ele><time>2026-05-02T09:53:03Z</time></trkpt><trkpt lat="42.62711866601877" lon="12.532648584753488"><ele>354.6</ele><time>2026-05-02T09:53:04Z</time></trkpt><trkpt lat="42.627152923974585" lon="12.532772134909377"><ele>354.8</ele><time>2026-05-02T09:53:05Z</time></trkpt><trkpt lat="42.627148266407744" lon="12.53290754428601"><ele>355.0</ele><time>2026-05-02T09:53:06Z</time></trkpt><trkpt lat="42.627160409595085" lon="12.53304940641538"><ele>355.0</ele><time>2026-05-02T09:53:07Z</time></trkpt><trkpt lat="42.62717870751608" lon="12.53319650224889"><ele>355.0</ele><time>2026-05-02T09:53:08Z</time></trkpt><trkpt lat="42.627195468964935" lon="12.533352914581128"><ele>355.0</ele><time>2026-05-02T09:53:09Z</time></trkpt><trkpt lat="42.62720917977229" lon="12.533494057532028"><ele>355.0</ele><time>2026-05-02T09:53:10Z</time></trkpt><trkpt lat="42.62722663211769" lon="12.533622435807013"><ele>355.0</ele><time>2026-05-02T09:53:11Z</time></trkpt><trkpt lat="42.62722754488108" lon="12.533756718165549"><ele>355.0</ele><time>2026-05-02T09:53:12Z</time></trkpt><trkpt lat="42.627227747088575" lon="12.53389832178202"><ele>355.0</ele><time>2026-05-02T09:53:13Z</time></trkpt><trkpt lat="42.62723611756065" lon="12.534046294166933"><ele>355.0</ele><time>2026-05-02T09:53:14Z</time></trkpt><trkpt lat="42.627228908378335" lon="12.53418437376448"><ele>355.0</ele><time>2026-05-02T09:53:15Z</time></trkpt><trkpt lat="42.627237049346235" lon="12.534335250066569"><ele>355.0</ele><time>2026-05-02T09:53:16Z</time></trkpt><trkpt lat="42.62722832556849" lon="12.534507982289488"><ele>355.5</ele><time>2026-05-02T09:53:17Z</time></trkpt><trkpt lat="42.62722882579244" lon="12.534706488932422"><ele>356.0</ele><time>2026-05-02T09:53:18Z</time></trkpt><trkpt lat="42.6272302912408" lon="12.534895873487338"><ele>356.5</ele><time>2026-05-02T09:53:19Z</time></trkpt><trkpt lat="42.62724392639044" lon="12.535055374593306"><ele>357.0</ele><time>2026-05-02T09:53:20Z</time></trkpt><trkpt lat="42.62724123586666" lon="12.535212492236237"><ele>357.0</ele><time>2026-05-02T09:53:21Z</time></trkpt><trkpt lat="42.62724838256709" lon="12.535379703227804"><ele>357.0</ele><time>2026-05-02T09:53:22Z</time></trkpt><trkpt lat="42.62724235929332" lon="12.535552050360243"><ele>357.0</ele><time>2026-05-02T09:53:23Z</time></trkpt><trkpt lat="42.62723583273985" lon="12.535708516072638"><ele>357.0</ele><time>2026-05-02T09:53:24Z</time></trkpt><trkpt lat="42.62723788495086" lon="12.535854961710726"><ele>358.75</ele><time>2026-05-02T09:53:25Z</time></trkpt><trkpt lat="42.62724089471675" lon="12.536003114969017"><ele>360.5</ele><time>2026-05-02T09:53:26Z</time></trkpt><trkpt lat="42.627246750085625" lon="12.53616329620469"><ele>362.25</ele><time>2026-05-02T09:53:27Z</time></trkpt><trkpt lat="42.627266127874655" lon="12.536331675433887"><ele>364.0</ele><time>2026-05-02T09:53:28Z</time></trkpt><trkpt lat="42.62730608947187" lon="12.536503445476843"><ele>366.0</ele><time>2026-05-02T09:53:29Z</time></trkpt><trkpt lat="42.62734307755809" lon="12.536671336119914"><ele>368.0</ele><time>2026-05-02T09:53:30Z</time></trkpt><trkpt lat="42.62737576413795" lon="12.536808481645474"><ele>370.0</ele><time>2026-05-02T09:53:31Z</time></trkpt><trkpt lat="42.62738843468753" lon="12.536968999360935"><ele>372.0</ele><time>2026-05-02T09:53:32Z</time></trkpt><trkpt lat="42.62742245178369" lon="12.53711237287965"><ele>373.0</ele><time>2026-05-02T09:53:33Z</time></trkpt><trkpt lat="42.62744114986389" lon="12.53725451874105"><ele>374.0</ele><time>2026-05-02T09:53:34Z</time></trkpt><trkpt lat="42.62745700258219" lon="12.53741300495089"><ele>375.0</ele><time>2026-05-02T09:53:35Z</time></trkpt><trkpt lat="42.62747690065165" lon="12.53757347537817"><ele>376.0</ele><time>2026-05-02T09:53:36Z</time></trkpt><trkpt lat="42.62749714486159" lon="12.537737999027957"><ele>375.75</ele><time>2026-05-02T09:53:37Z</time></trkpt><trkpt lat="42.62752199971775" lon="12.537936440909956"><ele>375.5</ele><time>2026-05-02T09:53:38Z</time></trkpt><trkpt lat="42.627541739808414" lon="12.538140320618401"><ele>375.25</ele><time>2026-05-02T09:53:39Z</time></trkpt><trkpt lat="42.627558267082605" lon="12.538321683989876"><ele>375.0</ele><time>2026-05-02T09:53:40Z</time></trkpt><trkpt lat="42.627576047172084" lon="12.538482942780432"><ele>375.0</ele><time>2026-05-02T09:53:41Z</time></trkpt><trkpt lat="42.62759235309014" lon="12.538658165338665"><ele>375.0</ele><time>2026-05-02T09:53:42Z</time></trkpt><trkpt lat="42.62761215698455" lon="12.538838490825455"><ele>375.0</ele><time>2026-05-02T09:53:43Z</time></trkpt><trkpt lat="42.627622667283994" lon="12.539025295462261"><ele>375.0</ele><time>2026-05-02T09:53:44Z</time></trkpt><trkpt lat="42.62763769008318" lon="12.539211492583267"><ele>374.75</ele><time>2026-05-02T09:53:45Z</time></trkpt><trkpt lat="42.62765850505522" lon="12.53938056439981"><ele>374.5</ele><time>2026-05-02T09:53:46Z</time></trkpt><trkpt lat="42.62768207527125" lon="12.53953539237992"><ele>374.25</ele><time>2026-05-02T09:53:47Z</time></trkpt><trkpt lat="42.627707052414344" lon="12.53967965401421"><ele>374.0</ele><time>2026-05-02T09:53:48Z</time></trkpt><trkpt lat="42.62774240035186" lon="12.539810826709935"><ele>375.0</ele><time>2026-05-02T09:53:49Z</time></trkpt><trkpt lat="42.62779679644968" lon="12.539944626723077"><ele>376.0</ele><time>2026-05-02T09:53:50Z</time></trkpt><trkpt lat="42.62786086504562" lon="12.540058704891536"><ele>377.0</ele><time>2026-05-02T09:53:51Z</time></trkpt><trkpt lat="42.62793294745175" lon="12.540194277316386"><ele>378.0</ele><time>2026-05-02T09:53:52Z</time></trkpt><trkpt lat="42.62797467667331" lon="12.540367016624089"><ele>379.25</ele><time>2026-05-02T09:53:53Z</time></trkpt><trkpt lat="42.62803412602634" lon="12.540533985668702"><ele>380.5</ele><time>2026-05-02T09:53:54Z</time></trkpt><trkpt lat="42.62812091975384" lon="12.540692004038023"><ele>381.75</ele><time>2026-05-02T09:53:55Z</time></trkpt><trkpt lat="42.62819781415782" lon="12.54086678062114"><ele>383.0</ele><time>2026-05-02T09:53:56Z</time></trkpt><trkpt lat="42.628287582422075" lon="12.54103891601877"><ele>383.0</ele><time>2026-05-02T09:53:57Z</time></trkpt><trkpt lat="42.62837747030325" lon="12.541208438438105"><ele>383.0</ele><time>2026-05-02T09:53:58Z</time></trkpt><trkpt lat="42.62847546374876" lon="12.5413825916993"><ele>383.0</ele><time>2026-05-02T09:53:59Z</time></trkpt><trkpt lat="42.628578729157915" lon="12.541539048335915"><ele>384.0</ele><time>2026-05-02T09:54:00Z</time></trkpt><trkpt lat="42.62866919494232" lon="12.541681076066359"><ele>385.0</ele><time>2026-05-02T09:54:01Z</time></trkpt><trkpt lat="42.628741625250306" lon="12.541805478865522"><ele>386.0</ele><time>2026-05-02T09:54:02Z</time></trkpt><trkpt lat="42.62880676278097" lon="12.541927001268112"><ele>387.0</ele><time>2026-05-02T09:54:03Z</time></trkpt><trkpt lat="42.62886109663551" lon="12.542033556975229"><ele>386.6</ele><time>2026-05-02T09:54:04Z</time></trkpt><trkpt lat="42.62892689581217" lon="12.54212063901461"><ele>386.20000000000005</ele><time>2026-05-02T09:54:05Z</time></trkpt><trkpt lat="42.62902650889556" lon="12.54219136575388"><ele>385.8</ele><time>2026-05-02T09:54:06Z</time></trkpt><trkpt lat="42.62913709435289" lon="12.542247558548665"><ele>385.4</ele><time>2026-05-02T09:54:07Z</time></trkpt><trkpt lat="42.62923174753723" lon="12.542329950996063"><ele>385.0</ele><time>2026-05-02T09:54:08Z</time></trkpt><trkpt lat="42.62931206727196" lon="12.542414716424828"><ele>385.0</ele><time>2026-05-02T09:54:09Z</time></trkpt><trkpt lat="42.629393878362826" lon="12.542491187298456"><ele>385.0</ele><time>2026-05-02T09:54:10Z</time></trkpt><trkpt lat="42.62941948551894" lon="12.542628562790112"><ele>385.0</ele><time>2026-05-02T09:54:11Z</time></trkpt><trkpt lat="42.62946572402821" lon="12.542761676174967"><ele>385.0</ele><time>2026-05-02T09:54:12Z</time></trkpt><trkpt lat="42.62952399812442" lon="12.54289707403384"><ele>385.0</ele><time>2026-05-02T09:54:13Z</time></trkpt><trkpt lat="42.629619644317515" lon="12.543022009053022"><ele>384.2</ele><time>2026-05-02T09:54:14Z</time></trkpt><trkpt lat="42.62969877830262" lon="12.543133877338041"><ele>383.4</ele><time>2026-05-02T09:54:15Z</time></trkpt><trkpt lat="42.62975255926023" lon="12.543246571519868"><ele>382.6</ele><time>2026-05-02T09:54:16Z</time></trkpt><trkpt lat="42.629799991504456" lon="12.543372479425253"><ele>381.8</ele><time>2026-05-02T09:54:17Z</time></trkpt><trkpt lat="42.6298479954722" lon="12.543479600533338"><ele>381.0</ele><time>2026-05-02T09:54:18Z</time></trkpt><trkpt lat="42.62991459739834" lon="12.54359505776173"><ele>381.6</ele><time>2026-05-02T09:54:19Z</time></trkpt><trkpt lat="42.62997599912896" lon="12.543743552550515"><ele>382.20000000000005</ele><time>2026-05-02T09:54:20Z</time></trkpt><trkpt lat="42.6300429183871" lon="12.543876351693523"><ele>382.79999999999995</ele><time>2026-05-02T09:54:21Z</time></trkpt><trkpt lat="42.63010554585925" lon="12.543971007277293"><ele>383.4</ele><time>2026-05-02T09:54:22Z</time></trkpt><trkpt lat="42.630151506806946" lon="12.544065908760862"><ele>384.0</ele><time>2026-05-02T09:54:23Z</time></trkpt><trkpt lat="42.63019821041827" lon="12.544147765809672"><ele>384.0</ele><time>2026-05-02T09:54:24Z</time></trkpt><trkpt lat="42.6302437326526" lon="12.54422233152524"><ele>384.0</ele><time>2026-05-02T09:54:25Z</time></trkpt><trkpt lat="42.63028750166734" lon="12.5443027905633"><ele>384.0</ele><time>2026-05-02T09:54:26Z</time></trkpt><trkpt lat="42.63033449843062" lon="12.544370505367631"><ele>384.0</ele><time>2026-05-02T09:54:27Z</time></trkpt><trkpt lat="42.63038225851724" lon="12.544439005372995"><ele>384.0</ele><time>2026-05-02T09:54:28Z</time></trkpt><trkpt lat="42.630421020232454" lon="12.544562525060405"><ele>384.0</ele><time>2026-05-02T09:54:30Z</time></trkpt><trkpt lat="42.63035928198881" lon="12.544716029019506"><ele>383.25</ele><time>2026-05-02T09:54:32Z</time></trkpt><trkpt lat="42.630318880562086" lon="12.544867562079228"><ele>382.5</ele><time>2026-05-02T09:54:33Z</time></trkpt><trkpt lat="42.630264354926815" lon="12.545039695102753"><ele>381.75</ele><time>2026-05-02T09:54:34Z</time></trkpt><trkpt lat="42.63022435511037" lon="12.545219615908374"><ele>381.0</ele><time>2026-05-02T09:54:35Z</time></trkpt><trkpt lat="42.630180028884844" lon="12.545403133303338"><ele>379.75</ele><time>2026-05-02T09:54:36Z</time></trkpt><trkpt lat="42.63013643295977" lon="12.54559089531801"><ele>378.5</ele><time>2026-05-02T09:54:37Z</time></trkpt><trkpt lat="42.63009875210919" lon="12.5457632823156"><ele>377.25</ele><time>2026-05-02T09:54:38Z</time></trkpt><trkpt lat="42.63006035259478" lon="12.54592931946122"><ele>376.0</ele><time>2026-05-02T09:54:39Z</time></trkpt><trkpt lat="42.63002285209227" lon="12.54610102821597"><ele>375.25</ele><time>2026-05-02T09:54:40Z</time></trkpt><trkpt lat="42.629989987042904" lon="12.546271486926539"><ele>374.5</ele><time>2026-05-02T09:54:41Z</time></trkpt><trkpt lat="42.629961333238626" lon="12.546450020368352"><ele>373.75</ele><time>2026-05-02T09:54:42Z</time></trkpt><trkpt lat="42.62994016150745" lon="12.54663333870851"><ele>373.0</ele><time>2026-05-02T09:54:43Z</time></trkpt><trkpt lat="42.62992470466022" lon="12.546825653229432"><ele>373.0</ele><time>2026-05-02T09:54:44Z</time></trkpt><trkpt lat="42.62992105459483" lon="12.54702325683715"><ele>373.0</ele><time>2026-05-02T09:54:45Z</time></trkpt><trkpt lat="42.62992296901696" lon="12.547214407565983"><ele>373.0</ele><time>2026-05-02T09:54:46Z</time></trkpt><trkpt lat="42.62992970413871" lon="12.54739456577249"><ele>373.0</ele><time>2026-05-02T09:54:47Z</time></trkpt><trkpt lat="42.62993939453972" lon="12.547563131975359"><ele>373.75</ele><time>2026-05-02T09:54:48Z</time></trkpt><trkpt lat="42.629956995938244" lon="12.547742107904178"><ele>374.5</ele><time>2026-05-02T09:54:49Z</time></trkpt><trkpt lat="42.630011057707975" lon="12.547909847294525"><ele>375.25</ele><time>2026-05-02T09:54:50Z</time></trkpt><trkpt lat="42.63011957219801" lon="12.54804189160663"><ele>376.0</ele><time>2026-05-02T09:54:51Z</time></trkpt><trkpt lat="42.63027775499216" lon="12.54816641098211"><ele>376.0</ele><time>2026-05-02T09:54:52Z</time></trkpt><trkpt lat="42.63041051499838" lon="12.54833172452146"><ele>376.0</ele><time>2026-05-02T09:54:53Z</time></trkpt><trkpt lat="42.63051942957275" lon="12.54854152137224"><ele>376.0</ele><time>2026-05-02T09:54:54Z</time></trkpt><trkpt lat="42.6306117360198" lon="12.54878685237395"><ele>377.25</ele><time>2026-05-02T09:54:55Z</time></trkpt><trkpt lat="42.63068011707151" lon="12.549003301351426"><ele>378.5</ele><time>2026-05-02T09:54:56Z</time></trkpt><trkpt lat="42.63070158954152" lon="12.549184199469273"><ele>379.75</ele><time>2026-05-02T09:54:57Z</time></trkpt><trkpt lat="42.63068778140778" lon="12.549349283896895"><ele>381.0</ele><time>2026-05-02T09:54:58Z</time></trkpt><trkpt lat="42.630633367193845" lon="12.549498622221858"><ele>380.0</ele><time>2026-05-02T09:54:59Z</time></trkpt><trkpt lat="42.63055090676671" lon="12.5497059500455"><ele>379.0</ele><time>2026-05-02T09:55:00Z</time></trkpt><trkpt lat="42.63046904855676" lon="12.549930218434543"><ele>378.0</ele><time>2026-05-02T09:55:01Z</time></trkpt><trkpt lat="42.630386747890846" lon="12.550136932187195"><ele>378.0</ele><time>2026-05-02T09:55:02Z</time></trkpt><trkpt lat="42.630326043970825" lon="12.550339039836986"><ele>378.0</ele><time>2026-05-02T09:55:03Z</time></trkpt><trkpt lat="42.63027868121445" lon="12.55055089638324"><ele>378.0</ele><time>2026-05-02T09:55:04Z</time></trkpt><trkpt lat="42.63025359937072" lon="12.55076656818005"><ele>379.0</ele><time>2026-05-02T09:55:05Z</time></trkpt><trkpt lat="42.63026038885647" lon="12.550997394649317"><ele>380.0</ele><time>2026-05-02T09:55:06Z</time></trkpt><trkpt lat="42.630312406297215" lon="12.551233693541336"><ele>381.0</ele><time>2026-05-02T09:55:07Z</time></trkpt><trkpt lat="42.63038596279935" lon="12.551454778685915"><ele>377.3333333333333</ele><time>2026-05-02T09:55:08Z</time></trkpt><trkpt lat="42.63045458207552" lon="12.551658632123289"><ele>373.66666666666663</ele><time>2026-05-02T09:55:09Z</time></trkpt><trkpt lat="42.63051010609265" lon="12.551841727247062"><ele>370.0</ele><time>2026-05-02T09:55:10Z</time></trkpt><trkpt lat="42.63057202476894" lon="12.552015314257932"><ele>370.5</ele><time>2026-05-02T09:55:11Z</time></trkpt><trkpt lat="42.630643742369" lon="12.552169506433565"><ele>371.0</ele><time>2026-05-02T09:55:12Z</time></trkpt><trkpt lat="42.63071496196974" lon="12.55230951933829"><ele>371.5</ele><time>2026-05-02T09:55:13Z</time></trkpt><trkpt lat="42.63076847764674" lon="12.552445458298953"><ele>372.0</ele><time>2026-05-02T09:55:14Z</time></trkpt><trkpt lat="42.630802063608336" lon="12.552582112415056"><ele>372.0</ele><time>2026-05-02T09:55:15Z</time></trkpt><trkpt lat="42.63083358207808" lon="12.552718224484346"><ele>372.0</ele><time>2026-05-02T09:55:16Z</time></trkpt><trkpt lat="42.630859426775636" lon="12.552846186719123"><ele>372.0</ele><time>2026-05-02T09:55:17Z</time></trkpt><trkpt lat="42.63086975800943" lon="12.552968376596535"><ele>372.0</ele><time>2026-05-02T09:55:18Z</time></trkpt><trkpt lat="42.63087804022042" lon="12.553071368430235"><ele>372.0</ele><time>2026-05-02T09:55:19Z</time></trkpt><trkpt lat="42.6308869831909" lon="12.55316821998459"><ele>372.0</ele><time>2026-05-02T09:55:20Z</time></trkpt><trkpt lat="42.63088550645821" lon="12.553308255113636"><ele>371.8</ele><time>2026-05-02T09:55:22Z</time></trkpt><trkpt lat="42.63091497749006" lon="12.553383945205532"><ele>371.6</ele><time>2026-05-02T09:55:26Z</time></trkpt><trkpt lat="42.631075633362414" lon="12.55334888149401"><ele>371.40000000000003</ele><time>2026-05-02T09:55:28Z</time></trkpt><trkpt lat="42.63116635132397" lon="12.553335837991767"><ele>371.20000000000005</ele><time>2026-05-02T09:55:29Z</time></trkpt><trkpt lat="42.63125057077578" lon="12.553399638753659"><ele>371.0</ele><time>2026-05-02T09:55:30Z</time></trkpt><trkpt lat="42.631339724033346" lon="12.553383170912204"><ele>371.0</ele><time>2026-05-02T09:55:31Z</time></trkpt><trkpt lat="42.63141784863762" lon="12.553381295687293"><ele>371.0</ele><time>2026-05-02T09:55:32Z</time></trkpt><trkpt lat="42.63148436144701" lon="12.553347739949283"><ele>371.0</ele><time>2026-05-02T09:55:33Z</time></trkpt><trkpt lat="42.6315396651236" lon="12.553303098469508"><ele>371.0</ele><time>2026-05-02T09:55:34Z</time></trkpt><trkpt lat="42.63162498439813" lon="12.553228373705473"><ele>371.0</ele><time>2026-05-02T09:55:36Z</time></trkpt><trkpt lat="42.63170424449654" lon="12.553203177404061"><ele>371.0</ele><time>2026-05-02T09:55:38Z</time></trkpt><trkpt lat="42.63175912381404" lon="12.553276146511513"><ele>371.0</ele><time>2026-05-02T09:55:43Z</time></trkpt><trkpt lat="42.6318210074948" lon="12.553246291916235"><ele>371.0</ele><time>2026-05-02T09:56:40Z</time></trkpt><trkpt lat="42.63186867143197" lon="12.55335314089887"><ele>371.0</ele><time>2026-05-02T09:57:05Z</time></trkpt><trkpt lat="42.631804531573515" lon="12.553332762509257"><ele>371.0</ele><time>2026-05-02T09:57:31Z</time></trkpt><trkpt lat="42.63175157165065" lon="12.5532789073388"><ele>371.0</ele><time>2026-05-02T10:15:53Z</time></trkpt><trkpt lat="42.63180172856142" lon="12.553346722360812"><ele>371.0</ele><time>2026-05-02T10:17:29Z</time></trkpt><trkpt lat="42.6318925685003" lon="12.553357669141251"><ele>371.0</ele><time>2026-05-02T10:21:56Z</time></trkpt><trkpt lat="42.63184276898152" lon="12.55328422525113"><ele>371.0</ele><time>2026-05-02T10:23:02Z</time></trkpt><trkpt lat="42.63177506735013" lon="12.553267219016053"><ele>371.0</ele><time>2026-05-02T10:23:07Z</time></trkpt><trkpt lat="42.63177811152219" lon="12.553172061912605"><ele>371.0</ele><time>2026-05-02T10:25:01Z</time></trkpt><trkpt lat="42.631764238423145" lon="12.553071957635765"><ele>371.0</ele><time>2026-05-02T10:25:04Z</time></trkpt><trkpt lat="42.63183098554574" lon="12.552997628664354"><ele>371.0</ele><time>2026-05-02T10:25:06Z</time></trkpt><trkpt lat="42.63190408720776" lon="12.552956025091172"><ele>371.0</ele><time>2026-05-02T10:25:07Z</time></trkpt><trkpt lat="42.631978264869524" lon="12.552932352227051"><ele>371.0</ele><time>2026-05-02T10:25:08Z</time></trkpt><trkpt lat="42.632052104060996" lon="12.552899657797125"><ele>371.0</ele><time>2026-05-02T10:25:09Z</time></trkpt><trkpt lat="42.632126751858586" lon="12.552836062984804"><ele>371.0</ele><time>2026-05-02T10:25:10Z</time></trkpt><trkpt lat="42.632188937998286" lon="12.552785778516709"><ele>371.0</ele><time>2026-05-02T10:25:11Z</time></trkpt><trkpt lat="42.632248734925355" lon="12.552723362048994"><ele>371.0</ele><time>2026-05-02T10:25:12Z</time></trkpt><trkpt lat="42.63231900907245" lon="12.55266338551193"><ele>370.5</ele><time>2026-05-02T10:25:13Z</time></trkpt><trkpt lat="42.632384400609716" lon="12.552593514802028"><ele>370.0</ele><time>2026-05-02T10:25:14Z</time></trkpt><trkpt lat="42.63244043528797" lon="12.552521981007892"><ele>369.5</ele><time>2026-05-02T10:25:15Z</time></trkpt><trkpt lat="42.6325021025041" lon="12.552438759066227"><ele>369.0</ele><time>2026-05-02T10:25:16Z</time></trkpt><trkpt lat="42.632576188651285" lon="12.552358468367174"><ele>368.5</ele><time>2026-05-02T10:25:17Z</time></trkpt><trkpt lat="42.63264876287066" lon="12.55227308787542"><ele>368.0</ele><time>2026-05-02T10:25:18Z</time></trkpt><trkpt lat="42.632725797755874" lon="12.55217406022152"><ele>367.79999999999995</ele><time>2026-05-02T10:25:19Z</time></trkpt><trkpt lat="42.63280783951033" lon="12.552068026990158"><ele>367.6</ele><time>2026-05-02T10:25:20Z</time></trkpt><trkpt lat="42.632883150168865" lon="12.55197578081586"><ele>367.4</ele><time>2026-05-02T10:25:21Z</time></trkpt><trkpt lat="42.63296224681312" lon="12.55187724942308"><ele>367.20000000000005</ele><time>2026-05-02T10:25:22Z</time></trkpt><trkpt lat="42.63304548287742" lon="12.551773805305746"><ele>367.0</ele><time>2026-05-02T10:25:23Z</time></trkpt><trkpt lat="42.633124140346965" lon="12.551673752539754"><ele>367.0</ele><time>2026-05-02T10:25:24Z</time></trkpt><trkpt lat="42.63319974889073" lon="12.551577675445461"><ele>367.0</ele><time>2026-05-02T10:25:25Z</time></trkpt><trkpt lat="42.633281735492204" lon="12.55147635103742"><ele>367.0</ele><time>2026-05-02T10:25:26Z</time></trkpt><trkpt lat="42.63336396001461" lon="12.551377271289617"><ele>367.0</ele><time>2026-05-02T10:25:27Z</time></trkpt><trkpt lat="42.633442584987534" lon="12.551284223379708"><ele>367.0</ele><time>2026-05-02T10:25:28Z</time></trkpt><trkpt lat="42.6335229649321" lon="12.551190034840598"><ele>367.0</ele><time>2026-05-02T10:25:29Z</time></trkpt><trkpt lat="42.6335989605993" lon="12.551097945284404"><ele>367.0</ele><time>2026-05-02T10:25:30Z</time></trkpt><trkpt lat="42.63366993016408" lon="12.55100510064036"><ele>367.0</ele><time>2026-05-02T10:25:31Z</time></trkpt><trkpt lat="42.6337498945324" lon="12.550907173805067"><ele>367.0</ele><time>2026-05-02T10:25:32Z</time></trkpt><trkpt lat="42.633826334952694" lon="12.550816518756358"><ele>367.0</ele><time>2026-05-02T10:25:33Z</time></trkpt><trkpt lat="42.6339065351802" lon="12.550727808051834"><ele>367.0</ele><time>2026-05-02T10:25:34Z</time></trkpt><trkpt lat="42.63398822331114" lon="12.550627330049798"><ele>367.0</ele><time>2026-05-02T10:25:35Z</time></trkpt><trkpt lat="42.634075721084635" lon="12.550516986184846"><ele>367.0</ele><time>2026-05-02T10:25:36Z</time></trkpt><trkpt lat="42.63416513942262" lon="12.550413337518343"><ele>367.0</ele><time>2026-05-02T10:25:37Z</time></trkpt><trkpt lat="42.63425991671113" lon="12.550302354973928"><ele>366.6</ele><time>2026-05-02T10:25:38Z</time></trkpt><trkpt lat="42.63435763953442" lon="12.550187282290418"><ele>366.20000000000005</ele><time>2026-05-02T10:25:39Z</time></trkpt><trkpt lat="42.63443831670337" lon="12.55008465984977"><ele>365.8</ele><time>2026-05-02T10:25:40Z</time></trkpt><trkpt lat="42.634516165398466" lon="12.549996009354812"><ele>365.4</ele><time>2026-05-02T10:25:41Z</time></trkpt><trkpt lat="42.63459392096837" lon="12.549909616512867"><ele>365.0</ele><time>2026-05-02T10:25:42Z</time></trkpt><trkpt lat="42.634672824276876" lon="12.549821267897356"><ele>365.0</ele><time>2026-05-02T10:25:43Z</time></trkpt><trkpt lat="42.63474784663423" lon="12.549732228417952"><ele>365.0</ele><time>2026-05-02T10:25:44Z</time></trkpt><trkpt lat="42.634819210635776" lon="12.54964814749184"><ele>365.0</ele><time>2026-05-02T10:25:45Z</time></trkpt><trkpt lat="42.63489023149975" lon="12.549560959675242"><ele>365.0</ele><time>2026-05-02T10:25:46Z</time></trkpt><trkpt lat="42.63496274395268" lon="12.549476953372483"><ele>365.0</ele><time>2026-05-02T10:25:47Z</time></trkpt><trkpt lat="42.63503474542688" lon="12.5493984916613"><ele>365.1666666666667</ele><time>2026-05-02T10:25:47.999Z</time></trkpt><trkpt lat="42.635102115365896" lon="12.549344736133685"><ele>365.33333333333337</ele><time>2026-05-02T10:25:48.999Z</time></trkpt><trkpt lat="42.63517520529722" lon="12.549310074524763"><ele>365.5</ele><time>2026-05-02T10:25:49.999Z</time></trkpt><trkpt lat="42.635255001478136" lon="12.549293597641112"><ele>365.6666666666667</ele><time>2026-05-02T10:25:50.999Z</time></trkpt><trkpt lat="42.6353387059695" lon="12.549257979594632"><ele>365.8333333333333</ele><time>2026-05-02T10:25:51.999Z</time></trkpt><trkpt lat="42.6354225503627" lon="12.549217042828356"><ele>366.0</ele><time>2026-05-02T10:25:52.999Z</time></trkpt><trkpt lat="42.635536090303745" lon="12.549204823854888"><ele>366.0</ele><time>2026-05-02T10:25:54.999Z</time></trkpt><trkpt lat="42.63562882589872" lon="12.549277152941624"><ele>366.0</ele><time>2026-05-02T10:25:56.999Z</time></trkpt><trkpt lat="42.635687697850855" lon="12.549343752989982"><ele>366.0</ele><time>2026-05-02T10:25:57.999Z</time></trkpt><trkpt lat="42.63575228974109" lon="12.549407355657745"><ele>366.0</ele><time>2026-05-02T10:25:59Z</time></trkpt><trkpt lat="42.63581809294316" lon="12.54946367109638"><ele>366.0</ele><time>2026-05-02T10:26:00Z</time></trkpt><trkpt lat="42.63588059158954" lon="12.549506331974618"><ele>366.0</ele><time>2026-05-02T10:26:01Z</time></trkpt><trkpt lat="42.6359491953093" lon="12.54955572826038"><ele>366.8</ele><time>2026-05-02T10:26:02Z</time></trkpt><trkpt lat="42.63603226168515" lon="12.549605956955817"><ele>367.6</ele><time>2026-05-02T10:26:03Z</time></trkpt><trkpt lat="42.636119759139135" lon="12.549655249440761"><ele>368.4</ele><time>2026-05-02T10:26:04Z</time></trkpt><trkpt lat="42.63621805278702" lon="12.549702468093445"><ele>369.2</ele><time>2026-05-02T10:26:05Z</time></trkpt><trkpt lat="42.63627769316561" lon="12.549767085026618"><ele>370.0</ele><time>2026-05-02T10:26:06Z</time></trkpt><trkpt lat="42.63636008490863" lon="12.549821577198482"><ele>371.4</ele><time>2026-05-02T10:26:07Z</time></trkpt><trkpt lat="42.63644165263568" lon="12.549893692061614"><ele>372.8</ele><time>2026-05-02T10:26:08Z</time></trkpt><trkpt lat="42.63652027398512" lon="12.549963483267542"><ele>374.20000000000005</ele><time>2026-05-02T10:26:09Z</time></trkpt><trkpt lat="42.636596029537166" lon="12.550037517333905"><ele>375.6</ele><time>2026-05-02T10:26:10Z</time></trkpt><trkpt lat="42.63667591373515" lon="12.550114495064973"><ele>377.0</ele><time>2026-05-02T10:26:11Z</time></trkpt><trkpt lat="42.6367568818524" lon="12.550200968425484"><ele>377.0</ele><time>2026-05-02T10:26:12Z</time></trkpt><trkpt lat="42.636847348361165" lon="12.55029662942525"><ele>377.0</ele><time>2026-05-02T10:26:13Z</time></trkpt><trkpt lat="42.63692169024136" lon="12.550382608503364"><ele>377.0</ele><time>2026-05-02T10:26:14Z</time></trkpt><trkpt lat="42.63698906787374" lon="12.550459898953843"><ele>377.0</ele><time>2026-05-02T10:26:15Z</time></trkpt><trkpt lat="42.63705377904547" lon="12.550519206571932"><ele>377.0</ele><time>2026-05-02T10:26:16Z</time></trkpt><trkpt lat="42.63712187854186" lon="12.550578160319388"><ele>379.1666666666667</ele><time>2026-05-02T10:26:17Z</time></trkpt><trkpt lat="42.63719261621968" lon="12.550626472543735"><ele>381.33333333333337</ele><time>2026-05-02T10:26:18Z</time></trkpt><trkpt lat="42.63725464191137" lon="12.550661080376745"><ele>383.5</ele><time>2026-05-02T10:26:19Z</time></trkpt><trkpt lat="42.637328663892276" lon="12.550702569571367"><ele>385.6666666666667</ele><time>2026-05-02T10:26:20Z</time></trkpt><trkpt lat="42.63741616599929" lon="12.550749433460675"><ele>387.8333333333333</ele><time>2026-05-02T10:26:21Z</time></trkpt><trkpt lat="42.637513606206355" lon="12.550804701875128"><ele>390.0</ele><time>2026-05-02T10:26:22Z</time></trkpt><trkpt lat="42.63758365153336" lon="12.55088314478646"><ele>390.0</ele><time>2026-05-02T10:26:23Z</time></trkpt><trkpt lat="42.63766021576828" lon="12.550956803087097"><ele>390.0</ele><time>2026-05-02T10:26:24Z</time></trkpt><trkpt lat="42.63773487634793" lon="12.551047358663718"><ele>390.0</ele><time>2026-05-02T10:26:25Z</time></trkpt><trkpt lat="42.63781318061428" lon="12.55112853670429"><ele>390.0</ele><time>2026-05-02T10:26:26Z</time></trkpt><trkpt lat="42.637876743650494" lon="12.551222323480312"><ele>390.0</ele><time>2026-05-02T10:26:27Z</time></trkpt><trkpt lat="42.63795670841614" lon="12.551303981918533"><ele>391.6666666666667</ele><time>2026-05-02T10:26:28Z</time></trkpt><trkpt lat="42.63804069375979" lon="12.551361008006864"><ele>393.33333333333337</ele><time>2026-05-02T10:26:29Z</time></trkpt><trkpt lat="42.638131749683104" lon="12.551408690533883"><ele>395.0</ele><time>2026-05-02T10:26:30Z</time></trkpt><trkpt lat="42.63821844495065" lon="12.551432460956018"><ele>396.6666666666667</ele><time>2026-05-02T10:26:31Z</time></trkpt><trkpt lat="42.6382921840862" lon="12.551440944544476"><ele>398.33333333333337</ele><time>2026-05-02T10:26:32Z</time></trkpt><trkpt lat="42.63836579963581" lon="12.55143489667189"><ele>400.0</ele><time>2026-05-02T10:26:33Z</time></trkpt><trkpt lat="42.638432043597646" lon="12.551422542058582"><ele>400.0</ele><time>2026-05-02T10:26:34Z</time></trkpt><trkpt lat="42.63850668022355" lon="12.551426300401381"><ele>400.0</ele><time>2026-05-02T10:26:35Z</time></trkpt><trkpt lat="42.6385934660741" lon="12.551370474790438"><ele>400.0</ele><time>2026-05-02T10:26:36Z</time></trkpt><trkpt lat="42.63869695428996" lon="12.551329798476484"><ele>400.0</ele><time>2026-05-02T10:26:37Z</time></trkpt><trkpt lat="42.638812588075794" lon="12.551292827204222"><ele>400.0</ele><time>2026-05-02T10:26:38Z</time></trkpt><trkpt lat="42.63892084095152" lon="12.551259084818707"><ele>399.4</ele><time>2026-05-02T10:26:39Z</time></trkpt><trkpt lat="42.63900964502818" lon="12.551211622798396"><ele>398.8</ele><time>2026-05-02T10:26:40Z</time></trkpt><trkpt lat="42.63911152762524" lon="12.55119777144445"><ele>398.20000000000005</ele><time>2026-05-02T10:26:41Z</time></trkpt><trkpt lat="42.63920653064765" lon="12.55117789931984"><ele>397.6</ele><time>2026-05-02T10:26:42Z</time></trkpt><trkpt lat="42.63929496709396" lon="12.551158767500572"><ele>397.0</ele><time>2026-05-02T10:26:43Z</time></trkpt><trkpt lat="42.63937659126146" lon="12.551217936680942"><ele>401.5</ele><time>2026-05-02T10:26:44Z</time></trkpt><trkpt lat="42.63947738555692" lon="12.551235314492436"><ele>406.0</ele><time>2026-05-02T10:26:45Z</time></trkpt><trkpt lat="42.63959368772967" lon="12.551246621164598"><ele>410.5</ele><time>2026-05-02T10:26:46Z</time></trkpt><trkpt lat="42.639711501761205" lon="12.551260442849072"><ele>415.0</ele><time>2026-05-02T10:26:47Z</time></trkpt><trkpt lat="42.639829888915415" lon="12.551269285562348"><ele>415.0</ele><time>2026-05-02T10:26:48Z</time></trkpt><trkpt lat="42.63994959184402" lon="12.5512674527943"><ele>415.0</ele><time>2026-05-02T10:26:49Z</time></trkpt><trkpt lat="42.64005307479588" lon="12.551239527572054"><ele>415.0</ele><time>2026-05-02T10:26:50Z</time></trkpt><trkpt lat="42.640142575301745" lon="12.5512526977988"><ele>415.0</ele><time>2026-05-02T10:26:51Z</time></trkpt><trkpt lat="42.64022793143455" lon="12.551246064673668"><ele>415.0</ele><time>2026-05-02T10:26:52Z</time></trkpt><trkpt lat="42.64032021421186" lon="12.5512458627308"><ele>415.8</ele><time>2026-05-02T10:26:53Z</time></trkpt><trkpt lat="42.64041395035891" lon="12.551252515883277"><ele>416.6</ele><time>2026-05-02T10:26:54Z</time></trkpt><trkpt lat="42.6405043107883" lon="12.551261405965848"><ele>417.4</ele><time>2026-05-02T10:26:55Z</time></trkpt><trkpt lat="42.64060282975402" lon="12.55127030881361"><ele>418.2</ele><time>2026-05-02T10:26:56Z</time></trkpt><trkpt lat="42.64069778886605" lon="12.55125706529626"><ele>419.0</ele><time>2026-05-02T10:26:57Z</time></trkpt><trkpt lat="42.64079479163213" lon="12.551261131165946"><ele>419.0</ele><time>2026-05-02T10:26:58Z</time></trkpt><trkpt lat="42.64089621215541" lon="12.5512332737678"><ele>419.0</ele><time>2026-05-02T10:26:59Z</time></trkpt><trkpt lat="42.64098146222926" lon="12.551189226979464"><ele>419.0</ele><time>2026-05-02T10:27:00Z</time></trkpt><trkpt lat="42.64106344268222" lon="12.551119194110077"><ele>419.0</ele><time>2026-05-02T10:27:01Z</time></trkpt><trkpt lat="42.641158671109544" lon="12.551057051320697"><ele>419.0</ele><time>2026-05-02T10:27:02Z</time></trkpt><trkpt lat="42.64125271827632" lon="12.55098083211159"><ele>418.0</ele><time>2026-05-02T10:27:03Z</time></trkpt><trkpt lat="42.64133324874571" lon="12.550908739531861"><ele>417.0</ele><time>2026-05-02T10:27:04Z</time></trkpt><trkpt lat="42.64142672028746" lon="12.550840010060528"><ele>416.0</ele><time>2026-05-02T10:27:05Z</time></trkpt><trkpt lat="42.64151193283371" lon="12.55077530579912"><ele>415.0</ele><time>2026-05-02T10:27:06Z</time></trkpt><trkpt lat="42.641592645228506" lon="12.550713874789205"><ele>414.0</ele><time>2026-05-02T10:27:07Z</time></trkpt><trkpt lat="42.64166436257909" lon="12.550674095219502"><ele>414.0</ele><time>2026-05-02T10:27:08Z</time></trkpt><trkpt lat="42.64173820747964" lon="12.550644082034669"><ele>414.0</ele><time>2026-05-02T10:27:09Z</time></trkpt><trkpt lat="42.64181487126519" lon="12.550632429592978"><ele>414.0</ele><time>2026-05-02T10:27:10Z</time></trkpt><trkpt lat="42.641903287168915" lon="12.550628497044768"><ele>414.0</ele><time>2026-05-02T10:27:11Z</time></trkpt><trkpt lat="42.641993906039524" lon="12.550619415664316"><ele>414.0</ele><time>2026-05-02T10:27:12Z</time></trkpt><trkpt lat="42.642094389688175" lon="12.550576508307062"><ele>414.0</ele><time>2026-05-02T10:27:13Z</time></trkpt><trkpt lat="42.6421878745812" lon="12.550521156247772"><ele>414.4</ele><time>2026-05-02T10:27:14Z</time></trkpt><trkpt lat="42.64229716072715" lon="12.550487191138062"><ele>414.79999999999995</ele><time>2026-05-02T10:27:15Z</time></trkpt><trkpt lat="42.64237187270808" lon="12.550463594326107"><ele>415.20000000000005</ele><time>2026-05-02T10:27:16Z</time></trkpt><trkpt lat="42.64245970639423" lon="12.550418875215517"><ele>415.6</ele><time>2026-05-02T10:27:18Z</time></trkpt><trkpt lat="42.64258804753595" lon="12.550448668061456"><ele>416.0</ele><time>2026-05-02T10:27:20Z</time></trkpt><trkpt lat="42.642658120487994" lon="12.550412189009485"><ele>416.0</ele><time>2026-05-02T10:27:21Z</time></trkpt><trkpt lat="42.64272668803468" lon="12.550407310894215"><ele>416.0</ele><time>2026-05-02T10:27:22Z</time></trkpt><trkpt lat="42.64279989085355" lon="12.550427086140683"><ele>416.0</ele><time>2026-05-02T10:27:23Z</time></trkpt><trkpt lat="42.64286307753516" lon="12.550414077641083"><ele>416.0</ele><time>2026-05-02T10:27:24Z</time></trkpt><trkpt lat="42.6429278963667" lon="12.55040421415344"><ele>416.0</ele><time>2026-05-02T10:27:25Z</time></trkpt><trkpt lat="42.64299878431194" lon="12.550415448861683"><ele>416.0</ele><time>2026-05-02T10:27:27Z</time></trkpt><trkpt lat="42.6430893862853" lon="12.550420038040103"><ele>416.0</ele><time>2026-05-02T10:27:31Z</time></trkpt><trkpt lat="42.64316273100208" lon="12.550385505025853"><ele>415.25</ele><time>2026-05-02T10:27:33Z</time></trkpt><trkpt lat="42.64322341194007" lon="12.550710820921053"><ele>414.5</ele><time>2026-05-02T10:27:34Z</time></trkpt><trkpt lat="42.6432497856936" lon="12.55079539920451"><ele>413.75</ele><time>2026-05-02T10:27:35Z</time></trkpt><trkpt lat="42.64327627507659" lon="12.550900168376867"><ele>413.0</ele><time>2026-05-02T10:27:36Z</time></trkpt><trkpt lat="42.64330238928953" lon="12.550991553744453"><ele>412.99999999999994</ele><time>2026-05-02T10:27:37Z</time></trkpt><trkpt lat="42.643323300361416" lon="12.551073057444032"><ele>413.0</ele><time>2026-05-02T10:27:38Z</time></trkpt><trkpt lat="42.643343740822004" lon="12.551175587018234"><ele>413.0</ele><time>2026-05-02T10:27:39Z</time></trkpt><trkpt lat="42.64338212730277" lon="12.551319678364045"><ele>413.0</ele><time>2026-05-02T10:27:41Z</time></trkpt><trkpt lat="42.643424398310636" lon="12.551455830388885"><ele>412.99999999999994</ele><time>2026-05-02T10:27:43Z</time></trkpt><trkpt lat="42.64345404639818" lon="12.551533537938589"><ele>413.0</ele><time>2026-05-02T10:27:47Z</time></trkpt><trkpt lat="42.64342604323391" lon="12.551616907541359"><ele>413.66666666666663</ele><time>2026-05-02T10:28:06Z</time></trkpt><trkpt lat="42.64336634632492" lon="12.55166711954479"><ele>414.3333333333333</ele><time>2026-05-02T10:28:09Z</time></trkpt><trkpt lat="42.64333101235073" lon="12.551741974702951"><ele>415.0</ele><time>2026-05-02T10:28:11Z</time></trkpt><trkpt lat="42.643292308812455" lon="12.55185479419358"><ele>415.66666666666663</ele><time>2026-05-02T10:28:14Z</time></trkpt><trkpt lat="42.64331624767227" lon="12.551740410861532"><ele>416.3333333333333</ele><time>2026-05-02T10:29:19Z</time></trkpt><trkpt lat="42.643354773860835" lon="12.55165192722535"><ele>417.0</ele><time>2026-05-02T10:29:22Z</time></trkpt><trkpt lat="42.64341003191682" lon="12.55159383694896"><ele>417.0</ele><time>2026-05-02T10:29:25Z</time></trkpt><trkpt lat="42.64347766293205" lon="12.55161919510142"><ele>417.0</ele><time>2026-05-02T10:29:29Z</time></trkpt><trkpt lat="42.64350394387693" lon="12.551717884375984"><ele>417.0</ele><time>2026-05-02T10:29:36Z</time></trkpt><trkpt lat="42.643536373589754" lon="12.55183047104225"><ele>417.0</ele><time>2026-05-02T10:29:38Z</time></trkpt><trkpt lat="42.643549331534274" lon="12.551962559145617"><ele>417.0</ele><time>2026-05-02T10:29:40Z</time></trkpt><trkpt lat="42.64354721090999" lon="12.552048436946372"><ele>417.0</ele><time>2026-05-02T10:29:41Z</time></trkpt><trkpt lat="42.643544690038986" lon="12.552225082167054"><ele>417.5</ele><time>2026-05-02T10:29:43Z</time></trkpt><trkpt lat="42.64354348966482" lon="12.552322419637807"><ele>418.0</ele><time>2026-05-02T10:29:44Z</time></trkpt><trkpt lat="42.643545722647175" lon="12.552415812708254"><ele>418.5</ele><time>2026-05-02T10:29:45Z</time></trkpt><trkpt lat="42.64354598025962" lon="12.552508462492437"><ele>419.0</ele><time>2026-05-02T10:29:46Z</time></trkpt><trkpt lat="42.64355904711015" lon="12.55266598529745"><ele>419.5</ele><time>2026-05-02T10:29:48Z</time></trkpt><trkpt lat="42.64356870849435" lon="12.55277816826627"><ele>420.0</ele><time>2026-05-02T10:29:49Z</time></trkpt><trkpt lat="42.64357489568924" lon="12.552938927128615"><ele>420.8</ele><time>2026-05-02T10:29:51Z</time></trkpt><trkpt lat="42.64358051040833" lon="12.553059442758983"><ele>421.6</ele><time>2026-05-02T10:29:53Z</time></trkpt><trkpt lat="42.643575364419796" lon="12.553216464312067"><ele>422.4</ele><time>2026-05-02T10:29:55Z</time></trkpt><trkpt lat="42.64357767513575" lon="12.553305216763649"><ele>423.2</ele><time>2026-05-02T10:29:56Z</time></trkpt><trkpt lat="42.64360356090971" lon="12.553456200429217"><ele>424.0</ele><time>2026-05-02T10:29:58Z</time></trkpt><trkpt lat="42.64361109582946" lon="12.553562534008321"><ele>424.83333333333337</ele><time>2026-05-02T10:30:00Z</time></trkpt><trkpt lat="42.64356659304436" lon="12.553711892196453"><ele>425.6666666666667</ele><time>2026-05-02T10:30:02Z</time></trkpt><trkpt lat="42.64352492752469" lon="12.553817724024196"><ele>426.5</ele><time>2026-05-02T10:30:04Z</time></trkpt><trkpt lat="42.64354412457622" lon="12.553942100036727"><ele>427.33333333333337</ele><time>2026-05-02T10:30:06Z</time></trkpt><trkpt lat="42.643558620751456" lon="12.554029878283359"><ele>428.1666666666667</ele><time>2026-05-02T10:30:07Z</time></trkpt><trkpt lat="42.64357442247761" lon="12.554137831357599"><ele>429.0</ele><time>2026-05-02T10:30:08Z</time></trkpt><trkpt lat="42.64359157347933" lon="12.55423308107557"><ele>427.6</ele><time>2026-05-02T10:30:09Z</time></trkpt><trkpt lat="42.643641583318846" lon="12.554401547344284"><ele>426.2</ele><time>2026-05-02T10:30:11Z</time></trkpt><trkpt lat="42.64367308805205" lon="12.554509591226935"><ele>424.8</ele><time>2026-05-02T10:30:12Z</time></trkpt><trkpt lat="42.643690543287335" lon="12.554606544298167"><ele>423.40000000000003</ele><time>2026-05-02T10:30:13Z</time></trkpt><trkpt lat="42.64372224878491" lon="12.554749361437745"><ele>422.0</ele><time>2026-05-02T10:30:15Z</time></trkpt><trkpt lat="42.64373041303353" lon="12.554842031405821"><ele>421.99999999999994</ele><time>2026-05-02T10:30:16Z</time></trkpt><trkpt lat="42.64373640096182" lon="12.5549478973724"><ele>422.0</ele><time>2026-05-02T10:30:17Z</time></trkpt><trkpt lat="42.64374411707518" lon="12.555123437455942"><ele>422.0</ele><time>2026-05-02T10:30:19Z</time></trkpt><trkpt lat="42.643745039323775" lon="12.555216147634168"><ele>422.0</ele><time>2026-05-02T10:30:20Z</time></trkpt><trkpt lat="42.643743569855374" lon="12.55532983198787"><ele>421.99999999999994</ele><time>2026-05-02T10:30:21Z</time></trkpt><trkpt lat="42.64374818593576" lon="12.555425632458707"><ele>422.0</ele><time>2026-05-02T10:30:22Z</time></trkpt><trkpt lat="42.64375089272727" lon="12.555513877404515"><ele>421.0</ele><time>2026-05-02T10:30:23Z</time></trkpt><trkpt lat="42.64374617791781" lon="12.555620999352083"><ele>420.0</ele><time>2026-05-02T10:30:24Z</time></trkpt><trkpt lat="42.643744151110276" lon="12.555716848965949"><ele>419.0</ele><time>2026-05-02T10:30:25Z</time></trkpt><trkpt lat="42.64375710510621" lon="12.555918782275118"><ele>418.0</ele><time>2026-05-02T10:30:27Z</time></trkpt><trkpt lat="42.64375526013842" lon="12.556038877841791"><ele>417.0</ele><time>2026-05-02T10:30:28Z</time></trkpt><trkpt lat="42.64375445828574" lon="12.556158221576075"><ele>417.0</ele><time>2026-05-02T10:30:29Z</time></trkpt><trkpt lat="42.64375043612636" lon="12.556249570966216"><ele>417.0</ele><time>2026-05-02T10:30:30Z</time></trkpt><trkpt lat="42.643753447599394" lon="12.55634363219088"><ele>417.0</ele><time>2026-05-02T10:30:31Z</time></trkpt><trkpt lat="42.643764697226196" lon="12.556436909887676"><ele>417.0</ele><time>2026-05-02T10:30:32Z</time></trkpt><trkpt lat="42.643777998246286" lon="12.556555525035284"><ele>417.0</ele><time>2026-05-02T10:30:34Z</time></trkpt><trkpt lat="42.64369164199881" lon="12.556627169046703"><ele>417.0</ele><time>2026-05-02T10:30:38Z</time></trkpt><trkpt lat="42.643622579577254" lon="12.556586694350077"><ele>418.1666666666667</ele><time>2026-05-02T10:30:39Z</time></trkpt><trkpt lat="42.64354470575931" lon="12.556622596571499"><ele>419.33333333333337</ele><time>2026-05-02T10:30:40Z</time></trkpt><trkpt lat="42.643469122115654" lon="12.556647688084666"><ele>420.5</ele><time>2026-05-02T10:30:41Z</time></trkpt><trkpt lat="42.643384500547654" lon="12.556648788641775"><ele>421.6666666666667</ele><time>2026-05-02T10:30:42Z</time></trkpt><trkpt lat="42.64330051770968" lon="12.556675749266523"><ele>422.83333333333337</ele><time>2026-05-02T10:30:43Z</time></trkpt><trkpt lat="42.64321123874264" lon="12.556732903760317"><ele>424.0</ele><time>2026-05-02T10:30:44Z</time></trkpt><trkpt lat="42.64311354632462" lon="12.55678631409679"><ele>424.0</ele><time>2026-05-02T10:30:45Z</time></trkpt><trkpt lat="42.643012356267256" lon="12.556852977512818"><ele>424.0</ele><time>2026-05-02T10:30:46Z</time></trkpt><trkpt lat="42.64293367648926" lon="12.556937895845925"><ele>424.0</ele><time>2026-05-02T10:30:47Z</time></trkpt><trkpt lat="42.642833342979785" lon="12.557013702877514"><ele>424.0</ele><time>2026-05-02T10:30:48Z</time></trkpt><trkpt lat="42.64275574790381" lon="12.557071871119271"><ele>424.0</ele><time>2026-05-02T10:30:49Z</time></trkpt><trkpt lat="42.642671683158824" lon="12.55713321196148"><ele>425.50000000000006</ele><time>2026-05-02T10:30:50Z</time></trkpt><trkpt lat="42.64260978616479" lon="12.557202445219787"><ele>427.0</ele><time>2026-05-02T10:30:51Z</time></trkpt><trkpt lat="42.64255374314373" lon="12.557288129805475"><ele>428.5</ele><time>2026-05-02T10:30:52Z</time></trkpt><trkpt lat="42.64249865704903" lon="12.557375826749263"><ele>430.0</ele><time>2026-05-02T10:30:53Z</time></trkpt><trkpt lat="42.64244335583271" lon="12.557457644681492"><ele>431.50000000000006</ele><time>2026-05-02T10:30:54Z</time></trkpt><trkpt lat="42.64238526723251" lon="12.55755667814211"><ele>433.0</ele><time>2026-05-02T10:30:55Z</time></trkpt><trkpt lat="42.64231818393125" lon="12.55765814452625"><ele>433.00000000000006</ele><time>2026-05-02T10:30:56Z</time></trkpt><trkpt lat="42.642262783540076" lon="12.55774860035023"><ele>433.0</ele><time>2026-05-02T10:30:57Z</time></trkpt><trkpt lat="42.64219106938254" lon="12.557853361390688"><ele>433.0</ele><time>2026-05-02T10:30:58Z</time></trkpt><trkpt lat="42.642138433365496" lon="12.557935469876629"><ele>433.0</ele><time>2026-05-02T10:30:59Z</time></trkpt><trkpt lat="42.642088489658455" lon="12.55801101948888"><ele>433.00000000000006</ele><time>2026-05-02T10:31:00Z</time></trkpt><trkpt lat="42.642034767023794" lon="12.558116158162528"><ele>433.0</ele><time>2026-05-02T10:31:01Z</time></trkpt><trkpt lat="42.64197337369333" lon="12.558212751774525"><ele>434.1666666666667</ele><time>2026-05-02T10:31:02Z</time></trkpt><trkpt lat="42.64190315795157" lon="12.558312383380233"><ele>435.33333333333337</ele><time>2026-05-02T10:31:03Z</time></trkpt><trkpt lat="42.64183863912405" lon="12.55841713463861"><ele>436.5</ele><time>2026-05-02T10:31:04Z</time></trkpt><trkpt lat="42.64178646199614" lon="12.55850477909057"><ele>437.66666666666663</ele><time>2026-05-02T10:31:05Z</time></trkpt><trkpt lat="42.64173781839131" lon="12.55858022370739"><ele>438.8333333333333</ele><time>2026-05-02T10:31:06Z</time></trkpt><trkpt lat="42.641686380157935" lon="12.558660430263485"><ele>440.0</ele><time>2026-05-02T10:31:07Z</time></trkpt><trkpt lat="42.641639022245776" lon="12.558733570208043"><ele>440.5</ele><time>2026-05-02T10:31:08Z</time></trkpt><trkpt lat="42.641578917216016" lon="12.558779382970522"><ele>441.0</ele><time>2026-05-02T10:31:16Z</time></trkpt><trkpt lat="42.64151903343609" lon="12.558836142194732"><ele>441.5</ele><time>2026-05-02T10:31:20Z</time></trkpt><trkpt lat="42.64145976815961" lon="12.558872183469378"><ele>442.0</ele><time>2026-05-02T10:31:26Z</time></trkpt><trkpt lat="42.641553611374185" lon="12.559181663105303"><ele>442.00000000000006</ele><time>2026-05-02T10:31:31Z</time></trkpt><trkpt lat="42.641532620636525" lon="12.55926374970235"><ele>442.0</ele><time>2026-05-02T10:31:33Z</time></trkpt><trkpt lat="42.641579909805436" lon="12.559399121078714"><ele>442.0</ele><time>2026-05-02T10:31:36Z</time></trkpt><trkpt lat="42.641630039599605" lon="12.559524464939281"><ele>442.0</ele><time>2026-05-02T10:31:38Z</time></trkpt><trkpt lat="42.64165521902428" lon="12.559629924797349"><ele>442.00000000000006</ele><time>2026-05-02T10:31:41Z</time></trkpt><trkpt lat="42.64159311210692" lon="12.55967859601957"><ele>442.0</ele><time>2026-05-02T10:31:45Z</time></trkpt><trkpt lat="42.64153488146701" lon="12.559715146143448"><ele>443.6666666666667</ele><time>2026-05-02T10:31:56Z</time></trkpt><trkpt lat="42.64146567317808" lon="12.55965367966731"><ele>445.33333333333337</ele><time>2026-05-02T10:32:00Z</time></trkpt><trkpt lat="42.64138628827329" lon="12.559604719783707"><ele>447.0</ele><time>2026-05-02T10:32:02Z</time></trkpt><trkpt lat="42.641316289700605" lon="12.559581360780992"><ele>448.66666666666663</ele><time>2026-05-02T10:32:04Z</time></trkpt><trkpt lat="42.64121709082357" lon="12.559613112892896"><ele>450.3333333333333</ele><time>2026-05-02T10:32:06Z</time></trkpt><trkpt lat="42.641133084811784" lon="12.559656372580951"><ele>452.0</ele><time>2026-05-02T10:32:08Z</time></trkpt><trkpt lat="42.64108021816321" lon="12.55970586404575"><ele>451.99999999999994</ele><time>2026-05-02T10:32:11Z</time></trkpt><trkpt lat="42.64106380256563" lon="12.559792091026312"><ele>452.0</ele><time>2026-05-02T10:32:13Z</time></trkpt><trkpt lat="42.641103672106844" lon="12.559861719775258"><ele>452.0</ele><time>2026-05-02T10:32:15Z</time></trkpt><trkpt lat="42.64117590522315" lon="12.559942003049441"><ele>452.0</ele><time>2026-05-02T10:32:17Z</time></trkpt><trkpt lat="42.64126759635907" lon="12.559991780613487"><ele>451.99999999999994</ele><time>2026-05-02T10:32:19Z</time></trkpt><trkpt lat="42.64136514265736" lon="12.560046917658982"><ele>452.0</ele><time>2026-05-02T10:32:21Z</time></trkpt><trkpt lat="42.64146839147812" lon="12.560103966155319"><ele>451.99999999999994</ele><time>2026-05-02T10:32:23Z</time></trkpt><trkpt lat="42.64152862200811" lon="12.560188007710247"><ele>452.0</ele><time>2026-05-02T10:32:25Z</time></trkpt><trkpt lat="42.64159429038414" lon="12.560313996440506"><ele>452.0</ele><time>2026-05-02T10:32:27Z</time></trkpt><trkpt lat="42.64163693219078" lon="12.560382970792231"><ele>452.0</ele><time>2026-05-02T10:32:28Z</time></trkpt><trkpt lat="42.64168693286629" lon="12.560489605892181"><ele>451.99999999999994</ele><time>2026-05-02T10:32:30Z</time></trkpt><trkpt lat="42.64170909950056" lon="12.560604376264008"><ele>452.0</ele><time>2026-05-02T10:32:44Z</time></trkpt><trkpt lat="42.641734077194386" lon="12.560748919476564"><ele>452.6</ele><time>2026-05-02T10:32:46Z</time></trkpt><trkpt lat="42.641764642498224" lon="12.560855927583383"><ele>453.20000000000005</ele><time>2026-05-02T10:32:48Z</time></trkpt><trkpt lat="42.64185166929765" lon="12.560899180191951"><ele>453.8</ele><time>2026-05-02T10:32:50Z</time></trkpt><trkpt lat="42.64194035088849" lon="12.560989353780798"><ele>454.4</ele><time>2026-05-02T10:32:53Z</time></trkpt><trkpt lat="42.64195666301011" lon="12.561101868733004"><ele>455.0</ele><time>2026-05-02T10:32:56Z</time></trkpt><trkpt lat="42.641924305891656" lon="12.561217130594146"><ele>455.0</ele><time>2026-05-02T10:32:58Z</time></trkpt><trkpt lat="42.64192062445141" lon="12.561349440276436"><ele>455.0</ele><time>2026-05-02T10:33:00Z</time></trkpt><trkpt lat="42.64192550706335" lon="12.561449220693989"><ele>455.0</ele><time>2026-05-02T10:33:01Z</time></trkpt><trkpt lat="42.6419038712348" lon="12.56160903354419"><ele>455.0</ele><time>2026-05-02T10:33:03Z</time></trkpt><trkpt lat="42.641888010299304" lon="12.5617515678687"><ele>455.0</ele><time>2026-05-02T10:33:05Z</time></trkpt><trkpt lat="42.641870535879725" lon="12.561913261800166"><ele>454.99999999999994</ele><time>2026-05-02T10:33:07Z</time></trkpt><trkpt lat="42.64187396255759" lon="12.56202104997698"><ele>455.0</ele><time>2026-05-02T10:33:09Z</time></trkpt><trkpt lat="42.641817565517755" lon="12.562124456004838"><ele>455.0</ele><time>2026-05-02T10:33:12Z</time></trkpt><trkpt lat="42.641757342243565" lon="12.562151137741298"><ele>455.0</ele><time>2026-05-02T10:33:13Z</time></trkpt><trkpt lat="42.64167181266545" lon="12.562159828602567"><ele>454.99999999999994</ele><time>2026-05-02T10:33:14Z</time></trkpt><trkpt lat="42.64157217761947" lon="12.562168818543592"><ele>455.0</ele><time>2026-05-02T10:33:15Z</time></trkpt><trkpt lat="42.64148900158062" lon="12.562172023163802"><ele>454.8333333333333</ele><time>2026-05-02T10:33:16Z</time></trkpt><trkpt lat="42.64142737588968" lon="12.562190183175968"><ele>454.66666666666663</ele><time>2026-05-02T10:33:17Z</time></trkpt><trkpt lat="42.64136066690875" lon="12.562224841059376"><ele>454.5</ele><time>2026-05-02T10:33:18Z</time></trkpt><trkpt lat="42.6412874958675" lon="12.562262710874878"><ele>454.33333333333337</ele><time>2026-05-02T10:33:19Z</time></trkpt><trkpt lat="42.64119366298898" lon="12.562232015219056"><ele>454.1666666666667</ele><time>2026-05-02T10:33:20Z</time></trkpt><trkpt lat="42.64110400764017" lon="12.562209144379505"><ele>454.0</ele><time>2026-05-02T10:33:21Z</time></trkpt><trkpt lat="42.64103483081333" lon="12.562182165920134"><ele>454.00000000000006</ele><time>2026-05-02T10:33:22Z</time></trkpt><trkpt lat="42.64095426992892" lon="12.562154224226902"><ele>454.0</ele><time>2026-05-02T10:33:23Z</time></trkpt><trkpt lat="42.64088912249231" lon="12.562122207757314"><ele>454.0</ele><time>2026-05-02T10:33:24Z</time></trkpt><trkpt lat="42.64076647777277" lon="12.562027560877558"><ele>454.0</ele><time>2026-05-02T10:33:26Z</time></trkpt><trkpt lat="42.64069944296526" lon="12.561977416138488"><ele>454.00000000000006</ele><time>2026-05-02T10:33:27Z</time></trkpt><trkpt lat="42.64063261921075" lon="12.561927907330597"><ele>454.0</ele><time>2026-05-02T10:33:28Z</time></trkpt><trkpt lat="42.64056295532907" lon="12.561879851540384"><ele>454.00000000000006</ele><time>2026-05-02T10:33:29Z</time></trkpt><trkpt lat="42.64047279951603" lon="12.561825525826743"><ele>454.0</ele><time>2026-05-02T10:33:31Z</time></trkpt><trkpt lat="42.640362567555314" lon="12.561777998157188"><ele>454.0</ele><time>2026-05-02T10:33:33Z</time></trkpt><trkpt lat="42.640288094660946" lon="12.561757805492567"><ele>454.0</ele><time>2026-05-02T10:33:34Z</time></trkpt><trkpt lat="42.64021708954618" lon="12.561744214514757"><ele>454.00000000000006</ele><time>2026-05-02T10:33:35Z</time></trkpt><trkpt lat="42.64014242417211" lon="12.561736207550643"><ele>454.0</ele><time>2026-05-02T10:33:36Z</time></trkpt><trkpt lat="42.64006486386859" lon="12.561735076946139"><ele>454.0</ele><time>2026-05-02T10:33:37Z</time></trkpt><trkpt lat="42.639962588858495" lon="12.561750665803615"><ele>454.0</ele><time>2026-05-02T10:33:38Z</time></trkpt><trkpt lat="42.63986789573221" lon="12.561775728414819"><ele>454.0</ele><time>2026-05-02T10:33:39Z</time></trkpt><trkpt lat="42.6397752940288" lon="12.561815119580077"><ele>454.0</ele><time>2026-05-02T10:33:40Z</time></trkpt><trkpt lat="42.63967620829096" lon="12.561871503209687"><ele>454.0</ele><time>2026-05-02T10:33:41Z</time></trkpt><trkpt lat="42.63957347180036" lon="12.561939008279815"><ele>454.00000000000006</ele><time>2026-05-02T10:33:42Z</time></trkpt><trkpt lat="42.6395035887693" lon="12.561990319527911"><ele>454.0</ele><time>2026-05-02T10:33:43Z</time></trkpt><trkpt lat="42.63944195198671" lon="12.562035843277828"><ele>454.0</ele><time>2026-05-02T10:33:44Z</time></trkpt><trkpt lat="42.639379105195836" lon="12.562082258604923"><ele>454.0</ele><time>2026-05-02T10:33:45Z</time></trkpt><trkpt lat="42.63932032412888" lon="12.56212567118027"><ele>454.00000000000006</ele><time>2026-05-02T10:33:46Z</time></trkpt><trkpt lat="42.63924207902345" lon="12.56222173630776"><ele>454.0</ele><time>2026-05-02T10:33:48Z</time></trkpt><trkpt lat="42.63945236609584" lon="12.562918885373573"><ele>456.6</ele><time>2026-05-02T10:33:49Z</time></trkpt><trkpt lat="42.63942715210099" lon="12.56303366341542"><ele>459.2</ele><time>2026-05-02T10:33:50Z</time></trkpt><trkpt lat="42.639392337652495" lon="12.56315468482607"><ele>461.80000000000007</ele><time>2026-05-02T10:33:51Z</time></trkpt><trkpt lat="42.63934945199936" lon="12.563276141672791"><ele>464.40000000000003</ele><time>2026-05-02T10:33:52Z</time></trkpt><trkpt lat="42.63931060640944" lon="12.563409020325878"><ele>467.0</ele><time>2026-05-02T10:33:53Z</time></trkpt><trkpt lat="42.639280373627685" lon="12.563547061423085"><ele>467.0</ele><time>2026-05-02T10:33:54Z</time></trkpt><trkpt lat="42.63924740604979" lon="12.563669555469593"><ele>467.00000000000006</ele><time>2026-05-02T10:33:55Z</time></trkpt><trkpt lat="42.639230907310036" lon="12.56378838515131"><ele>467.00000000000006</ele><time>2026-05-02T10:33:56Z</time></trkpt><trkpt lat="42.63920693830069" lon="12.563913082083662"><ele>467.0</ele><time>2026-05-02T10:33:57Z</time></trkpt><trkpt lat="42.639182410855724" lon="12.564040456479617"><ele>467.0</ele><time>2026-05-02T10:33:58Z</time></trkpt><trkpt lat="42.63914821142427" lon="12.564154926183498"><ele>468.8</ele><time>2026-05-02T10:33:59Z</time></trkpt><trkpt lat="42.63910030850626" lon="12.564281432583053"><ele>470.6</ele><time>2026-05-02T10:34:00Z</time></trkpt><trkpt lat="42.63904838664659" lon="12.564433613543496"><ele>472.40000000000003</ele><time>2026-05-02T10:34:01Z</time></trkpt><trkpt lat="42.63902047056264" lon="12.564592907136975"><ele>474.20000000000005</ele><time>2026-05-02T10:34:02Z</time></trkpt><trkpt lat="42.638977565043106" lon="12.564683718602112"><ele>476.0</ele><time>2026-05-02T10:34:03Z</time></trkpt><trkpt lat="42.63892567347719" lon="12.564751591680508"><ele>479.20000000000005</ele><time>2026-05-02T10:34:04Z</time></trkpt><trkpt lat="42.638869389145654" lon="12.564825631098664"><ele>482.40000000000003</ele><time>2026-05-02T10:34:05Z</time></trkpt><trkpt lat="42.63880510804876" lon="12.564905493351729"><ele>485.6</ele><time>2026-05-02T10:34:06Z</time></trkpt><trkpt lat="42.63873668717108" lon="12.565006765927869"><ele>488.8</ele><time>2026-05-02T10:34:07Z</time></trkpt><trkpt lat="42.63868493335323" lon="12.565103995195294"><ele>492.0</ele><time>2026-05-02T10:34:08Z</time></trkpt><trkpt lat="42.63863688263237" lon="12.565217987822292"><ele>491.6666666666667</ele><time>2026-05-02T10:34:09Z</time></trkpt><trkpt lat="42.63860577137414" lon="12.565328174336777"><ele>491.33333333333337</ele><time>2026-05-02T10:34:10Z</time></trkpt><trkpt lat="42.63857634010903" lon="12.565417349931135"><ele>491.0</ele><time>2026-05-02T10:34:11Z</time></trkpt><trkpt lat="42.63853257026918" lon="12.565486026962875"><ele>490.6666666666667</ele><time>2026-05-02T10:34:12Z</time></trkpt><trkpt lat="42.63846000519754" lon="12.565537981263331"><ele>490.33333333333337</ele><time>2026-05-02T10:34:13Z</time></trkpt><trkpt lat="42.63837244553712" lon="12.565578080785356"><ele>490.0</ele><time>2026-05-02T10:34:14Z</time></trkpt><trkpt lat="42.638275990555236" lon="12.565603046239048"><ele>493.8</ele><time>2026-05-02T10:34:15Z</time></trkpt><trkpt lat="42.63818275486094" lon="12.565597912916461"><ele>497.6</ele><time>2026-05-02T10:34:16Z</time></trkpt><trkpt lat="42.63807652286611" lon="12.56558941310795"><ele>501.4</ele><time>2026-05-02T10:34:17Z</time></trkpt><trkpt lat="42.637974049089514" lon="12.565596496173601"><ele>505.2</ele><time>2026-05-02T10:34:18Z</time></trkpt><trkpt lat="42.637879613337475" lon="12.565594685359178"><ele>509.0</ele><time>2026-05-02T10:34:19Z</time></trkpt><trkpt lat="42.637799147409005" lon="12.565593366414191"><ele>509.2</ele><time>2026-05-02T10:34:20Z</time></trkpt><trkpt lat="42.63769939233427" lon="12.56560570112449"><ele>509.4</ele><time>2026-05-02T10:34:21Z</time></trkpt><trkpt lat="42.63759953361113" lon="12.565636450331533"><ele>509.6</ele><time>2026-05-02T10:34:22Z</time></trkpt><trkpt lat="42.63750613187334" lon="12.565667009696876"><ele>509.8</ele><time>2026-05-02T10:34:23Z</time></trkpt><trkpt lat="42.637430058512486" lon="12.565679218599248"><ele>510.0</ele><time>2026-05-02T10:34:24Z</time></trkpt><trkpt lat="42.63735609115589" lon="12.565775064414417"><ele>510.0</ele><time>2026-05-02T10:34:26Z</time></trkpt><trkpt lat="42.63737125344561" lon="12.565925647230365"><ele>510.0</ele><time>2026-05-02T10:34:28Z</time></trkpt><trkpt lat="42.63741575792779" lon="12.56599455623241"><ele>510.0</ele><time>2026-05-02T10:34:29Z</time></trkpt><trkpt lat="42.63747725924155" lon="12.566045008984636"><ele>510.0</ele><time>2026-05-02T10:34:30Z</time></trkpt><trkpt lat="42.63755223051407" lon="12.566089870733425"><ele>510.0</ele><time>2026-05-02T10:34:31Z</time></trkpt><trkpt lat="42.63765561409753" lon="12.566127167886235"><ele>510.0</ele><time>2026-05-02T10:34:32Z</time></trkpt><trkpt lat="42.637742919740305" lon="12.566167928244298"><ele>515.2</ele><time>2026-05-02T10:34:33Z</time></trkpt><trkpt lat="42.63784578052306" lon="12.566216112662207"><ele>520.4</ele><time>2026-05-02T10:34:34Z</time></trkpt><trkpt lat="42.6379498541611" lon="12.56626128124582"><ele>525.6</ele><time>2026-05-02T10:34:35Z</time></trkpt><trkpt lat="42.6380733151322" lon="12.566299575592387"><ele>530.8</ele><time>2026-05-02T10:34:36Z</time></trkpt><trkpt lat="42.63815452723575" lon="12.566335056928649"><ele>536.0</ele><time>2026-05-02T10:34:37Z</time></trkpt><trkpt lat="42.63823423942602" lon="12.566343209129437"><ele>536.0</ele><time>2026-05-02T10:34:38Z</time></trkpt><trkpt lat="42.638321843025295" lon="12.566327856161001"><ele>536.0</ele><time>2026-05-02T10:34:39Z</time></trkpt><trkpt lat="42.63840897988179" lon="12.566289369810322"><ele>536.0</ele><time>2026-05-02T10:34:40Z</time></trkpt><trkpt lat="42.63850006400586" lon="12.566238380879902"><ele>536.0</ele><time>2026-05-02T10:34:41Z</time></trkpt><trkpt lat="42.63857966966681" lon="12.566196178524175"><ele>536.0</ele><time>2026-05-02T10:34:42Z</time></trkpt><trkpt lat="42.63865573724511" lon="12.566156694708063"><ele>536.0</ele><time>2026-05-02T10:34:43Z</time></trkpt><trkpt lat="42.63873884086077" lon="12.56613057469734"><ele>536.6666666666666</ele><time>2026-05-02T10:34:44Z</time></trkpt><trkpt lat="42.63881949139652" lon="12.566104685054682"><ele>537.3333333333333</ele><time>2026-05-02T10:34:45Z</time></trkpt><trkpt lat="42.63889637186017" lon="12.56611148975329"><ele>538.0</ele><time>2026-05-02T10:34:46Z</time></trkpt><trkpt lat="42.6389824728493" lon="12.56612181138513"><ele>538.6666666666666</ele><time>2026-05-02T10:34:47Z</time></trkpt><trkpt lat="42.63905963208937" lon="12.566147034050847"><ele>539.3333333333334</ele><time>2026-05-02T10:34:48Z</time></trkpt><trkpt lat="42.6391330863857" lon="12.566171346291918"><ele>540.0</ele><time>2026-05-02T10:34:49Z</time></trkpt><trkpt lat="42.6392155837345" lon="12.566196037653164"><ele>540.0</ele><time>2026-05-02T10:34:50Z</time></trkpt><trkpt lat="42.63929684235414" lon="12.566233279186495"><ele>540.0</ele><time>2026-05-02T10:34:51Z</time></trkpt><trkpt lat="42.63939462404917" lon="12.56627286470814"><ele>540.0</ele><time>2026-05-02T10:34:52Z</time></trkpt><trkpt lat="42.639476859379414" lon="12.566278511036478"><ele>540.0</ele><time>2026-05-02T10:34:53Z</time></trkpt><trkpt lat="42.63956049241757" lon="12.566292098340467"><ele>540.0</ele><time>2026-05-02T10:34:54Z</time></trkpt><trkpt lat="42.639681629315064" lon="12.566292718410343"><ele>540.2</ele><time>2026-05-02T10:34:55Z</time></trkpt><trkpt lat="42.6397832625911" lon="12.566300181096741"><ele>540.4</ele><time>2026-05-02T10:34:56Z</time></trkpt><trkpt lat="42.639879952225314" lon="12.56631195274896"><ele>540.6</ele><time>2026-05-02T10:34:57Z</time></trkpt><trkpt lat="42.63997002963662" lon="12.566321598362498"><ele>540.8</ele><time>2026-05-02T10:34:58Z</time></trkpt><trkpt lat="42.640066771871965" lon="12.566331769060291"><ele>541.0</ele><time>2026-05-02T10:34:59Z</time></trkpt><trkpt lat="42.64015545050639" lon="12.56633459015545"><ele>541.0</ele><time>2026-05-02T10:35:00Z</time></trkpt><trkpt lat="42.64023062162743" lon="12.566356847229324"><ele>541.0</ele><time>2026-05-02T10:35:01Z</time></trkpt><trkpt lat="42.640305818906064" lon="12.566397365930897"><ele>541.0</ele><time>2026-05-02T10:35:02Z</time></trkpt><trkpt lat="42.640398223063336" lon="12.566439811050355"><ele>541.0</ele><time>2026-05-02T10:35:03Z</time></trkpt><trkpt lat="42.64047066201822" lon="12.56647201782837"><ele>541.0</ele><time>2026-05-02T10:35:04Z</time></trkpt><trkpt lat="42.64052799088752" lon="12.566508111464861"><ele>541.0</ele><time>2026-05-02T10:35:05Z</time></trkpt><trkpt lat="42.64059459914134" lon="12.566631011651474"><ele>541.0</ele><time>2026-05-02T10:35:07Z</time></trkpt><trkpt lat="42.640593258563904" lon="12.566768374117704"><ele>541.0</ele><time>2026-05-02T10:35:09Z</time></trkpt><trkpt lat="42.640542688081176" lon="12.56686588686084"><ele>541.0</ele><time>2026-05-02T10:35:11Z</time></trkpt><trkpt lat="42.64044045301394" lon="12.566896631844358"><ele>541.0</ele><time>2026-05-02T10:35:13Z</time></trkpt><trkpt lat="42.640294110958166" lon="12.566871256008438"><ele>541.0</ele><time>2026-05-02T10:35:15Z</time></trkpt><trkpt lat="42.64020773747353" lon="12.566901477048452"><ele>541.0</ele><time>2026-05-02T10:35:16Z</time></trkpt><trkpt lat="42.64011322091533" lon="12.566939488273283"><ele>541.0</ele><time>2026-05-02T10:35:17Z</time></trkpt><trkpt lat="42.64001470469643" lon="12.566985471641004"><ele>541.0</ele><time>2026-05-02T10:35:18Z</time></trkpt><trkpt lat="42.63991667500071" lon="12.56701710297045"><ele>541.0</ele><time>2026-05-02T10:35:19Z</time></trkpt><trkpt lat="42.63981850878378" lon="12.567044087330691"><ele>541.0</ele><time>2026-05-02T10:35:20Z</time></trkpt><trkpt lat="42.63972010592778" lon="12.567082749022441"><ele>544.2</ele><time>2026-05-02T10:35:21Z</time></trkpt><trkpt lat="42.63963664806477" lon="12.567123680093808"><ele>547.4000000000001</ele><time>2026-05-02T10:35:22Z</time></trkpt><trkpt lat="42.63954773475129" lon="12.567174527062917"><ele>550.6</ele><time>2026-05-02T10:35:23Z</time></trkpt><trkpt lat="42.63946652374123" lon="12.567223644646672"><ele>553.8000000000001</ele><time>2026-05-02T10:35:24Z</time></trkpt><trkpt lat="42.639374092801994" lon="12.567267330162482"><ele>557.0</ele><time>2026-05-02T10:35:25Z</time></trkpt><trkpt lat="42.63927610115589" lon="12.567307094170964"><ele>557.1666666666666</ele><time>2026-05-02T10:35:26Z</time></trkpt><trkpt lat="42.63918606273855" lon="12.567357127201557"><ele>557.3333333333333</ele><time>2026-05-02T10:35:27Z</time></trkpt><trkpt lat="42.639110392571624" lon="12.567405431449922"><ele>557.5</ele><time>2026-05-02T10:35:28Z</time></trkpt><trkpt lat="42.63904474730905" lon="12.567444817825384"><ele>557.6666666666666</ele><time>2026-05-02T10:35:29Z</time></trkpt><trkpt lat="42.6389432761313" lon="12.56747976917288"><ele>557.8333333333334</ele><time>2026-05-02T10:35:31Z</time></trkpt><trkpt lat="42.6389707273187" lon="12.567582853705012"><ele>558.0</ele><time>2026-05-02T10:35:33Z</time></trkpt><trkpt lat="42.63907257960816" lon="12.56762735002462"><ele>558.0</ele><time>2026-05-02T10:35:35Z</time></trkpt><trkpt lat="42.63919475131911" lon="12.56759641021646"><ele>558.0</ele><time>2026-05-02T10:35:37Z</time></trkpt><trkpt lat="42.6392637618936" lon="12.567581486717337"><ele>558.0</ele><time>2026-05-02T10:35:38Z</time></trkpt><trkpt lat="42.63934107212961" lon="12.567590657684143"><ele>558.0</ele><time>2026-05-02T10:35:39Z</time></trkpt><trkpt lat="42.63942218810606" lon="12.567622499237102"><ele>558.0</ele><time>2026-05-02T10:35:40Z</time></trkpt><trkpt lat="42.639499233284965" lon="12.56765979236671"><ele>558.0</ele><time>2026-05-02T10:35:41Z</time></trkpt><trkpt lat="42.63957864034906" lon="12.567699848353381"><ele>557.8</ele><time>2026-05-02T10:35:42Z</time></trkpt><trkpt lat="42.639662194825" lon="12.567725163517466"><ele>557.5999999999999</ele><time>2026-05-02T10:35:43Z</time></trkpt><trkpt lat="42.63974647944486" lon="12.567747585767615"><ele>557.4000000000001</ele><time>2026-05-02T10:35:44Z</time></trkpt><trkpt lat="42.63983007344732" lon="12.567785527722535"><ele>557.2</ele><time>2026-05-02T10:35:45Z</time></trkpt><trkpt lat="42.639920233299314" lon="12.56782288891927"><ele>557.0</ele><time>2026-05-02T10:35:46Z</time></trkpt><trkpt lat="42.64001211453792" lon="12.56786977869103"><ele>557.6666666666666</ele><time>2026-05-02T10:35:47Z</time></trkpt><trkpt lat="42.64008625039449" lon="12.567900274084113"><ele>558.3333333333333</ele><time>2026-05-02T10:35:48Z</time></trkpt><trkpt lat="42.64015646332968" lon="12.567954277997293"><ele>559.0</ele><time>2026-05-02T10:35:49Z</time></trkpt><trkpt lat="42.64023615042063" lon="12.56799133202857"><ele>559.6666666666666</ele><time>2026-05-02T10:35:50Z</time></trkpt><trkpt lat="42.64031296685624" lon="12.568044013988343"><ele>560.3333333333334</ele><time>2026-05-02T10:35:51Z</time></trkpt><trkpt lat="42.640382762073415" lon="12.568093771481282"><ele>561.0</ele><time>2026-05-02T10:35:52Z</time></trkpt><trkpt lat="42.64048247892448" lon="12.568186941321366"><ele>561.0</ele><time>2026-05-02T10:35:54Z</time></trkpt><trkpt lat="42.6405343466259" lon="12.568288574463015"><ele>561.0</ele><time>2026-05-02T10:35:56Z</time></trkpt><trkpt lat="42.640552793467776" lon="12.568434872381273"><ele>561.0</ele><time>2026-05-02T10:36:58Z</time></trkpt><trkpt lat="42.640584192790605" lon="12.568553353504221"><ele>561.0</ele><time>2026-05-02T10:36:59Z</time></trkpt><trkpt lat="42.64060573302653" lon="12.568668040179437"><ele>561.0</ele><time>2026-05-02T10:37:00Z</time></trkpt><trkpt lat="42.64062057926006" lon="12.56876264431586"><ele>561.6666666666666</ele><time>2026-05-02T10:37:01Z</time></trkpt><trkpt lat="42.6406354053355" lon="12.568857119460063"><ele>562.3333333333334</ele><time>2026-05-02T10:37:02Z</time></trkpt><trkpt lat="42.64063114950815" lon="12.568951957495463"><ele>563.0</ele><time>2026-05-02T10:37:03Z</time></trkpt><trkpt lat="42.640631584367554" lon="12.56906044460556"><ele>563.6666666666667</ele><time>2026-05-02T10:37:04Z</time></trkpt><trkpt lat="42.64062650344375" lon="12.569177497537792"><ele>564.3333333333334</ele><time>2026-05-02T10:37:05Z</time></trkpt><trkpt lat="42.64062565754079" lon="12.56930402332039"><ele>565.0</ele><time>2026-05-02T10:37:06Z</time></trkpt><trkpt lat="42.64061534479355" lon="12.569400766126805"><ele>565.0</ele><time>2026-05-02T10:37:07Z</time></trkpt><trkpt lat="42.640608331478674" lon="12.569515973556483"><ele>565.0</ele><time>2026-05-02T10:37:08Z</time></trkpt><trkpt lat="42.640594928852934" lon="12.569604810248958"><ele>565.0</ele><time>2026-05-02T10:37:09Z</time></trkpt><trkpt lat="42.64056659078737" lon="12.56971344722074"><ele>565.0</ele><time>2026-05-02T10:37:10Z</time></trkpt><trkpt lat="42.64053794257811" lon="12.569851064182243"><ele>565.0</ele><time>2026-05-02T10:37:11Z</time></trkpt><trkpt lat="42.640514043764796" lon="12.569975953470696"><ele>565.0</ele><time>2026-05-02T10:37:12Z</time></trkpt><trkpt lat="42.64050650858744" lon="12.570101701149635"><ele>565.4</ele><time>2026-05-02T10:37:13Z</time></trkpt><trkpt lat="42.64049835393563" lon="12.570215283955797"><ele>565.8</ele><time>2026-05-02T10:37:14Z</time></trkpt><trkpt lat="42.64048110248712" lon="12.5703376327359"><ele>566.2</ele><time>2026-05-02T10:37:15Z</time></trkpt><trkpt lat="42.6404855048959" lon="12.57047789805959"><ele>566.6</ele><time>2026-05-02T10:37:16Z</time></trkpt><trkpt lat="42.640503512786886" lon="12.570601066195705"><ele>567.0</ele><time>2026-05-02T10:37:17Z</time></trkpt><trkpt lat="42.64056257587457" lon="12.570712606708696"><ele>567.0</ele><time>2026-05-02T10:37:18Z</time></trkpt><trkpt lat="42.64062509961676" lon="12.570835848563258"><ele>567.0</ele><time>2026-05-02T10:37:19Z</time></trkpt><trkpt lat="42.640665013889844" lon="12.570942380851521"><ele>567.0</ele><time>2026-05-02T10:37:20Z</time></trkpt><trkpt lat="42.64069195429725" lon="12.571050775078994"><ele>567.0</ele><time>2026-05-02T10:37:21Z</time></trkpt><trkpt lat="42.64070388850889" lon="12.571164294543525"><ele>567.0</ele><time>2026-05-02T10:37:22Z</time></trkpt><trkpt lat="42.64071675151012" lon="12.571290030129584"><ele>570.3333333333334</ele><time>2026-05-02T10:37:23Z</time></trkpt><trkpt lat="42.64074064451265" lon="12.571412718110274"><ele>573.6666666666666</ele><time>2026-05-02T10:37:24Z</time></trkpt><trkpt lat="42.64077949785165" lon="12.571536294465629"><ele>577.0</ele><time>2026-05-02T10:37:25Z</time></trkpt><trkpt lat="42.640810487217735" lon="12.571655798395607"><ele>580.3333333333333</ele><time>2026-05-02T10:37:26Z</time></trkpt><trkpt lat="42.6408139545865" lon="12.571752241726491"><ele>583.6666666666666</ele><time>2026-05-02T10:37:27Z</time></trkpt><trkpt lat="42.64082313800374" lon="12.571861536637273"><ele>587.0</ele><time>2026-05-02T10:37:28Z</time></trkpt><trkpt lat="42.640824625561436" lon="12.57198311004981"><ele>585.3333333333333</ele><time>2026-05-02T10:37:29Z</time></trkpt><trkpt lat="42.6408386687012" lon="12.57207481061009"><ele>583.6666666666666</ele><time>2026-05-02T10:37:30Z</time></trkpt><trkpt lat="42.64089882475123" lon="12.57221512283822"><ele>582.0</ele><time>2026-05-02T10:37:32Z</time></trkpt><trkpt lat="42.640952016294264" lon="12.572278513618352"><ele>580.3333333333334</ele><time>2026-05-02T10:37:33Z</time></trkpt><trkpt lat="42.641035303209335" lon="12.572302134059901"><ele>578.6666666666667</ele><time>2026-05-02T10:37:34Z</time></trkpt><trkpt lat="42.64110554560852" lon="12.572321672296528"><ele>577.0</ele><time>2026-05-02T10:37:35Z</time></trkpt><trkpt lat="42.64118733870492" lon="12.572374307110916"><ele>577.0</ele><time>2026-05-02T10:37:36Z</time></trkpt><trkpt lat="42.641268318077245" lon="12.572431183110742"><ele>577.0</ele><time>2026-05-02T10:37:37Z</time></trkpt><trkpt lat="42.64135372171039" lon="12.572553401079936"><ele>577.0</ele><time>2026-05-02T10:37:39Z</time></trkpt><trkpt lat="42.641403501121204" lon="12.572640756876883"><ele>577.0</ele><time>2026-05-02T10:37:40Z</time></trkpt><trkpt lat="42.64142389003128" lon="12.57273506226014"><ele>577.0</ele><time>2026-05-02T10:37:41Z</time></trkpt><trkpt lat="42.64144121562629" lon="12.572848297719242"><ele>583.5</ele><time>2026-05-02T10:37:42Z</time></trkpt><trkpt lat="42.64147757945927" lon="12.572999218415717"><ele>590.0</ele><time>2026-05-02T10:37:43Z</time></trkpt><trkpt lat="42.64153345178236" lon="12.573143666937373"><ele>596.5</ele><time>2026-05-02T10:37:44Z</time></trkpt><trkpt lat="42.64159507794196" lon="12.573276981302351"><ele>603.0</ele><time>2026-05-02T10:37:45Z</time></trkpt><trkpt lat="42.641644226470426" lon="12.573396537639676"><ele>603.0</ele><time>2026-05-02T10:37:46Z</time></trkpt><trkpt lat="42.64170666107884" lon="12.573514718256865"><ele>603.0</ele><time>2026-05-02T10:37:47Z</time></trkpt><trkpt lat="42.64175562955786" lon="12.573618172797543"><ele>603.0</ele><time>2026-05-02T10:37:48Z</time></trkpt><trkpt lat="42.64180239433308" lon="12.573706018128878"><ele>603.0</ele><time>2026-05-02T10:37:49Z</time></trkpt><trkpt lat="42.641848102633" lon="12.57381921979829"><ele>603.0</ele><time>2026-05-02T10:37:50Z</time></trkpt><trkpt lat="42.641880777538994" lon="12.573931962189054"><ele>603.0</ele><time>2026-05-02T10:37:51Z</time></trkpt><trkpt lat="42.64193909682827" lon="12.57402838727872"><ele>603.0</ele><time>2026-05-02T10:37:52Z</time></trkpt><trkpt lat="42.64200775965844" lon="12.574098011823141"><ele>603.0</ele><time>2026-05-02T10:37:53Z</time></trkpt><trkpt lat="42.642105603438" lon="12.574171841071182"><ele>603.0</ele><time>2026-05-02T10:37:54Z</time></trkpt><trkpt lat="42.64217642039914" lon="12.574246979602341"><ele>603.0</ele><time>2026-05-02T10:37:55Z</time></trkpt><trkpt lat="42.64224507732028" lon="12.574323251984397"><ele>603.0</ele><time>2026-05-02T10:37:56Z</time></trkpt><trkpt lat="42.64232582592489" lon="12.574390967450055"><ele>603.0</ele><time>2026-05-02T10:37:57Z</time></trkpt><trkpt lat="42.64242760243672" lon="12.574433063527986"><ele>603.0</ele><time>2026-05-02T10:37:58Z</time></trkpt><trkpt lat="42.642529648913204" lon="12.574474468568328"><ele>603.0</ele><time>2026-05-02T10:37:59Z</time></trkpt><trkpt lat="42.64261372535356" lon="12.57450559239723"><ele>603.0</ele><time>2026-05-02T10:38:00Z</time></trkpt><trkpt lat="42.64270279551404" lon="12.574547240018255"><ele>604.6</ele><time>2026-05-02T10:38:01Z</time></trkpt><trkpt lat="42.64277970042318" lon="12.574577381824238"><ele>606.1999999999999</ele><time>2026-05-02T10:38:02Z</time></trkpt><trkpt lat="42.642868740757535" lon="12.57465349007994"><ele>607.8</ele><time>2026-05-02T10:38:04Z</time></trkpt><trkpt lat="42.64292094170393" lon="12.5747791605311"><ele>609.4</ele><time>2026-05-02T10:38:06Z</time></trkpt><trkpt lat="42.6429091075191" lon="12.574956778149359"><ele>611.0</ele><time>2026-05-02T10:38:08Z</time></trkpt><trkpt lat="42.64288233317142" lon="12.575038729732206"><ele>611.0</ele><time>2026-05-02T10:38:09Z</time></trkpt><trkpt lat="42.64286227369889" lon="12.57513424605182"><ele>611.0</ele><time>2026-05-02T10:38:10Z</time></trkpt><trkpt lat="42.64285674967847" lon="12.575284509082922"><ele>611.0</ele><time>2026-05-02T10:38:12Z</time></trkpt><trkpt lat="42.64286353924131" lon="12.575399253454213"><ele>611.0</ele><time>2026-05-02T10:38:31Z</time></trkpt><trkpt lat="42.64285661398532" lon="12.575556245227544"><ele>611.0</ele><time>2026-05-02T10:38:33Z</time></trkpt><trkpt lat="42.64286104447593" lon="12.575649354525746"><ele>612.8333333333333</ele><time>2026-05-02T10:38:34Z</time></trkpt><trkpt lat="42.642867940334654" lon="12.575745690455296"><ele>614.6666666666666</ele><time>2026-05-02T10:38:35Z</time></trkpt><trkpt lat="42.642888991061014" lon="12.57583427949859"><ele>616.5</ele><time>2026-05-02T10:38:36Z</time></trkpt><trkpt lat="42.64292438992722" lon="12.57598993736385"><ele>618.3333333333334</ele><time>2026-05-02T10:38:38Z</time></trkpt><trkpt lat="42.642953170608074" lon="12.576130446235151"><ele>620.1666666666667</ele><time>2026-05-02T10:38:40Z</time></trkpt><trkpt lat="42.64294847659258" lon="12.576225029323556"><ele>622.0</ele><time>2026-05-02T10:38:42Z</time></trkpt><trkpt lat="42.64296180741882" lon="12.576354107165447"><ele>623.8000000000001</ele><time>2026-05-02T10:40:53Z</time></trkpt><trkpt lat="42.64297928048132" lon="12.5765016078022"><ele>625.6</ele><time>2026-05-02T10:40:56Z</time></trkpt><trkpt lat="42.642989132645724" lon="12.576625073687826"><ele>627.4000000000001</ele><time>2026-05-02T10:40:58Z</time></trkpt><trkpt lat="42.64298643798815" lon="12.57675001627042"><ele>629.2</ele><time>2026-05-02T10:41:00Z</time></trkpt><trkpt lat="42.64296831336638" lon="12.576882456359755"><ele>631.0</ele><time>2026-05-02T10:41:02Z</time></trkpt><trkpt lat="42.64293259622409" lon="12.576983534146388"><ele>633.6</ele><time>2026-05-02T10:41:04Z</time></trkpt><trkpt lat="42.64286492904634" lon="12.577093578217024"><ele>636.2</ele><time>2026-05-02T10:41:06Z</time></trkpt><trkpt lat="42.64281390846633" lon="12.577146324075784"><ele>638.8000000000001</ele><time>2026-05-02T10:41:07Z</time></trkpt><trkpt lat="42.64269758160042" lon="12.577219715141672"><ele>641.4000000000001</ele><time>2026-05-02T10:41:09Z</time></trkpt><trkpt lat="42.64262091323824" lon="12.577246204642359"><ele>644.0</ele><time>2026-05-02T10:41:10Z</time></trkpt><trkpt lat="42.64254056296087" lon="12.577299127500648"><ele>646.0</ele><time>2026-05-02T10:41:11Z</time></trkpt><trkpt lat="42.64247368970786" lon="12.577361185396736"><ele>648.0</ele><time>2026-05-02T10:41:12Z</time></trkpt><trkpt lat="42.64241205446482" lon="12.577430865986464"><ele>650.0</ele><time>2026-05-02T10:41:13Z</time></trkpt><trkpt lat="42.64238269554936" lon="12.577523708883243"><ele>652.0</ele><time>2026-05-02T10:41:14Z</time></trkpt><trkpt lat="42.64237044961766" lon="12.577628378946326"><ele>654.0</ele><time>2026-05-02T10:41:15Z</time></trkpt><trkpt lat="42.64234767728663" lon="12.577728868222462"><ele>656.0</ele><time>2026-05-02T10:41:16Z</time></trkpt><trkpt lat="42.64231347253466" lon="12.577821821904877"><ele>656.1999999999999</ele><time>2026-05-02T10:41:17Z</time></trkpt><trkpt lat="42.642249540156286" lon="12.577960674335296"><ele>656.4</ele><time>2026-05-02T10:41:19Z</time></trkpt><trkpt lat="42.642192509128286" lon="12.578105155373024"><ele>656.6</ele><time>2026-05-02T10:41:21Z</time></trkpt><trkpt lat="42.64218995866645" lon="12.578279463075638"><ele>656.8</ele><time>2026-05-02T10:41:23Z</time></trkpt><trkpt lat="42.64219835150861" lon="12.578384540142572"><ele>657.0</ele><time>2026-05-02T10:41:24Z</time></trkpt><trkpt lat="42.64221665446211" lon="12.578484434011832"><ele>657.0</ele><time>2026-05-02T10:41:25Z</time></trkpt><trkpt lat="42.642211167262865" lon="12.578604716155137"><ele>657.0</ele><time>2026-05-02T10:41:26Z</time></trkpt><trkpt lat="42.6422231257117" lon="12.57872741812844"><ele>657.0</ele><time>2026-05-02T10:41:27Z</time></trkpt><trkpt lat="42.642212823524176" lon="12.57886459427344"><ele>657.0</ele><time>2026-05-02T10:41:28Z</time></trkpt><trkpt lat="42.64223604202824" lon="12.579006678007174"><ele>657.0</ele><time>2026-05-02T10:41:29Z</time></trkpt><trkpt lat="42.64225476129787" lon="12.579122444820236"><ele>658.1666666666666</ele><time>2026-05-02T10:41:30Z</time></trkpt><trkpt lat="42.64228192443388" lon="12.579230659819281"><ele>659.3333333333334</ele><time>2026-05-02T10:41:31Z</time></trkpt><trkpt lat="42.64229985771708" lon="12.579356916780629"><ele>660.5</ele><time>2026-05-02T10:41:32Z</time></trkpt><trkpt lat="42.642320665401826" lon="12.579481981160697"><ele>661.6666666666667</ele><time>2026-05-02T10:41:33Z</time></trkpt><trkpt lat="42.642315795359124" lon="12.579589887606465"><ele>662.8333333333334</ele><time>2026-05-02T10:41:34Z</time></trkpt><trkpt lat="42.64234242742024" lon="12.579699604017243"><ele>664.0</ele><time>2026-05-02T10:41:35Z</time></trkpt><trkpt lat="42.64235799320482" lon="12.579850427817131"><ele>664.8000000000001</ele><time>2026-05-02T10:41:36Z</time></trkpt><trkpt lat="42.64237193910841" lon="12.579977431169807"><ele>665.6</ele><time>2026-05-02T10:41:37Z</time></trkpt><trkpt lat="42.642387954736925" lon="12.580104022212913"><ele>666.4</ele><time>2026-05-02T10:41:38Z</time></trkpt><trkpt lat="42.642406560042076" lon="12.58020943286612"><ele>667.2</ele><time>2026-05-02T10:41:39Z</time></trkpt><trkpt lat="42.64244677704472" lon="12.580331872947324"><ele>668.0</ele><time>2026-05-02T10:41:40Z</time></trkpt><trkpt lat="42.64251494453809" lon="12.580449320629532"><ele>670.0</ele><time>2026-05-02T10:41:41Z</time></trkpt><trkpt lat="42.642591672368084" lon="12.580561435771115"><ele>672.0</ele><time>2026-05-02T10:41:42Z</time></trkpt><trkpt lat="42.64265518690479" lon="12.580683977898289"><ele>674.0</ele><time>2026-05-02T10:41:43Z</time></trkpt><trkpt lat="42.64270366349149" lon="12.580794037310294"><ele>676.0</ele><time>2026-05-02T10:41:44Z</time></trkpt><trkpt lat="42.64274569406856" lon="12.580916443848055"><ele>678.0</ele><time>2026-05-02T10:41:45Z</time></trkpt><trkpt lat="42.64278961599784" lon="12.581031132548299"><ele>677.6666666666666</ele><time>2026-05-02T10:41:46Z</time></trkpt><trkpt lat="42.64282595248165" lon="12.581131933667436"><ele>677.3333333333334</ele><time>2026-05-02T10:41:47Z</time></trkpt><trkpt lat="42.642868306830216" lon="12.581247975831992"><ele>677.0</ele><time>2026-05-02T10:41:48Z</time></trkpt><trkpt lat="42.642908134727975" lon="12.581371323758148"><ele>676.6666666666667</ele><time>2026-05-02T10:41:49Z</time></trkpt><trkpt lat="42.642944872010936" lon="12.58146579205343"><ele>676.3333333333334</ele><time>2026-05-02T10:41:50Z</time></trkpt><trkpt lat="42.64295916609419" lon="12.58155085310051"><ele>676.0</ele><time>2026-05-02T10:41:51Z</time></trkpt><trkpt lat="42.642984590182074" lon="12.581639656428449"><ele>675.4</ele><time>2026-05-02T10:41:52Z</time></trkpt><trkpt lat="42.64302261436828" lon="12.581746460492585"><ele>674.8</ele><time>2026-05-02T10:41:53Z</time></trkpt><trkpt lat="42.64307222939122" lon="12.581873472146302"><ele>674.1999999999999</ele><time>2026-05-02T10:41:54Z</time></trkpt><trkpt lat="42.64309348370011" lon="12.58200758959755"><ele>673.5999999999999</ele><time>2026-05-02T10:41:55Z</time></trkpt><trkpt lat="42.64311760606731" lon="12.582109530533321"><ele>673.0</ele><time>2026-05-02T10:41:56Z</time></trkpt><trkpt lat="42.6431424730745" lon="12.582230870843933"><ele>674.2</ele><time>2026-05-02T10:41:57Z</time></trkpt><trkpt lat="42.64317281712353" lon="12.58235443006623"><ele>675.4</ele><time>2026-05-02T10:41:58Z</time></trkpt><trkpt lat="42.643192472160784" lon="12.582481334009506"><ele>676.6</ele><time>2026-05-02T10:41:59Z</time></trkpt><trkpt lat="42.643206000794066" lon="12.582611532866515"><ele>677.8000000000001</ele><time>2026-05-02T10:42:00Z</time></trkpt><trkpt lat="42.643210065775534" lon="12.582748918132731"><ele>679.0</ele><time>2026-05-02T10:42:01Z</time></trkpt><trkpt lat="42.643216240468306" lon="12.582892497987089"><ele>679.8333333333334</ele><time>2026-05-02T10:42:02Z</time></trkpt><trkpt lat="42.64323704570483" lon="12.58301006905851"><ele>680.6666666666667</ele><time>2026-05-02T10:42:03Z</time></trkpt><trkpt lat="42.64327725687907" lon="12.583121802054679"><ele>681.5</ele><time>2026-05-02T10:42:04Z</time></trkpt><trkpt lat="42.64328861117711" lon="12.58321968497556"><ele>682.3333333333334</ele><time>2026-05-02T10:42:05Z</time></trkpt><trkpt lat="42.643292637256806" lon="12.583324379731422"><ele>683.1666666666666</ele><time>2026-05-02T10:42:06Z</time></trkpt><trkpt lat="42.64328352797939" lon="12.583439400102895"><ele>684.0</ele><time>2026-05-02T10:42:07Z</time></trkpt><trkpt lat="42.6432766283954" lon="12.583570420678585"><ele>684.4000000000001</ele><time>2026-05-02T10:42:08Z</time></trkpt><trkpt lat="42.64329469530443" lon="12.583709434299129"><ele>684.8</ele><time>2026-05-02T10:42:09Z</time></trkpt><trkpt lat="42.64330196232471" lon="12.583843699393476"><ele>685.2</ele><time>2026-05-02T10:42:10Z</time></trkpt><trkpt lat="42.643309700718504" lon="12.583980396082335"><ele>685.5999999999999</ele><time>2026-05-02T10:42:11Z</time></trkpt><trkpt lat="42.64331232364833" lon="12.584118976908805"><ele>686.0</ele><time>2026-05-02T10:42:12Z</time></trkpt><trkpt lat="42.643328050565955" lon="12.584262429296361"><ele>686.0</ele><time>2026-05-02T10:42:13Z</time></trkpt><trkpt lat="42.643349079187104" lon="12.584402364356869"><ele>686.0</ele><time>2026-05-02T10:42:14Z</time></trkpt><trkpt lat="42.64337232463024" lon="12.584533158088785"><ele>686.0</ele><time>2026-05-02T10:42:15Z</time></trkpt><trkpt lat="42.64339581299626" lon="12.584634036549001"><ele>686.0</ele><time>2026-05-02T10:42:16Z</time></trkpt><trkpt lat="42.64341109553343" lon="12.584732755883142"><ele>686.0</ele><time>2026-05-02T10:42:17Z</time></trkpt><trkpt lat="42.64339410553502" lon="12.584896737422792"><ele>686.6666666666666</ele><time>2026-05-02T10:42:19Z</time></trkpt><trkpt lat="42.643352610835784" lon="12.585020387518966"><ele>687.3333333333333</ele><time>2026-05-02T10:42:19.999Z</time></trkpt><trkpt lat="42.6433214394957" lon="12.585147305272715"><ele>688.0</ele><time>2026-05-02T10:42:20.999Z</time></trkpt><trkpt lat="42.64330229259498" lon="12.585262193499457"><ele>688.6666666666666</ele><time>2026-05-02T10:42:21.999Z</time></trkpt><trkpt lat="42.64328911237555" lon="12.585364062704805"><ele>689.3333333333334</ele><time>2026-05-02T10:42:22.999Z</time></trkpt><trkpt lat="42.64326673655504" lon="12.585465503279845"><ele>690.0</ele><time>2026-05-02T10:42:23.999Z</time></trkpt><trkpt lat="42.64321266683905" lon="12.585538701013071"><ele>690.6</ele><time>2026-05-02T10:42:24.999Z</time></trkpt><trkpt lat="42.64313482373181" lon="12.58561622321979"><ele>691.2</ele><time>2026-05-02T10:42:25.999Z</time></trkpt><trkpt lat="42.64304800467822" lon="12.585663480606655"><ele>691.8</ele><time>2026-05-02T10:42:26.999Z</time></trkpt><trkpt lat="42.64295461035614" lon="12.585701221800042"><ele>692.4</ele><time>2026-05-02T10:42:27.999Z</time></trkpt><trkpt lat="42.64289204109684" lon="12.585735374437077"><ele>693.0</ele><time>2026-05-02T10:42:28.999Z</time></trkpt><trkpt lat="42.642875863960036" lon="12.585883108334794"><ele>693.0</ele><time>2026-05-02T10:42:30.999Z</time></trkpt><trkpt lat="42.64290851386593" lon="12.585988226729723"><ele>693.0</ele><time>2026-05-02T10:42:32.999Z</time></trkpt><trkpt lat="42.642996416981546" lon="12.586006123842775"><ele>693.0</ele><time>2026-05-02T10:42:34.999Z</time></trkpt><trkpt lat="42.64306583405269" lon="12.586020895381296"><ele>693.0</ele><time>2026-05-02T10:42:36Z</time></trkpt><trkpt lat="42.64312954071406" lon="12.586126184543321"><ele>693.0</ele><time>2026-05-02T10:42:38Z</time></trkpt><trkpt lat="42.64313322896478" lon="12.586221856070246"><ele>693.0</ele><time>2026-05-02T10:42:39Z</time></trkpt><trkpt lat="42.64314011049414" lon="12.586342455703376"><ele>694.5999999999999</ele><time>2026-05-02T10:42:40Z</time></trkpt><trkpt lat="42.64316798570764" lon="12.586483302939174"><ele>696.1999999999999</ele><time>2026-05-02T10:42:41Z</time></trkpt><trkpt lat="42.6431896659619" lon="12.586587383511603"><ele>697.8</ele><time>2026-05-02T10:42:42Z</time></trkpt><trkpt lat="42.643180021568156" lon="12.58670318054825"><ele>699.4</ele><time>2026-05-02T10:42:43Z</time></trkpt><trkpt lat="42.64315149928965" lon="12.586851968367155"><ele>701.0</ele><time>2026-05-02T10:42:44Z</time></trkpt><trkpt lat="42.64312092980927" lon="12.5870066190708"><ele>702.1999999999999</ele><time>2026-05-02T10:42:45Z</time></trkpt><trkpt lat="42.643104380935064" lon="12.587135583766502"><ele>703.4</ele><time>2026-05-02T10:42:46Z</time></trkpt><trkpt lat="42.64309176510094" lon="12.587304476798398"><ele>704.6</ele><time>2026-05-02T10:42:47Z</time></trkpt><trkpt lat="42.64309102367367" lon="12.587434016895674"><ele>705.8</ele><time>2026-05-02T10:42:48Z</time></trkpt><trkpt lat="42.643089688303725" lon="12.587566089303088"><ele>707.0</ele><time>2026-05-02T10:42:49Z</time></trkpt><trkpt lat="42.64309567150433" lon="12.587705835311263"><ele>707.0</ele><time>2026-05-02T10:42:50Z</time></trkpt><trkpt lat="42.64310388341525" lon="12.5878383710855"><ele>707.0</ele><time>2026-05-02T10:42:51Z</time></trkpt><trkpt lat="42.64311623199746" lon="12.587975488110066"><ele>707.0</ele><time>2026-05-02T10:42:52Z</time></trkpt><trkpt lat="42.643118044250706" lon="12.58812017069995"><ele>707.0</ele><time>2026-05-02T10:42:53Z</time></trkpt><trkpt lat="42.64311824355273" lon="12.588268124767053"><ele>707.0</ele><time>2026-05-02T10:42:54Z</time></trkpt><trkpt lat="42.64312808578429" lon="12.588413003021321"><ele>708.0</ele><time>2026-05-02T10:42:55Z</time></trkpt><trkpt lat="42.643140888294624" lon="12.588565119244704"><ele>709.0</ele><time>2026-05-02T10:42:56Z</time></trkpt><trkpt lat="42.64315749713219" lon="12.58870055345845"><ele>710.0</ele><time>2026-05-02T10:42:57Z</time></trkpt><trkpt lat="42.64316875195669" lon="12.588821595912348"><ele>711.0</ele><time>2026-05-02T10:42:58Z</time></trkpt><trkpt lat="42.643184529653226" lon="12.58894874304592"><ele>712.0</ele><time>2026-05-02T10:42:59Z</time></trkpt><trkpt lat="42.64319372975854" lon="12.589059484749521"><ele>713.0</ele><time>2026-05-02T10:43:00Z</time></trkpt><trkpt lat="42.64318894115494" lon="12.589193024101574"><ele>714.0</ele><time>2026-05-02T10:43:01Z</time></trkpt><trkpt lat="42.643171802496184" lon="12.589329974349232"><ele>715.0</ele><time>2026-05-02T10:43:02Z</time></trkpt><trkpt lat="42.64316126780706" lon="12.589462749372755"><ele>716.0</ele><time>2026-05-02T10:43:03Z</time></trkpt><trkpt lat="42.64316133897949" lon="12.58958759259722"><ele>717.0</ele><time>2026-05-02T10:43:04Z</time></trkpt><trkpt lat="42.643158957359645" lon="12.589726780603499"><ele>718.2</ele><time>2026-05-02T10:43:05Z</time></trkpt><trkpt lat="42.643155772958714" lon="12.58984905087846"><ele>719.4000000000001</ele><time>2026-05-02T10:43:06Z</time></trkpt><trkpt lat="42.64316469499834" lon="12.589975547209038"><ele>720.5999999999999</ele><time>2026-05-02T10:43:07Z</time></trkpt><trkpt lat="42.64320615298327" lon="12.590085882442638"><ele>721.8</ele><time>2026-05-02T10:43:08Z</time></trkpt><trkpt lat="42.643238841022054" lon="12.590211809041822"><ele>723.0</ele><time>2026-05-02T10:43:09Z</time></trkpt><trkpt lat="42.643268722297876" lon="12.590329251395781"><ele>724.0</ele><time>2026-05-02T10:43:10Z</time></trkpt><trkpt lat="42.64328513642658" lon="12.590449386784233"><ele>725.0</ele><time>2026-05-02T10:43:11Z</time></trkpt><trkpt lat="42.64329208694639" lon="12.590549563439577"><ele>726.0</ele><time>2026-05-02T10:43:12Z</time></trkpt><trkpt lat="42.6432896646855" lon="12.590665401250998"><ele>727.0</ele><time>2026-05-02T10:43:13Z</time></trkpt><trkpt lat="42.643280750738235" lon="12.590804037651955"><ele>728.0</ele><time>2026-05-02T10:43:14Z</time></trkpt><trkpt lat="42.643265249616356" lon="12.590927281586453"><ele>729.0</ele><time>2026-05-02T10:43:15Z</time></trkpt><trkpt lat="42.643252701777634" lon="12.591054477139602"><ele>729.0</ele><time>2026-05-02T10:43:16Z</time></trkpt><trkpt lat="42.643255236229976" lon="12.591170471939371"><ele>729.0</ele><time>2026-05-02T10:43:17Z</time></trkpt><trkpt lat="42.64324603524189" lon="12.591294572270002"><ele>729.0</ele><time>2026-05-02T10:43:18Z</time></trkpt><trkpt lat="42.643240547275006" lon="12.591438413292856"><ele>729.0</ele><time>2026-05-02T10:43:19Z</time></trkpt><trkpt lat="42.643230207139716" lon="12.591573366826559"><ele>729.0</ele><time>2026-05-02T10:43:20Z</time></trkpt><trkpt lat="42.643213856839836" lon="12.591696742810747"><ele>730.2</ele><time>2026-05-02T10:43:21Z</time></trkpt><trkpt lat="42.6432156365063" lon="12.591816834071107"><ele>731.4000000000001</ele><time>2026-05-02T10:43:22Z</time></trkpt><trkpt lat="42.64323729476923" lon="12.591909431789162"><ele>732.6</ele><time>2026-05-02T10:43:23Z</time></trkpt><trkpt lat="42.643254099608406" lon="12.592004430118017"><ele>733.8</ele><time>2026-05-02T10:43:24Z</time></trkpt><trkpt lat="42.64322975181878" lon="12.592141703724616"><ele>735.0</ele><time>2026-05-02T10:43:26Z</time></trkpt><trkpt lat="42.64311469057142" lon="12.592275693194393"><ele>736.2</ele><time>2026-05-02T10:43:28Z</time></trkpt><trkpt lat="42.643023627821094" lon="12.592343675666463"><ele>737.4</ele><time>2026-05-02T10:43:29Z</time></trkpt><trkpt lat="42.64291747099994" lon="12.592405991387942"><ele>738.5999999999999</ele><time>2026-05-02T10:43:30Z</time></trkpt><trkpt lat="42.64282972773581" lon="12.592452508674397"><ele>739.8</ele><time>2026-05-02T10:43:31Z</time></trkpt><trkpt lat="42.642737591735894" lon="12.592495381975057"><ele>741.0</ele><time>2026-05-02T10:43:32Z</time></trkpt><trkpt lat="42.642633166739685" lon="12.59253148541241"><ele>743.5999999999999</ele><time>2026-05-02T10:43:33Z</time></trkpt><trkpt lat="42.64254359309034" lon="12.59256951980635"><ele>746.2</ele><time>2026-05-02T10:43:34Z</time></trkpt><trkpt lat="42.642456039497915" lon="12.592594218697178"><ele>748.8</ele><time>2026-05-02T10:43:35Z</time></trkpt><trkpt lat="42.64236440910117" lon="12.592641781847888"><ele>751.4000000000001</ele><time>2026-05-02T10:43:36Z</time></trkpt><trkpt lat="42.64227337817106" lon="12.592667048620683"><ele>754.0</ele><time>2026-05-02T10:43:37Z</time></trkpt><trkpt lat="42.642176216666314" lon="12.592681751110954"><ele>754.0</ele><time>2026-05-02T10:43:38Z</time></trkpt><trkpt lat="42.642083877242904" lon="12.592700902002258"><ele>754.0</ele><time>2026-05-02T10:43:39Z</time></trkpt><trkpt lat="42.6419926502749" lon="12.592717264935583"><ele>754.0</ele><time>2026-05-02T10:43:40Z</time></trkpt><trkpt lat="42.64190402264301" lon="12.592724967756933"><ele>754.0</ele><time>2026-05-02T10:43:41Z</time></trkpt><trkpt lat="42.641808887075356" lon="12.592738213095753"><ele>754.0</ele><time>2026-05-02T10:43:42Z</time></trkpt><trkpt lat="42.641717715955465" lon="12.592746695859145"><ele>757.6</ele><time>2026-05-02T10:43:43Z</time></trkpt><trkpt lat="42.64161386372186" lon="12.592740998492385"><ele>761.2</ele><time>2026-05-02T10:43:44Z</time></trkpt><trkpt lat="42.641523262464304" lon="12.592755828535871"><ele>764.8000000000001</ele><time>2026-05-02T10:43:45Z</time></trkpt><trkpt lat="42.641441413737724" lon="12.592773451412436"><ele>768.4000000000001</ele><time>2026-05-02T10:43:46Z</time></trkpt><trkpt lat="42.641355574697144" lon="12.592829361143743"><ele>772.0</ele><time>2026-05-02T10:43:47Z</time></trkpt><trkpt lat="42.64125961048932" lon="12.592853354685014"><ele>773.4999999999999</ele><time>2026-05-02T10:43:48Z</time></trkpt><trkpt lat="42.64116281638024" lon="12.592892917922125"><ele>775.0</ele><time>2026-05-02T10:43:49Z</time></trkpt><trkpt lat="42.64108154090167" lon="12.592919591536333"><ele>776.5</ele><time>2026-05-02T10:43:50Z</time></trkpt><trkpt lat="42.641004907926906" lon="12.592931740055935"><ele>778.0</ele><time>2026-05-02T10:43:51Z</time></trkpt><trkpt lat="42.64092634137938" lon="12.592925014155226"><ele>779.4999999999999</ele><time>2026-05-02T10:43:52Z</time></trkpt><trkpt lat="42.64083732960674" lon="12.592910391332225"><ele>781.0</ele><time>2026-05-02T10:43:53Z</time></trkpt><trkpt lat="42.64076077415975" lon="12.592902714779381"><ele>782.6666666666666</ele><time>2026-05-02T10:43:54Z</time></trkpt><trkpt lat="42.640681486948644" lon="12.59291325199261"><ele>784.3333333333333</ele><time>2026-05-02T10:43:55Z</time></trkpt><trkpt lat="42.640587021935275" lon="12.592926084582622"><ele>786.0</ele><time>2026-05-02T10:43:56Z</time></trkpt><trkpt lat="42.64051160111855" lon="12.592919491709242"><ele>787.6666666666667</ele><time>2026-05-02T10:43:57Z</time></trkpt><trkpt lat="42.64044262623975" lon="12.592888283096302"><ele>789.3333333333334</ele><time>2026-05-02T10:43:58Z</time></trkpt><trkpt lat="42.64035773685988" lon="12.592846609402306"><ele>791.0</ele><time>2026-05-02T10:43:59Z</time></trkpt><trkpt lat="42.64027354186443" lon="12.592821317318728"><ele>792.8333333333334</ele><time>2026-05-02T10:44:00Z</time></trkpt><trkpt lat="42.64019349004969" lon="12.592761102938528"><ele>794.6666666666667</ele><time>2026-05-02T10:44:01Z</time></trkpt><trkpt lat="42.64011078056845" lon="12.592725008028342"><ele>796.5</ele><time>2026-05-02T10:44:02Z</time></trkpt><trkpt lat="42.64005208448543" lon="12.592659737815424"><ele>798.3333333333333</ele><time>2026-05-02T10:44:03Z</time></trkpt><trkpt lat="42.63999695714579" lon="12.592612886721563"><ele>800.1666666666666</ele><time>2026-05-02T10:44:04Z</time></trkpt><trkpt lat="42.63991366596938" lon="12.592556348417517"><ele>802.0</ele><time>2026-05-02T10:44:05Z</time></trkpt><trkpt lat="42.63984373997841" lon="12.592497302655653"><ele>801.9999999999999</ele><time>2026-05-02T10:44:06Z</time></trkpt><trkpt lat="42.639768402930216" lon="12.592421499347841"><ele>802.0</ele><time>2026-05-02T10:44:07Z</time></trkpt><trkpt lat="42.639697905591746" lon="12.592359442456402"><ele>802.0</ele><time>2026-05-02T10:44:08Z</time></trkpt><trkpt lat="42.639618698416015" lon="12.59230941721504"><ele>802.0</ele><time>2026-05-02T10:44:09Z</time></trkpt><trkpt lat="42.63954577068971" lon="12.592270057163969"><ele>801.9999999999999</ele><time>2026-05-02T10:44:10Z</time></trkpt><trkpt lat="42.639482109060495" lon="12.592222116391087"><ele>802.0</ele><time>2026-05-02T10:44:11Z</time></trkpt><trkpt lat="42.639416313254806" lon="12.5921587338106"><ele>804.9999999999999</ele><time>2026-05-02T10:44:12Z</time></trkpt><trkpt lat="42.639360300907306" lon="12.592111173740717"><ele>808.0</ele><time>2026-05-02T10:44:13Z</time></trkpt><trkpt lat="42.63928755883365" lon="12.592073445332089"><ele>811.0</ele><time>2026-05-02T10:44:14Z</time></trkpt><trkpt lat="42.639216349587656" lon="12.592017501874034"><ele>814.0</ele><time>2026-05-02T10:44:15Z</time></trkpt><trkpt lat="42.639145764929474" lon="12.591975011172151"><ele>816.9999999999999</ele><time>2026-05-02T10:44:16Z</time></trkpt><trkpt lat="42.63908877269016" lon="12.591906499986074"><ele>820.0</ele><time>2026-05-02T10:44:17Z</time></trkpt><trkpt lat="42.63902557265183" lon="12.591843000815645"><ele>821.0</ele><time>2026-05-02T10:44:18Z</time></trkpt><trkpt lat="42.63895351578897" lon="12.591798165226646"><ele>822.0</ele><time>2026-05-02T10:44:19Z</time></trkpt><trkpt lat="42.63887609254558" lon="12.591782438449638"><ele>823.0</ele><time>2026-05-02T10:44:20Z</time></trkpt><trkpt lat="42.638792056508215" lon="12.591783608474119"><ele>824.0</ele><time>2026-05-02T10:44:21Z</time></trkpt><trkpt lat="42.63867546262563" lon="12.591723228640321"><ele>825.0</ele><time>2026-05-02T10:44:23Z</time></trkpt><trkpt lat="42.63859883207751" lon="12.591665620894297"><ele>826.4</ele><time>2026-05-02T10:44:24Z</time></trkpt><trkpt lat="42.63851645333985" lon="12.591628640275509"><ele>827.8</ele><time>2026-05-02T10:44:25Z</time></trkpt><trkpt lat="42.63844273749977" lon="12.591583825471089"><ele>829.2</ele><time>2026-05-02T10:44:26Z</time></trkpt><trkpt lat="42.638362904643905" lon="12.591548713113665"><ele>830.6</ele><time>2026-05-02T10:44:27Z</time></trkpt><trkpt lat="42.6382394853473" lon="12.591446302415099"><ele>832.0</ele><time>2026-05-02T10:44:29Z</time></trkpt><trkpt lat="42.63817415961511" lon="12.591451129893864"><ele>831.9999999999999</ele><time>2026-05-02T10:44:30Z</time></trkpt><trkpt lat="42.63810435366416" lon="12.591452556679805"><ele>832.0</ele><time>2026-05-02T10:44:30.999Z</time></trkpt><trkpt lat="42.63801119049283" lon="12.591443024889394"><ele>832.0</ele><time>2026-05-02T10:44:31.999Z</time></trkpt><trkpt lat="42.63792719649634" lon="12.591434190716182"><ele>832.0</ele><time>2026-05-02T10:44:32.999Z</time></trkpt><trkpt lat="42.63784417479025" lon="12.591418340521457"><ele>831.9999999999999</ele><time>2026-05-02T10:44:33.999Z</time></trkpt><trkpt lat="42.637763371602496" lon="12.591393070900546"><ele>832.0</ele><time>2026-05-02T10:44:34.999Z</time></trkpt><trkpt lat="42.637668036500806" lon="12.59137311612074"><ele>834.4000000000001</ele><time>2026-05-02T10:44:35.999Z</time></trkpt><trkpt lat="42.63756450434606" lon="12.591360680528053"><ele>836.8000000000001</ele><time>2026-05-02T10:44:36.999Z</time></trkpt><trkpt lat="42.63747667353714" lon="12.591370885919883"><ele>839.2</ele><time>2026-05-02T10:44:37.999Z</time></trkpt><trkpt lat="42.637383827404754" lon="12.591387761750127"><ele>841.6</ele><time>2026-05-02T10:44:38.999Z</time></trkpt><trkpt lat="42.63729698388217" lon="12.591397900454464"><ele>844.0</ele><time>2026-05-02T10:44:39.999Z</time></trkpt><trkpt lat="42.637220774938235" lon="12.591384945903911"><ele>843.9999999999999</ele><time>2026-05-02T10:44:40.999Z</time></trkpt><trkpt lat="42.63715346765458" lon="12.591348836824485"><ele>844.0</ele><time>2026-05-02T10:44:42Z</time></trkpt><trkpt lat="42.63710028155758" lon="12.591296995853906"><ele>844.0</ele><time>2026-05-02T10:44:43Z</time></trkpt><trkpt lat="42.63705989577134" lon="12.591207899968278"><ele>844.0</ele><time>2026-05-02T10:44:45Z</time></trkpt><trkpt lat="42.63705426711375" lon="12.591088440994692"><ele>843.9999999999999</ele><time>2026-05-02T10:44:48Z</time></trkpt><trkpt lat="42.637117687443336" lon="12.590995806998187"><ele>844.0</ele><time>2026-05-02T10:45:01Z</time></trkpt><trkpt lat="42.637183306699676" lon="12.59098534321714"><ele>843.6</ele><time>2026-05-02T10:45:02Z</time></trkpt><trkpt lat="42.637309728118325" lon="12.59098191743006"><ele>843.2</ele><time>2026-05-02T10:45:04Z</time></trkpt><trkpt lat="42.637402789836166" lon="12.59099108418332"><ele>842.8000000000001</ele><time>2026-05-02T10:45:05Z</time></trkpt><trkpt lat="42.63749918281089" lon="12.590991818559745"><ele>842.4000000000001</ele><time>2026-05-02T10:45:06Z</time></trkpt><trkpt lat="42.63758296608142" lon="12.59097367267005"><ele>842.0</ele><time>2026-05-02T10:45:07Z</time></trkpt><trkpt lat="42.63766822225824" lon="12.590941742183011"><ele>842.0000000000001</ele><time>2026-05-02T10:45:08Z</time></trkpt><trkpt lat="42.63774668717274" lon="12.590937728830845"><ele>842.0</ele><time>2026-05-02T10:45:09Z</time></trkpt><trkpt lat="42.637836571297896" lon="12.590927438710699"><ele>842.0</ele><time>2026-05-02T10:45:10Z</time></trkpt><trkpt lat="42.63791669798837" lon="12.59091528227848"><ele>842.0</ele><time>2026-05-02T10:45:11Z</time></trkpt><trkpt lat="42.638007681890294" lon="12.590885463919962"><ele>842.0000000000001</ele><time>2026-05-02T10:45:12Z</time></trkpt><trkpt lat="42.63808568114331" lon="12.590874315404402"><ele>842.0</ele><time>2026-05-02T10:45:13Z</time></trkpt><trkpt lat="42.638171520017444" lon="12.590860616484736"><ele>841.5000000000001</ele><time>2026-05-02T10:45:14Z</time></trkpt><trkpt lat="42.638251502565616" lon="12.590844313723139"><ele>841.0</ele><time>2026-05-02T10:45:15Z</time></trkpt><trkpt lat="42.638331564951685" lon="12.590831258882236"><ele>840.5</ele><time>2026-05-02T10:45:16Z</time></trkpt><trkpt lat="42.63839294398492" lon="12.590804051701538"><ele>840.0</ele><time>2026-05-02T10:45:17Z</time></trkpt><trkpt lat="42.63847046042665" lon="12.59079855714982"><ele>839.5000000000001</ele><time>2026-05-02T10:45:19Z</time></trkpt><trkpt lat="42.638496650504585" lon="12.590700320329608"><ele>839.0</ele><time>2026-05-02T10:45:22Z</time></trkpt><trkpt lat="42.63844918657864" lon="12.59062718022766"><ele>839.0</ele><time>2026-05-02T10:45:25Z</time></trkpt><trkpt lat="42.63837394343414" lon="12.590622827098487"><ele>839.0</ele><time>2026-05-02T10:45:27Z</time></trkpt><trkpt lat="42.638261161704236" lon="12.590652327061935"><ele>839.0</ele><time>2026-05-02T10:45:29Z</time></trkpt><trkpt lat="42.63817345584633" lon="12.5906101670874"><ele>839.0</ele><time>2026-05-02T10:45:31Z</time></trkpt><trkpt lat="42.63810843966567" lon="12.590530012183125"><ele>839.0</ele><time>2026-05-02T10:45:33Z</time></trkpt><trkpt lat="42.63802738728605" lon="12.590472941191445"><ele>839.0</ele><time>2026-05-02T10:45:36Z</time></trkpt><trkpt lat="42.63795772980014" lon="12.590448047953954"><ele>839.0</ele><time>2026-05-02T10:45:38Z</time></trkpt><trkpt lat="42.63786706627995" lon="12.5903798092593"><ele>839.0</ele><time>2026-05-02T10:45:40Z</time></trkpt><trkpt lat="42.63775806168994" lon="12.59035311872325"><ele>839.0</ele><time>2026-05-02T10:45:42Z</time></trkpt><trkpt lat="42.63764137104" lon="12.590337031874714"><ele>839.0</ele><time>2026-05-02T10:45:44Z</time></trkpt><trkpt lat="42.63756973429865" lon="12.59033578550422"><ele>841.0</ele><time>2026-05-02T10:45:45Z</time></trkpt><trkpt lat="42.63748929856539" lon="12.59030886284313"><ele>843.0</ele><time>2026-05-02T10:45:47Z</time></trkpt><trkpt lat="42.63742640467174" lon="12.590213560950076"><ele>845.0</ele><time>2026-05-02T10:45:49Z</time></trkpt><trkpt lat="42.63735123692953" lon="12.590114715579364"><ele>847.0</ele><time>2026-05-02T10:45:51Z</time></trkpt><trkpt lat="42.637243043897044" lon="12.590076151646096"><ele>849.0</ele><time>2026-05-02T10:45:53Z</time></trkpt><trkpt lat="42.637184438532515" lon="12.590038774376293"><ele>849.0</ele><time>2026-05-02T10:45:54Z</time></trkpt><trkpt lat="42.63712910004513" lon="12.58999473047953"><ele>849.0</ele><time>2026-05-02T10:45:55Z</time></trkpt><trkpt lat="42.63707068787926" lon="12.589941576879731"><ele>849.0</ele><time>2026-05-02T10:45:56Z</time></trkpt><trkpt lat="42.63700618122954" lon="12.58988045494582"><ele>849.0</ele><time>2026-05-02T10:45:57Z</time></trkpt><trkpt lat="42.636923481486484" lon="12.589760537558877"><ele>849.0</ele><time>2026-05-02T10:45:59Z</time></trkpt><trkpt lat="42.636878295871135" lon="12.589699443693476"><ele>849.0</ele><time>2026-05-02T10:46:00Z</time></trkpt><trkpt lat="42.63682707646407" lon="12.589637350944631"><ele>851.4000000000001</ele><time>2026-05-02T10:46:01Z</time></trkpt><trkpt lat="42.636780266742726" lon="12.589577534542489"><ele>853.8</ele><time>2026-05-02T10:46:02Z</time></trkpt><trkpt lat="42.63668657950672" lon="12.589523121494985"><ele>856.1999999999999</ele><time>2026-05-02T10:46:04Z</time></trkpt><trkpt lat="42.63657730334741" lon="12.589475320650624"><ele>858.5999999999999</ele><time>2026-05-02T10:46:06Z</time></trkpt><trkpt lat="42.63647854995471" lon="12.58940036447267"><ele>861.0</ele><time>2026-05-02T10:46:08Z</time></trkpt><trkpt lat="42.6364032758239" lon="12.589326744953377"><ele>861.0</ele><time>2026-05-02T10:46:10Z</time></trkpt><trkpt lat="42.63632927664889" lon="12.589234577270824"><ele>860.9999999999999</ele><time>2026-05-02T10:46:12Z</time></trkpt><trkpt lat="42.63626569495674" lon="12.589138802570291"><ele>860.9999999999999</ele><time>2026-05-02T10:46:14Z</time></trkpt><trkpt lat="42.636176943158645" lon="12.589085405754787"><ele>861.0</ele><time>2026-05-02T10:46:17Z</time></trkpt><trkpt lat="42.63612275070814" lon="12.589032518559716"><ele>861.0</ele><time>2026-05-02T10:46:19Z</time></trkpt><trkpt lat="42.63605715524704" lon="12.588945403091671"><ele>865.5</ele><time>2026-05-02T10:46:21Z</time></trkpt><trkpt lat="42.63599073226202" lon="12.588860692127987"><ele>870.0</ele><time>2026-05-02T10:46:24Z</time></trkpt><trkpt lat="42.635948675027315" lon="12.588774308068373"><ele>874.5</ele><time>2026-05-02T10:46:26.999Z</time></trkpt><trkpt lat="42.63591775335971" lon="12.588686919382274"><ele>879.0</ele><time>2026-05-02T10:46:29.999Z</time></trkpt><trkpt lat="42.6358465565956" lon="12.588638570338096"><ele>883.5</ele><time>2026-05-02T10:46:32.999Z</time></trkpt><trkpt lat="42.63577438079336" lon="12.588550887269957"><ele>888.0</ele><time>2026-05-02T10:46:35.999Z</time></trkpt><trkpt lat="42.63571684181515" lon="12.588493823083219"><ele>888.8</ele><time>2026-05-02T10:46:37.999Z</time></trkpt><trkpt lat="42.63563620086296" lon="12.588392672670667"><ele>889.5999999999999</ele><time>2026-05-02T10:46:39.999Z</time></trkpt><trkpt lat="42.63560546920709" lon="12.58828648329601"><ele>890.4000000000001</ele><time>2026-05-02T10:46:42.999Z</time></trkpt><trkpt lat="42.63560651062652" lon="12.588173056980594"><ele>891.2</ele><time>2026-05-02T10:46:44.999Z</time></trkpt><trkpt lat="42.6355616088991" lon="12.588091174088422"><ele>892.0</ele><time>2026-05-02T10:46:48Z</time></trkpt><trkpt lat="42.63549724013528" lon="12.587978446170291"><ele>891.9999999999999</ele><time>2026-05-02T10:46:51Z</time></trkpt><trkpt lat="42.63543339745554" lon="12.58793389268282"><ele>892.0</ele><time>2026-05-02T10:46:53Z</time></trkpt><trkpt lat="42.635350600282656" lon="12.58787402600524"><ele>892.0</ele><time>2026-05-02T10:46:55Z</time></trkpt><trkpt lat="42.63529485126903" lon="12.587787048993652"><ele>892.0</ele><time>2026-05-02T10:47:13Z</time></trkpt><trkpt lat="42.63528579586976" lon="12.587701703413689"><ele>891.9999999999999</ele><time>2026-05-02T10:47:26Z</time></trkpt><trkpt lat="42.6352484333018" lon="12.587613295528664"><ele>892.0</ele><time>2026-05-02T10:47:29Z</time></trkpt><trkpt lat="42.63518197840421" lon="12.587527148120811"><ele>896.0</ele><time>2026-05-02T10:47:31Z</time></trkpt><trkpt lat="42.63511379607124" lon="12.587428533077905"><ele>900.0</ele><time>2026-05-02T10:47:33Z</time></trkpt><trkpt lat="42.63501245297663" lon="12.587311519313081"><ele>904.0</ele><time>2026-05-02T10:47:35Z</time></trkpt><trkpt lat="42.63494907388861" lon="12.587248140717138"><ele>908.0</ele><time>2026-05-02T10:47:36Z</time></trkpt><trkpt lat="42.63487994416957" lon="12.587179012130074"><ele>912.0</ele><time>2026-05-02T10:47:37Z</time></trkpt><trkpt lat="42.634799198044036" lon="12.587076795618367"><ele>913.3333333333333</ele><time>2026-05-02T10:47:39Z</time></trkpt><trkpt lat="42.63473871657102" lon="12.58697212324737"><ele>914.6666666666666</ele><time>2026-05-02T10:47:41Z</time></trkpt><trkpt lat="42.634673192213334" lon="12.586891356461265"><ele>916.0</ele><time>2026-05-02T10:47:44Z</time></trkpt><trkpt lat="42.63440748402613" lon="12.58706091708806"><ele>915.9999999999999</ele><time>2026-05-02T10:47:45Z</time></trkpt><trkpt lat="42.63433990435689" lon="12.587043515413193"><ele>916.0</ele><time>2026-05-02T10:47:46Z</time></trkpt><trkpt lat="42.63427311364008" lon="12.587041657178753"><ele>916.0</ele><time>2026-05-02T10:47:47Z</time></trkpt><trkpt lat="42.63420075387698" lon="12.587040767919165"><ele>916.0</ele><time>2026-05-02T10:47:48Z</time></trkpt><trkpt lat="42.634117838573694" lon="12.587043997562951"><ele>915.9999999999999</ele><time>2026-05-02T10:47:49Z</time></trkpt><trkpt lat="42.634046090287185" lon="12.587035085036847"><ele>916.0</ele><time>2026-05-02T10:47:50Z</time></trkpt><trkpt lat="42.63395137394798" lon="12.58703680705801"><ele>915.9999999999999</ele><time>2026-05-02T10:47:51Z</time></trkpt><trkpt lat="42.63386148621155" lon="12.587053601196981"><ele>916.0</ele><time>2026-05-02T10:47:52Z</time></trkpt><trkpt lat="42.63378874153764" lon="12.587075556450653"><ele>916.0</ele><time>2026-05-02T10:47:53Z</time></trkpt><trkpt lat="42.63372591871254" lon="12.587084044930837"><ele>916.0</ele><time>2026-05-02T10:47:54Z</time></trkpt><trkpt lat="42.63366501399815" lon="12.587108153458722"><ele>915.9999999999999</ele><time>2026-05-02T10:47:55Z</time></trkpt><trkpt lat="42.63359811868846" lon="12.587146321801242"><ele>916.0</ele><time>2026-05-02T10:47:56Z</time></trkpt><trkpt lat="42.63351718799854" lon="12.587256061706581"><ele>917.3333333333333</ele><time>2026-05-02T10:47:58Z</time></trkpt><trkpt lat="42.63345255528755" lon="12.587389042146937"><ele>918.6666666666666</ele><time>2026-05-02T10:48:00Z</time></trkpt><trkpt lat="42.633398500795124" lon="12.587459645197102"><ele>920.0</ele><time>2026-05-02T10:48:01Z</time></trkpt><trkpt lat="42.63335659792824" lon="12.58755083322401"><ele>921.3333333333333</ele><time>2026-05-02T10:48:02Z</time></trkpt><trkpt lat="42.633317902569054" lon="12.587644117045178"><ele>922.6666666666666</ele><time>2026-05-02T10:48:04Z</time></trkpt><trkpt lat="42.633278248876174" lon="12.587753445389685"><ele>924.0</ele><time>2026-05-02T10:48:06Z</time></trkpt><trkpt lat="42.63325545682163" lon="12.587847256585965"><ele>924.0</ele><time>2026-05-02T10:48:08Z</time></trkpt><trkpt lat="42.63322042637391" lon="12.587930184994802"><ele>924.0000000000001</ele><time>2026-05-02T10:48:10Z</time></trkpt><trkpt lat="42.633183963669" lon="12.588033053507445"><ele>924.0000000000001</ele><time>2026-05-02T10:48:12Z</time></trkpt><trkpt lat="42.63314778667245" lon="12.588151060975362"><ele>924.0</ele><time>2026-05-02T10:48:14Z</time></trkpt><trkpt lat="42.63312052632144" lon="12.58830001616387"><ele>924.0</ele><time>2026-05-02T10:48:16Z</time></trkpt><trkpt lat="42.63308047577067" lon="12.588448793074617"><ele>924.0</ele><time>2026-05-02T10:48:18Z</time></trkpt><trkpt lat="42.63302048752596" lon="12.588594565064616"><ele>924.0000000000001</ele><time>2026-05-02T10:48:20Z</time></trkpt><trkpt lat="42.63295363499008" lon="12.58870878973362"><ele>924.0000000000001</ele><time>2026-05-02T10:48:21.999Z</time></trkpt><trkpt lat="42.632900325231965" lon="12.588771006026949"><ele>924.0</ele><time>2026-05-02T10:48:22.999Z</time></trkpt><trkpt lat="42.632795720771824" lon="12.588803397869826"><ele>924.0</ele><time>2026-05-02T10:48:24.999Z</time></trkpt><trkpt lat="42.63268624506833" lon="12.58880508955663"><ele>927.2</ele><time>2026-05-02T10:48:26.999Z</time></trkpt><trkpt lat="42.63258491365142" lon="12.588791066383362"><ele>930.4000000000001</ele><time>2026-05-02T10:48:28.999Z</time></trkpt><trkpt lat="42.63245692361062" lon="12.588762685249044"><ele>933.6</ele><time>2026-05-02T10:48:30.999Z</time></trkpt><trkpt lat="42.632331013284066" lon="12.588736155619737"><ele>936.8</ele><time>2026-05-02T10:48:32.999Z</time></trkpt><trkpt lat="42.63226030516832" lon="12.588744450531037"><ele>940.0</ele><time>2026-05-02T10:48:33.999Z</time></trkpt><trkpt lat="42.63217280713059" lon="12.588729092017534"><ele>940.0</ele><time>2026-05-02T10:48:34.999Z</time></trkpt><trkpt lat="42.63208969102756" lon="12.588725486549794"><ele>940.0</ele><time>2026-05-02T10:48:35.999Z</time></trkpt><trkpt lat="42.632011891430494" lon="12.588730401201186"><ele>940.0</ele><time>2026-05-02T10:48:36.999Z</time></trkpt><trkpt lat="42.631933890715985" lon="12.58871325487802"><ele>940.0</ele><time>2026-05-02T10:48:37.999Z</time></trkpt><trkpt lat="42.63185562016753" lon="12.588722349361314"><ele>940.0</ele><time>2026-05-02T10:48:38.999Z</time></trkpt><trkpt lat="42.63172189902796" lon="12.588730580617481"><ele>941.4</ele><time>2026-05-02T10:48:40.999Z</time></trkpt><trkpt lat="42.63165057767279" lon="12.588742660693043"><ele>942.8</ele><time>2026-05-02T10:48:42.999Z</time></trkpt><trkpt lat="42.631586377762694" lon="12.588747337440434"><ele>944.2</ele><time>2026-05-02T10:48:43.999Z</time></trkpt><trkpt lat="42.63142474015096" lon="12.588742942250239"><ele>945.6</ele><time>2026-05-02T10:48:44.999Z</time></trkpt><trkpt lat="42.63134317053969" lon="12.588736844033573"><ele>947.0</ele><time>2026-05-02T10:48:45.999Z</time></trkpt><trkpt lat="42.631270238095034" lon="12.588748408264674"><ele>947.0</ele><time>2026-05-02T10:48:46.999Z</time></trkpt><trkpt lat="42.63120722634521" lon="12.588768693875771"><ele>947.0</ele><time>2026-05-02T10:48:47.999Z</time></trkpt><trkpt lat="42.63111111246065" lon="12.588861739652984"><ele>947.0</ele><time>2026-05-02T10:48:49.999Z</time></trkpt><trkpt lat="42.63099791367368" lon="12.58895653358515"><ele>947.0</ele><time>2026-05-02T10:48:51.999Z</time></trkpt><trkpt lat="42.630922683185155" lon="12.589039793743627"><ele>947.0</ele><time>2026-05-02T10:48:52.999Z</time></trkpt><trkpt lat="42.63085937716649" lon="12.589089134444192"><ele>947.0000000000001</ele><time>2026-05-02T10:48:55Z</time></trkpt><trkpt lat="42.63079374710997" lon="12.589101196343744"><ele>947.0</ele><time>2026-05-02T10:48:56Z</time></trkpt><trkpt lat="42.630728148021404" lon="12.589106665069012"><ele>947.0</ele><time>2026-05-02T10:48:57Z</time></trkpt><trkpt lat="42.630636952577646" lon="12.589116597702596"><ele>947.0</ele><time>2026-05-02T10:48:58Z</time></trkpt><trkpt lat="42.630542440608096" lon="12.589129139877594"><ele>947.0000000000001</ele><time>2026-05-02T10:48:59Z</time></trkpt><trkpt lat="42.63046205739835" lon="12.589153959706318"><ele>947.0</ele><time>2026-05-02T10:49:00Z</time></trkpt><trkpt lat="42.63039868710845" lon="12.589180588489473"><ele>947.0</ele><time>2026-05-02T10:49:01Z</time></trkpt><trkpt lat="42.63033678898099" lon="12.589217222588324"><ele>947.0</ele><time>2026-05-02T10:49:02Z</time></trkpt><trkpt lat="42.630258986304824" lon="12.589263917367557"><ele>947.0</ele><time>2026-05-02T10:49:04Z</time></trkpt><trkpt lat="42.6301692521287" lon="12.589318063713405"><ele>947.0</ele><time>2026-05-02T10:49:06Z</time></trkpt><trkpt lat="42.63005006150651" lon="12.589379301831894"><ele>947.0</ele><time>2026-05-02T10:49:08Z</time></trkpt><trkpt lat="42.62994256273771" lon="12.589426749575802"><ele>946.0</ele><time>2026-05-02T10:49:10Z</time></trkpt><trkpt lat="42.62983309793789" lon="12.589478994060752"><ele>945.0</ele><time>2026-05-02T10:49:12Z</time></trkpt><trkpt lat="42.62976129378666" lon="12.589529076397586"><ele>944.0</ele><time>2026-05-02T10:49:13Z</time></trkpt><trkpt lat="42.629703127668435" lon="12.58957438441923"><ele>943.0</ele><time>2026-05-02T10:49:14Z</time></trkpt><trkpt lat="42.6296259774713" lon="12.589664544956511"><ele>942.0</ele><time>2026-05-02T10:49:16Z</time></trkpt><trkpt lat="42.62954368507411" lon="12.589740265268372"><ele>946.25</ele><time>2026-05-02T10:49:18Z</time></trkpt><trkpt lat="42.629509836140436" lon="12.589887881293663"><ele>950.5</ele><time>2026-05-02T10:49:20Z</time></trkpt><trkpt lat="42.62952874623396" lon="12.5900584251981"><ele>954.75</ele><time>2026-05-02T10:49:22Z</time></trkpt><trkpt lat="42.629560356246685" lon="12.590214622435926"><ele>959.0</ele><time>2026-05-02T10:49:24Z</time></trkpt><trkpt lat="42.629578241289195" lon="12.590359135848514"><ele>959.6666666666667</ele><time>2026-05-02T10:49:26Z</time></trkpt><trkpt lat="42.62957618314157" lon="12.590457370003273"><ele>960.3333333333334</ele><time>2026-05-02T10:49:27Z</time></trkpt><trkpt lat="42.629584837139895" lon="12.590550369764687"><ele>961.0</ele><time>2026-05-02T10:49:28Z</time></trkpt><trkpt lat="42.62959878815684" lon="12.590700293697711"><ele>961.6666666666667</ele><time>2026-05-02T10:49:30Z</time></trkpt><trkpt lat="42.6296078057767" lon="12.590797201126168"><ele>962.3333333333334</ele><time>2026-05-02T10:49:31Z</time></trkpt><trkpt lat="42.62962587674141" lon="12.590960108583467"><ele>963.0</ele><time>2026-05-02T10:49:33Z</time></trkpt><trkpt lat="42.62964821183561" lon="12.59105945805863"><ele>962.8</ele><time>2026-05-02T10:49:34Z</time></trkpt><trkpt lat="42.62964928583205" lon="12.59117550142977"><ele>962.5999999999999</ele><time>2026-05-02T10:49:35Z</time></trkpt><trkpt lat="42.6296504987629" lon="12.591341423782698"><ele>962.4000000000001</ele><time>2026-05-02T10:49:37Z</time></trkpt><trkpt lat="42.62964437621606" lon="12.591469694936697"><ele>962.2</ele><time>2026-05-02T10:49:39Z</time></trkpt><trkpt lat="42.629631211735074" lon="12.591569842696453"><ele>962.0</ele><time>2026-05-02T10:49:41Z</time></trkpt><trkpt lat="42.62959163892439" lon="12.591698340861196"><ele>962.0</ele><time>2026-05-02T10:49:43Z</time></trkpt><trkpt lat="42.62952446437246" lon="12.591847038873011"><ele>962.0</ele><time>2026-05-02T10:49:45Z</time></trkpt><trkpt lat="42.62949580059321" lon="12.59192489611154"><ele>962.0</ele><time>2026-05-02T10:49:46Z</time></trkpt><trkpt lat="42.62946764841825" lon="12.592102839246612"><ele>962.0</ele><time>2026-05-02T10:49:48Z</time></trkpt><trkpt lat="42.629434821666116" lon="12.592213545529406"><ele>962.0</ele><time>2026-05-02T10:49:49Z</time></trkpt><trkpt lat="42.62940980090503" lon="12.592297088238606"><ele>958.6</ele><time>2026-05-02T10:49:50Z</time></trkpt><trkpt lat="42.629356344663975" lon="12.59244201474083"><ele>955.2</ele><time>2026-05-02T10:49:52Z</time></trkpt><trkpt lat="42.629313136474586" lon="12.5925417728978"><ele>951.8</ele><time>2026-05-02T10:49:53Z</time></trkpt><trkpt lat="42.62926823470545" lon="12.592624093449597"><ele>948.4</ele><time>2026-05-02T10:49:54Z</time></trkpt><trkpt lat="42.62918789650429" lon="12.592728587432273"><ele>945.0</ele><time>2026-05-02T10:49:56Z</time></trkpt><trkpt lat="42.629100549988586" lon="12.592803001191484"><ele>946.25</ele><time>2026-05-02T10:49:58Z</time></trkpt><trkpt lat="42.62899950868107" lon="12.592860341683233"><ele>947.5</ele><time>2026-05-02T10:50:00Z</time></trkpt><trkpt lat="42.62906072719836" lon="12.592839729518385"><ele>948.75</ele><time>2026-05-02T10:51:51Z</time></trkpt><trkpt lat="42.62927859554376" lon="12.593037742440048"><ele>950.0</ele><time>2026-05-02T10:52:05Z</time></trkpt><trkpt lat="42.629317755437086" lon="12.593121301607368"><ele>950.0</ele><time>2026-05-02T10:52:08Z</time></trkpt><trkpt lat="42.629325953022374" lon="12.593252062208645"><ele>950.0</ele><time>2026-05-02T10:52:11Z</time></trkpt><trkpt lat="42.629357457071826" lon="12.593346896604459"><ele>950.0</ele><time>2026-05-02T10:52:13Z</time></trkpt><trkpt lat="42.62937908865851" lon="12.59347904866606"><ele>950.0</ele><time>2026-05-02T10:52:15Z</time></trkpt><trkpt lat="42.62940184668226" lon="12.593591681582575"><ele>950.0</ele><time>2026-05-02T10:52:17Z</time></trkpt><trkpt lat="42.629424927647364" lon="12.59371967101483"><ele>951.3333333333334</ele><time>2026-05-02T10:52:19Z</time></trkpt><trkpt lat="42.62944945304943" lon="12.593849378758108"><ele>952.6666666666667</ele><time>2026-05-02T10:52:21Z</time></trkpt><trkpt lat="42.62949120505583" lon="12.59396052973504"><ele>954.0</ele><time>2026-05-02T10:52:23Z</time></trkpt><trkpt lat="42.62952331147572" lon="12.594045043323463"><ele>955.3333333333333</ele><time>2026-05-02T10:52:25Z</time></trkpt><trkpt lat="42.6295470120722" lon="12.594174358098916"><ele>956.6666666666666</ele><time>2026-05-02T10:52:28Z</time></trkpt><trkpt lat="42.62959570248882" lon="12.594271048734788"><ele>958.0</ele><time>2026-05-02T10:52:30.999Z</time></trkpt><trkpt lat="42.629643888282715" lon="12.59435650715164"><ele>958.9999999999999</ele><time>2026-05-02T10:52:32.999Z</time></trkpt><trkpt lat="42.629676197137584" lon="12.594476678391148"><ele>960.0</ele><time>2026-05-02T10:52:35.999Z</time></trkpt><trkpt lat="42.629723113117166" lon="12.59455929807143"><ele>961.0</ele><time>2026-05-02T10:52:37.999Z</time></trkpt><trkpt lat="42.6297782103101" lon="12.594628438371842"><ele>962.0</ele><time>2026-05-02T10:52:39.999Z</time></trkpt><trkpt lat="42.6298342782246" lon="12.59468922329142"><ele>962.9999999999999</ele><time>2026-05-02T10:52:41.999Z</time></trkpt><trkpt lat="42.62992778551235" lon="12.59476284949193"><ele>964.0</ele><time>2026-05-02T10:52:43.999Z</time></trkpt><trkpt lat="42.63000251182761" lon="12.594814682419575"><ele>964.4000000000001</ele><time>2026-05-02T10:52:45.999Z</time></trkpt><trkpt lat="42.63006008806974" lon="12.594892709558808"><ele>964.8000000000001</ele><time>2026-05-02T10:52:47.999Z</time></trkpt><trkpt lat="42.63013633138904" lon="12.594957389643167"><ele>965.1999999999999</ele><time>2026-05-02T10:52:49.999Z</time></trkpt><trkpt lat="42.630216899007976" lon="12.59500884353321"><ele>965.5999999999999</ele><time>2026-05-02T10:52:51.999Z</time></trkpt><trkpt lat="42.63029876005708" lon="12.595088650443543"><ele>966.0</ele><time>2026-05-02T10:52:53.999Z</time></trkpt><trkpt lat="42.63037472551867" lon="12.595205653711197"><ele>967.5999999999999</ele><time>2026-05-02T10:52:56.999Z</time></trkpt><trkpt lat="42.630440873642996" lon="12.595297622413945"><ele>969.1999999999999</ele><time>2026-05-02T10:52:58.999Z</time></trkpt><trkpt lat="42.630521919797836" lon="12.595392600816437"><ele>970.8000000000001</ele><time>2026-05-02T10:53:00.999Z</time></trkpt><trkpt lat="42.630602284252205" lon="12.595461289162866"><ele>972.4000000000001</ele><time>2026-05-02T10:53:02.999Z</time></trkpt><trkpt lat="42.63068867111149" lon="12.595537673747359"><ele>974.0</ele><time>2026-05-02T10:53:04.999Z</time></trkpt><trkpt lat="42.630779028018594" lon="12.59557791333648"><ele>974.0</ele><time>2026-05-02T10:53:07Z</time></trkpt><trkpt lat="42.630862025480546" lon="12.595558347075912"><ele>974.0</ele><time>2026-05-02T10:53:09Z</time></trkpt><trkpt lat="42.63093907639331" lon="12.59545700718041"><ele>974.0</ele><time>2026-05-02T10:53:11Z</time></trkpt><trkpt lat="42.63102260870906" lon="12.595328040827024"><ele>974.0</ele><time>2026-05-02T10:53:13Z</time></trkpt><trkpt lat="42.631128528981925" lon="12.595207737409902"><ele>976.3333333333334</ele><time>2026-05-02T10:53:15Z</time></trkpt><trkpt lat="42.6311835798068" lon="12.595135982850573"><ele>978.6666666666667</ele><time>2026-05-02T10:53:16Z</time></trkpt><trkpt lat="42.63123749313911" lon="12.595060107189108"><ele>981.0</ele><time>2026-05-02T10:53:17Z</time></trkpt><trkpt lat="42.63129171600792" lon="12.594999946377191"><ele>983.3333333333333</ele><time>2026-05-02T10:53:18Z</time></trkpt><trkpt lat="42.63135136806841" lon="12.594933425846525"><ele>985.6666666666666</ele><time>2026-05-02T10:53:19Z</time></trkpt><trkpt lat="42.63141815566915" lon="12.594858823044396"><ele>988.0</ele><time>2026-05-02T10:53:20Z</time></trkpt><trkpt lat="42.63147986186225" lon="12.594800773722858"><ele>988.0</ele><time>2026-05-02T10:53:21Z</time></trkpt><trkpt lat="42.631538691440944" lon="12.59473689212143"><ele>988.0</ele><time>2026-05-02T10:53:22Z</time></trkpt><trkpt lat="42.631591623562166" lon="12.5946630815741"><ele>988.0</ele><time>2026-05-02T10:53:23Z</time></trkpt><trkpt lat="42.63166667590588" lon="12.5945244825033"><ele>988.0</ele><time>2026-05-02T10:53:25Z</time></trkpt><trkpt lat="42.63169640148871" lon="12.594371846917152"><ele>988.0</ele><time>2026-05-02T10:53:27Z</time></trkpt><trkpt lat="42.63168921266364" lon="12.594280626145594"><ele>988.6666666666666</ele><time>2026-05-02T10:53:28Z</time></trkpt><trkpt lat="42.63168696017957" lon="12.594170638356669"><ele>989.3333333333333</ele><time>2026-05-02T10:53:29Z</time></trkpt><trkpt lat="42.631704543214255" lon="12.59405636631454"><ele>990.0</ele><time>2026-05-02T10:53:30Z</time></trkpt><trkpt lat="42.6317305847753" lon="12.593937781607096"><ele>990.6666666666667</ele><time>2026-05-02T10:53:31Z</time></trkpt><trkpt lat="42.6317549517963" lon="12.593819115060235"><ele>991.3333333333334</ele><time>2026-05-02T10:53:32Z</time></trkpt><trkpt lat="42.63177960367344" lon="12.593696564297279"><ele>992.0</ele><time>2026-05-02T10:53:33Z</time></trkpt><trkpt lat="42.63180667690553" lon="12.593568579102817"><ele>992.6</ele><time>2026-05-02T10:53:34Z</time></trkpt><trkpt lat="42.63183335797356" lon="12.59343475911597"><ele>993.2</ele><time>2026-05-02T10:53:35Z</time></trkpt><trkpt lat="42.631858605329185" lon="12.593299688459172"><ele>993.8</ele><time>2026-05-02T10:53:36Z</time></trkpt><trkpt lat="42.631880558339624" lon="12.593153695145306"><ele>994.4</ele><time>2026-05-02T10:53:37Z</time></trkpt><trkpt lat="42.631897578757346" lon="12.593011328972088"><ele>995.0</ele><time>2026-05-02T10:53:38Z</time></trkpt><trkpt lat="42.63190622381959" lon="12.592894470576077"><ele>994.6666666666667</ele><time>2026-05-02T10:53:39Z</time></trkpt><trkpt lat="42.63191527503196" lon="12.592763376991181"><ele>994.3333333333334</ele><time>2026-05-02T10:53:40Z</time></trkpt><trkpt lat="42.63192974456283" lon="12.592654388824531"><ele>994.0</ele><time>2026-05-02T10:53:41Z</time></trkpt><trkpt lat="42.63195045329047" lon="12.592563580387713"><ele>993.6666666666667</ele><time>2026-05-02T10:53:42Z</time></trkpt><trkpt lat="42.6319662757353" lon="12.592441250756172"><ele>993.3333333333334</ele><time>2026-05-02T10:53:44Z</time></trkpt><trkpt lat="42.631977925537925" lon="12.592347250329226"><ele>993.0</ele><time>2026-05-02T10:53:46Z</time></trkpt><trkpt lat="42.63197329614267" lon="12.592253010308058"><ele>993.0</ele><time>2026-05-02T10:53:48Z</time></trkpt><trkpt lat="42.63198178256582" lon="12.59216242301331"><ele>993.0</ele><time>2026-05-02T10:53:51Z</time></trkpt><trkpt lat="42.63190298904948" lon="12.592161827527864"><ele>993.0</ele><time>2026-05-02T10:57:30Z</time></trkpt><trkpt lat="42.6318585581398" lon="12.592236992809218"><ele>993.0</ele><time>2026-05-02T10:57:32Z</time></trkpt><trkpt lat="42.6318474464274" lon="12.592374656136354"><ele>993.0</ele><time>2026-05-02T10:57:34Z</time></trkpt><trkpt lat="42.63184289114957" lon="12.592489228018811"><ele>993.0</ele><time>2026-05-02T10:57:36Z</time></trkpt><trkpt lat="42.63185226742745" lon="12.592649555494724"><ele>993.0</ele><time>2026-05-02T10:57:38Z</time></trkpt><trkpt lat="42.63185389785775" lon="12.59278464365757"><ele>993.0</ele><time>2026-05-02T10:57:40Z</time></trkpt><trkpt lat="42.631873829238785" lon="12.59288701282497"><ele>993.0</ele><time>2026-05-02T10:57:41Z</time></trkpt><trkpt lat="42.63188485845109" lon="12.592971379490269"><ele>993.0</ele><time>2026-05-02T10:57:42Z</time></trkpt><trkpt lat="42.63188389844594" lon="12.593087480413132"><ele>993.0</ele><time>2026-05-02T10:57:43Z</time></trkpt><trkpt lat="42.63187119015291" lon="12.59322120809163"><ele>993.0</ele><time>2026-05-02T10:57:44Z</time></trkpt><trkpt lat="42.6318539570756" lon="12.593341353249064"><ele>992.8333333333334</ele><time>2026-05-02T10:57:45Z</time></trkpt><trkpt lat="42.63182931026458" lon="12.593463056315658"><ele>992.6666666666667</ele><time>2026-05-02T10:57:46Z</time></trkpt><trkpt lat="42.631813622851695" lon="12.593567791374449"><ele>992.5</ele><time>2026-05-02T10:57:47Z</time></trkpt><trkpt lat="42.63178783893926" lon="12.59368364282317"><ele>992.3333333333334</ele><time>2026-05-02T10:57:48Z</time></trkpt><trkpt lat="42.631765504991925" lon="12.593796357896709"><ele>992.1666666666667</ele><time>2026-05-02T10:57:49Z</time></trkpt><trkpt lat="42.631751335330605" lon="12.593888091132957"><ele>992.0</ele><time>2026-05-02T10:57:50Z</time></trkpt><trkpt lat="42.631729724946865" lon="12.593970624582779"><ele>992.0000000000001</ele><time>2026-05-02T10:57:51Z</time></trkpt><trkpt lat="42.63170201582607" lon="12.594109613853364"><ele>992.0</ele><time>2026-05-02T10:57:53Z</time></trkpt><trkpt lat="42.631685882418935" lon="12.594230433669626"><ele>992.0</ele><time>2026-05-02T10:57:55Z</time></trkpt><trkpt lat="42.63169246151255" lon="12.594349447079665"><ele>992.0</ele><time>2026-05-02T10:57:57Z</time></trkpt><trkpt lat="42.63175806678023" lon="12.594343783503549"><ele>992.0000000000001</ele><time>2026-05-02T10:57:59Z</time></trkpt><trkpt lat="42.631787157818636" lon="12.594263133542178"><ele>992.0</ele><time>2026-05-02T10:58:01Z</time></trkpt><trkpt lat="42.631782287690385" lon="12.594152923777598"><ele>992.0</ele><time>2026-05-02T10:58:03Z</time></trkpt><trkpt lat="42.6317483822422" lon="12.594006746305302"><ele>992.0</ele><time>2026-05-02T10:58:05Z</time></trkpt><trkpt lat="42.63174755807786" lon="12.593909906598613"><ele>992.0</ele><time>2026-05-02T10:58:06Z</time></trkpt><trkpt lat="42.63175758455823" lon="12.59378785856676"><ele>992.0</ele><time>2026-05-02T10:58:07Z</time></trkpt><trkpt lat="42.63179211911922" lon="12.593650769363876"><ele>992.0</ele><time>2026-05-02T10:58:08Z</time></trkpt><trkpt lat="42.63182636877731" lon="12.593502235559747"><ele>992.25</ele><time>2026-05-02T10:58:09Z</time></trkpt><trkpt lat="42.631858392019176" lon="12.593291309260923"><ele>992.5</ele><time>2026-05-02T10:58:10Z</time></trkpt><trkpt lat="42.63188457352351" lon="12.593065775567762"><ele>992.75</ele><time>2026-05-02T10:58:11Z</time></trkpt><trkpt lat="42.631919274240474" lon="12.592905823982525"><ele>993.0</ele><time>2026-05-02T10:58:12Z</time></trkpt><trkpt lat="42.63195027865869" lon="12.592778094160039"><ele>993.0</ele><time>2026-05-02T10:58:13Z</time></trkpt><trkpt lat="42.63198934193734" lon="12.592677564386545"><ele>993.0</ele><time>2026-05-02T10:58:14Z</time></trkpt><trkpt lat="42.631960664852876" lon="12.592520457368126"><ele>993.0</ele><time>2026-05-02T10:58:15Z</time></trkpt><trkpt lat="42.63197425919906" lon="12.59243358628999"><ele>993.0</ele><time>2026-05-02T10:58:16Z</time></trkpt><trkpt lat="42.63200168378566" lon="12.592299229951044"><ele>993.0</ele><time>2026-05-02T10:58:18Z</time></trkpt><trkpt lat="42.63200076996234" lon="12.592184644470175"><ele>993.0</ele><time>2026-05-02T10:58:20Z</time></trkpt><trkpt lat="42.63191853393909" lon="12.592164156740498"><ele>993.0</ele><time>2026-05-02T10:58:46.999Z</time></trkpt><trkpt lat="42.6318751140981" lon="12.59227862315696"><ele>993.0</ele><time>2026-05-02T10:58:48.999Z</time></trkpt><trkpt lat="42.63188482979055" lon="12.592374144255732"><ele>993.0</ele><time>2026-05-02T10:58:49.999Z</time></trkpt><trkpt lat="42.63190943935829" lon="12.592479233403402"><ele>993.0</ele><time>2026-05-02T10:58:50.999Z</time></trkpt><trkpt lat="42.631931029770676" lon="12.592567759266219"><ele>993.0</ele><time>2026-05-02T10:58:51.999Z</time></trkpt><trkpt lat="42.63194388142922" lon="12.59268299072626"><ele>993.0</ele><time>2026-05-02T10:58:52.999Z</time></trkpt><trkpt lat="42.63191658769423" lon="12.592808342733012"><ele>993.0</ele><time>2026-05-02T10:58:53.999Z</time></trkpt><trkpt lat="42.63189938248652" lon="12.59294241858069"><ele>993.0</ele><time>2026-05-02T10:58:54.999Z</time></trkpt><trkpt lat="42.631883041434484" lon="12.593081862741874"><ele>993.0</ele><time>2026-05-02T10:58:55.999Z</time></trkpt><trkpt lat="42.63186843582148" lon="12.59322346551163"><ele>993.0</ele><time>2026-05-02T10:58:56.999Z</time></trkpt><trkpt lat="42.63185269366745" lon="12.593348551054289"><ele>992.8</ele><time>2026-05-02T10:58:57.999Z</time></trkpt><trkpt lat="42.63182946165657" lon="12.593502549376652"><ele>992.5999999999999</ele><time>2026-05-02T10:58:58.999Z</time></trkpt><trkpt lat="42.631800337941996" lon="12.593643668145567"><ele>992.4000000000001</ele><time>2026-05-02T10:58:59.999Z</time></trkpt><trkpt lat="42.63177558475326" lon="12.593779810931942"><ele>992.2</ele><time>2026-05-02T10:59:00.999Z</time></trkpt><trkpt lat="42.6317476645204" lon="12.593911382611667"><ele>992.0</ele><time>2026-05-02T10:59:01.999Z</time></trkpt><trkpt lat="42.631718418115575" lon="12.594034104045742"><ele>992.0</ele><time>2026-05-02T10:59:02.999Z</time></trkpt><trkpt lat="42.631696444511064" lon="12.594161217612237"><ele>992.0</ele><time>2026-05-02T10:59:03.999Z</time></trkpt><trkpt lat="42.63168235926209" lon="12.594252542993871"><ele>992.0</ele><time>2026-05-02T10:59:04.999Z</time></trkpt><trkpt lat="42.6316890557006" lon="12.594374983556776"><ele>992.0</ele><time>2026-05-02T10:59:05.999Z</time></trkpt><trkpt lat="42.63165498308051" lon="12.594575162185537"><ele>992.0</ele><time>2026-05-02T10:59:07.999Z</time></trkpt><trkpt lat="42.63160298120199" lon="12.5946782295572"><ele>991.2</ele><time>2026-05-02T10:59:08.999Z</time></trkpt><trkpt lat="42.6315217173327" lon="12.594773511616012"><ele>990.4000000000001</ele><time>2026-05-02T10:59:09.999Z</time></trkpt><trkpt lat="42.631428115542086" lon="12.594875570225858"><ele>989.5999999999999</ele><time>2026-05-02T10:59:10.999Z</time></trkpt><trkpt lat="42.631357908836094" lon="12.594938375101528"><ele>988.8</ele><time>2026-05-02T10:59:11.999Z</time></trkpt><trkpt lat="42.63128297124033" lon="12.595039023280046"><ele>988.0</ele><time>2026-05-02T10:59:12.999Z</time></trkpt><trkpt lat="42.63121073151043" lon="12.59511689072124"><ele>987.9999999999999</ele><time>2026-05-02T10:59:13.999Z</time></trkpt><trkpt lat="42.631142980591456" lon="12.59520021621268"><ele>988.0</ele><time>2026-05-02T10:59:14.999Z</time></trkpt><trkpt lat="42.631076763213" lon="12.59529289866382"><ele>988.0</ele><time>2026-05-02T10:59:15.999Z</time></trkpt><trkpt lat="42.63101450158871" lon="12.595378928915096"><ele>988.0</ele><time>2026-05-02T10:59:16.999Z</time></trkpt><trkpt lat="42.63095474263498" lon="12.595440396319013"><ele>987.9999999999999</ele><time>2026-05-02T10:59:17.999Z</time></trkpt><trkpt lat="42.630886596086256" lon="12.595511177769035"><ele>988.0</ele><time>2026-05-02T10:59:18.999Z</time></trkpt><trkpt lat="42.63081389454371" lon="12.595587265722573"><ele>984.5</ele><time>2026-05-02T10:59:19.999Z</time></trkpt><trkpt lat="42.63073169108761" lon="12.595680611243228"><ele>981.0</ele><time>2026-05-02T10:59:20.999Z</time></trkpt><trkpt lat="42.63063743988782" lon="12.595771517239951"><ele>977.5</ele><time>2026-05-02T10:59:21.999Z</time></trkpt><trkpt lat="42.630526304899846" lon="12.5958862164786"><ele>974.0</ele><time>2026-05-02T10:59:22.999Z</time></trkpt><trkpt lat="42.63041081551514" lon="12.596000364441537"><ele>975.0</ele><time>2026-05-02T10:59:24Z</time></trkpt><trkpt lat="42.63029818301342" lon="12.596107856770269"><ele>976.0</ele><time>2026-05-02T10:59:25Z</time></trkpt><trkpt lat="42.630181949449295" lon="12.596206031359767"><ele>977.0</ele><time>2026-05-02T10:59:26Z</time></trkpt><trkpt lat="42.630058350606724" lon="12.59628787711537"><ele>978.0</ele><time>2026-05-02T10:59:27Z</time></trkpt><trkpt lat="42.629964897464895" lon="12.596325160383508"><ele>979.8</ele><time>2026-05-02T10:59:28Z</time></trkpt><trkpt lat="42.62989127318377" lon="12.596340660029982"><ele>981.5999999999999</ele><time>2026-05-02T10:59:29Z</time></trkpt><trkpt lat="42.629768460131906" lon="12.596363520437992"><ele>983.4000000000001</ele><time>2026-05-02T10:59:31Z</time></trkpt><trkpt lat="42.62974773586345" lon="12.596448106812643"><ele>985.2</ele><time>2026-05-02T10:59:34Z</time></trkpt><trkpt lat="42.629848465544065" lon="12.596427854082238"><ele>987.0</ele><time>2026-05-02T10:59:36Z</time></trkpt><trkpt lat="42.62992999201661" lon="12.596364318768682"><ele>987.0</ele><time>2026-05-02T10:59:37Z</time></trkpt><trkpt lat="42.630001954778386" lon="12.596310272138249"><ele>987.0</ele><time>2026-05-02T10:59:38Z</time></trkpt><trkpt lat="42.63011380482038" lon="12.59623782447111"><ele>987.0</ele><time>2026-05-02T10:59:39Z</time></trkpt><trkpt lat="42.63022320888948" lon="12.59616636153832"><ele>987.0</ele><time>2026-05-02T10:59:40Z</time></trkpt><trkpt lat="42.63034501318711" lon="12.596071313936593"><ele>982.6666666666667</ele><time>2026-05-02T10:59:41Z</time></trkpt><trkpt lat="42.63046719352236" lon="12.595946681991524"><ele>978.3333333333334</ele><time>2026-05-02T10:59:42Z</time></trkpt><trkpt lat="42.630591880257796" lon="12.595811885956005"><ele>974.0</ele><time>2026-05-02T10:59:43Z</time></trkpt><trkpt lat="42.63073414388963" lon="12.595650910786302"><ele>974.0</ele><time>2026-05-02T10:59:44Z</time></trkpt><trkpt lat="42.630861619802516" lon="12.595513182195772"><ele>974.0</ele><time>2026-05-02T10:59:45Z</time></trkpt><trkpt lat="42.6309674691978" lon="12.595391655453579"><ele>974.0</ele><time>2026-05-02T10:59:46Z</time></trkpt><trkpt lat="42.63110314749905" lon="12.59522487683177"><ele>977.5</ele><time>2026-05-02T10:59:47Z</time></trkpt><trkpt lat="42.631213251668505" lon="12.5950904680571"><ele>981.0</ele><time>2026-05-02T10:59:48Z</time></trkpt><trkpt lat="42.63129920042547" lon="12.594993506082954"><ele>984.5</ele><time>2026-05-02T10:59:49Z</time></trkpt><trkpt lat="42.631369636824914" lon="12.594911616107463"><ele>988.0</ele><time>2026-05-02T10:59:50Z</time></trkpt><trkpt lat="42.63147990557493" lon="12.594806015924386"><ele>988.0</ele><time>2026-05-02T10:59:51Z</time></trkpt><trkpt lat="42.63156980660761" lon="12.594725737811395"><ele>988.0</ele><time>2026-05-02T10:59:52Z</time></trkpt><trkpt lat="42.63163767928484" lon="12.594610621780976"><ele>988.0</ele><time>2026-05-02T10:59:53Z</time></trkpt><trkpt lat="42.631697997779845" lon="12.594500804353116"><ele>988.0</ele><time>2026-05-02T10:59:54Z</time></trkpt><trkpt lat="42.631722520405646" lon="12.594402323202148"><ele>988.0</ele><time>2026-05-02T10:59:55Z</time></trkpt><trkpt lat="42.631714954404075" lon="12.594284298444625"><ele>989.0</ele><time>2026-05-02T10:59:56Z</time></trkpt><trkpt lat="42.63171084695302" lon="12.594166833633455"><ele>990.0</ele><time>2026-05-02T10:59:57Z</time></trkpt><trkpt lat="42.63173599904252" lon="12.5940174603025"><ele>991.0</ele><time>2026-05-02T10:59:58Z</time></trkpt><trkpt lat="42.631766959057295" lon="12.593845979501085"><ele>992.0</ele><time>2026-05-02T10:59:59Z</time></trkpt><trkpt lat="42.631796489588645" lon="12.593652132746126"><ele>993.0</ele><time>2026-05-02T11:00:00Z</time></trkpt><trkpt lat="42.631838944339556" lon="12.59343584551815"><ele>994.0</ele><time>2026-05-02T11:00:01Z</time></trkpt><trkpt lat="42.6318804281666" lon="12.593209691522837"><ele>995.0</ele><time>2026-05-02T11:00:02Z</time></trkpt><trkpt lat="42.631907945459254" lon="12.592986615144149"><ele>994.5</ele><time>2026-05-02T11:00:03Z</time></trkpt><trkpt lat="42.63191797208556" lon="12.592783997296602"><ele>994.0</ele><time>2026-05-02T11:00:04Z</time></trkpt><trkpt lat="42.63193334038177" lon="12.59260291345884"><ele>993.5</ele><time>2026-05-02T11:00:05Z</time></trkpt><trkpt lat="42.63195803009656" lon="12.592465352846046"><ele>993.0</ele><time>2026-05-02T11:00:06Z</time></trkpt><trkpt lat="42.63197321102881" lon="12.592351443673929"><ele>993.0</ele><time>2026-05-02T11:00:07Z</time></trkpt><trkpt lat="42.63199259324659" lon="12.59226159320912"><ele>993.0</ele><time>2026-05-02T11:00:08Z</time></trkpt><trkpt lat="42.632022588336426" lon="12.592160177805114"><ele>993.0</ele><time>2026-05-02T11:00:10Z</time></trkpt><trkpt lat="42.632068307178685" lon="12.592363553133413"><ele>993.0</ele><time>2026-05-02T11:02:26.447Z</time></trkpt><trkpt lat="42.63209944594897" lon="12.592583494272635"><ele>993.0</ele><time>2026-05-02T11:02:27.452Z</time></trkpt><trkpt lat="42.63202048842109" lon="12.592696314689324"><ele>993.0</ele><time>2026-05-02T11:02:29.452Z</time></trkpt><trkpt lat="42.63199257668353" lon="12.592809135106013"><ele>993.0</ele><time>2026-05-02T11:02:31.448Z</time></trkpt><trkpt lat="42.63192975431926" lon="12.592958584439561"><ele>993.0</ele><time>2026-05-02T11:02:34Z</time></trkpt><trkpt lat="42.631914415436455" lon="12.59307777510266"><ele>993.0</ele><time>2026-05-02T11:02:35Z</time></trkpt><trkpt lat="42.63189547233529" lon="12.593190763157413"><ele>992.8333333333334</ele><time>2026-05-02T11:02:36Z</time></trkpt><trkpt lat="42.631885819484836" lon="12.593308641930616"><ele>992.6666666666667</ele><time>2026-05-02T11:02:37Z</time></trkpt><trkpt lat="42.63185720886121" lon="12.593400025226256"><ele>992.5</ele><time>2026-05-02T11:02:38Z</time></trkpt><trkpt lat="42.63184302875042" lon="12.593494811323572"><ele>992.3333333333334</ele><time>2026-05-02T11:02:39Z</time></trkpt><trkpt lat="42.63182128698626" lon="12.593638544385074"><ele>992.1666666666667</ele><time>2026-05-02T11:02:40Z</time></trkpt><trkpt lat="42.6317925889626" lon="12.5937538320591"><ele>992.0</ele><time>2026-05-02T11:02:41Z</time></trkpt><trkpt lat="42.63176619657424" lon="12.593849095405206"><ele>992.0</ele><time>2026-05-02T11:02:42Z</time></trkpt><trkpt lat="42.63174818909685" lon="12.59395193120727"><ele>992.0</ele><time>2026-05-02T11:02:43Z</time></trkpt><trkpt lat="42.6317194754515" lon="12.594104741407458"><ele>992.0</ele><time>2026-05-02T11:02:44Z</time></trkpt><trkpt lat="42.63170510779102" lon="12.59421433975086"><ele>992.0</ele><time>2026-05-02T11:02:45Z</time></trkpt><trkpt lat="42.63168396989346" lon="12.594406024894758"><ele>992.0</ele><time>2026-05-02T11:02:47Z</time></trkpt><trkpt lat="42.63167608103498" lon="12.594496188416754"><ele>991.2</ele><time>2026-05-02T11:02:48Z</time></trkpt><trkpt lat="42.631632102829684" lon="12.594635860234568"><ele>990.4000000000001</ele><time>2026-05-02T11:02:50Z</time></trkpt><trkpt lat="42.631567040497636" lon="12.594737130116647"><ele>989.5999999999999</ele><time>2026-05-02T11:02:52Z</time></trkpt><trkpt lat="42.631467214021775" lon="12.594852123123784"><ele>988.8</ele><time>2026-05-02T11:02:54Z</time></trkpt><trkpt lat="42.63142401072411" lon="12.594914618181837"><ele>988.0</ele><time>2026-05-02T11:02:55Z</time></trkpt><trkpt lat="42.63136218432369" lon="12.59494852082054"><ele>988.0</ele><time>2026-05-02T11:02:56Z</time></trkpt><trkpt lat="42.63132141350692" lon="12.595025249784658"><ele>988.0</ele><time>2026-05-02T11:02:57Z</time></trkpt><trkpt lat="42.63127070319529" lon="12.595078434354395"><ele>988.0</ele><time>2026-05-02T11:02:58Z</time></trkpt><trkpt lat="42.63122103703943" lon="12.595139247749964"><ele>988.0</ele><time>2026-05-02T11:02:59Z</time></trkpt><trkpt lat="42.631162772627434" lon="12.59521068765354"><ele>988.0</ele><time>2026-05-02T11:03:00Z</time></trkpt><trkpt lat="42.63109590736269" lon="12.595288396008167"><ele>988.0</ele><time>2026-05-02T11:03:01Z</time></trkpt><trkpt lat="42.631037805478215" lon="12.59535743758717"><ele>988.0</ele><time>2026-05-02T11:03:02Z</time></trkpt><trkpt lat="42.63098175329332" lon="12.595423277559304"><ele>985.6666666666666</ele><time>2026-05-02T11:03:02.999Z</time></trkpt><trkpt lat="42.63092017638542" lon="12.595490621874774"><ele>983.3333333333333</ele><time>2026-05-02T11:03:03.999Z</time></trkpt><trkpt lat="42.63086090784796" lon="12.595557173317566"><ele>981.0</ele><time>2026-05-02T11:03:04.999Z</time></trkpt><trkpt lat="42.63079335017741" lon="12.595630283295279"><ele>978.6666666666667</ele><time>2026-05-02T11:03:05.999Z</time></trkpt><trkpt lat="42.630732334631126" lon="12.595689234359163"><ele>976.3333333333334</ele><time>2026-05-02T11:03:06.999Z</time></trkpt><trkpt lat="42.630652307693914" lon="12.595762353185366"><ele>974.0</ele><time>2026-05-02T11:03:07.999Z</time></trkpt><trkpt lat="42.630571471241396" lon="12.59584503754245"><ele>974.0000000000001</ele><time>2026-05-02T11:03:08.999Z</time></trkpt><trkpt lat="42.63050582365504" lon="12.595916788743452"><ele>974.0</ele><time>2026-05-02T11:03:10.999Z</time></trkpt><trkpt lat="42.63050686065891" lon="12.596008224373957"><ele>974.0</ele><time>2026-05-02T11:03:13.999Z</time></trkpt><trkpt lat="42.630580530930345" lon="12.59600209363055"><ele>974.0</ele><time>2026-05-02T11:03:16.999Z</time></trkpt><trkpt lat="42.63061458747232" lon="12.595925249661681"><ele>974.0000000000001</ele><time>2026-05-02T11:03:18.999Z</time></trkpt><trkpt lat="42.63066043516841" lon="12.595840222014827"><ele>974.0</ele><time>2026-05-02T11:03:21.999Z</time></trkpt><trkpt lat="42.63071360343481" lon="12.595738491890454"><ele>974.0000000000001</ele><time>2026-05-02T11:03:24.999Z</time></trkpt><trkpt lat="42.630763581490456" lon="12.595661818565876"><ele>974.0</ele><time>2026-05-02T11:03:27.999Z</time></trkpt><trkpt lat="42.63084145721879" lon="12.595570423480384"><ele>974.0</ele><time>2026-05-02T11:03:29.999Z</time></trkpt><trkpt lat="42.630905053646174" lon="12.595497843338613"><ele>974.0</ele><time>2026-05-02T11:03:30.999Z</time></trkpt><trkpt lat="42.63096675430772" lon="12.5954262667259"><ele>974.0000000000001</ele><time>2026-05-02T11:03:31.999Z</time></trkpt><trkpt lat="42.631040543328744" lon="12.595327796863128"><ele>974.0</ele><time>2026-05-02T11:03:32.999Z</time></trkpt><trkpt lat="42.6311070950773" lon="12.595242228010758"><ele>976.8000000000001</ele><time>2026-05-02T11:03:33.999Z</time></trkpt><trkpt lat="42.63118740387616" lon="12.595144080582498"><ele>979.6000000000001</ele><time>2026-05-02T11:03:34.999Z</time></trkpt><trkpt lat="42.63125570110198" lon="12.59506687646371"><ele>982.4</ele><time>2026-05-02T11:03:35.999Z</time></trkpt><trkpt lat="42.63133426432415" lon="12.594969575516165"><ele>985.2</ele><time>2026-05-02T11:03:36.999Z</time></trkpt><trkpt lat="42.63141896229592" lon="12.594866158366441"><ele>988.0</ele><time>2026-05-02T11:03:37.999Z</time></trkpt><trkpt lat="42.631511697466685" lon="12.594789169259458"><ele>987.9999999999999</ele><time>2026-05-02T11:03:38.999Z</time></trkpt><trkpt lat="42.63157150124904" lon="12.594718360465755"><ele>988.0</ele><time>2026-05-02T11:03:39.999Z</time></trkpt><trkpt lat="42.631614742730065" lon="12.594645168355761"><ele>988.0</ele><time>2026-05-02T11:03:40.999Z</time></trkpt><trkpt lat="42.631655829350905" lon="12.594552143060842"><ele>988.0</ele><time>2026-05-02T11:03:41.999Z</time></trkpt><trkpt lat="42.631683838849426" lon="12.594463653142732"><ele>987.9999999999999</ele><time>2026-05-02T11:03:42.999Z</time></trkpt><trkpt lat="42.63169505602767" lon="12.594292452466473"><ele>988.0</ele><time>2026-05-02T11:03:44.999Z</time></trkpt><trkpt lat="42.631701629091744" lon="12.594178199221524"><ele>988.8</ele><time>2026-05-02T11:03:45.999Z</time></trkpt><trkpt lat="42.6317187172553" lon="12.59404635882303"><ele>989.5999999999999</ele><time>2026-05-02T11:03:46.999Z</time></trkpt><trkpt lat="42.63173552297958" lon="12.593930483048204"><ele>990.4000000000001</ele><time>2026-05-02T11:03:47.999Z</time></trkpt><trkpt lat="42.63175436306625" lon="12.593822286870015"><ele>991.2</ele><time>2026-05-02T11:03:48.999Z</time></trkpt><trkpt lat="42.63178700825232" lon="12.593699437994779"><ele>992.0</ele><time>2026-05-02T11:03:49.999Z</time></trkpt><trkpt lat="42.63181536829548" lon="12.59355688866595"><ele>992.6</ele><time>2026-05-02T11:03:50.999Z</time></trkpt><trkpt lat="42.63184062740684" lon="12.593416088005235"><ele>993.2</ele><time>2026-05-02T11:03:51.999Z</time></trkpt><trkpt lat="42.63186557263162" lon="12.59326519523512"><ele>993.8</ele><time>2026-05-02T11:03:52.999Z</time></trkpt><trkpt lat="42.63188042482466" lon="12.593130439557559"><ele>994.4</ele><time>2026-05-02T11:03:53.999Z</time></trkpt><trkpt lat="42.63189405334849" lon="12.593002425060252"><ele>995.0</ele><time>2026-05-02T11:03:54.999Z</time></trkpt><trkpt lat="42.631905957465094" lon="12.592844723417132"><ele>994.6</ele><time>2026-05-02T11:03:55.999Z</time></trkpt><trkpt lat="42.63191870214525" lon="12.592713476560174"><ele>994.2</ele><time>2026-05-02T11:03:56.999Z</time></trkpt><trkpt lat="42.63193473070919" lon="12.592601113463985"><ele>993.8</ele><time>2026-05-02T11:03:57.999Z</time></trkpt><trkpt lat="42.631956023732265" lon="12.592474389865226"><ele>993.4</ele><time>2026-05-02T11:03:58.999Z</time></trkpt><trkpt lat="42.63197528839929" lon="12.59236850227284"><ele>993.0</ele><time>2026-05-02T11:03:59.999Z</time></trkpt><trkpt lat="42.63201002122221" lon="12.592209695188277"><ele>993.0</ele><time>2026-05-02T11:04:01.999Z</time></trkpt><trkpt lat="42.63200254583138" lon="12.592110267479928"><ele>993.0</ele><time>2026-05-02T11:04:04.999Z</time></trkpt><trkpt lat="42.63193351749668" lon="12.592098416344719"><ele>993.0</ele><time>2026-05-02T11:04:08.999Z</time></trkpt><trkpt lat="42.63195107641651" lon="12.59219037526176"><ele>993.0</ele><time>2026-05-02T11:04:13.999Z</time></trkpt><trkpt lat="42.63200065814462" lon="12.59224721235171"><ele>993.0</ele><time>2026-05-02T11:07:10Z</time></trkpt><trkpt lat="42.63198680686495" lon="12.592373837428928"><ele>993.0</ele><time>2026-05-02T11:07:12Z</time></trkpt><trkpt lat="42.631955878017806" lon="12.592490422635683"><ele>993.0</ele><time>2026-05-02T11:07:14Z</time></trkpt><trkpt lat="42.63194132424696" lon="12.592576101954668"><ele>993.0</ele><time>2026-05-02T11:07:15Z</time></trkpt><trkpt lat="42.6319294025408" lon="12.592660812100855"><ele>993.0</ele><time>2026-05-02T11:07:16Z</time></trkpt><trkpt lat="42.631918709814876" lon="12.592746928852632"><ele>993.0</ele><time>2026-05-02T11:07:17Z</time></trkpt><trkpt lat="42.63190136724392" lon="12.592904341385664"><ele>993.0</ele><time>2026-05-02T11:07:19Z</time></trkpt><trkpt lat="42.631896448807446" lon="12.593007182982468"><ele>993.0</ele><time>2026-05-02T11:07:20Z</time></trkpt><trkpt lat="42.63188764042498" lon="12.593097836988429"><ele>992.8333333333334</ele><time>2026-05-02T11:07:21Z</time></trkpt><trkpt lat="42.6318677018015" lon="12.593221140546285"><ele>992.6666666666667</ele><time>2026-05-02T11:07:22Z</time></trkpt><trkpt lat="42.63184200415581" lon="12.593337161955594"><ele>992.5</ele><time>2026-05-02T11:07:23Z</time></trkpt><trkpt lat="42.63182377718192" lon="12.593467196148316"><ele>992.3333333333334</ele><time>2026-05-02T11:07:24Z</time></trkpt><trkpt lat="42.63180704741568" lon="12.593588266064224"><ele>992.1666666666667</ele><time>2026-05-02T11:07:25Z</time></trkpt><trkpt lat="42.63178672066382" lon="12.593692402377028"><ele>992.0</ele><time>2026-05-02T11:07:26Z</time></trkpt><trkpt lat="42.631761668045186" lon="12.593811372861824"><ele>992.0000000000001</ele><time>2026-05-02T11:07:27Z</time></trkpt><trkpt lat="42.631734151821895" lon="12.593928960707192"><ele>992.0</ele><time>2026-05-02T11:07:28Z</time></trkpt><trkpt lat="42.63171342133827" lon="12.594052514010754"><ele>992.0</ele><time>2026-05-02T11:07:29Z</time></trkpt><trkpt lat="42.63169424128882" lon="12.594154600266775"><ele>992.0</ele><time>2026-05-02T11:07:30Z</time></trkpt><trkpt lat="42.63167547133715" lon="12.594274820224365"><ele>992.0000000000001</ele><time>2026-05-02T11:07:31Z</time></trkpt><trkpt lat="42.631673774713946" lon="12.594375176975971"><ele>992.0</ele><time>2026-05-02T11:07:32Z</time></trkpt><trkpt lat="42.63167181341799" lon="12.594467856306085"><ele>991.2</ele><time>2026-05-02T11:07:33Z</time></trkpt><trkpt lat="42.63165929687486" lon="12.594552628911353"><ele>990.4000000000001</ele><time>2026-05-02T11:07:34Z</time></trkpt><trkpt lat="42.63163079206003" lon="12.594630614492186"><ele>989.5999999999999</ele><time>2026-05-02T11:07:35Z</time></trkpt><trkpt lat="42.63154503936293" lon="12.594748311574365"><ele>988.8</ele><time>2026-05-02T11:07:37Z</time></trkpt><trkpt lat="42.63143075809643" lon="12.594872043783866"><ele>988.0</ele><time>2026-05-02T11:07:39Z</time></trkpt><trkpt lat="42.63136910069449" lon="12.594932719078788"><ele>987.9999999999999</ele><time>2026-05-02T11:07:40Z</time></trkpt><trkpt lat="42.6312961557154" lon="12.594999386875994"><ele>988.0</ele><time>2026-05-02T11:07:41Z</time></trkpt><trkpt lat="42.631240728199465" lon="12.59507025344637"><ele>988.0</ele><time>2026-05-02T11:07:42Z</time></trkpt><trkpt lat="42.631183261921635" lon="12.595140943068886"><ele>988.0</ele><time>2026-05-02T11:07:43Z</time></trkpt><trkpt lat="42.63112082681442" lon="12.595217467989134"><ele>987.9999999999999</ele><time>2026-05-02T11:07:44Z</time></trkpt><trkpt lat="42.63107128903014" lon="12.595282894891701"><ele>988.0</ele><time>2026-05-02T11:07:45Z</time></trkpt><trkpt lat="42.63102056945533" lon="12.595343820127539"><ele>985.2</ele><time>2026-05-02T11:07:46Z</time></trkpt><trkpt lat="42.630959874764976" lon="12.595415078749696"><ele>982.4</ele><time>2026-05-02T11:07:47Z</time></trkpt><trkpt lat="42.630894963380754" lon="12.595486729855875"><ele>979.6000000000001</ele><time>2026-05-02T11:07:48Z</time></trkpt><trkpt lat="42.63081398996903" lon="12.595575103284627"><ele>976.8000000000001</ele><time>2026-05-02T11:07:49Z</time></trkpt><trkpt lat="42.63074161401581" lon="12.595646136109158"><ele>974.0</ele><time>2026-05-02T11:07:50Z</time></trkpt><trkpt lat="42.63064430039018" lon="12.595738252437004"><ele>974.0</ele><time>2026-05-02T11:07:51Z</time></trkpt><trkpt lat="42.6305515781526" lon="12.595838593603188"><ele>974.0000000000001</ele><time>2026-05-02T11:07:52Z</time></trkpt><trkpt lat="42.63047492653749" lon="12.5959236467674"><ele>974.0000000000001</ele><time>2026-05-02T11:07:53Z</time></trkpt><trkpt lat="42.63039388037813" lon="12.596010994920235"><ele>974.0</ele><time>2026-05-02T11:07:54Z</time></trkpt><trkpt lat="42.63031077641925" lon="12.59608985639286"><ele>974.0</ele><time>2026-05-02T11:07:55Z</time></trkpt><trkpt lat="42.6302329879506" lon="12.596150759819677"><ele>976.1666666666667</ele><time>2026-05-02T11:07:56Z</time></trkpt><trkpt lat="42.6301553350389" lon="12.5962117005603"><ele>978.3333333333334</ele><time>2026-05-02T11:07:57Z</time></trkpt><trkpt lat="42.630094376063184" lon="12.596253016071435"><ele>980.5</ele><time>2026-05-02T11:07:58Z</time></trkpt><trkpt lat="42.630021902677306" lon="12.596300895389568"><ele>982.6666666666667</ele><time>2026-05-02T11:07:59Z</time></trkpt><trkpt lat="42.62993904631855" lon="12.596339689877558"><ele>984.8333333333334</ele><time>2026-05-02T11:08:00Z</time></trkpt><trkpt lat="42.629876361887995" lon="12.59634960063351"><ele>987.0</ele><time>2026-05-02T11:08:01Z</time></trkpt><trkpt lat="42.62974958663054" lon="12.596335863471765"><ele>987.0</ele><time>2026-05-02T11:08:03Z</time></trkpt><trkpt lat="42.62966783993377" lon="12.596298013495323"><ele>987.0</ele><time>2026-05-02T11:08:05Z</time></trkpt><trkpt lat="42.62960782453092" lon="12.596325891330219"><ele>987.0</ele><time>2026-05-02T11:08:07Z</time></trkpt><trkpt lat="42.62958992357403" lon="12.59642231276217"><ele>987.0</ele><time>2026-05-02T11:08:09Z</time></trkpt><trkpt lat="42.629581901165125" lon="12.596599739634037"><ele>987.0</ele><time>2026-05-02T11:08:11Z</time></trkpt><trkpt lat="42.629520387156056" lon="12.596745340720725"><ele>988.1666666666666</ele><time>2026-05-02T11:08:13Z</time></trkpt><trkpt lat="42.62947371105485" lon="12.596813861355695"><ele>989.3333333333333</ele><time>2026-05-02T11:08:14Z</time></trkpt><trkpt lat="42.62942996703441" lon="12.59689288050348"><ele>990.5</ele><time>2026-05-02T11:08:15Z</time></trkpt><trkpt lat="42.62941799019074" lon="12.597023024038469"><ele>991.6666666666666</ele><time>2026-05-02T11:08:16.999Z</time></trkpt><trkpt lat="42.62946273106018" lon="12.597168039933676"><ele>992.8333333333333</ele><time>2026-05-02T11:08:18.999Z</time></trkpt><trkpt lat="42.629505571388094" lon="12.597249382256472"><ele>994.0</ele><time>2026-05-02T11:08:19.999Z</time></trkpt><trkpt lat="42.629568260829686" lon="12.597322797749108"><ele>993.9999999999999</ele><time>2026-05-02T11:08:20.999Z</time></trkpt><trkpt lat="42.629643393109305" lon="12.597388244664938"><ele>994.0</ele><time>2026-05-02T11:08:21.999Z</time></trkpt><trkpt lat="42.629718149722464" lon="12.597437768426348"><ele>994.0</ele><time>2026-05-02T11:08:22.999Z</time></trkpt><trkpt lat="42.629802233695216" lon="12.597468597580436"><ele>994.0</ele><time>2026-05-02T11:08:23.999Z</time></trkpt><trkpt lat="42.62987599416306" lon="12.59751224512655"><ele>993.9999999999999</ele><time>2026-05-02T11:08:24.999Z</time></trkpt><trkpt lat="42.62992772070436" lon="12.597577477692004"><ele>994.0</ele><time>2026-05-02T11:08:25.999Z</time></trkpt><trkpt lat="42.62997463039806" lon="12.597655015020662"><ele>994.0</ele><time>2026-05-02T11:08:26.999Z</time></trkpt><trkpt lat="42.630011464602546" lon="12.597745741635743"><ele>994.0</ele><time>2026-05-02T11:08:27.999Z</time></trkpt><trkpt lat="42.630024613408324" lon="12.597844520572181"><ele>994.0</ele><time>2026-05-02T11:08:28.999Z</time></trkpt><trkpt lat="42.6300094665424" lon="12.597928559522353"><ele>994.0</ele><time>2026-05-02T11:08:29.999Z</time></trkpt><trkpt lat="42.629977098970066" lon="12.598013234024375"><ele>994.0</ele><time>2026-05-02T11:08:30.999Z</time></trkpt><trkpt lat="42.62992648324841" lon="12.598089875310198"><ele>994.0</ele><time>2026-05-02T11:08:31.999Z</time></trkpt><trkpt lat="42.629861196719965" lon="12.598146518334225"><ele>994.0</ele><time>2026-05-02T11:08:32.999Z</time></trkpt><trkpt lat="42.62977946232476" lon="12.598208098874094"><ele>995.4999999999999</ele><time>2026-05-02T11:08:33.999Z</time></trkpt><trkpt lat="42.629697687451326" lon="12.598262835314392"><ele>997.0</ele><time>2026-05-02T11:08:34.999Z</time></trkpt><trkpt lat="42.6296330964674" lon="12.598303852966206"><ele>998.5</ele><time>2026-05-02T11:08:35.999Z</time></trkpt><trkpt lat="42.6295676039793" lon="12.598429060807335"><ele>1000.0</ele><time>2026-05-02T11:08:37.999Z</time></trkpt><trkpt lat="42.62958054153164" lon="12.598522146608662"><ele>1001.4999999999999</ele><time>2026-05-02T11:08:38.999Z</time></trkpt><trkpt lat="42.62961150858031" lon="12.598620082400467"><ele>1003.0</ele><time>2026-05-02T11:08:39.999Z</time></trkpt><trkpt lat="42.62965709668408" lon="12.59871915945123"><ele>1005.0</ele><time>2026-05-02T11:08:40.999Z</time></trkpt><trkpt lat="42.6296997523789" lon="12.598819497168451"><ele>1007.0</ele><time>2026-05-02T11:08:41.999Z</time></trkpt><trkpt lat="42.62975514207404" lon="12.598955313848018"><ele>1009.0</ele><time>2026-05-02T11:08:42.999Z</time></trkpt><trkpt lat="42.62980735352623" lon="12.599082974397925"><ele>1011.0</ele><time>2026-05-02T11:08:43.999Z</time></trkpt><trkpt lat="42.629860219758456" lon="12.599190686835028"><ele>1013.0</ele><time>2026-05-02T11:08:44.999Z</time></trkpt><trkpt lat="42.62992476509764" lon="12.599303096677717"><ele>1013.0</ele><time>2026-05-02T11:08:45.999Z</time></trkpt><trkpt lat="42.63001452854834" lon="12.599425021399105"><ele>1013.0</ele><time>2026-05-02T11:08:46.999Z</time></trkpt><trkpt lat="42.63008505127264" lon="12.599527359760753"><ele>1013.0</ele><time>2026-05-02T11:08:48Z</time></trkpt><trkpt lat="42.63014127025417" lon="12.599590320001257"><ele>1013.0</ele><time>2026-05-02T11:08:49Z</time></trkpt><trkpt lat="42.63026735383742" lon="12.599659214003008"><ele>1013.0</ele><time>2026-05-02T11:08:51Z</time></trkpt><trkpt lat="42.63034263076802" lon="12.599701085638966"><ele>1012.3333333333334</ele><time>2026-05-02T11:08:52Z</time></trkpt><trkpt lat="42.630426430934534" lon="12.599758303005615"><ele>1011.6666666666667</ele><time>2026-05-02T11:08:53Z</time></trkpt><trkpt lat="42.63050592111049" lon="12.599824713149943"><ele>1011.0</ele><time>2026-05-02T11:08:54Z</time></trkpt><trkpt lat="42.63056952164165" lon="12.599877424051284"><ele>1010.3333333333333</ele><time>2026-05-02T11:08:55Z</time></trkpt><trkpt lat="42.630616520384265" lon="12.599941681242187"><ele>1009.6666666666666</ele><time>2026-05-02T11:08:56Z</time></trkpt><trkpt lat="42.63067066620486" lon="12.60003617175335"><ele>1009.0</ele><time>2026-05-02T11:08:57Z</time></trkpt><trkpt lat="42.63073031662712" lon="12.600161614603897"><ele>1008.9999999999999</ele><time>2026-05-02T11:08:58Z</time></trkpt><trkpt lat="42.63077954463395" lon="12.60025919445254"><ele>1009.0</ele><time>2026-05-02T11:08:59Z</time></trkpt><trkpt lat="42.630833553072485" lon="12.600350632544249"><ele>1009.0</ele><time>2026-05-02T11:09:00Z</time></trkpt><trkpt lat="42.630873924638756" lon="12.600417374564827"><ele>1009.0</ele><time>2026-05-02T11:09:01Z</time></trkpt><trkpt lat="42.630930769767765" lon="12.600517284891152"><ele>1008.9999999999999</ele><time>2026-05-02T11:09:03Z</time></trkpt><trkpt lat="42.63087641158889" lon="12.60059045902462"><ele>1009.0</ele><time>2026-05-02T11:09:07Z</time></trkpt><trkpt lat="42.63079294107165" lon="12.600553763739931"><ele>1009.0</ele><time>2026-05-02T11:09:09Z</time></trkpt><trkpt lat="42.6307283266587" lon="12.600470299995806"><ele>1009.0000000000001</ele><time>2026-05-02T11:09:11Z</time></trkpt><trkpt lat="42.63066040498924" lon="12.600366795682783"><ele>1009.0000000000001</ele><time>2026-05-02T11:09:13Z</time></trkpt><trkpt lat="42.630591509118446" lon="12.600305039681716"><ele>1009.0</ele><time>2026-05-02T11:09:15Z</time></trkpt><trkpt lat="42.63050182845217" lon="12.600272631630487"><ele>1009.0</ele><time>2026-05-02T11:09:17Z</time></trkpt><trkpt lat="42.63040934898385" lon="12.600247852803223"><ele>1009.0</ele><time>2026-05-02T11:09:19Z</time></trkpt><trkpt lat="42.63033679246399" lon="12.60026001218117"><ele>1009.0</ele><time>2026-05-02T11:09:21Z</time></trkpt><trkpt lat="42.630274946598746" lon="12.600337219635847"><ele>1009.0</ele><time>2026-05-02T11:09:24Z</time></trkpt><trkpt lat="42.6302516250363" lon="12.600420505949531"><ele>1009.0</ele><time>2026-05-02T11:09:27Z</time></trkpt><trkpt lat="42.630167464570604" lon="12.600417841013934"><ele>1009.0</ele><time>2026-05-02T11:09:30Z</time></trkpt><trkpt lat="42.630201687636145" lon="12.60032812224285"><ele>1009.0</ele><time>2026-05-02T11:42:17.999Z</time></trkpt><trkpt lat="42.63026325308684" lon="12.600291245754292"><ele>1009.0</ele><time>2026-05-02T11:42:21.999Z</time></trkpt><trkpt lat="42.630338891896585" lon="12.600261889632726"><ele>1008.9999999999999</ele><time>2026-05-02T11:42:25Z</time></trkpt><trkpt lat="42.630427931001904" lon="12.600254936292773"><ele>1009.0</ele><time>2026-05-02T11:42:28Z</time></trkpt><trkpt lat="42.63050389397002" lon="12.600276178534624"><ele>1009.0</ele><time>2026-05-02T11:42:30Z</time></trkpt><trkpt lat="42.63057282690161" lon="12.600312434793278"><ele>1009.0</ele><time>2026-05-02T11:42:32Z</time></trkpt><trkpt lat="42.630629645849545" lon="12.600358578820861"><ele>1008.9999999999999</ele><time>2026-05-02T11:42:34Z</time></trkpt><trkpt lat="42.63069843875568" lon="12.600417313739587"><ele>1009.0</ele><time>2026-05-02T11:42:36Z</time></trkpt><trkpt lat="42.63074982496274" lon="12.600476645987147"><ele>1008.9999999999999</ele><time>2026-05-02T11:42:38Z</time></trkpt><trkpt lat="42.63084028106037" lon="12.600534563809745"><ele>1009.0</ele><time>2026-05-02T11:42:41Z</time></trkpt><trkpt lat="42.63090603270359" lon="12.60056622339257"><ele>1009.0</ele><time>2026-05-02T11:42:43Z</time></trkpt><trkpt lat="42.63098377004355" lon="12.600585163203833"><ele>1009.0</ele><time>2026-05-02T11:42:45Z</time></trkpt><trkpt lat="42.63092713513446" lon="12.600500696516816"><ele>1008.9999999999999</ele><time>2026-05-02T11:43:04Z</time></trkpt><trkpt lat="42.63084748112752" lon="12.600402734271162"><ele>1009.0</ele><time>2026-05-02T11:43:06Z</time></trkpt><trkpt lat="42.63078468224586" lon="12.600305227336836"><ele>1008.9999999999999</ele><time>2026-05-02T11:43:07Z</time></trkpt><trkpt lat="42.63073281323635" lon="12.600215279980585"><ele>1009.0</ele><time>2026-05-02T11:43:08Z</time></trkpt><trkpt lat="42.630685906736055" lon="12.600125690625461"><ele>1009.0</ele><time>2026-05-02T11:43:09Z</time></trkpt><trkpt lat="42.630639739973645" lon="12.60004735422367"><ele>1009.0</ele><time>2026-05-02T11:43:10Z</time></trkpt><trkpt lat="42.63055350279233" lon="12.599899454634"><ele>1008.9999999999999</ele><time>2026-05-02T11:43:12Z</time></trkpt><trkpt lat="42.63050038424117" lon="12.599839633449044"><ele>1009.0</ele><time>2026-05-02T11:43:13Z</time></trkpt><trkpt lat="42.6304305433278" lon="12.599785777600047"><ele>1009.0</ele><time>2026-05-02T11:43:14Z</time></trkpt><trkpt lat="42.63036750608249" lon="12.599741706283941"><ele>1009.0</ele><time>2026-05-02T11:43:15Z</time></trkpt><trkpt lat="42.63029855693726" lon="12.599704458481982"><ele>1009.0</ele><time>2026-05-02T11:43:16Z</time></trkpt><trkpt lat="42.630236743820156" lon="12.599657064168944"><ele>1009.0</ele><time>2026-05-02T11:43:17Z</time></trkpt><trkpt lat="42.6301783506721" lon="12.599612084231774"><ele>1009.0</ele><time>2026-05-02T11:43:18Z</time></trkpt><trkpt lat="42.63010722974208" lon="12.599566186375178"><ele>1009.0</ele><time>2026-05-02T11:43:19Z</time></trkpt><trkpt lat="42.63004884486679" lon="12.599505362187902"><ele>1009.0</ele><time>2026-05-02T11:43:20Z</time></trkpt><trkpt lat="42.629993044378345" lon="12.599420450031099"><ele>1009.6666666666666</ele><time>2026-05-02T11:43:21Z</time></trkpt><trkpt lat="42.62992733267534" lon="12.599307363121198"><ele>1010.3333333333333</ele><time>2026-05-02T11:43:22Z</time></trkpt><trkpt lat="42.62987125832338" lon="12.599207231003852"><ele>1011.0</ele><time>2026-05-02T11:43:23Z</time></trkpt><trkpt lat="42.62982371402543" lon="12.599124703829421"><ele>1011.6666666666667</ele><time>2026-05-02T11:43:24Z</time></trkpt><trkpt lat="42.62978013811689" lon="12.5990472924843"><ele>1012.3333333333334</ele><time>2026-05-02T11:43:25Z</time></trkpt><trkpt lat="42.6297470979917" lon="12.598961783822011"><ele>1013.0</ele><time>2026-05-02T11:43:26Z</time></trkpt><trkpt lat="42.629712385039866" lon="12.598869892124034"><ele>1013.0000000000001</ele><time>2026-05-02T11:43:27Z</time></trkpt><trkpt lat="42.62968035107937" lon="12.598771292708841"><ele>1013.0</ele><time>2026-05-02T11:43:28Z</time></trkpt><trkpt lat="42.62964493129275" lon="12.598694628513583"><ele>1013.0</ele><time>2026-05-02T11:43:29Z</time></trkpt><trkpt lat="42.629611409894466" lon="12.598602315478853"><ele>1013.0</ele><time>2026-05-02T11:43:30Z</time></trkpt><trkpt lat="42.62958450711291" lon="12.598509325005885"><ele>1013.0000000000001</ele><time>2026-05-02T11:43:31Z</time></trkpt><trkpt lat="42.62960791499662" lon="12.598343080149766"><ele>1013.0</ele><time>2026-05-02T11:43:33Z</time></trkpt><trkpt lat="42.6296594077232" lon="12.598278484002343"><ele>1011.3333333333334</ele><time>2026-05-02T11:43:34Z</time></trkpt><trkpt lat="42.629728013495324" lon="12.59823644453852"><ele>1009.6666666666667</ele><time>2026-05-02T11:43:35Z</time></trkpt><trkpt lat="42.62981023858006" lon="12.598189482673112"><ele>1008.0</ele><time>2026-05-02T11:43:36Z</time></trkpt><trkpt lat="42.62987504049341" lon="12.59814176997344"><ele>1006.3333333333333</ele><time>2026-05-02T11:43:37Z</time></trkpt><trkpt lat="42.62992905774373" lon="12.598087966359573"><ele>1004.6666666666666</ele><time>2026-05-02T11:43:38Z</time></trkpt><trkpt lat="42.62999502325255" lon="12.597952993183481"><ele>1003.0</ele><time>2026-05-02T11:43:40Z</time></trkpt><trkpt lat="42.630012146946335" lon="12.597866939869922"><ele>1001.4999999999999</ele><time>2026-05-02T11:43:41Z</time></trkpt><trkpt lat="42.63000299230439" lon="12.597774554476473"><ele>1000.0</ele><time>2026-05-02T11:43:42Z</time></trkpt><trkpt lat="42.62997549632363" lon="12.597679056442917"><ele>998.5</ele><time>2026-05-02T11:43:43Z</time></trkpt><trkpt lat="42.62992012955875" lon="12.597593821167"><ele>997.0</ele><time>2026-05-02T11:43:44Z</time></trkpt><trkpt lat="42.62984817068841" lon="12.597520775871468"><ele>995.4999999999999</ele><time>2026-05-02T11:43:45Z</time></trkpt><trkpt lat="42.62975953222244" lon="12.597452039335618"><ele>994.0</ele><time>2026-05-02T11:43:46Z</time></trkpt><trkpt lat="42.629677469676835" lon="12.597403140323886"><ele>993.9999999999999</ele><time>2026-05-02T11:43:47Z</time></trkpt><trkpt lat="42.62959908533449" lon="12.597366099187658"><ele>994.0</ele><time>2026-05-02T11:43:48Z</time></trkpt><trkpt lat="42.629534999582454" lon="12.59731934148819"><ele>994.0</ele><time>2026-05-02T11:43:49Z</time></trkpt><trkpt lat="42.62946955108039" lon="12.597239471255635"><ele>994.0</ele><time>2026-05-02T11:43:50Z</time></trkpt><trkpt lat="42.62943119415836" lon="12.5971508976784"><ele>993.9999999999999</ele><time>2026-05-02T11:43:51Z</time></trkpt><trkpt lat="42.62941251680029" lon="12.597055308531319"><ele>994.0</ele><time>2026-05-02T11:43:52Z</time></trkpt><trkpt lat="42.62942205726221" lon="12.59691326715818"><ele>992.8333333333333</ele><time>2026-05-02T11:43:54Z</time></trkpt><trkpt lat="42.62945434904672" lon="12.596832609657495"><ele>991.6666666666666</ele><time>2026-05-02T11:43:55Z</time></trkpt><trkpt lat="42.62950236492397" lon="12.596763397669173"><ele>990.5</ele><time>2026-05-02T11:43:56Z</time></trkpt><trkpt lat="42.62955276533514" lon="12.596688056001232"><ele>989.3333333333333</ele><time>2026-05-02T11:43:57Z</time></trkpt><trkpt lat="42.62960463040783" lon="12.59654487160374"><ele>988.1666666666666</ele><time>2026-05-02T11:43:59Z</time></trkpt><trkpt lat="42.62960183006449" lon="12.596441061272646"><ele>987.0</ele><time>2026-05-02T11:44:00Z</time></trkpt><trkpt lat="42.62958666169545" lon="12.596298719143212"><ele>987.0</ele><time>2026-05-02T11:44:02Z</time></trkpt><trkpt lat="42.62954154924628" lon="12.596172751476523"><ele>987.0</ele><time>2026-05-02T11:44:03.999Z</time></trkpt><trkpt lat="42.62950347851402" lon="12.596062589444704"><ele>987.0</ele><time>2026-05-02T11:44:04.999Z</time></trkpt><trkpt lat="42.62947600900369" lon="12.595963422349342"><ele>987.0</ele><time>2026-05-02T11:44:05.999Z</time></trkpt><trkpt lat="42.62945153520871" lon="12.595868148621703"><ele>987.0</ele><time>2026-05-02T11:44:06.999Z</time></trkpt><trkpt lat="42.62941782533213" lon="12.595767147135602"><ele>987.0</ele><time>2026-05-02T11:44:07.999Z</time></trkpt><trkpt lat="42.62937585876553" lon="12.595673114947536"><ele>987.8</ele><time>2026-05-02T11:44:08.999Z</time></trkpt><trkpt lat="42.629317107310655" lon="12.595593598769343"><ele>988.6</ele><time>2026-05-02T11:44:09.999Z</time></trkpt><trkpt lat="42.629237906079275" lon="12.595478498747317"><ele>989.3999999999999</ele><time>2026-05-02T11:44:10.999Z</time></trkpt><trkpt lat="42.629173532596354" lon="12.595383240224486"><ele>990.1999999999999</ele><time>2026-05-02T11:44:11.999Z</time></trkpt><trkpt lat="42.629124591886374" lon="12.595284832155036"><ele>991.0</ele><time>2026-05-02T11:44:12.999Z</time></trkpt><trkpt lat="42.6290825369167" lon="12.595178631760957"><ele>988.1666666666666</ele><time>2026-05-02T11:44:13.999Z</time></trkpt><trkpt lat="42.6290471083883" lon="12.595061256870432"><ele>985.3333333333333</ele><time>2026-05-02T11:44:14.999Z</time></trkpt><trkpt lat="42.62901548038407" lon="12.594953606183005"><ele>982.5</ele><time>2026-05-02T11:44:15.999Z</time></trkpt><trkpt lat="42.628982522509546" lon="12.59486451648875"><ele>979.6666666666667</ele><time>2026-05-02T11:44:16.999Z</time></trkpt><trkpt lat="42.62894058335009" lon="12.594779722845313"><ele>976.8333333333334</ele><time>2026-05-02T11:44:17.999Z</time></trkpt><trkpt lat="42.62888403836416" lon="12.594711496620707"><ele>974.0</ele><time>2026-05-02T11:44:18.999Z</time></trkpt><trkpt lat="42.62881690194511" lon="12.594656704943423"><ele>974.0000000000001</ele><time>2026-05-02T11:44:19.999Z</time></trkpt><trkpt lat="42.628730198346275" lon="12.594606816957443"><ele>974.0</ele><time>2026-05-02T11:44:20.999Z</time></trkpt><trkpt lat="42.628643003171085" lon="12.594574849173258"><ele>974.0</ele><time>2026-05-02T11:44:21.999Z</time></trkpt><trkpt lat="42.62855284216373" lon="12.594547271861506"><ele>974.0</ele><time>2026-05-02T11:44:22.999Z</time></trkpt><trkpt lat="42.62847190135126" lon="12.59452210311833"><ele>974.0000000000001</ele><time>2026-05-02T11:44:23.999Z</time></trkpt><trkpt lat="42.62840383983997" lon="12.594510920311714"><ele>974.0</ele><time>2026-05-02T11:44:24.999Z</time></trkpt><trkpt lat="42.62833201162962" lon="12.594526486959992"><ele>975.1666666666667</ele><time>2026-05-02T11:44:25.999Z</time></trkpt><trkpt lat="42.62826889565639" lon="12.594570693012233"><ele>976.3333333333334</ele><time>2026-05-02T11:44:26.999Z</time></trkpt><trkpt lat="42.62820151020339" lon="12.594636264713264"><ele>977.5</ele><time>2026-05-02T11:44:27.999Z</time></trkpt><trkpt lat="42.628139297005255" lon="12.594708193546996"><ele>978.6666666666667</ele><time>2026-05-02T11:44:28.999Z</time></trkpt><trkpt lat="42.628089317013504" lon="12.594764380350643"><ele>979.8333333333334</ele><time>2026-05-02T11:44:30Z</time></trkpt><trkpt lat="42.62802594296294" lon="12.594788403737796"><ele>981.0</ele><time>2026-05-02T11:44:31Z</time></trkpt><trkpt lat="42.62790611538582" lon="12.59473129389856"><ele>981.0</ele><time>2026-05-02T11:44:33Z</time></trkpt><trkpt lat="42.62786007710769" lon="12.594619192295843"><ele>980.9999999999999</ele><time>2026-05-02T11:44:34Z</time></trkpt><trkpt lat="42.62782531690653" lon="12.59453089866882"><ele>980.9999999999999</ele><time>2026-05-02T11:44:35Z</time></trkpt><trkpt lat="42.62778016636391" lon="12.594419083694358"><ele>981.0</ele><time>2026-05-02T11:44:37Z</time></trkpt><trkpt lat="42.627680620289645" lon="12.594377539852522"><ele>981.0</ele><time>2026-05-02T11:44:39Z</time></trkpt><trkpt lat="42.62753539948889" lon="12.59436651463859"><ele>977.8333333333334</ele><time>2026-05-02T11:44:41Z</time></trkpt><trkpt lat="42.627437416674354" lon="12.594355736288371"><ele>974.6666666666667</ele><time>2026-05-02T11:44:42Z</time></trkpt><trkpt lat="42.62734704372247" lon="12.594342677827242"><ele>971.5</ele><time>2026-05-02T11:44:43Z</time></trkpt><trkpt lat="42.627264788577826" lon="12.594325534099765"><ele>968.3333333333334</ele><time>2026-05-02T11:44:44Z</time></trkpt><trkpt lat="42.62719192791457" lon="12.594321140958858"><ele>965.1666666666667</ele><time>2026-05-02T11:44:45Z</time></trkpt><trkpt lat="42.62711663215232" lon="12.59433631011274"><ele>962.0</ele><time>2026-05-02T11:44:46Z</time></trkpt><trkpt lat="42.627048975907584" lon="12.594365378487701"><ele>962.0000000000001</ele><time>2026-05-02T11:44:47Z</time></trkpt><trkpt lat="42.62698541451336" lon="12.59439234584001"><ele>962.0</ele><time>2026-05-02T11:44:48Z</time></trkpt><trkpt lat="42.62688764402976" lon="12.594452761758914"><ele>962.0</ele><time>2026-05-02T11:44:50Z</time></trkpt><trkpt lat="42.62677675220963" lon="12.594456501704633"><ele>962.0</ele><time>2026-05-02T11:44:52Z</time></trkpt><trkpt lat="42.626731251910805" lon="12.59439185183283"><ele>962.0000000000001</ele><time>2026-05-02T11:44:53Z</time></trkpt><trkpt lat="42.626691823836154" lon="12.594312157043056"><ele>962.0</ele><time>2026-05-02T11:44:54Z</time></trkpt><trkpt lat="42.62666053555459" lon="12.594213502071524"><ele>961.6</ele><time>2026-05-02T11:44:55Z</time></trkpt><trkpt lat="42.626787336180335" lon="12.593979113018998"><ele>961.2</ele><time>2026-05-02T11:44:56Z</time></trkpt><trkpt lat="42.62674682050862" lon="12.593901392664677"><ele>960.8</ele><time>2026-05-02T11:44:57Z</time></trkpt><trkpt lat="42.626707910850484" lon="12.593807551457516"><ele>960.4</ele><time>2026-05-02T11:44:58Z</time></trkpt><trkpt lat="42.62667138801904" lon="12.593728523932656"><ele>960.0</ele><time>2026-05-02T11:44:59Z</time></trkpt><trkpt lat="42.626618268618266" lon="12.593628815539013"><ele>957.2</ele><time>2026-05-02T11:45:00Z</time></trkpt><trkpt lat="42.62656404089632" lon="12.593558930557226"><ele>954.4</ele><time>2026-05-02T11:45:01Z</time></trkpt><trkpt lat="42.62644858860823" lon="12.593523083363444"><ele>951.5999999999999</ele><time>2026-05-02T11:45:02Z</time></trkpt><trkpt lat="42.62637100358669" lon="12.593532431510921"><ele>948.8</ele><time>2026-05-02T11:45:03Z</time></trkpt><trkpt lat="42.626478741546386" lon="12.593512293201831"><ele>946.0</ele><time>2026-05-02T11:45:12Z</time></trkpt><trkpt lat="42.62653843397469" lon="12.593577158515528"><ele>945.9999999999999</ele><time>2026-05-02T11:45:13Z</time></trkpt><trkpt lat="42.6266164609818" lon="12.593629317502153"><ele>946.0</ele><time>2026-05-02T11:45:15Z</time></trkpt><trkpt lat="42.62665745948334" lon="12.593723621262653"><ele>946.0</ele><time>2026-05-02T11:45:17Z</time></trkpt><trkpt lat="42.62668759578492" lon="12.593805925382087"><ele>946.0</ele><time>2026-05-02T11:45:18Z</time></trkpt><trkpt lat="42.626734454089394" lon="12.593904972509318"><ele>945.9999999999999</ele><time>2026-05-02T11:45:20Z</time></trkpt><trkpt lat="42.62678745671373" lon="12.594016150899131"><ele>946.0</ele><time>2026-05-02T11:45:22Z</time></trkpt><trkpt lat="42.62688400183198" lon="12.594037206971445"><ele>949.1999999999999</ele><time>2026-05-02T11:45:24Z</time></trkpt><trkpt lat="42.62698399001299" lon="12.59396130860641"><ele>952.3999999999999</ele><time>2026-05-02T11:45:26Z</time></trkpt><trkpt lat="42.62703734318171" lon="12.593909168375314"><ele>955.6</ele><time>2026-05-02T11:45:27Z</time></trkpt><trkpt lat="42.62714713555562" lon="12.593897979853127"><ele>958.8</ele><time>2026-05-02T11:45:29Z</time></trkpt><trkpt lat="42.62722193170897" lon="12.59387352116446"><ele>962.0</ele><time>2026-05-02T11:45:30Z</time></trkpt><trkpt lat="42.627305725824556" lon="12.593847217895387"><ele>962.0000000000001</ele><time>2026-05-02T11:45:31Z</time></trkpt><trkpt lat="42.627377048026894" lon="12.593802591296233"><ele>962.0</ele><time>2026-05-02T11:45:32Z</time></trkpt><trkpt lat="42.62744891713693" lon="12.593787687014542"><ele>962.0</ele><time>2026-05-02T11:45:33Z</time></trkpt><trkpt lat="42.627526976631664" lon="12.593775178119213"><ele>962.0</ele><time>2026-05-02T11:45:34Z</time></trkpt><trkpt lat="42.627592576826295" lon="12.593760836596063"><ele>962.0000000000001</ele><time>2026-05-02T11:45:35Z</time></trkpt><trkpt lat="42.62771209093644" lon="12.593786047647463"><ele>962.0</ele><time>2026-05-02T11:45:37Z</time></trkpt><trkpt lat="42.627824542952055" lon="12.593849770313017"><ele>962.0</ele><time>2026-05-02T11:45:39Z</time></trkpt><trkpt lat="42.62794624788034" lon="12.59387897858477"><ele>962.0</ele><time>2026-05-02T11:45:41Z</time></trkpt><trkpt lat="42.628060531510165" lon="12.593849299222681"><ele>962.0</ele><time>2026-05-02T11:45:43Z</time></trkpt><trkpt lat="42.62812425507881" lon="12.593786606362993"><ele>962.0</ele><time>2026-05-02T11:45:44Z</time></trkpt><trkpt lat="42.628183401250354" lon="12.59371526899696"><ele>962.0</ele><time>2026-05-02T11:45:45Z</time></trkpt><trkpt lat="42.62823607160714" lon="12.593664423497124"><ele>960.0000000000001</ele><time>2026-05-02T11:45:46Z</time></trkpt><trkpt lat="42.62829334455977" lon="12.593609436868398"><ele>958.0</ele><time>2026-05-02T11:45:47Z</time></trkpt><trkpt lat="42.62839928113184" lon="12.593548990570774"><ele>956.0</ele><time>2026-05-02T11:45:49Z</time></trkpt><trkpt lat="42.62845010628782" lon="12.593497260908343"><ele>954.0</ele><time>2026-05-02T11:45:50Z</time></trkpt><trkpt lat="42.62853784689968" lon="12.593409238176577"><ele>952.0000000000001</ele><time>2026-05-02T11:45:52Z</time></trkpt><trkpt lat="42.628604215462744" lon="12.593326341863788"><ele>950.0</ele><time>2026-05-02T11:45:54Z</time></trkpt><trkpt lat="42.628667589990854" lon="12.593235082797001"><ele>950.0000000000001</ele><time>2026-05-02T11:45:56Z</time></trkpt><trkpt lat="42.628735894398766" lon="12.593156285548938"><ele>950.0</ele><time>2026-05-02T11:45:58Z</time></trkpt><trkpt lat="42.62879468840847" lon="12.593081000094744"><ele>950.0</ele><time>2026-05-02T11:46:00Z</time></trkpt><trkpt lat="42.62883736419245" lon="12.593002030226877"><ele>950.0</ele><time>2026-05-02T11:46:01.999Z</time></trkpt><trkpt lat="42.62889444311989" lon="12.592948576316456"><ele>950.0000000000001</ele><time>2026-05-02T11:46:03.999Z</time></trkpt><trkpt lat="42.6289526378245" lon="12.592869313016065"><ele>950.0</ele><time>2026-05-02T11:46:06.999Z</time></trkpt><trkpt lat="42.62901041907418" lon="12.59291081759533"><ele>950.0</ele><time>2026-05-02T11:46:07.999Z</time></trkpt><trkpt lat="42.629094274863384" lon="12.592862339819291"><ele>950.0</ele><time>2026-05-02T11:46:09.999Z</time></trkpt><trkpt lat="42.629174570442395" lon="12.592775263514826"><ele>950.0</ele><time>2026-05-02T11:46:11.999Z</time></trkpt><trkpt lat="42.629264426935435" lon="12.592670320682357"><ele>950.0</ele><time>2026-05-02T11:46:13.999Z</time></trkpt><trkpt lat="42.62933343013607" lon="12.592547272315"><ele>950.0</ele><time>2026-05-02T11:46:15.999Z</time></trkpt><trkpt lat="42.6293821976025" lon="12.592472691594365"><ele>949.1666666666667</ele><time>2026-05-02T11:46:16.999Z</time></trkpt><trkpt lat="42.629414753174885" lon="12.592384530543145"><ele>948.3333333333334</ele><time>2026-05-02T11:46:17.999Z</time></trkpt><trkpt lat="42.62944131023556" lon="12.592294531745024"><ele>947.5</ele><time>2026-05-02T11:46:18.999Z</time></trkpt><trkpt lat="42.629469574019744" lon="12.592176870079735"><ele>946.6666666666667</ele><time>2026-05-02T11:46:20.999Z</time></trkpt><trkpt lat="42.62950996547878" lon="12.592005686911808"><ele>945.8333333333334</ele><time>2026-05-02T11:46:22.999Z</time></trkpt><trkpt lat="42.62952166571601" lon="12.591913831887991"><ele>945.0</ele><time>2026-05-02T11:46:23.999Z</time></trkpt><trkpt lat="42.62958856911659" lon="12.591759007433554"><ele>947.8333333333334</ele><time>2026-05-02T11:46:25.999Z</time></trkpt><trkpt lat="42.629621040419444" lon="12.591668785740879"><ele>950.6666666666667</ele><time>2026-05-02T11:46:26.999Z</time></trkpt><trkpt lat="42.62965607126566" lon="12.591596202832417"><ele>953.5</ele><time>2026-05-02T11:46:27.999Z</time></trkpt><trkpt lat="42.62969048679349" lon="12.59151066547425"><ele>956.3333333333334</ele><time>2026-05-02T11:46:28.999Z</time></trkpt><trkpt lat="42.62970069436118" lon="12.591410654427051"><ele>959.1666666666667</ele><time>2026-05-02T11:46:30.999Z</time></trkpt><trkpt lat="42.629711970277945" lon="12.591267491068212"><ele>962.0</ele><time>2026-05-02T11:46:32.999Z</time></trkpt><trkpt lat="42.6296855809303" lon="12.59117575168908"><ele>962.142857142857</ele><time>2026-05-02T11:46:33.999Z</time></trkpt><trkpt lat="42.62967856827873" lon="12.591082908182948"><ele>962.2857142857142</ele><time>2026-05-02T11:46:34.999Z</time></trkpt><trkpt lat="42.62965873919275" lon="12.590996930527515"><ele>962.4285714285714</ele><time>2026-05-02T11:46:36Z</time></trkpt><trkpt lat="42.629656579585195" lon="12.590893854285687"><ele>962.5714285714286</ele><time>2026-05-02T11:46:37Z</time></trkpt><trkpt lat="42.629659927272336" lon="12.590799964140787"><ele>962.7142857142858</ele><time>2026-05-02T11:46:38Z</time></trkpt><trkpt lat="42.62965155630332" lon="12.590690328009357"><ele>962.857142857143</ele><time>2026-05-02T11:46:39Z</time></trkpt><trkpt lat="42.62964446221402" lon="12.590589836056516"><ele>963.0000000000001</ele><time>2026-05-02T11:46:40Z</time></trkpt><trkpt lat="42.62962179751576" lon="12.59050465777842"><ele>963.0</ele><time>2026-05-02T11:46:41Z</time></trkpt><trkpt lat="42.62960422381609" lon="12.590408597012983"><ele>963.0</ele><time>2026-05-02T11:46:42Z</time></trkpt><trkpt lat="42.62959375407537" lon="12.590313192182643"><ele>963.0</ele><time>2026-05-02T11:46:43Z</time></trkpt><trkpt lat="42.629565221001776" lon="12.590140473130957"><ele>963.0</ele><time>2026-05-02T11:46:45Z</time></trkpt><trkpt lat="42.62954866571135" lon="12.589990334281921"><ele>963.0</ele><time>2026-05-02T11:46:47Z</time></trkpt><trkpt lat="42.62954889212421" lon="12.58985282671355"><ele>962.2</ele><time>2026-05-02T11:46:49Z</time></trkpt><trkpt lat="42.62959256627099" lon="12.589748319675092"><ele>961.4</ele><time>2026-05-02T11:46:51Z</time></trkpt><trkpt lat="42.62965795922194" lon="12.58967109530008"><ele>960.6000000000001</ele><time>2026-05-02T11:46:53Z</time></trkpt><trkpt lat="42.62973197644376" lon="12.589622315485322"><ele>959.8000000000001</ele><time>2026-05-02T11:46:55Z</time></trkpt><trkpt lat="42.62981667877513" lon="12.589578679378793"><ele>959.0</ele><time>2026-05-02T11:46:57Z</time></trkpt><trkpt lat="42.629932584982186" lon="12.589518404064638"><ele>956.6</ele><time>2026-05-02T11:46:59Z</time></trkpt><trkpt lat="42.63002865701356" lon="12.589452593733995"><ele>954.2</ele><time>2026-05-02T11:47:01Z</time></trkpt><trkpt lat="42.63012761144775" lon="12.589375616620968"><ele>951.8000000000001</ele><time>2026-05-02T11:47:03Z</time></trkpt><trkpt lat="42.63023288639053" lon="12.589307530532398"><ele>949.4000000000001</ele><time>2026-05-02T11:47:05Z</time></trkpt><trkpt lat="42.63030175610046" lon="12.589271019807754"><ele>947.0</ele><time>2026-05-02T11:47:07Z</time></trkpt><trkpt lat="42.63040637183815" lon="12.589210931543269"><ele>947.0</ele><time>2026-05-02T11:47:09Z</time></trkpt><trkpt lat="42.63054219354872" lon="12.589153168206256"><ele>947.0</ele><time>2026-05-02T11:47:11Z</time></trkpt><trkpt lat="42.630639195969735" lon="12.589161599677627"><ele>947.0</ele><time>2026-05-02T11:47:12Z</time></trkpt><trkpt lat="42.63072328628815" lon="12.589152440910366"><ele>947.0</ele><time>2026-05-02T11:47:13Z</time></trkpt><trkpt lat="42.63078608747468" lon="12.589145600859327"><ele>947.0</ele><time>2026-05-02T11:47:14Z</time></trkpt><trkpt lat="42.630913658307925" lon="12.589110616420964"><ele>947.0</ele><time>2026-05-02T11:47:16Z</time></trkpt><trkpt lat="42.63097127792219" lon="12.589056223673815"><ele>947.0</ele><time>2026-05-02T11:47:17Z</time></trkpt><trkpt lat="42.631037890662235" lon="12.588961105130803"><ele>947.0</ele><time>2026-05-02T11:47:19Z</time></trkpt><trkpt lat="42.63111071153164" lon="12.588883629689201"><ele>947.0</ele><time>2026-05-02T11:47:21Z</time></trkpt><trkpt lat="42.631189811032634" lon="12.588827468631758"><ele>947.0</ele><time>2026-05-02T11:47:23Z</time></trkpt><trkpt lat="42.63129661483285" lon="12.588783716513426"><ele>947.0000000000001</ele><time>2026-05-02T11:47:25Z</time></trkpt><trkpt lat="42.63136065611309" lon="12.58878025174785"><ele>947.0</ele><time>2026-05-02T11:47:26Z</time></trkpt><trkpt lat="42.63144320092361" lon="12.588754950281066"><ele>947.0</ele><time>2026-05-02T11:47:27Z</time></trkpt><trkpt lat="42.63152527989768" lon="12.588751756137864"><ele>947.0</ele><time>2026-05-02T11:47:28Z</time></trkpt><trkpt lat="42.631613868726006" lon="12.588758931190998"><ele>947.0000000000001</ele><time>2026-05-02T11:47:29Z</time></trkpt><trkpt lat="42.63170444993635" lon="12.588755575207093"><ele>947.0</ele><time>2026-05-02T11:47:30Z</time></trkpt><trkpt lat="42.631774557616296" lon="12.588760059698485"><ele>947.0</ele><time>2026-05-02T11:47:31Z</time></trkpt><trkpt lat="42.63189816899952" lon="12.588752881717893"><ele>947.0</ele><time>2026-05-02T11:47:33Z</time></trkpt><trkpt lat="42.63200487370149" lon="12.588739209193404"><ele>947.0</ele><time>2026-05-02T11:47:35Z</time></trkpt><trkpt lat="42.632124953857335" lon="12.588759436792108"><ele>947.0</ele><time>2026-05-02T11:47:37Z</time></trkpt><trkpt lat="42.63225453054575" lon="12.588769433295704"><ele>945.6</ele><time>2026-05-02T11:47:39Z</time></trkpt><trkpt lat="42.63235503548526" lon="12.5887716879533"><ele>944.2</ele><time>2026-05-02T11:47:41Z</time></trkpt><trkpt lat="42.632426126456004" lon="12.588783616801685"><ele>942.8</ele><time>2026-05-02T11:47:42Z</time></trkpt><trkpt lat="42.63255486396545" lon="12.588810671640463"><ele>941.4</ele><time>2026-05-02T11:47:44Z</time></trkpt><trkpt lat="42.63266737064957" lon="12.588832267159747"><ele>940.0</ele><time>2026-05-02T11:47:46Z</time></trkpt><trkpt lat="42.63278618850905" lon="12.588829905478445"><ele>938.2</ele><time>2026-05-02T11:47:48Z</time></trkpt><trkpt lat="42.63287588504622" lon="12.588798289388063"><ele>936.4</ele><time>2026-05-02T11:47:50Z</time></trkpt><trkpt lat="42.632981239172274" lon="12.58875333968594"><ele>934.5999999999999</ele><time>2026-05-02T11:47:52Z</time></trkpt><trkpt lat="42.63305363068448" lon="12.588644194327847"><ele>932.8</ele><time>2026-05-02T11:47:54Z</time></trkpt><trkpt lat="42.633109191377116" lon="12.58849601491762"><ele>931.0</ele><time>2026-05-02T11:47:56Z</time></trkpt><trkpt lat="42.63313852976091" lon="12.588356048568636"><ele>929.8</ele><time>2026-05-02T11:47:57Z</time></trkpt><trkpt lat="42.63315195209702" lon="12.588207266005943"><ele>928.5999999999999</ele><time>2026-05-02T11:47:58Z</time></trkpt><trkpt lat="42.63319283266357" lon="12.588069802090132"><ele>927.4</ele><time>2026-05-02T11:47:59Z</time></trkpt><trkpt lat="42.63324348679053" lon="12.587961499656531"><ele>926.2</ele><time>2026-05-02T11:48:00Z</time></trkpt><trkpt lat="42.633281560889245" lon="12.5878491476826"><ele>925.0</ele><time>2026-05-02T11:48:01Z</time></trkpt><trkpt lat="42.633320290312106" lon="12.587738925800975"><ele>925.0</ele><time>2026-05-02T11:48:02Z</time></trkpt><trkpt lat="42.63335192116636" lon="12.587616080554067"><ele>925.0</ele><time>2026-05-02T11:48:03Z</time></trkpt><trkpt lat="42.63338822903821" lon="12.58752471699472"><ele>925.0</ele><time>2026-05-02T11:48:04Z</time></trkpt><trkpt lat="42.633468209585644" lon="12.587405768714605"><ele>925.0</ele><time>2026-05-02T11:48:06Z</time></trkpt><trkpt lat="42.63354690067525" lon="12.58725012544301"><ele>925.0</ele><time>2026-05-02T11:48:07.999Z</time></trkpt><trkpt lat="42.63362004960453" lon="12.587152589330957"><ele>923.5</ele><time>2026-05-02T11:48:09.999Z</time></trkpt><trkpt lat="42.63367100055045" lon="12.587100985290038"><ele>922.0</ele><time>2026-05-02T11:48:10.999Z</time></trkpt><trkpt lat="42.63373097476401" lon="12.586981536499932"><ele>920.5</ele><time>2026-05-02T11:48:12.999Z</time></trkpt><trkpt lat="42.63379732208178" lon="12.586877610773799"><ele>919.0</ele><time>2026-05-02T11:48:14.999Z</time></trkpt><trkpt lat="42.634191324429544" lon="12.586227893360165"><ele>916.0</ele><time>2026-05-02T11:48:16.999Z</time></trkpt><trkpt lat="42.63418817697145" lon="12.587014784515187"><ele>915.9999999999999</ele><time>2026-05-02T11:48:17.999Z</time></trkpt><trkpt lat="42.63426152020828" lon="12.587019800126082"><ele>916.0</ele><time>2026-05-02T11:48:18.999Z</time></trkpt><trkpt lat="42.6343450764247" lon="12.587023402009715"><ele>916.0</ele><time>2026-05-02T11:48:19.999Z</time></trkpt><trkpt lat="42.63442222888527" lon="12.587037315084928"><ele>916.0</ele><time>2026-05-02T11:48:20.999Z</time></trkpt><trkpt lat="42.63449582112889" lon="12.58706053252872"><ele>915.9999999999999</ele><time>2026-05-02T11:48:21.999Z</time></trkpt><trkpt lat="42.63458519143853" lon="12.587081381752279"><ele>916.0</ele><time>2026-05-02T11:48:22.999Z</time></trkpt><trkpt lat="42.63465342389935" lon="12.587104446913102"><ele>915.1999999999999</ele><time>2026-05-02T11:48:23.999Z</time></trkpt><trkpt lat="42.63475796589923" lon="12.587139840352933"><ele>914.3999999999999</ele><time>2026-05-02T11:48:25.999Z</time></trkpt><trkpt lat="42.63486191045545" lon="12.587198965888577"><ele>913.6</ele><time>2026-05-02T11:48:27.999Z</time></trkpt><trkpt lat="42.634943873377814" lon="12.587299006092671"><ele>912.8</ele><time>2026-05-02T11:48:29.999Z</time></trkpt><trkpt lat="42.63501719732811" lon="12.587348684394875"><ele>912.0</ele><time>2026-05-02T11:48:31.999Z</time></trkpt><trkpt lat="42.63507095860879" lon="12.587419784418136"><ele>912.0</ele><time>2026-05-02T11:48:33.999Z</time></trkpt><trkpt lat="42.635121362619614" lon="12.587504325672047"><ele>912.0</ele><time>2026-05-02T11:48:35.999Z</time></trkpt><trkpt lat="42.63518201749498" lon="12.587587717723066"><ele>912.0</ele><time>2026-05-02T11:48:38.999Z</time></trkpt><trkpt lat="42.6352283770929" lon="12.5876511161868"><ele>912.0</ele><time>2026-05-02T11:48:40.999Z</time></trkpt><trkpt lat="42.63530106606864" lon="12.587731483456082"><ele>912.0</ele><time>2026-05-02T11:48:44Z</time></trkpt><trkpt lat="42.6353439907571" lon="12.587807374842786"><ele>912.0</ele><time>2026-05-02T11:48:46Z</time></trkpt><trkpt lat="42.63539774941657" lon="12.587884214843234"><ele>908.6666666666666</ele><time>2026-05-02T11:48:49Z</time></trkpt><trkpt lat="42.63545557124125" lon="12.587939906708007"><ele>905.3333333333333</ele><time>2026-05-02T11:48:53Z</time></trkpt><trkpt lat="42.635494363190155" lon="12.58802446787925"><ele>902.0</ele><time>2026-05-02T11:48:58Z</time></trkpt><trkpt lat="42.63554408480595" lon="12.588114462094666"><ele>898.6666666666666</ele><time>2026-05-02T11:49:01Z</time></trkpt><trkpt lat="42.6355754444358" lon="12.588194995315291"><ele>895.3333333333333</ele><time>2026-05-02T11:49:06Z</time></trkpt><trkpt lat="42.63560622805672" lon="12.58830221418518"><ele>892.0</ele><time>2026-05-02T11:49:09Z</time></trkpt><trkpt lat="42.63564462287905" lon="12.588385439516214"><ele>892.0</ele><time>2026-05-02T11:49:12Z</time></trkpt><trkpt lat="42.6356959250577" lon="12.588441722689513"><ele>892.0</ele><time>2026-05-02T11:49:15Z</time></trkpt><trkpt lat="42.635754359746294" lon="12.588496990088192"><ele>892.0</ele><time>2026-05-02T11:49:19Z</time></trkpt><trkpt lat="42.63579339534604" lon="12.588579997474431"><ele>892.0</ele><time>2026-05-02T11:49:24Z</time></trkpt><trkpt lat="42.63584136405211" lon="12.588647035789348"><ele>892.0</ele><time>2026-05-02T11:49:28Z</time></trkpt><trkpt lat="42.63589031474262" lon="12.588712253507055"><ele>892.0</ele><time>2026-05-02T11:49:33Z</time></trkpt><trkpt lat="42.63593806160017" lon="12.588774830491449"><ele>892.0</ele><time>2026-05-02T11:49:40Z</time></trkpt><trkpt lat="42.635987790387034" lon="12.588839669002429"><ele>891.3333333333333</ele><time>2026-05-02T11:49:45Z</time></trkpt><trkpt lat="42.6360423450939" lon="12.588910009762214"><ele>890.6666666666666</ele><time>2026-05-02T11:49:49Z</time></trkpt><trkpt lat="42.636096219152535" lon="12.588979032006163"><ele>890.0</ele><time>2026-05-02T11:49:54Z</time></trkpt><trkpt lat="42.63614742123854" lon="12.58904159774411"><ele>889.3333333333333</ele><time>2026-05-02T11:50:11Z</time></trkpt><trkpt lat="42.6362102328404" lon="12.589118349593635"><ele>888.6666666666666</ele><time>2026-05-02T11:50:14.999Z</time></trkpt><trkpt lat="42.63626347087252" lon="12.589182988298472"><ele>888.0</ele><time>2026-05-02T11:50:26.999Z</time></trkpt><trkpt lat="42.6363390653407" lon="12.589255725108409"><ele>883.0</ele><time>2026-05-02T11:50:29.999Z</time></trkpt><trkpt lat="42.636394380444415" lon="12.589313012636074"><ele>878.0</ele><time>2026-05-02T11:50:31.999Z</time></trkpt><trkpt lat="42.63645868999389" lon="12.589402165797853"><ele>873.0</ele><time>2026-05-02T11:50:33.999Z</time></trkpt><trkpt lat="42.63654715343548" lon="12.589482192053788"><ele>868.0</ele><time>2026-05-02T11:50:35.999Z</time></trkpt><trkpt lat="42.6366494092903" lon="12.589540713011434"><ele>863.0</ele><time>2026-05-02T11:50:37.999Z</time></trkpt><trkpt lat="42.63676014720453" lon="12.589591999214967"><ele>863.0</ele><time>2026-05-02T11:50:39.999Z</time></trkpt><trkpt lat="42.63685149118594" lon="12.589635725072354"><ele>863.0</ele><time>2026-05-02T11:50:41.999Z</time></trkpt><trkpt lat="42.636932758367735" lon="12.589751069438048"><ele>863.0</ele><time>2026-05-02T11:50:43.999Z</time></trkpt><trkpt lat="42.63698802889545" lon="12.589826013026345"><ele>863.0</ele><time>2026-05-02T11:50:44.999Z</time></trkpt><trkpt lat="42.63704690324827" lon="12.589907945556464"><ele>863.0</ele><time>2026-05-02T11:50:45.999Z</time></trkpt><trkpt lat="42.63710393710252" lon="12.589975461751143"><ele>860.6666666666667</ele><time>2026-05-02T11:50:46.999Z</time></trkpt><trkpt lat="42.637163524999266" lon="12.590031732072886"><ele>858.3333333333334</ele><time>2026-05-02T11:50:48Z</time></trkpt><trkpt lat="42.637225220259786" lon="12.590079894134384"><ele>856.0</ele><time>2026-05-02T11:50:49Z</time></trkpt><trkpt lat="42.63729782789554" lon="12.590126842009042"><ele>853.6666666666667</ele><time>2026-05-02T11:50:50Z</time></trkpt><trkpt lat="42.63740202091545" lon="12.590197497391802"><ele>851.3333333333334</ele><time>2026-05-02T11:50:52Z</time></trkpt><trkpt lat="42.63747313352879" lon="12.590269377342112"><ele>849.0</ele><time>2026-05-02T11:50:54Z</time></trkpt><trkpt lat="42.63755386251438" lon="12.59031808533118"><ele>847.6</ele><time>2026-05-02T11:50:56Z</time></trkpt><trkpt lat="42.637654078651806" lon="12.59036412272999"><ele>846.2</ele><time>2026-05-02T11:50:58Z</time></trkpt><trkpt lat="42.63772881582011" lon="12.590388532597027"><ele>844.8000000000001</ele><time>2026-05-02T11:50:59Z</time></trkpt><trkpt lat="42.63782371308243" lon="12.590416719320572"><ele>843.4000000000001</ele><time>2026-05-02T11:51:01Z</time></trkpt><trkpt lat="42.63794544406191" lon="12.59045408068687"><ele>842.0</ele><time>2026-05-02T11:51:03Z</time></trkpt><trkpt lat="42.63801812426463" lon="12.590484793766237"><ele>841.5000000000001</ele><time>2026-05-02T11:51:05Z</time></trkpt><trkpt lat="42.63811656273644" lon="12.590539796109939"><ele>841.0</ele><time>2026-05-02T11:51:07Z</time></trkpt><trkpt lat="42.6381782510127" lon="12.59057226702359"><ele>840.5</ele><time>2026-05-02T11:51:10Z</time></trkpt><trkpt lat="42.63825630867842" lon="12.590637104180939"><ele>840.0</ele><time>2026-05-02T11:51:12Z</time></trkpt><trkpt lat="42.63832824618333" lon="12.590653777868056"><ele>839.5000000000001</ele><time>2026-05-02T11:51:14Z</time></trkpt><trkpt lat="42.63839935043227" lon="12.590657070945715"><ele>839.0</ele><time>2026-05-02T11:51:16Z</time></trkpt><trkpt lat="42.63847991610558" lon="12.59067791624859"><ele>839.0000000000001</ele><time>2026-05-02T11:51:18Z</time></trkpt><trkpt lat="42.638510805219774" lon="12.590774047928054"><ele>839.0</ele><time>2026-05-02T11:51:21Z</time></trkpt><trkpt lat="42.6384367574903" lon="12.590766097305647"><ele>839.0</ele><time>2026-05-02T11:51:26Z</time></trkpt><trkpt lat="42.638362353920115" lon="12.590792662133445"><ele>839.0</ele><time>2026-05-02T11:51:29Z</time></trkpt><trkpt lat="42.638274614800366" lon="12.590821260375172"><ele>839.0000000000001</ele><time>2026-05-02T11:51:32Z</time></trkpt><trkpt lat="42.63818292291962" lon="12.590833179430087"><ele>839.0</ele><time>2026-05-02T11:51:50Z</time></trkpt><trkpt lat="42.63808593171906" lon="12.590851059988644"><ele>839.0</ele><time>2026-05-02T11:51:52Z</time></trkpt><trkpt lat="42.63798427193869" lon="12.590866775195318"><ele>839.0</ele><time>2026-05-02T11:52:00Z</time></trkpt><trkpt lat="42.63787025430039" lon="12.590882136852493"><ele>839.0</ele><time>2026-05-02T11:52:02Z</time></trkpt><trkpt lat="42.63773243469033" lon="12.590899683729313"><ele>839.0</ele><time>2026-05-02T11:52:04Z</time></trkpt><trkpt lat="42.637660324301464" lon="12.590912452595337"><ele>839.0</ele><time>2026-05-02T11:52:05Z</time></trkpt><trkpt lat="42.63754910198358" lon="12.590934596854353"><ele>839.6</ele><time>2026-05-02T11:52:07Z</time></trkpt><trkpt lat="42.63748165632935" lon="12.590948025229423"><ele>840.2</ele><time>2026-05-02T11:52:08Z</time></trkpt><trkpt lat="42.63734776744495" lon="12.590957627174053"><ele>840.8000000000001</ele><time>2026-05-02T11:52:10Z</time></trkpt><trkpt lat="42.637281347870406" lon="12.590951037436467"><ele>841.4000000000001</ele><time>2026-05-02T11:52:11Z</time></trkpt><trkpt lat="42.637204477702205" lon="12.590965273125107"><ele>842.0</ele><time>2026-05-02T11:52:12Z</time></trkpt><trkpt lat="42.63710112579348" lon="12.591004671396982"><ele>842.0</ele><time>2026-05-02T11:52:13.999Z</time></trkpt><trkpt lat="42.637045422792" lon="12.591164097438062"><ele>842.0</ele><time>2026-05-02T11:52:15.999Z</time></trkpt><trkpt lat="42.637020490127" lon="12.591246827884074"><ele>842.0</ele><time>2026-05-02T11:52:17.999Z</time></trkpt><trkpt lat="42.63703227719743" lon="12.59139521218343"><ele>842.0</ele><time>2026-05-02T11:52:18.999Z</time></trkpt><trkpt lat="42.6371028762631" lon="12.591498888432167"><ele>842.0</ele><time>2026-05-02T11:52:19.999Z</time></trkpt><trkpt lat="42.63719939717426" lon="12.591548217738254"><ele>842.3333333333334</ele><time>2026-05-02T11:52:20.999Z</time></trkpt><trkpt lat="42.637259514371" lon="12.591581490902906"><ele>842.6666666666667</ele><time>2026-05-02T11:52:21.999Z</time></trkpt><trkpt lat="42.63735133298151" lon="12.591656018880073"><ele>843.0</ele><time>2026-05-02T11:52:23.999Z</time></trkpt><trkpt lat="42.63742230032187" lon="12.59170542002407"><ele>843.3333333333333</ele><time>2026-05-02T11:52:24.999Z</time></trkpt><trkpt lat="42.63748710693725" lon="12.59175053259242"><ele>843.6666666666666</ele><time>2026-05-02T11:52:25.999Z</time></trkpt><trkpt lat="42.63755352282939" lon="12.59179676552167"><ele>844.0</ele><time>2026-05-02T11:52:26.999Z</time></trkpt><trkpt lat="42.63765793113482" lon="12.591880638667682"><ele>844.0</ele><time>2026-05-02T11:52:28.999Z</time></trkpt><trkpt lat="42.6377203541332" lon="12.591932280441501"><ele>844.0</ele><time>2026-05-02T11:52:30.999Z</time></trkpt><trkpt lat="42.63780783117394" lon="12.591986265012101"><ele>844.0</ele><time>2026-05-02T11:52:32.999Z</time></trkpt><trkpt lat="42.63824086798323" lon="12.591484548376844"><ele>841.6</ele><time>2026-05-02T11:52:34.999Z</time></trkpt><trkpt lat="42.63832763910772" lon="12.59150185627294"><ele>839.2</ele><time>2026-05-02T11:52:35.999Z</time></trkpt><trkpt lat="42.63843924798485" lon="12.591575923910764"><ele>836.8000000000001</ele><time>2026-05-02T11:52:37.999Z</time></trkpt><trkpt lat="42.63855398768179" lon="12.591637919380306"><ele>834.4000000000001</ele><time>2026-05-02T11:52:39.999Z</time></trkpt><trkpt lat="42.63862684543241" lon="12.59169076924583"><ele>832.0</ele><time>2026-05-02T11:52:40.999Z</time></trkpt><trkpt lat="42.63869054493178" lon="12.591757892979542"><ele>830.6</ele><time>2026-05-02T11:52:42.999Z</time></trkpt><trkpt lat="42.63876864109702" lon="12.591761059913615"><ele>829.2</ele><time>2026-05-02T11:52:44.999Z</time></trkpt><trkpt lat="42.63885754204156" lon="12.591786550523441"><ele>827.8</ele><time>2026-05-02T11:52:46.999Z</time></trkpt><trkpt lat="42.63893146122126" lon="12.591818003842869"><ele>826.4</ele><time>2026-05-02T11:52:47.999Z</time></trkpt><trkpt lat="42.639056583380366" lon="12.59188849156383"><ele>825.0</ele><time>2026-05-02T11:52:49.999Z</time></trkpt><trkpt lat="42.63911428040016" lon="12.591943487779316"><ele>824.0</ele><time>2026-05-02T11:52:50.999Z</time></trkpt><trkpt lat="42.63921133066813" lon="12.59205191810969"><ele>823.0</ele><time>2026-05-02T11:52:52.999Z</time></trkpt><trkpt lat="42.63928125481341" lon="12.592074497380047"><ele>822.0</ele><time>2026-05-02T11:52:54Z</time></trkpt><trkpt lat="42.6393537591931" lon="12.592086413568149"><ele>821.0</ele><time>2026-05-02T11:52:55Z</time></trkpt><trkpt lat="42.63942260731535" lon="12.592110172446207"><ele>820.0</ele><time>2026-05-02T11:52:56Z</time></trkpt><trkpt lat="42.63951087121136" lon="12.592217705545586"><ele>816.9999999999999</ele><time>2026-05-02T11:52:58Z</time></trkpt><trkpt lat="42.63956735701137" lon="12.592300170947306"><ele>814.0</ele><time>2026-05-02T11:52:59Z</time></trkpt><trkpt lat="42.6396341127923" lon="12.592334543287711"><ele>811.0</ele><time>2026-05-02T11:53:00Z</time></trkpt><trkpt lat="42.63971045431238" lon="12.592377497498719"><ele>808.0</ele><time>2026-05-02T11:53:01Z</time></trkpt><trkpt lat="42.639783252774535" lon="12.592418245663819"><ele>804.9999999999999</ele><time>2026-05-02T11:53:02Z</time></trkpt><trkpt lat="42.63985115695954" lon="12.592486912176762"><ele>802.0</ele><time>2026-05-02T11:53:03Z</time></trkpt><trkpt lat="42.639913017655914" lon="12.592561535847267"><ele>801.9999999999999</ele><time>2026-05-02T11:53:04Z</time></trkpt><trkpt lat="42.639973609147354" lon="12.592606660884282"><ele>802.0</ele><time>2026-05-02T11:53:05Z</time></trkpt><trkpt lat="42.64004637918976" lon="12.592665088251453"><ele>802.0</ele><time>2026-05-02T11:53:06Z</time></trkpt><trkpt lat="42.64017474186325" lon="12.59274053559505"><ele>802.0</ele><time>2026-05-02T11:53:08Z</time></trkpt><trkpt lat="42.640247723572344" lon="12.59278791801688"><ele>801.9999999999999</ele><time>2026-05-02T11:53:09Z</time></trkpt><trkpt lat="42.64031477662964" lon="12.592828881942463"><ele>802.0</ele><time>2026-05-02T11:53:10Z</time></trkpt><trkpt lat="42.640372383376736" lon="12.592870476306784"><ele>800.1666666666666</ele><time>2026-05-02T11:53:11Z</time></trkpt><trkpt lat="42.64044514037028" lon="12.59288837719769"><ele>798.3333333333333</ele><time>2026-05-02T11:53:12Z</time></trkpt><trkpt lat="42.64051333903484" lon="12.592872205982433"><ele>796.5</ele><time>2026-05-02T11:53:13Z</time></trkpt><trkpt lat="42.64060240745679" lon="12.592871105262065"><ele>794.6666666666667</ele><time>2026-05-02T11:53:15Z</time></trkpt><trkpt lat="42.640710741098765" lon="12.592905546586987"><ele>792.8333333333334</ele><time>2026-05-02T11:53:17Z</time></trkpt><trkpt lat="42.64081411087257" lon="12.592908789307886"><ele>791.0</ele><time>2026-05-02T11:53:18Z</time></trkpt><trkpt lat="42.64091871877036" lon="12.592915380110359"><ele>791.0</ele><time>2026-05-02T11:53:19Z</time></trkpt><trkpt lat="42.641020052715675" lon="12.592913745965623"><ele>791.0</ele><time>2026-05-02T11:53:20Z</time></trkpt><trkpt lat="42.64112986095207" lon="12.592884903864165"><ele>791.0</ele><time>2026-05-02T11:53:22Z</time></trkpt><trkpt lat="42.64121071507488" lon="12.592853656484085"><ele>791.0</ele><time>2026-05-02T11:53:23Z</time></trkpt><trkpt lat="42.64131167015639" lon="12.592825600903918"><ele>791.0</ele><time>2026-05-02T11:53:24Z</time></trkpt><trkpt lat="42.64138706993844" lon="12.592798201168904"><ele>787.8333333333334</ele><time>2026-05-02T11:53:25Z</time></trkpt><trkpt lat="42.641459949673425" lon="12.592778737178143"><ele>784.6666666666667</ele><time>2026-05-02T11:53:26Z</time></trkpt><trkpt lat="42.64153511633478" lon="12.59274501408258"><ele>781.5</ele><time>2026-05-02T11:53:27Z</time></trkpt><trkpt lat="42.64162741724306" lon="12.592734769978454"><ele>778.3333333333333</ele><time>2026-05-02T11:53:28Z</time></trkpt><trkpt lat="42.64172850294893" lon="12.592724875194305"><ele>775.1666666666666</ele><time>2026-05-02T11:53:29Z</time></trkpt><trkpt lat="42.64181187209213" lon="12.592745443037671"><ele>772.0</ele><time>2026-05-02T11:53:30Z</time></trkpt><trkpt lat="42.6418954425635" lon="12.592754428141928"><ele>768.9999999999999</ele><time>2026-05-02T11:53:31Z</time></trkpt><trkpt lat="42.64197963328877" lon="12.592743883911092"><ele>766.0</ele><time>2026-05-02T11:53:32Z</time></trkpt><trkpt lat="42.64206627140785" lon="12.592723639119026"><ele>763.0</ele><time>2026-05-02T11:53:33Z</time></trkpt><trkpt lat="42.642142843416075" lon="12.592704995141524"><ele>760.0</ele><time>2026-05-02T11:53:34Z</time></trkpt><trkpt lat="42.642217176932014" lon="12.592682631533567"><ele>757.0</ele><time>2026-05-02T11:53:35Z</time></trkpt><trkpt lat="42.64229350301173" lon="12.592655675886906"><ele>754.0</ele><time>2026-05-02T11:53:36Z</time></trkpt><trkpt lat="42.64238253589916" lon="12.592628839211839"><ele>754.0</ele><time>2026-05-02T11:53:37Z</time></trkpt><trkpt lat="42.64247745663268" lon="12.592608166496884"><ele>754.0</ele><time>2026-05-02T11:53:38Z</time></trkpt><trkpt lat="42.6425716696573" lon="12.592606512438078"><ele>754.0</ele><time>2026-05-02T11:53:39Z</time></trkpt><trkpt lat="42.642654871174535" lon="12.592556781319487"><ele>754.0</ele><time>2026-05-02T11:53:40Z</time></trkpt><trkpt lat="42.642721635595336" lon="12.592503375120156"><ele>754.0</ele><time>2026-05-02T11:53:41Z</time></trkpt><trkpt lat="42.64278349349488" lon="12.592434394096895"><ele>754.0</ele><time>2026-05-02T11:53:42Z</time></trkpt><trkpt lat="42.64289857487169" lon="12.59241793619978"><ele>751.8333333333334</ele><time>2026-05-02T11:53:43Z</time></trkpt><trkpt lat="42.64297668530961" lon="12.59236644756339"><ele>749.6666666666667</ele><time>2026-05-02T11:53:44Z</time></trkpt><trkpt lat="42.64306963453312" lon="12.592305663386748"><ele>747.5</ele><time>2026-05-02T11:53:45Z</time></trkpt><trkpt lat="42.643139921578815" lon="12.592243742185769"><ele>745.3333333333334</ele><time>2026-05-02T11:53:46Z</time></trkpt><trkpt lat="42.643187434298056" lon="12.592169646435757"><ele>743.1666666666666</ele><time>2026-05-02T11:53:47Z</time></trkpt><trkpt lat="42.643233889873336" lon="12.592107397233137"><ele>741.0</ele><time>2026-05-02T11:53:48Z</time></trkpt><trkpt lat="42.64325097131793" lon="12.591986579233598"><ele>740.0</ele><time>2026-05-02T11:53:50Z</time></trkpt><trkpt lat="42.64324449059348" lon="12.59188881564818"><ele>739.0</ele><time>2026-05-02T11:53:51Z</time></trkpt><trkpt lat="42.64322391405128" lon="12.591793679935789"><ele>738.0</ele><time>2026-05-02T11:53:52Z</time></trkpt><trkpt lat="42.643196616569334" lon="12.591689006780944"><ele>737.0</ele><time>2026-05-02T11:53:53Z</time></trkpt><trkpt lat="42.64320065270237" lon="12.591570342265603"><ele>736.0</ele><time>2026-05-02T11:53:54Z</time></trkpt><trkpt lat="42.64321382829468" lon="12.591459099222522"><ele>735.0</ele><time>2026-05-02T11:53:55Z</time></trkpt><trkpt lat="42.643246884746304" lon="12.591276788892394"><ele>733.8</ele><time>2026-05-02T11:53:57Z</time></trkpt><trkpt lat="42.64324855579311" lon="12.591088760472198"><ele>732.6</ele><time>2026-05-02T11:53:59Z</time></trkpt><trkpt lat="42.643254225179284" lon="12.590988557427567"><ele>731.4000000000001</ele><time>2026-05-02T11:54:00Z</time></trkpt><trkpt lat="42.643254432278745" lon="12.590892415723516"><ele>730.2</ele><time>2026-05-02T11:54:01Z</time></trkpt><trkpt lat="42.64328459435766" lon="12.59074518501422"><ele>729.0</ele><time>2026-05-02T11:54:03Z</time></trkpt><trkpt lat="42.64329381243709" lon="12.590656105551115"><ele>729.0</ele><time>2026-05-02T11:54:04Z</time></trkpt><trkpt lat="42.64328765013423" lon="12.590562317646771"><ele>729.0</ele><time>2026-05-02T11:54:05Z</time></trkpt><trkpt lat="42.643278006930665" lon="12.59045837088249"><ele>729.0</ele><time>2026-05-02T11:54:06Z</time></trkpt><trkpt lat="42.64327404648536" lon="12.590359051539053"><ele>729.0</ele><time>2026-05-02T11:54:07Z</time></trkpt><trkpt lat="42.643245874743464" lon="12.590253600637174"><ele>729.0</ele><time>2026-05-02T11:54:08Z</time></trkpt><trkpt lat="42.64322265832415" lon="12.590152479196687"><ele>729.0</ele><time>2026-05-02T11:54:09Z</time></trkpt><trkpt lat="42.64319539607645" lon="12.59006944520708"><ele>729.0</ele><time>2026-05-02T11:54:10Z</time></trkpt><trkpt lat="42.643151970582394" lon="12.589995608813346"><ele>727.8000000000001</ele><time>2026-05-02T11:54:11Z</time></trkpt><trkpt lat="42.64314790804472" lon="12.589882867294026"><ele>726.6</ele><time>2026-05-02T11:54:12Z</time></trkpt><trkpt lat="42.643158117294426" lon="12.589738282109366"><ele>725.4</ele><time>2026-05-02T11:54:13Z</time></trkpt><trkpt lat="42.643129897955724" lon="12.589602515266684"><ele>724.2</ele><time>2026-05-02T11:54:15Z</time></trkpt><trkpt lat="42.64313550005703" lon="12.58949254180884"><ele>723.0</ele><time>2026-05-02T11:54:16Z</time></trkpt><trkpt lat="42.64314932806101" lon="12.589373113519075"><ele>721.8</ele><time>2026-05-02T11:54:17Z</time></trkpt><trkpt lat="42.64315321309485" lon="12.589256090538328"><ele>720.5999999999999</ele><time>2026-05-02T11:54:18Z</time></trkpt><trkpt lat="42.64316975360964" lon="12.589130083784584"><ele>719.4000000000001</ele><time>2026-05-02T11:54:19Z</time></trkpt><trkpt lat="42.6431800776732" lon="12.588996640995942"><ele>718.2</ele><time>2026-05-02T11:54:20Z</time></trkpt><trkpt lat="42.64316956657599" lon="12.588867154588922"><ele>717.0</ele><time>2026-05-02T11:54:21Z</time></trkpt><trkpt lat="42.64315416776926" lon="12.58872147341016"><ele>716.0</ele><time>2026-05-02T11:54:21.999Z</time></trkpt><trkpt lat="42.64313436201223" lon="12.588553276926266"><ele>715.0</ele><time>2026-05-02T11:54:22.999Z</time></trkpt><trkpt lat="42.64312244877476" lon="12.588401844122481"><ele>714.0</ele><time>2026-05-02T11:54:23.999Z</time></trkpt><trkpt lat="42.64311219311271" lon="12.588247625639141"><ele>713.0</ele><time>2026-05-02T11:54:24.999Z</time></trkpt><trkpt lat="42.64310865654095" lon="12.588116732223844"><ele>712.0</ele><time>2026-05-02T11:54:25.999Z</time></trkpt><trkpt lat="42.64310699256689" lon="12.587981990621458"><ele>711.0</ele><time>2026-05-02T11:54:26.999Z</time></trkpt><trkpt lat="42.64310393132014" lon="12.58783463595812"><ele>710.0</ele><time>2026-05-02T11:54:27.999Z</time></trkpt><trkpt lat="42.64309790351531" lon="12.587705944194298"><ele>709.0</ele><time>2026-05-02T11:54:28.999Z</time></trkpt><trkpt lat="42.64306700737983" lon="12.587588684996033"><ele>708.0</ele><time>2026-05-02T11:54:29.999Z</time></trkpt><trkpt lat="42.64307056697853" lon="12.587452869922542"><ele>707.0</ele><time>2026-05-02T11:54:30.999Z</time></trkpt><trkpt lat="42.643074716395255" lon="12.587285229462303"><ele>707.0</ele><time>2026-05-02T11:54:31.999Z</time></trkpt><trkpt lat="42.643096231758534" lon="12.587143755226913"><ele>707.0</ele><time>2026-05-02T11:54:32.999Z</time></trkpt><trkpt lat="42.64310850772276" lon="12.587020624049211"><ele>707.0</ele><time>2026-05-02T11:54:33.999Z</time></trkpt><trkpt lat="42.64313243683758" lon="12.586900670395725"><ele>707.0</ele><time>2026-05-02T11:54:34.999Z</time></trkpt><trkpt lat="42.64315941375299" lon="12.586797831687312"><ele>707.0</ele><time>2026-05-02T11:54:35.999Z</time></trkpt><trkpt lat="42.643168833789396" lon="12.586682310910469"><ele>706.0</ele><time>2026-05-02T11:54:36.999Z</time></trkpt><trkpt lat="42.643179905848875" lon="12.586568977273654"><ele>705.0</ele><time>2026-05-02T11:54:37.999Z</time></trkpt><trkpt lat="42.64316990309472" lon="12.58647389717441"><ele>704.0</ele><time>2026-05-02T11:54:38.999Z</time></trkpt><trkpt lat="42.64315168813091" lon="12.586378990657622"><ele>703.0</ele><time>2026-05-02T11:54:39.999Z</time></trkpt><trkpt lat="42.643124834035376" lon="12.586294483693841"><ele>702.0</ele><time>2026-05-02T11:54:40.999Z</time></trkpt><trkpt lat="42.643093474809696" lon="12.586166211550234"><ele>701.0</ele><time>2026-05-02T11:54:42.999Z</time></trkpt><trkpt lat="42.64305944950029" lon="12.586025686471272"><ele>699.6666666666666</ele><time>2026-05-02T11:54:44.999Z</time></trkpt><trkpt lat="42.64296623183213" lon="12.585961319449284"><ele>698.3333333333333</ele><time>2026-05-02T11:54:46.999Z</time></trkpt><trkpt lat="42.64290550206184" lon="12.585935536674619"><ele>697.0</ele><time>2026-05-02T11:54:47.999Z</time></trkpt><trkpt lat="42.64282256628195" lon="12.585873200832653"><ele>695.6666666666666</ele><time>2026-05-02T11:54:49.999Z</time></trkpt><trkpt lat="42.6428572335258" lon="12.585761005414135"><ele>694.3333333333334</ele><time>2026-05-02T11:54:51.999Z</time></trkpt><trkpt lat="42.642938652827645" lon="12.585699385300076"><ele>693.0</ele><time>2026-05-02T11:54:52.999Z</time></trkpt><trkpt lat="42.64305362413369" lon="12.585639901466964"><ele>693.0</ele><time>2026-05-02T11:54:54.999Z</time></trkpt><trkpt lat="42.6431170307861" lon="12.585596281767419"><ele>693.0</ele><time>2026-05-02T11:54:55.999Z</time></trkpt><trkpt lat="42.643181245752345" lon="12.585574072623368"><ele>693.0</ele><time>2026-05-02T11:54:56.999Z</time></trkpt><trkpt lat="42.64323777481375" lon="12.5855088961691"><ele>693.0</ele><time>2026-05-02T11:54:57.999Z</time></trkpt><trkpt lat="42.643272908622215" lon="12.585431939109705"><ele>693.0</ele><time>2026-05-02T11:54:58.999Z</time></trkpt><trkpt lat="42.64329970141094" lon="12.585319448943524"><ele>693.0</ele><time>2026-05-02T11:55:00Z</time></trkpt><trkpt lat="42.64332501704369" lon="12.585203925558973"><ele>692.5</ele><time>2026-05-02T11:55:01Z</time></trkpt><trkpt lat="42.64331866079296" lon="12.585110597210535"><ele>692.0</ele><time>2026-05-02T11:55:02Z</time></trkpt><trkpt lat="42.64332883138792" lon="12.585014596805514"><ele>691.5</ele><time>2026-05-02T11:55:03Z</time></trkpt><trkpt lat="42.64336025260562" lon="12.584917479216001"><ele>691.0</ele><time>2026-05-02T11:55:04Z</time></trkpt><trkpt lat="42.6433768288391" lon="12.584829676117518"><ele>690.5</ele><time>2026-05-02T11:55:05Z</time></trkpt><trkpt lat="42.6433982246244" lon="12.584722469471982"><ele>690.0</ele><time>2026-05-02T11:55:06Z</time></trkpt><trkpt lat="42.643398150199104" lon="12.584600323565487"><ele>689.2</ele><time>2026-05-02T11:55:07Z</time></trkpt><trkpt lat="42.643380847107835" lon="12.584485722051863"><ele>688.4</ele><time>2026-05-02T11:55:08Z</time></trkpt><trkpt lat="42.64334897205164" lon="12.584372770944814"><ele>687.5999999999999</ele><time>2026-05-02T11:55:09Z</time></trkpt><trkpt lat="42.64332329263461" lon="12.584248682560217"><ele>686.8</ele><time>2026-05-02T11:55:10Z</time></trkpt><trkpt lat="42.64331543192112" lon="12.58407915837982"><ele>686.0</ele><time>2026-05-02T11:55:11Z</time></trkpt><trkpt lat="42.64329848159918" lon="12.583902330722541"><ele>686.0</ele><time>2026-05-02T11:55:12Z</time></trkpt><trkpt lat="42.643294714620765" lon="12.583751538625526"><ele>686.0</ele><time>2026-05-02T11:55:13Z</time></trkpt><trkpt lat="42.643290903274874" lon="12.58361543812956"><ele>686.0</ele><time>2026-05-02T11:55:14Z</time></trkpt><trkpt lat="42.64328320936683" lon="12.583499481361144"><ele>686.0</ele><time>2026-05-02T11:55:15Z</time></trkpt><trkpt lat="42.6432722092135" lon="12.583397877735909"><ele>686.0</ele><time>2026-05-02T11:55:16Z</time></trkpt><trkpt lat="42.64328237995047" lon="12.583227612836753"><ele>685.6666666666666</ele><time>2026-05-02T11:55:18Z</time></trkpt><trkpt lat="42.64328784099013" lon="12.583124471702579"><ele>685.3333333333333</ele><time>2026-05-02T11:55:19Z</time></trkpt><trkpt lat="42.64327541733413" lon="12.583021875053163"><ele>685.0</ele><time>2026-05-02T11:55:20Z</time></trkpt><trkpt lat="42.64324580024084" lon="12.582934597240484"><ele>684.6666666666666</ele><time>2026-05-02T11:55:21Z</time></trkpt><trkpt lat="42.64321150640727" lon="12.58285545109422"><ele>684.3333333333334</ele><time>2026-05-02T11:55:22Z</time></trkpt><trkpt lat="42.6431950112417" lon="12.582683213565453"><ele>684.0</ele><time>2026-05-02T11:55:24Z</time></trkpt><trkpt lat="42.643192928409405" lon="12.582578351261006"><ele>683.0</ele><time>2026-05-02T11:55:25Z</time></trkpt><trkpt lat="42.643193382842036" lon="12.58245654852717"><ele>682.0</ele><time>2026-05-02T11:55:26Z</time></trkpt><trkpt lat="42.643190252940954" lon="12.58235472967596"><ele>681.0</ele><time>2026-05-02T11:55:27Z</time></trkpt><trkpt lat="42.643149584446675" lon="12.582217237614394"><ele>680.0</ele><time>2026-05-02T11:55:29Z</time></trkpt><trkpt lat="42.643131405934156" lon="12.582098037528883"><ele>679.0</ele><time>2026-05-02T11:55:31Z</time></trkpt><trkpt lat="42.643108823742914" lon="12.58197639010882"><ele>677.8000000000001</ele><time>2026-05-02T11:55:33Z</time></trkpt><trkpt lat="42.643047422062764" lon="12.581846078592912"><ele>676.6</ele><time>2026-05-02T11:55:35Z</time></trkpt><trkpt lat="42.64302919854221" lon="12.581749389096117"><ele>675.4</ele><time>2026-05-02T11:55:37Z</time></trkpt><trkpt lat="42.64308903749205" lon="12.581645041422174"><ele>674.2</ele><time>2026-05-02T11:55:40Z</time></trkpt><trkpt lat="42.643161655857334" lon="12.581632106113737"><ele>673.0</ele><time>2026-05-02T11:55:43Z</time></trkpt><trkpt lat="42.64326408795028" lon="12.581643016268956"><ele>673.0</ele><time>2026-05-02T11:56:48.999Z</time></trkpt><trkpt lat="42.64332735703288" lon="12.58161747429248"><ele>673.0</ele><time>2026-05-02T11:56:50.999Z</time></trkpt><trkpt lat="42.64338846037439" lon="12.581502389430447"><ele>673.0</ele><time>2026-05-02T11:56:52.999Z</time></trkpt><trkpt lat="42.64341958251538" lon="12.581390544692114"><ele>673.0</ele><time>2026-05-02T11:56:54.999Z</time></trkpt><trkpt lat="42.64350358521475" lon="12.58128798824293"><ele>673.0</ele><time>2026-05-02T11:56:57.999Z</time></trkpt><trkpt lat="42.64352979208874" lon="12.581159795934736"><ele>673.5</ele><time>2026-05-02T11:56:59.999Z</time></trkpt><trkpt lat="42.64359332069898" lon="12.581150713312685"><ele>674.0</ele><time>2026-05-02T11:57:00.999Z</time></trkpt><trkpt lat="42.64372206392324" lon="12.58113475387447"><ele>674.5</ele><time>2026-05-02T11:57:02.999Z</time></trkpt><trkpt lat="42.64379296439138" lon="12.581127165620417"><ele>675.0</ele><time>2026-05-02T11:57:03.999Z</time></trkpt><trkpt lat="42.64386570852672" lon="12.581102096777878"><ele>675.5</ele><time>2026-05-02T11:57:06Z</time></trkpt><trkpt lat="42.643933055259524" lon="12.581100036331492"><ele>676.0</ele><time>2026-05-02T11:57:08Z</time></trkpt><trkpt lat="42.64405116135979" lon="12.581055382290222"><ele>679.0</ele><time>2026-05-02T11:57:10Z</time></trkpt><trkpt lat="42.64412629482084" lon="12.581011152706054"><ele>682.0</ele><time>2026-05-02T11:57:12Z</time></trkpt><trkpt lat="42.644206155418615" lon="12.581004218491348"><ele>685.0</ele><time>2026-05-02T11:57:14Z</time></trkpt><trkpt lat="42.64430348263054" lon="12.58097011415176"><ele>688.0</ele><time>2026-05-02T11:57:16Z</time></trkpt><trkpt lat="42.64439113426086" lon="12.58098976806072"><ele>691.0</ele><time>2026-05-02T11:57:18Z</time></trkpt><trkpt lat="42.644457673159614" lon="12.581012975287376"><ele>694.0</ele><time>2026-05-02T11:57:20Z</time></trkpt><trkpt lat="42.64452385371471" lon="12.581072596918041"><ele>697.8000000000001</ele><time>2026-05-02T11:57:23Z</time></trkpt><trkpt lat="42.644563158989115" lon="12.581154964479634"><ele>701.6</ele><time>2026-05-02T11:57:25Z</time></trkpt><trkpt lat="42.64463986367443" lon="12.581272621692852"><ele>705.4</ele><time>2026-05-02T11:57:28Z</time></trkpt><trkpt lat="42.644720158393156" lon="12.581381040041698"><ele>709.2</ele><time>2026-05-02T11:57:30Z</time></trkpt><trkpt lat="42.64478901341535" lon="12.581418924209247"><ele>713.0</ele><time>2026-05-02T11:57:31Z</time></trkpt><trkpt lat="42.644861755045504" lon="12.581442047861445"><ele>713.0</ele><time>2026-05-02T11:57:32Z</time></trkpt><trkpt lat="42.644940777259436" lon="12.581468051338794"><ele>713.0</ele><time>2026-05-02T11:57:33Z</time></trkpt><trkpt lat="42.64501898134162" lon="12.581473912933689"><ele>713.0</ele><time>2026-05-02T11:57:34Z</time></trkpt><trkpt lat="42.645096583615434" lon="12.581528640320498"><ele>713.0</ele><time>2026-05-02T11:57:49Z</time></trkpt><trkpt lat="42.645168329652876" lon="12.581618403769737"><ele>713.0</ele><time>2026-05-02T11:57:52Z</time></trkpt><trkpt lat="42.645126420277116" lon="12.58169178077917"><ele>713.0</ele><time>2026-05-02T11:57:54Z</time></trkpt><trkpt lat="42.64505587420387" lon="12.581783858469162"><ele>713.0</ele><time>2026-05-02T11:57:56Z</time></trkpt><trkpt lat="42.64493423904276" lon="12.581842245225154"><ele>713.0</ele><time>2026-05-02T11:57:58Z</time></trkpt><trkpt lat="42.6448216498283" lon="12.581892605585807"><ele>713.0</ele><time>2026-05-02T11:58:00Z</time></trkpt><trkpt lat="42.644730835808026" lon="12.581941315222888"><ele>713.0</ele><time>2026-05-02T11:58:02Z</time></trkpt><trkpt lat="42.6446376592786" lon="12.582010652142452"><ele>717.0</ele><time>2026-05-02T11:58:04Z</time></trkpt><trkpt lat="42.64457354239472" lon="12.582043353706794"><ele>721.0</ele><time>2026-05-02T11:58:07Z</time></trkpt><trkpt lat="42.644525511526744" lon="12.582141633553785"><ele>725.0</ele><time>2026-05-02T11:58:09Z</time></trkpt><trkpt lat="42.644510010202225" lon="12.582226240078795"><ele>729.0</ele><time>2026-05-02T11:58:11Z</time></trkpt><trkpt lat="42.644501910436325" lon="12.582318508233287"><ele>733.0</ele><time>2026-05-02T11:58:13Z</time></trkpt><trkpt lat="42.64449544396567" lon="12.582483697012133"><ele>737.0</ele><time>2026-05-02T11:58:15Z</time></trkpt><trkpt lat="42.644509340405385" lon="12.582635522716798"><ele>737.0</ele><time>2026-05-02T11:58:17Z</time></trkpt><trkpt lat="42.64453533153264" lon="12.582761236757143"><ele>737.0</ele><time>2026-05-02T11:58:19Z</time></trkpt><trkpt lat="42.64457185643726" lon="12.582865506763369"><ele>737.0</ele><time>2026-05-02T11:58:21Z</time></trkpt><trkpt lat="42.64458411719231" lon="12.582955249008684"><ele>737.0</ele><time>2026-05-02T11:58:23Z</time></trkpt><trkpt lat="42.644597795050984" lon="12.58307602275863"><ele>737.0</ele><time>2026-05-02T11:58:25Z</time></trkpt><trkpt lat="42.64460737378987" lon="12.583183843505228"><ele>737.0</ele><time>2026-05-02T11:58:37.999Z</time></trkpt><trkpt lat="42.6446717564122" lon="12.583299640623592"><ele>739.3333333333333</ele><time>2026-05-02T11:58:41.999Z</time></trkpt><trkpt lat="42.64469306748086" lon="12.583441214613314"><ele>741.6666666666666</ele><time>2026-05-02T11:58:45.999Z</time></trkpt><trkpt lat="42.64472531489687" lon="12.583552830517165"><ele>744.0</ele><time>2026-05-02T11:58:47.999Z</time></trkpt><trkpt lat="42.64472875175892" lon="12.583670790497688"><ele>746.3333333333334</ele><time>2026-05-02T11:58:49.999Z</time></trkpt><trkpt lat="42.64475132959409" lon="12.58376133837211"><ele>748.6666666666667</ele><time>2026-05-02T11:58:53.999Z</time></trkpt><trkpt lat="42.64476828068332" lon="12.58385735899216"><ele>751.0</ele><time>2026-05-02T11:58:55.999Z</time></trkpt><trkpt lat="42.64481574368573" lon="12.583959958660776"><ele>752.3333333333334</ele><time>2026-05-02T11:58:58.999Z</time></trkpt><trkpt lat="42.64479063770651" lon="12.584054710169166"><ele>753.6666666666667</ele><time>2026-05-02T11:59:09.999Z</time></trkpt><trkpt lat="42.64485688612074" lon="12.584156756861477"><ele>755.0</ele><time>2026-05-02T11:59:27Z</time></trkpt><trkpt lat="42.64486943465474" lon="12.584249633205978"><ele>756.3333333333334</ele><time>2026-05-02T11:59:29Z</time></trkpt><trkpt lat="42.64484102212094" lon="12.584340353753174"><ele>757.6666666666666</ele><time>2026-05-02T11:59:49Z</time></trkpt><trkpt lat="42.64486125223828" lon="12.584435120017988"><ele>759.0</ele><time>2026-05-02T11:59:53Z</time></trkpt><trkpt lat="42.64489138882008" lon="12.584545962852008"><ele>759.5</ele><time>2026-05-02T11:59:55Z</time></trkpt><trkpt lat="42.64495317661585" lon="12.584645718522918"><ele>760.0</ele><time>2026-05-02T11:59:57Z</time></trkpt><trkpt lat="42.64495097058549" lon="12.584747184219657"><ele>760.5</ele><time>2026-05-02T11:59:59Z</time></trkpt><trkpt lat="42.644964099837885" lon="12.584839823118214"><ele>761.0</ele><time>2026-05-02T12:00:01Z</time></trkpt><trkpt lat="42.6450420144258" lon="12.584931321513317"><ele>761.5</ele><time>2026-05-02T12:00:03Z</time></trkpt><trkpt lat="42.645117295960894" lon="12.584999532980673"><ele>762.0</ele><time>2026-05-02T12:00:04Z</time></trkpt><trkpt lat="42.645148579615885" lon="12.585078733201522"><ele>762.0</ele><time>2026-05-02T12:00:05Z</time></trkpt><trkpt lat="42.64511954526832" lon="12.585164153436384"><ele>762.0</ele><time>2026-05-02T12:00:06Z</time></trkpt><trkpt lat="42.64517020580254" lon="12.585247146834845"><ele>762.0</ele><time>2026-05-02T12:00:10Z</time></trkpt><trkpt lat="42.645171253326694" lon="12.585371925124223"><ele>762.0</ele><time>2026-05-02T12:00:12Z</time></trkpt><trkpt lat="42.645178400425856" lon="12.585497917293297"><ele>762.0</ele><time>2026-05-02T12:00:14Z</time></trkpt><trkpt lat="42.6452565204727" lon="12.585562009795009"><ele>762.0</ele><time>2026-05-02T12:00:16Z</time></trkpt><trkpt lat="42.64534523115634" lon="12.585678751989649"><ele>768.3333333333334</ele><time>2026-05-02T12:00:18Z</time></trkpt><trkpt lat="42.64533389718819" lon="12.585768980394425"><ele>774.6666666666667</ele><time>2026-05-02T12:00:20Z</time></trkpt><trkpt lat="42.64539098266262" lon="12.58587269716465"><ele>781.0</ele><time>2026-05-02T12:00:22Z</time></trkpt><trkpt lat="42.64544315207961" lon="12.585947604211494"><ele>787.3333333333334</ele><time>2026-05-02T12:00:24Z</time></trkpt><trkpt lat="42.6454725026505" lon="12.586044181366091"><ele>793.6666666666667</ele><time>2026-05-02T12:00:26Z</time></trkpt><trkpt lat="42.645484962926396" lon="12.586166281638583"><ele>800.0</ele><time>2026-05-02T12:00:28Z</time></trkpt><trkpt lat="42.64549758033043" lon="12.586276566743571"><ele>800.1428571428572</ele><time>2026-05-02T12:00:30Z</time></trkpt><trkpt lat="42.645502721029644" lon="12.586371765090046"><ele>800.2857142857143</ele><time>2026-05-02T12:00:32Z</time></trkpt><trkpt lat="42.64552092651913" lon="12.586454047467354"><ele>800.4285714285714</ele><time>2026-05-02T12:00:34Z</time></trkpt><trkpt lat="42.6455302523749" lon="12.586547290023484"><ele>800.5714285714287</ele><time>2026-05-02T12:00:36Z</time></trkpt><trkpt lat="42.64555836721562" lon="12.586651733637975"><ele>800.7142857142857</ele><time>2026-05-02T12:00:39Z</time></trkpt><trkpt lat="42.64559886935195" lon="12.586731078679591"><ele>800.8571428571429</ele><time>2026-05-02T12:00:42Z</time></trkpt><trkpt lat="42.645617559841" lon="12.586814582132845"><ele>801.0</ele><time>2026-05-02T12:00:44Z</time></trkpt><trkpt lat="42.64563416117701" lon="12.58691739238048"><ele>801.0</ele><time>2026-05-02T12:00:47Z</time></trkpt><trkpt lat="42.645651529877405" lon="12.587008776671642"><ele>801.0</ele><time>2026-05-02T12:00:49Z</time></trkpt><trkpt lat="42.645690408976925" lon="12.58710076351074"><ele>801.0</ele><time>2026-05-02T12:00:51Z</time></trkpt><trkpt lat="42.64572493609766" lon="12.58718385270416"><ele>801.0</ele><time>2026-05-02T12:00:53Z</time></trkpt><trkpt lat="42.645775820358196" lon="12.587293924835922"><ele>801.0</ele><time>2026-05-02T12:00:55Z</time></trkpt><trkpt lat="42.645838452000234" lon="12.587409810530495"><ele>801.0</ele><time>2026-05-02T12:00:56.999Z</time></trkpt><trkpt lat="42.645870003855855" lon="12.587521640945866"><ele>800.8333333333334</ele><time>2026-05-02T12:00:58.999Z</time></trkpt><trkpt lat="42.64593838964267" lon="12.587622972399576"><ele>800.6666666666667</ele><time>2026-05-02T12:01:00.999Z</time></trkpt><trkpt lat="42.64600121805857" lon="12.587698832657312"><ele>800.5</ele><time>2026-05-02T12:01:02.999Z</time></trkpt><trkpt lat="42.64606914204254" lon="12.587732194416853"><ele>800.3333333333334</ele><time>2026-05-02T12:01:04.999Z</time></trkpt><trkpt lat="42.64613156802743" lon="12.587749297830173"><ele>800.1666666666667</ele><time>2026-05-02T12:01:06.999Z</time></trkpt><trkpt lat="42.64624316509452" lon="12.587825795248762"><ele>800.0</ele><time>2026-05-02T12:01:08.999Z</time></trkpt><trkpt lat="42.646295389134764" lon="12.58790199385637"><ele>804.8</ele><time>2026-05-02T12:01:09.999Z</time></trkpt><trkpt lat="42.64636429547649" lon="12.587993117079451"><ele>809.6</ele><time>2026-05-02T12:01:12.999Z</time></trkpt><trkpt lat="42.646482900316634" lon="12.588011914840283"><ele>814.4000000000001</ele><time>2026-05-02T12:01:14.999Z</time></trkpt><trkpt lat="42.64656300592194" lon="12.587954628405203"><ele>819.2</ele><time>2026-05-02T12:01:16.999Z</time></trkpt><trkpt lat="42.646655983579834" lon="12.587882608422614"><ele>824.0</ele><time>2026-05-02T12:01:19Z</time></trkpt><trkpt lat="42.64673867498251" lon="12.587848704921843"><ele>823.8333333333334</ele><time>2026-05-02T12:01:21Z</time></trkpt><trkpt lat="42.64680697422888" lon="12.587826182629833"><ele>823.6666666666667</ele><time>2026-05-02T12:01:23Z</time></trkpt><trkpt lat="42.64688597396629" lon="12.587763881200193"><ele>823.5</ele><time>2026-05-02T12:01:25Z</time></trkpt><trkpt lat="42.64694788059476" lon="12.587706179567423"><ele>823.3333333333333</ele><time>2026-05-02T12:01:27Z</time></trkpt><trkpt lat="42.646972715017014" lon="12.587623970522964"><ele>823.1666666666666</ele><time>2026-05-02T12:01:30Z</time></trkpt><trkpt lat="42.64705688856822" lon="12.587624257550923"><ele>823.0</ele><time>2026-05-02T12:02:19Z</time></trkpt><trkpt lat="42.64711001510404" lon="12.587680662808548"><ele>822.9999999999999</ele><time>2026-05-02T12:02:21Z</time></trkpt><trkpt lat="42.64718117914609" lon="12.587737443524523"><ele>823.0</ele><time>2026-05-02T12:02:25Z</time></trkpt><trkpt lat="42.64727230436987" lon="12.587739787515057"><ele>823.0</ele><time>2026-05-02T12:02:29Z</time></trkpt><trkpt lat="42.64734494026976" lon="12.587751543722026"><ele>823.0</ele><time>2026-05-02T12:02:35Z</time></trkpt><trkpt lat="42.647412368639834" lon="12.587755147653546"><ele>822.9999999999999</ele><time>2026-05-02T12:02:38Z</time></trkpt><trkpt lat="42.64746950899708" lon="12.587793010271199"><ele>823.0</ele><time>2026-05-02T12:02:40Z</time></trkpt><trkpt lat="42.64754875039526" lon="12.587842112318823"><ele>822.9999999999999</ele><time>2026-05-02T12:02:43Z</time></trkpt><trkpt lat="42.647637869492385" lon="12.587892731016256"><ele>823.0</ele><time>2026-05-02T12:02:46Z</time></trkpt><trkpt lat="42.6477108051796" lon="12.587852478619904"><ele>823.0</ele><time>2026-05-02T12:02:48Z</time></trkpt><trkpt lat="42.64777223250813" lon="12.587765304248705"><ele>823.0</ele><time>2026-05-02T12:02:50Z</time></trkpt><trkpt lat="42.64783925460484" lon="12.587749872510074"><ele>822.9999999999999</ele><time>2026-05-02T12:02:51Z</time></trkpt><trkpt lat="42.647923788997346" lon="12.587729745571703"><ele>823.0</ele><time>2026-05-02T12:02:53Z</time></trkpt><trkpt lat="42.647999351457464" lon="12.587743620339118"><ele>820.2</ele><time>2026-05-02T12:02:55Z</time></trkpt><trkpt lat="42.648119328711914" lon="12.587748831778192"><ele>817.4</ele><time>2026-05-02T12:02:57Z</time></trkpt><trkpt lat="42.648221827707424" lon="12.587730545646048"><ele>814.6</ele><time>2026-05-02T12:02:59Z</time></trkpt><trkpt lat="42.64830989659211" lon="12.587728834000472"><ele>811.8000000000001</ele><time>2026-05-02T12:03:01Z</time></trkpt><trkpt lat="42.64839928693285" lon="12.587754916517808"><ele>809.0</ele><time>2026-05-02T12:03:03Z</time></trkpt><trkpt lat="42.648495942704145" lon="12.587751771943024"><ele>809.0</ele><time>2026-05-02T12:03:04.999Z</time></trkpt><trkpt lat="42.64856350870957" lon="12.587764960760552"><ele>809.0</ele><time>2026-05-02T12:03:07.999Z</time></trkpt><trkpt lat="42.648634586247724" lon="12.587786816758095"><ele>809.0</ele><time>2026-05-02T12:03:11.999Z</time></trkpt><trkpt lat="42.648707396355185" lon="12.587767108052365"><ele>809.0</ele><time>2026-05-02T12:04:03Z</time></trkpt><trkpt lat="42.64877797073942" lon="12.587732080414009"><ele>809.0</ele><time>2026-05-02T12:04:06Z</time></trkpt><trkpt lat="42.64885624838447" lon="12.587689602166401"><ele>809.0</ele><time>2026-05-02T12:04:09Z</time></trkpt><trkpt lat="42.64889296380255" lon="12.587601526754588"><ele>809.0</ele><time>2026-05-02T12:04:12Z</time></trkpt><trkpt lat="42.64898220509181" lon="12.587595721639742"><ele>809.8000000000001</ele><time>2026-05-02T12:04:19Z</time></trkpt><trkpt lat="42.64906136479308" lon="12.587678882444107"><ele>810.6</ele><time>2026-05-02T12:04:21Z</time></trkpt><trkpt lat="42.64913319142745" lon="12.587755666892447"><ele>811.4</ele><time>2026-05-02T12:04:23Z</time></trkpt><trkpt lat="42.649195490611234" lon="12.58783762365456"><ele>812.2</ele><time>2026-05-02T12:04:25Z</time></trkpt><trkpt lat="42.649261934847" lon="12.587857675177846"><ele>813.0</ele><time>2026-05-02T12:04:27Z</time></trkpt><trkpt lat="42.649356875561935" lon="12.587793190351325"><ele>811.6666666666666</ele><time>2026-05-02T12:04:30Z</time></trkpt><trkpt lat="42.649428363051804" lon="12.587746619683115"><ele>810.3333333333333</ele><time>2026-05-02T12:04:32Z</time></trkpt><trkpt lat="42.64952508350749" lon="12.587802200891028"><ele>809.0</ele><time>2026-05-02T12:04:34Z</time></trkpt><trkpt lat="42.64959789093703" lon="12.58788039589962"><ele>807.6666666666666</ele><time>2026-05-02T12:04:36Z</time></trkpt><trkpt lat="42.64967058535468" lon="12.587910440521348"><ele>806.3333333333333</ele><time>2026-05-02T12:04:39Z</time></trkpt><trkpt lat="42.64974187921989" lon="12.587942139248838"><ele>805.0</ele><time>2026-05-02T12:04:42Z</time></trkpt><trkpt lat="42.64980694637691" lon="12.587988835480369"><ele>804.9999999999999</ele><time>2026-05-02T12:04:45Z</time></trkpt><trkpt lat="42.64988820233891" lon="12.588022474424356"><ele>805.0</ele><time>2026-05-02T12:04:48Z</time></trkpt><trkpt lat="42.64995934777356" lon="12.588038097970509"><ele>805.0</ele><time>2026-05-02T12:04:50Z</time></trkpt><trkpt lat="42.65002519467802" lon="12.588130425940074"><ele>805.0</ele><time>2026-05-02T12:04:53Z</time></trkpt><trkpt lat="42.650069329885916" lon="12.58822914595925"><ele>804.9999999999999</ele><time>2026-05-02T12:04:55Z</time></trkpt><trkpt lat="42.65011963830181" lon="12.588332564158575"><ele>805.0</ele><time>2026-05-02T12:04:57Z</time></trkpt><trkpt lat="42.65016414924377" lon="12.588422408395456"><ele>804.9999999999999</ele><time>2026-05-02T12:04:59Z</time></trkpt><trkpt lat="42.650198578771054" lon="12.588517435296845"><ele>805.0</ele><time>2026-05-02T12:05:02Z</time></trkpt><trkpt lat="42.65020659491841" lon="12.588636745083939"><ele>805.0</ele><time>2026-05-02T12:05:37Z</time></trkpt><trkpt lat="42.65020829159017" lon="12.588737177782216"><ele>805.0</ele><time>2026-05-02T12:05:39Z</time></trkpt><trkpt lat="42.65019551960491" lon="12.588827068860075"><ele>804.9999999999999</ele><time>2026-05-02T12:05:41Z</time></trkpt><trkpt lat="42.65023638082416" lon="12.588914871934394"><ele>805.0</ele><time>2026-05-02T12:05:43Z</time></trkpt><trkpt lat="42.650309434794586" lon="12.588968368734887"><ele>804.6666666666666</ele><time>2026-05-02T12:05:45Z</time></trkpt><trkpt lat="42.65039565894939" lon="12.588983853682075"><ele>804.3333333333333</ele><time>2026-05-02T12:05:47Z</time></trkpt><trkpt lat="42.650450726283516" lon="12.589066876882967"><ele>804.0</ele><time>2026-05-02T12:05:49Z</time></trkpt><trkpt lat="42.6505315969594" lon="12.589081190665963"><ele>803.6666666666667</ele><time>2026-05-02T12:05:51Z</time></trkpt><trkpt lat="42.65060011410631" lon="12.589088797025866"><ele>803.3333333333334</ele><time>2026-05-02T12:05:52Z</time></trkpt><trkpt lat="42.650640182902414" lon="12.589225089250384"><ele>803.0</ele><time>2026-05-02T12:05:54Z</time></trkpt><trkpt lat="42.65068144619632" lon="12.589378691239828"><ele>802.9999999999999</ele><time>2026-05-02T12:05:56Z</time></trkpt><trkpt lat="42.650692455808056" lon="12.589483722283573"><ele>803.0</ele><time>2026-05-02T12:05:58Z</time></trkpt><trkpt lat="42.65074411156956" lon="12.589538896756245"><ele>803.0</ele><time>2026-05-02T12:06:01Z</time></trkpt><trkpt lat="42.65080781581407" lon="12.589558240782992"><ele>803.0</ele><time>2026-05-02T12:06:03Z</time></trkpt><trkpt lat="42.65085325389308" lon="12.589620235571035"><ele>803.0</ele><time>2026-05-02T12:06:06Z</time></trkpt><trkpt lat="42.65091907815437" lon="12.589683240568997"><ele>802.9999999999999</ele><time>2026-05-02T12:06:09Z</time></trkpt><trkpt lat="42.65096212342577" lon="12.589798273261783"><ele>803.0</ele><time>2026-05-02T12:06:13Z</time></trkpt><trkpt lat="42.65103039808062" lon="12.589868095272028"><ele>804.0</ele><time>2026-05-02T12:06:15Z</time></trkpt><trkpt lat="42.651107154525675" lon="12.589949769836517"><ele>805.0</ele><time>2026-05-02T12:06:17Z</time></trkpt><trkpt lat="42.651170587450515" lon="12.59003768508039"><ele>806.0</ele><time>2026-05-02T12:06:26Z</time></trkpt><trkpt lat="42.65121112744262" lon="12.590108888070954"><ele>807.0</ele><time>2026-05-02T12:06:28Z</time></trkpt><trkpt lat="42.65127732020206" lon="12.590202229201132"><ele>808.0</ele><time>2026-05-02T12:06:30Z</time></trkpt><trkpt lat="42.65136190905393" lon="12.590286752154373"><ele>807.0</ele><time>2026-05-02T12:06:32Z</time></trkpt><trkpt lat="42.65142355680067" lon="12.590360562401644"><ele>806.0</ele><time>2026-05-02T12:06:34Z</time></trkpt><trkpt lat="42.65150497352348" lon="12.590380236105576"><ele>805.0</ele><time>2026-05-02T12:06:36Z</time></trkpt><trkpt lat="42.65162203933922" lon="12.590353690609192"><ele>804.0</ele><time>2026-05-02T12:06:38Z</time></trkpt><trkpt lat="42.65171170470529" lon="12.59028301160474"><ele>803.0</ele><time>2026-05-02T12:06:40Z</time></trkpt><trkpt lat="42.65183560600265" lon="12.590280065881089"><ele>800.5999999999999</ele><time>2026-05-02T12:06:42Z</time></trkpt><trkpt lat="42.65197694291494" lon="12.59027265857936"><ele>798.1999999999999</ele><time>2026-05-02T12:06:44Z</time></trkpt><trkpt lat="42.652040500011424" lon="12.590269840051706"><ele>795.8</ele><time>2026-05-02T12:06:45Z</time></trkpt><trkpt lat="42.65211621680485" lon="12.590271750587696"><ele>793.4</ele><time>2026-05-02T12:06:46Z</time></trkpt><trkpt lat="42.652192304060215" lon="12.590245307116275"><ele>791.0</ele><time>2026-05-02T12:06:48Z</time></trkpt><trkpt lat="42.65229646428011" lon="12.590248787513309"><ele>791.0000000000001</ele><time>2026-05-02T12:06:50Z</time></trkpt><trkpt lat="42.65237672514287" lon="12.590243979707871"><ele>791.0</ele><time>2026-05-02T12:06:51Z</time></trkpt><trkpt lat="42.65245165877025" lon="12.590250248484063"><ele>791.0</ele><time>2026-05-02T12:06:52Z</time></trkpt><trkpt lat="42.65254208663218" lon="12.590253588692958"><ele>791.0</ele><time>2026-05-02T12:06:53Z</time></trkpt><trkpt lat="42.65262526741145" lon="12.59023743164446"><ele>791.0000000000001</ele><time>2026-05-02T12:06:55Z</time></trkpt><trkpt lat="42.652700483367575" lon="12.590223094838965"><ele>791.0</ele><time>2026-05-02T12:06:57Z</time></trkpt><trkpt lat="42.65278324421112" lon="12.5902061786898"><ele>790.1666666666667</ele><time>2026-05-02T12:06:58Z</time></trkpt><trkpt lat="42.652858043840475" lon="12.590224905671704"><ele>789.3333333333334</ele><time>2026-05-02T12:06:59Z</time></trkpt><trkpt lat="42.652935216079385" lon="12.590232697893837"><ele>788.5</ele><time>2026-05-02T12:07:01Z</time></trkpt><trkpt lat="42.65299841636392" lon="12.5902605259956"><ele>787.6666666666667</ele><time>2026-05-02T12:07:02Z</time></trkpt><trkpt lat="42.65308196503666" lon="12.590321985529219"><ele>786.8333333333334</ele><time>2026-05-02T12:07:04Z</time></trkpt><trkpt lat="42.65317001123237" lon="12.590315890476479"><ele>786.0</ele><time>2026-05-02T12:07:04.999Z</time></trkpt><trkpt lat="42.6532875874684" lon="12.590338793814693"><ele>787.1999999999999</ele><time>2026-05-02T12:07:06.999Z</time></trkpt><trkpt lat="42.653389756763026" lon="12.590383441260194"><ele>788.4</ele><time>2026-05-02T12:07:08.999Z</time></trkpt><trkpt lat="42.65348660105958" lon="12.590477883224128"><ele>789.6</ele><time>2026-05-02T12:07:10.999Z</time></trkpt><trkpt lat="42.653551216433094" lon="12.590504280935699"><ele>790.8</ele><time>2026-05-02T12:07:11.999Z</time></trkpt><trkpt lat="42.65364941566242" lon="12.590507353655964"><ele>792.0</ele><time>2026-05-02T12:07:12.999Z</time></trkpt><trkpt lat="42.653736300154875" lon="12.590530776445693"><ele>788.8</ele><time>2026-05-02T12:07:13.999Z</time></trkpt><trkpt lat="42.653845313751106" lon="12.59060139857866"><ele>785.6</ele><time>2026-05-02T12:07:15.999Z</time></trkpt><trkpt lat="42.653933048746225" lon="12.590670504253673"><ele>782.4</ele><time>2026-05-02T12:07:17.999Z</time></trkpt><trkpt lat="42.654027146062475" lon="12.590724620564869"><ele>779.1999999999999</ele><time>2026-05-02T12:07:19.999Z</time></trkpt><trkpt lat="42.65408383175568" lon="12.59076788225102"><ele>776.0</ele><time>2026-05-02T12:07:20.999Z</time></trkpt><trkpt lat="42.654148068999625" lon="12.590874243363738"><ele>776.0</ele><time>2026-05-02T12:07:22.999Z</time></trkpt><trkpt lat="42.65418220541392" lon="12.590954233608755"><ele>776.0</ele><time>2026-05-02T12:07:23.999Z</time></trkpt><trkpt lat="42.65425654209768" lon="12.591043707739946"><ele>776.0</ele><time>2026-05-02T12:07:25.999Z</time></trkpt><trkpt lat="42.65439963096468" lon="12.59108184586775"><ele>776.0</ele><time>2026-05-02T12:07:27.999Z</time></trkpt><trkpt lat="42.65445738142611" lon="12.591123351564312"><ele>776.0</ele><time>2026-05-02T12:07:28.999Z</time></trkpt><trkpt lat="42.65453816540152" lon="12.591193393949204"><ele>774.3333333333334</ele><time>2026-05-02T12:07:30.999Z</time></trkpt><trkpt lat="42.65459730644346" lon="12.591228015999826"><ele>772.6666666666667</ele><time>2026-05-02T12:07:31.999Z</time></trkpt><trkpt lat="42.65467737139864" lon="12.591276873020133"><ele>771.0</ele><time>2026-05-02T12:07:33.999Z</time></trkpt><trkpt lat="42.65473459867302" lon="12.591315957950876"><ele>769.3333333333334</ele><time>2026-05-02T12:07:36Z</time></trkpt><trkpt lat="42.654808169005584" lon="12.591349887456378"><ele>767.6666666666667</ele><time>2026-05-02T12:07:38Z</time></trkpt><trkpt lat="42.65489528928959" lon="12.59138841989759"><ele>766.0</ele><time>2026-05-02T12:07:41Z</time></trkpt><trkpt lat="42.654957322154694" lon="12.591474085877515"><ele>766.0</ele><time>2026-05-02T12:07:44Z</time></trkpt><trkpt lat="42.655046630531686" lon="12.591536474620968"><ele>766.0</ele><time>2026-05-02T12:07:46Z</time></trkpt><trkpt lat="42.65510994783582" lon="12.591624858218863"><ele>766.0</ele><time>2026-05-02T12:07:48Z</time></trkpt><trkpt lat="42.65519381761366" lon="12.591721375313922"><ele>766.0</ele><time>2026-05-02T12:07:50Z</time></trkpt><trkpt lat="42.655261967540696" lon="12.59176245425125"><ele>766.0</ele><time>2026-05-02T12:07:51Z</time></trkpt><trkpt lat="42.65532114859417" lon="12.591804854783058"><ele>766.0</ele><time>2026-05-02T12:07:52Z</time></trkpt><trkpt lat="42.655381336709254" lon="12.591846007158237"><ele>763.8333333333334</ele><time>2026-05-02T12:07:54Z</time></trkpt><trkpt lat="42.65544786027981" lon="12.591904209458235"><ele>761.6666666666667</ele><time>2026-05-02T12:07:56Z</time></trkpt><trkpt lat="42.65554831586741" lon="12.591947432609865"><ele>759.5</ele><time>2026-05-02T12:07:58Z</time></trkpt><trkpt lat="42.65561203288603" lon="12.591974687822773"><ele>757.3333333333334</ele><time>2026-05-02T12:07:59Z</time></trkpt><trkpt lat="42.65567978551999" lon="12.591990126159395"><ele>755.1666666666666</ele><time>2026-05-02T12:08:00Z</time></trkpt><trkpt lat="42.655760539293205" lon="12.592045997394695"><ele>753.0</ele><time>2026-05-02T12:08:02Z</time></trkpt><trkpt lat="42.65581693395618" lon="12.5921132869578"><ele>752.8333333333334</ele><time>2026-05-02T12:08:04Z</time></trkpt><trkpt lat="42.65591166540917" lon="12.592168488854217"><ele>752.6666666666666</ele><time>2026-05-02T12:08:06Z</time></trkpt><trkpt lat="42.655982492458826" lon="12.592196189167918"><ele>752.5</ele><time>2026-05-02T12:08:07Z</time></trkpt><trkpt lat="42.656042040642" lon="12.59224031751607"><ele>752.3333333333333</ele><time>2026-05-02T12:08:09Z</time></trkpt><trkpt lat="42.65609204992374" lon="12.59234582571289"><ele>752.1666666666666</ele><time>2026-05-02T12:08:12Z</time></trkpt><trkpt lat="42.656157778299516" lon="12.592405272519118"><ele>752.0</ele><time>2026-05-02T12:08:14Z</time></trkpt><trkpt lat="42.6561834652456" lon="12.592518367804779"><ele>750.5</ele><time>2026-05-02T12:08:17Z</time></trkpt><trkpt lat="42.65625786682074" lon="12.592540027569829"><ele>749.0</ele><time>2026-05-02T12:08:19Z</time></trkpt><trkpt lat="42.65636949867392" lon="12.592506430972062"><ele>747.5</ele><time>2026-05-02T12:08:21Z</time></trkpt><trkpt lat="42.65647206089683" lon="12.592580318374436"><ele>746.0</ele><time>2026-05-02T12:08:23Z</time></trkpt><trkpt lat="42.65652413136073" lon="12.592629380114406"><ele>744.5</ele><time>2026-05-02T12:08:24Z</time></trkpt><trkpt lat="42.65658304092823" lon="12.592663708088958"><ele>743.0</ele><time>2026-05-02T12:08:25Z</time></trkpt><trkpt lat="42.65664630828239" lon="12.592678330761363"><ele>743.0</ele><time>2026-05-02T12:08:26Z</time></trkpt><trkpt lat="42.65672040001632" lon="12.592705001055988"><ele>743.0</ele><time>2026-05-02T12:08:27Z</time></trkpt><trkpt lat="42.65679241734369" lon="12.592711894704975"><ele>743.0</ele><time>2026-05-02T12:08:28Z</time></trkpt><trkpt lat="42.656844914836554" lon="12.592824283141917"><ele>743.0</ele><time>2026-05-02T12:08:31Z</time></trkpt><trkpt lat="42.65695044732888" lon="12.592842038002011"><ele>743.0</ele><time>2026-05-02T12:08:33Z</time></trkpt><trkpt lat="42.65702337653124" lon="12.592875778278291"><ele>743.0</ele><time>2026-05-02T12:08:35Z</time></trkpt><trkpt lat="42.65710401109028" lon="12.59294610411218"><ele>741.5</ele><time>2026-05-02T12:08:47Z</time></trkpt><trkpt lat="42.65719999066352" lon="12.592997632692112"><ele>740.0</ele><time>2026-05-02T12:08:49Z</time></trkpt><trkpt lat="42.657298799343344" lon="12.593024181394313"><ele>738.5</ele><time>2026-05-02T12:08:51Z</time></trkpt><trkpt lat="42.657353761564" lon="12.593072264448116"><ele>737.0</ele><time>2026-05-02T12:08:53Z</time></trkpt><trkpt lat="42.657421452298706" lon="12.593104925132652"><ele>735.5</ele><time>2026-05-02T12:08:54Z</time></trkpt><trkpt lat="42.65751111312422" lon="12.593122273503043"><ele>734.0</ele><time>2026-05-02T12:08:55Z</time></trkpt><trkpt lat="42.65760175761345" lon="12.59314552548035"><ele>734.0</ele><time>2026-05-02T12:08:56Z</time></trkpt><trkpt lat="42.657700497653686" lon="12.59319684080301"><ele>734.0</ele><time>2026-05-02T12:08:58Z</time></trkpt><trkpt lat="42.65776273609584" lon="12.593231249762246"><ele>734.0</ele><time>2026-05-02T12:08:59Z</time></trkpt><trkpt lat="42.65782443785422" lon="12.593253569330363"><ele>734.0</ele><time>2026-05-02T12:09:00Z</time></trkpt><trkpt lat="42.65791282463507" lon="12.593285951772135"><ele>734.0</ele><time>2026-05-02T12:09:01Z</time></trkpt><trkpt lat="42.65798231395444" lon="12.593303029412809"><ele>734.0</ele><time>2026-05-02T12:09:02Z</time></trkpt><trkpt lat="42.65809116553381" lon="12.593332088115037"><ele>734.1666666666666</ele><time>2026-05-02T12:09:03.999Z</time></trkpt><trkpt lat="42.65814398477609" lon="12.59338243542814"><ele>734.3333333333333</ele><time>2026-05-02T12:09:05.999Z</time></trkpt><trkpt lat="42.658205072131864" lon="12.59343503522554"><ele>734.5</ele><time>2026-05-02T12:09:07.999Z</time></trkpt><trkpt lat="42.658262977727155" lon="12.593375922461362"><ele>734.6666666666666</ele><time>2026-05-02T12:09:09.999Z</time></trkpt><trkpt lat="42.65825353276836" lon="12.593257261933003"><ele>734.8333333333334</ele><time>2026-05-02T12:09:11.999Z</time></trkpt><trkpt lat="42.65822531306338" lon="12.593135998591928"><ele>735.0</ele><time>2026-05-02T12:09:13.999Z</time></trkpt><trkpt lat="42.65820480748219" lon="12.593049998379483"><ele>735.0</ele><time>2026-05-02T12:09:14.999Z</time></trkpt><trkpt lat="42.65818291813419" lon="12.592947813915174"><ele>735.0</ele><time>2026-05-02T12:09:15.999Z</time></trkpt><trkpt lat="42.65816596501069" lon="12.592844499478778"><ele>735.0</ele><time>2026-05-02T12:09:16.999Z</time></trkpt><trkpt lat="42.65815512735349" lon="12.59274424300446"><ele>735.0</ele><time>2026-05-02T12:09:17.999Z</time></trkpt><trkpt lat="42.658141415959335" lon="12.592573081758252"><ele>735.0</ele><time>2026-05-02T12:09:19.999Z</time></trkpt><trkpt lat="42.658119234702525" lon="12.592486607172598"><ele>735.0</ele><time>2026-05-02T12:09:20.999Z</time></trkpt><trkpt lat="42.65809025495803" lon="12.592393737610417"><ele>735.0</ele><time>2026-05-02T12:09:21.999Z</time></trkpt><trkpt lat="42.6580674395362" lon="12.592300833687341"><ele>735.0</ele><time>2026-05-02T12:09:22.999Z</time></trkpt><trkpt lat="42.65803020798036" lon="12.592209087748415"><ele>735.0</ele><time>2026-05-02T12:09:23.999Z</time></trkpt><trkpt lat="42.657997783140715" lon="12.59212205576625"><ele>735.0</ele><time>2026-05-02T12:09:24.999Z</time></trkpt><trkpt lat="42.65791431608421" lon="12.591994010240187"><ele>735.0</ele><time>2026-05-02T12:09:26.999Z</time></trkpt><trkpt lat="42.65785167231016" lon="12.591907035218542"><ele>735.0</ele><time>2026-05-02T12:09:28.999Z</time></trkpt><trkpt lat="42.6578449692458" lon="12.591806630869762"><ele>735.0</ele><time>2026-05-02T12:09:30.999Z</time></trkpt><trkpt lat="42.657786268573226" lon="12.591668952112586"><ele>735.0</ele><time>2026-05-02T12:09:32.999Z</time></trkpt><trkpt lat="42.657762007748204" lon="12.591548176431745"><ele>735.0</ele><time>2026-05-02T12:09:33.999Z</time></trkpt><trkpt lat="42.65774338433155" lon="12.591385310745846"><ele>735.0</ele><time>2026-05-02T12:09:35.999Z</time></trkpt><trkpt lat="42.6577123682065" lon="12.591299414164888"><ele>735.0</ele><time>2026-05-02T12:09:36.999Z</time></trkpt><trkpt lat="42.65770779342138" lon="12.59114825093626"><ele>738.1666666666666</ele><time>2026-05-02T12:09:38.999Z</time></trkpt><trkpt lat="42.65771685094037" lon="12.591011337272745"><ele>741.3333333333334</ele><time>2026-05-02T12:09:41Z</time></trkpt><trkpt lat="42.657789975688914" lon="12.590969418581322"><ele>744.5</ele><time>2026-05-02T12:09:43Z</time></trkpt><trkpt lat="42.65785507937394" lon="12.590957391536508"><ele>747.6666666666667</ele><time>2026-05-02T12:09:44Z</time></trkpt><trkpt lat="42.65792807806553" lon="12.590986686483372"><ele>750.8333333333334</ele><time>2026-05-02T12:09:45Z</time></trkpt><trkpt lat="42.65800640033056" lon="12.591051618184476"><ele>754.0</ele><time>2026-05-02T12:09:46Z</time></trkpt><trkpt lat="42.65806450761839" lon="12.591146747915518"><ele>750.8333333333334</ele><time>2026-05-02T12:09:47Z</time></trkpt><trkpt lat="42.658129254154716" lon="12.5912241668755"><ele>747.6666666666667</ele><time>2026-05-02T12:09:48Z</time></trkpt><trkpt lat="42.65819333065931" lon="12.591275572550986"><ele>744.5</ele><time>2026-05-02T12:09:49Z</time></trkpt><trkpt lat="42.658274093969034" lon="12.591326276182906"><ele>741.3333333333334</ele><time>2026-05-02T12:09:50Z</time></trkpt><trkpt lat="42.65835399768375" lon="12.591367644145492"><ele>738.1666666666666</ele><time>2026-05-02T12:09:51Z</time></trkpt><trkpt lat="42.65844165849725" lon="12.59140540707436"><ele>735.0</ele><time>2026-05-02T12:09:52Z</time></trkpt><trkpt lat="42.658536208247305" lon="12.591453258907537"><ele>735.1666666666666</ele><time>2026-05-02T12:09:53Z</time></trkpt><trkpt lat="42.65862801790149" lon="12.591484745574332"><ele>735.3333333333334</ele><time>2026-05-02T12:09:54Z</time></trkpt><trkpt lat="42.65871122171455" lon="12.591506411781241"><ele>735.5</ele><time>2026-05-02T12:09:55Z</time></trkpt><trkpt lat="42.65879838554526" lon="12.591526342787013"><ele>735.6666666666667</ele><time>2026-05-02T12:09:56Z</time></trkpt><trkpt lat="42.658878388795856" lon="12.591539761197991"><ele>735.8333333333334</ele><time>2026-05-02T12:09:57Z</time></trkpt><trkpt lat="42.65895884776315" lon="12.59153511699414"><ele>736.0</ele><time>2026-05-02T12:09:58Z</time></trkpt><trkpt lat="42.65904648796034" lon="12.59153110873646"><ele>736.0</ele><time>2026-05-02T12:09:59Z</time></trkpt><trkpt lat="42.65911350375174" lon="12.591542004973023"><ele>736.0</ele><time>2026-05-02T12:10:00Z</time></trkpt><trkpt lat="42.65918433579039" lon="12.591528678932129"><ele>736.0</ele><time>2026-05-02T12:10:01Z</time></trkpt><trkpt lat="42.65925142159493" lon="12.591486805695416"><ele>736.0</ele><time>2026-05-02T12:10:02Z</time></trkpt><trkpt lat="42.65933069474795" lon="12.591445698230983"><ele>736.0</ele><time>2026-05-02T12:10:03Z</time></trkpt><trkpt lat="42.65941963389823" lon="12.59137225537473"><ele>736.0</ele><time>2026-05-02T12:10:04Z</time></trkpt><trkpt lat="42.65950347454494" lon="12.591307789239291"><ele>735.5</ele><time>2026-05-02T12:10:05Z</time></trkpt><trkpt lat="42.65958505774705" lon="12.591263326019137"><ele>735.0</ele><time>2026-05-02T12:10:06Z</time></trkpt><trkpt lat="42.65965674233911" lon="12.591224777324571"><ele>734.5</ele><time>2026-05-02T12:10:07Z</time></trkpt><trkpt lat="42.65974232715076" lon="12.59120362574244"><ele>734.0</ele><time>2026-05-02T12:10:08Z</time></trkpt><trkpt lat="42.659830477303515" lon="12.5911767006041"><ele>733.5</ele><time>2026-05-02T12:10:09Z</time></trkpt><trkpt lat="42.659920363699996" lon="12.59114626251396"><ele>733.0</ele><time>2026-05-02T12:10:10Z</time></trkpt><trkpt lat="42.66000307424053" lon="12.591104810959754"><ele>733.1666666666667</ele><time>2026-05-02T12:10:11Z</time></trkpt><trkpt lat="42.66006487891551" lon="12.591042610255398"><ele>733.3333333333334</ele><time>2026-05-02T12:10:12Z</time></trkpt><trkpt lat="42.66012786001889" lon="12.590964565869218"><ele>733.5</ele><time>2026-05-02T12:10:13Z</time></trkpt><trkpt lat="42.660171965809916" lon="12.590861497639933"><ele>733.6666666666666</ele><time>2026-05-02T12:10:14Z</time></trkpt><trkpt lat="42.66021463612393" lon="12.590762429590855"><ele>733.8333333333333</ele><time>2026-05-02T12:10:15Z</time></trkpt><trkpt lat="42.66025837611832" lon="12.590657413692899"><ele>734.0</ele><time>2026-05-02T12:10:16Z</time></trkpt><trkpt lat="42.660309194131074" lon="12.590560048993906"><ele>734.0</ele><time>2026-05-02T12:10:17Z</time></trkpt><trkpt lat="42.66034665567826" lon="12.59045797626371"><ele>734.0</ele><time>2026-05-02T12:10:18Z</time></trkpt><trkpt lat="42.66039221383396" lon="12.590368817185663"><ele>734.0</ele><time>2026-05-02T12:10:19Z</time></trkpt><trkpt lat="42.66044594418705" lon="12.590276097533561"><ele>734.0</ele><time>2026-05-02T12:10:20Z</time></trkpt><trkpt lat="42.660507841791215" lon="12.590181598496352"><ele>734.0</ele><time>2026-05-02T12:10:21Z</time></trkpt><trkpt lat="42.66056774891278" lon="12.590058387552656"><ele>736.1666666666666</ele><time>2026-05-02T12:10:23Z</time></trkpt><trkpt lat="42.66067017972838" lon="12.589970530131323"><ele>738.3333333333333</ele><time>2026-05-02T12:10:25Z</time></trkpt><trkpt lat="42.66072171320354" lon="12.589915349884121"><ele>740.5</ele><time>2026-05-02T12:10:26Z</time></trkpt><trkpt lat="42.66078434330089" lon="12.589785811676686"><ele>742.6666666666666</ele><time>2026-05-02T12:10:28Z</time></trkpt><trkpt lat="42.660811261801356" lon="12.589695326634338"><ele>744.8333333333334</ele><time>2026-05-02T12:10:29Z</time></trkpt><trkpt lat="42.66082921305918" lon="12.589607563280184"><ele>747.0</ele><time>2026-05-02T12:10:30Z</time></trkpt><trkpt lat="42.66088249356295" lon="12.589508220722479"><ele>749.8</ele><time>2026-05-02T12:10:31Z</time></trkpt><trkpt lat="42.66091984614065" lon="12.589392250773315"><ele>752.6</ele><time>2026-05-02T12:10:32Z</time></trkpt><trkpt lat="42.66095870428129" lon="12.589289868203153"><ele>755.4</ele><time>2026-05-02T12:10:33Z</time></trkpt><trkpt lat="42.66099287098693" lon="12.589173801991386"><ele>758.1999999999999</ele><time>2026-05-02T12:10:34Z</time></trkpt><trkpt lat="42.66102990806778" lon="12.58908620195815"><ele>761.0</ele><time>2026-05-02T12:10:35Z</time></trkpt><trkpt lat="42.66107878875322" lon="12.58895119544517"><ele>761.0</ele><time>2026-05-02T12:10:37Z</time></trkpt><trkpt lat="42.66108246743696" lon="12.588856537597232"><ele>761.0</ele><time>2026-05-02T12:10:38Z</time></trkpt><trkpt lat="42.66109455736461" lon="12.588733651967445"><ele>761.0</ele><time>2026-05-02T12:10:39Z</time></trkpt><trkpt lat="42.66111309917466" lon="12.588632016216648"><ele>761.0</ele><time>2026-05-02T12:10:40Z</time></trkpt><trkpt lat="42.6611746534718" lon="12.588562197935083"><ele>761.0</ele><time>2026-05-02T12:10:41Z</time></trkpt><trkpt lat="42.66119434041363" lon="12.588475069885849"><ele>761.0</ele><time>2026-05-02T12:10:42Z</time></trkpt><trkpt lat="42.66121033273542" lon="12.588309281130599"><ele>761.0</ele><time>2026-05-02T12:10:44Z</time></trkpt><trkpt lat="42.66122439403792" lon="12.5881991315329"><ele>761.0</ele><time>2026-05-02T12:10:46Z</time></trkpt><trkpt lat="42.66122243960409" lon="12.588109488361354"><ele>761.0</ele><time>2026-05-02T12:11:22.999Z</time></trkpt><trkpt lat="42.66123687252373" lon="12.588009985431064"><ele>761.0</ele><time>2026-05-02T12:11:24.999Z</time></trkpt><trkpt lat="42.66125259712728" lon="12.587868329252295"><ele>761.0</ele><time>2026-05-02T12:11:26.999Z</time></trkpt><trkpt lat="42.66126076395347" lon="12.587779885786038"><ele>761.0</ele><time>2026-05-02T12:11:27.999Z</time></trkpt><trkpt lat="42.66125631665658" lon="12.587628076072782"><ele>762.4</ele><time>2026-05-02T12:11:29.999Z</time></trkpt><trkpt lat="42.661209790094794" lon="12.58750730141058"><ele>763.8</ele><time>2026-05-02T12:11:31.999Z</time></trkpt><trkpt lat="42.66117701389344" lon="12.587367605259368"><ele>765.1999999999999</ele><time>2026-05-02T12:11:33.999Z</time></trkpt><trkpt lat="42.66112590966005" lon="12.587228407919428"><ele>766.5999999999999</ele><time>2026-05-02T12:11:35.999Z</time></trkpt><trkpt lat="42.661113548773685" lon="12.587078265294803"><ele>768.0</ele><time>2026-05-02T12:11:37.999Z</time></trkpt><trkpt lat="42.66111130777611" lon="12.58698922288437"><ele>769.8571428571428</ele><time>2026-05-02T12:11:38.999Z</time></trkpt><trkpt lat="42.661102733548844" lon="12.58689217966176"><ele>771.7142857142857</ele><time>2026-05-02T12:11:39.999Z</time></trkpt><trkpt lat="42.66108026652824" lon="12.586807383395378"><ele>773.5714285714286</ele><time>2026-05-02T12:11:40.999Z</time></trkpt><trkpt lat="42.661051341336965" lon="12.586726119828535"><ele>775.4285714285713</ele><time>2026-05-02T12:11:41.999Z</time></trkpt><trkpt lat="42.66100523664609" lon="12.586653185546565"><ele>777.2857142857143</ele><time>2026-05-02T12:11:42.999Z</time></trkpt><trkpt lat="42.66096424870092" lon="12.586578023636376"><ele>779.1428571428571</ele><time>2026-05-02T12:11:43.999Z</time></trkpt><trkpt lat="42.66093274043866" lon="12.586499065766864"><ele>781.0</ele><time>2026-05-02T12:11:44.999Z</time></trkpt><trkpt lat="42.66088997440461" lon="12.586425932627272"><ele>781.0</ele><time>2026-05-02T12:11:45.999Z</time></trkpt><trkpt lat="42.66083877908338" lon="12.586358881510291"><ele>781.0</ele><time>2026-05-02T12:11:47Z</time></trkpt><trkpt lat="42.66077329375251" lon="12.586211098828114"><ele>781.0</ele><time>2026-05-02T12:11:49Z</time></trkpt><trkpt lat="42.66076931540086" lon="12.586121741279172"><ele>781.0</ele><time>2026-05-02T12:11:50Z</time></trkpt><trkpt lat="42.66077764081305" lon="12.58597155124055"><ele>781.0</ele><time>2026-05-02T12:11:52Z</time></trkpt><trkpt lat="42.66079626623299" lon="12.585849321880744"><ele>780.8</ele><time>2026-05-02T12:11:54Z</time></trkpt><trkpt lat="42.66088347579132" lon="12.58578431222474"><ele>780.5999999999999</ele><time>2026-05-02T12:11:56Z</time></trkpt><trkpt lat="42.66101135924987" lon="12.585839800401848"><ele>780.4</ele><time>2026-05-02T12:11:58Z</time></trkpt><trkpt lat="42.66113010390907" lon="12.585824897674312"><ele>780.2</ele><time>2026-05-02T12:12:00Z</time></trkpt><trkpt lat="42.661191905687105" lon="12.585805092533183"><ele>780.0</ele><time>2026-05-02T12:12:01Z</time></trkpt><trkpt lat="42.661254986155896" lon="12.585783369913548"><ele>780.0</ele><time>2026-05-02T12:12:02Z</time></trkpt><trkpt lat="42.6613275263216" lon="12.585753503673581"><ele>780.0</ele><time>2026-05-02T12:12:03Z</time></trkpt><trkpt lat="42.661397885804256" lon="12.585731571006496"><ele>780.0</ele><time>2026-05-02T12:12:04Z</time></trkpt><trkpt lat="42.661466405860835" lon="12.58572307195341"><ele>780.0</ele><time>2026-05-02T12:12:05Z</time></trkpt><trkpt lat="42.66154383269678" lon="12.585729572865606"><ele>780.0</ele><time>2026-05-02T12:12:06Z</time></trkpt><trkpt lat="42.66162469456928" lon="12.585748605869997"><ele>780.0</ele><time>2026-05-02T12:12:07Z</time></trkpt><trkpt lat="42.661707698037134" lon="12.585782495225011"><ele>780.0</ele><time>2026-05-02T12:12:08Z</time></trkpt><trkpt lat="42.6618074042971" lon="12.585826114914006"><ele>780.0</ele><time>2026-05-02T12:12:09Z</time></trkpt><trkpt lat="42.661903560778526" lon="12.585882304077337"><ele>780.0</ele><time>2026-05-02T12:12:10Z</time></trkpt><trkpt lat="42.661996186709366" lon="12.585948614199593"><ele>780.0</ele><time>2026-05-02T12:12:11Z</time></trkpt><trkpt lat="42.66208133848977" lon="12.58601277350872"><ele>780.0</ele><time>2026-05-02T12:12:12Z</time></trkpt><trkpt lat="42.66215869835939" lon="12.586074039358387"><ele>780.2</ele><time>2026-05-02T12:12:13Z</time></trkpt><trkpt lat="42.66225709439296" lon="12.586123194933776"><ele>780.4</ele><time>2026-05-02T12:12:14Z</time></trkpt><trkpt lat="42.662369446205574" lon="12.586164954211416"><ele>780.5999999999999</ele><time>2026-05-02T12:12:15Z</time></trkpt><trkpt lat="42.662471360364655" lon="12.586190356760387"><ele>780.8</ele><time>2026-05-02T12:12:16Z</time></trkpt><trkpt lat="42.66255272935109" lon="12.586220557006213"><ele>781.0</ele><time>2026-05-02T12:12:17Z</time></trkpt><trkpt lat="42.66262878483244" lon="12.586240780529776"><ele>781.8333333333333</ele><time>2026-05-02T12:12:18Z</time></trkpt><trkpt lat="42.66271619716754" lon="12.586309715364058"><ele>782.6666666666666</ele><time>2026-05-02T12:12:20Z</time></trkpt><trkpt lat="42.66275483349193" lon="12.586397131144379"><ele>783.5</ele><time>2026-05-02T12:12:21Z</time></trkpt><trkpt lat="42.662795934840474" lon="12.586470562205811"><ele>784.3333333333333</ele><time>2026-05-02T12:12:22Z</time></trkpt><trkpt lat="42.66288912783334" lon="12.586593051881085"><ele>785.1666666666666</ele><time>2026-05-02T12:12:24Z</time></trkpt><trkpt lat="42.66295727566434" lon="12.586615444955852"><ele>786.0</ele><time>2026-05-02T12:12:25Z</time></trkpt><trkpt lat="42.66306189959862" lon="12.586652556775581"><ele>787.5999999999999</ele><time>2026-05-02T12:12:27Z</time></trkpt><trkpt lat="42.66319209431443" lon="12.586731061991502"><ele>789.2</ele><time>2026-05-02T12:12:29Z</time></trkpt><trkpt lat="42.66326186000419" lon="12.586759052086867"><ele>790.8</ele><time>2026-05-02T12:12:30Z</time></trkpt><trkpt lat="42.663341869481755" lon="12.586773118800028"><ele>792.4000000000001</ele><time>2026-05-02T12:12:31Z</time></trkpt><trkpt lat="42.663448723752325" lon="12.586783111405177"><ele>794.0</ele><time>2026-05-02T12:12:33Z</time></trkpt><trkpt lat="42.66352389908447" lon="12.586774942404753"><ele>794.0000000000001</ele><time>2026-05-02T12:12:34Z</time></trkpt><trkpt lat="42.66361339012792" lon="12.586773530073291"><ele>794.0</ele><time>2026-05-02T12:12:35Z</time></trkpt><trkpt lat="42.66367647374152" lon="12.586809957956959"><ele>794.0</ele><time>2026-05-02T12:12:36Z</time></trkpt><trkpt lat="42.66382466494494" lon="12.586830450454666"><ele>794.0</ele><time>2026-05-02T12:12:38Z</time></trkpt><trkpt lat="42.66389131456164" lon="12.586865316625124"><ele>794.0000000000001</ele><time>2026-05-02T12:12:39Z</time></trkpt><trkpt lat="42.663958751475185" lon="12.586895318936152"><ele>794.0</ele><time>2026-05-02T12:12:40Z</time></trkpt><trkpt lat="42.66402347106958" lon="12.586914949454341"><ele>794.3333333333334</ele><time>2026-05-02T12:12:41Z</time></trkpt><trkpt lat="42.664085729427505" lon="12.586899954107015"><ele>794.6666666666667</ele><time>2026-05-02T12:12:42Z</time></trkpt><trkpt lat="42.664152514634104" lon="12.586867428562474"><ele>795.0</ele><time>2026-05-02T12:12:43Z</time></trkpt><trkpt lat="42.664215371933906" lon="12.586839977208392"><ele>795.3333333333333</ele><time>2026-05-02T12:12:44Z</time></trkpt><trkpt lat="42.66429469222111" lon="12.586832510311474"><ele>795.6666666666666</ele><time>2026-05-02T12:12:45Z</time></trkpt><trkpt lat="42.664368903711846" lon="12.58686892940338"><ele>796.0</ele><time>2026-05-02T12:12:46Z</time></trkpt><trkpt lat="42.664477055624026" lon="12.58687516336398"><ele>795.3333333333333</ele><time>2026-05-02T12:12:48Z</time></trkpt><trkpt lat="42.664553307080475" lon="12.58686909290539"><ele>794.6666666666666</ele><time>2026-05-02T12:12:50Z</time></trkpt><trkpt lat="42.664617768461326" lon="12.58684724545109"><ele>794.0</ele><time>2026-05-02T12:12:53Z</time></trkpt><trkpt lat="42.664685005230076" lon="12.58681574566911"><ele>793.3333333333333</ele><time>2026-05-02T12:13:00Z</time></trkpt><trkpt lat="42.66475460024396" lon="12.586783261151465"><ele>792.6666666666666</ele><time>2026-05-02T12:13:02Z</time></trkpt><trkpt lat="42.66478642842034" lon="12.586664935520515"><ele>792.0</ele><time>2026-05-02T12:13:05Z</time></trkpt><trkpt lat="42.664901896817824" lon="12.586966298254826"><ele>793.0</ele><time>2026-05-02T12:13:08Z</time></trkpt><trkpt lat="42.66496062004159" lon="12.587093061581083"><ele>794.0</ele><time>2026-05-02T12:13:10Z</time></trkpt><trkpt lat="42.66499683254384" lon="12.587174982403369"><ele>795.0</ele><time>2026-05-02T12:13:11Z</time></trkpt><trkpt lat="42.66504651567275" lon="12.587315340791081"><ele>796.0</ele><time>2026-05-02T12:13:13Z</time></trkpt><trkpt lat="42.665078318291464" lon="12.587444093879784"><ele>797.0</ele><time>2026-05-02T12:13:15Z</time></trkpt><trkpt lat="42.66514508990221" lon="12.587589093760865"><ele>797.0000000000001</ele><time>2026-05-02T12:13:17Z</time></trkpt><trkpt lat="42.665186159581424" lon="12.587656070749505"><ele>797.0</ele><time>2026-05-02T12:13:18Z</time></trkpt><trkpt lat="42.66525264852114" lon="12.5877801466855"><ele>797.0</ele><time>2026-05-02T12:13:20Z</time></trkpt><trkpt lat="42.665333617332834" lon="12.587909042283545"><ele>797.0</ele><time>2026-05-02T12:13:22Z</time></trkpt><trkpt lat="42.66538382513018" lon="12.587981365953691"><ele>797.0000000000001</ele><time>2026-05-02T12:13:23Z</time></trkpt><trkpt lat="42.6654329047942" lon="12.588053514308854"><ele>797.0</ele><time>2026-05-02T12:13:24Z</time></trkpt><trkpt lat="42.66547798598755" lon="12.588125529885911"><ele>795.2</ele><time>2026-05-02T12:13:25Z</time></trkpt><trkpt lat="42.665518865248046" lon="12.588205165984887"><ele>793.4000000000001</ele><time>2026-05-02T12:13:26Z</time></trkpt><trkpt lat="42.66557768421298" lon="12.588319782880983"><ele>791.5999999999999</ele><time>2026-05-02T12:13:28Z</time></trkpt><trkpt lat="42.665609848709735" lon="12.588429958827987"><ele>789.8</ele><time>2026-05-02T12:13:30Z</time></trkpt><trkpt lat="42.66566894129138" lon="12.58854327456207"><ele>788.0</ele><time>2026-05-02T12:13:32Z</time></trkpt><trkpt lat="42.6657165620045" lon="12.588641650712415"><ele>787.3333333333334</ele><time>2026-05-02T12:13:34Z</time></trkpt><trkpt lat="42.6657754300291" lon="12.588705204163919"><ele>786.6666666666667</ele><time>2026-05-02T12:13:36Z</time></trkpt><trkpt lat="42.66582441117018" lon="12.588761472290056"><ele>786.0</ele><time>2026-05-02T12:13:37Z</time></trkpt><trkpt lat="42.665922239672575" lon="12.588844639508352"><ele>785.3333333333333</ele><time>2026-05-02T12:13:39Z</time></trkpt><trkpt lat="42.66601689491835" lon="12.588926172073192"><ele>784.6666666666666</ele><time>2026-05-02T12:13:41Z</time></trkpt><trkpt lat="42.66607166588899" lon="12.588982372641748"><ele>784.0</ele><time>2026-05-02T12:13:42Z</time></trkpt><trkpt lat="42.66612341820247" lon="12.589040893152958"><ele>782.8000000000001</ele><time>2026-05-02T12:13:43Z</time></trkpt><trkpt lat="42.66621315422238" lon="12.589118817999077"><ele>781.6</ele><time>2026-05-02T12:13:45Z</time></trkpt><trkpt lat="42.66630290905991" lon="12.589243732409196"><ele>780.4</ele><time>2026-05-02T12:13:47Z</time></trkpt><trkpt lat="42.666394916082176" lon="12.58935773491009"><ele>779.2</ele><time>2026-05-02T12:13:49Z</time></trkpt><trkpt lat="42.66644366335036" lon="12.58942170577338"><ele>778.0</ele><time>2026-05-02T12:13:50Z</time></trkpt><trkpt lat="42.66650402905449" lon="12.589549639527297"><ele>777.3333333333333</ele><time>2026-05-02T12:13:52Z</time></trkpt><trkpt lat="42.66656006508363" lon="12.589686491496504"><ele>776.6666666666666</ele><time>2026-05-02T12:13:54Z</time></trkpt><trkpt lat="42.66660617847339" lon="12.589748105128942"><ele>776.0</ele><time>2026-05-02T12:13:55Z</time></trkpt><trkpt lat="42.66666677913675" lon="12.58979168074506"><ele>775.3333333333333</ele><time>2026-05-02T12:13:56Z</time></trkpt><trkpt lat="42.66673286884483" lon="12.589833633738298"><ele>774.6666666666666</ele><time>2026-05-02T12:13:57Z</time></trkpt><trkpt lat="42.666827115241844" lon="12.589887791605593"><ele>774.0</ele><time>2026-05-02T12:13:59Z</time></trkpt><trkpt lat="42.66688574388392" lon="12.589954510023048"><ele>771.2</ele><time>2026-05-02T12:14:04Z</time></trkpt><trkpt lat="42.666984305893926" lon="12.590004151234806"><ele>768.4000000000001</ele><time>2026-05-02T12:14:06Z</time></trkpt><trkpt lat="42.66707437676347" lon="12.590073447258465"><ele>765.6</ele><time>2026-05-02T12:14:08Z</time></trkpt><trkpt lat="42.66717406591394" lon="12.590102784122655"><ele>762.8</ele><time>2026-05-02T12:14:10Z</time></trkpt><trkpt lat="42.66724559192221" lon="12.590111516493705"><ele>760.0</ele><time>2026-05-02T12:14:12Z</time></trkpt><trkpt lat="42.66732102349214" lon="12.59009978566536"><ele>760.0</ele><time>2026-05-02T12:14:15Z</time></trkpt><trkpt lat="42.66739403997134" lon="12.590099134833252"><ele>760.0</ele><time>2026-05-02T12:14:17Z</time></trkpt><trkpt lat="42.667462188377066" lon="12.590124498322"><ele>760.0</ele><time>2026-05-02T12:14:19Z</time></trkpt><trkpt lat="42.667540946004095" lon="12.59014399967701"><ele>760.0</ele><time>2026-05-02T12:14:21Z</time></trkpt><trkpt lat="42.667635194711956" lon="12.590176081230362"><ele>760.0</ele><time>2026-05-02T12:14:23Z</time></trkpt><trkpt lat="42.66771393259792" lon="12.590192671674963"><ele>760.0</ele><time>2026-05-02T12:14:25Z</time></trkpt><trkpt lat="42.66778635455928" lon="12.590214359402696"><ele>758.1666666666667</ele><time>2026-05-02T12:14:27Z</time></trkpt><trkpt lat="42.6678938767448" lon="12.590253385122105"><ele>756.3333333333334</ele><time>2026-05-02T12:14:29Z</time></trkpt><trkpt lat="42.66796897494251" lon="12.59025868283577"><ele>754.5</ele><time>2026-05-02T12:14:31Z</time></trkpt><trkpt lat="42.66806369698571" lon="12.590295367389581"><ele>752.6666666666666</ele><time>2026-05-02T12:14:34Z</time></trkpt><trkpt lat="42.66814309562263" lon="12.59031167502249"><ele>750.8333333333333</ele><time>2026-05-02T12:14:36Z</time></trkpt><trkpt lat="42.66821491680792" lon="12.590302850961454"><ele>749.0</ele><time>2026-05-02T12:14:38Z</time></trkpt><trkpt lat="42.66829159848015" lon="12.590307406227092"><ele>750.3333333333333</ele><time>2026-05-02T12:14:41Z</time></trkpt><trkpt lat="42.66835840812318" lon="12.590344219823"><ele>751.6666666666666</ele><time>2026-05-02T12:14:45Z</time></trkpt><trkpt lat="42.668421187935124" lon="12.590359804844432"><ele>753.0</ele><time>2026-05-02T12:14:47Z</time></trkpt><trkpt lat="42.66851431602911" lon="12.590372008422673"><ele>754.3333333333334</ele><time>2026-05-02T12:14:50Z</time></trkpt><trkpt lat="42.668599013775" lon="12.590361548826797"><ele>755.6666666666667</ele><time>2026-05-02T12:14:53Z</time></trkpt><trkpt lat="42.668664307459736" lon="12.590406466648604"><ele>757.0</ele><time>2026-05-02T12:14:55Z</time></trkpt><trkpt lat="42.66876425293291" lon="12.59039143588394"><ele>753.8333333333334</ele><time>2026-05-02T12:14:57Z</time></trkpt><trkpt lat="42.668849350792634" lon="12.590398587359964"><ele>750.6666666666667</ele><time>2026-05-02T12:15:00Z</time></trkpt><trkpt lat="42.66891253777759" lon="12.590417281761672"><ele>747.5</ele><time>2026-05-02T12:15:02Z</time></trkpt><trkpt lat="42.66899217877352" lon="12.590412908608144"><ele>744.3333333333334</ele><time>2026-05-02T12:15:05Z</time></trkpt><trkpt lat="42.66908117324187" lon="12.590404392807976"><ele>741.1666666666666</ele><time>2026-05-02T12:15:07Z</time></trkpt><trkpt lat="42.66914827839191" lon="12.590434813666812"><ele>738.0</ele><time>2026-05-02T12:15:09Z</time></trkpt><trkpt lat="42.669225686361" lon="12.590455257481203"><ele>738.0</ele><time>2026-05-02T12:15:11Z</time></trkpt><trkpt lat="42.669305557264586" lon="12.590422743173209"><ele>738.0</ele><time>2026-05-02T12:15:13Z</time></trkpt><trkpt lat="42.66937523383472" lon="12.590382778114181"><ele>738.0</ele><time>2026-05-02T12:15:15Z</time></trkpt><trkpt lat="42.66943690440786" lon="12.590321869016952"><ele>738.0</ele><time>2026-05-02T12:15:18Z</time></trkpt><trkpt lat="42.66954091662696" lon="12.590310416399227"><ele>738.0</ele><time>2026-05-02T12:15:20Z</time></trkpt><trkpt lat="42.66961268967794" lon="12.590284014296481"><ele>738.0</ele><time>2026-05-02T12:15:21Z</time></trkpt><trkpt lat="42.66968062730969" lon="12.590260856269467"><ele>732.0</ele><time>2026-05-02T12:15:22Z</time></trkpt><trkpt lat="42.66974354976219" lon="12.590213802913455"><ele>726.0</ele><time>2026-05-02T12:15:24Z</time></trkpt><trkpt lat="42.669848385850806" lon="12.590243814995608"><ele>720.0</ele><time>2026-05-02T12:15:28Z</time></trkpt><trkpt lat="42.66993178731643" lon="12.590203030489809"><ele>714.0</ele><time>2026-05-02T12:15:30Z</time></trkpt><trkpt lat="42.66999257574429" lon="12.59015715633862"><ele>708.0</ele><time>2026-05-02T12:15:32Z</time></trkpt><trkpt lat="42.670052617876024" lon="12.59012270899181"><ele>702.0</ele><time>2026-05-02T12:15:34Z</time></trkpt><trkpt lat="42.670125088397924" lon="12.590065973715054"><ele>702.0</ele><time>2026-05-02T12:15:36Z</time></trkpt><trkpt lat="42.67018743968057" lon="12.590024382822733"><ele>702.0</ele><time>2026-05-02T12:15:38Z</time></trkpt><trkpt lat="42.67025915428158" lon="12.589983194084388"><ele>702.0</ele><time>2026-05-02T12:15:41Z</time></trkpt><trkpt lat="42.670349450399016" lon="12.589937488870843"><ele>702.0</ele><time>2026-05-02T12:15:45Z</time></trkpt><trkpt lat="42.67042054516358" lon="12.58988028738661"><ele>702.0</ele><time>2026-05-02T12:15:49Z</time></trkpt><trkpt lat="42.67047692231803" lon="12.58983828204484"><ele>702.0</ele><time>2026-05-02T12:15:51Z</time></trkpt><trkpt lat="42.670554137639456" lon="12.5897840386842"><ele>699.3333333333334</ele><time>2026-05-02T12:15:53.999Z</time></trkpt><trkpt lat="42.67060740803608" lon="12.58970832587876"><ele>696.6666666666666</ele><time>2026-05-02T12:15:56.999Z</time></trkpt><trkpt lat="42.67066052232333" lon="12.589646788988933"><ele>694.0</ele><time>2026-05-02T12:15:59Z</time></trkpt><trkpt lat="42.67074462240141" lon="12.589577517932424"><ele>691.3333333333333</ele><time>2026-05-02T12:16:01Z</time></trkpt><trkpt lat="42.67080027554472" lon="12.589507584526253"><ele>688.6666666666666</ele><time>2026-05-02T12:16:03Z</time></trkpt><trkpt lat="42.67081488442584" lon="12.589416178081445"><ele>686.0</ele><time>2026-05-02T12:16:06Z</time></trkpt><trkpt lat="42.670844751281045" lon="12.589327089893121"><ele>684.1666666666666</ele><time>2026-05-02T12:16:08Z</time></trkpt><trkpt lat="42.67088370914804" lon="12.589243032542944"><ele>682.3333333333333</ele><time>2026-05-02T12:16:10Z</time></trkpt><trkpt lat="42.67090678752181" lon="12.589108471239234"><ele>680.5</ele><time>2026-05-02T12:16:12Z</time></trkpt><trkpt lat="42.670938132074696" lon="12.589003358304552"><ele>678.6666666666666</ele><time>2026-05-02T12:16:14Z</time></trkpt><trkpt lat="42.670958989248106" lon="12.588877119320916"><ele>676.8333333333334</ele><time>2026-05-02T12:16:16Z</time></trkpt><trkpt lat="42.67100547674751" lon="12.588774707671327"><ele>675.0</ele><time>2026-05-02T12:16:18Z</time></trkpt><trkpt lat="42.67105558331852" lon="12.588700411839266"><ele>674.5</ele><time>2026-05-02T12:16:20Z</time></trkpt><trkpt lat="42.67110311132977" lon="12.58863931827738"><ele>674.0</ele><time>2026-05-02T12:16:23Z</time></trkpt><trkpt lat="42.671163258004434" lon="12.588610732265563"><ele>673.5</ele><time>2026-05-02T12:17:49Z</time></trkpt><trkpt lat="42.67120871729803" lon="12.58871360840269"><ele>673.0</ele><time>2026-05-02T12:17:51Z</time></trkpt><trkpt lat="42.671288541809844" lon="12.58879348673104"><ele>672.5</ele><time>2026-05-02T12:17:53Z</time></trkpt><trkpt lat="42.67140880220383" lon="12.588843562578933"><ele>672.0</ele><time>2026-05-02T12:17:55Z</time></trkpt><trkpt lat="42.67152000944815" lon="12.588841665592104"><ele>670.6666666666666</ele><time>2026-05-02T12:17:57Z</time></trkpt><trkpt lat="42.671588022953785" lon="12.588830628817762"><ele>669.3333333333334</ele><time>2026-05-02T12:17:58Z</time></trkpt><trkpt lat="42.67167279856581" lon="12.588818563776188"><ele>668.0</ele><time>2026-05-02T12:17:59Z</time></trkpt><trkpt lat="42.67175449389246" lon="12.588841492354357"><ele>666.6666666666667</ele><time>2026-05-02T12:17:59.999Z</time></trkpt><trkpt lat="42.67182249162668" lon="12.588893878782578"><ele>665.3333333333334</ele><time>2026-05-02T12:18:00.999Z</time></trkpt><trkpt lat="42.671885664193006" lon="12.588938304953276"><ele>664.0</ele><time>2026-05-02T12:18:01.999Z</time></trkpt><trkpt lat="42.671941357101055" lon="12.589007999712837"><ele>662.1666666666667</ele><time>2026-05-02T12:18:02.999Z</time></trkpt><trkpt lat="42.67200049879049" lon="12.589092483802835"><ele>660.3333333333334</ele><time>2026-05-02T12:18:03.999Z</time></trkpt><trkpt lat="42.672054378486365" lon="12.589182802127084"><ele>658.5</ele><time>2026-05-02T12:18:05Z</time></trkpt><trkpt lat="42.67211607273542" lon="12.589266751618311"><ele>656.6666666666666</ele><time>2026-05-02T12:18:06Z</time></trkpt><trkpt lat="42.67218763741143" lon="12.589343925231859"><ele>654.8333333333333</ele><time>2026-05-02T12:18:07Z</time></trkpt><trkpt lat="42.67228023672003" lon="12.589383838948727"><ele>653.0</ele><time>2026-05-02T12:18:08Z</time></trkpt><trkpt lat="42.67237689188254" lon="12.589418697523717"><ele>653.0</ele><time>2026-05-02T12:18:09Z</time></trkpt><trkpt lat="42.67246147793388" lon="12.589440034148538"><ele>653.0</ele><time>2026-05-02T12:18:10Z</time></trkpt><trkpt lat="42.6725471466542" lon="12.589438545793158"><ele>653.0</ele><time>2026-05-02T12:18:11Z</time></trkpt><trkpt lat="42.67264504480843" lon="12.589463287625978"><ele>653.0</ele><time>2026-05-02T12:18:12Z</time></trkpt><trkpt lat="42.672740762278" lon="12.589481191268716"><ele>653.0</ele><time>2026-05-02T12:18:13Z</time></trkpt><trkpt lat="42.67283271090076" lon="12.589494813747502"><ele>650.4</ele><time>2026-05-02T12:18:14Z</time></trkpt><trkpt lat="42.67294179833716" lon="12.589507976251083"><ele>647.8</ele><time>2026-05-02T12:18:15Z</time></trkpt><trkpt lat="42.67304045480941" lon="12.589528805972497"><ele>645.2</ele><time>2026-05-02T12:18:16Z</time></trkpt><trkpt lat="42.6731336278464" lon="12.589552616211531"><ele>642.6</ele><time>2026-05-02T12:18:17Z</time></trkpt><trkpt lat="42.67322664620069" lon="12.589562370693445"><ele>640.0</ele><time>2026-05-02T12:18:18Z</time></trkpt><trkpt lat="42.673325506604115" lon="12.589571287511495"><ele>640.4</ele><time>2026-05-02T12:18:19Z</time></trkpt><trkpt lat="42.67342912683887" lon="12.58958223217289"><ele>640.8</ele><time>2026-05-02T12:18:20Z</time></trkpt><trkpt lat="42.6735272643471" lon="12.589597259774521"><ele>641.2</ele><time>2026-05-02T12:18:21Z</time></trkpt><trkpt lat="42.673613814552255" lon="12.589625297040252"><ele>641.6</ele><time>2026-05-02T12:18:22Z</time></trkpt><trkpt lat="42.67372006679994" lon="12.589653711700208"><ele>642.0</ele><time>2026-05-02T12:18:23Z</time></trkpt><trkpt lat="42.67381709381562" lon="12.589741519660343"><ele>642.0</ele><time>2026-05-02T12:18:24Z</time></trkpt><trkpt lat="42.673886823093724" lon="12.589840421943565"><ele>642.0</ele><time>2026-05-02T12:18:25Z</time></trkpt><trkpt lat="42.67395245335978" lon="12.589948981268309"><ele>642.0</ele><time>2026-05-02T12:18:26Z</time></trkpt><trkpt lat="42.674006817502885" lon="12.590073425541505"><ele>642.0</ele><time>2026-05-02T12:18:27Z</time></trkpt><trkpt lat="42.67406266222582" lon="12.590214490452594"><ele>642.0</ele><time>2026-05-02T12:18:28Z</time></trkpt><trkpt lat="42.674136103326326" lon="12.590369282997555"><ele>646.0</ele><time>2026-05-02T12:18:29Z</time></trkpt><trkpt lat="42.67418452090006" lon="12.590523390066686"><ele>650.0</ele><time>2026-05-02T12:18:30Z</time></trkpt><trkpt lat="42.674229606949474" lon="12.590672469936928"><ele>654.0</ele><time>2026-05-02T12:18:31Z</time></trkpt><trkpt lat="42.67428299873234" lon="12.590831792026567"><ele>658.0</ele><time>2026-05-02T12:18:32Z</time></trkpt><trkpt lat="42.67432498344166" lon="12.590980354782083"><ele>658.0</ele><time>2026-05-02T12:18:33Z</time></trkpt><trkpt lat="42.674363026634005" lon="12.591132224354954"><ele>658.0</ele><time>2026-05-02T12:18:34Z</time></trkpt><trkpt lat="42.67440844798402" lon="12.591292658153836"><ele>658.0</ele><time>2026-05-02T12:18:35Z</time></trkpt><trkpt lat="42.67444275589316" lon="12.59145626918055"><ele>658.0</ele><time>2026-05-02T12:18:36Z</time></trkpt><trkpt lat="42.674470497003234" lon="12.591603171004849"><ele>652.0</ele><time>2026-05-02T12:18:37Z</time></trkpt><trkpt lat="42.674499480070466" lon="12.591741009842547"><ele>646.0</ele><time>2026-05-02T12:18:38Z</time></trkpt><trkpt lat="42.6745184056315" lon="12.591887388745459"><ele>640.0</ele><time>2026-05-02T12:18:39Z</time></trkpt><trkpt lat="42.67454171690992" lon="12.592038968585515"><ele>634.0</ele><time>2026-05-02T12:18:40Z</time></trkpt><trkpt lat="42.67453981541999" lon="12.592194476785583"><ele>628.0</ele><time>2026-05-02T12:18:41Z</time></trkpt><trkpt lat="42.67453904162532" lon="12.592359314747922"><ele>628.0</ele><time>2026-05-02T12:18:42Z</time></trkpt><trkpt lat="42.674565086898134" lon="12.592539785133017"><ele>628.0</ele><time>2026-05-02T12:18:43Z</time></trkpt><trkpt lat="42.67459269413899" lon="12.59269673337479"><ele>628.0</ele><time>2026-05-02T12:18:44Z</time></trkpt><trkpt lat="42.67461785370193" lon="12.592862555071097"><ele>628.0</ele><time>2026-05-02T12:18:45Z</time></trkpt><trkpt lat="42.674651009882126" lon="12.593030102861448"><ele>630.0</ele><time>2026-05-02T12:18:46Z</time></trkpt><trkpt lat="42.67468322316788" lon="12.593186160854723"><ele>632.0</ele><time>2026-05-02T12:18:47Z</time></trkpt><trkpt lat="42.67472433274617" lon="12.593333037250792"><ele>634.0</ele><time>2026-05-02T12:18:48Z</time></trkpt><trkpt lat="42.6747689475548" lon="12.593482972228669"><ele>636.0</ele><time>2026-05-02T12:18:49Z</time></trkpt><trkpt lat="42.67483979343007" lon="12.593614380616438"><ele>639.25</ele><time>2026-05-02T12:18:50Z</time></trkpt><trkpt lat="42.67492388706657" lon="12.593749411791165"><ele>642.5</ele><time>2026-05-02T12:18:51Z</time></trkpt><trkpt lat="42.675004372109335" lon="12.593881241004059"><ele>645.75</ele><time>2026-05-02T12:18:52Z</time></trkpt><trkpt lat="42.67505848596432" lon="12.594022487843347"><ele>649.0</ele><time>2026-05-02T12:18:53Z</time></trkpt><trkpt lat="42.67509914754093" lon="12.594185284644464"><ele>649.0</ele><time>2026-05-02T12:18:54Z</time></trkpt><trkpt lat="42.67513042613118" lon="12.594368154654264"><ele>649.0</ele><time>2026-05-02T12:18:55Z</time></trkpt><trkpt lat="42.67515958282777" lon="12.594551391435933"><ele>649.0</ele><time>2026-05-02T12:18:56Z</time></trkpt><trkpt lat="42.67519729844941" lon="12.594738215537388"><ele>649.0</ele><time>2026-05-02T12:18:57Z</time></trkpt><trkpt lat="42.675216236841464" lon="12.594929334112527"><ele>651.25</ele><time>2026-05-02T12:18:58Z</time></trkpt><trkpt lat="42.67524008141241" lon="12.595108527628387"><ele>653.5</ele><time>2026-05-02T12:18:59Z</time></trkpt><trkpt lat="42.675257348054835" lon="12.595293009054938"><ele>655.75</ele><time>2026-05-02T12:19:00Z</time></trkpt><trkpt lat="42.675259836578135" lon="12.595472606149352"><ele>658.0</ele><time>2026-05-02T12:19:01Z</time></trkpt><trkpt lat="42.67527704552851" lon="12.595648426466747"><ele>658.25</ele><time>2026-05-02T12:19:02Z</time></trkpt><trkpt lat="42.67528463159348" lon="12.595807470042057"><ele>658.5</ele><time>2026-05-02T12:19:03Z</time></trkpt><trkpt lat="42.675281750280384" lon="12.595963024799598"><ele>658.75</ele><time>2026-05-02T12:19:04Z</time></trkpt><trkpt lat="42.67526110239097" lon="12.596145297210539"><ele>659.0</ele><time>2026-05-02T12:19:05Z</time></trkpt><trkpt lat="42.675244944691926" lon="12.596336240998395"><ele>656.5</ele><time>2026-05-02T12:19:06Z</time></trkpt><trkpt lat="42.67523367837423" lon="12.596516646311578"><ele>654.0</ele><time>2026-05-02T12:19:07Z</time></trkpt><trkpt lat="42.67521726285787" lon="12.59667073233098"><ele>651.5</ele><time>2026-05-02T12:19:08Z</time></trkpt><trkpt lat="42.675204195777916" lon="12.596827334517073"><ele>649.0</ele><time>2026-05-02T12:19:09Z</time></trkpt><trkpt lat="42.67518029754134" lon="12.596973184131214"><ele>646.5</ele><time>2026-05-02T12:19:10Z</time></trkpt><trkpt lat="42.67513640200961" lon="12.59710434678981"><ele>644.0</ele><time>2026-05-02T12:19:11Z</time></trkpt><trkpt lat="42.67505620323738" lon="12.597247041177827"><ele>641.5</ele><time>2026-05-02T12:19:12Z</time></trkpt><trkpt lat="42.67496490078964" lon="12.597369031364543"><ele>639.0</ele><time>2026-05-02T12:19:13Z</time></trkpt><trkpt lat="42.67489117937352" lon="12.59745977947196"><ele>639.0</ele><time>2026-05-02T12:19:14Z</time></trkpt><trkpt lat="42.6748560330614" lon="12.597545628517866"><ele>639.0</ele><time>2026-05-02T12:19:15Z</time></trkpt><trkpt lat="42.67486343525571" lon="12.597640415052632"><ele>639.0</ele><time>2026-05-02T12:19:16Z</time></trkpt><trkpt lat="42.674882499339844" lon="12.597738289554673"><ele>639.0</ele><time>2026-05-02T12:19:17Z</time></trkpt><trkpt lat="42.67498321164482" lon="12.597809197034707"><ele>639.0</ele><time>2026-05-02T12:19:18Z</time></trkpt><trkpt lat="42.67507802135499" lon="12.597888745758926"><ele>639.0</ele><time>2026-05-02T12:19:19Z</time></trkpt><trkpt lat="42.67515374611749" lon="12.597984316260568"><ele>640.0</ele><time>2026-05-02T12:19:20Z</time></trkpt><trkpt lat="42.67523435188577" lon="12.598063227229224"><ele>641.0</ele><time>2026-05-02T12:19:21Z</time></trkpt><trkpt lat="42.67532445238684" lon="12.598137382365582"><ele>642.0</ele><time>2026-05-02T12:19:22Z</time></trkpt><trkpt lat="42.67539393956577" lon="12.598235976947779"><ele>643.0</ele><time>2026-05-02T12:19:23Z</time></trkpt><trkpt lat="42.675455984194365" lon="12.598340781963328"><ele>644.0</ele><time>2026-05-02T12:19:24Z</time></trkpt><trkpt lat="42.67551073624152" lon="12.598469866383736"><ele>636.5</ele><time>2026-05-02T12:19:25Z</time></trkpt><trkpt lat="42.67556297048173" lon="12.59862400339394"><ele>629.0</ele><time>2026-05-02T12:19:26Z</time></trkpt><trkpt lat="42.67561887240618" lon="12.59877977740268"><ele>621.5</ele><time>2026-05-02T12:19:27Z</time></trkpt><trkpt lat="42.675666587368944" lon="12.59893464638479"><ele>614.0</ele><time>2026-05-02T12:19:28Z</time></trkpt><trkpt lat="42.675715438974734" lon="12.599069447420632"><ele>614.0</ele><time>2026-05-02T12:19:29Z</time></trkpt><trkpt lat="42.67575069160862" lon="12.599190249581198"><ele>614.0</ele><time>2026-05-02T12:19:30Z</time></trkpt><trkpt lat="42.675764265400595" lon="12.599295251992032"><ele>614.0</ele><time>2026-05-02T12:19:31Z</time></trkpt><trkpt lat="42.675737630316405" lon="12.599388107922893"><ele>614.0</ele><time>2026-05-02T12:19:32Z</time></trkpt><trkpt lat="42.675676283488166" lon="12.599455273209333"><ele>614.0</ele><time>2026-05-02T12:19:33Z</time></trkpt><trkpt lat="42.67556015338843" lon="12.599467075406068"><ele>614.0</ele><time>2026-05-02T12:19:34Z</time></trkpt><trkpt lat="42.675444801654095" lon="12.599522833856033"><ele>615.6</ele><time>2026-05-02T12:19:35Z</time></trkpt><trkpt lat="42.675335755161335" lon="12.599541205892661"><ele>617.2</ele><time>2026-05-02T12:19:36Z</time></trkpt><trkpt lat="42.675242298050755" lon="12.599534976337182"><ele>618.8000000000001</ele><time>2026-05-02T12:19:37Z</time></trkpt><trkpt lat="42.67516424396666" lon="12.599480698034277"><ele>620.4</ele><time>2026-05-02T12:19:38Z</time></trkpt><trkpt lat="42.67509825587314" lon="12.599372289583547"><ele>622.0</ele><time>2026-05-02T12:19:39Z</time></trkpt><trkpt lat="42.67500431426724" lon="12.599246932295706"><ele>622.0</ele><time>2026-05-02T12:19:40Z</time></trkpt><trkpt lat="42.67488489155421" lon="12.599147097313576"><ele>622.0</ele><time>2026-05-02T12:19:41Z</time></trkpt><trkpt lat="42.674757095906685" lon="12.599061106377535"><ele>622.0</ele><time>2026-05-02T12:19:42Z</time></trkpt><trkpt lat="42.674621152528225" lon="12.599007324048303"><ele>622.0</ele><time>2026-05-02T12:19:43Z</time></trkpt><trkpt lat="42.67449808509595" lon="12.598947951680298"><ele>618.0</ele><time>2026-05-02T12:19:44Z</time></trkpt><trkpt lat="42.67438173811961" lon="12.598907627389796"><ele>614.0</ele><time>2026-05-02T12:19:45Z</time></trkpt><trkpt lat="42.6742607574268" lon="12.598867764109794"><ele>610.0</ele><time>2026-05-02T12:19:46Z</time></trkpt><trkpt lat="42.67413014085947" lon="12.598829740361952"><ele>606.0</ele><time>2026-05-02T12:19:47Z</time></trkpt><trkpt lat="42.67401124901701" lon="12.598798598131387"><ele>606.0</ele><time>2026-05-02T12:19:48Z</time></trkpt><trkpt lat="42.67389282127879" lon="12.59877562067357"><ele>606.0</ele><time>2026-05-02T12:19:49Z</time></trkpt><trkpt lat="42.67376432982042" lon="12.598768834259635"><ele>606.0</ele><time>2026-05-02T12:19:50Z</time></trkpt><trkpt lat="42.673641977299525" lon="12.598790790375434"><ele>606.0</ele><time>2026-05-02T12:19:51Z</time></trkpt><trkpt lat="42.673508004171914" lon="12.598810783798772"><ele>607.0</ele><time>2026-05-02T12:19:52Z</time></trkpt><trkpt lat="42.67337017657913" lon="12.598855992497384"><ele>608.0</ele><time>2026-05-02T12:19:53Z</time></trkpt><trkpt lat="42.67323002031563" lon="12.598940341736904"><ele>609.0</ele><time>2026-05-02T12:19:54Z</time></trkpt><trkpt lat="42.67308266582428" lon="12.599004688928227"><ele>609.0</ele><time>2026-05-02T12:19:55Z</time></trkpt><trkpt lat="42.67294973172889" lon="12.599073532195572"><ele>609.0</ele><time>2026-05-02T12:19:56Z</time></trkpt><trkpt lat="42.67283403015838" lon="12.599170231838512"><ele>609.0</ele><time>2026-05-02T12:19:57Z</time></trkpt><trkpt lat="42.67270844329726" lon="12.599284433149574"><ele>609.0</ele><time>2026-05-02T12:19:58Z</time></trkpt><trkpt lat="42.67258440189761" lon="12.59939509996508"><ele>606.75</ele><time>2026-05-02T12:19:59Z</time></trkpt><trkpt lat="42.672471938756054" lon="12.599510998317047"><ele>604.5</ele><time>2026-05-02T12:20:00Z</time></trkpt><trkpt lat="42.672372158032026" lon="12.599642437284365"><ele>602.25</ele><time>2026-05-02T12:20:01Z</time></trkpt><trkpt lat="42.67228190857452" lon="12.59979450405358"><ele>600.0</ele><time>2026-05-02T12:20:02Z</time></trkpt><trkpt lat="42.672202727154094" lon="12.599950110210585"><ele>600.0</ele><time>2026-05-02T12:20:03Z</time></trkpt><trkpt lat="42.67213090663079" lon="12.600102076105888"><ele>600.0</ele><time>2026-05-02T12:20:04Z</time></trkpt><trkpt lat="42.67204661348585" lon="12.600242132664219"><ele>600.0</ele><time>2026-05-02T12:20:05Z</time></trkpt><trkpt lat="42.671982567740244" lon="12.600383711155553"><ele>600.0</ele><time>2026-05-02T12:20:06Z</time></trkpt><trkpt lat="42.671924400468214" lon="12.60051485230421"><ele>599.4</ele><time>2026-05-02T12:20:07Z</time></trkpt><trkpt lat="42.67186340252311" lon="12.600622988636946"><ele>598.8</ele><time>2026-05-02T12:20:08Z</time></trkpt><trkpt lat="42.67178441047424" lon="12.600683709146983"><ele>598.2</ele><time>2026-05-02T12:20:09Z</time></trkpt><trkpt lat="42.67168992071879" lon="12.600681877636005"><ele>597.6</ele><time>2026-05-02T12:20:10Z</time></trkpt><trkpt lat="42.671569207142575" lon="12.60067017352824"><ele>597.0</ele><time>2026-05-02T12:20:11Z</time></trkpt><trkpt lat="42.67141394960437" lon="12.600659259247358"><ele>597.0</ele><time>2026-05-02T12:20:12Z</time></trkpt><trkpt lat="42.671258727672516" lon="12.600628878094515"><ele>597.0</ele><time>2026-05-02T12:20:13Z</time></trkpt><trkpt lat="42.67111853420204" lon="12.600582239665364"><ele>597.0</ele><time>2026-05-02T12:20:14Z</time></trkpt><trkpt lat="42.6709844853616" lon="12.600575897649499"><ele>597.0</ele><time>2026-05-02T12:20:15Z</time></trkpt><trkpt lat="42.67086533161802" lon="12.600576750208969"><ele>596.4</ele><time>2026-05-02T12:20:16Z</time></trkpt><trkpt lat="42.67074204895239" lon="12.60058032397118"><ele>595.8000000000001</ele><time>2026-05-02T12:20:17Z</time></trkpt><trkpt lat="42.67062779974137" lon="12.600559890671152"><ele>595.2</ele><time>2026-05-02T12:20:18Z</time></trkpt><trkpt lat="42.670537920406424" lon="12.600499499647757"><ele>594.6</ele><time>2026-05-02T12:20:19Z</time></trkpt><trkpt lat="42.67047372982497" lon="12.600416302666096"><ele>594.0</ele><time>2026-05-02T12:20:20Z</time></trkpt><trkpt lat="42.67038915560747" lon="12.60036422912233"><ele>594.3333333333334</ele><time>2026-05-02T12:20:21Z</time></trkpt><trkpt lat="42.670337014746494" lon="12.600298477005122"><ele>594.6666666666666</ele><time>2026-05-02T12:20:22Z</time></trkpt><trkpt lat="42.670274025307876" lon="12.600279487338629"><ele>595.0</ele><time>2026-05-02T12:20:23Z</time></trkpt><trkpt lat="42.670199445351564" lon="12.600305156714757"><ele>595.3333333333333</ele><time>2026-05-02T12:20:24Z</time></trkpt><trkpt lat="42.670124027505395" lon="12.600384992687307"><ele>595.6666666666666</ele><time>2026-05-02T12:20:25Z</time></trkpt><trkpt lat="42.67001670557017" lon="12.600481013540298"><ele>596.0</ele><time>2026-05-02T12:20:26Z</time></trkpt><trkpt lat="42.66993259571802" lon="12.60058545575604"><ele>596.0</ele><time>2026-05-02T12:20:27Z</time></trkpt><trkpt lat="42.66984664965928" lon="12.600704053446792"><ele>596.0</ele><time>2026-05-02T12:20:28Z</time></trkpt><trkpt lat="42.6697505711719" lon="12.600807789229668"><ele>596.0</ele><time>2026-05-02T12:20:29Z</time></trkpt><trkpt lat="42.66963588729609" lon="12.600903143825276"><ele>596.0</ele><time>2026-05-02T12:20:30Z</time></trkpt><trkpt lat="42.66952299580573" lon="12.60101629183678"><ele>597.25</ele><time>2026-05-02T12:20:31Z</time></trkpt><trkpt lat="42.66942342298791" lon="12.601130819532115"><ele>598.5</ele><time>2026-05-02T12:20:32Z</time></trkpt><trkpt lat="42.669306670060564" lon="12.60123094490381"><ele>599.75</ele><time>2026-05-02T12:20:33Z</time></trkpt><trkpt lat="42.66920418855743" lon="12.601338242327232"><ele>601.0</ele><time>2026-05-02T12:20:34Z</time></trkpt><trkpt lat="42.669107845983106" lon="12.601472943662609"><ele>601.0</ele><time>2026-05-02T12:20:35Z</time></trkpt><trkpt lat="42.669018235496964" lon="12.601623063885357"><ele>601.0</ele><time>2026-05-02T12:20:36Z</time></trkpt><trkpt lat="42.66892433757529" lon="12.601783534706076"><ele>601.0</ele><time>2026-05-02T12:20:37Z</time></trkpt><trkpt lat="42.66883619021502" lon="12.601949747992137"><ele>601.0</ele><time>2026-05-02T12:20:38Z</time></trkpt><trkpt lat="42.668764112612315" lon="12.602091428007261"><ele>598.75</ele><time>2026-05-02T12:20:39Z</time></trkpt><trkpt lat="42.668690777469116" lon="12.602265051588388"><ele>596.5</ele><time>2026-05-02T12:20:40Z</time></trkpt><trkpt lat="42.668620940034245" lon="12.602422149538812"><ele>594.25</ele><time>2026-05-02T12:20:41Z</time></trkpt><trkpt lat="42.66856127042267" lon="12.602573570453698"><ele>592.0</ele><time>2026-05-02T12:20:42Z</time></trkpt><trkpt lat="42.66851486685269" lon="12.602737068586706"><ele>594.0</ele><time>2026-05-02T12:20:43Z</time></trkpt><trkpt lat="42.668481626815726" lon="12.602905722553066"><ele>596.0</ele><time>2026-05-02T12:20:44Z</time></trkpt><trkpt lat="42.668455153377685" lon="12.603063269507766"><ele>598.0</ele><time>2026-05-02T12:20:45Z</time></trkpt><trkpt lat="42.66842767940804" lon="12.603208314028974"><ele>600.0</ele><time>2026-05-02T12:20:46Z</time></trkpt><trkpt lat="42.66839715180387" lon="12.60333800536605"><ele>600.0</ele><time>2026-05-02T12:20:47Z</time></trkpt><trkpt lat="42.6683124787011" lon="12.603408618700541"><ele>600.0</ele><time>2026-05-02T12:20:48Z</time></trkpt><trkpt lat="42.66823170995791" lon="12.603497247821878"><ele>600.0</ele><time>2026-05-02T12:20:49Z</time></trkpt><trkpt lat="42.668138262118916" lon="12.603593965791847"><ele>600.0</ele><time>2026-05-02T12:20:50Z</time></trkpt><trkpt lat="42.66807545198838" lon="12.603717633539466"><ele>600.0</ele><time>2026-05-02T12:20:51Z</time></trkpt><trkpt lat="42.66802041208132" lon="12.603862682613917"><ele>599.25</ele><time>2026-05-02T12:20:52Z</time></trkpt><trkpt lat="42.667984428854034" lon="12.604026121190378"><ele>598.5</ele><time>2026-05-02T12:20:53Z</time></trkpt><trkpt lat="42.668005778137726" lon="12.604192374586415"><ele>597.75</ele><time>2026-05-02T12:20:54Z</time></trkpt><trkpt lat="42.6680098931319" lon="12.60435999969856"><ele>597.0</ele><time>2026-05-02T12:20:55Z</time></trkpt><trkpt lat="42.668013774516034" lon="12.60453983019437"><ele>597.0</ele><time>2026-05-02T12:20:56Z</time></trkpt><trkpt lat="42.66797475027943" lon="12.604699440876328"><ele>597.0</ele><time>2026-05-02T12:20:57Z</time></trkpt><trkpt lat="42.66792545490924" lon="12.604841580019892"><ele>597.0</ele><time>2026-05-02T12:20:58Z</time></trkpt><trkpt lat="42.66786649745655" lon="12.60499566110997"><ele>597.0</ele><time>2026-05-02T12:20:59Z</time></trkpt><trkpt lat="42.66781343100522" lon="12.605159369236501"><ele>598.5</ele><time>2026-05-02T12:21:00Z</time></trkpt><trkpt lat="42.66773663724625" lon="12.605286535575248"><ele>600.0</ele><time>2026-05-02T12:21:01Z</time></trkpt><trkpt lat="42.66765205634853" lon="12.605413148511309"><ele>601.5</ele><time>2026-05-02T12:21:02Z</time></trkpt><trkpt lat="42.66755724468082" lon="12.605530977786294"><ele>603.0</ele><time>2026-05-02T12:21:03Z</time></trkpt><trkpt lat="42.667449714835286" lon="12.605663164126776"><ele>603.0</ele><time>2026-05-02T12:21:04Z</time></trkpt><trkpt lat="42.66735855456119" lon="12.605779218924958"><ele>603.0</ele><time>2026-05-02T12:21:05Z</time></trkpt><trkpt lat="42.667260150026586" lon="12.605909601736897"><ele>603.0</ele><time>2026-05-02T12:21:06Z</time></trkpt><trkpt lat="42.66716006162997" lon="12.606062017696223"><ele>603.0</ele><time>2026-05-02T12:21:07Z</time></trkpt><trkpt lat="42.66709592561592" lon="12.606207701301326"><ele>602.4</ele><time>2026-05-02T12:21:08Z</time></trkpt><trkpt lat="42.667064137120605" lon="12.606338600481367"><ele>601.8</ele><time>2026-05-02T12:21:09Z</time></trkpt><trkpt lat="42.66706875829622" lon="12.60646594861553"><ele>601.2</ele><time>2026-05-02T12:21:10Z</time></trkpt><trkpt lat="42.66706097628845" lon="12.606573602214576"><ele>600.6</ele><time>2026-05-02T12:21:11Z</time></trkpt><trkpt lat="42.66705432615909" lon="12.606665597888222"><ele>600.0</ele><time>2026-05-02T12:21:12Z</time></trkpt><trkpt lat="42.66674754706962" lon="12.60675173937149"><ele>601.75</ele><time>2026-05-02T12:21:14Z</time></trkpt><trkpt lat="42.66660673236275" lon="12.606777319765339"><ele>603.5</ele><time>2026-05-02T12:21:15Z</time></trkpt><trkpt lat="42.66645357754164" lon="12.606825226442501"><ele>605.25</ele><time>2026-05-02T12:21:16Z</time></trkpt><trkpt lat="42.666335434997634" lon="12.606865121097623"><ele>607.0</ele><time>2026-05-02T12:21:17Z</time></trkpt><trkpt lat="42.66621118515595" lon="12.606905299201719"><ele>607.25</ele><time>2026-05-02T12:21:18Z</time></trkpt><trkpt lat="42.66608465901145" lon="12.606959263585207"><ele>607.5</ele><time>2026-05-02T12:21:19Z</time></trkpt><trkpt lat="42.66594959112968" lon="12.60703330704993"><ele>607.75</ele><time>2026-05-02T12:21:20Z</time></trkpt><trkpt lat="42.66581653643267" lon="12.607087936283357"><ele>608.0</ele><time>2026-05-02T12:21:21Z</time></trkpt><trkpt lat="42.6656803558056" lon="12.607162230436218"><ele>608.0</ele><time>2026-05-02T12:21:22Z</time></trkpt><trkpt lat="42.6655512347523" lon="12.607270992394016"><ele>608.0</ele><time>2026-05-02T12:21:23Z</time></trkpt><trkpt lat="42.665425653589395" lon="12.607420076221988"><ele>608.0</ele><time>2026-05-02T12:21:24Z</time></trkpt><trkpt lat="42.66530901104477" lon="12.607550829362577"><ele>610.6666666666666</ele><time>2026-05-02T12:21:25Z</time></trkpt><trkpt lat="42.66518564644557" lon="12.607664717297766"><ele>613.3333333333334</ele><time>2026-05-02T12:21:26Z</time></trkpt><trkpt lat="42.66505148073284" lon="12.607790959000187"><ele>616.0</ele><time>2026-05-02T12:21:27Z</time></trkpt><trkpt lat="42.664931580512416" lon="12.607926518596713"><ele>616.0</ele><time>2026-05-02T12:21:28Z</time></trkpt><trkpt lat="42.66481341083287" lon="12.608055174646582"><ele>616.0</ele><time>2026-05-02T12:21:29Z</time></trkpt><trkpt lat="42.66467292374881" lon="12.608154261096496"><ele>616.0</ele><time>2026-05-02T12:21:30Z</time></trkpt><trkpt lat="42.664542248783455" lon="12.608236319441502"><ele>620.75</ele><time>2026-05-02T12:21:31Z</time></trkpt><trkpt lat="42.66443614485643" lon="12.608329185304116"><ele>625.5</ele><time>2026-05-02T12:21:32Z</time></trkpt><trkpt lat="42.664353482883485" lon="12.608441731092599"><ele>630.25</ele><time>2026-05-02T12:21:33Z</time></trkpt><trkpt lat="42.66426053274812" lon="12.60852117252654"><ele>635.0</ele><time>2026-05-02T12:21:34Z</time></trkpt><trkpt lat="42.664150670125004" lon="12.608583683321209"><ele>635.0</ele><time>2026-05-02T12:21:35Z</time></trkpt><trkpt lat="42.66406537956767" lon="12.608644194152665"><ele>635.0</ele><time>2026-05-02T12:21:36Z</time></trkpt><trkpt lat="42.66401698531478" lon="12.608744070638846"><ele>635.0</ele><time>2026-05-02T12:21:37Z</time></trkpt><trkpt lat="42.66400591836687" lon="12.60888153234478"><ele>635.0</ele><time>2026-05-02T12:21:38Z</time></trkpt><trkpt lat="42.664025786718966" lon="12.609031884929806"><ele>635.0</ele><time>2026-05-02T12:21:39Z</time></trkpt><trkpt lat="42.664042542081226" lon="12.609205053215513"><ele>634.2</ele><time>2026-05-02T12:21:40Z</time></trkpt><trkpt lat="42.664050384969926" lon="12.609373336874965"><ele>633.4</ele><time>2026-05-02T12:21:41Z</time></trkpt><trkpt lat="42.66408501405814" lon="12.609502235371748"><ele>632.6</ele><time>2026-05-02T12:21:42Z</time></trkpt><trkpt lat="42.6641145027569" lon="12.609606724821026"><ele>631.8</ele><time>2026-05-02T12:21:43Z</time></trkpt><trkpt lat="42.6641009894377" lon="12.609742626790917"><ele>631.0</ele><time>2026-05-02T12:21:44Z</time></trkpt><trkpt lat="42.66404868594082" lon="12.60989088430974"><ele>631.0</ele><time>2026-05-02T12:21:45Z</time></trkpt><trkpt lat="42.663993668139724" lon="12.61003642605246"><ele>631.0</ele><time>2026-05-02T12:21:46Z</time></trkpt><trkpt lat="42.663936977413016" lon="12.610161707181168"><ele>631.0</ele><time>2026-05-02T12:21:47Z</time></trkpt><trkpt lat="42.663862990251296" lon="12.610259246642185"><ele>631.0</ele><time>2026-05-02T12:21:48Z</time></trkpt><trkpt lat="42.66380152073435" lon="12.610339378236322"><ele>631.0</ele><time>2026-05-02T12:21:49Z</time></trkpt><trkpt lat="42.66373805088071" lon="12.610398195218426"><ele>631.8333333333334</ele><time>2026-05-02T12:21:50Z</time></trkpt><trkpt lat="42.66367123632077" lon="12.610461508710685"><ele>632.6666666666667</ele><time>2026-05-02T12:21:52Z</time></trkpt><trkpt lat="42.66362531038733" lon="12.610544331392774"><ele>633.5</ele><time>2026-05-02T12:22:37Z</time></trkpt><trkpt lat="42.66356725250187" lon="12.610621122813212"><ele>634.3333333333334</ele><time>2026-05-02T12:22:39Z</time></trkpt><trkpt lat="42.663494716268154" lon="12.610651143253808"><ele>635.1666666666666</ele><time>2026-05-02T12:22:40Z</time></trkpt><trkpt lat="42.66340802960238" lon="12.610664642070194"><ele>636.0</ele><time>2026-05-02T12:22:41Z</time></trkpt><trkpt lat="42.66330194496854" lon="12.610588406850122"><ele>636.0</ele><time>2026-05-02T12:22:42Z</time></trkpt><trkpt lat="42.663195629634515" lon="12.61057071362108"><ele>636.0</ele><time>2026-05-02T12:22:43Z</time></trkpt><trkpt lat="42.663074202766566" lon="12.610549625100903"><ele>636.0</ele><time>2026-05-02T12:22:44Z</time></trkpt><trkpt lat="42.66296105016874" lon="12.6105581058869"><ele>636.0</ele><time>2026-05-02T12:22:45Z</time></trkpt><trkpt lat="42.66285495563922" lon="12.610549899504194"><ele>636.0</ele><time>2026-05-02T12:22:46Z</time></trkpt><trkpt lat="42.66275346634892" lon="12.610529348187164"><ele>634.4</ele><time>2026-05-02T12:22:47Z</time></trkpt><trkpt lat="42.66265820326549" lon="12.610533620784757"><ele>632.8</ele><time>2026-05-02T12:22:48Z</time></trkpt><trkpt lat="42.662568466848604" lon="12.610541513276358"><ele>631.1999999999999</ele><time>2026-05-02T12:22:49Z</time></trkpt><trkpt lat="42.6624693512122" lon="12.610558839468588"><ele>629.6</ele><time>2026-05-02T12:22:50Z</time></trkpt><trkpt lat="42.66235555805475" lon="12.610602870375665"><ele>628.0</ele><time>2026-05-02T12:22:51Z</time></trkpt><trkpt lat="42.662239815326785" lon="12.610663537975933"><ele>628.0</ele><time>2026-05-02T12:22:52Z</time></trkpt><trkpt lat="42.66212875768993" lon="12.610707777419595"><ele>628.0</ele><time>2026-05-02T12:22:53Z</time></trkpt><trkpt lat="42.66201504600465" lon="12.610752061248629"><ele>628.0</ele><time>2026-05-02T12:22:54Z</time></trkpt><trkpt lat="42.6619169672427" lon="12.61082220928913"><ele>628.0</ele><time>2026-05-02T12:22:55Z</time></trkpt><trkpt lat="42.661821264695114" lon="12.610896358142694"><ele>627.5</ele><time>2026-05-02T12:22:56Z</time></trkpt><trkpt lat="42.661728342670436" lon="12.610935911169763"><ele>627.0</ele><time>2026-05-02T12:22:57Z</time></trkpt><trkpt lat="42.66164675658804" lon="12.610981435412532"><ele>626.5</ele><time>2026-05-02T12:22:58Z</time></trkpt><trkpt lat="42.66156969089256" lon="12.611015360730317"><ele>626.0</ele><time>2026-05-02T12:22:59Z</time></trkpt><trkpt lat="42.6615017719893" lon="12.611027147094314"><ele>625.5</ele><time>2026-05-02T12:23:00Z</time></trkpt><trkpt lat="42.66145813046963" lon="12.610949185442914"><ele>625.0</ele><time>2026-05-02T12:23:01Z</time></trkpt><trkpt lat="42.66144405856259" lon="12.610844744216777"><ele>625.0</ele><time>2026-05-02T12:23:02Z</time></trkpt><trkpt lat="42.66140398266848" lon="12.610771899370127"><ele>625.0</ele><time>2026-05-02T12:23:03Z</time></trkpt><trkpt lat="42.66136054676858" lon="12.61069483720483"><ele>625.0</ele><time>2026-05-02T12:23:04Z</time></trkpt><trkpt lat="42.66130125136565" lon="12.610639843228613"><ele>625.0</ele><time>2026-05-02T12:23:05Z</time></trkpt><trkpt lat="42.6611914490371" lon="12.610683821268184"><ele>625.0</ele><time>2026-05-02T12:23:06Z</time></trkpt><trkpt lat="42.66107848662583" lon="12.610687416833857"><ele>625.0</ele><time>2026-05-02T12:23:07Z</time></trkpt><trkpt lat="42.660959748750436" lon="12.610720656140069"><ele>625.4</ele><time>2026-05-02T12:23:08Z</time></trkpt><trkpt lat="42.660858488887534" lon="12.610754766875614"><ele>625.8</ele><time>2026-05-02T12:23:09Z</time></trkpt><trkpt lat="42.660774729207034" lon="12.61083845752026"><ele>626.2</ele><time>2026-05-02T12:23:10Z</time></trkpt><trkpt lat="42.66071771779216" lon="12.610947960404838"><ele>626.6</ele><time>2026-05-02T12:23:11Z</time></trkpt><trkpt lat="42.6606693508866" lon="12.611087709154992"><ele>627.0</ele><time>2026-05-02T12:23:12Z</time></trkpt><trkpt lat="42.66062813689175" lon="12.611235170669497"><ele>623.8000000000001</ele><time>2026-05-02T12:23:13Z</time></trkpt><trkpt lat="42.660592848462294" lon="12.61137045337894"><ele>620.6</ele><time>2026-05-02T12:23:14Z</time></trkpt><trkpt lat="42.66054638506291" lon="12.611486598496263"><ele>617.4000000000001</ele><time>2026-05-02T12:23:15Z</time></trkpt><trkpt lat="42.66048832627796" lon="12.611585209506321"><ele>614.2</ele><time>2026-05-02T12:23:16Z</time></trkpt><trkpt lat="42.660400689944474" lon="12.611640422994753"><ele>611.0</ele><time>2026-05-02T12:23:17Z</time></trkpt><trkpt lat="42.660311877036335" lon="12.611712229409891"><ele>610.0</ele><time>2026-05-02T12:23:18Z</time></trkpt><trkpt lat="42.660205399267916" lon="12.611794831463222"><ele>609.0</ele><time>2026-05-02T12:23:19Z</time></trkpt><trkpt lat="42.66011679392639" lon="12.611887151591601"><ele>608.0</ele><time>2026-05-02T12:23:20Z</time></trkpt><trkpt lat="42.66003609425011" lon="12.611982654001249"><ele>607.0</ele><time>2026-05-02T12:23:21Z</time></trkpt><trkpt lat="42.659965986863966" lon="12.612084967395216"><ele>606.0</ele><time>2026-05-02T12:23:22Z</time></trkpt><trkpt lat="42.659907759659376" lon="12.612194823375583"><ele>606.0</ele><time>2026-05-02T12:23:23Z</time></trkpt><trkpt lat="42.65986804165571" lon="12.612309247039583"><ele>606.0</ele><time>2026-05-02T12:23:24Z</time></trkpt><trkpt lat="42.65983226775088" lon="12.612420375547563"><ele>606.0</ele><time>2026-05-02T12:23:25Z</time></trkpt><trkpt lat="42.65977745881035" lon="12.612505976853418"><ele>606.0</ele><time>2026-05-02T12:23:26Z</time></trkpt><trkpt lat="42.6597508258511" lon="12.612593195392698"><ele>606.0</ele><time>2026-05-02T12:23:27Z</time></trkpt><trkpt lat="42.65971090999075" lon="12.612667399169656"><ele>606.0</ele><time>2026-05-02T12:23:28Z</time></trkpt><trkpt lat="42.65967306558375" lon="12.612748283484363"><ele>606.8</ele><time>2026-05-02T12:23:29Z</time></trkpt><trkpt lat="42.65962163019915" lon="12.612862616872452"><ele>607.6</ele><time>2026-05-02T12:23:30Z</time></trkpt><trkpt lat="42.6595618357993" lon="12.6129734347633"><ele>608.4</ele><time>2026-05-02T12:23:31Z</time></trkpt><trkpt lat="42.659488359694386" lon="12.613065176667087"><ele>609.2</ele><time>2026-05-02T12:23:32Z</time></trkpt><trkpt lat="42.65942906172099" lon="12.613134908551926"><ele>610.0</ele><time>2026-05-02T12:23:33Z</time></trkpt><trkpt lat="42.65928988163483" lon="12.613187035248542"><ele>610.0</ele><time>2026-05-02T12:23:35Z</time></trkpt><trkpt lat="42.65919419373445" lon="12.613231810616238"><ele>610.0</ele><time>2026-05-02T12:23:36Z</time></trkpt><trkpt lat="42.65913165747591" lon="12.613307495377098"><ele>610.0</ele><time>2026-05-02T12:23:37Z</time></trkpt><trkpt lat="42.659080063780095" lon="12.613361153026997"><ele>610.0</ele><time>2026-05-02T12:23:38Z</time></trkpt><trkpt lat="42.65909742504656" lon="12.613490775078532"><ele>610.0</ele><time>2026-05-02T12:23:39Z</time></trkpt><trkpt lat="42.65911348547807" lon="12.613629312802436"><ele>607.8</ele><time>2026-05-02T12:23:40Z</time></trkpt><trkpt lat="42.65913170132837" lon="12.613751325549005"><ele>605.6</ele><time>2026-05-02T12:23:41Z</time></trkpt><trkpt lat="42.6591271070262" lon="12.61385791320861"><ele>603.4</ele><time>2026-05-02T12:23:42Z</time></trkpt><trkpt lat="42.65909486817206" lon="12.613959021915433"><ele>601.2</ele><time>2026-05-02T12:23:43Z</time></trkpt><trkpt lat="42.65900726474622" lon="12.614024134961172"><ele>599.0</ele><time>2026-05-02T12:23:44Z</time></trkpt><trkpt lat="42.658921655694186" lon="12.614125189785264"><ele>599.0</ele><time>2026-05-02T12:23:45Z</time></trkpt><trkpt lat="42.65883797779725" lon="12.61423015869567"><ele>599.0</ele><time>2026-05-02T12:23:46Z</time></trkpt><trkpt lat="42.65878658403643" lon="12.614343047435343"><ele>599.0</ele><time>2026-05-02T12:23:47Z</time></trkpt><trkpt lat="42.65874070520439" lon="12.61444872151197"><ele>599.0</ele><time>2026-05-02T12:23:48Z</time></trkpt><trkpt lat="42.658699442573635" lon="12.614577389258256"><ele>599.0</ele><time>2026-05-02T12:23:49Z</time></trkpt><trkpt lat="42.65866159104626" lon="12.614731439775232"><ele>598.5</ele><time>2026-05-02T12:23:50Z</time></trkpt><trkpt lat="42.65863425451975" lon="12.614893587553873"><ele>598.0</ele><time>2026-05-02T12:23:51Z</time></trkpt><trkpt lat="42.65860511914025" lon="12.615044052559448"><ele>597.5</ele><time>2026-05-02T12:23:52Z</time></trkpt><trkpt lat="42.658566199358845" lon="12.615194213709437"><ele>597.0</ele><time>2026-05-02T12:23:53Z</time></trkpt><trkpt lat="42.65855062760313" lon="12.615338199228363"><ele>597.0</ele><time>2026-05-02T12:23:54Z</time></trkpt><trkpt lat="42.65852095104313" lon="12.615467157539268"><ele>597.0</ele><time>2026-05-02T12:23:55Z</time></trkpt><trkpt lat="42.65848974460835" lon="12.615601521060384"><ele>597.0</ele><time>2026-05-02T12:23:56Z</time></trkpt><trkpt lat="42.65845639740323" lon="12.615729796001384"><ele>597.0</ele><time>2026-05-02T12:23:57Z</time></trkpt><trkpt lat="42.658421742085565" lon="12.615863086508586"><ele>597.0</ele><time>2026-05-02T12:23:58Z</time></trkpt><trkpt lat="42.65838826636596" lon="12.615994235424479"><ele>597.0</ele><time>2026-05-02T12:23:59Z</time></trkpt><trkpt lat="42.65835626476075" lon="12.616111386489676"><ele>597.0</ele><time>2026-05-02T12:24:00Z</time></trkpt><trkpt lat="42.65832210489572" lon="12.616217083314774"><ele>597.0</ele><time>2026-05-02T12:24:01Z</time></trkpt><trkpt lat="42.65825774266713" lon="12.616299694316117"><ele>597.0</ele><time>2026-05-02T12:24:02Z</time></trkpt><trkpt lat="42.65819298808243" lon="12.616418786941585"><ele>597.0</ele><time>2026-05-02T12:24:03Z</time></trkpt><trkpt lat="42.65808610703954" lon="12.616532730858358"><ele>599.5</ele><time>2026-05-02T12:24:04Z</time></trkpt><trkpt lat="42.65798228918258" lon="12.61665734064225"><ele>602.0</ele><time>2026-05-02T12:24:05Z</time></trkpt><trkpt lat="42.65789152859776" lon="12.616765893953634"><ele>604.5</ele><time>2026-05-02T12:24:06Z</time></trkpt><trkpt lat="42.65780597201516" lon="12.616859920358154"><ele>607.0</ele><time>2026-05-02T12:24:07Z</time></trkpt><trkpt lat="42.657710790124504" lon="12.616927113180672"><ele>597.5</ele><time>2026-05-02T12:24:08Z</time></trkpt><trkpt lat="42.657613846936066" lon="12.61701361602209"><ele>588.0</ele><time>2026-05-02T12:24:09Z</time></trkpt><trkpt lat="42.65750381729214" lon="12.617098063965585"><ele>578.5</ele><time>2026-05-02T12:24:10Z</time></trkpt><trkpt lat="42.65739985007748" lon="12.617168144435881"><ele>569.0</ele><time>2026-05-02T12:24:11Z</time></trkpt><trkpt lat="42.65731640687145" lon="12.617262558519672"><ele>569.0</ele><time>2026-05-02T12:24:12Z</time></trkpt><trkpt lat="42.6572192204154" lon="12.617372099001663"><ele>569.0</ele><time>2026-05-02T12:24:13Z</time></trkpt><trkpt lat="42.65713602003463" lon="12.617492857063304"><ele>569.0</ele><time>2026-05-02T12:24:14Z</time></trkpt><trkpt lat="42.65706981980872" lon="12.617605252797437"><ele>569.0</ele><time>2026-05-02T12:24:15Z</time></trkpt><trkpt lat="42.657010702596956" lon="12.617692722608375"><ele>569.0</ele><time>2026-05-02T12:24:16Z</time></trkpt><trkpt lat="42.65693455953934" lon="12.61773782382125"><ele>566.6</ele><time>2026-05-02T12:24:17Z</time></trkpt><trkpt lat="42.656856217314434" lon="12.617783730578674"><ele>564.2</ele><time>2026-05-02T12:24:18Z</time></trkpt><trkpt lat="42.65676561737691" lon="12.61782323334004"><ele>561.8000000000001</ele><time>2026-05-02T12:24:19Z</time></trkpt><trkpt lat="42.65665208768047" lon="12.617869273078968"><ele>559.4</ele><time>2026-05-02T12:24:20Z</time></trkpt><trkpt lat="42.65654392043386" lon="12.617942300674214"><ele>557.0</ele><time>2026-05-02T12:24:21Z</time></trkpt><trkpt lat="42.65641918249406" lon="12.618000000824825"><ele>557.0</ele><time>2026-05-02T12:24:22Z</time></trkpt><trkpt lat="42.65630632799385" lon="12.618088140493528"><ele>557.0</ele><time>2026-05-02T12:24:23Z</time></trkpt><trkpt lat="42.656207858995884" lon="12.618164703143293"><ele>557.0</ele><time>2026-05-02T12:24:24Z</time></trkpt><trkpt lat="42.65611493517774" lon="12.618232038912167"><ele>557.0</ele><time>2026-05-02T12:24:25Z</time></trkpt><trkpt lat="42.65601479763765" lon="12.61829150032459"><ele>559.8000000000001</ele><time>2026-05-02T12:24:26Z</time></trkpt><trkpt lat="42.65592845678009" lon="12.618358708436881"><ele>562.6</ele><time>2026-05-02T12:24:27Z</time></trkpt><trkpt lat="42.6558358941068" lon="12.618397979899408"><ele>565.4000000000001</ele><time>2026-05-02T12:24:28Z</time></trkpt><trkpt lat="42.655746193850234" lon="12.61838114197294"><ele>568.2</ele><time>2026-05-02T12:24:29Z</time></trkpt><trkpt lat="42.65564868474081" lon="12.618379364755341"><ele>571.0</ele><time>2026-05-02T12:24:30Z</time></trkpt><trkpt lat="42.655513161383226" lon="12.618358904706195"><ele>571.0</ele><time>2026-05-02T12:24:31Z</time></trkpt><trkpt lat="42.65537753814634" lon="12.618319768374564"><ele>571.0</ele><time>2026-05-02T12:24:32Z</time></trkpt><trkpt lat="42.65526556818681" lon="12.618277712827215"><ele>571.0</ele><time>2026-05-02T12:24:33Z</time></trkpt><trkpt lat="42.655149268471185" lon="12.618248098526703"><ele>571.0</ele><time>2026-05-02T12:24:34Z</time></trkpt><trkpt lat="42.6550515659317" lon="12.618173243444904"><ele>571.3333333333334</ele><time>2026-05-02T12:24:35Z</time></trkpt><trkpt lat="42.65496796580899" lon="12.618129790135992"><ele>571.6666666666667</ele><time>2026-05-02T12:24:36Z</time></trkpt><trkpt lat="42.65489689504103" lon="12.618107608032854"><ele>572.0</ele><time>2026-05-02T12:24:37Z</time></trkpt><trkpt lat="42.654836424143134" lon="12.618074645120771"><ele>572.3333333333334</ele><time>2026-05-02T12:24:38Z</time></trkpt><trkpt lat="42.65476588704151" lon="12.618127767349593"><ele>572.6666666666666</ele><time>2026-05-02T12:24:39Z</time></trkpt><trkpt lat="42.65470243460573" lon="12.618259085051195"><ele>573.0</ele><time>2026-05-02T12:24:40Z</time></trkpt><trkpt lat="42.65462971484946" lon="12.61834825799106"><ele>573.0</ele><time>2026-05-02T12:24:41Z</time></trkpt><trkpt lat="42.65452936081307" lon="12.618417851563612"><ele>573.0</ele><time>2026-05-02T12:24:42Z</time></trkpt><trkpt lat="42.65440434665958" lon="12.618477381281856"><ele>573.0</ele><time>2026-05-02T12:24:43Z</time></trkpt><trkpt lat="42.654280063980394" lon="12.618520334106131"><ele>573.0</ele><time>2026-05-02T12:24:44Z</time></trkpt><trkpt lat="42.65417178966917" lon="12.61857349704446"><ele>573.75</ele><time>2026-05-02T12:24:45Z</time></trkpt><trkpt lat="42.6540750232661" lon="12.618618324864707"><ele>574.5</ele><time>2026-05-02T12:24:46Z</time></trkpt><trkpt lat="42.65395709054302" lon="12.618659942541587"><ele>575.25</ele><time>2026-05-02T12:24:47Z</time></trkpt><trkpt lat="42.6538345188092" lon="12.618712441564575"><ele>576.0</ele><time>2026-05-02T12:24:48Z</time></trkpt><trkpt lat="42.65370336985044" lon="12.618748493304903"><ele>581.5</ele><time>2026-05-02T12:24:49Z</time></trkpt><trkpt lat="42.65358026237828" lon="12.618798924627006"><ele>587.0</ele><time>2026-05-02T12:24:50Z</time></trkpt><trkpt lat="42.65345744199917" lon="12.618849495737113"><ele>592.5</ele><time>2026-05-02T12:24:51Z</time></trkpt><trkpt lat="42.65333609263721" lon="12.61889718570308"><ele>598.0</ele><time>2026-05-02T12:24:52Z</time></trkpt><trkpt lat="42.65322170360625" lon="12.61895164149229"><ele>598.0</ele><time>2026-05-02T12:24:53Z</time></trkpt><trkpt lat="42.65311075520958" lon="12.619039640798867"><ele>598.0</ele><time>2026-05-02T12:24:54Z</time></trkpt><trkpt lat="42.653000815389674" lon="12.619136171766094"><ele>598.0</ele><time>2026-05-02T12:24:55Z</time></trkpt><trkpt lat="42.65290522600551" lon="12.61921021848855"><ele>598.0</ele><time>2026-05-02T12:24:56Z</time></trkpt><trkpt lat="42.6528061018789" lon="12.619280952635009"><ele>596.25</ele><time>2026-05-02T12:24:57Z</time></trkpt><trkpt lat="42.652698602370585" lon="12.619359532798832"><ele>594.5</ele><time>2026-05-02T12:24:58Z</time></trkpt><trkpt lat="42.65258211300939" lon="12.61942479740107"><ele>592.75</ele><time>2026-05-02T12:24:59Z</time></trkpt><trkpt lat="42.65246983195567" lon="12.619498224432817"><ele>591.0</ele><time>2026-05-02T12:25:00Z</time></trkpt><trkpt lat="42.65236307847857" lon="12.619553228992139"><ele>591.0</ele><time>2026-05-02T12:25:01Z</time></trkpt><trkpt lat="42.65226979803513" lon="12.619613117580792"><ele>591.0</ele><time>2026-05-02T12:25:02Z</time></trkpt><trkpt lat="42.65218895156737" lon="12.619683081507324"><ele>591.0</ele><time>2026-05-02T12:25:03Z</time></trkpt><trkpt lat="42.652118709976136" lon="12.619779319028577"><ele>591.0</ele><time>2026-05-02T12:25:04Z</time></trkpt><trkpt lat="42.652060584272256" lon="12.619889575511703"><ele>591.0</ele><time>2026-05-02T12:25:05Z</time></trkpt><trkpt lat="42.652001921919" lon="12.61999100604245"><ele>591.2</ele><time>2026-05-02T12:25:06Z</time></trkpt><trkpt lat="42.651917815095395" lon="12.62003928703151"><ele>591.4000000000001</ele><time>2026-05-02T12:25:07Z</time></trkpt><trkpt lat="42.65184430486088" lon="12.620107764098536"><ele>591.6</ele><time>2026-05-02T12:25:08Z</time></trkpt><trkpt lat="42.651768780796736" lon="12.620180155211658"><ele>591.8000000000001</ele><time>2026-05-02T12:25:09Z</time></trkpt><trkpt lat="42.65169996723784" lon="12.620250855851813"><ele>592.0</ele><time>2026-05-02T12:25:10Z</time></trkpt><trkpt lat="42.651660161143504" lon="12.620364780355136"><ele>590.5</ele><time>2026-05-02T12:25:11Z</time></trkpt><trkpt lat="42.65163025237888" lon="12.620466606790918"><ele>589.0</ele><time>2026-05-02T12:25:12Z</time></trkpt><trkpt lat="42.65161074409456" lon="12.620564569268268"><ele>587.5</ele><time>2026-05-02T12:25:13Z</time></trkpt><trkpt lat="42.651572390986935" lon="12.620649243618143"><ele>586.0</ele><time>2026-05-02T12:25:14Z</time></trkpt><trkpt lat="42.65155524249478" lon="12.620741856070877"><ele>584.5</ele><time>2026-05-02T12:25:15Z</time></trkpt><trkpt lat="42.651524650283974" lon="12.620838380662452"><ele>583.0</ele><time>2026-05-02T12:25:16Z</time></trkpt><trkpt lat="42.651511937189746" lon="12.620942446688572"><ele>583.0000000000001</ele><time>2026-05-02T12:25:17Z</time></trkpt><trkpt lat="42.651520820952065" lon="12.621043191935724"><ele>583.0</ele><time>2026-05-02T12:25:18Z</time></trkpt><trkpt lat="42.6515532510291" lon="12.621128762509525"><ele>583.0</ele><time>2026-05-02T12:25:19Z</time></trkpt><trkpt lat="42.65160910287528" lon="12.621186656607888"><ele>583.0</ele><time>2026-05-02T12:25:20Z</time></trkpt><trkpt lat="42.65165919386791" lon="12.621243797919515"><ele>583.0</ele><time>2026-05-02T12:25:21Z</time></trkpt><trkpt lat="42.65172110359741" lon="12.621297064033818"><ele>583.0000000000001</ele><time>2026-05-02T12:25:22Z</time></trkpt><trkpt lat="42.65176177756579" lon="12.621386245983825"><ele>583.0</ele><time>2026-05-02T12:25:23Z</time></trkpt><trkpt lat="42.65180820206396" lon="12.621494003176737"><ele>583.1999999999999</ele><time>2026-05-02T12:25:24Z</time></trkpt><trkpt lat="42.651849727404205" lon="12.62159639007217"><ele>583.4</ele><time>2026-05-02T12:25:25Z</time></trkpt><trkpt lat="42.651878396456105" lon="12.621721231044516"><ele>583.5999999999999</ele><time>2026-05-02T12:25:26Z</time></trkpt><trkpt lat="42.65189957102233" lon="12.621868432375958"><ele>583.8</ele><time>2026-05-02T12:25:27Z</time></trkpt><trkpt lat="42.65191685942372" lon="12.622001670285576"><ele>584.0</ele><time>2026-05-02T12:25:28Z</time></trkpt><trkpt lat="42.65193907569877" lon="12.622111643853383"><ele>579.3333333333333</ele><time>2026-05-02T12:25:29Z</time></trkpt><trkpt lat="42.65196227681954" lon="12.622229843295079"><ele>574.6666666666666</ele><time>2026-05-02T12:25:30Z</time></trkpt><trkpt lat="42.65202242150774" lon="12.62233608993729"><ele>570.0</ele><time>2026-05-02T12:25:31Z</time></trkpt><trkpt lat="42.65208902767746" lon="12.622410335543819"><ele>565.3333333333334</ele><time>2026-05-02T12:25:32Z</time></trkpt><trkpt lat="42.6521517494013" lon="12.622475688266325"><ele>560.6666666666667</ele><time>2026-05-02T12:25:33Z</time></trkpt><trkpt lat="42.652197782081025" lon="12.622557544622376"><ele>556.0</ele><time>2026-05-02T12:25:34Z</time></trkpt><trkpt lat="42.65222313117034" lon="12.622667105587723"><ele>556.0</ele><time>2026-05-02T12:25:35Z</time></trkpt><trkpt lat="42.65222117176034" lon="12.622806586361566"><ele>556.0</ele><time>2026-05-02T12:25:36Z</time></trkpt><trkpt lat="42.652212704577956" lon="12.622972304046073"><ele>556.0</ele><time>2026-05-02T12:25:37Z</time></trkpt><trkpt lat="42.65220378345166" lon="12.62312097290987"><ele>556.0</ele><time>2026-05-02T12:25:38Z</time></trkpt><trkpt lat="42.65220811505443" lon="12.623261057302829"><ele>556.0</ele><time>2026-05-02T12:25:39Z</time></trkpt><trkpt lat="42.65221748850828" lon="12.62339567162969"><ele>557.0</ele><time>2026-05-02T12:25:40Z</time></trkpt><trkpt lat="42.65226357599371" lon="12.623507550970126"><ele>558.0</ele><time>2026-05-02T12:25:41Z</time></trkpt><trkpt lat="42.65232666086761" lon="12.623616237821844"><ele>559.0</ele><time>2026-05-02T12:25:42Z</time></trkpt><trkpt lat="42.652403785906984" lon="12.62371516021247"><ele>560.0</ele><time>2026-05-02T12:25:43Z</time></trkpt><trkpt lat="42.6524571217863" lon="12.623822518240479"><ele>561.0</ele><time>2026-05-02T12:25:44Z</time></trkpt><trkpt lat="42.652502636259115" lon="12.62393511310101"><ele>562.2</ele><time>2026-05-02T12:25:45Z</time></trkpt><trkpt lat="42.652512534018015" lon="12.624047173093036"><ele>563.4000000000001</ele><time>2026-05-02T12:25:46Z</time></trkpt><trkpt lat="42.65252403902403" lon="12.62419496024021"><ele>564.6</ele><time>2026-05-02T12:25:47Z</time></trkpt><trkpt lat="42.65253647924669" lon="12.624347287913661"><ele>565.8000000000001</ele><time>2026-05-02T12:25:48Z</time></trkpt><trkpt lat="42.65253286712224" lon="12.62447109237429"><ele>567.0</ele><time>2026-05-02T12:25:49Z</time></trkpt><trkpt lat="42.6525614422338" lon="12.62464381183074"><ele>567.2</ele><time>2026-05-02T12:25:50Z</time></trkpt><trkpt lat="42.652585307452384" lon="12.624774393831878"><ele>567.4000000000001</ele><time>2026-05-02T12:25:51Z</time></trkpt><trkpt lat="42.65261431587953" lon="12.62485684421205"><ele>567.5999999999999</ele><time>2026-05-02T12:25:52Z</time></trkpt><trkpt lat="42.65270772364858" lon="12.62498302722989"><ele>567.8</ele><time>2026-05-02T12:25:54Z</time></trkpt><trkpt lat="42.65281369491602" lon="12.624996898156795"><ele>568.0</ele><time>2026-05-02T12:25:55Z</time></trkpt><trkpt lat="42.65292339575284" lon="12.625060343005789"><ele>565.0</ele><time>2026-05-02T12:25:56Z</time></trkpt><trkpt lat="42.653031461530446" lon="12.625099789074245"><ele>562.0</ele><time>2026-05-02T12:25:57Z</time></trkpt><trkpt lat="42.65315554577411" lon="12.625119088163066"><ele>559.0</ele><time>2026-05-02T12:25:58Z</time></trkpt><trkpt lat="42.65328012889443" lon="12.625167936838976"><ele>556.0</ele><time>2026-05-02T12:25:59Z</time></trkpt><trkpt lat="42.65341280982118" lon="12.625199321132424"><ele>556.0</ele><time>2026-05-02T12:26:00Z</time></trkpt><trkpt lat="42.65355191504145" lon="12.625244153545491"><ele>556.0</ele><time>2026-05-02T12:26:01Z</time></trkpt><trkpt lat="42.653696038061184" lon="12.625269847044414"><ele>556.0</ele><time>2026-05-02T12:26:02Z</time></trkpt><trkpt lat="42.65380766451232" lon="12.625286378051758"><ele>556.0</ele><time>2026-05-02T12:26:03Z</time></trkpt><trkpt lat="42.65390875733863" lon="12.62530388373459"><ele>554.5</ele><time>2026-05-02T12:26:04Z</time></trkpt><trkpt lat="42.654002969043624" lon="12.62533155256115"><ele>553.0</ele><time>2026-05-02T12:26:05Z</time></trkpt><trkpt lat="42.654106321397364" lon="12.62536573400664"><ele>551.5</ele><time>2026-05-02T12:26:06Z</time></trkpt><trkpt lat="42.65422893987653" lon="12.625391967192828"><ele>550.0</ele><time>2026-05-02T12:26:07Z</time></trkpt><trkpt lat="42.654356359408155" lon="12.625441124520174"><ele>549.75</ele><time>2026-05-02T12:26:08Z</time></trkpt><trkpt lat="42.65449274879791" lon="12.625504628376099"><ele>549.5</ele><time>2026-05-02T12:26:09Z</time></trkpt><trkpt lat="42.65461621880662" lon="12.625567060812333"><ele>549.25</ele><time>2026-05-02T12:26:10Z</time></trkpt><trkpt lat="42.65473329525529" lon="12.625600338292317"><ele>549.0</ele><time>2026-05-02T12:26:11Z</time></trkpt><trkpt lat="42.654840272018184" lon="12.625637572068856"><ele>549.0</ele><time>2026-05-02T12:26:12Z</time></trkpt><trkpt lat="42.65494626258438" lon="12.625687716870889"><ele>549.0</ele><time>2026-05-02T12:26:13Z</time></trkpt><trkpt lat="42.65504630393857" lon="12.625735836378592"><ele>549.0</ele><time>2026-05-02T12:26:14Z</time></trkpt><trkpt lat="42.655168912009216" lon="12.625776763967671"><ele>549.0</ele><time>2026-05-02T12:26:15Z</time></trkpt><trkpt lat="42.65530192324858" lon="12.625812956364166"><ele>548.5</ele><time>2026-05-02T12:26:16Z</time></trkpt><trkpt lat="42.655419562892554" lon="12.625843759388944"><ele>548.0</ele><time>2026-05-02T12:26:17Z</time></trkpt><trkpt lat="42.6555320156855" lon="12.625875938792188"><ele>547.5</ele><time>2026-05-02T12:26:18Z</time></trkpt><trkpt lat="42.65563926829433" lon="12.625940636002069"><ele>547.0</ele><time>2026-05-02T12:26:19Z</time></trkpt><trkpt lat="42.65575336724983" lon="12.626027707331959"><ele>547.0</ele><time>2026-05-02T12:26:20Z</time></trkpt><trkpt lat="42.655863816543835" lon="12.626113405352774"><ele>547.0</ele><time>2026-05-02T12:26:21Z</time></trkpt><trkpt lat="42.65596288139775" lon="12.62619760938342"><ele>547.0</ele><time>2026-05-02T12:26:22Z</time></trkpt><trkpt lat="42.65605845064819" lon="12.626282633059954"><ele>547.0</ele><time>2026-05-02T12:26:23Z</time></trkpt><trkpt lat="42.65616253418857" lon="12.626378660975696"><ele>544.75</ele><time>2026-05-02T12:26:24Z</time></trkpt><trkpt lat="42.656273502838886" lon="12.626458069566626"><ele>542.5</ele><time>2026-05-02T12:26:25Z</time></trkpt><trkpt lat="42.6563909966911" lon="12.62651635317679"><ele>540.25</ele><time>2026-05-02T12:26:26Z</time></trkpt><trkpt lat="42.656514239419245" lon="12.626567028363668"><ele>538.0</ele><time>2026-05-02T12:26:27Z</time></trkpt><trkpt lat="42.6566346605085" lon="12.626602367240839"><ele>538.0</ele><time>2026-05-02T12:26:28Z</time></trkpt><trkpt lat="42.65674916489084" lon="12.626634670357248"><ele>538.0</ele><time>2026-05-02T12:26:29Z</time></trkpt><trkpt lat="42.65686179245262" lon="12.626705189761124"><ele>538.0</ele><time>2026-05-02T12:26:30Z</time></trkpt><trkpt lat="42.65697490682074" lon="12.626779105036215"><ele>538.0</ele><time>2026-05-02T12:26:31Z</time></trkpt><trkpt lat="42.65707989213305" lon="12.626858337992752"><ele>537.1999999999999</ele><time>2026-05-02T12:26:32Z</time></trkpt><trkpt lat="42.65717017761623" lon="12.626930137709062"><ele>536.4</ele><time>2026-05-02T12:26:33Z</time></trkpt><trkpt lat="42.657248445313435" lon="12.62698570475184"><ele>535.5999999999999</ele><time>2026-05-02T12:26:34Z</time></trkpt><trkpt lat="42.657304260217714" lon="12.627081992477658"><ele>534.8</ele><time>2026-05-02T12:26:35Z</time></trkpt><trkpt lat="42.6573593400424" lon="12.627204558845767"><ele>534.0</ele><time>2026-05-02T12:26:36Z</time></trkpt><trkpt lat="42.657398331321524" lon="12.627333944643503"><ele>534.0</ele><time>2026-05-02T12:26:37Z</time></trkpt><trkpt lat="42.65747321924953" lon="12.62742091402392"><ele>534.0</ele><time>2026-05-02T12:26:38Z</time></trkpt><trkpt lat="42.657549061678985" lon="12.627513505355827"><ele>534.0</ele><time>2026-05-02T12:26:39Z</time></trkpt><trkpt lat="42.65764050762968" lon="12.627564494651988"><ele>534.0</ele><time>2026-05-02T12:26:40Z</time></trkpt><trkpt lat="42.65773278202783" lon="12.627565326910295"><ele>534.0</ele><time>2026-05-02T12:26:41Z</time></trkpt><trkpt lat="42.65784249677695" lon="12.627523657220642"><ele>532.8</ele><time>2026-05-02T12:26:42Z</time></trkpt><trkpt lat="42.65794509264467" lon="12.62747427441044"><ele>531.5999999999999</ele><time>2026-05-02T12:26:43Z</time></trkpt><trkpt lat="42.658036267109274" lon="12.62744326137365"><ele>530.4</ele><time>2026-05-02T12:26:44Z</time></trkpt><trkpt lat="42.65814855765627" lon="12.627437227042842"><ele>529.1999999999999</ele><time>2026-05-02T12:26:45Z</time></trkpt><trkpt lat="42.65828113459722" lon="12.627446352668304"><ele>528.0</ele><time>2026-05-02T12:26:46Z</time></trkpt><trkpt lat="42.658397629800476" lon="12.627457362666808"><ele>528.0</ele><time>2026-05-02T12:26:47Z</time></trkpt><trkpt lat="42.65850520035855" lon="12.627492980915532"><ele>528.0</ele><time>2026-05-02T12:26:48Z</time></trkpt><trkpt lat="42.65863189751992" lon="12.627539063477732"><ele>528.0</ele><time>2026-05-02T12:26:49Z</time></trkpt><trkpt lat="42.65874863679825" lon="12.627572234324056"><ele>528.0</ele><time>2026-05-02T12:26:50Z</time></trkpt><trkpt lat="42.65886952384422" lon="12.62759178466276"><ele>527.6</ele><time>2026-05-02T12:26:51Z</time></trkpt><trkpt lat="42.65897193485185" lon="12.627606714214714"><ele>527.1999999999999</ele><time>2026-05-02T12:26:52Z</time></trkpt><trkpt lat="42.65905831804231" lon="12.627672080487448"><ele>526.8</ele><time>2026-05-02T12:26:53Z</time></trkpt><trkpt lat="42.65914467891129" lon="12.627739385797"><ele>526.4</ele><time>2026-05-02T12:26:54Z</time></trkpt><trkpt lat="42.65922197634938" lon="12.627822069341303"><ele>526.0</ele><time>2026-05-02T12:26:55Z</time></trkpt><trkpt lat="42.65929422741702" lon="12.62793021079249"><ele>526.0</ele><time>2026-05-02T12:26:56Z</time></trkpt><trkpt lat="42.65934901684842" lon="12.628067395706317"><ele>526.0</ele><time>2026-05-02T12:26:57Z</time></trkpt><trkpt lat="42.65941391529493" lon="12.628226035240989"><ele>526.0</ele><time>2026-05-02T12:26:58Z</time></trkpt><trkpt lat="42.6595016080055" lon="12.628360053541638"><ele>526.0</ele><time>2026-05-02T12:26:59Z</time></trkpt><trkpt lat="42.65955700890217" lon="12.628472593853232"><ele>523.2</ele><time>2026-05-02T12:27:00Z</time></trkpt><trkpt lat="42.65960437516536" lon="12.628558181975254"><ele>520.4000000000001</ele><time>2026-05-02T12:27:01Z</time></trkpt><trkpt lat="42.6596276374915" lon="12.628646559689509"><ele>517.6</ele><time>2026-05-02T12:27:02Z</time></trkpt><trkpt lat="42.659574889042695" lon="12.628781720376422"><ele>514.8000000000001</ele><time>2026-05-02T12:27:04Z</time></trkpt><trkpt lat="42.65947731909207" lon="12.628796255413185"><ele>512.0</ele><time>2026-05-02T12:27:05Z</time></trkpt><trkpt lat="42.65937986026484" lon="12.628845174322969"><ele>512.0</ele><time>2026-05-02T12:27:06Z</time></trkpt><trkpt lat="42.659276379174464" lon="12.628919779287616"><ele>512.0</ele><time>2026-05-02T12:27:07Z</time></trkpt><trkpt lat="42.65918351621503" lon="12.62898047259336"><ele>512.0</ele><time>2026-05-02T12:27:08Z</time></trkpt><trkpt lat="42.659097841189485" lon="12.629057485621997"><ele>512.0</ele><time>2026-05-02T12:27:09Z</time></trkpt><trkpt lat="42.65902548072485" lon="12.629151874759998"><ele>512.0</ele><time>2026-05-02T12:27:10Z</time></trkpt><trkpt lat="42.65896371964852" lon="12.629274947994352"><ele>512.0</ele><time>2026-05-02T12:27:11Z</time></trkpt><trkpt lat="42.65891399504178" lon="12.629397974764945"><ele>512.0</ele><time>2026-05-02T12:27:12Z</time></trkpt><trkpt lat="42.658853856716746" lon="12.629486644427368"><ele>512.0</ele><time>2026-05-02T12:27:13Z</time></trkpt><trkpt lat="42.65878888451064" lon="12.629559550441062"><ele>512.0</ele><time>2026-05-02T12:27:14Z</time></trkpt><trkpt lat="42.65870948768849" lon="12.629615039387765"><ele>512.0</ele><time>2026-05-02T12:27:15Z</time></trkpt><trkpt lat="42.6586100517583" lon="12.629631589893165"><ele>508.25</ele><time>2026-05-02T12:27:16Z</time></trkpt><trkpt lat="42.65848666959515" lon="12.629651729188916"><ele>504.5</ele><time>2026-05-02T12:27:17Z</time></trkpt><trkpt lat="42.65834841050832" lon="12.62966987380923"><ele>500.75</ele><time>2026-05-02T12:27:18Z</time></trkpt><trkpt lat="42.65821804547222" lon="12.629699462821524"><ele>497.0</ele><time>2026-05-02T12:27:19Z</time></trkpt><trkpt lat="42.65810508724132" lon="12.629690111707136"><ele>497.0</ele><time>2026-05-02T12:27:20Z</time></trkpt><trkpt lat="42.65800373750135" lon="12.629685257071095"><ele>497.0</ele><time>2026-05-02T12:27:21Z</time></trkpt><trkpt lat="42.65789782086248" lon="12.62966310884252"><ele>497.0</ele><time>2026-05-02T12:27:22Z</time></trkpt><trkpt lat="42.657767142093064" lon="12.629623323119226"><ele>497.0</ele><time>2026-05-02T12:27:23Z</time></trkpt><trkpt lat="42.65763005611655" lon="12.629568285307197"><ele>495.0</ele><time>2026-05-02T12:27:24Z</time></trkpt><trkpt lat="42.657496256774984" lon="12.629541863178368"><ele>493.0</ele><time>2026-05-02T12:27:25Z</time></trkpt><trkpt lat="42.65737820588713" lon="12.62950578197473"><ele>491.0</ele><time>2026-05-02T12:27:26Z</time></trkpt><trkpt lat="42.65725924026715" lon="12.629480265849574"><ele>489.0</ele><time>2026-05-02T12:27:27Z</time></trkpt><trkpt lat="42.657146465817355" lon="12.62942715074752"><ele>494.5</ele><time>2026-05-02T12:27:28Z</time></trkpt><trkpt lat="42.657035623240574" lon="12.629398285932275"><ele>500.0</ele><time>2026-05-02T12:27:29Z</time></trkpt><trkpt lat="42.6569183894541" lon="12.629400274735511"><ele>505.5</ele><time>2026-05-02T12:27:30Z</time></trkpt><trkpt lat="42.65677379297691" lon="12.629389453978401"><ele>511.0</ele><time>2026-05-02T12:27:31Z</time></trkpt><trkpt lat="42.65665405746262" lon="12.629415899373605"><ele>511.0</ele><time>2026-05-02T12:27:32Z</time></trkpt><trkpt lat="42.65655439697426" lon="12.629430234885008"><ele>511.0</ele><time>2026-05-02T12:27:33Z</time></trkpt><trkpt lat="42.65644536278708" lon="12.629440619292337"><ele>511.0</ele><time>2026-05-02T12:27:34Z</time></trkpt><trkpt lat="42.65635014175276" lon="12.62942240480789"><ele>511.0</ele><time>2026-05-02T12:27:35Z</time></trkpt><trkpt lat="42.656259914355026" lon="12.629412302467761"><ele>511.0</ele><time>2026-05-02T12:27:36Z</time></trkpt><trkpt lat="42.6561770196797" lon="12.629368338042124"><ele>508.4</ele><time>2026-05-02T12:27:37Z</time></trkpt><trkpt lat="42.65609266272673" lon="12.62935444235054"><ele>505.8</ele><time>2026-05-02T12:27:38Z</time></trkpt><trkpt lat="42.65602047818555" lon="12.629316653391994"><ele>503.19999999999993</ele><time>2026-05-02T12:27:39Z</time></trkpt><trkpt lat="42.655919053716545" lon="12.629258904594417"><ele>500.59999999999997</ele><time>2026-05-02T12:27:40Z</time></trkpt><trkpt lat="42.655818644710315" lon="12.629197230267062"><ele>498.0</ele><time>2026-05-02T12:27:41Z</time></trkpt><trkpt lat="42.65573930078218" lon="12.62908580994024"><ele>498.0</ele><time>2026-05-02T12:27:42Z</time></trkpt><trkpt lat="42.655652926899734" lon="12.62901468405802"><ele>498.0</ele><time>2026-05-02T12:27:43Z</time></trkpt><trkpt lat="42.65558287206612" lon="12.628947159974228"><ele>498.0</ele><time>2026-05-02T12:27:44Z</time></trkpt><trkpt lat="42.65552261002123" lon="12.62891171601973"><ele>498.0</ele><time>2026-05-02T12:27:45Z</time></trkpt><trkpt lat="42.655469165396056" lon="12.628863773682609"><ele>498.0</ele><time>2026-05-02T12:27:46Z</time></trkpt><trkpt lat="42.65544206867836" lon="12.628701643850631"><ele>498.0</ele><time>2026-05-02T12:27:48Z</time></trkpt><trkpt lat="42.65546232044169" lon="12.628581625192302"><ele>499.79999999999995</ele><time>2026-05-02T12:27:49Z</time></trkpt><trkpt lat="42.655507177809426" lon="12.628442379435409"><ele>501.59999999999997</ele><time>2026-05-02T12:27:50Z</time></trkpt><trkpt lat="42.65555707348046" lon="12.6283108644142"><ele>503.40000000000003</ele><time>2026-05-02T12:27:51Z</time></trkpt><trkpt lat="42.65558972172885" lon="12.628187496041642"><ele>505.20000000000005</ele><time>2026-05-02T12:27:52Z</time></trkpt><trkpt lat="42.65561239239996" lon="12.628079805457006"><ele>507.0</ele><time>2026-05-02T12:27:53Z</time></trkpt><trkpt lat="42.65562899764138" lon="12.627997190185406"><ele>507.0</ele><time>2026-05-02T12:27:54Z</time></trkpt><trkpt lat="42.65557404015358" lon="12.627888461360847"><ele>507.00000000000006</ele><time>2026-05-02T12:27:56Z</time></trkpt><trkpt lat="42.65550436695355" lon="12.627896215602508"><ele>507.00000000000006</ele><time>2026-05-02T12:27:57Z</time></trkpt><trkpt lat="42.655422328117375" lon="12.627955096358656"><ele>507.0</ele><time>2026-05-02T12:27:58Z</time></trkpt><trkpt lat="42.65533826720092" lon="12.628052578898183"><ele>507.0</ele><time>2026-05-02T12:27:59Z</time></trkpt><trkpt lat="42.6552387345015" lon="12.628113428487898"><ele>503.25</ele><time>2026-05-02T12:28:00Z</time></trkpt><trkpt lat="42.65512581697266" lon="12.628182680703002"><ele>499.5</ele><time>2026-05-02T12:28:01Z</time></trkpt><trkpt lat="42.65501154616978" lon="12.62828047747007"><ele>495.75</ele><time>2026-05-02T12:28:02Z</time></trkpt><trkpt lat="42.65492713032786" lon="12.628429385701725"><ele>492.0</ele><time>2026-05-02T12:28:03Z</time></trkpt><trkpt lat="42.65484250991994" lon="12.628533895263493"><ele>488.8</ele><time>2026-05-02T12:28:04Z</time></trkpt><trkpt lat="42.654769036447405" lon="12.628644471874795"><ele>485.6</ele><time>2026-05-02T12:28:05Z</time></trkpt><trkpt lat="42.6546933291653" lon="12.628724268060568"><ele>482.40000000000003</ele><time>2026-05-02T12:28:06Z</time></trkpt><trkpt lat="42.65460715265195" lon="12.628795205359294"><ele>479.20000000000005</ele><time>2026-05-02T12:28:07Z</time></trkpt><trkpt lat="42.65451761233903" lon="12.628795095268016"><ele>476.0</ele><time>2026-05-02T12:28:08Z</time></trkpt><trkpt lat="42.65442301575494" lon="12.628790636526746"><ele>473.8</ele><time>2026-05-02T12:28:09Z</time></trkpt><trkpt lat="42.65433960003118" lon="12.628741756935709"><ele>471.6</ele><time>2026-05-02T12:28:10Z</time></trkpt><trkpt lat="42.654262810248326" lon="12.628682542553483"><ele>469.4</ele><time>2026-05-02T12:28:11Z</time></trkpt><trkpt lat="42.654177820290194" lon="12.628634513939192"><ele>467.2</ele><time>2026-05-02T12:28:12Z</time></trkpt><trkpt lat="42.65409789730336" lon="12.62858515515902"><ele>465.0</ele><time>2026-05-02T12:28:13Z</time></trkpt><trkpt lat="42.654002050269305" lon="12.628555424792141"><ele>465.0</ele><time>2026-05-02T12:28:14Z</time></trkpt><trkpt lat="42.65390306408834" lon="12.628614244176042"><ele>465.0</ele><time>2026-05-02T12:28:15Z</time></trkpt><trkpt lat="42.653812928196935" lon="12.62868617730641"><ele>465.0</ele><time>2026-05-02T12:28:16Z</time></trkpt><trkpt lat="42.6537184998519" lon="12.628765319910226"><ele>465.0</ele><time>2026-05-02T12:28:17Z</time></trkpt><trkpt lat="42.65366890707456" lon="12.628907147596523"><ele>465.0</ele><time>2026-05-02T12:28:18Z</time></trkpt><trkpt lat="42.65361300898135" lon="12.629008779304995"><ele>465.0</ele><time>2026-05-02T12:28:19Z</time></trkpt><trkpt lat="42.65355600794901" lon="12.62909490673918"><ele>465.0</ele><time>2026-05-02T12:28:20Z</time></trkpt><trkpt lat="42.65348260174262" lon="12.629155592917586"><ele>465.0</ele><time>2026-05-02T12:28:21Z</time></trkpt><trkpt lat="42.65340842750307" lon="12.629183583589345"><ele>465.0</ele><time>2026-05-02T12:28:22Z</time></trkpt><trkpt lat="42.653337251822194" lon="12.629211171590788"><ele>465.0</ele><time>2026-05-02T12:28:23Z</time></trkpt><trkpt lat="42.653261713139685" lon="12.629183922926272"><ele>465.0</ele><time>2026-05-02T12:28:24Z</time></trkpt><trkpt lat="42.65318544826688" lon="12.62913860790117"><ele>465.0</ele><time>2026-05-02T12:28:25Z</time></trkpt><trkpt lat="42.653098871594494" lon="12.629052733836255"><ele>465.0</ele><time>2026-05-02T12:28:26Z</time></trkpt><trkpt lat="42.65301587666736" lon="12.628971397931222"><ele>465.0</ele><time>2026-05-02T12:28:27Z</time></trkpt><trkpt lat="42.652934540383804" lon="12.628915513143212"><ele>465.0</ele><time>2026-05-02T12:28:28Z</time></trkpt><trkpt lat="42.65285786451385" lon="12.628884979591769"><ele>465.0</ele><time>2026-05-02T12:28:29Z</time></trkpt><trkpt lat="42.652773525711325" lon="12.628902261028836"><ele>464.2</ele><time>2026-05-02T12:28:30Z</time></trkpt><trkpt lat="42.65269096634054" lon="12.62896453688456"><ele>463.4</ele><time>2026-05-02T12:28:31Z</time></trkpt><trkpt lat="42.65259838236188" lon="12.6290628984529"><ele>462.6</ele><time>2026-05-02T12:28:32Z</time></trkpt><trkpt lat="42.65251033855282" lon="12.62913848678644"><ele>461.8</ele><time>2026-05-02T12:28:33Z</time></trkpt><trkpt lat="42.65243088722296" lon="12.629226227523027"><ele>461.0</ele><time>2026-05-02T12:28:34Z</time></trkpt><trkpt lat="42.652352877413215" lon="12.62933512598292"><ele>461.0</ele><time>2026-05-02T12:28:35Z</time></trkpt><trkpt lat="42.652304942395055" lon="12.62945085625627"><ele>461.0</ele><time>2026-05-02T12:28:36Z</time></trkpt><trkpt lat="42.65231249037965" lon="12.629606298568657"><ele>461.0</ele><time>2026-05-02T12:28:37Z</time></trkpt><trkpt lat="42.65233134746352" lon="12.62974978441417"><ele>461.0</ele><time>2026-05-02T12:28:38Z</time></trkpt><trkpt lat="42.65235856674788" lon="12.629930538475715"><ele>455.0</ele><time>2026-05-02T12:28:39Z</time></trkpt><trkpt lat="42.65233257971842" lon="12.630124049047984"><ele>449.0</ele><time>2026-05-02T12:28:40Z</time></trkpt><trkpt lat="42.652332218137246" lon="12.63031790254283"><ele>443.0</ele><time>2026-05-02T12:28:41Z</time></trkpt><trkpt lat="42.65235219922097" lon="12.63050762728304"><ele>437.0</ele><time>2026-05-02T12:28:42Z</time></trkpt><trkpt lat="42.65238133096415" lon="12.630690851493508"><ele>436.0</ele><time>2026-05-02T12:28:43Z</time></trkpt><trkpt lat="42.65243781003708" lon="12.630842697895654"><ele>435.00000000000006</ele><time>2026-05-02T12:28:44Z</time></trkpt><trkpt lat="42.65248662432155" lon="12.630967728991152"><ele>434.00000000000006</ele><time>2026-05-02T12:28:45Z</time></trkpt><trkpt lat="42.65250550788521" lon="12.63108057822024"><ele>433.0</ele><time>2026-05-02T12:28:46Z</time></trkpt><trkpt lat="42.65246702348083" lon="12.631192745493951"><ele>432.0</ele><time>2026-05-02T12:28:47Z</time></trkpt><trkpt lat="42.65242333348582" lon="12.631302212914425"><ele>428.75</ele><time>2026-05-02T12:28:48Z</time></trkpt><trkpt lat="42.65235925314653" lon="12.631465951249316"><ele>425.5</ele><time>2026-05-02T12:28:49Z</time></trkpt><trkpt lat="42.65231049805197" lon="12.631659595130106"><ele>422.25</ele><time>2026-05-02T12:28:50Z</time></trkpt><trkpt lat="42.65225753707292" lon="12.631807932275342"><ele>419.0</ele><time>2026-05-02T12:28:51Z</time></trkpt><trkpt lat="42.65221287369996" lon="12.631936707450796"><ele>418.6</ele><time>2026-05-02T12:28:52Z</time></trkpt><trkpt lat="42.65216808245394" lon="12.632040052927064"><ele>418.2</ele><time>2026-05-02T12:28:53Z</time></trkpt><trkpt lat="42.65211618138886" lon="12.632131610938803"><ele>417.8</ele><time>2026-05-02T12:28:54Z</time></trkpt><trkpt lat="42.6520172104025" lon="12.632152768896018"><ele>417.40000000000003</ele><time>2026-05-02T12:28:55Z</time></trkpt><trkpt lat="42.65191472705851" lon="12.632183772974965"><ele>417.0</ele><time>2026-05-02T12:28:56Z</time></trkpt><trkpt lat="42.65182257156435" lon="12.632234178677113"><ele>417.0</ele><time>2026-05-02T12:28:57Z</time></trkpt><trkpt lat="42.65175568083312" lon="12.63236407994968"><ele>417.0</ele><time>2026-05-02T12:28:58Z</time></trkpt><trkpt lat="42.65169396531599" lon="12.632506196045002"><ele>417.0</ele><time>2026-05-02T12:28:59Z</time></trkpt><trkpt lat="42.65159909149869" lon="12.63260409477472"><ele>417.0</ele><time>2026-05-02T12:29:00Z</time></trkpt><trkpt lat="42.65150234277106" lon="12.63268428968337"><ele>417.0</ele><time>2026-05-02T12:29:01Z</time></trkpt><trkpt lat="42.65138841651473" lon="12.632778320467304"><ele>417.0</ele><time>2026-05-02T12:29:02Z</time></trkpt><trkpt lat="42.65126769157512" lon="12.632853976300083"><ele>417.0</ele><time>2026-05-02T12:29:03Z</time></trkpt><trkpt lat="42.65115429916714" lon="12.63292362088624"><ele>417.0</ele><time>2026-05-02T12:29:04Z</time></trkpt><trkpt lat="42.65104742049559" lon="12.63298790097113"><ele>412.40000000000003</ele><time>2026-05-02T12:29:05Z</time></trkpt><trkpt lat="42.65095841974879" lon="12.633033119155755"><ele>407.8</ele><time>2026-05-02T12:29:06Z</time></trkpt><trkpt lat="42.65088508568263" lon="12.63306291107124"><ele>403.2</ele><time>2026-05-02T12:29:07Z</time></trkpt><trkpt lat="42.65086142542458" lon="12.633144538719357"><ele>398.6</ele><time>2026-05-02T12:29:09Z</time></trkpt><trkpt lat="42.65095672020042" lon="12.63323967414669"><ele>394.0</ele><time>2026-05-02T12:29:11Z</time></trkpt><trkpt lat="42.65106947281824" lon="12.633219328659369"><ele>392.25</ele><time>2026-05-02T12:29:12Z</time></trkpt><trkpt lat="42.651187110146644" lon="12.633199674067178"><ele>390.5</ele><time>2026-05-02T12:29:13Z</time></trkpt><trkpt lat="42.651301140742554" lon="12.633202760068194"><ele>388.75</ele><time>2026-05-02T12:29:14Z</time></trkpt><trkpt lat="42.65142688241754" lon="12.633209710548673"><ele>387.0</ele><time>2026-05-02T12:29:15Z</time></trkpt><trkpt lat="42.65155183742204" lon="12.633243431212737"><ele>387.0</ele><time>2026-05-02T12:29:16Z</time></trkpt><trkpt lat="42.651677304788144" lon="12.633277837663538"><ele>387.0</ele><time>2026-05-02T12:29:17Z</time></trkpt><trkpt lat="42.65180596377634" lon="12.633291010874691"><ele>387.0</ele><time>2026-05-02T12:29:18Z</time></trkpt><trkpt lat="42.65192998008985" lon="12.633353104394505"><ele>387.0</ele><time>2026-05-02T12:29:19Z</time></trkpt><trkpt lat="42.65205178218191" lon="12.63340371729768"><ele>384.25</ele><time>2026-05-02T12:29:20Z</time></trkpt><trkpt lat="42.65218261925197" lon="12.633448620617694"><ele>381.5</ele><time>2026-05-02T12:29:21Z</time></trkpt><trkpt lat="42.652308116057746" lon="12.633517213688346"><ele>378.75</ele><time>2026-05-02T12:29:22Z</time></trkpt><trkpt lat="42.65243067241814" lon="12.633590772739085"><ele>376.0</ele><time>2026-05-02T12:29:23Z</time></trkpt><trkpt lat="42.65255193568923" lon="12.633649367926802"><ele>373.4</ele><time>2026-05-02T12:29:24Z</time></trkpt><trkpt lat="42.65266720143748" lon="12.633697237487082"><ele>370.8</ele><time>2026-05-02T12:29:25Z</time></trkpt><trkpt lat="42.65278232844482" lon="12.633731601416825"><ele>368.2</ele><time>2026-05-02T12:29:26Z</time></trkpt><trkpt lat="42.65287985675487" lon="12.633756832902419"><ele>365.59999999999997</ele><time>2026-05-02T12:29:27Z</time></trkpt><trkpt lat="42.65295292620947" lon="12.633783004828931"><ele>363.0</ele><time>2026-05-02T12:29:28Z</time></trkpt><trkpt lat="42.65300152196071" lon="12.633878522957671"><ele>363.0</ele><time>2026-05-02T12:29:29Z</time></trkpt><trkpt lat="42.65310439571987" lon="12.633938525502579"><ele>363.0</ele><time>2026-05-02T12:29:30Z</time></trkpt><trkpt lat="42.65322331086348" lon="12.634018223798163"><ele>363.0</ele><time>2026-05-02T12:29:31Z</time></trkpt><trkpt lat="42.653384570356366" lon="12.634041525358057"><ele>363.0</ele><time>2026-05-02T12:29:32Z</time></trkpt><trkpt lat="42.65355306205867" lon="12.634024311937692"><ele>363.6666666666667</ele><time>2026-05-02T12:29:33Z</time></trkpt><trkpt lat="42.65372203260771" lon="12.634021011714063"><ele>364.33333333333337</ele><time>2026-05-02T12:29:34Z</time></trkpt><trkpt lat="42.65388357019801" lon="12.634052233338606"><ele>365.0</ele><time>2026-05-02T12:29:35Z</time></trkpt><trkpt lat="42.65403223436948" lon="12.63407101149276"><ele>365.0</ele><time>2026-05-02T12:29:36Z</time></trkpt><trkpt lat="42.65417076580308" lon="12.634054212644143"><ele>365.0</ele><time>2026-05-02T12:29:37Z</time></trkpt><trkpt lat="42.65429974695368" lon="12.634016349984194"><ele>365.0</ele><time>2026-05-02T12:29:38Z</time></trkpt><trkpt lat="42.65441860761973" lon="12.63399105842817"><ele>365.0</ele><time>2026-05-02T12:29:39Z</time></trkpt><trkpt lat="42.65453492831007" lon="12.634007908352519"><ele>365.0</ele><time>2026-05-02T12:29:40Z</time></trkpt><trkpt lat="42.65462711501405" lon="12.634111289647558"><ele>365.0</ele><time>2026-05-02T12:29:41Z</time></trkpt><trkpt lat="42.65470684607036" lon="12.63424767461239"><ele>365.0</ele><time>2026-05-02T12:29:42Z</time></trkpt><trkpt lat="42.65476349492362" lon="12.634444431872508"><ele>365.0</ele><time>2026-05-02T12:29:43Z</time></trkpt><trkpt lat="42.65481998680658" lon="12.634662252308134"><ele>365.0</ele><time>2026-05-02T12:29:44Z</time></trkpt><trkpt lat="42.65488882161906" lon="12.634794929224759"><ele>365.0</ele><time>2026-05-02T12:29:45Z</time></trkpt><trkpt lat="42.65493956011108" lon="12.634948145240212"><ele>365.0</ele><time>2026-05-02T12:29:46Z</time></trkpt><trkpt lat="42.6549498357502" lon="12.635104971321184"><ele>365.0</ele><time>2026-05-02T12:29:47Z</time></trkpt><trkpt lat="42.65496175137457" lon="12.635244987159078"><ele>363.8</ele><time>2026-05-02T12:29:48Z</time></trkpt><trkpt lat="42.654977282193805" lon="12.63536228255403"><ele>362.6</ele><time>2026-05-02T12:29:49Z</time></trkpt><trkpt lat="42.654949351517146" lon="12.635440760202394"><ele>361.4</ele><time>2026-05-02T12:29:50Z</time></trkpt><trkpt lat="42.654818711569696" lon="12.635466092360076"><ele>360.2</ele><time>2026-05-02T12:29:52Z</time></trkpt><trkpt lat="42.654713831340466" lon="12.635452676479032"><ele>359.0</ele><time>2026-05-02T12:29:53Z</time></trkpt><trkpt lat="42.654602194696224" lon="12.635398775002475"><ele>359.0</ele><time>2026-05-02T12:29:54Z</time></trkpt><trkpt lat="42.654465912227074" lon="12.635356421988858"><ele>359.0</ele><time>2026-05-02T12:29:55Z</time></trkpt><trkpt lat="42.65431657530086" lon="12.635316371874476"><ele>359.0</ele><time>2026-05-02T12:29:56Z</time></trkpt><trkpt lat="42.65417577493012" lon="12.635274045980774"><ele>359.0</ele><time>2026-05-02T12:29:57Z</time></trkpt><trkpt lat="42.6540292400764" lon="12.635240252568245"><ele>359.6666666666667</ele><time>2026-05-02T12:29:58Z</time></trkpt><trkpt lat="42.65387988988222" lon="12.63522311991162"><ele>360.3333333333333</ele><time>2026-05-02T12:29:59Z</time></trkpt><trkpt lat="42.65373805782179" lon="12.635207754926892"><ele>361.0</ele><time>2026-05-02T12:30:00Z</time></trkpt><trkpt lat="42.6535817612577" lon="12.635182693878678"><ele>361.0</ele><time>2026-05-02T12:30:01Z</time></trkpt><trkpt lat="42.65342043776566" lon="12.635154661338454"><ele>361.0</ele><time>2026-05-02T12:30:02Z</time></trkpt><trkpt lat="42.65325812455654" lon="12.635126594717562"><ele>361.0</ele><time>2026-05-02T12:30:03Z</time></trkpt><trkpt lat="42.653116651951905" lon="12.635125172195222"><ele>361.0</ele><time>2026-05-02T12:30:05Z</time></trkpt><trkpt lat="42.65303389014509" lon="12.63511953859418"><ele>361.0</ele><time>2026-05-02T12:30:06Z</time></trkpt><trkpt lat="42.65294164713244" lon="12.635076172628004"><ele>361.0</ele><time>2026-05-02T12:30:08Z</time></trkpt><trkpt lat="42.65299248325549" lon="12.63487849228584"><ele>361.0</ele><time>2026-05-02T12:30:10Z</time></trkpt><trkpt lat="42.65300735464225" lon="12.634730402070764"><ele>361.0</ele><time>2026-05-02T12:30:11Z</time></trkpt><trkpt lat="42.653026747422025" lon="12.634561021608471"><ele>361.4</ele><time>2026-05-02T12:30:12Z</time></trkpt><trkpt lat="42.65303107085752" lon="12.634429709038415"><ele>361.8</ele><time>2026-05-02T12:30:13Z</time></trkpt><trkpt lat="42.65300906592018" lon="12.634337822811172"><ele>362.2</ele><time>2026-05-02T12:30:14Z</time></trkpt><trkpt lat="42.65295819804926" lon="12.634273010224497"><ele>362.59999999999997</ele><time>2026-05-02T12:30:15Z</time></trkpt><trkpt lat="42.65286890545397" lon="12.634218725504502"><ele>363.0</ele><time>2026-05-02T12:30:16Z</time></trkpt><trkpt lat="42.65273122202208" lon="12.63425848146102"><ele>363.0</ele><time>2026-05-02T12:30:17Z</time></trkpt><trkpt lat="42.652602038641824" lon="12.634296147278052"><ele>363.0</ele><time>2026-05-02T12:30:18Z</time></trkpt><trkpt lat="42.652460151182886" lon="12.63431321897288"><ele>363.0</ele><time>2026-05-02T12:30:19Z</time></trkpt><trkpt lat="42.65231032159307" lon="12.634353063198837"><ele>363.0</ele><time>2026-05-02T12:30:20Z</time></trkpt><trkpt lat="42.65215842205945" lon="12.634393457898963"><ele>363.0</ele><time>2026-05-02T12:30:21Z</time></trkpt><trkpt lat="42.65199569303875" lon="12.634432597902553"><ele>363.0</ele><time>2026-05-02T12:30:22Z</time></trkpt><trkpt lat="42.651848524054614" lon="12.63448129555747"><ele>363.0</ele><time>2026-05-02T12:30:23Z</time></trkpt><trkpt lat="42.65170531092335" lon="12.634516962738667"><ele>361.0</ele><time>2026-05-02T12:30:24Z</time></trkpt><trkpt lat="42.651560363835365" lon="12.634557068086902"><ele>359.0</ele><time>2026-05-02T12:30:25Z</time></trkpt><trkpt lat="42.651413412953424" lon="12.634641115016791"><ele>357.0</ele><time>2026-05-02T12:30:26Z</time></trkpt><trkpt lat="42.651271880848455" lon="12.63470657432265"><ele>357.0</ele><time>2026-05-02T12:30:27Z</time></trkpt><trkpt lat="42.65114529473917" lon="12.634780764610548"><ele>357.0</ele><time>2026-05-02T12:30:28Z</time></trkpt><trkpt lat="42.651037480490324" lon="12.634877920981452"><ele>357.0</ele><time>2026-05-02T12:30:29Z</time></trkpt><trkpt lat="42.65091676419323" lon="12.634995271083941"><ele>357.0</ele><time>2026-05-02T12:30:30Z</time></trkpt><trkpt lat="42.650784238592394" lon="12.635131099968788"><ele>356.6666666666667</ele><time>2026-05-02T12:30:31Z</time></trkpt><trkpt lat="42.65066182910287" lon="12.635280158684202"><ele>356.33333333333337</ele><time>2026-05-02T12:30:32Z</time></trkpt><trkpt lat="42.650541539147866" lon="12.63541813472966"><ele>356.0</ele><time>2026-05-02T12:30:33Z</time></trkpt><trkpt lat="42.65040983040279" lon="12.63555954720579"><ele>354.6666666666667</ele><time>2026-05-02T12:30:33.999Z</time></trkpt><trkpt lat="42.65028117434381" lon="12.63569334331539"><ele>353.3333333333333</ele><time>2026-05-02T12:30:34.999Z</time></trkpt><trkpt lat="42.65015886087929" lon="12.635817401342834"><ele>352.0</ele><time>2026-05-02T12:30:35.999Z</time></trkpt><trkpt lat="42.65003371090913" lon="12.635962086584625"><ele>352.0</ele><time>2026-05-02T12:30:36.999Z</time></trkpt><trkpt lat="42.64989715649441" lon="12.636070957699785"><ele>352.0</ele><time>2026-05-02T12:30:37.999Z</time></trkpt><trkpt lat="42.64977879947752" lon="12.636186724988697"><ele>352.0</ele><time>2026-05-02T12:30:38.999Z</time></trkpt><trkpt lat="42.64966742993814" lon="12.636295657564723"><ele>352.0</ele><time>2026-05-02T12:30:39.999Z</time></trkpt><trkpt lat="42.6495644486721" lon="12.63639495340536"><ele>351.75</ele><time>2026-05-02T12:30:41Z</time></trkpt><trkpt lat="42.64945668007941" lon="12.63649799966122"><ele>351.5</ele><time>2026-05-02T12:30:42Z</time></trkpt><trkpt lat="42.64934796204271" lon="12.636601953716523"><ele>351.25</ele><time>2026-05-02T12:30:43Z</time></trkpt><trkpt lat="42.64924705113964" lon="12.636700301437186"><ele>351.0</ele><time>2026-05-02T12:30:44Z</time></trkpt><trkpt lat="42.64914480924764" lon="12.63680340781081"><ele>351.0</ele><time>2026-05-02T12:30:45Z</time></trkpt><trkpt lat="42.64904966169353" lon="12.63693664687615"><ele>351.0</ele><time>2026-05-02T12:30:46Z</time></trkpt><trkpt lat="42.64896127446935" lon="12.637103432777566"><ele>351.0</ele><time>2026-05-02T12:30:47Z</time></trkpt><trkpt lat="42.648891610424116" lon="12.637283890958969"><ele>351.0</ele><time>2026-05-02T12:30:48Z</time></trkpt><trkpt lat="42.64879677624627" lon="12.637413686016249"><ele>351.25</ele><time>2026-05-02T12:30:49Z</time></trkpt><trkpt lat="42.648682338884036" lon="12.637551729832873"><ele>351.5</ele><time>2026-05-02T12:30:50Z</time></trkpt><trkpt lat="42.64856188886533" lon="12.63766363223414"><ele>351.75</ele><time>2026-05-02T12:30:51Z</time></trkpt><trkpt lat="42.64845955385151" lon="12.63775241486425"><ele>352.0</ele><time>2026-05-02T12:30:52Z</time></trkpt><trkpt lat="42.64836457882164" lon="12.637834021454363"><ele>351.20000000000005</ele><time>2026-05-02T12:30:53Z</time></trkpt><trkpt lat="42.64828307005503" lon="12.637887246553747"><ele>350.4</ele><time>2026-05-02T12:30:54Z</time></trkpt><trkpt lat="42.648215999000335" lon="12.637924918242385"><ele>349.6</ele><time>2026-05-02T12:30:55Z</time></trkpt><trkpt lat="42.64812772723864" lon="12.637950240444669"><ele>348.79999999999995</ele><time>2026-05-02T12:30:56Z</time></trkpt><trkpt lat="42.648000768550126" lon="12.637997648251769"><ele>348.0</ele><time>2026-05-02T12:30:57Z</time></trkpt><trkpt lat="42.64787983149193" lon="12.638048172970832"><ele>349.0</ele><time>2026-05-02T12:30:58Z</time></trkpt><trkpt lat="42.647778956653774" lon="12.63812462326254"><ele>350.0</ele><time>2026-05-02T12:30:59Z</time></trkpt><trkpt lat="42.64769730589827" lon="12.638257250867255"><ele>351.0</ele><time>2026-05-02T12:31:00Z</time></trkpt><trkpt lat="42.64757477447619" lon="12.63832418247489"><ele>352.0</ele><time>2026-05-02T12:31:01Z</time></trkpt><trkpt lat="42.647444924391614" lon="12.638401422378005"><ele>352.0</ele><time>2026-05-02T12:31:02Z</time></trkpt><trkpt lat="42.647321712633726" lon="12.638503265739406"><ele>352.0</ele><time>2026-05-02T12:31:03Z</time></trkpt><trkpt lat="42.64723410965211" lon="12.638563480284642"><ele>352.0</ele><time>2026-05-02T12:31:04Z</time></trkpt><trkpt lat="42.64716725471064" lon="12.638650770031001"><ele>352.0</ele><time>2026-05-02T12:31:05Z</time></trkpt><trkpt lat="42.64710146791062" lon="12.638752019334627"><ele>352.0</ele><time>2026-05-02T12:31:06Z</time></trkpt><trkpt lat="42.6470264234249" lon="12.638855576101134"><ele>352.25</ele><time>2026-05-02T12:31:07Z</time></trkpt><trkpt lat="42.646929744442446" lon="12.638948657283926"><ele>352.5</ele><time>2026-05-02T12:31:08Z</time></trkpt><trkpt lat="42.64684095399389" lon="12.63903470467308"><ele>352.75</ele><time>2026-05-02T12:31:09Z</time></trkpt><trkpt lat="42.64673855609772" lon="12.639125095580061"><ele>353.0</ele><time>2026-05-02T12:31:10Z</time></trkpt><trkpt lat="42.64664064470004" lon="12.639227525410679"><ele>353.0</ele><time>2026-05-02T12:31:11Z</time></trkpt><trkpt lat="42.64655177292364" lon="12.639312034873598"><ele>353.0</ele><time>2026-05-02T12:31:12Z</time></trkpt><trkpt lat="42.64645474428944" lon="12.639392476138172"><ele>353.0</ele><time>2026-05-02T12:31:13Z</time></trkpt><trkpt lat="42.64636746535935" lon="12.639469883570042"><ele>353.0</ele><time>2026-05-02T12:31:14Z</time></trkpt><trkpt lat="42.64626653594819" lon="12.639550226128947"><ele>353.0</ele><time>2026-05-02T12:31:15Z</time></trkpt><trkpt lat="42.64618165301045" lon="12.639622675131656"><ele>352.0</ele><time>2026-05-02T12:31:16Z</time></trkpt><trkpt lat="42.64608570441248" lon="12.639698334177776"><ele>351.0</ele><time>2026-05-02T12:31:17Z</time></trkpt><trkpt lat="42.64600407937551" lon="12.639784109245404"><ele>350.0</ele><time>2026-05-02T12:31:18Z</time></trkpt><trkpt lat="42.645922040427465" lon="12.639877311827707"><ele>349.0</ele><time>2026-05-02T12:31:19Z</time></trkpt><trkpt lat="42.64583492571998" lon="12.639995045983207"><ele>348.0</ele><time>2026-05-02T12:31:20Z</time></trkpt><trkpt lat="42.64574132822533" lon="12.640103962330786"><ele>348.0</ele><time>2026-05-02T12:31:21Z</time></trkpt><trkpt lat="42.64563640142818" lon="12.64016965826724"><ele>348.0</ele><time>2026-05-02T12:31:22Z</time></trkpt><trkpt lat="42.645520526818586" lon="12.640252244372135"><ele>348.0</ele><time>2026-05-02T12:31:23Z</time></trkpt><trkpt lat="42.64539971622626" lon="12.64035359621938"><ele>348.0</ele><time>2026-05-02T12:31:24Z</time></trkpt><trkpt lat="42.64528868074169" lon="12.640429746825973"><ele>347.1666666666667</ele><time>2026-05-02T12:31:25Z</time></trkpt><trkpt lat="42.645195678544916" lon="12.640494639522009"><ele>346.3333333333333</ele><time>2026-05-02T12:31:26Z</time></trkpt><trkpt lat="42.64511767373494" lon="12.640523315485757"><ele>345.5</ele><time>2026-05-02T12:31:27Z</time></trkpt><trkpt lat="42.64504510631954" lon="12.640571435598892"><ele>344.66666666666663</ele><time>2026-05-02T12:31:28Z</time></trkpt><trkpt lat="42.64498207491328" lon="12.64061179334926"><ele>343.8333333333333</ele><time>2026-05-02T12:31:29Z</time></trkpt><trkpt lat="42.64491254859649" lon="12.640690826329783"><ele>343.0</ele><time>2026-05-02T12:31:30Z</time></trkpt><trkpt lat="42.64483930532511" lon="12.640742639714897"><ele>343.0</ele><time>2026-05-02T12:31:31Z</time></trkpt><trkpt lat="42.64474999422359" lon="12.640802916946384"><ele>343.0</ele><time>2026-05-02T12:31:32Z</time></trkpt><trkpt lat="42.64463414377717" lon="12.640871686051788"><ele>343.0</ele><time>2026-05-02T12:31:33Z</time></trkpt><trkpt lat="42.64447155085767" lon="12.640947204582535"><ele>343.0</ele><time>2026-05-02T12:31:34Z</time></trkpt><trkpt lat="42.6443016630925" lon="12.641018751515059"><ele>342.3333333333333</ele><time>2026-05-02T12:31:35Z</time></trkpt><trkpt lat="42.64412471176274" lon="12.641090591266254"><ele>341.6666666666667</ele><time>2026-05-02T12:31:36Z</time></trkpt><trkpt lat="42.6439404387808" lon="12.641169355967431"><ele>341.0</ele><time>2026-05-02T12:31:37Z</time></trkpt><trkpt lat="42.64375529291679" lon="12.641254665848166"><ele>340.33333333333337</ele><time>2026-05-02T12:31:38Z</time></trkpt><trkpt lat="42.64356919035433" lon="12.641346197109934"><ele>339.6666666666667</ele><time>2026-05-02T12:31:39Z</time></trkpt><trkpt lat="42.64338145738723" lon="12.64142549956037"><ele>339.0</ele><time>2026-05-02T12:31:40Z</time></trkpt><trkpt lat="42.64319674393486" lon="12.641504893223082"><ele>339.0</ele><time>2026-05-02T12:31:41Z</time></trkpt><trkpt lat="42.64300898813199" lon="12.641591561017938"><ele>339.0</ele><time>2026-05-02T12:31:42Z</time></trkpt><trkpt lat="42.64283104002419" lon="12.641670161249296"><ele>339.0</ele><time>2026-05-02T12:31:43Z</time></trkpt><trkpt lat="42.64265501123919" lon="12.641742579685896"><ele>339.3333333333333</ele><time>2026-05-02T12:31:44Z</time></trkpt><trkpt lat="42.642475816040374" lon="12.641821824838019"><ele>339.66666666666663</ele><time>2026-05-02T12:31:45Z</time></trkpt><trkpt lat="42.642311559587306" lon="12.641907497033047"><ele>340.0</ele><time>2026-05-02T12:31:46Z</time></trkpt><trkpt lat="42.64216107170931" lon="12.641995579700403"><ele>338.0</ele><time>2026-05-02T12:31:47Z</time></trkpt><trkpt lat="42.64201960375977" lon="12.642084194266785"><ele>336.0</ele><time>2026-05-02T12:31:48Z</time></trkpt><trkpt lat="42.6418788911634" lon="12.64217359123073"><ele>334.0</ele><time>2026-05-02T12:31:49Z</time></trkpt><trkpt lat="42.64174362699555" lon="12.642259967945902"><ele>334.0</ele><time>2026-05-02T12:31:50Z</time></trkpt><trkpt lat="42.641603396003234" lon="12.642333396275001"><ele>334.0</ele><time>2026-05-02T12:31:51Z</time></trkpt><trkpt lat="42.6414602747714" lon="12.642356741891842"><ele>334.0</ele><time>2026-05-02T12:31:52Z</time></trkpt><trkpt lat="42.64131868206356" lon="12.64230819786406"><ele>334.0</ele><time>2026-05-02T12:31:53Z</time></trkpt><trkpt lat="42.64116494814661" lon="12.6422092369917"><ele>333.66666666666663</ele><time>2026-05-02T12:31:54Z</time></trkpt><trkpt lat="42.640998553982975" lon="12.642101668576272"><ele>333.3333333333333</ele><time>2026-05-02T12:31:55Z</time></trkpt><trkpt lat="42.640859422210404" lon="12.642030509568663"><ele>333.0</ele><time>2026-05-02T12:31:56Z</time></trkpt><trkpt lat="42.64069528232316" lon="12.64204637079569"><ele>333.0</ele><time>2026-05-02T12:31:57Z</time></trkpt><trkpt lat="42.640540444498924" lon="12.64214498028595"><ele>333.0</ele><time>2026-05-02T12:31:58Z</time></trkpt><trkpt lat="42.64039974434343" lon="12.642287490175182"><ele>333.0</ele><time>2026-05-02T12:31:59Z</time></trkpt><trkpt lat="42.640257959605165" lon="12.64245344766976"><ele>333.0</ele><time>2026-05-02T12:32:00Z</time></trkpt><trkpt lat="42.640101536042714" lon="12.642602335863572"><ele>333.0</ele><time>2026-05-02T12:32:01Z</time></trkpt><trkpt lat="42.63993842670744" lon="12.642758118324195"><ele>333.0</ele><time>2026-05-02T12:32:02Z</time></trkpt><trkpt lat="42.639787323888996" lon="12.642943426533087"><ele>333.0</ele><time>2026-05-02T12:32:03Z</time></trkpt><trkpt lat="42.63963068488962" lon="12.64311034736759"><ele>333.0</ele><time>2026-05-02T12:32:04Z</time></trkpt><trkpt lat="42.63949187109437" lon="12.643270469872867"><ele>333.0</ele><time>2026-05-02T12:32:05Z</time></trkpt><trkpt lat="42.63934949052658" lon="12.643407634154741"><ele>332.6666666666667</ele><time>2026-05-02T12:32:06Z</time></trkpt><trkpt lat="42.63921458197908" lon="12.643570009095557"><ele>332.33333333333337</ele><time>2026-05-02T12:32:07Z</time></trkpt><trkpt lat="42.63906565006871" lon="12.643750333399346"><ele>332.0</ele><time>2026-05-02T12:32:08Z</time></trkpt><trkpt lat="42.63892261116201" lon="12.643928076061735"><ele>332.0</ele><time>2026-05-02T12:32:09Z</time></trkpt><trkpt lat="42.63878243028788" lon="12.644108357245962"><ele>332.0</ele><time>2026-05-02T12:32:10Z</time></trkpt><trkpt lat="42.63865089935406" lon="12.644278391898872"><ele>332.0</ele><time>2026-05-02T12:32:11Z</time></trkpt><trkpt lat="42.638514093927114" lon="12.644461082847569"><ele>332.0</ele><time>2026-05-02T12:32:12Z</time></trkpt><trkpt lat="42.638376917082795" lon="12.644645805480133"><ele>332.0</ele><time>2026-05-02T12:32:13Z</time></trkpt><trkpt lat="42.63824786557401" lon="12.644847482079177"><ele>332.0</ele><time>2026-05-02T12:32:14Z</time></trkpt><trkpt lat="42.63810425118211" lon="12.645039605206755"><ele>332.0</ele><time>2026-05-02T12:32:15Z</time></trkpt><trkpt lat="42.63794285791306" lon="12.645214028206105"><ele>332.0</ele><time>2026-05-02T12:32:16Z</time></trkpt><trkpt lat="42.63779235794037" lon="12.645399410946093"><ele>332.0</ele><time>2026-05-02T12:32:17Z</time></trkpt><trkpt lat="42.63764115857748" lon="12.64558548016948"><ele>332.33333333333337</ele><time>2026-05-02T12:32:18Z</time></trkpt><trkpt lat="42.63748716494357" lon="12.645775198968934"><ele>332.6666666666667</ele><time>2026-05-02T12:32:19Z</time></trkpt><trkpt lat="42.63733880545614" lon="12.64595826274298"><ele>333.0</ele><time>2026-05-02T12:32:20Z</time></trkpt><trkpt lat="42.637200063766684" lon="12.64615883650313"><ele>332.0</ele><time>2026-05-02T12:32:21Z</time></trkpt><trkpt lat="42.63704192309727" lon="12.646350144118076"><ele>331.0</ele><time>2026-05-02T12:32:22Z</time></trkpt><trkpt lat="42.63687971564088" lon="12.646548798137491"><ele>330.0</ele><time>2026-05-02T12:32:23Z</time></trkpt><trkpt lat="42.63671743011467" lon="12.646750176783463"><ele>330.0</ele><time>2026-05-02T12:32:24Z</time></trkpt><trkpt lat="42.63655354187048" lon="12.646959387167158"><ele>330.0</ele><time>2026-05-02T12:32:25Z</time></trkpt><trkpt lat="42.63638117752222" lon="12.647154584564579"><ele>330.0</ele><time>2026-05-02T12:32:26Z</time></trkpt><trkpt lat="42.636211353678185" lon="12.647367016687491"><ele>333.5</ele><time>2026-05-02T12:32:27Z</time></trkpt><trkpt lat="42.63604386373879" lon="12.647576277847628"><ele>337.0</ele><time>2026-05-02T12:32:27.999Z</time></trkpt><trkpt lat="42.63587115422165" lon="12.647791566328737"><ele>332.0</ele><time>2026-05-02T12:32:28.999Z</time></trkpt><trkpt lat="42.63569611733619" lon="12.648009755832309"><ele>327.0</ele><time>2026-05-02T12:32:29.999Z</time></trkpt><trkpt lat="42.63553146854892" lon="12.64821485793116"><ele>327.0</ele><time>2026-05-02T12:32:30.999Z</time></trkpt><trkpt lat="42.63537297651257" lon="12.648412255007525"><ele>327.0</ele><time>2026-05-02T12:32:31.999Z</time></trkpt><trkpt lat="42.635206730851316" lon="12.648619734264532"><ele>327.0</ele><time>2026-05-02T12:32:32.999Z</time></trkpt><trkpt lat="42.6350492382425" lon="12.648816546003463"><ele>327.3333333333333</ele><time>2026-05-02T12:32:33.999Z</time></trkpt><trkpt lat="42.63489307379848" lon="12.649010267695749"><ele>327.66666666666663</ele><time>2026-05-02T12:32:34.999Z</time></trkpt><trkpt lat="42.6347387451884" lon="12.649203093999734"><ele>328.0</ele><time>2026-05-02T12:32:35.999Z</time></trkpt><trkpt lat="42.634594185777324" lon="12.649393856076808"><ele>332.3333333333333</ele><time>2026-05-02T12:32:36.999Z</time></trkpt><trkpt lat="42.63446214802779" lon="12.649593730944671"><ele>336.6666666666667</ele><time>2026-05-02T12:32:37.999Z</time></trkpt><trkpt lat="42.63432176262442" lon="12.649803830634132"><ele>341.0</ele><time>2026-05-02T12:32:38.999Z</time></trkpt><trkpt lat="42.634196030880446" lon="12.650031957391247"><ele>341.0</ele><time>2026-05-02T12:32:39.999Z</time></trkpt><trkpt lat="42.634080803631164" lon="12.650274497757383"><ele>341.0</ele><time>2026-05-02T12:32:40.999Z</time></trkpt><trkpt lat="42.633965267392284" lon="12.650520143392528"><ele>341.0</ele><time>2026-05-02T12:32:41.999Z</time></trkpt><trkpt lat="42.63382929042679" lon="12.650757739486973"><ele>338.33333333333337</ele><time>2026-05-02T12:32:42.999Z</time></trkpt><trkpt lat="42.63370533684953" lon="12.651003119093536"><ele>335.6666666666667</ele><time>2026-05-02T12:32:43.999Z</time></trkpt><trkpt lat="42.6335781230519" lon="12.65125073633555"><ele>333.0</ele><time>2026-05-02T12:32:44.999Z</time></trkpt><trkpt lat="42.633448345426665" lon="12.651503344802032"><ele>334.6666666666667</ele><time>2026-05-02T12:32:45.999Z</time></trkpt><trkpt lat="42.63332013200729" lon="12.65174236721963"><ele>336.33333333333337</ele><time>2026-05-02T12:32:47Z</time></trkpt><trkpt lat="42.633178791199576" lon="12.651988468735006"><ele>338.0</ele><time>2026-05-02T12:32:48Z</time></trkpt><trkpt lat="42.633034727941244" lon="12.652229970153119"><ele>338.0</ele><time>2026-05-02T12:32:49Z</time></trkpt><trkpt lat="42.63289727471787" lon="12.652483170802967"><ele>338.0</ele><time>2026-05-02T12:32:50Z</time></trkpt><trkpt lat="42.632752887097695" lon="12.652700123803067"><ele>338.0</ele><time>2026-05-02T12:32:51Z</time></trkpt><trkpt lat="42.632615172776134" lon="12.652911241405246"><ele>342.6666666666667</ele><time>2026-05-02T12:32:52Z</time></trkpt><trkpt lat="42.63247292021499" lon="12.653128283231071"><ele>347.3333333333333</ele><time>2026-05-02T12:32:53Z</time></trkpt><trkpt lat="42.63233193140579" lon="12.653346637970861"><ele>352.0</ele><time>2026-05-02T12:32:54Z</time></trkpt><trkpt lat="42.63220060250505" lon="12.653552000812331"><ele>354.66666666666663</ele><time>2026-05-02T12:32:55Z</time></trkpt><trkpt lat="42.63207502441491" lon="12.65374583430518"><ele>357.3333333333333</ele><time>2026-05-02T12:32:56Z</time></trkpt><trkpt lat="42.631945376112895" lon="12.65391896383951"><ele>360.0</ele><time>2026-05-02T12:32:57Z</time></trkpt><trkpt lat="42.631783820505994" lon="12.654046122523235"><ele>360.0</ele><time>2026-05-02T12:32:58Z</time></trkpt><trkpt lat="42.63161274880235" lon="12.654169558252839"><ele>360.0</ele><time>2026-05-02T12:32:59Z</time></trkpt><trkpt lat="42.63142275310338" lon="12.654276069152157"><ele>360.0</ele><time>2026-05-02T12:33:00Z</time></trkpt><trkpt lat="42.63123315593593" lon="12.654400658657691"><ele>359.6666666666667</ele><time>2026-05-02T12:33:01Z</time></trkpt><trkpt lat="42.63105179994928" lon="12.654493161391796"><ele>359.33333333333337</ele><time>2026-05-02T12:33:02Z</time></trkpt><trkpt lat="42.63087229195446" lon="12.654581764847912"><ele>359.0</ele><time>2026-05-02T12:33:03Z</time></trkpt><trkpt lat="42.630699072711046" lon="12.654608387341352"><ele>359.0</ele><time>2026-05-02T12:33:04Z</time></trkpt><trkpt lat="42.63054123752903" lon="12.654666595017869"><ele>359.0</ele><time>2026-05-02T12:33:05Z</time></trkpt><trkpt lat="42.63038954278858" lon="12.654710252324978"><ele>359.0</ele><time>2026-05-02T12:33:06Z</time></trkpt><trkpt lat="42.630229399341765" lon="12.654808920573243"><ele>364.0</ele><time>2026-05-02T12:33:07Z</time></trkpt><trkpt lat="42.63008617962697" lon="12.654952947211614"><ele>369.0</ele><time>2026-05-02T12:33:08Z</time></trkpt><trkpt lat="42.629969881942166" lon="12.655087926745095"><ele>374.0</ele><time>2026-05-02T12:33:09Z</time></trkpt><trkpt lat="42.62986969548546" lon="12.655223077958318"><ele>374.5</ele><time>2026-05-02T12:33:10Z</time></trkpt><trkpt lat="42.629798648386966" lon="12.655367408659515"><ele>375.0</ele><time>2026-05-02T12:33:11Z</time></trkpt><trkpt lat="42.62978090735108" lon="12.655536349262764"><ele>375.5</ele><time>2026-05-02T12:33:12Z</time></trkpt><trkpt lat="42.62980805129098" lon="12.655717244987542"><ele>376.0</ele><time>2026-05-02T12:33:13Z</time></trkpt><trkpt lat="42.629897331645836" lon="12.655840379561694"><ele>376.0</ele><time>2026-05-02T12:33:14Z</time></trkpt><trkpt lat="42.63000966906017" lon="12.655936805303986"><ele>376.0</ele><time>2026-05-02T12:33:15Z</time></trkpt><trkpt lat="42.63018702097648" lon="12.655970753331395"><ele>376.0</ele><time>2026-05-02T12:33:16Z</time></trkpt><trkpt lat="42.63035308070294" lon="12.656008167809336"><ele>376.0</ele><time>2026-05-02T12:33:17Z</time></trkpt><trkpt lat="42.63052599569169" lon="12.656077590416547"><ele>376.0</ele><time>2026-05-02T12:33:18Z</time></trkpt><trkpt lat="42.63068602239565" lon="12.656113901577873"><ele>376.0</ele><time>2026-05-02T12:33:19Z</time></trkpt><trkpt lat="42.63082534420444" lon="12.656173991988513"><ele>376.0</ele><time>2026-05-02T12:33:20Z</time></trkpt><trkpt lat="42.630946696461315" lon="12.656247659615184"><ele>376.0</ele><time>2026-05-02T12:33:21Z</time></trkpt><trkpt lat="42.63102283552422" lon="12.65635862766922"><ele>376.0</ele><time>2026-05-02T12:33:22Z</time></trkpt><trkpt lat="42.63108025778285" lon="12.656451786645901"><ele>376.0</ele><time>2026-05-02T12:33:23Z</time></trkpt><trkpt lat="42.63094638932865" lon="12.656735164217602"><ele>376.0</ele><time>2026-05-02T12:33:25Z</time></trkpt><trkpt lat="42.63085071492046" lon="12.656815419583626"><ele>376.0</ele><time>2026-05-02T12:33:26Z</time></trkpt><trkpt lat="42.63074240146294" lon="12.656910551623266"><ele>376.0</ele><time>2026-05-02T12:33:27Z</time></trkpt><trkpt lat="42.63062410111284" lon="12.657038008237306"><ele>376.0</ele><time>2026-05-02T12:33:28Z</time></trkpt><trkpt lat="42.630503644426206" lon="12.657184618669232"><ele>372.3333333333333</ele><time>2026-05-02T12:33:29Z</time></trkpt><trkpt lat="42.6304003282015" lon="12.657356550473732"><ele>368.6666666666667</ele><time>2026-05-02T12:33:30Z</time></trkpt><trkpt lat="42.63032401823922" lon="12.65756988939999"><ele>365.0</ele><time>2026-05-02T12:33:31Z</time></trkpt><trkpt lat="42.63025614030411" lon="12.657794116255623"><ele>375.6666666666667</ele><time>2026-05-02T12:33:32Z</time></trkpt><trkpt lat="42.630182565740334" lon="12.657985260704455"><ele>386.33333333333337</ele><time>2026-05-02T12:33:33Z</time></trkpt><trkpt lat="42.630088818100695" lon="12.658139151263681"><ele>397.0</ele><time>2026-05-02T12:33:34Z</time></trkpt><trkpt lat="42.63000543219418" lon="12.65831781017355"><ele>397.0</ele><time>2026-05-02T12:33:35Z</time></trkpt><trkpt lat="42.6299735003096" lon="12.658530914437293"><ele>397.0</ele><time>2026-05-02T12:33:36Z</time></trkpt><trkpt lat="42.62999880251109" lon="12.658755778476761"><ele>397.0</ele><time>2026-05-02T12:33:37Z</time></trkpt><trkpt lat="42.63005755813089" lon="12.658975327218084"><ele>395.25</ele><time>2026-05-02T12:33:38Z</time></trkpt><trkpt lat="42.63009969424595" lon="12.65916901606023"><ele>393.5</ele><time>2026-05-02T12:33:39Z</time></trkpt><trkpt lat="42.6301049147949" lon="12.659350828169023"><ele>391.75</ele><time>2026-05-02T12:33:40Z</time></trkpt><trkpt lat="42.63005009010475" lon="12.659542352952863"><ele>390.0</ele><time>2026-05-02T12:33:41Z</time></trkpt><trkpt lat="42.629960272774746" lon="12.659686987368186"><ele>393.0</ele><time>2026-05-02T12:33:42Z</time></trkpt><trkpt lat="42.629827999356266" lon="12.659765389591763"><ele>396.0</ele><time>2026-05-02T12:33:43Z</time></trkpt><trkpt lat="42.62967739930373" lon="12.65981008023424"><ele>399.0</ele><time>2026-05-02T12:33:44Z</time></trkpt><trkpt lat="42.62956034298992" lon="12.65987067328164"><ele>402.0</ele><time>2026-05-02T12:33:45Z</time></trkpt><trkpt lat="42.629451662507286" lon="12.659975984181916"><ele>402.0</ele><time>2026-05-02T12:33:46Z</time></trkpt><trkpt lat="42.62936983525372" lon="12.660124404209949"><ele>402.0</ele><time>2026-05-02T12:33:47Z</time></trkpt><trkpt lat="42.62933813058436" lon="12.660299551714994"><ele>402.0</ele><time>2026-05-02T12:33:48Z</time></trkpt><trkpt lat="42.629336621467125" lon="12.66050514495378"><ele>402.0</ele><time>2026-05-02T12:33:49Z</time></trkpt><trkpt lat="42.629318168121515" lon="12.660706239138246"><ele>399.33333333333337</ele><time>2026-05-02T12:33:50Z</time></trkpt><trkpt lat="42.629251314922485" lon="12.660887951150496"><ele>396.6666666666667</ele><time>2026-05-02T12:33:51Z</time></trkpt><trkpt lat="42.629142414190305" lon="12.661046981493985"><ele>394.0</ele><time>2026-05-02T12:33:52Z</time></trkpt><trkpt lat="42.62899274395184" lon="12.66117976190495"><ele>394.6666666666667</ele><time>2026-05-02T12:33:53Z</time></trkpt><trkpt lat="42.6288340320563" lon="12.66133488742333"><ele>395.33333333333337</ele><time>2026-05-02T12:33:54Z</time></trkpt><trkpt lat="42.62868990481252" lon="12.661492913954943"><ele>396.0</ele><time>2026-05-02T12:33:55Z</time></trkpt><trkpt lat="42.62855796301374" lon="12.661697394476152"><ele>396.0</ele><time>2026-05-02T12:33:56Z</time></trkpt><trkpt lat="42.628439703180874" lon="12.661921331726369"><ele>396.0</ele><time>2026-05-02T12:33:57Z</time></trkpt><trkpt lat="42.628327207262906" lon="12.662128712073532"><ele>396.0</ele><time>2026-05-02T12:33:58Z</time></trkpt><trkpt lat="42.628201012501805" lon="12.662343094208662"><ele>392.66666666666663</ele><time>2026-05-02T12:33:59Z</time></trkpt><trkpt lat="42.628067252914974" lon="12.662560954793094"><ele>389.3333333333333</ele><time>2026-05-02T12:34:00Z</time></trkpt><trkpt lat="42.627935236177976" lon="12.662788676606887"><ele>386.0</ele><time>2026-05-02T12:34:01Z</time></trkpt><trkpt lat="42.62782387076856" lon="12.66302054411918"><ele>386.0</ele><time>2026-05-02T12:34:02Z</time></trkpt><trkpt lat="42.627724397706665" lon="12.663254008688819"><ele>386.0</ele><time>2026-05-02T12:34:03Z</time></trkpt><trkpt lat="42.62762276229751" lon="12.663493166628479"><ele>386.0</ele><time>2026-05-02T12:34:04Z</time></trkpt><trkpt lat="42.62751766848038" lon="12.66372906224391"><ele>386.0</ele><time>2026-05-02T12:34:05Z</time></trkpt><trkpt lat="42.62740063152789" lon="12.663948274910537"><ele>386.0</ele><time>2026-05-02T12:34:06Z</time></trkpt><trkpt lat="42.62726075664147" lon="12.66416289217672"><ele>386.0</ele><time>2026-05-02T12:34:07Z</time></trkpt><trkpt lat="42.627124234386294" lon="12.664367026839646"><ele>387.66666666666663</ele><time>2026-05-02T12:34:08Z</time></trkpt><trkpt lat="42.62699339646266" lon="12.664580741409633"><ele>389.33333333333337</ele><time>2026-05-02T12:34:09Z</time></trkpt><trkpt lat="42.626885736165924" lon="12.66482534613274"><ele>391.0</ele><time>2026-05-02T12:34:10Z</time></trkpt><trkpt lat="42.626812098787525" lon="12.665086050906648"><ele>388.33333333333337</ele><time>2026-05-02T12:34:11Z</time></trkpt><trkpt lat="42.626755490163056" lon="12.665351148202834"><ele>385.6666666666667</ele><time>2026-05-02T12:34:12Z</time></trkpt><trkpt lat="42.62668497845974" lon="12.665582131109378"><ele>383.0</ele><time>2026-05-02T12:34:13Z</time></trkpt><trkpt lat="42.62656305471361" lon="12.665789034567217"><ele>383.0</ele><time>2026-05-02T12:34:14Z</time></trkpt><trkpt lat="42.62640763969572" lon="12.665981935990105"><ele>383.0</ele><time>2026-05-02T12:34:15Z</time></trkpt><trkpt lat="42.62627839153331" lon="12.666158761404457"><ele>383.0</ele><time>2026-05-02T12:34:16Z</time></trkpt><trkpt lat="42.626181249255474" lon="12.666335349907643"><ele>386.75</ele><time>2026-05-02T12:34:17Z</time></trkpt><trkpt lat="42.626100511654094" lon="12.666513847185687"><ele>390.5</ele><time>2026-05-02T12:34:18Z</time></trkpt><trkpt lat="42.62602877533424" lon="12.6666842300754"><ele>394.25</ele><time>2026-05-02T12:34:19Z</time></trkpt><trkpt lat="42.62594525347807" lon="12.666824515488551"><ele>398.0</ele><time>2026-05-02T12:34:20Z</time></trkpt><trkpt lat="42.62580414913586" lon="12.666900783148137"><ele>390.3333333333333</ele><time>2026-05-02T12:34:21Z</time></trkpt><trkpt lat="42.62564862065906" lon="12.6669664563809"><ele>382.66666666666663</ele><time>2026-05-02T12:34:22Z</time></trkpt><trkpt lat="42.62547702060696" lon="12.667042000721299"><ele>375.0</ele><time>2026-05-02T12:34:23Z</time></trkpt><trkpt lat="42.62532537827722" lon="12.667136344199637"><ele>381.66666666666663</ele><time>2026-05-02T12:34:24Z</time></trkpt><trkpt lat="42.62517946268208" lon="12.667242405164844"><ele>388.3333333333333</ele><time>2026-05-02T12:34:25Z</time></trkpt><trkpt lat="42.62504287221888" lon="12.667401646074516"><ele>395.0</ele><time>2026-05-02T12:34:26Z</time></trkpt><trkpt lat="42.62490441782373" lon="12.667572061990509"><ele>395.0</ele><time>2026-05-02T12:34:27Z</time></trkpt><trkpt lat="42.624759770703875" lon="12.667699112447844"><ele>395.0</ele><time>2026-05-02T12:34:28Z</time></trkpt><trkpt lat="42.62461981476817" lon="12.667822768860574"><ele>395.0</ele><time>2026-05-02T12:34:29Z</time></trkpt><trkpt lat="42.624497093032154" lon="12.667959579455735"><ele>394.3333333333333</ele><time>2026-05-02T12:34:30Z</time></trkpt><trkpt lat="42.62436577872465" lon="12.668083982460336"><ele>393.66666666666663</ele><time>2026-05-02T12:34:31Z</time></trkpt><trkpt lat="42.62424211390452" lon="12.668222788586762"><ele>393.0</ele><time>2026-05-02T12:34:32Z</time></trkpt><trkpt lat="42.62412394245779" lon="12.668373979879549"><ele>393.0</ele><time>2026-05-02T12:34:33Z</time></trkpt><trkpt lat="42.624005165340314" lon="12.668538784993606"><ele>393.0</ele><time>2026-05-02T12:34:33.999Z</time></trkpt><trkpt lat="42.6238820212632" lon="12.668712182475087"><ele>393.0</ele><time>2026-05-02T12:34:34.999Z</time></trkpt><trkpt lat="42.62375494297338" lon="12.668886978965077"><ele>395.33333333333337</ele><time>2026-05-02T12:34:35.999Z</time></trkpt><trkpt lat="42.62362989861635" lon="12.669051841916767"><ele>397.6666666666667</ele><time>2026-05-02T12:34:36.999Z</time></trkpt><trkpt lat="42.62351016519075" lon="12.669212517421103"><ele>400.0</ele><time>2026-05-02T12:34:37.999Z</time></trkpt><trkpt lat="42.62339214870009" lon="12.669387460004774"><ele>390.6666666666667</ele><time>2026-05-02T12:34:38.999Z</time></trkpt><trkpt lat="42.6232786117545" lon="12.669582439601944"><ele>381.33333333333337</ele><time>2026-05-02T12:34:39.999Z</time></trkpt><trkpt lat="42.62317098928847" lon="12.669798716142113"><ele>372.0</ele><time>2026-05-02T12:34:40.999Z</time></trkpt><trkpt lat="42.62307526239761" lon="12.670005172073301"><ele>372.0</ele><time>2026-05-02T12:34:41.999Z</time></trkpt><trkpt lat="42.6229885621533" lon="12.670194604946074"><ele>372.0</ele><time>2026-05-02T12:34:42.999Z</time></trkpt><trkpt lat="42.622901006805414" lon="12.670376870627775"><ele>372.0</ele><time>2026-05-02T12:34:43.999Z</time></trkpt><trkpt lat="42.622828510440094" lon="12.6705580796801"><ele>363.0</ele><time>2026-05-02T12:34:44.999Z</time></trkpt><trkpt lat="42.62280366182726" lon="12.670761115569412"><ele>354.0</ele><time>2026-05-02T12:34:45.999Z</time></trkpt><trkpt lat="42.622811960256946" lon="12.670987221034707"><ele>345.0</ele><time>2026-05-02T12:34:46.999Z</time></trkpt><trkpt lat="42.622820831234925" lon="12.671174867636667"><ele>355.5</ele><time>2026-05-02T12:34:47.999Z</time></trkpt><trkpt lat="42.622803399597935" lon="12.67135323009937"><ele>366.0</ele><time>2026-05-02T12:34:48.999Z</time></trkpt><trkpt lat="42.62273752314085" lon="12.671502641871333"><ele>376.5</ele><time>2026-05-02T12:34:49.999Z</time></trkpt><trkpt lat="42.62264002482478" lon="12.671627253490481"><ele>387.0</ele><time>2026-05-02T12:34:50.999Z</time></trkpt><trkpt lat="42.62250311552539" lon="12.671712656856284"><ele>387.0</ele><time>2026-05-02T12:34:51.999Z</time></trkpt><trkpt lat="42.622351175603036" lon="12.67182427606776"><ele>387.0</ele><time>2026-05-02T12:34:53Z</time></trkpt><trkpt lat="42.622211960833454" lon="12.67197215228575"><ele>387.0</ele><time>2026-05-02T12:34:54Z</time></trkpt><trkpt lat="42.62208222067329" lon="12.672146139776803"><ele>391.66666666666663</ele><time>2026-05-02T12:34:55Z</time></trkpt><trkpt lat="42.62197108276861" lon="12.672356752295842"><ele>396.3333333333333</ele><time>2026-05-02T12:34:56Z</time></trkpt><trkpt lat="42.621897704024356" lon="12.672581915028935"><ele>401.0</ele><time>2026-05-02T12:34:57Z</time></trkpt><trkpt lat="42.62185591294968" lon="12.672801281143538"><ele>391.3333333333333</ele><time>2026-05-02T12:34:58Z</time></trkpt><trkpt lat="42.62179842144845" lon="12.672997568795802"><ele>381.66666666666663</ele><time>2026-05-02T12:34:59Z</time></trkpt><trkpt lat="42.621734219840576" lon="12.673180858481368"><ele>372.0</ele><time>2026-05-02T12:35:00Z</time></trkpt><trkpt lat="42.62164211318923" lon="12.67334184885988"><ele>372.0</ele><time>2026-05-02T12:35:01Z</time></trkpt><trkpt lat="42.62150998653316" lon="12.673484086791849"><ele>372.0</ele><time>2026-05-02T12:35:02Z</time></trkpt><trkpt lat="42.62137699122397" lon="12.673626525212054"><ele>372.0</ele><time>2026-05-02T12:35:03Z</time></trkpt><trkpt lat="42.62126881345236" lon="12.673781460994444"><ele>376.33333333333337</ele><time>2026-05-02T12:35:04Z</time></trkpt><trkpt lat="42.621170411271166" lon="12.673981952919693"><ele>380.6666666666667</ele><time>2026-05-02T12:35:05Z</time></trkpt><trkpt lat="42.621112480771856" lon="12.674208792610276"><ele>385.0</ele><time>2026-05-02T12:35:06Z</time></trkpt><trkpt lat="42.62104378674739" lon="12.674412789724347"><ele>377.0</ele><time>2026-05-02T12:35:07Z</time></trkpt><trkpt lat="42.620980076812224" lon="12.674597104610683"><ele>369.0</ele><time>2026-05-02T12:35:08Z</time></trkpt><trkpt lat="42.620887206911014" lon="12.674766648828356"><ele>361.0</ele><time>2026-05-02T12:35:09Z</time></trkpt><trkpt lat="42.62077021356762" lon="12.67492430247245"><ele>361.0</ele><time>2026-05-02T12:35:10Z</time></trkpt><trkpt lat="42.6206340751888" lon="12.675085384466069"><ele>361.0</ele><time>2026-05-02T12:35:11Z</time></trkpt><trkpt lat="42.62048345020521" lon="12.67526021055922"><ele>361.0</ele><time>2026-05-02T12:35:12Z</time></trkpt><trkpt lat="42.62034545230836" lon="12.67543638383387"><ele>360.0</ele><time>2026-05-02T12:35:13Z</time></trkpt><trkpt lat="42.62020905042081" lon="12.675602264351236"><ele>359.0</ele><time>2026-05-02T12:35:14Z</time></trkpt><trkpt lat="42.62006788962066" lon="12.675744163983419"><ele>358.0</ele><time>2026-05-02T12:35:15Z</time></trkpt><trkpt lat="42.61993765081509" lon="12.675896751430887"><ele>358.0</ele><time>2026-05-02T12:35:16Z</time></trkpt><trkpt lat="42.61980735859309" lon="12.676048929805958"><ele>358.0</ele><time>2026-05-02T12:35:17Z</time></trkpt><trkpt lat="42.61968294763915" lon="12.676194207795524"><ele>358.0</ele><time>2026-05-02T12:35:18Z</time></trkpt><trkpt lat="42.61955998902915" lon="12.676348457566396"><ele>361.0</ele><time>2026-05-02T12:35:19Z</time></trkpt><trkpt lat="42.61946280994749" lon="12.67654613321162"><ele>364.0</ele><time>2026-05-02T12:35:20Z</time></trkpt><trkpt lat="42.61936992335631" lon="12.676730156883439"><ele>367.0</ele><time>2026-05-02T12:35:21Z</time></trkpt><trkpt lat="42.619297443529824" lon="12.67692065168953"><ele>358.66666666666663</ele><time>2026-05-02T12:35:22Z</time></trkpt><trkpt lat="42.61920153888471" lon="12.677080842888977"><ele>350.3333333333333</ele><time>2026-05-02T12:35:23Z</time></trkpt><trkpt lat="42.61910438580571" lon="12.67722051918423"><ele>342.0</ele><time>2026-05-02T12:35:24Z</time></trkpt><trkpt lat="42.61897116255345" lon="12.677348394558983"><ele>342.0</ele><time>2026-05-02T12:35:25Z</time></trkpt><trkpt lat="42.61879922305151" lon="12.677455975670203"><ele>342.0</ele><time>2026-05-02T12:35:26Z</time></trkpt><trkpt lat="42.61862170660669" lon="12.677550012675765"><ele>342.0</ele><time>2026-05-02T12:35:27Z</time></trkpt><trkpt lat="42.6184648163833" lon="12.677631050237506"><ele>343.3333333333333</ele><time>2026-05-02T12:35:28Z</time></trkpt><trkpt lat="42.618310164083546" lon="12.677638204449641"><ele>344.66666666666663</ele><time>2026-05-02T12:35:29Z</time></trkpt><trkpt lat="42.618156982037256" lon="12.677620126806614"><ele>346.0</ele><time>2026-05-02T12:35:30Z</time></trkpt><trkpt lat="42.61800315332037" lon="12.677542093136895"><ele>346.0</ele><time>2026-05-02T12:35:31Z</time></trkpt><trkpt lat="42.61782107159846" lon="12.677447163693863"><ele>346.0</ele><time>2026-05-02T12:35:32Z</time></trkpt><trkpt lat="42.61765186036378" lon="12.677360622845104"><ele>346.0</ele><time>2026-05-02T12:35:33Z</time></trkpt><trkpt lat="42.61748801014077" lon="12.677275015729835"><ele>342.0</ele><time>2026-05-02T12:35:34Z</time></trkpt><trkpt lat="42.61732270161323" lon="12.677207220292722"><ele>338.0</ele><time>2026-05-02T12:35:35Z</time></trkpt><trkpt lat="42.617157199132016" lon="12.677153157021959"><ele>334.0</ele><time>2026-05-02T12:35:36Z</time></trkpt><trkpt lat="42.6170025398754" lon="12.677086062539242"><ele>329.66666666666663</ele><time>2026-05-02T12:35:37Z</time></trkpt><trkpt lat="42.61685047187646" lon="12.677009770969"><ele>325.3333333333333</ele><time>2026-05-02T12:35:38Z</time></trkpt><trkpt lat="42.61670783608099" lon="12.676958561321307"><ele>321.0</ele><time>2026-05-02T12:35:39Z</time></trkpt><trkpt lat="42.61655698523012" lon="12.676961916505567"><ele>321.0</ele><time>2026-05-02T12:35:40Z</time></trkpt><trkpt lat="42.61640131050409" lon="12.677025451941834"><ele>321.0</ele><time>2026-05-02T12:35:41Z</time></trkpt><trkpt lat="42.61625533688848" lon="12.67713443907478"><ele>321.0</ele><time>2026-05-02T12:35:42Z</time></trkpt><trkpt lat="42.616125261422866" lon="12.677289964855277"><ele>329.0</ele><time>2026-05-02T12:35:43Z</time></trkpt><trkpt lat="42.616039893201" lon="12.677488572988551"><ele>337.0</ele><time>2026-05-02T12:35:44Z</time></trkpt><trkpt lat="42.615955937337326" lon="12.677698370995088"><ele>345.0</ele><time>2026-05-02T12:35:45Z</time></trkpt><trkpt lat="42.61588201146627" lon="12.67793795862763"><ele>345.0</ele><time>2026-05-02T12:35:46Z</time></trkpt><trkpt lat="42.615821290317584" lon="12.67818138044379"><ele>345.0</ele><time>2026-05-02T12:35:47Z</time></trkpt><trkpt lat="42.61577917202294" lon="12.678401200763762"><ele>345.0</ele><time>2026-05-02T12:35:48Z</time></trkpt><trkpt lat="42.615760126810294" lon="12.678610693159365"><ele>343.5</ele><time>2026-05-02T12:35:49Z</time></trkpt><trkpt lat="42.61572989832814" lon="12.678805698566132"><ele>342.0</ele><time>2026-05-02T12:35:50Z</time></trkpt><trkpt lat="42.615710408586594" lon="12.678989972343834"><ele>340.5</ele><time>2026-05-02T12:35:51Z</time></trkpt><trkpt lat="42.61566398077969" lon="12.679153216224996"><ele>339.0</ele><time>2026-05-02T12:35:52Z</time></trkpt><trkpt lat="42.61560544345065" lon="12.67929940801503"><ele>339.0</ele><time>2026-05-02T12:35:53Z</time></trkpt><trkpt lat="42.61552124612392" lon="12.679420656224329"><ele>339.0</ele><time>2026-05-02T12:35:54Z</time></trkpt><trkpt lat="42.615411433494344" lon="12.679522574199025"><ele>339.0</ele><time>2026-05-02T12:35:55Z</time></trkpt><trkpt lat="42.61527138234537" lon="12.679599754346505"><ele>339.0</ele><time>2026-05-02T12:35:56Z</time></trkpt><trkpt lat="42.61511706857518" lon="12.679666234408817"><ele>335.6666666666667</ele><time>2026-05-02T12:35:57Z</time></trkpt><trkpt lat="42.614973986134764" lon="12.679735016336755"><ele>332.33333333333337</ele><time>2026-05-02T12:35:58Z</time></trkpt><trkpt lat="42.61482602265613" lon="12.679785264966014"><ele>329.0</ele><time>2026-05-02T12:35:59Z</time></trkpt><trkpt lat="42.61467757687758" lon="12.679783307095681"><ele>329.0</ele><time>2026-05-02T12:36:00Z</time></trkpt><trkpt lat="42.61452105546589" lon="12.679796078916544"><ele>329.0</ele><time>2026-05-02T12:36:01Z</time></trkpt><trkpt lat="42.61436362077047" lon="12.67980951403912"><ele>329.0</ele><time>2026-05-02T12:36:02Z</time></trkpt><trkpt lat="42.614195334950914" lon="12.679823105667152"><ele>328.33333333333337</ele><time>2026-05-02T12:36:03Z</time></trkpt><trkpt lat="42.61401773499155" lon="12.679852895887375"><ele>327.6666666666667</ele><time>2026-05-02T12:36:04Z</time></trkpt><trkpt lat="42.61385278826631" lon="12.679848005037034"><ele>327.0</ele><time>2026-05-02T12:36:05Z</time></trkpt><trkpt lat="42.61369845715147" lon="12.679849140989026"><ele>328.0</ele><time>2026-05-02T12:36:06Z</time></trkpt><trkpt lat="42.61355163222369" lon="12.679809276478478"><ele>329.0</ele><time>2026-05-02T12:36:07Z</time></trkpt><trkpt lat="42.61340737178991" lon="12.679831878456922"><ele>330.0</ele><time>2026-05-02T12:36:08Z</time></trkpt><trkpt lat="42.61326914169253" lon="12.679882736972445"><ele>331.0</ele><time>2026-05-02T12:36:09Z</time></trkpt><trkpt lat="42.613138302639754" lon="12.679979501484757"><ele>331.0</ele><time>2026-05-02T12:36:10Z</time></trkpt><trkpt lat="42.61304057062119" lon="12.680123532969604"><ele>331.0</ele><time>2026-05-02T12:36:11Z</time></trkpt><trkpt lat="42.612953181287914" lon="12.680271024519426"><ele>331.0</ele><time>2026-05-02T12:36:12Z</time></trkpt><trkpt lat="42.6128815476485" lon="12.68042697001331"><ele>331.0</ele><time>2026-05-02T12:36:13Z</time></trkpt><trkpt lat="42.612820283330976" lon="12.680574908544513"><ele>333.25</ele><time>2026-05-02T12:36:14Z</time></trkpt><trkpt lat="42.61274984462944" lon="12.680723576923214"><ele>335.5</ele><time>2026-05-02T12:36:15Z</time></trkpt><trkpt lat="42.612662088450364" lon="12.680850227211902"><ele>337.75</ele><time>2026-05-02T12:36:16Z</time></trkpt><trkpt lat="42.61257991649968" lon="12.680986232851104"><ele>340.0</ele><time>2026-05-02T12:36:17Z</time></trkpt><trkpt lat="42.6124926784645" lon="12.681137085410354"><ele>332.75</ele><time>2026-05-02T12:36:18Z</time></trkpt><trkpt lat="42.61239952237371" lon="12.681268296966335"><ele>325.5</ele><time>2026-05-02T12:36:19Z</time></trkpt><trkpt lat="42.612311018753466" lon="12.681393399198717"><ele>318.25</ele><time>2026-05-02T12:36:20Z</time></trkpt><trkpt lat="42.61219082306024" lon="12.681497856972337"><ele>311.0</ele><time>2026-05-02T12:36:21Z</time></trkpt><trkpt lat="42.612063430794734" lon="12.68159256597281"><ele>316.6666666666667</ele><time>2026-05-02T12:36:22Z</time></trkpt><trkpt lat="42.611921499464316" lon="12.681665995265945"><ele>322.3333333333333</ele><time>2026-05-02T12:36:23Z</time></trkpt><trkpt lat="42.61176709782533" lon="12.681720215647976"><ele>328.0</ele><time>2026-05-02T12:36:24Z</time></trkpt><trkpt lat="42.61159888480222" lon="12.681772221125483"><ele>328.0</ele><time>2026-05-02T12:36:25Z</time></trkpt><trkpt lat="42.61143213454631" lon="12.68184338825094"><ele>328.0</ele><time>2026-05-02T12:36:26Z</time></trkpt><trkpt lat="42.61126527691691" lon="12.681879463089457"><ele>328.0</ele><time>2026-05-02T12:36:27Z</time></trkpt><trkpt lat="42.611092150420426" lon="12.681928652027418"><ele>316.3333333333333</ele><time>2026-05-02T12:36:28Z</time></trkpt><trkpt lat="42.610914337226916" lon="12.681985427839807"><ele>304.6666666666667</ele><time>2026-05-02T12:36:29Z</time></trkpt><trkpt lat="42.610749915498666" lon="12.682037493099712"><ele>293.0</ele><time>2026-05-02T12:36:30Z</time></trkpt><trkpt lat="42.61058248946918" lon="12.682092734841671"><ele>293.0</ele><time>2026-05-02T12:36:31Z</time></trkpt><trkpt lat="42.6104323482629" lon="12.6821493768214"><ele>293.0</ele><time>2026-05-02T12:36:32Z</time></trkpt><trkpt lat="42.610286443946364" lon="12.682238795299302"><ele>293.0</ele><time>2026-05-02T12:36:32.999Z</time></trkpt><trkpt lat="42.610138642941294" lon="12.68231199825619"><ele>298.0</ele><time>2026-05-02T12:36:33.999Z</time></trkpt><trkpt lat="42.60999713558558" lon="12.682392976333592"><ele>303.0</ele><time>2026-05-02T12:36:34.999Z</time></trkpt><trkpt lat="42.60983921360051" lon="12.682458074542305"><ele>308.0</ele><time>2026-05-02T12:36:35.999Z</time></trkpt><trkpt lat="42.60967574611757" lon="12.682485506477738"><ele>308.0</ele><time>2026-05-02T12:36:36.999Z</time></trkpt><trkpt lat="42.60951151457009" lon="12.682469638229543"><ele>308.0</ele><time>2026-05-02T12:36:37.999Z</time></trkpt><trkpt lat="42.60933304365752" lon="12.682457442713552"><ele>308.0</ele><time>2026-05-02T12:36:38.999Z</time></trkpt><trkpt lat="42.609145670584134" lon="12.68248300450229"><ele>309.6666666666667</ele><time>2026-05-02T12:36:39.999Z</time></trkpt><trkpt lat="42.608983680992765" lon="12.68257289995546"><ele>311.3333333333333</ele><time>2026-05-02T12:36:40.999Z</time></trkpt><trkpt lat="42.60883456916501" lon="12.682676167534712"><ele>313.0</ele><time>2026-05-02T12:36:41.999Z</time></trkpt><trkpt lat="42.608681480296305" lon="12.682748137698788"><ele>301.66666666666663</ele><time>2026-05-02T12:36:42.999Z</time></trkpt><trkpt lat="42.608534135568256" lon="12.682811041314679"><ele>290.3333333333333</ele><time>2026-05-02T12:36:43.999Z</time></trkpt><trkpt lat="42.60838236389168" lon="12.682817816990386"><ele>279.0</ele><time>2026-05-02T12:36:44.999Z</time></trkpt><trkpt lat="42.608213054698176" lon="12.682795226068494"><ele>279.0</ele><time>2026-05-02T12:36:45.999Z</time></trkpt><trkpt lat="42.60803054390236" lon="12.682768378039677"><ele>279.0</ele><time>2026-05-02T12:36:46.999Z</time></trkpt><trkpt lat="42.60787336396887" lon="12.682762975340392"><ele>279.0</ele><time>2026-05-02T12:36:47.999Z</time></trkpt><trkpt lat="42.607725152227836" lon="12.682723455453045"><ele>295.6666666666667</ele><time>2026-05-02T12:36:48.999Z</time></trkpt><trkpt lat="42.607567917244246" lon="12.682700325568499"><ele>312.33333333333337</ele><time>2026-05-02T12:36:49.999Z</time></trkpt><trkpt lat="42.607386514277685" lon="12.682673031255737"><ele>329.0</ele><time>2026-05-02T12:36:50.999Z</time></trkpt><trkpt lat="42.60720246604537" lon="12.682663669065732"><ele>329.0</ele><time>2026-05-02T12:36:51.999Z</time></trkpt><trkpt lat="42.60704034524761" lon="12.682636716571881"><ele>329.0</ele><time>2026-05-02T12:36:52.999Z</time></trkpt><trkpt lat="42.60689358444425" lon="12.682598138188522"><ele>329.0</ele><time>2026-05-02T12:36:53.999Z</time></trkpt><trkpt lat="42.60674845963403" lon="12.682578543580002"><ele>328.6666666666667</ele><time>2026-05-02T12:36:54.999Z</time></trkpt><trkpt lat="42.60659150111191" lon="12.682581905853844"><ele>328.3333333333333</ele><time>2026-05-02T12:36:55.999Z</time></trkpt><trkpt lat="42.606423396525614" lon="12.682591707797268"><ele>328.0</ele><time>2026-05-02T12:36:56.999Z</time></trkpt><trkpt lat="42.6062710323032" lon="12.682644484658823"><ele>326.3333333333333</ele><time>2026-05-02T12:36:57.999Z</time></trkpt><trkpt lat="42.60612361656915" lon="12.68272608060405"><ele>324.6666666666667</ele><time>2026-05-02T12:36:59Z</time></trkpt><trkpt lat="42.60597682309269" lon="12.682736921149303"><ele>323.0</ele><time>2026-05-02T12:37:00Z</time></trkpt><trkpt lat="42.60583247916167" lon="12.682740686131114"><ele>323.0</ele><time>2026-05-02T12:37:01Z</time></trkpt><trkpt lat="42.60568057223536" lon="12.682728207903835"><ele>323.0</ele><time>2026-05-02T12:37:02Z</time></trkpt><trkpt lat="42.605516952240315" lon="12.682726729742093"><ele>323.0</ele><time>2026-05-02T12:37:03Z</time></trkpt><trkpt lat="42.605362218862794" lon="12.682692013844498"><ele>317.6666666666667</ele><time>2026-05-02T12:37:04Z</time></trkpt><trkpt lat="42.60521327407676" lon="12.682627489576277"><ele>312.3333333333333</ele><time>2026-05-02T12:37:05Z</time></trkpt><trkpt lat="42.605077382601614" lon="12.682544057399127"><ele>307.0</ele><time>2026-05-02T12:37:06Z</time></trkpt><trkpt lat="42.60494961008264" lon="12.682446839858022"><ele>307.0</ele><time>2026-05-02T12:37:07Z</time></trkpt><trkpt lat="42.60481601437312" lon="12.682382935166766"><ele>307.0</ele><time>2026-05-02T12:37:08Z</time></trkpt><trkpt lat="42.604668614185925" lon="12.682362510804042"><ele>307.0</ele><time>2026-05-02T12:37:09Z</time></trkpt><trkpt lat="42.60451907038966" lon="12.682403433637576"><ele>307.0</ele><time>2026-05-02T12:37:10Z</time></trkpt><trkpt lat="42.60438844475339" lon="12.682475495803843"><ele>305.25</ele><time>2026-05-02T12:37:11Z</time></trkpt><trkpt lat="42.60425368849735" lon="12.682538900168785"><ele>303.5</ele><time>2026-05-02T12:37:12Z</time></trkpt><trkpt lat="42.60412028827644" lon="12.682586818155576"><ele>301.75</ele><time>2026-05-02T12:37:13Z</time></trkpt><trkpt lat="42.603986549592065" lon="12.682632023853067"><ele>300.0</ele><time>2026-05-02T12:37:14Z</time></trkpt><trkpt lat="42.60384269827518" lon="12.682629304642678"><ele>300.0</ele><time>2026-05-02T12:37:15Z</time></trkpt><trkpt lat="42.603693530037994" lon="12.682609252444593"><ele>300.0</ele><time>2026-05-02T12:37:16Z</time></trkpt><trkpt lat="42.603537177029715" lon="12.682583353295739"><ele>300.0</ele><time>2026-05-02T12:37:17Z</time></trkpt><trkpt lat="42.60337811901326" lon="12.682524799769364"><ele>299.6666666666667</ele><time>2026-05-02T12:37:18Z</time></trkpt><trkpt lat="42.60321036867283" lon="12.682485179391723"><ele>299.33333333333337</ele><time>2026-05-02T12:37:19Z</time></trkpt><trkpt lat="42.60304593470478" lon="12.682469058796901"><ele>299.0</ele><time>2026-05-02T12:37:20Z</time></trkpt><trkpt lat="42.60287604390348" lon="12.682427822981351"><ele>292.33333333333337</ele><time>2026-05-02T12:37:21Z</time></trkpt><trkpt lat="42.60270309801016" lon="12.682365145763335"><ele>285.6666666666667</ele><time>2026-05-02T12:37:22Z</time></trkpt><trkpt lat="42.602535503790605" lon="12.682320687868529"><ele>279.0</ele><time>2026-05-02T12:37:23Z</time></trkpt><trkpt lat="42.60237700670309" lon="12.682255050227852"><ele>279.0</ele><time>2026-05-02T12:37:24Z</time></trkpt><trkpt lat="42.60221867994308" lon="12.682178571214209"><ele>279.0</ele><time>2026-05-02T12:37:25Z</time></trkpt><trkpt lat="42.602057567942445" lon="12.68213149949685"><ele>279.0</ele><time>2026-05-02T12:37:26Z</time></trkpt><trkpt lat="42.601899868988504" lon="12.682100854101641"><ele>276.0</ele><time>2026-05-02T12:37:27Z</time></trkpt><trkpt lat="42.601739236092115" lon="12.682109581965054"><ele>273.0</ele><time>2026-05-02T12:37:28Z</time></trkpt><trkpt lat="42.60157131800315" lon="12.682103418538574"><ele>270.0</ele><time>2026-05-02T12:37:29Z</time></trkpt><trkpt lat="42.601412948576474" lon="12.682108527212556"><ele>270.0</ele><time>2026-05-02T12:37:30Z</time></trkpt><trkpt lat="42.60125528452487" lon="12.682114493547504"><ele>270.0</ele><time>2026-05-02T12:37:31Z</time></trkpt><trkpt lat="42.601102716938016" lon="12.682125497590782"><ele>270.0</ele><time>2026-05-02T12:37:32Z</time></trkpt><trkpt lat="42.600947261027876" lon="12.682177863509695"><ele>272.6666666666667</ele><time>2026-05-02T12:37:33Z</time></trkpt><trkpt lat="42.600804111906236" lon="12.682305088762865"><ele>275.33333333333337</ele><time>2026-05-02T12:37:34Z</time></trkpt><trkpt lat="42.600676591387376" lon="12.682454323688331"><ele>278.0</ele><time>2026-05-02T12:37:35Z</time></trkpt><trkpt lat="42.60054708606286" lon="12.682620581167528"><ele>281.0</ele><time>2026-05-02T12:37:36Z</time></trkpt><trkpt lat="42.60043370776404" lon="12.682784504238159"><ele>284.0</ele><time>2026-05-02T12:37:37Z</time></trkpt><trkpt lat="42.600323365385016" lon="12.682936725011006"><ele>287.0</ele><time>2026-05-02T12:37:38Z</time></trkpt><trkpt lat="42.60022356529073" lon="12.683077187709046"><ele>287.0</ele><time>2026-05-02T12:37:39Z</time></trkpt><trkpt lat="42.60013175495204" lon="12.683232605081747"><ele>287.0</ele><time>2026-05-02T12:37:40Z</time></trkpt><trkpt lat="42.6000931992338" lon="12.683431885627144"><ele>287.0</ele><time>2026-05-02T12:37:41Z</time></trkpt><trkpt lat="42.60008091458915" lon="12.6836201809504"><ele>287.0</ele><time>2026-05-02T12:37:42Z</time></trkpt><trkpt lat="42.60008287310837" lon="12.683813954969157"><ele>277.33333333333337</ele><time>2026-05-02T12:37:43Z</time></trkpt><trkpt lat="42.60006917955652" lon="12.684000745925044"><ele>267.6666666666667</ele><time>2026-05-02T12:37:44Z</time></trkpt><trkpt lat="42.599993308440546" lon="12.684163516853815"><ele>258.0</ele><time>2026-05-02T12:37:45Z</time></trkpt><trkpt lat="42.59987969829406" lon="12.684338912357633"><ele>250.0</ele><time>2026-05-02T12:37:46Z</time></trkpt><trkpt lat="42.59976993932691" lon="12.684544976202341"><ele>242.0</ele><time>2026-05-02T12:37:47Z</time></trkpt><trkpt lat="42.59965573198716" lon="12.684727557471989"><ele>234.0</ele><time>2026-05-02T12:37:48Z</time></trkpt><trkpt lat="42.599618913174325" lon="12.684822983627976"><ele>226.0</ele><time>2026-05-02T12:37:49Z</time></trkpt><trkpt lat="42.599549755705425" lon="12.684981360926818"><ele>227.0</ele><time>2026-05-02T12:37:50Z</time></trkpt><trkpt lat="42.59948648700706" lon="12.68513278003137"><ele>228.0</ele><time>2026-05-02T12:37:51Z</time></trkpt><trkpt lat="42.599407669529036" lon="12.685255387274168"><ele>229.0</ele><time>2026-05-02T12:37:52Z</time></trkpt><trkpt lat="42.59932600071777" lon="12.68534760394501"><ele>230.0</ele><time>2026-05-02T12:37:53Z</time></trkpt><trkpt lat="42.59923270814192" lon="12.685410299586424"><ele>230.0</ele><time>2026-05-02T12:37:54Z</time></trkpt><trkpt lat="42.599124970003345" lon="12.685439197683728"><ele>230.0</ele><time>2026-05-02T12:37:55Z</time></trkpt><trkpt lat="42.599006669640914" lon="12.685420782880216"><ele>230.0</ele><time>2026-05-02T12:37:56Z</time></trkpt><trkpt lat="42.59885917132443" lon="12.685406092802502"><ele>230.0</ele><time>2026-05-02T12:37:57Z</time></trkpt><trkpt lat="42.59872447275912" lon="12.685392729699096"><ele>230.0</ele><time>2026-05-02T12:37:58Z</time></trkpt><trkpt lat="42.59859620502653" lon="12.685380148697087"><ele>230.0</ele><time>2026-05-02T12:37:59Z</time></trkpt><trkpt lat="42.59847116306541" lon="12.685372357422885"><ele>230.0</ele><time>2026-05-02T12:38:00Z</time></trkpt><trkpt lat="42.598340582530746" lon="12.685387058094905"><ele>230.0</ele><time>2026-05-02T12:38:01Z</time></trkpt><trkpt lat="42.59820321812119" lon="12.685432108963811"><ele>230.0</ele><time>2026-05-02T12:38:02Z</time></trkpt><trkpt lat="42.59806166765647" lon="12.685463342125992"><ele>230.0</ele><time>2026-05-02T12:38:03Z</time></trkpt><trkpt lat="42.597910164265954" lon="12.68546487523928"><ele>230.0</ele><time>2026-05-02T12:38:04Z</time></trkpt><trkpt lat="42.597748762116176" lon="12.685444482608354"><ele>226.33333333333334</ele><time>2026-05-02T12:38:05Z</time></trkpt><trkpt lat="42.59757775306204" lon="12.685433617429945"><ele>222.66666666666669</ele><time>2026-05-02T12:38:06Z</time></trkpt><trkpt lat="42.597420486732744" lon="12.685407910668737"><ele>219.0</ele><time>2026-05-02T12:38:07Z</time></trkpt><trkpt lat="42.59727208444972" lon="12.685388790123111"><ele>219.0</ele><time>2026-05-02T12:38:08Z</time></trkpt><trkpt lat="42.59712691787399" lon="12.685363712303188"><ele>219.0</ele><time>2026-05-02T12:38:09Z</time></trkpt><trkpt lat="42.59701188000908" lon="12.68527926093451"><ele>219.0</ele><time>2026-05-02T12:38:10Z</time></trkpt><trkpt lat="42.59693240246566" lon="12.685165884195712"><ele>219.0</ele><time>2026-05-02T12:38:11Z</time></trkpt><trkpt lat="42.59684137571593" lon="12.685004344597097"><ele>221.33333333333331</ele><time>2026-05-02T12:38:12Z</time></trkpt><trkpt lat="42.5967745353514" lon="12.68482350798293"><ele>223.66666666666666</ele><time>2026-05-02T12:38:13Z</time></trkpt><trkpt lat="42.59672142789171" lon="12.684621439385056"><ele>226.0</ele><time>2026-05-02T12:38:14Z</time></trkpt><trkpt lat="42.596679036593564" lon="12.684410174570486"><ele>229.0</ele><time>2026-05-02T12:38:15Z</time></trkpt><trkpt lat="42.596647276260136" lon="12.684212567315306"><ele>232.0</ele><time>2026-05-02T12:38:16Z</time></trkpt><trkpt lat="42.596607264695855" lon="12.68402152325348"><ele>235.0</ele><time>2026-05-02T12:38:17Z</time></trkpt><trkpt lat="42.596560576954595" lon="12.683842242409058"><ele>238.0</ele><time>2026-05-02T12:38:18Z</time></trkpt><trkpt lat="42.596500701772584" lon="12.683656995819666"><ele>242.33333333333331</ele><time>2026-05-02T12:38:19Z</time></trkpt><trkpt lat="42.59642560068808" lon="12.683461295716006"><ele>246.66666666666669</ele><time>2026-05-02T12:38:20Z</time></trkpt><trkpt lat="42.596342862685084" lon="12.683265031463126"><ele>251.0</ele><time>2026-05-02T12:38:21Z</time></trkpt><trkpt lat="42.59625413500351" lon="12.683051855757386"><ele>251.0</ele><time>2026-05-02T12:38:22Z</time></trkpt><trkpt lat="42.59617287445756" lon="12.682840668214787"><ele>251.0</ele><time>2026-05-02T12:38:23Z</time></trkpt><trkpt lat="42.59610105581175" lon="12.682647657819262"><ele>251.0</ele><time>2026-05-02T12:38:24Z</time></trkpt><trkpt lat="42.59602059038712" lon="12.682462157978472"><ele>243.0</ele><time>2026-05-02T12:38:25Z</time></trkpt><trkpt lat="42.595921785353816" lon="12.682311763545256"><ele>235.0</ele><time>2026-05-02T12:38:26Z</time></trkpt><trkpt lat="42.59581595944558" lon="12.682187920730263"><ele>227.0</ele><time>2026-05-02T12:38:27Z</time></trkpt><trkpt lat="42.59569867076663" lon="12.682094149180099"><ele>219.0</ele><time>2026-05-02T12:38:28Z</time></trkpt><trkpt lat="42.59557359806511" lon="12.682052238536842"><ele>219.0</ele><time>2026-05-02T12:38:29Z</time></trkpt><trkpt lat="42.59545428255522" lon="12.682031628705575"><ele>219.0</ele><time>2026-05-02T12:38:30Z</time></trkpt><trkpt lat="42.59534655638628" lon="12.681989100934997"><ele>219.0</ele><time>2026-05-02T12:38:31Z</time></trkpt><trkpt lat="42.59525358475457" lon="12.681888846558644"><ele>219.0</ele><time>2026-05-02T12:38:32Z</time></trkpt><trkpt lat="42.59518897048931" lon="12.681719811672412"><ele>215.0</ele><time>2026-05-02T12:38:33Z</time></trkpt><trkpt lat="42.59509428187048" lon="12.681539018042042"><ele>211.0</ele><time>2026-05-02T12:38:34Z</time></trkpt><trkpt lat="42.59501955727437" lon="12.681353263047189"><ele>207.0</ele><time>2026-05-02T12:38:34.999Z</time></trkpt><trkpt lat="42.59494238988133" lon="12.681182704708995"><ele>216.66666666666669</ele><time>2026-05-02T12:38:35.999Z</time></trkpt><trkpt lat="42.59486274819047" lon="12.681014210949112"><ele>226.33333333333334</ele><time>2026-05-02T12:38:36.999Z</time></trkpt><trkpt lat="42.59478015898893" lon="12.68083377017225"><ele>236.0</ele><time>2026-05-02T12:38:37.999Z</time></trkpt><trkpt lat="42.59468696840222" lon="12.680677546094334"><ele>236.0</ele><time>2026-05-02T12:38:38.999Z</time></trkpt><trkpt lat="42.59456682615451" lon="12.680547285826291"><ele>236.0</ele><time>2026-05-02T12:38:39.999Z</time></trkpt><trkpt lat="42.59441186902477" lon="12.680439606931396"><ele>236.0</ele><time>2026-05-02T12:38:40.999Z</time></trkpt><trkpt lat="42.59425360873069" lon="12.680349796697396"><ele>230.0</ele><time>2026-05-02T12:38:41.999Z</time></trkpt><trkpt lat="42.59411366695548" lon="12.680247243580151"><ele>224.0</ele><time>2026-05-02T12:38:42.999Z</time></trkpt><trkpt lat="42.59398278654779" lon="12.680144551715172"><ele>218.0</ele><time>2026-05-02T12:38:43.999Z</time></trkpt><trkpt lat="42.593858602712345" lon="12.680036591020604"><ele>218.0</ele><time>2026-05-02T12:38:44.999Z</time></trkpt><trkpt lat="42.5937339993143" lon="12.67993505129481"><ele>218.0</ele><time>2026-05-02T12:38:45.999Z</time></trkpt><trkpt lat="42.593615688521275" lon="12.679836634388945"><ele>218.0</ele><time>2026-05-02T12:38:46.999Z</time></trkpt><trkpt lat="42.59353293380703" lon="12.679726298337972"><ele>218.0</ele><time>2026-05-02T12:38:47.999Z</time></trkpt><trkpt lat="42.59346636077466" lon="12.679596288841916"><ele>212.0</ele><time>2026-05-02T12:38:48.999Z</time></trkpt><trkpt lat="42.59344031449722" lon="12.679428737765866"><ele>206.0</ele><time>2026-05-02T12:38:49.999Z</time></trkpt><trkpt lat="42.59342554004708" lon="12.67925498095783"><ele>200.0</ele><time>2026-05-02T12:38:50.999Z</time></trkpt><trkpt lat="42.593399169282854" lon="12.679077780003112"><ele>194.0</ele><time>2026-05-02T12:38:51.999Z</time></trkpt><trkpt lat="42.59339783270584" lon="12.678912060857689"><ele>194.0</ele><time>2026-05-02T12:38:52.999Z</time></trkpt><trkpt lat="42.5933788526879" lon="12.678730075026293"><ele>194.0</ele><time>2026-05-02T12:38:53.999Z</time></trkpt><trkpt lat="42.593352468359925" lon="12.6785552894791"><ele>194.0</ele><time>2026-05-02T12:38:54.999Z</time></trkpt><trkpt lat="42.59334607019744" lon="12.67839273496593"><ele>194.0</ele><time>2026-05-02T12:38:55.999Z</time></trkpt><trkpt lat="42.5933322299849" lon="12.678219862693258"><ele>195.5</ele><time>2026-05-02T12:38:56.999Z</time></trkpt><trkpt lat="42.59331909679023" lon="12.67805101438243"><ele>197.0</ele><time>2026-05-02T12:38:57.999Z</time></trkpt><trkpt lat="42.59329336621755" lon="12.677894386137492"><ele>198.5</ele><time>2026-05-02T12:38:58.999Z</time></trkpt><trkpt lat="42.59323415044681" lon="12.677737143683908"><ele>200.0</ele><time>2026-05-02T12:38:59.999Z</time></trkpt><trkpt lat="42.59314528239203" lon="12.677592672042216"><ele>202.5</ele><time>2026-05-02T12:39:00.999Z</time></trkpt><trkpt lat="42.59305702316371" lon="12.677458885159615"><ele>205.0</ele><time>2026-05-02T12:39:01.999Z</time></trkpt><trkpt lat="42.59297373417934" lon="12.67731388626441"><ele>207.5</ele><time>2026-05-02T12:39:02.999Z</time></trkpt><trkpt lat="42.59289304696587" lon="12.677156041393124"><ele>210.0</ele><time>2026-05-02T12:39:03.999Z</time></trkpt><trkpt lat="42.59279754348556" lon="12.677003223015447"><ele>208.0</ele><time>2026-05-02T12:39:05Z</time></trkpt><trkpt lat="42.592678883866085" lon="12.676867850179848"><ele>206.0</ele><time>2026-05-02T12:39:06Z</time></trkpt><trkpt lat="42.592538147169215" lon="12.676749840426963"><ele>204.0</ele><time>2026-05-02T12:39:07Z</time></trkpt><trkpt lat="42.59238565299691" lon="12.676647348212637"><ele>204.0</ele><time>2026-05-02T12:39:08Z</time></trkpt><trkpt lat="42.59224161016006" lon="12.676568726649364"><ele>204.0</ele><time>2026-05-02T12:39:09Z</time></trkpt><trkpt lat="42.59210659653651" lon="12.676495894383464"><ele>204.0</ele><time>2026-05-02T12:39:10Z</time></trkpt><trkpt lat="42.59197117923255" lon="12.676433085969402"><ele>204.0</ele><time>2026-05-02T12:39:11Z</time></trkpt><trkpt lat="42.59183819939438" lon="12.676361180497977"><ele>197.0</ele><time>2026-05-02T12:39:12Z</time></trkpt><trkpt lat="42.59167973907375" lon="12.676353769694808"><ele>190.0</ele><time>2026-05-02T12:39:13Z</time></trkpt><trkpt lat="42.591513004865945" lon="12.676347785203886"><ele>183.0</ele><time>2026-05-02T12:39:14Z</time></trkpt><trkpt lat="42.591354765523015" lon="12.676375517491008"><ele>183.0</ele><time>2026-05-02T12:39:15Z</time></trkpt><trkpt lat="42.59121208257375" lon="12.676361910183546"><ele>183.0</ele><time>2026-05-02T12:39:16Z</time></trkpt><trkpt lat="42.59107866203613" lon="12.676342074738171"><ele>183.0</ele><time>2026-05-02T12:39:17Z</time></trkpt><trkpt lat="42.590948094271944" lon="12.67631989233819"><ele>183.0</ele><time>2026-05-02T12:39:18Z</time></trkpt><trkpt lat="42.59080086806783" lon="12.676268349786055"><ele>181.75</ele><time>2026-05-02T12:39:19Z</time></trkpt><trkpt lat="42.590667023605015" lon="12.676230613305316"><ele>180.5</ele><time>2026-05-02T12:39:20Z</time></trkpt><trkpt lat="42.59054330140872" lon="12.67621861085671"><ele>179.25</ele><time>2026-05-02T12:39:21Z</time></trkpt><trkpt lat="42.59042861739844" lon="12.67620721806734"><ele>178.0</ele><time>2026-05-02T12:39:22Z</time></trkpt><trkpt lat="42.59031685284896" lon="12.676211418297429"><ele>177.4</ele><time>2026-05-02T12:39:23Z</time></trkpt><trkpt lat="42.59021123870159" lon="12.676226948208313"><ele>176.8</ele><time>2026-05-02T12:39:24Z</time></trkpt><trkpt lat="42.59013329008569" lon="12.676266578132914"><ele>176.2</ele><time>2026-05-02T12:39:25Z</time></trkpt><trkpt lat="42.59002576125199" lon="12.676171008885863"><ele>175.6</ele><time>2026-05-02T12:39:26Z</time></trkpt><trkpt lat="42.589942668736526" lon="12.676136742376"><ele>175.0</ele><time>2026-05-02T12:39:27Z</time></trkpt><trkpt lat="42.58987901208347" lon="12.676156458569286"><ele>175.0</ele><time>2026-05-02T12:39:28Z</time></trkpt><trkpt lat="42.589829557332656" lon="12.676217822234369"><ele>175.0</ele><time>2026-05-02T12:39:29Z</time></trkpt><trkpt lat="42.589746959524795" lon="12.676267921601282"><ele>175.0</ele><time>2026-05-02T12:39:31Z</time></trkpt><trkpt lat="42.58967652398584" lon="12.67618453493877"><ele>175.0</ele><time>2026-05-02T12:39:32Z</time></trkpt><trkpt lat="42.58957375448567" lon="12.676143478321062"><ele>175.0</ele><time>2026-05-02T12:39:33Z</time></trkpt><trkpt lat="42.58945930696859" lon="12.676116657349212"><ele>174.5</ele><time>2026-05-02T12:39:34Z</time></trkpt><trkpt lat="42.58933402636004" lon="12.676114328804966"><ele>174.0</ele><time>2026-05-02T12:39:35Z</time></trkpt><trkpt lat="42.58920605635572" lon="12.676081560988305"><ele>173.5</ele><time>2026-05-02T12:39:36Z</time></trkpt><trkpt lat="42.58907094679774" lon="12.67608184663931"><ele>173.0</ele><time>2026-05-02T12:39:37Z</time></trkpt><trkpt lat="42.58893625177954" lon="12.676060506650275"><ele>173.0</ele><time>2026-05-02T12:39:38Z</time></trkpt><trkpt lat="42.58879292181777" lon="12.676054194294474"><ele>173.0</ele><time>2026-05-02T12:39:39Z</time></trkpt><trkpt lat="42.588644922808854" lon="12.676075281000502"><ele>173.0</ele><time>2026-05-02T12:39:40Z</time></trkpt><trkpt lat="42.58849298145527" lon="12.676121353534624"><ele>173.0</ele><time>2026-05-02T12:39:41Z</time></trkpt><trkpt lat="42.58835015034591" lon="12.676162178579844"><ele>172.4</ele><time>2026-05-02T12:39:42Z</time></trkpt><trkpt lat="42.58822652577645" lon="12.67621197942736"><ele>171.8</ele><time>2026-05-02T12:39:43Z</time></trkpt><trkpt lat="42.58812027548512" lon="12.676247895028432"><ele>171.2</ele><time>2026-05-02T12:39:44Z</time></trkpt><trkpt lat="42.58802546497501" lon="12.676248562602368"><ele>170.6</ele><time>2026-05-02T12:39:45Z</time></trkpt><trkpt lat="42.5879325274087" lon="12.67624247482687"><ele>170.0</ele><time>2026-05-02T12:39:46Z</time></trkpt><trkpt lat="42.58782442431165" lon="12.676216106758897"><ele>170.0</ele><time>2026-05-02T12:39:47Z</time></trkpt><trkpt lat="42.58771317341882" lon="12.676162237743918"><ele>170.0</ele><time>2026-05-02T12:39:48Z</time></trkpt><trkpt lat="42.58759525739072" lon="12.676107849017685"><ele>170.0</ele><time>2026-05-02T12:39:49Z</time></trkpt><trkpt lat="42.587474212896545" lon="12.676066701490468"><ele>170.0</ele><time>2026-05-02T12:39:50Z</time></trkpt><trkpt lat="42.58735873605194" lon="12.676007661851296"><ele>169.75</ele><time>2026-05-02T12:39:51Z</time></trkpt><trkpt lat="42.587240779680194" lon="12.67594821367228"><ele>169.5</ele><time>2026-05-02T12:39:52Z</time></trkpt><trkpt lat="42.587138424038066" lon="12.675859728458061"><ele>169.25</ele><time>2026-05-02T12:39:53Z</time></trkpt><trkpt lat="42.587027581152334" lon="12.675761802307258"><ele>169.0</ele><time>2026-05-02T12:39:54Z</time></trkpt><trkpt lat="42.5869038205759" lon="12.675690655414561"><ele>168.75</ele><time>2026-05-02T12:39:55Z</time></trkpt><trkpt lat="42.58678165286331" lon="12.675599061592825"><ele>168.5</ele><time>2026-05-02T12:39:56Z</time></trkpt><trkpt lat="42.58665076992146" lon="12.675537482452796"><ele>168.25</ele><time>2026-05-02T12:39:57Z</time></trkpt><trkpt lat="42.58653564563433" lon="12.675493397292687"><ele>168.0</ele><time>2026-05-02T12:39:58Z</time></trkpt><trkpt lat="42.586440396839826" lon="12.675405500991694"><ele>168.0</ele><time>2026-05-02T12:39:59Z</time></trkpt><trkpt lat="42.58634190114742" lon="12.675308160350372"><ele>168.0</ele><time>2026-05-02T12:40:00Z</time></trkpt><trkpt lat="42.58623123605669" lon="12.675229455367727"><ele>168.0</ele><time>2026-05-02T12:40:01Z</time></trkpt><trkpt lat="42.58614602148336" lon="12.67512210204848"><ele>168.0</ele><time>2026-05-02T12:40:02Z</time></trkpt><trkpt lat="42.58606344592026" lon="12.67504291610529"><ele>169.4</ele><time>2026-05-02T12:40:03Z</time></trkpt><trkpt lat="42.58597210335316" lon="12.675004245881992"><ele>170.8</ele><time>2026-05-02T12:40:04Z</time></trkpt><trkpt lat="42.58587312239725" lon="12.67498954989478"><ele>172.2</ele><time>2026-05-02T12:40:05Z</time></trkpt><trkpt lat="42.58578789056547" lon="12.674989910432737"><ele>173.6</ele><time>2026-05-02T12:40:06Z</time></trkpt><trkpt lat="42.585712097110765" lon="12.674933209270224"><ele>175.0</ele><time>2026-05-02T12:40:07Z</time></trkpt><trkpt lat="42.58562992103068" lon="12.67488247911402"><ele>175.0</ele><time>2026-05-02T12:40:08Z</time></trkpt><trkpt lat="42.58556471449765" lon="12.674825628800075"><ele>175.0</ele><time>2026-05-02T12:40:09Z</time></trkpt><trkpt lat="42.585510411782074" lon="12.674781070488566"><ele>175.0</ele><time>2026-05-02T12:40:10Z</time></trkpt><trkpt lat="42.58545718960226" lon="12.674698087031647"><ele>175.0</ele><time>2026-05-02T12:40:12Z</time></trkpt><trkpt lat="42.58547143208" lon="12.674527666115797"><ele>175.0</ele><time>2026-05-02T12:40:14Z</time></trkpt><trkpt lat="42.58547566131316" lon="12.674403782486577"><ele>175.0</ele><time>2026-05-02T12:40:16Z</time></trkpt><trkpt lat="42.58537193907371" lon="12.674367529313903"><ele>176.5</ele><time>2026-05-02T12:40:18Z</time></trkpt><trkpt lat="42.585277699526806" lon="12.674276002935228"><ele>178.0</ele><time>2026-05-02T12:40:20Z</time></trkpt><trkpt lat="42.58516422430289" lon="12.674193224023398"><ele>179.5</ele><time>2026-05-02T12:40:22Z</time></trkpt><trkpt lat="42.58507942782161" lon="12.674076491483945"><ele>181.0</ele><time>2026-05-02T12:40:24Z</time></trkpt><trkpt lat="42.58502210988173" lon="12.673960097474655"><ele>181.0</ele><time>2026-05-02T12:40:26Z</time></trkpt><trkpt lat="42.58510690110603" lon="12.67380313244405"><ele>181.0</ele><time>2026-05-02T12:40:28Z</time></trkpt><trkpt lat="42.58515542295143" lon="12.673693115049238"><ele>181.0</ele><time>2026-05-02T12:40:29Z</time></trkpt><trkpt lat="42.585176101200545" lon="12.673594009199888"><ele>181.0</ele><time>2026-05-02T12:40:30Z</time></trkpt><trkpt lat="42.58519060191971" lon="12.67350719650831"><ele>181.0</ele><time>2026-05-02T12:40:31Z</time></trkpt><trkpt lat="42.58517648407564" lon="12.673415788736024"><ele>181.0</ele><time>2026-05-02T12:40:32Z</time></trkpt><trkpt lat="42.585145493463514" lon="12.673311124838458"><ele>182.20000000000002</ele><time>2026-05-02T12:40:33Z</time></trkpt><trkpt lat="42.58511260801255" lon="12.673229836026959"><ele>183.4</ele><time>2026-05-02T12:40:34Z</time></trkpt><trkpt lat="42.58518069575137" lon="12.673159691567996"><ele>184.6</ele><time>2026-05-02T12:40:34.999Z</time></trkpt><trkpt lat="42.58520621223801" lon="12.672991704002722"><ele>185.8</ele><time>2026-05-02T12:40:36.999Z</time></trkpt><trkpt lat="42.58515061183056" lon="12.67284569423931"><ele>187.0</ele><time>2026-05-02T12:40:38.999Z</time></trkpt><trkpt lat="42.58504223703558" lon="12.672827459657496"><ele>187.0</ele><time>2026-05-02T12:40:39.999Z</time></trkpt><trkpt lat="42.58495274990047" lon="12.672822160668797"><ele>187.0</ele><time>2026-05-02T12:40:40.999Z</time></trkpt><trkpt lat="42.584864215646085" lon="12.672838959239332"><ele>187.0</ele><time>2026-05-02T12:40:41.999Z</time></trkpt><trkpt lat="42.5847753639902" lon="12.672855023195554"><ele>187.0</ele><time>2026-05-02T12:40:42.999Z</time></trkpt><trkpt lat="42.584700651781176" lon="12.672860562689703"><ele>187.0</ele><time>2026-05-02T12:40:43.999Z</time></trkpt><trkpt lat="42.58463676131763" lon="12.672860562692055"><ele>187.0</ele><time>2026-05-02T12:40:44.999Z</time></trkpt><trkpt lat="42.58453861218419" lon="12.672835249842851"><ele>190.6</ele><time>2026-05-02T12:40:46.999Z</time></trkpt><trkpt lat="42.58446078801784" lon="12.672741484107332"><ele>194.2</ele><time>2026-05-02T12:40:48.999Z</time></trkpt><trkpt lat="42.5844300975532" lon="12.672634094789995"><ele>197.8</ele><time>2026-05-02T12:40:49.999Z</time></trkpt><trkpt lat="42.58437998707925" lon="12.672535319423602"><ele>201.4</ele><time>2026-05-02T12:40:50.999Z</time></trkpt><trkpt lat="42.58434885261102" lon="12.672421319334259"><ele>205.0</ele><time>2026-05-02T12:40:51.999Z</time></trkpt><trkpt lat="42.584321367430206" lon="12.672266383732762"><ele>205.0</ele><time>2026-05-02T12:40:53.999Z</time></trkpt><trkpt lat="42.58431346675209" lon="12.672094346656733"><ele>205.0</ele><time>2026-05-02T12:40:55.999Z</time></trkpt><trkpt lat="42.584324629074125" lon="12.671987963672755"><ele>205.0</ele><time>2026-05-02T12:40:56.999Z</time></trkpt><trkpt lat="42.58434839732217" lon="12.671861831708647"><ele>205.0</ele><time>2026-05-02T12:40:57.999Z</time></trkpt><trkpt lat="42.584363616635066" lon="12.671730443031052"><ele>205.0</ele><time>2026-05-02T12:40:58.999Z</time></trkpt><trkpt lat="42.584366753413036" lon="12.671593524599013"><ele>205.8</ele><time>2026-05-02T12:40:59.999Z</time></trkpt><trkpt lat="42.58436034482479" lon="12.671446364228293"><ele>206.6</ele><time>2026-05-02T12:41:00.999Z</time></trkpt><trkpt lat="42.5843441151275" lon="12.671306560495823"><ele>207.39999999999998</ele><time>2026-05-02T12:41:01.999Z</time></trkpt><trkpt lat="42.58433727900324" lon="12.671186607934956"><ele>208.2</ele><time>2026-05-02T12:41:02.999Z</time></trkpt><trkpt lat="42.584334543924435" lon="12.671063485287574"><ele>209.0</ele><time>2026-05-02T12:41:03.999Z</time></trkpt><trkpt lat="42.58430651507833" lon="12.670937314533028"><ele>209.33333333333334</ele><time>2026-05-02T12:41:04.999Z</time></trkpt><trkpt lat="42.58427927428959" lon="12.670837884921047"><ele>209.66666666666669</ele><time>2026-05-02T12:41:05.999Z</time></trkpt><trkpt lat="42.5842356735655" lon="12.670750107813262"><ele>210.0</ele><time>2026-05-02T12:41:06.999Z</time></trkpt><trkpt lat="42.58422364824992" lon="12.670657834982057"><ele>210.33333333333331</ele><time>2026-05-02T12:41:07.999Z</time></trkpt><trkpt lat="42.58421367307754" lon="12.670518665219923"><ele>210.66666666666666</ele><time>2026-05-02T12:41:09.999Z</time></trkpt><trkpt lat="42.58420171238983" lon="12.670428534217596"><ele>211.0</ele><time>2026-05-02T12:41:13Z</time></trkpt><trkpt lat="42.5840475798061" lon="12.670461356401079"><ele>211.0</ele><time>2026-05-02T12:41:14Z</time></trkpt><trkpt lat="42.58395283713486" lon="12.670471156950526"><ele>211.0</ele><time>2026-05-02T12:41:15Z</time></trkpt><trkpt lat="42.58386402324004" lon="12.670501230817868"><ele>211.0</ele><time>2026-05-02T12:41:16Z</time></trkpt><trkpt lat="42.58376533423028" lon="12.6705710974462"><ele>211.0</ele><time>2026-05-02T12:41:17Z</time></trkpt><trkpt lat="42.58368730172577" lon="12.670657366552645"><ele>211.0</ele><time>2026-05-02T12:41:18Z</time></trkpt><trkpt lat="42.58359384195941" lon="12.670727079663804"><ele>210.0</ele><time>2026-05-02T12:41:19Z</time></trkpt><trkpt lat="42.58348993225172" lon="12.670787950498028"><ele>209.0</ele><time>2026-05-02T12:41:20Z</time></trkpt><trkpt lat="42.58337346637393" lon="12.670794874234357"><ele>208.0</ele><time>2026-05-02T12:41:21Z</time></trkpt><trkpt lat="42.58324638421953" lon="12.670815198270514"><ele>207.0</ele><time>2026-05-02T12:41:22Z</time></trkpt><trkpt lat="42.58310612079158" lon="12.670846067230178"><ele>207.0</ele><time>2026-05-02T12:41:23Z</time></trkpt><trkpt lat="42.58296857138674" lon="12.670889487517602"><ele>207.0</ele><time>2026-05-02T12:41:24Z</time></trkpt><trkpt lat="42.58284711324838" lon="12.670943712528194"><ele>207.0</ele><time>2026-05-02T12:41:25Z</time></trkpt><trkpt lat="42.58272660601563" lon="12.670980966739611"><ele>207.0</ele><time>2026-05-02T12:41:26Z</time></trkpt><trkpt lat="42.58261113024512" lon="12.671025545428297"><ele>206.75</ele><time>2026-05-02T12:41:27Z</time></trkpt><trkpt lat="42.58249374837958" lon="12.671077748565263"><ele>206.5</ele><time>2026-05-02T12:41:28Z</time></trkpt><trkpt lat="42.58238270691759" lon="12.671119996476977"><ele>206.25</ele><time>2026-05-02T12:41:29Z</time></trkpt><trkpt lat="42.58226901565002" lon="12.671139318767983"><ele>206.0</ele><time>2026-05-02T12:41:30Z</time></trkpt><trkpt lat="42.58215236036801" lon="12.671121391815783"><ele>204.25</ele><time>2026-05-02T12:41:31Z</time></trkpt><trkpt lat="42.58202784520325" lon="12.671064602767473"><ele>202.5</ele><time>2026-05-02T12:41:32Z</time></trkpt><trkpt lat="42.581920039059504" lon="12.670998429794302"><ele>200.75</ele><time>2026-05-02T12:41:33Z</time></trkpt><trkpt lat="42.581806660283945" lon="12.6709326053418"><ele>199.0</ele><time>2026-05-02T12:41:34Z</time></trkpt><trkpt lat="42.58168843558776" lon="12.670901642939043"><ele>197.75</ele><time>2026-05-02T12:41:35Z</time></trkpt><trkpt lat="42.581571772470426" lon="12.670900340110363"><ele>196.5</ele><time>2026-05-02T12:41:36Z</time></trkpt><trkpt lat="42.581450956207" lon="12.670915106230757"><ele>195.25</ele><time>2026-05-02T12:41:37Z</time></trkpt><trkpt lat="42.58132656424072" lon="12.670913186966603"><ele>194.0</ele><time>2026-05-02T12:41:38Z</time></trkpt><trkpt lat="42.58121398596358" lon="12.670888944794562"><ele>192.25</ele><time>2026-05-02T12:41:39Z</time></trkpt><trkpt lat="42.58110873465973" lon="12.670853393301487"><ele>190.5</ele><time>2026-05-02T12:41:40Z</time></trkpt><trkpt lat="42.58100573926822" lon="12.670770718242322"><ele>188.75</ele><time>2026-05-02T12:41:41Z</time></trkpt><trkpt lat="42.58089247956703" lon="12.670701116385594"><ele>187.0</ele><time>2026-05-02T12:41:42Z</time></trkpt><trkpt lat="42.5807783560107" lon="12.670651055722498"><ele>187.0</ele><time>2026-05-02T12:41:43Z</time></trkpt><trkpt lat="42.58066848274992" lon="12.670596150468093"><ele>187.0</ele><time>2026-05-02T12:41:44Z</time></trkpt><trkpt lat="42.5805390068912" lon="12.670567223756162"><ele>187.0</ele><time>2026-05-02T12:41:45Z</time></trkpt><trkpt lat="42.5804101694975" lon="12.670573338772193"><ele>187.0</ele><time>2026-05-02T12:41:46Z</time></trkpt><trkpt lat="42.58028672187689" lon="12.670539804663287"><ele>185.75</ele><time>2026-05-02T12:41:47Z</time></trkpt><trkpt lat="42.580155531524476" lon="12.67053519480097"><ele>184.5</ele><time>2026-05-02T12:41:48Z</time></trkpt><trkpt lat="42.58003397221267" lon="12.670514646055953"><ele>183.25</ele><time>2026-05-02T12:41:49Z</time></trkpt><trkpt lat="42.57992687427188" lon="12.670475597657221"><ele>182.0</ele><time>2026-05-02T12:41:50Z</time></trkpt><trkpt lat="42.57980623270098" lon="12.670444890311618"><ele>182.0</ele><time>2026-05-02T12:41:51Z</time></trkpt><trkpt lat="42.57968053340704" lon="12.670412054295742"><ele>182.0</ele><time>2026-05-02T12:41:52Z</time></trkpt><trkpt lat="42.57954487433443" lon="12.67039401605641"><ele>182.0</ele><time>2026-05-02T12:41:53Z</time></trkpt><trkpt lat="42.57942882793833" lon="12.670355344904344"><ele>182.0</ele><time>2026-05-02T12:41:54Z</time></trkpt><trkpt lat="42.57932716395612" lon="12.6702985220599"><ele>181.8</ele><time>2026-05-02T12:41:55Z</time></trkpt><trkpt lat="42.579231420651325" lon="12.670277265004557"><ele>181.6</ele><time>2026-05-02T12:41:56Z</time></trkpt><trkpt lat="42.57913094337928" lon="12.670230338713022"><ele>181.4</ele><time>2026-05-02T12:41:57Z</time></trkpt><trkpt lat="42.57903848427919" lon="12.67017369514218"><ele>181.20000000000002</ele><time>2026-05-02T12:41:58Z</time></trkpt><trkpt lat="42.57894563183237" lon="12.670110972154054"><ele>181.0</ele><time>2026-05-02T12:41:59Z</time></trkpt><trkpt lat="42.57884724279212" lon="12.670043915881253"><ele>180.8</ele><time>2026-05-02T12:42:00Z</time></trkpt><trkpt lat="42.57876504404864" lon="12.670003166966533"><ele>180.60000000000002</ele><time>2026-05-02T12:42:01Z</time></trkpt><trkpt lat="42.57868916752695" lon="12.66995722728761"><ele>180.4</ele><time>2026-05-02T12:42:02Z</time></trkpt><trkpt lat="42.57863960865108" lon="12.669902818635755"><ele>180.2</ele><time>2026-05-02T12:42:03Z</time></trkpt><trkpt lat="42.5785919285959" lon="12.66982564860198"><ele>180.0</ele><time>2026-05-02T12:42:05Z</time></trkpt><trkpt lat="42.5786986960184" lon="12.669646060671884"><ele>180.0</ele><time>2026-05-02T12:42:06Z</time></trkpt><trkpt lat="42.57880792446937" lon="12.669612233614274"><ele>180.0</ele><time>2026-05-02T12:42:07Z</time></trkpt><trkpt lat="42.578900772898315" lon="12.669558277432198"><ele>180.0</ele><time>2026-05-02T12:42:08Z</time></trkpt><trkpt lat="42.578984298433745" lon="12.669537253573548"><ele>180.0</ele><time>2026-05-02T12:42:09Z</time></trkpt><trkpt lat="42.57904176466429" lon="12.669491578510623"><ele>180.0</ele><time>2026-05-02T12:42:10Z</time></trkpt><trkpt lat="42.579051891646266" lon="12.669298106732064"><ele>178.4</ele><time>2026-05-02T12:42:12Z</time></trkpt><trkpt lat="42.57901659085462" lon="12.669161637428088"><ele>176.8</ele><time>2026-05-02T12:42:13Z</time></trkpt><trkpt lat="42.57898960217145" lon="12.669030047183496"><ele>175.2</ele><time>2026-05-02T12:42:14Z</time></trkpt><trkpt lat="42.579002088363275" lon="12.66891239482744"><ele>173.6</ele><time>2026-05-02T12:42:15Z</time></trkpt><trkpt lat="42.5790541852838" lon="12.668817655666526"><ele>172.0</ele><time>2026-05-02T12:42:16Z</time></trkpt><trkpt lat="42.579066075538215" lon="12.668709076417517"><ele>171.39999999999998</ele><time>2026-05-02T12:42:17Z</time></trkpt><trkpt lat="42.57904446524935" lon="12.668599066536013"><ele>170.79999999999998</ele><time>2026-05-02T12:42:18Z</time></trkpt><trkpt lat="42.57903256787128" lon="12.668500677334809"><ele>170.2</ele><time>2026-05-02T12:42:19Z</time></trkpt><trkpt lat="42.57898527540204" lon="12.668349879944648"><ele>169.6</ele><time>2026-05-02T12:42:21Z</time></trkpt><trkpt lat="42.578949304595895" lon="12.66822586249616"><ele>169.0</ele><time>2026-05-02T12:42:23Z</time></trkpt><trkpt lat="42.578792895058555" lon="12.668286264535883"><ele>169.0</ele><time>2026-05-02T12:42:25Z</time></trkpt><trkpt lat="42.57869873334073" lon="12.668343128658629"><ele>169.0</ele><time>2026-05-02T12:42:26Z</time></trkpt><trkpt lat="42.57858433499206" lon="12.66837103197292"><ele>169.0</ele><time>2026-05-02T12:42:27Z</time></trkpt><trkpt lat="42.57848328942352" lon="12.668430261945579"><ele>169.0</ele><time>2026-05-02T12:42:28Z</time></trkpt><trkpt lat="42.57840115293062" lon="12.668453266998492"><ele>169.0</ele><time>2026-05-02T12:42:29Z</time></trkpt><trkpt lat="42.57833255379223" lon="12.668482808247541"><ele>168.83333333333334</ele><time>2026-05-02T12:42:30Z</time></trkpt><trkpt lat="42.57826102985635" lon="12.668506601309499"><ele>168.66666666666669</ele><time>2026-05-02T12:42:31Z</time></trkpt><trkpt lat="42.578182815117316" lon="12.668531098313407"><ele>168.5</ele><time>2026-05-02T12:42:32Z</time></trkpt><trkpt lat="42.578098674655486" lon="12.668561875143402"><ele>168.33333333333334</ele><time>2026-05-02T12:42:33Z</time></trkpt><trkpt lat="42.578020039872456" lon="12.668597255394767"><ele>168.16666666666666</ele><time>2026-05-02T12:42:34Z</time></trkpt><trkpt lat="42.577958311576836" lon="12.668617852666253"><ele>168.0</ele><time>2026-05-02T12:42:35Z</time></trkpt><trkpt lat="42.5779070619479" lon="12.668392108261898"><ele>167.0</ele><time>2026-05-02T12:42:39Z</time></trkpt><trkpt lat="42.577882451300596" lon="12.66829048366991"><ele>166.0</ele><time>2026-05-02T12:42:41Z</time></trkpt><trkpt lat="42.57784060120648" lon="12.668221410637607"><ele>165.0</ele><time>2026-05-02T12:42:47.012Z</time></trkpt><trkpt lat="42.57772595625611" lon="12.668497804564115"><ele>164.0</ele><time>2026-05-02T12:42:54.999Z</time></trkpt><trkpt lat="42.577640127894" lon="12.66851449255306"><ele>164.0</ele><time>2026-05-02T12:42:55.999Z</time></trkpt><trkpt lat="42.577908514107406" lon="12.668509623047584"><ele>164.0</ele><time>2026-05-02T12:45:53Z</time></trkpt><trkpt lat="42.57766705731917" lon="12.668580200933551"><ele>161.0</ele><time>2026-05-02T12:45:58Z</time></trkpt><trkpt lat="42.57750180801948" lon="12.668475611310582"><ele>161.0</ele><time>2026-05-02T12:48:19.717Z</time></trkpt></trkseg></trk></gpx>